<?xml version="1.0" encoding="UTF-8" standalone="no" ?>
<gpx xmlns="http://www.topografix.com/GPX/1/1" xmlns:xsi="http://www.w3.org/2001/XMLSchema-instance" xsi:schemaLocation="http://www.topografix.com/GPX/1/1 http://www.topografix.com/GPX/1/1/gpx.xsd" version="1.1" creator="VisuGPX - https://www.visugpx.com">
  <metadata>
    <name>Pouzenc Sud Est21 févr. 2021</name>
    <desc><![CDATA[grp_trc:]]></desc>
  </metadata>
  <trk>
    <name><![CDATA[Pouzenc Sud Est21 févr. 2021]]></name>
    <cmt><![CDATA[05:28:17]]></cmt>
    <desc><![CDATA[comment ...]]></desc>
    <trkseg>
      <trkpt lat="44.48447" lon="6.55023">
        <ele>1619</ele>
        <time>2021-02-21T04:28:18Z</time>
      </trkpt>
      <trkpt lat="44.48447" lon="6.55023">
        <ele>1619</ele>
        <time>2021-02-21T04:28:19Z</time>
      </trkpt>
      <trkpt lat="44.48447" lon="6.55023">
        <ele>1619</ele>
        <time>2021-02-21T04:28:20Z</time>
      </trkpt>
      <trkpt lat="44.48447" lon="6.55023">
        <ele>1619</ele>
        <time>2021-02-21T04:28:21Z</time>
      </trkpt>
      <trkpt lat="44.48447" lon="6.55023">
        <ele>1619</ele>
        <time>2021-02-21T04:28:22Z</time>
      </trkpt>
      <trkpt lat="44.48447" lon="6.55023">
        <ele>1619</ele>
        <time>2021-02-21T04:28:23Z</time>
      </trkpt>
      <trkpt lat="44.48447" lon="6.55023">
        <ele>1619</ele>
        <time>2021-02-21T04:28:24Z</time>
      </trkpt>
      <trkpt lat="44.48447" lon="6.55023">
        <ele>1619</ele>
        <time>2021-02-21T04:28:25Z</time>
      </trkpt>
      <trkpt lat="44.48447" lon="6.55023">
        <ele>1619</ele>
        <time>2021-02-21T04:28:26Z</time>
      </trkpt>
      <trkpt lat="44.48447" lon="6.55023">
        <ele>1619</ele>
        <time>2021-02-21T04:28:27Z</time>
      </trkpt>
      <trkpt lat="44.48447" lon="6.55023">
        <ele>1619</ele>
        <time>2021-02-21T04:28:28Z</time>
      </trkpt>
      <trkpt lat="44.48447" lon="6.55023">
        <ele>1619</ele>
        <time>2021-02-21T04:28:29Z</time>
      </trkpt>
      <trkpt lat="44.48447" lon="6.55023">
        <ele>1619</ele>
        <time>2021-02-21T04:28:30Z</time>
      </trkpt>
      <trkpt lat="44.48447" lon="6.55023">
        <ele>1619</ele>
        <time>2021-02-21T04:28:31Z</time>
      </trkpt>
      <trkpt lat="44.48447" lon="6.55023">
        <ele>1619</ele>
        <time>2021-02-21T04:28:32Z</time>
      </trkpt>
      <trkpt lat="44.48447" lon="6.55023">
        <ele>1619</ele>
        <time>2021-02-21T04:28:33Z</time>
      </trkpt>
      <trkpt lat="44.48447" lon="6.55023">
        <ele>1619</ele>
        <time>2021-02-21T04:28:34Z</time>
      </trkpt>
      <trkpt lat="44.48447" lon="6.55023">
        <ele>1619</ele>
        <time>2021-02-21T04:28:35Z</time>
      </trkpt>
      <trkpt lat="44.48447" lon="6.55023">
        <ele>1619</ele>
        <time>2021-02-21T04:28:36Z</time>
      </trkpt>
      <trkpt lat="44.48447" lon="6.55023">
        <ele>1619</ele>
        <time>2021-02-21T04:28:37Z</time>
      </trkpt>
      <trkpt lat="44.48447" lon="6.55023">
        <ele>1619</ele>
        <time>2021-02-21T04:28:38Z</time>
      </trkpt>
      <trkpt lat="44.48447" lon="6.55023">
        <ele>1619</ele>
        <time>2021-02-21T04:28:39Z</time>
      </trkpt>
      <trkpt lat="44.48447" lon="6.55023">
        <ele>1619</ele>
        <time>2021-02-21T04:28:40Z</time>
      </trkpt>
      <trkpt lat="44.48447" lon="6.55023">
        <ele>1619</ele>
        <time>2021-02-21T04:28:41Z</time>
      </trkpt>
      <trkpt lat="44.48447" lon="6.55023">
        <ele>1619</ele>
        <time>2021-02-21T04:28:42Z</time>
      </trkpt>
      <trkpt lat="44.48447" lon="6.55023">
        <ele>1619</ele>
        <time>2021-02-21T04:28:43Z</time>
      </trkpt>
      <trkpt lat="44.48447" lon="6.55023">
        <ele>1619</ele>
        <time>2021-02-21T04:28:44Z</time>
      </trkpt>
      <trkpt lat="44.48447" lon="6.55023">
        <ele>1619</ele>
        <time>2021-02-21T04:28:45Z</time>
      </trkpt>
      <trkpt lat="44.48447" lon="6.55023">
        <ele>1619</ele>
        <time>2021-02-21T04:28:46Z</time>
      </trkpt>
      <trkpt lat="44.48447" lon="6.55023">
        <ele>1619</ele>
        <time>2021-02-21T04:28:47Z</time>
      </trkpt>
      <trkpt lat="44.48447" lon="6.55023">
        <ele>1619</ele>
        <time>2021-02-21T04:28:48Z</time>
      </trkpt>
      <trkpt lat="44.48447" lon="6.55023">
        <ele>1619</ele>
        <time>2021-02-21T04:28:49Z</time>
      </trkpt>
      <trkpt lat="44.48447" lon="6.55023">
        <ele>1619</ele>
        <time>2021-02-21T04:28:50Z</time>
      </trkpt>
      <trkpt lat="44.48447" lon="6.55023">
        <ele>1619</ele>
        <time>2021-02-21T04:28:51Z</time>
      </trkpt>
      <trkpt lat="44.48447" lon="6.55023">
        <ele>1619</ele>
        <time>2021-02-21T04:28:52Z</time>
      </trkpt>
      <trkpt lat="44.48447" lon="6.55023">
        <ele>1619</ele>
        <time>2021-02-21T04:28:53Z</time>
      </trkpt>
      <trkpt lat="44.48447" lon="6.55023">
        <ele>1619</ele>
        <time>2021-02-21T04:28:54Z</time>
      </trkpt>
      <trkpt lat="44.48447" lon="6.55023">
        <ele>1619</ele>
        <time>2021-02-21T04:28:55Z</time>
      </trkpt>
      <trkpt lat="44.48447" lon="6.55023">
        <ele>1619</ele>
        <time>2021-02-21T04:28:56Z</time>
      </trkpt>
      <trkpt lat="44.48447" lon="6.55023">
        <ele>1619</ele>
        <time>2021-02-21T04:28:57Z</time>
      </trkpt>
      <trkpt lat="44.48447" lon="6.55023">
        <ele>1619</ele>
        <time>2021-02-21T04:28:58Z</time>
      </trkpt>
      <trkpt lat="44.48447" lon="6.55023">
        <ele>1619</ele>
        <time>2021-02-21T04:28:59Z</time>
      </trkpt>
      <trkpt lat="44.48447" lon="6.55023">
        <ele>1619</ele>
        <time>2021-02-21T04:29:00Z</time>
      </trkpt>
      <trkpt lat="44.48447" lon="6.55023">
        <ele>1619</ele>
        <time>2021-02-21T04:29:01Z</time>
      </trkpt>
      <trkpt lat="44.48447" lon="6.55023">
        <ele>1619</ele>
        <time>2021-02-21T04:29:02Z</time>
      </trkpt>
      <trkpt lat="44.48447" lon="6.55023">
        <ele>1619</ele>
        <time>2021-02-21T04:29:03Z</time>
      </trkpt>
      <trkpt lat="44.48447" lon="6.55023">
        <ele>1619</ele>
        <time>2021-02-21T04:29:04Z</time>
      </trkpt>
      <trkpt lat="44.48447" lon="6.55023">
        <ele>1619</ele>
        <time>2021-02-21T04:29:05Z</time>
      </trkpt>
      <trkpt lat="44.48447" lon="6.55023">
        <ele>1619</ele>
        <time>2021-02-21T04:29:06Z</time>
      </trkpt>
      <trkpt lat="44.48447" lon="6.55023">
        <ele>1619</ele>
        <time>2021-02-21T04:29:07Z</time>
      </trkpt>
      <trkpt lat="44.48447" lon="6.55023">
        <ele>1619</ele>
        <time>2021-02-21T04:29:08Z</time>
      </trkpt>
      <trkpt lat="44.48447" lon="6.55023">
        <ele>1619</ele>
        <time>2021-02-21T04:29:09Z</time>
      </trkpt>
      <trkpt lat="44.48448" lon="6.55021">
        <ele>1619</ele>
        <time>2021-02-21T04:29:10Z</time>
      </trkpt>
      <trkpt lat="44.48448" lon="6.55021">
        <ele>1619</ele>
        <time>2021-02-21T04:29:11Z</time>
      </trkpt>
      <trkpt lat="44.48448" lon="6.55021">
        <ele>1619</ele>
        <time>2021-02-21T04:29:12Z</time>
      </trkpt>
      <trkpt lat="44.48448" lon="6.55021">
        <ele>1619</ele>
        <time>2021-02-21T04:29:13Z</time>
      </trkpt>
      <trkpt lat="44.48448" lon="6.55021">
        <ele>1619</ele>
        <time>2021-02-21T04:29:14Z</time>
      </trkpt>
      <trkpt lat="44.48448" lon="6.55021">
        <ele>1619</ele>
        <time>2021-02-21T04:29:15Z</time>
      </trkpt>
      <trkpt lat="44.48448" lon="6.55021">
        <ele>1619</ele>
        <time>2021-02-21T04:29:16Z</time>
      </trkpt>
      <trkpt lat="44.48448" lon="6.55021">
        <ele>1619</ele>
        <time>2021-02-21T04:29:17Z</time>
      </trkpt>
      <trkpt lat="44.48448" lon="6.5502">
        <ele>1619</ele>
        <time>2021-02-21T04:29:18Z</time>
      </trkpt>
      <trkpt lat="44.48448" lon="6.55021">
        <ele>1619</ele>
        <time>2021-02-21T04:29:19Z</time>
      </trkpt>
      <trkpt lat="44.48448" lon="6.55022">
        <ele>1619</ele>
        <time>2021-02-21T04:29:20Z</time>
      </trkpt>
      <trkpt lat="44.48448" lon="6.55023">
        <ele>1619</ele>
        <time>2021-02-21T04:29:21Z</time>
      </trkpt>
      <trkpt lat="44.48449" lon="6.55023">
        <ele>1619</ele>
        <time>2021-02-21T04:29:22Z</time>
      </trkpt>
      <trkpt lat="44.48449" lon="6.55023">
        <ele>1619</ele>
        <time>2021-02-21T04:29:23Z</time>
      </trkpt>
      <trkpt lat="44.48449" lon="6.55022">
        <ele>1619</ele>
        <time>2021-02-21T04:29:24Z</time>
      </trkpt>
      <trkpt lat="44.48449" lon="6.55021">
        <ele>1619</ele>
        <time>2021-02-21T04:29:25Z</time>
      </trkpt>
      <trkpt lat="44.48449" lon="6.55021">
        <ele>1619</ele>
        <time>2021-02-21T04:29:26Z</time>
      </trkpt>
      <trkpt lat="44.48449" lon="6.55021">
        <ele>1619</ele>
        <time>2021-02-21T04:29:27Z</time>
      </trkpt>
      <trkpt lat="44.48448" lon="6.55021">
        <ele>1619</ele>
        <time>2021-02-21T04:29:28Z</time>
      </trkpt>
      <trkpt lat="44.48448" lon="6.5502">
        <ele>1619</ele>
        <time>2021-02-21T04:29:29Z</time>
      </trkpt>
      <trkpt lat="44.48448" lon="6.5502">
        <ele>1619</ele>
        <time>2021-02-21T04:29:30Z</time>
      </trkpt>
      <trkpt lat="44.48448" lon="6.5502">
        <ele>1619</ele>
        <time>2021-02-21T04:29:31Z</time>
      </trkpt>
      <trkpt lat="44.48448" lon="6.5502">
        <ele>1619</ele>
        <time>2021-02-21T04:29:32Z</time>
      </trkpt>
      <trkpt lat="44.48448" lon="6.5502">
        <ele>1619</ele>
        <time>2021-02-21T04:29:33Z</time>
      </trkpt>
      <trkpt lat="44.48448" lon="6.5502">
        <ele>1619</ele>
        <time>2021-02-21T04:29:34Z</time>
      </trkpt>
      <trkpt lat="44.48448" lon="6.5502">
        <ele>1619</ele>
        <time>2021-02-21T04:29:35Z</time>
      </trkpt>
      <trkpt lat="44.48448" lon="6.5502">
        <ele>1619</ele>
        <time>2021-02-21T04:29:36Z</time>
      </trkpt>
      <trkpt lat="44.48448" lon="6.5502">
        <ele>1619</ele>
        <time>2021-02-21T04:29:37Z</time>
      </trkpt>
      <trkpt lat="44.48448" lon="6.5502">
        <ele>1619</ele>
        <time>2021-02-21T04:29:38Z</time>
      </trkpt>
      <trkpt lat="44.48448" lon="6.5502">
        <ele>1619</ele>
        <time>2021-02-21T04:29:39Z</time>
      </trkpt>
      <trkpt lat="44.48448" lon="6.5502">
        <ele>1619</ele>
        <time>2021-02-21T04:29:40Z</time>
      </trkpt>
      <trkpt lat="44.48448" lon="6.5502">
        <ele>1619</ele>
        <time>2021-02-21T04:29:41Z</time>
      </trkpt>
      <trkpt lat="44.48448" lon="6.5502">
        <ele>1619</ele>
        <time>2021-02-21T04:29:42Z</time>
      </trkpt>
      <trkpt lat="44.48448" lon="6.5502">
        <ele>1619</ele>
        <time>2021-02-21T04:29:43Z</time>
      </trkpt>
      <trkpt lat="44.48448" lon="6.5502">
        <ele>1619</ele>
        <time>2021-02-21T04:29:44Z</time>
      </trkpt>
      <trkpt lat="44.48448" lon="6.5502">
        <ele>1619</ele>
        <time>2021-02-21T04:29:45Z</time>
      </trkpt>
      <trkpt lat="44.48448" lon="6.5502">
        <ele>1619</ele>
        <time>2021-02-21T04:29:46Z</time>
      </trkpt>
      <trkpt lat="44.48448" lon="6.5502">
        <ele>1619</ele>
        <time>2021-02-21T04:29:47Z</time>
      </trkpt>
      <trkpt lat="44.48448" lon="6.5502">
        <ele>1619</ele>
        <time>2021-02-21T04:29:48Z</time>
      </trkpt>
      <trkpt lat="44.48448" lon="6.5502">
        <ele>1619</ele>
        <time>2021-02-21T04:29:49Z</time>
      </trkpt>
      <trkpt lat="44.48448" lon="6.5502">
        <ele>1619</ele>
        <time>2021-02-21T04:29:50Z</time>
      </trkpt>
      <trkpt lat="44.48448" lon="6.5502">
        <ele>1619</ele>
        <time>2021-02-21T04:29:51Z</time>
      </trkpt>
      <trkpt lat="44.48448" lon="6.5502">
        <ele>1619</ele>
        <time>2021-02-21T04:29:52Z</time>
      </trkpt>
      <trkpt lat="44.48448" lon="6.5502">
        <ele>1619</ele>
        <time>2021-02-21T04:29:53Z</time>
      </trkpt>
      <trkpt lat="44.48448" lon="6.5502">
        <ele>1619</ele>
        <time>2021-02-21T04:29:54Z</time>
      </trkpt>
      <trkpt lat="44.48448" lon="6.5502">
        <ele>1619</ele>
        <time>2021-02-21T04:29:55Z</time>
      </trkpt>
      <trkpt lat="44.48448" lon="6.5502">
        <ele>1619</ele>
        <time>2021-02-21T04:29:56Z</time>
      </trkpt>
      <trkpt lat="44.48448" lon="6.5502">
        <ele>1619</ele>
        <time>2021-02-21T04:29:57Z</time>
      </trkpt>
      <trkpt lat="44.48448" lon="6.5502">
        <ele>1619</ele>
        <time>2021-02-21T04:29:58Z</time>
      </trkpt>
      <trkpt lat="44.48448" lon="6.5502">
        <ele>1619</ele>
        <time>2021-02-21T04:29:59Z</time>
      </trkpt>
      <trkpt lat="44.48448" lon="6.5502">
        <ele>1619</ele>
        <time>2021-02-21T04:30:00Z</time>
      </trkpt>
      <trkpt lat="44.48448" lon="6.5502">
        <ele>1619</ele>
        <time>2021-02-21T04:30:01Z</time>
      </trkpt>
      <trkpt lat="44.48448" lon="6.5502">
        <ele>1619</ele>
        <time>2021-02-21T04:30:02Z</time>
      </trkpt>
      <trkpt lat="44.48448" lon="6.5502">
        <ele>1619</ele>
        <time>2021-02-21T04:30:03Z</time>
      </trkpt>
      <trkpt lat="44.48448" lon="6.5502">
        <ele>1619</ele>
        <time>2021-02-21T04:30:04Z</time>
      </trkpt>
      <trkpt lat="44.48448" lon="6.5502">
        <ele>1619</ele>
        <time>2021-02-21T04:30:05Z</time>
      </trkpt>
      <trkpt lat="44.48448" lon="6.5502">
        <ele>1619</ele>
        <time>2021-02-21T04:30:06Z</time>
      </trkpt>
      <trkpt lat="44.48448" lon="6.5502">
        <ele>1619</ele>
        <time>2021-02-21T04:30:07Z</time>
      </trkpt>
      <trkpt lat="44.48448" lon="6.5502">
        <ele>1619</ele>
        <time>2021-02-21T04:30:08Z</time>
      </trkpt>
      <trkpt lat="44.48448" lon="6.5502">
        <ele>1619</ele>
        <time>2021-02-21T04:30:09Z</time>
      </trkpt>
      <trkpt lat="44.48448" lon="6.5502">
        <ele>1619</ele>
        <time>2021-02-21T04:30:10Z</time>
      </trkpt>
      <trkpt lat="44.48448" lon="6.5502">
        <ele>1619</ele>
        <time>2021-02-21T04:30:11Z</time>
      </trkpt>
      <trkpt lat="44.48448" lon="6.5502">
        <ele>1619</ele>
        <time>2021-02-21T04:30:12Z</time>
      </trkpt>
      <trkpt lat="44.48448" lon="6.5502">
        <ele>1619</ele>
        <time>2021-02-21T04:30:13Z</time>
      </trkpt>
      <trkpt lat="44.48448" lon="6.5502">
        <ele>1619</ele>
        <time>2021-02-21T04:30:14Z</time>
      </trkpt>
      <trkpt lat="44.48448" lon="6.5502">
        <ele>1619</ele>
        <time>2021-02-21T04:30:15Z</time>
      </trkpt>
      <trkpt lat="44.48448" lon="6.5502">
        <ele>1619</ele>
        <time>2021-02-21T04:30:16Z</time>
      </trkpt>
      <trkpt lat="44.48448" lon="6.5502">
        <ele>1619</ele>
        <time>2021-02-21T04:30:17Z</time>
      </trkpt>
      <trkpt lat="44.48448" lon="6.5502">
        <ele>1619</ele>
        <time>2021-02-21T04:30:18Z</time>
      </trkpt>
      <trkpt lat="44.48448" lon="6.5502">
        <ele>1619</ele>
        <time>2021-02-21T04:30:19Z</time>
      </trkpt>
      <trkpt lat="44.48448" lon="6.5502">
        <ele>1619</ele>
        <time>2021-02-21T04:30:20Z</time>
      </trkpt>
      <trkpt lat="44.48448" lon="6.5502">
        <ele>1619</ele>
        <time>2021-02-21T04:30:21Z</time>
      </trkpt>
      <trkpt lat="44.48448" lon="6.5502">
        <ele>1619</ele>
        <time>2021-02-21T04:30:22Z</time>
      </trkpt>
      <trkpt lat="44.48448" lon="6.5502">
        <ele>1619</ele>
        <time>2021-02-21T04:30:23Z</time>
      </trkpt>
      <trkpt lat="44.48448" lon="6.5502">
        <ele>1619</ele>
        <time>2021-02-21T04:30:24Z</time>
      </trkpt>
      <trkpt lat="44.48448" lon="6.5502">
        <ele>1619</ele>
        <time>2021-02-21T04:30:25Z</time>
      </trkpt>
      <trkpt lat="44.48448" lon="6.5502">
        <ele>1619</ele>
        <time>2021-02-21T04:30:26Z</time>
      </trkpt>
      <trkpt lat="44.48448" lon="6.5502">
        <ele>1619</ele>
        <time>2021-02-21T04:30:27Z</time>
      </trkpt>
      <trkpt lat="44.48448" lon="6.5502">
        <ele>1619</ele>
        <time>2021-02-21T04:30:28Z</time>
      </trkpt>
      <trkpt lat="44.48448" lon="6.5502">
        <ele>1619</ele>
        <time>2021-02-21T04:30:29Z</time>
      </trkpt>
      <trkpt lat="44.48448" lon="6.5502">
        <ele>1619</ele>
        <time>2021-02-21T04:30:30Z</time>
      </trkpt>
      <trkpt lat="44.48448" lon="6.5502">
        <ele>1619</ele>
        <time>2021-02-21T04:30:31Z</time>
      </trkpt>
      <trkpt lat="44.48448" lon="6.5502">
        <ele>1619</ele>
        <time>2021-02-21T04:30:32Z</time>
      </trkpt>
      <trkpt lat="44.48448" lon="6.5502">
        <ele>1619</ele>
        <time>2021-02-21T04:30:33Z</time>
      </trkpt>
      <trkpt lat="44.48448" lon="6.5502">
        <ele>1619</ele>
        <time>2021-02-21T04:30:34Z</time>
      </trkpt>
      <trkpt lat="44.48448" lon="6.5502">
        <ele>1619</ele>
        <time>2021-02-21T04:30:35Z</time>
      </trkpt>
      <trkpt lat="44.48448" lon="6.5502">
        <ele>1619</ele>
        <time>2021-02-21T04:30:36Z</time>
      </trkpt>
      <trkpt lat="44.48448" lon="6.5502">
        <ele>1619</ele>
        <time>2021-02-21T04:30:37Z</time>
      </trkpt>
      <trkpt lat="44.48448" lon="6.5502">
        <ele>1619</ele>
        <time>2021-02-21T04:30:38Z</time>
      </trkpt>
      <trkpt lat="44.48448" lon="6.5502">
        <ele>1619</ele>
        <time>2021-02-21T04:30:39Z</time>
      </trkpt>
      <trkpt lat="44.48448" lon="6.5502">
        <ele>1619</ele>
        <time>2021-02-21T04:30:40Z</time>
      </trkpt>
      <trkpt lat="44.48448" lon="6.5502">
        <ele>1619</ele>
        <time>2021-02-21T04:30:41Z</time>
      </trkpt>
      <trkpt lat="44.48448" lon="6.5502">
        <ele>1619</ele>
        <time>2021-02-21T04:30:42Z</time>
      </trkpt>
      <trkpt lat="44.48448" lon="6.5502">
        <ele>1619</ele>
        <time>2021-02-21T04:30:43Z</time>
      </trkpt>
      <trkpt lat="44.48448" lon="6.5502">
        <ele>1619</ele>
        <time>2021-02-21T04:30:44Z</time>
      </trkpt>
      <trkpt lat="44.48448" lon="6.5502">
        <ele>1619</ele>
        <time>2021-02-21T04:30:45Z</time>
      </trkpt>
      <trkpt lat="44.48448" lon="6.5502">
        <ele>1619</ele>
        <time>2021-02-21T04:30:46Z</time>
      </trkpt>
      <trkpt lat="44.48448" lon="6.5502">
        <ele>1619</ele>
        <time>2021-02-21T04:30:47Z</time>
      </trkpt>
      <trkpt lat="44.48448" lon="6.5502">
        <ele>1619</ele>
        <time>2021-02-21T04:30:48Z</time>
      </trkpt>
      <trkpt lat="44.48448" lon="6.5502">
        <ele>1619</ele>
        <time>2021-02-21T04:30:49Z</time>
      </trkpt>
      <trkpt lat="44.48448" lon="6.5502">
        <ele>1619</ele>
        <time>2021-02-21T04:30:50Z</time>
      </trkpt>
      <trkpt lat="44.48448" lon="6.5502">
        <ele>1619</ele>
        <time>2021-02-21T04:30:51Z</time>
      </trkpt>
      <trkpt lat="44.48448" lon="6.5502">
        <ele>1619</ele>
        <time>2021-02-21T04:30:52Z</time>
      </trkpt>
      <trkpt lat="44.48448" lon="6.5502">
        <ele>1619</ele>
        <time>2021-02-21T04:30:53Z</time>
      </trkpt>
      <trkpt lat="44.48448" lon="6.5502">
        <ele>1619</ele>
        <time>2021-02-21T04:30:54Z</time>
      </trkpt>
      <trkpt lat="44.48448" lon="6.5502">
        <ele>1619</ele>
        <time>2021-02-21T04:30:55Z</time>
      </trkpt>
      <trkpt lat="44.48448" lon="6.5502">
        <ele>1619</ele>
        <time>2021-02-21T04:30:56Z</time>
      </trkpt>
      <trkpt lat="44.48448" lon="6.5502">
        <ele>1619</ele>
        <time>2021-02-21T04:30:57Z</time>
      </trkpt>
      <trkpt lat="44.48448" lon="6.5502">
        <ele>1619</ele>
        <time>2021-02-21T04:30:58Z</time>
      </trkpt>
      <trkpt lat="44.48448" lon="6.5502">
        <ele>1619</ele>
        <time>2021-02-21T04:30:59Z</time>
      </trkpt>
      <trkpt lat="44.48448" lon="6.5502">
        <ele>1619</ele>
        <time>2021-02-21T04:31:00Z</time>
      </trkpt>
      <trkpt lat="44.48448" lon="6.5502">
        <ele>1619</ele>
        <time>2021-02-21T04:31:01Z</time>
      </trkpt>
      <trkpt lat="44.48448" lon="6.5502">
        <ele>1619</ele>
        <time>2021-02-21T04:31:02Z</time>
      </trkpt>
      <trkpt lat="44.48448" lon="6.5502">
        <ele>1619</ele>
        <time>2021-02-21T04:31:03Z</time>
      </trkpt>
      <trkpt lat="44.48448" lon="6.5502">
        <ele>1619</ele>
        <time>2021-02-21T04:31:04Z</time>
      </trkpt>
      <trkpt lat="44.48448" lon="6.5502">
        <ele>1619</ele>
        <time>2021-02-21T04:31:05Z</time>
      </trkpt>
      <trkpt lat="44.48448" lon="6.5502">
        <ele>1619</ele>
        <time>2021-02-21T04:31:06Z</time>
      </trkpt>
      <trkpt lat="44.48448" lon="6.5502">
        <ele>1619</ele>
        <time>2021-02-21T04:31:07Z</time>
      </trkpt>
      <trkpt lat="44.48448" lon="6.5502">
        <ele>1619</ele>
        <time>2021-02-21T04:31:08Z</time>
      </trkpt>
      <trkpt lat="44.48448" lon="6.5502">
        <ele>1619</ele>
        <time>2021-02-21T04:31:09Z</time>
      </trkpt>
      <trkpt lat="44.48448" lon="6.5502">
        <ele>1619</ele>
        <time>2021-02-21T04:31:10Z</time>
      </trkpt>
      <trkpt lat="44.48448" lon="6.5502">
        <ele>1619</ele>
        <time>2021-02-21T04:31:11Z</time>
      </trkpt>
      <trkpt lat="44.48448" lon="6.5502">
        <ele>1619</ele>
        <time>2021-02-21T04:31:12Z</time>
      </trkpt>
      <trkpt lat="44.48448" lon="6.5502">
        <ele>1619</ele>
        <time>2021-02-21T04:31:13Z</time>
      </trkpt>
      <trkpt lat="44.48448" lon="6.5502">
        <ele>1619</ele>
        <time>2021-02-21T04:31:14Z</time>
      </trkpt>
      <trkpt lat="44.48448" lon="6.5502">
        <ele>1619</ele>
        <time>2021-02-21T04:31:15Z</time>
      </trkpt>
      <trkpt lat="44.48448" lon="6.5502">
        <ele>1619</ele>
        <time>2021-02-21T04:31:16Z</time>
      </trkpt>
      <trkpt lat="44.48448" lon="6.5502">
        <ele>1619</ele>
        <time>2021-02-21T04:31:17Z</time>
      </trkpt>
      <trkpt lat="44.48448" lon="6.5502">
        <ele>1619</ele>
        <time>2021-02-21T04:31:18Z</time>
      </trkpt>
      <trkpt lat="44.48448" lon="6.5502">
        <ele>1619</ele>
        <time>2021-02-21T04:31:19Z</time>
      </trkpt>
      <trkpt lat="44.48448" lon="6.5502">
        <ele>1619</ele>
        <time>2021-02-21T04:31:20Z</time>
      </trkpt>
      <trkpt lat="44.48448" lon="6.5502">
        <ele>1619</ele>
        <time>2021-02-21T04:31:21Z</time>
      </trkpt>
      <trkpt lat="44.48448" lon="6.5502">
        <ele>1619</ele>
        <time>2021-02-21T04:31:22Z</time>
      </trkpt>
      <trkpt lat="44.48448" lon="6.5502">
        <ele>1619</ele>
        <time>2021-02-21T04:31:23Z</time>
      </trkpt>
      <trkpt lat="44.48448" lon="6.5502">
        <ele>1619</ele>
        <time>2021-02-21T04:31:24Z</time>
      </trkpt>
      <trkpt lat="44.48448" lon="6.5502">
        <ele>1619</ele>
        <time>2021-02-21T04:31:25Z</time>
      </trkpt>
      <trkpt lat="44.48448" lon="6.5502">
        <ele>1619</ele>
        <time>2021-02-21T04:31:26Z</time>
      </trkpt>
      <trkpt lat="44.48448" lon="6.5502">
        <ele>1619</ele>
        <time>2021-02-21T04:31:27Z</time>
      </trkpt>
      <trkpt lat="44.48448" lon="6.5502">
        <ele>1619</ele>
        <time>2021-02-21T04:31:28Z</time>
      </trkpt>
      <trkpt lat="44.48448" lon="6.5502">
        <ele>1619</ele>
        <time>2021-02-21T04:31:29Z</time>
      </trkpt>
      <trkpt lat="44.48448" lon="6.5502">
        <ele>1619</ele>
        <time>2021-02-21T04:31:30Z</time>
      </trkpt>
      <trkpt lat="44.48448" lon="6.5502">
        <ele>1619</ele>
        <time>2021-02-21T04:31:31Z</time>
      </trkpt>
      <trkpt lat="44.48448" lon="6.5502">
        <ele>1619</ele>
        <time>2021-02-21T04:31:32Z</time>
      </trkpt>
      <trkpt lat="44.48448" lon="6.5502">
        <ele>1619</ele>
        <time>2021-02-21T04:31:33Z</time>
      </trkpt>
      <trkpt lat="44.48448" lon="6.5502">
        <ele>1619</ele>
        <time>2021-02-21T04:31:34Z</time>
      </trkpt>
      <trkpt lat="44.48448" lon="6.5502">
        <ele>1619</ele>
        <time>2021-02-21T04:31:35Z</time>
      </trkpt>
      <trkpt lat="44.48448" lon="6.5502">
        <ele>1619</ele>
        <time>2021-02-21T04:31:36Z</time>
      </trkpt>
      <trkpt lat="44.48448" lon="6.5502">
        <ele>1619</ele>
        <time>2021-02-21T04:31:37Z</time>
      </trkpt>
      <trkpt lat="44.48448" lon="6.5502">
        <ele>1619</ele>
        <time>2021-02-21T04:31:38Z</time>
      </trkpt>
      <trkpt lat="44.48448" lon="6.5502">
        <ele>1619</ele>
        <time>2021-02-21T04:31:39Z</time>
      </trkpt>
      <trkpt lat="44.48448" lon="6.5502">
        <ele>1619</ele>
        <time>2021-02-21T04:31:40Z</time>
      </trkpt>
      <trkpt lat="44.48448" lon="6.5502">
        <ele>1619</ele>
        <time>2021-02-21T04:31:41Z</time>
      </trkpt>
      <trkpt lat="44.48448" lon="6.5502">
        <ele>1619</ele>
        <time>2021-02-21T04:31:42Z</time>
      </trkpt>
      <trkpt lat="44.48448" lon="6.5502">
        <ele>1619</ele>
        <time>2021-02-21T04:31:43Z</time>
      </trkpt>
      <trkpt lat="44.48448" lon="6.5502">
        <ele>1619</ele>
        <time>2021-02-21T04:31:44Z</time>
      </trkpt>
      <trkpt lat="44.48448" lon="6.5502">
        <ele>1619</ele>
        <time>2021-02-21T04:31:45Z</time>
      </trkpt>
      <trkpt lat="44.48448" lon="6.5502">
        <ele>1619</ele>
        <time>2021-02-21T04:31:46Z</time>
      </trkpt>
      <trkpt lat="44.48448" lon="6.5502">
        <ele>1619</ele>
        <time>2021-02-21T04:31:47Z</time>
      </trkpt>
      <trkpt lat="44.48448" lon="6.5502">
        <ele>1619</ele>
        <time>2021-02-21T04:31:48Z</time>
      </trkpt>
      <trkpt lat="44.48448" lon="6.5502">
        <ele>1619</ele>
        <time>2021-02-21T04:31:49Z</time>
      </trkpt>
      <trkpt lat="44.48448" lon="6.5502">
        <ele>1619</ele>
        <time>2021-02-21T04:31:50Z</time>
      </trkpt>
      <trkpt lat="44.48448" lon="6.5502">
        <ele>1619</ele>
        <time>2021-02-21T04:31:51Z</time>
      </trkpt>
      <trkpt lat="44.48448" lon="6.5502">
        <ele>1619</ele>
        <time>2021-02-21T04:31:52Z</time>
      </trkpt>
      <trkpt lat="44.48448" lon="6.5502">
        <ele>1619</ele>
        <time>2021-02-21T04:31:53Z</time>
      </trkpt>
      <trkpt lat="44.48448" lon="6.5502">
        <ele>1619</ele>
        <time>2021-02-21T04:31:54Z</time>
      </trkpt>
      <trkpt lat="44.48448" lon="6.5502">
        <ele>1619</ele>
        <time>2021-02-21T04:31:55Z</time>
      </trkpt>
      <trkpt lat="44.48448" lon="6.5502">
        <ele>1619</ele>
        <time>2021-02-21T04:31:56Z</time>
      </trkpt>
      <trkpt lat="44.48448" lon="6.5502">
        <ele>1619</ele>
        <time>2021-02-21T04:31:57Z</time>
      </trkpt>
      <trkpt lat="44.48448" lon="6.5502">
        <ele>1619</ele>
        <time>2021-02-21T04:31:58Z</time>
      </trkpt>
      <trkpt lat="44.48448" lon="6.5502">
        <ele>1619</ele>
        <time>2021-02-21T04:31:59Z</time>
      </trkpt>
      <trkpt lat="44.48448" lon="6.5502">
        <ele>1619</ele>
        <time>2021-02-21T04:32:00Z</time>
      </trkpt>
      <trkpt lat="44.48448" lon="6.5502">
        <ele>1619</ele>
        <time>2021-02-21T04:32:01Z</time>
      </trkpt>
      <trkpt lat="44.48448" lon="6.5502">
        <ele>1619</ele>
        <time>2021-02-21T04:32:02Z</time>
      </trkpt>
      <trkpt lat="44.48448" lon="6.5502">
        <ele>1619</ele>
        <time>2021-02-21T04:32:03Z</time>
      </trkpt>
      <trkpt lat="44.48448" lon="6.5502">
        <ele>1619</ele>
        <time>2021-02-21T04:32:04Z</time>
      </trkpt>
      <trkpt lat="44.48448" lon="6.5502">
        <ele>1619</ele>
        <time>2021-02-21T04:32:05Z</time>
      </trkpt>
      <trkpt lat="44.48448" lon="6.5502">
        <ele>1619</ele>
        <time>2021-02-21T04:32:06Z</time>
      </trkpt>
      <trkpt lat="44.48448" lon="6.5502">
        <ele>1619</ele>
        <time>2021-02-21T04:32:07Z</time>
      </trkpt>
      <trkpt lat="44.48448" lon="6.5502">
        <ele>1619</ele>
        <time>2021-02-21T04:32:08Z</time>
      </trkpt>
      <trkpt lat="44.48448" lon="6.5502">
        <ele>1619</ele>
        <time>2021-02-21T04:32:09Z</time>
      </trkpt>
      <trkpt lat="44.48448" lon="6.5502">
        <ele>1619</ele>
        <time>2021-02-21T04:32:10Z</time>
      </trkpt>
      <trkpt lat="44.48448" lon="6.5502">
        <ele>1619</ele>
        <time>2021-02-21T04:32:11Z</time>
      </trkpt>
      <trkpt lat="44.48448" lon="6.5502">
        <ele>1619</ele>
        <time>2021-02-21T04:32:12Z</time>
      </trkpt>
      <trkpt lat="44.48448" lon="6.5502">
        <ele>1619</ele>
        <time>2021-02-21T04:32:13Z</time>
      </trkpt>
      <trkpt lat="44.48448" lon="6.5502">
        <ele>1619</ele>
        <time>2021-02-21T04:32:14Z</time>
      </trkpt>
      <trkpt lat="44.48448" lon="6.5502">
        <ele>1619</ele>
        <time>2021-02-21T04:32:15Z</time>
      </trkpt>
      <trkpt lat="44.48448" lon="6.5502">
        <ele>1619</ele>
        <time>2021-02-21T04:32:16Z</time>
      </trkpt>
      <trkpt lat="44.48448" lon="6.5502">
        <ele>1619</ele>
        <time>2021-02-21T04:32:17Z</time>
      </trkpt>
      <trkpt lat="44.48448" lon="6.5502">
        <ele>1619</ele>
        <time>2021-02-21T04:32:18Z</time>
      </trkpt>
      <trkpt lat="44.48448" lon="6.5502">
        <ele>1619</ele>
        <time>2021-02-21T04:32:19Z</time>
      </trkpt>
      <trkpt lat="44.48448" lon="6.5502">
        <ele>1619</ele>
        <time>2021-02-21T04:32:20Z</time>
      </trkpt>
      <trkpt lat="44.48448" lon="6.5502">
        <ele>1619</ele>
        <time>2021-02-21T04:32:21Z</time>
      </trkpt>
      <trkpt lat="44.48448" lon="6.5502">
        <ele>1619</ele>
        <time>2021-02-21T04:32:22Z</time>
      </trkpt>
      <trkpt lat="44.48448" lon="6.5502">
        <ele>1619</ele>
        <time>2021-02-21T04:32:23Z</time>
      </trkpt>
      <trkpt lat="44.48448" lon="6.5502">
        <ele>1619</ele>
        <time>2021-02-21T04:32:24Z</time>
      </trkpt>
      <trkpt lat="44.48448" lon="6.5502">
        <ele>1619</ele>
        <time>2021-02-21T04:32:25Z</time>
      </trkpt>
      <trkpt lat="44.48448" lon="6.5502">
        <ele>1619</ele>
        <time>2021-02-21T04:32:26Z</time>
      </trkpt>
      <trkpt lat="44.48448" lon="6.5502">
        <ele>1619</ele>
        <time>2021-02-21T04:32:27Z</time>
      </trkpt>
      <trkpt lat="44.48448" lon="6.5502">
        <ele>1619</ele>
        <time>2021-02-21T04:32:28Z</time>
      </trkpt>
      <trkpt lat="44.48448" lon="6.5502">
        <ele>1619</ele>
        <time>2021-02-21T04:32:29Z</time>
      </trkpt>
      <trkpt lat="44.48448" lon="6.5502">
        <ele>1619</ele>
        <time>2021-02-21T04:32:30Z</time>
      </trkpt>
      <trkpt lat="44.48448" lon="6.5502">
        <ele>1619</ele>
        <time>2021-02-21T04:32:31Z</time>
      </trkpt>
      <trkpt lat="44.48448" lon="6.5502">
        <ele>1619</ele>
        <time>2021-02-21T04:32:32Z</time>
      </trkpt>
      <trkpt lat="44.48448" lon="6.5502">
        <ele>1619</ele>
        <time>2021-02-21T04:32:33Z</time>
      </trkpt>
      <trkpt lat="44.48448" lon="6.5502">
        <ele>1619</ele>
        <time>2021-02-21T04:32:34Z</time>
      </trkpt>
      <trkpt lat="44.48448" lon="6.5502">
        <ele>1619</ele>
        <time>2021-02-21T04:32:35Z</time>
      </trkpt>
      <trkpt lat="44.48448" lon="6.5502">
        <ele>1619</ele>
        <time>2021-02-21T04:32:36Z</time>
      </trkpt>
      <trkpt lat="44.48448" lon="6.5502">
        <ele>1619</ele>
        <time>2021-02-21T04:32:37Z</time>
      </trkpt>
      <trkpt lat="44.48448" lon="6.5502">
        <ele>1619</ele>
        <time>2021-02-21T04:32:38Z</time>
      </trkpt>
      <trkpt lat="44.48448" lon="6.5502">
        <ele>1619</ele>
        <time>2021-02-21T04:32:39Z</time>
      </trkpt>
      <trkpt lat="44.48448" lon="6.5502">
        <ele>1619</ele>
        <time>2021-02-21T04:32:40Z</time>
      </trkpt>
      <trkpt lat="44.48448" lon="6.5502">
        <ele>1619</ele>
        <time>2021-02-21T04:32:41Z</time>
      </trkpt>
      <trkpt lat="44.48448" lon="6.5502">
        <ele>1619</ele>
        <time>2021-02-21T04:32:42Z</time>
      </trkpt>
      <trkpt lat="44.48448" lon="6.5502">
        <ele>1619</ele>
        <time>2021-02-21T04:32:43Z</time>
      </trkpt>
      <trkpt lat="44.48448" lon="6.5502">
        <ele>1619</ele>
        <time>2021-02-21T04:32:44Z</time>
      </trkpt>
      <trkpt lat="44.48448" lon="6.5502">
        <ele>1619</ele>
        <time>2021-02-21T04:32:45Z</time>
      </trkpt>
      <trkpt lat="44.48448" lon="6.5502">
        <ele>1619</ele>
        <time>2021-02-21T04:32:46Z</time>
      </trkpt>
      <trkpt lat="44.48448" lon="6.5502">
        <ele>1619</ele>
        <time>2021-02-21T04:32:47Z</time>
      </trkpt>
      <trkpt lat="44.48448" lon="6.5502">
        <ele>1619</ele>
        <time>2021-02-21T04:32:48Z</time>
      </trkpt>
      <trkpt lat="44.48448" lon="6.5502">
        <ele>1619</ele>
        <time>2021-02-21T04:32:49Z</time>
      </trkpt>
      <trkpt lat="44.48448" lon="6.5502">
        <ele>1619</ele>
        <time>2021-02-21T04:32:50Z</time>
      </trkpt>
      <trkpt lat="44.48448" lon="6.5502">
        <ele>1619</ele>
        <time>2021-02-21T04:32:51Z</time>
      </trkpt>
      <trkpt lat="44.48448" lon="6.5502">
        <ele>1619</ele>
        <time>2021-02-21T04:32:52Z</time>
      </trkpt>
      <trkpt lat="44.48448" lon="6.5502">
        <ele>1619</ele>
        <time>2021-02-21T04:32:53Z</time>
      </trkpt>
      <trkpt lat="44.48448" lon="6.5502">
        <ele>1619</ele>
        <time>2021-02-21T04:32:54Z</time>
      </trkpt>
      <trkpt lat="44.48448" lon="6.5502">
        <ele>1619</ele>
        <time>2021-02-21T04:32:55Z</time>
      </trkpt>
      <trkpt lat="44.48448" lon="6.5502">
        <ele>1619</ele>
        <time>2021-02-21T04:32:56Z</time>
      </trkpt>
      <trkpt lat="44.48448" lon="6.5502">
        <ele>1619</ele>
        <time>2021-02-21T04:32:57Z</time>
      </trkpt>
      <trkpt lat="44.48448" lon="6.5502">
        <ele>1619</ele>
        <time>2021-02-21T04:32:58Z</time>
      </trkpt>
      <trkpt lat="44.48448" lon="6.5502">
        <ele>1619</ele>
        <time>2021-02-21T04:32:59Z</time>
      </trkpt>
      <trkpt lat="44.48448" lon="6.5502">
        <ele>1619</ele>
        <time>2021-02-21T04:33:00Z</time>
      </trkpt>
      <trkpt lat="44.48448" lon="6.5502">
        <ele>1619</ele>
        <time>2021-02-21T04:33:01Z</time>
      </trkpt>
      <trkpt lat="44.48448" lon="6.5502">
        <ele>1619</ele>
        <time>2021-02-21T04:33:02Z</time>
      </trkpt>
      <trkpt lat="44.48448" lon="6.5502">
        <ele>1619</ele>
        <time>2021-02-21T04:33:03Z</time>
      </trkpt>
      <trkpt lat="44.48448" lon="6.5502">
        <ele>1619</ele>
        <time>2021-02-21T04:33:04Z</time>
      </trkpt>
      <trkpt lat="44.48448" lon="6.5502">
        <ele>1619</ele>
        <time>2021-02-21T04:33:05Z</time>
      </trkpt>
      <trkpt lat="44.48448" lon="6.5502">
        <ele>1619</ele>
        <time>2021-02-21T04:33:06Z</time>
      </trkpt>
      <trkpt lat="44.48448" lon="6.5502">
        <ele>1619</ele>
        <time>2021-02-21T04:33:07Z</time>
      </trkpt>
      <trkpt lat="44.48448" lon="6.5502">
        <ele>1619</ele>
        <time>2021-02-21T04:33:09Z</time>
      </trkpt>
      <trkpt lat="44.48448" lon="6.5502">
        <ele>1619</ele>
        <time>2021-02-21T04:33:10Z</time>
      </trkpt>
      <trkpt lat="44.48448" lon="6.5502">
        <ele>1619</ele>
        <time>2021-02-21T04:33:11Z</time>
      </trkpt>
      <trkpt lat="44.48448" lon="6.5502">
        <ele>1619</ele>
        <time>2021-02-21T04:33:12Z</time>
      </trkpt>
      <trkpt lat="44.48448" lon="6.5502">
        <ele>1619</ele>
        <time>2021-02-21T04:33:13Z</time>
      </trkpt>
      <trkpt lat="44.48448" lon="6.5502">
        <ele>1619</ele>
        <time>2021-02-21T04:33:14Z</time>
      </trkpt>
      <trkpt lat="44.48448" lon="6.5502">
        <ele>1619</ele>
        <time>2021-02-21T04:33:15Z</time>
      </trkpt>
      <trkpt lat="44.48448" lon="6.5502">
        <ele>1619</ele>
        <time>2021-02-21T04:33:16Z</time>
      </trkpt>
      <trkpt lat="44.48448" lon="6.5502">
        <ele>1619</ele>
        <time>2021-02-21T04:33:17Z</time>
      </trkpt>
      <trkpt lat="44.48448" lon="6.5502">
        <ele>1619</ele>
        <time>2021-02-21T04:33:18Z</time>
      </trkpt>
      <trkpt lat="44.48448" lon="6.5502">
        <ele>1619</ele>
        <time>2021-02-21T04:33:19Z</time>
      </trkpt>
      <trkpt lat="44.48448" lon="6.5502">
        <ele>1619</ele>
        <time>2021-02-21T04:33:20Z</time>
      </trkpt>
      <trkpt lat="44.48448" lon="6.5502">
        <ele>1619</ele>
        <time>2021-02-21T04:33:21Z</time>
      </trkpt>
      <trkpt lat="44.48448" lon="6.5502">
        <ele>1619</ele>
        <time>2021-02-21T04:33:22Z</time>
      </trkpt>
      <trkpt lat="44.48448" lon="6.5502">
        <ele>1619</ele>
        <time>2021-02-21T04:33:23Z</time>
      </trkpt>
      <trkpt lat="44.48448" lon="6.5502">
        <ele>1619</ele>
        <time>2021-02-21T04:33:24Z</time>
      </trkpt>
      <trkpt lat="44.48448" lon="6.5502">
        <ele>1619</ele>
        <time>2021-02-21T04:33:25Z</time>
      </trkpt>
      <trkpt lat="44.48448" lon="6.5502">
        <ele>1619</ele>
        <time>2021-02-21T04:33:26Z</time>
      </trkpt>
      <trkpt lat="44.48448" lon="6.5502">
        <ele>1619</ele>
        <time>2021-02-21T04:33:27Z</time>
      </trkpt>
      <trkpt lat="44.48448" lon="6.5502">
        <ele>1619</ele>
        <time>2021-02-21T04:33:28Z</time>
      </trkpt>
      <trkpt lat="44.48448" lon="6.5502">
        <ele>1619</ele>
        <time>2021-02-21T04:33:29Z</time>
      </trkpt>
      <trkpt lat="44.48448" lon="6.5502">
        <ele>1619</ele>
        <time>2021-02-21T04:33:30Z</time>
      </trkpt>
      <trkpt lat="44.48448" lon="6.5502">
        <ele>1619</ele>
        <time>2021-02-21T04:33:31Z</time>
      </trkpt>
      <trkpt lat="44.48448" lon="6.5502">
        <ele>1619</ele>
        <time>2021-02-21T04:33:32Z</time>
      </trkpt>
      <trkpt lat="44.48448" lon="6.5502">
        <ele>1619</ele>
        <time>2021-02-21T04:33:33Z</time>
      </trkpt>
      <trkpt lat="44.48448" lon="6.5502">
        <ele>1619</ele>
        <time>2021-02-21T04:33:34Z</time>
      </trkpt>
      <trkpt lat="44.48448" lon="6.5502">
        <ele>1619</ele>
        <time>2021-02-21T04:33:35Z</time>
      </trkpt>
      <trkpt lat="44.48448" lon="6.5502">
        <ele>1619</ele>
        <time>2021-02-21T04:33:36Z</time>
      </trkpt>
      <trkpt lat="44.48448" lon="6.5502">
        <ele>1619</ele>
        <time>2021-02-21T04:33:37Z</time>
      </trkpt>
      <trkpt lat="44.48448" lon="6.5502">
        <ele>1619</ele>
        <time>2021-02-21T04:33:38Z</time>
      </trkpt>
      <trkpt lat="44.48448" lon="6.5502">
        <ele>1619</ele>
        <time>2021-02-21T04:33:39Z</time>
      </trkpt>
      <trkpt lat="44.48448" lon="6.5502">
        <ele>1619</ele>
        <time>2021-02-21T04:33:40Z</time>
      </trkpt>
      <trkpt lat="44.48448" lon="6.5502">
        <ele>1619</ele>
        <time>2021-02-21T04:33:41Z</time>
      </trkpt>
      <trkpt lat="44.48448" lon="6.5502">
        <ele>1619</ele>
        <time>2021-02-21T04:33:42Z</time>
      </trkpt>
      <trkpt lat="44.48448" lon="6.5502">
        <ele>1619</ele>
        <time>2021-02-21T04:33:43Z</time>
      </trkpt>
      <trkpt lat="44.48448" lon="6.5502">
        <ele>1619</ele>
        <time>2021-02-21T04:33:44Z</time>
      </trkpt>
      <trkpt lat="44.48448" lon="6.5502">
        <ele>1619</ele>
        <time>2021-02-21T04:33:45Z</time>
      </trkpt>
      <trkpt lat="44.48448" lon="6.5502">
        <ele>1619</ele>
        <time>2021-02-21T04:33:46Z</time>
      </trkpt>
      <trkpt lat="44.48448" lon="6.5502">
        <ele>1619</ele>
        <time>2021-02-21T04:33:47Z</time>
      </trkpt>
      <trkpt lat="44.48448" lon="6.5502">
        <ele>1619</ele>
        <time>2021-02-21T04:33:48Z</time>
      </trkpt>
      <trkpt lat="44.48448" lon="6.5502">
        <ele>1619</ele>
        <time>2021-02-21T04:33:49Z</time>
      </trkpt>
      <trkpt lat="44.48448" lon="6.5502">
        <ele>1619</ele>
        <time>2021-02-21T04:33:50Z</time>
      </trkpt>
      <trkpt lat="44.48448" lon="6.5502">
        <ele>1619</ele>
        <time>2021-02-21T04:33:51Z</time>
      </trkpt>
      <trkpt lat="44.48448" lon="6.5502">
        <ele>1619</ele>
        <time>2021-02-21T04:33:52Z</time>
      </trkpt>
      <trkpt lat="44.48448" lon="6.5502">
        <ele>1619</ele>
        <time>2021-02-21T04:33:53Z</time>
      </trkpt>
      <trkpt lat="44.48448" lon="6.5502">
        <ele>1619</ele>
        <time>2021-02-21T04:33:54Z</time>
      </trkpt>
      <trkpt lat="44.48448" lon="6.5502">
        <ele>1619</ele>
        <time>2021-02-21T04:33:55Z</time>
      </trkpt>
      <trkpt lat="44.48448" lon="6.5502">
        <ele>1619</ele>
        <time>2021-02-21T04:33:56Z</time>
      </trkpt>
      <trkpt lat="44.48448" lon="6.5502">
        <ele>1619</ele>
        <time>2021-02-21T04:33:57Z</time>
      </trkpt>
      <trkpt lat="44.48448" lon="6.5502">
        <ele>1619</ele>
        <time>2021-02-21T04:33:58Z</time>
      </trkpt>
      <trkpt lat="44.48448" lon="6.5502">
        <ele>1619</ele>
        <time>2021-02-21T04:33:59Z</time>
      </trkpt>
      <trkpt lat="44.48448" lon="6.5502">
        <ele>1619</ele>
        <time>2021-02-21T04:34:00Z</time>
      </trkpt>
      <trkpt lat="44.48448" lon="6.5502">
        <ele>1619</ele>
        <time>2021-02-21T04:34:01Z</time>
      </trkpt>
      <trkpt lat="44.48448" lon="6.5502">
        <ele>1619</ele>
        <time>2021-02-21T04:34:02Z</time>
      </trkpt>
      <trkpt lat="44.48448" lon="6.5502">
        <ele>1619</ele>
        <time>2021-02-21T04:34:03Z</time>
      </trkpt>
      <trkpt lat="44.48448" lon="6.5502">
        <ele>1619</ele>
        <time>2021-02-21T04:34:04Z</time>
      </trkpt>
      <trkpt lat="44.48448" lon="6.5502">
        <ele>1619</ele>
        <time>2021-02-21T04:34:05Z</time>
      </trkpt>
      <trkpt lat="44.48448" lon="6.5502">
        <ele>1619</ele>
        <time>2021-02-21T04:34:06Z</time>
      </trkpt>
      <trkpt lat="44.48448" lon="6.5502">
        <ele>1619</ele>
        <time>2021-02-21T04:34:07Z</time>
      </trkpt>
      <trkpt lat="44.48448" lon="6.5502">
        <ele>1619</ele>
        <time>2021-02-21T04:34:08Z</time>
      </trkpt>
      <trkpt lat="44.48448" lon="6.5502">
        <ele>1619</ele>
        <time>2021-02-21T04:34:09Z</time>
      </trkpt>
      <trkpt lat="44.48448" lon="6.5502">
        <ele>1619</ele>
        <time>2021-02-21T04:34:10Z</time>
      </trkpt>
      <trkpt lat="44.48448" lon="6.5502">
        <ele>1619</ele>
        <time>2021-02-21T04:34:11Z</time>
      </trkpt>
      <trkpt lat="44.48448" lon="6.5502">
        <ele>1619</ele>
        <time>2021-02-21T04:34:12Z</time>
      </trkpt>
      <trkpt lat="44.48448" lon="6.5502">
        <ele>1619</ele>
        <time>2021-02-21T04:34:13Z</time>
      </trkpt>
      <trkpt lat="44.48448" lon="6.5502">
        <ele>1619</ele>
        <time>2021-02-21T04:34:14Z</time>
      </trkpt>
      <trkpt lat="44.48448" lon="6.5502">
        <ele>1619</ele>
        <time>2021-02-21T04:34:15Z</time>
      </trkpt>
      <trkpt lat="44.48448" lon="6.5502">
        <ele>1619</ele>
        <time>2021-02-21T04:34:16Z</time>
      </trkpt>
      <trkpt lat="44.48448" lon="6.5502">
        <ele>1619</ele>
        <time>2021-02-21T04:34:17Z</time>
      </trkpt>
      <trkpt lat="44.48448" lon="6.5502">
        <ele>1619</ele>
        <time>2021-02-21T04:34:18Z</time>
      </trkpt>
      <trkpt lat="44.48448" lon="6.5502">
        <ele>1619</ele>
        <time>2021-02-21T04:34:19Z</time>
      </trkpt>
      <trkpt lat="44.48448" lon="6.5502">
        <ele>1619</ele>
        <time>2021-02-21T04:34:20Z</time>
      </trkpt>
      <trkpt lat="44.48448" lon="6.5502">
        <ele>1619</ele>
        <time>2021-02-21T04:34:21Z</time>
      </trkpt>
      <trkpt lat="44.48448" lon="6.5502">
        <ele>1619</ele>
        <time>2021-02-21T04:34:22Z</time>
      </trkpt>
      <trkpt lat="44.48448" lon="6.5502">
        <ele>1619</ele>
        <time>2021-02-21T04:34:23Z</time>
      </trkpt>
      <trkpt lat="44.48448" lon="6.5502">
        <ele>1619</ele>
        <time>2021-02-21T04:34:24Z</time>
      </trkpt>
      <trkpt lat="44.48448" lon="6.5502">
        <ele>1619</ele>
        <time>2021-02-21T04:34:25Z</time>
      </trkpt>
      <trkpt lat="44.48448" lon="6.5502">
        <ele>1619</ele>
        <time>2021-02-21T04:34:26Z</time>
      </trkpt>
      <trkpt lat="44.48448" lon="6.5502">
        <ele>1619</ele>
        <time>2021-02-21T04:34:27Z</time>
      </trkpt>
      <trkpt lat="44.48448" lon="6.5502">
        <ele>1619</ele>
        <time>2021-02-21T04:34:28Z</time>
      </trkpt>
      <trkpt lat="44.48448" lon="6.5502">
        <ele>1619</ele>
        <time>2021-02-21T04:34:29Z</time>
      </trkpt>
      <trkpt lat="44.48448" lon="6.5502">
        <ele>1619</ele>
        <time>2021-02-21T04:34:30Z</time>
      </trkpt>
      <trkpt lat="44.48448" lon="6.5502">
        <ele>1619</ele>
        <time>2021-02-21T04:34:31Z</time>
      </trkpt>
      <trkpt lat="44.48448" lon="6.5502">
        <ele>1619</ele>
        <time>2021-02-21T04:34:32Z</time>
      </trkpt>
      <trkpt lat="44.48448" lon="6.5502">
        <ele>1619</ele>
        <time>2021-02-21T04:34:33Z</time>
      </trkpt>
      <trkpt lat="44.48448" lon="6.5502">
        <ele>1619</ele>
        <time>2021-02-21T04:34:34Z</time>
      </trkpt>
      <trkpt lat="44.48448" lon="6.5502">
        <ele>1619</ele>
        <time>2021-02-21T04:34:35Z</time>
      </trkpt>
      <trkpt lat="44.48448" lon="6.5502">
        <ele>1619</ele>
        <time>2021-02-21T04:34:36Z</time>
      </trkpt>
      <trkpt lat="44.48448" lon="6.5502">
        <ele>1619</ele>
        <time>2021-02-21T04:34:37Z</time>
      </trkpt>
      <trkpt lat="44.48448" lon="6.5502">
        <ele>1619</ele>
        <time>2021-02-21T04:34:38Z</time>
      </trkpt>
      <trkpt lat="44.48448" lon="6.5502">
        <ele>1619</ele>
        <time>2021-02-21T04:34:39Z</time>
      </trkpt>
      <trkpt lat="44.48448" lon="6.5502">
        <ele>1619</ele>
        <time>2021-02-21T04:34:40Z</time>
      </trkpt>
      <trkpt lat="44.48448" lon="6.5502">
        <ele>1619</ele>
        <time>2021-02-21T04:34:41Z</time>
      </trkpt>
      <trkpt lat="44.48448" lon="6.5502">
        <ele>1619</ele>
        <time>2021-02-21T04:34:42Z</time>
      </trkpt>
      <trkpt lat="44.48448" lon="6.5502">
        <ele>1619</ele>
        <time>2021-02-21T04:34:43Z</time>
      </trkpt>
      <trkpt lat="44.48448" lon="6.5502">
        <ele>1619</ele>
        <time>2021-02-21T04:34:44Z</time>
      </trkpt>
      <trkpt lat="44.48448" lon="6.5502">
        <ele>1619</ele>
        <time>2021-02-21T04:34:45Z</time>
      </trkpt>
      <trkpt lat="44.48448" lon="6.5502">
        <ele>1619</ele>
        <time>2021-02-21T04:34:46Z</time>
      </trkpt>
      <trkpt lat="44.48448" lon="6.5502">
        <ele>1619</ele>
        <time>2021-02-21T04:34:47Z</time>
      </trkpt>
      <trkpt lat="44.48448" lon="6.5502">
        <ele>1619</ele>
        <time>2021-02-21T04:34:48Z</time>
      </trkpt>
      <trkpt lat="44.48448" lon="6.5502">
        <ele>1619</ele>
        <time>2021-02-21T04:34:49Z</time>
      </trkpt>
      <trkpt lat="44.48448" lon="6.5502">
        <ele>1619</ele>
        <time>2021-02-21T04:34:50Z</time>
      </trkpt>
      <trkpt lat="44.48448" lon="6.5502">
        <ele>1619</ele>
        <time>2021-02-21T04:34:51Z</time>
      </trkpt>
      <trkpt lat="44.48448" lon="6.5502">
        <ele>1619</ele>
        <time>2021-02-21T04:34:52Z</time>
      </trkpt>
      <trkpt lat="44.48448" lon="6.5502">
        <ele>1619</ele>
        <time>2021-02-21T04:34:53Z</time>
      </trkpt>
      <trkpt lat="44.48448" lon="6.5502">
        <ele>1619</ele>
        <time>2021-02-21T04:34:54Z</time>
      </trkpt>
      <trkpt lat="44.48448" lon="6.5502">
        <ele>1619</ele>
        <time>2021-02-21T04:34:55Z</time>
      </trkpt>
      <trkpt lat="44.48448" lon="6.5502">
        <ele>1619</ele>
        <time>2021-02-21T04:34:56Z</time>
      </trkpt>
      <trkpt lat="44.48448" lon="6.5502">
        <ele>1619</ele>
        <time>2021-02-21T04:34:57Z</time>
      </trkpt>
      <trkpt lat="44.48448" lon="6.5502">
        <ele>1619</ele>
        <time>2021-02-21T04:34:58Z</time>
      </trkpt>
      <trkpt lat="44.48448" lon="6.5502">
        <ele>1619</ele>
        <time>2021-02-21T04:34:59Z</time>
      </trkpt>
      <trkpt lat="44.48448" lon="6.5502">
        <ele>1619</ele>
        <time>2021-02-21T04:35:00Z</time>
      </trkpt>
      <trkpt lat="44.48448" lon="6.5502">
        <ele>1619</ele>
        <time>2021-02-21T04:35:01Z</time>
      </trkpt>
      <trkpt lat="44.48448" lon="6.5502">
        <ele>1619</ele>
        <time>2021-02-21T04:35:02Z</time>
      </trkpt>
      <trkpt lat="44.48448" lon="6.5502">
        <ele>1619</ele>
        <time>2021-02-21T04:35:03Z</time>
      </trkpt>
      <trkpt lat="44.48448" lon="6.5502">
        <ele>1619</ele>
        <time>2021-02-21T04:35:04Z</time>
      </trkpt>
      <trkpt lat="44.48448" lon="6.5502">
        <ele>1619</ele>
        <time>2021-02-21T04:35:05Z</time>
      </trkpt>
      <trkpt lat="44.48448" lon="6.5502">
        <ele>1619</ele>
        <time>2021-02-21T04:35:06Z</time>
      </trkpt>
      <trkpt lat="44.48448" lon="6.5502">
        <ele>1619</ele>
        <time>2021-02-21T04:35:07Z</time>
      </trkpt>
      <trkpt lat="44.48448" lon="6.5502">
        <ele>1619</ele>
        <time>2021-02-21T04:35:08Z</time>
      </trkpt>
      <trkpt lat="44.48448" lon="6.5502">
        <ele>1619</ele>
        <time>2021-02-21T04:35:09Z</time>
      </trkpt>
      <trkpt lat="44.48448" lon="6.5502">
        <ele>1619</ele>
        <time>2021-02-21T04:35:10Z</time>
      </trkpt>
      <trkpt lat="44.48448" lon="6.5502">
        <ele>1619</ele>
        <time>2021-02-21T04:35:11Z</time>
      </trkpt>
      <trkpt lat="44.48448" lon="6.5502">
        <ele>1619</ele>
        <time>2021-02-21T04:35:12Z</time>
      </trkpt>
      <trkpt lat="44.48448" lon="6.5502">
        <ele>1619</ele>
        <time>2021-02-21T04:35:13Z</time>
      </trkpt>
      <trkpt lat="44.48448" lon="6.5502">
        <ele>1619</ele>
        <time>2021-02-21T04:35:14Z</time>
      </trkpt>
      <trkpt lat="44.48448" lon="6.5502">
        <ele>1619</ele>
        <time>2021-02-21T04:35:15Z</time>
      </trkpt>
      <trkpt lat="44.48448" lon="6.5502">
        <ele>1619</ele>
        <time>2021-02-21T04:35:16Z</time>
      </trkpt>
      <trkpt lat="44.48448" lon="6.5502">
        <ele>1619</ele>
        <time>2021-02-21T04:35:17Z</time>
      </trkpt>
      <trkpt lat="44.48448" lon="6.5502">
        <ele>1619</ele>
        <time>2021-02-21T04:35:18Z</time>
      </trkpt>
      <trkpt lat="44.48448" lon="6.5502">
        <ele>1619</ele>
        <time>2021-02-21T04:35:19Z</time>
      </trkpt>
      <trkpt lat="44.48448" lon="6.5502">
        <ele>1619</ele>
        <time>2021-02-21T04:35:20Z</time>
      </trkpt>
      <trkpt lat="44.48448" lon="6.5502">
        <ele>1619</ele>
        <time>2021-02-21T04:35:21Z</time>
      </trkpt>
      <trkpt lat="44.48448" lon="6.5502">
        <ele>1619</ele>
        <time>2021-02-21T04:35:22Z</time>
      </trkpt>
      <trkpt lat="44.48448" lon="6.5502">
        <ele>1619</ele>
        <time>2021-02-21T04:35:23Z</time>
      </trkpt>
      <trkpt lat="44.48448" lon="6.5502">
        <ele>1619</ele>
        <time>2021-02-21T04:35:24Z</time>
      </trkpt>
      <trkpt lat="44.48448" lon="6.5502">
        <ele>1619</ele>
        <time>2021-02-21T04:35:25Z</time>
      </trkpt>
      <trkpt lat="44.48448" lon="6.5502">
        <ele>1619</ele>
        <time>2021-02-21T04:35:26Z</time>
      </trkpt>
      <trkpt lat="44.48448" lon="6.5502">
        <ele>1619</ele>
        <time>2021-02-21T04:35:27Z</time>
      </trkpt>
      <trkpt lat="44.48448" lon="6.5502">
        <ele>1619</ele>
        <time>2021-02-21T04:35:28Z</time>
      </trkpt>
      <trkpt lat="44.48448" lon="6.5502">
        <ele>1619</ele>
        <time>2021-02-21T04:35:29Z</time>
      </trkpt>
      <trkpt lat="44.48448" lon="6.5502">
        <ele>1619</ele>
        <time>2021-02-21T04:35:30Z</time>
      </trkpt>
      <trkpt lat="44.48448" lon="6.5502">
        <ele>1619</ele>
        <time>2021-02-21T04:35:31Z</time>
      </trkpt>
      <trkpt lat="44.48448" lon="6.5502">
        <ele>1619</ele>
        <time>2021-02-21T04:35:32Z</time>
      </trkpt>
      <trkpt lat="44.48448" lon="6.5502">
        <ele>1619</ele>
        <time>2021-02-21T04:35:33Z</time>
      </trkpt>
      <trkpt lat="44.48448" lon="6.5502">
        <ele>1619</ele>
        <time>2021-02-21T04:35:34Z</time>
      </trkpt>
      <trkpt lat="44.48448" lon="6.5502">
        <ele>1619</ele>
        <time>2021-02-21T04:35:35Z</time>
      </trkpt>
      <trkpt lat="44.48448" lon="6.5502">
        <ele>1619</ele>
        <time>2021-02-21T04:35:36Z</time>
      </trkpt>
      <trkpt lat="44.48448" lon="6.5502">
        <ele>1619</ele>
        <time>2021-02-21T04:35:37Z</time>
      </trkpt>
      <trkpt lat="44.48448" lon="6.5502">
        <ele>1619</ele>
        <time>2021-02-21T04:35:38Z</time>
      </trkpt>
      <trkpt lat="44.48448" lon="6.5502">
        <ele>1619</ele>
        <time>2021-02-21T04:35:39Z</time>
      </trkpt>
      <trkpt lat="44.48448" lon="6.5502">
        <ele>1619</ele>
        <time>2021-02-21T04:35:40Z</time>
      </trkpt>
      <trkpt lat="44.48448" lon="6.5502">
        <ele>1619</ele>
        <time>2021-02-21T04:35:41Z</time>
      </trkpt>
      <trkpt lat="44.48448" lon="6.5502">
        <ele>1619</ele>
        <time>2021-02-21T04:35:42Z</time>
      </trkpt>
      <trkpt lat="44.48448" lon="6.5502">
        <ele>1619</ele>
        <time>2021-02-21T04:35:43Z</time>
      </trkpt>
      <trkpt lat="44.48448" lon="6.5502">
        <ele>1619</ele>
        <time>2021-02-21T04:35:44Z</time>
      </trkpt>
      <trkpt lat="44.48448" lon="6.5502">
        <ele>1619</ele>
        <time>2021-02-21T04:35:45Z</time>
      </trkpt>
      <trkpt lat="44.48448" lon="6.5502">
        <ele>1619</ele>
        <time>2021-02-21T04:35:46Z</time>
      </trkpt>
      <trkpt lat="44.48448" lon="6.5502">
        <ele>1619</ele>
        <time>2021-02-21T04:35:47Z</time>
      </trkpt>
      <trkpt lat="44.48448" lon="6.5502">
        <ele>1619</ele>
        <time>2021-02-21T04:35:48Z</time>
      </trkpt>
      <trkpt lat="44.48448" lon="6.5502">
        <ele>1619</ele>
        <time>2021-02-21T04:35:49Z</time>
      </trkpt>
      <trkpt lat="44.48448" lon="6.5502">
        <ele>1619</ele>
        <time>2021-02-21T04:35:50Z</time>
      </trkpt>
      <trkpt lat="44.48448" lon="6.5502">
        <ele>1619</ele>
        <time>2021-02-21T04:35:51Z</time>
      </trkpt>
      <trkpt lat="44.48448" lon="6.5502">
        <ele>1619</ele>
        <time>2021-02-21T04:35:52Z</time>
      </trkpt>
      <trkpt lat="44.48448" lon="6.5502">
        <ele>1619</ele>
        <time>2021-02-21T04:35:53Z</time>
      </trkpt>
      <trkpt lat="44.48448" lon="6.5502">
        <ele>1619</ele>
        <time>2021-02-21T04:35:54Z</time>
      </trkpt>
      <trkpt lat="44.48448" lon="6.5502">
        <ele>1619</ele>
        <time>2021-02-21T04:35:55Z</time>
      </trkpt>
      <trkpt lat="44.48448" lon="6.5502">
        <ele>1619</ele>
        <time>2021-02-21T04:35:56Z</time>
      </trkpt>
      <trkpt lat="44.48448" lon="6.5502">
        <ele>1619</ele>
        <time>2021-02-21T04:35:57Z</time>
      </trkpt>
      <trkpt lat="44.48448" lon="6.5502">
        <ele>1619</ele>
        <time>2021-02-21T04:35:58Z</time>
      </trkpt>
      <trkpt lat="44.48454" lon="6.55019">
        <ele>1625</ele>
        <time>2021-02-21T04:35:59Z</time>
      </trkpt>
      <trkpt lat="44.48453" lon="6.55019">
        <ele>1627</ele>
        <time>2021-02-21T04:36:00Z</time>
      </trkpt>
      <trkpt lat="44.48453" lon="6.55019">
        <ele>1627</ele>
        <time>2021-02-21T04:36:01Z</time>
      </trkpt>
      <trkpt lat="44.48452" lon="6.55019">
        <ele>1628</ele>
        <time>2021-02-21T04:36:02Z</time>
      </trkpt>
      <trkpt lat="44.48452" lon="6.55019">
        <ele>1628</ele>
        <time>2021-02-21T04:36:03Z</time>
      </trkpt>
      <trkpt lat="44.48452" lon="6.55019">
        <ele>1628</ele>
        <time>2021-02-21T04:36:04Z</time>
      </trkpt>
      <trkpt lat="44.48452" lon="6.55019">
        <ele>1628</ele>
        <time>2021-02-21T04:36:05Z</time>
      </trkpt>
      <trkpt lat="44.48452" lon="6.55019">
        <ele>1628</ele>
        <time>2021-02-21T04:36:06Z</time>
      </trkpt>
      <trkpt lat="44.48452" lon="6.55019">
        <ele>1628</ele>
        <time>2021-02-21T04:36:07Z</time>
      </trkpt>
      <trkpt lat="44.48452" lon="6.55019">
        <ele>1628</ele>
        <time>2021-02-21T04:36:08Z</time>
      </trkpt>
      <trkpt lat="44.48452" lon="6.55019">
        <ele>1628</ele>
        <time>2021-02-21T04:36:09Z</time>
      </trkpt>
      <trkpt lat="44.48452" lon="6.55019">
        <ele>1629</ele>
        <time>2021-02-21T04:36:10Z</time>
      </trkpt>
      <trkpt lat="44.48452" lon="6.55019">
        <ele>1629</ele>
        <time>2021-02-21T04:36:11Z</time>
      </trkpt>
      <trkpt lat="44.4845" lon="6.55021">
        <ele>1628</ele>
        <time>2021-02-21T04:36:12Z</time>
      </trkpt>
      <trkpt lat="44.4845" lon="6.55021">
        <ele>1628</ele>
        <time>2021-02-21T04:36:13Z</time>
      </trkpt>
      <trkpt lat="44.48449" lon="6.55023">
        <ele>1628</ele>
        <time>2021-02-21T04:36:14Z</time>
      </trkpt>
      <trkpt lat="44.48449" lon="6.55023">
        <ele>1628</ele>
        <time>2021-02-21T04:36:15Z</time>
      </trkpt>
      <trkpt lat="44.48449" lon="6.55023">
        <ele>1627</ele>
        <time>2021-02-21T04:36:16Z</time>
      </trkpt>
      <trkpt lat="44.48449" lon="6.55023">
        <ele>1627</ele>
        <time>2021-02-21T04:36:17Z</time>
      </trkpt>
      <trkpt lat="44.48449" lon="6.55023">
        <ele>1627</ele>
        <time>2021-02-21T04:36:18Z</time>
      </trkpt>
      <trkpt lat="44.48449" lon="6.55023">
        <ele>1627</ele>
        <time>2021-02-21T04:36:19Z</time>
      </trkpt>
      <trkpt lat="44.48449" lon="6.55023">
        <ele>1627</ele>
        <time>2021-02-21T04:36:20Z</time>
      </trkpt>
      <trkpt lat="44.48449" lon="6.55023">
        <ele>1627</ele>
        <time>2021-02-21T04:36:21Z</time>
      </trkpt>
      <trkpt lat="44.48449" lon="6.55023">
        <ele>1627</ele>
        <time>2021-02-21T04:36:22Z</time>
      </trkpt>
      <trkpt lat="44.48449" lon="6.55023">
        <ele>1627</ele>
        <time>2021-02-21T04:36:23Z</time>
      </trkpt>
      <trkpt lat="44.48449" lon="6.55023">
        <ele>1627</ele>
        <time>2021-02-21T04:36:24Z</time>
      </trkpt>
      <trkpt lat="44.48449" lon="6.55023">
        <ele>1627</ele>
        <time>2021-02-21T04:36:25Z</time>
      </trkpt>
      <trkpt lat="44.48449" lon="6.55023">
        <ele>1627</ele>
        <time>2021-02-21T04:36:26Z</time>
      </trkpt>
      <trkpt lat="44.48449" lon="6.55023">
        <ele>1627</ele>
        <time>2021-02-21T04:36:27Z</time>
      </trkpt>
      <trkpt lat="44.48449" lon="6.55023">
        <ele>1627</ele>
        <time>2021-02-21T04:36:28Z</time>
      </trkpt>
      <trkpt lat="44.48449" lon="6.55023">
        <ele>1627</ele>
        <time>2021-02-21T04:36:29Z</time>
      </trkpt>
      <trkpt lat="44.48449" lon="6.55023">
        <ele>1627</ele>
        <time>2021-02-21T04:36:30Z</time>
      </trkpt>
      <trkpt lat="44.48449" lon="6.55023">
        <ele>1627</ele>
        <time>2021-02-21T04:36:31Z</time>
      </trkpt>
      <trkpt lat="44.48449" lon="6.55023">
        <ele>1627</ele>
        <time>2021-02-21T04:36:32Z</time>
      </trkpt>
      <trkpt lat="44.48449" lon="6.55023">
        <ele>1627</ele>
        <time>2021-02-21T04:36:33Z</time>
      </trkpt>
      <trkpt lat="44.48449" lon="6.55023">
        <ele>1627</ele>
        <time>2021-02-21T04:36:34Z</time>
      </trkpt>
      <trkpt lat="44.48449" lon="6.55023">
        <ele>1627</ele>
        <time>2021-02-21T04:36:35Z</time>
      </trkpt>
      <trkpt lat="44.48449" lon="6.55023">
        <ele>1627</ele>
        <time>2021-02-21T04:36:36Z</time>
      </trkpt>
      <trkpt lat="44.48449" lon="6.55023">
        <ele>1627</ele>
        <time>2021-02-21T04:36:37Z</time>
      </trkpt>
      <trkpt lat="44.48449" lon="6.55023">
        <ele>1627</ele>
        <time>2021-02-21T04:36:38Z</time>
      </trkpt>
      <trkpt lat="44.48449" lon="6.55023">
        <ele>1627</ele>
        <time>2021-02-21T04:36:39Z</time>
      </trkpt>
      <trkpt lat="44.48449" lon="6.55023">
        <ele>1627</ele>
        <time>2021-02-21T04:36:40Z</time>
      </trkpt>
      <trkpt lat="44.48449" lon="6.55023">
        <ele>1627</ele>
        <time>2021-02-21T04:36:41Z</time>
      </trkpt>
      <trkpt lat="44.48449" lon="6.55023">
        <ele>1627</ele>
        <time>2021-02-21T04:36:42Z</time>
      </trkpt>
      <trkpt lat="44.48449" lon="6.55023">
        <ele>1627</ele>
        <time>2021-02-21T04:36:43Z</time>
      </trkpt>
      <trkpt lat="44.48449" lon="6.55023">
        <ele>1627</ele>
        <time>2021-02-21T04:36:44Z</time>
      </trkpt>
      <trkpt lat="44.48449" lon="6.55023">
        <ele>1627</ele>
        <time>2021-02-21T04:36:45Z</time>
      </trkpt>
      <trkpt lat="44.48449" lon="6.55023">
        <ele>1627</ele>
        <time>2021-02-21T04:36:46Z</time>
      </trkpt>
      <trkpt lat="44.48449" lon="6.55023">
        <ele>1627</ele>
        <time>2021-02-21T04:36:47Z</time>
      </trkpt>
      <trkpt lat="44.48449" lon="6.55023">
        <ele>1627</ele>
        <time>2021-02-21T04:36:48Z</time>
      </trkpt>
      <trkpt lat="44.48448" lon="6.55021">
        <ele>1627</ele>
        <time>2021-02-21T04:36:49Z</time>
      </trkpt>
      <trkpt lat="44.48447" lon="6.55022">
        <ele>1627</ele>
        <time>2021-02-21T04:36:50Z</time>
      </trkpt>
      <trkpt lat="44.48446" lon="6.55022">
        <ele>1627</ele>
        <time>2021-02-21T04:36:51Z</time>
      </trkpt>
      <trkpt lat="44.48445" lon="6.55023">
        <ele>1627</ele>
        <time>2021-02-21T04:36:52Z</time>
      </trkpt>
      <trkpt lat="44.48443" lon="6.55023">
        <ele>1627</ele>
        <time>2021-02-21T04:36:53Z</time>
      </trkpt>
      <trkpt lat="44.48442" lon="6.55023">
        <ele>1627</ele>
        <time>2021-02-21T04:36:54Z</time>
      </trkpt>
      <trkpt lat="44.4844" lon="6.55023">
        <ele>1627</ele>
        <time>2021-02-21T04:36:55Z</time>
      </trkpt>
      <trkpt lat="44.48439" lon="6.55024">
        <ele>1627</ele>
        <time>2021-02-21T04:36:56Z</time>
      </trkpt>
      <trkpt lat="44.48437" lon="6.55025">
        <ele>1627</ele>
        <time>2021-02-21T04:36:57Z</time>
      </trkpt>
      <trkpt lat="44.48436" lon="6.55026">
        <ele>1627</ele>
        <time>2021-02-21T04:36:58Z</time>
      </trkpt>
      <trkpt lat="44.48434" lon="6.55027">
        <ele>1627</ele>
        <time>2021-02-21T04:36:59Z</time>
      </trkpt>
      <trkpt lat="44.48433" lon="6.55026">
        <ele>1627</ele>
        <time>2021-02-21T04:37:00Z</time>
      </trkpt>
      <trkpt lat="44.48433" lon="6.55024">
        <ele>1626</ele>
        <time>2021-02-21T04:37:01Z</time>
      </trkpt>
      <trkpt lat="44.48433" lon="6.55023">
        <ele>1626</ele>
        <time>2021-02-21T04:37:02Z</time>
      </trkpt>
      <trkpt lat="44.48432" lon="6.55023">
        <ele>1626</ele>
        <time>2021-02-21T04:37:03Z</time>
      </trkpt>
      <trkpt lat="44.48432" lon="6.55023">
        <ele>1626</ele>
        <time>2021-02-21T04:37:04Z</time>
      </trkpt>
      <trkpt lat="44.48432" lon="6.55023">
        <ele>1626</ele>
        <time>2021-02-21T04:37:05Z</time>
      </trkpt>
      <trkpt lat="44.48432" lon="6.55023">
        <ele>1626</ele>
        <time>2021-02-21T04:37:06Z</time>
      </trkpt>
      <trkpt lat="44.48432" lon="6.55024">
        <ele>1626</ele>
        <time>2021-02-21T04:37:07Z</time>
      </trkpt>
      <trkpt lat="44.48432" lon="6.55024">
        <ele>1626</ele>
        <time>2021-02-21T04:37:08Z</time>
      </trkpt>
      <trkpt lat="44.48432" lon="6.55024">
        <ele>1626</ele>
        <time>2021-02-21T04:37:09Z</time>
      </trkpt>
      <trkpt lat="44.48432" lon="6.55024">
        <ele>1626</ele>
        <time>2021-02-21T04:37:10Z</time>
      </trkpt>
      <trkpt lat="44.48432" lon="6.55024">
        <ele>1626</ele>
        <time>2021-02-21T04:37:11Z</time>
      </trkpt>
      <trkpt lat="44.48432" lon="6.55024">
        <ele>1626</ele>
        <time>2021-02-21T04:37:12Z</time>
      </trkpt>
      <trkpt lat="44.48432" lon="6.55024">
        <ele>1626</ele>
        <time>2021-02-21T04:37:13Z</time>
      </trkpt>
      <trkpt lat="44.48432" lon="6.55024">
        <ele>1626</ele>
        <time>2021-02-21T04:37:14Z</time>
      </trkpt>
      <trkpt lat="44.48432" lon="6.55024">
        <ele>1626</ele>
        <time>2021-02-21T04:37:15Z</time>
      </trkpt>
      <trkpt lat="44.48432" lon="6.55024">
        <ele>1626</ele>
        <time>2021-02-21T04:37:16Z</time>
      </trkpt>
      <trkpt lat="44.48432" lon="6.55024">
        <ele>1626</ele>
        <time>2021-02-21T04:37:17Z</time>
      </trkpt>
      <trkpt lat="44.48432" lon="6.55024">
        <ele>1626</ele>
        <time>2021-02-21T04:37:18Z</time>
      </trkpt>
      <trkpt lat="44.48432" lon="6.55024">
        <ele>1626</ele>
        <time>2021-02-21T04:37:19Z</time>
      </trkpt>
      <trkpt lat="44.48432" lon="6.55024">
        <ele>1626</ele>
        <time>2021-02-21T04:37:20Z</time>
      </trkpt>
      <trkpt lat="44.48432" lon="6.55024">
        <ele>1626</ele>
        <time>2021-02-21T04:37:21Z</time>
      </trkpt>
      <trkpt lat="44.48432" lon="6.55024">
        <ele>1626</ele>
        <time>2021-02-21T04:37:22Z</time>
      </trkpt>
      <trkpt lat="44.48432" lon="6.55024">
        <ele>1626</ele>
        <time>2021-02-21T04:37:23Z</time>
      </trkpt>
      <trkpt lat="44.48432" lon="6.55024">
        <ele>1626</ele>
        <time>2021-02-21T04:37:24Z</time>
      </trkpt>
      <trkpt lat="44.48432" lon="6.55024">
        <ele>1626</ele>
        <time>2021-02-21T04:37:25Z</time>
      </trkpt>
      <trkpt lat="44.48432" lon="6.55024">
        <ele>1626</ele>
        <time>2021-02-21T04:37:26Z</time>
      </trkpt>
      <trkpt lat="44.48432" lon="6.55024">
        <ele>1626</ele>
        <time>2021-02-21T04:37:27Z</time>
      </trkpt>
      <trkpt lat="44.48432" lon="6.55024">
        <ele>1626</ele>
        <time>2021-02-21T04:37:28Z</time>
      </trkpt>
      <trkpt lat="44.48432" lon="6.55024">
        <ele>1626</ele>
        <time>2021-02-21T04:37:29Z</time>
      </trkpt>
      <trkpt lat="44.48432" lon="6.55024">
        <ele>1626</ele>
        <time>2021-02-21T04:37:30Z</time>
      </trkpt>
      <trkpt lat="44.48432" lon="6.55024">
        <ele>1626</ele>
        <time>2021-02-21T04:37:31Z</time>
      </trkpt>
      <trkpt lat="44.48432" lon="6.55024">
        <ele>1626</ele>
        <time>2021-02-21T04:37:32Z</time>
      </trkpt>
      <trkpt lat="44.48432" lon="6.55024">
        <ele>1626</ele>
        <time>2021-02-21T04:37:33Z</time>
      </trkpt>
      <trkpt lat="44.48432" lon="6.55024">
        <ele>1626</ele>
        <time>2021-02-21T04:37:34Z</time>
      </trkpt>
      <trkpt lat="44.48432" lon="6.55024">
        <ele>1626</ele>
        <time>2021-02-21T04:37:35Z</time>
      </trkpt>
      <trkpt lat="44.48432" lon="6.55024">
        <ele>1626</ele>
        <time>2021-02-21T04:37:36Z</time>
      </trkpt>
      <trkpt lat="44.48432" lon="6.55024">
        <ele>1626</ele>
        <time>2021-02-21T04:37:37Z</time>
      </trkpt>
      <trkpt lat="44.48432" lon="6.55024">
        <ele>1626</ele>
        <time>2021-02-21T04:37:38Z</time>
      </trkpt>
      <trkpt lat="44.48432" lon="6.55024">
        <ele>1626</ele>
        <time>2021-02-21T04:37:39Z</time>
      </trkpt>
      <trkpt lat="44.48432" lon="6.55024">
        <ele>1626</ele>
        <time>2021-02-21T04:37:40Z</time>
      </trkpt>
      <trkpt lat="44.48432" lon="6.55024">
        <ele>1626</ele>
        <time>2021-02-21T04:37:41Z</time>
      </trkpt>
      <trkpt lat="44.48432" lon="6.55024">
        <ele>1626</ele>
        <time>2021-02-21T04:37:42Z</time>
      </trkpt>
      <trkpt lat="44.48432" lon="6.55024">
        <ele>1626</ele>
        <time>2021-02-21T04:37:43Z</time>
      </trkpt>
      <trkpt lat="44.48432" lon="6.55024">
        <ele>1626</ele>
        <time>2021-02-21T04:37:44Z</time>
      </trkpt>
      <trkpt lat="44.48432" lon="6.55024">
        <ele>1626</ele>
        <time>2021-02-21T04:37:45Z</time>
      </trkpt>
      <trkpt lat="44.48432" lon="6.55024">
        <ele>1626</ele>
        <time>2021-02-21T04:37:46Z</time>
      </trkpt>
      <trkpt lat="44.48432" lon="6.55024">
        <ele>1626</ele>
        <time>2021-02-21T04:37:47Z</time>
      </trkpt>
      <trkpt lat="44.48432" lon="6.55024">
        <ele>1626</ele>
        <time>2021-02-21T04:37:48Z</time>
      </trkpt>
      <trkpt lat="44.48432" lon="6.55024">
        <ele>1626</ele>
        <time>2021-02-21T04:37:49Z</time>
      </trkpt>
      <trkpt lat="44.48432" lon="6.55024">
        <ele>1626</ele>
        <time>2021-02-21T04:37:50Z</time>
      </trkpt>
      <trkpt lat="44.48432" lon="6.55024">
        <ele>1626</ele>
        <time>2021-02-21T04:37:51Z</time>
      </trkpt>
      <trkpt lat="44.48432" lon="6.55024">
        <ele>1626</ele>
        <time>2021-02-21T04:37:52Z</time>
      </trkpt>
      <trkpt lat="44.48432" lon="6.55024">
        <ele>1626</ele>
        <time>2021-02-21T04:37:53Z</time>
      </trkpt>
      <trkpt lat="44.48432" lon="6.55024">
        <ele>1626</ele>
        <time>2021-02-21T04:37:54Z</time>
      </trkpt>
      <trkpt lat="44.48432" lon="6.55024">
        <ele>1626</ele>
        <time>2021-02-21T04:37:55Z</time>
      </trkpt>
      <trkpt lat="44.48432" lon="6.55024">
        <ele>1626</ele>
        <time>2021-02-21T04:37:56Z</time>
      </trkpt>
      <trkpt lat="44.48432" lon="6.55024">
        <ele>1626</ele>
        <time>2021-02-21T04:37:57Z</time>
      </trkpt>
      <trkpt lat="44.48432" lon="6.55024">
        <ele>1626</ele>
        <time>2021-02-21T04:37:58Z</time>
      </trkpt>
      <trkpt lat="44.48432" lon="6.55024">
        <ele>1626</ele>
        <time>2021-02-21T04:37:59Z</time>
      </trkpt>
      <trkpt lat="44.48432" lon="6.55024">
        <ele>1626</ele>
        <time>2021-02-21T04:38:00Z</time>
      </trkpt>
      <trkpt lat="44.48432" lon="6.55024">
        <ele>1626</ele>
        <time>2021-02-21T04:38:01Z</time>
      </trkpt>
      <trkpt lat="44.48432" lon="6.55024">
        <ele>1626</ele>
        <time>2021-02-21T04:38:02Z</time>
      </trkpt>
      <trkpt lat="44.48432" lon="6.55024">
        <ele>1626</ele>
        <time>2021-02-21T04:38:03Z</time>
      </trkpt>
      <trkpt lat="44.48432" lon="6.55024">
        <ele>1626</ele>
        <time>2021-02-21T04:38:04Z</time>
      </trkpt>
      <trkpt lat="44.48432" lon="6.55024">
        <ele>1626</ele>
        <time>2021-02-21T04:38:05Z</time>
      </trkpt>
      <trkpt lat="44.48432" lon="6.55024">
        <ele>1626</ele>
        <time>2021-02-21T04:38:06Z</time>
      </trkpt>
      <trkpt lat="44.48432" lon="6.55024">
        <ele>1626</ele>
        <time>2021-02-21T04:38:07Z</time>
      </trkpt>
      <trkpt lat="44.48432" lon="6.55024">
        <ele>1626</ele>
        <time>2021-02-21T04:38:08Z</time>
      </trkpt>
      <trkpt lat="44.48432" lon="6.55024">
        <ele>1626</ele>
        <time>2021-02-21T04:38:09Z</time>
      </trkpt>
      <trkpt lat="44.48432" lon="6.55024">
        <ele>1626</ele>
        <time>2021-02-21T04:38:10Z</time>
      </trkpt>
      <trkpt lat="44.48432" lon="6.55024">
        <ele>1626</ele>
        <time>2021-02-21T04:38:11Z</time>
      </trkpt>
      <trkpt lat="44.48432" lon="6.55024">
        <ele>1626</ele>
        <time>2021-02-21T04:38:12Z</time>
      </trkpt>
      <trkpt lat="44.48432" lon="6.55024">
        <ele>1626</ele>
        <time>2021-02-21T04:38:13Z</time>
      </trkpt>
      <trkpt lat="44.48432" lon="6.55024">
        <ele>1626</ele>
        <time>2021-02-21T04:38:14Z</time>
      </trkpt>
      <trkpt lat="44.48432" lon="6.55024">
        <ele>1626</ele>
        <time>2021-02-21T04:38:15Z</time>
      </trkpt>
      <trkpt lat="44.48432" lon="6.55024">
        <ele>1626</ele>
        <time>2021-02-21T04:38:16Z</time>
      </trkpt>
      <trkpt lat="44.48432" lon="6.55024">
        <ele>1626</ele>
        <time>2021-02-21T04:38:17Z</time>
      </trkpt>
      <trkpt lat="44.48432" lon="6.55024">
        <ele>1626</ele>
        <time>2021-02-21T04:38:18Z</time>
      </trkpt>
      <trkpt lat="44.48432" lon="6.55024">
        <ele>1626</ele>
        <time>2021-02-21T04:38:19Z</time>
      </trkpt>
      <trkpt lat="44.48432" lon="6.55024">
        <ele>1626</ele>
        <time>2021-02-21T04:38:20Z</time>
      </trkpt>
      <trkpt lat="44.48432" lon="6.55024">
        <ele>1626</ele>
        <time>2021-02-21T04:38:21Z</time>
      </trkpt>
      <trkpt lat="44.48429" lon="6.55024">
        <ele>1626</ele>
        <time>2021-02-21T04:38:22Z</time>
      </trkpt>
      <trkpt lat="44.48429" lon="6.55024">
        <ele>1626</ele>
        <time>2021-02-21T04:38:23Z</time>
      </trkpt>
      <trkpt lat="44.48429" lon="6.55024">
        <ele>1626</ele>
        <time>2021-02-21T04:38:24Z</time>
      </trkpt>
      <trkpt lat="44.48429" lon="6.55024">
        <ele>1625</ele>
        <time>2021-02-21T04:38:25Z</time>
      </trkpt>
      <trkpt lat="44.48429" lon="6.55024">
        <ele>1625</ele>
        <time>2021-02-21T04:38:26Z</time>
      </trkpt>
      <trkpt lat="44.48429" lon="6.55024">
        <ele>1625</ele>
        <time>2021-02-21T04:38:27Z</time>
      </trkpt>
      <trkpt lat="44.48429" lon="6.55024">
        <ele>1625</ele>
        <time>2021-02-21T04:38:28Z</time>
      </trkpt>
      <trkpt lat="44.48429" lon="6.55024">
        <ele>1625</ele>
        <time>2021-02-21T04:38:29Z</time>
      </trkpt>
      <trkpt lat="44.48429" lon="6.55024">
        <ele>1625</ele>
        <time>2021-02-21T04:38:30Z</time>
      </trkpt>
      <trkpt lat="44.48429" lon="6.55024">
        <ele>1625</ele>
        <time>2021-02-21T04:38:31Z</time>
      </trkpt>
      <trkpt lat="44.48429" lon="6.55024">
        <ele>1625</ele>
        <time>2021-02-21T04:38:32Z</time>
      </trkpt>
      <trkpt lat="44.48429" lon="6.55024">
        <ele>1625</ele>
        <time>2021-02-21T04:38:33Z</time>
      </trkpt>
      <trkpt lat="44.48429" lon="6.55024">
        <ele>1625</ele>
        <time>2021-02-21T04:38:34Z</time>
      </trkpt>
      <trkpt lat="44.48429" lon="6.55024">
        <ele>1625</ele>
        <time>2021-02-21T04:38:35Z</time>
      </trkpt>
      <trkpt lat="44.48429" lon="6.55024">
        <ele>1625</ele>
        <time>2021-02-21T04:38:36Z</time>
      </trkpt>
      <trkpt lat="44.48429" lon="6.55024">
        <ele>1625</ele>
        <time>2021-02-21T04:38:37Z</time>
      </trkpt>
      <trkpt lat="44.48429" lon="6.55024">
        <ele>1625</ele>
        <time>2021-02-21T04:38:38Z</time>
      </trkpt>
      <trkpt lat="44.48429" lon="6.55024">
        <ele>1625</ele>
        <time>2021-02-21T04:38:39Z</time>
      </trkpt>
      <trkpt lat="44.48429" lon="6.55024">
        <ele>1625</ele>
        <time>2021-02-21T04:38:40Z</time>
      </trkpt>
      <trkpt lat="44.48429" lon="6.55024">
        <ele>1625</ele>
        <time>2021-02-21T04:38:41Z</time>
      </trkpt>
      <trkpt lat="44.48429" lon="6.55024">
        <ele>1625</ele>
        <time>2021-02-21T04:38:42Z</time>
      </trkpt>
      <trkpt lat="44.48429" lon="6.55024">
        <ele>1625</ele>
        <time>2021-02-21T04:38:43Z</time>
      </trkpt>
      <trkpt lat="44.48429" lon="6.55024">
        <ele>1625</ele>
        <time>2021-02-21T04:38:44Z</time>
      </trkpt>
      <trkpt lat="44.48429" lon="6.55024">
        <ele>1625</ele>
        <time>2021-02-21T04:38:45Z</time>
      </trkpt>
      <trkpt lat="44.48429" lon="6.55024">
        <ele>1625</ele>
        <time>2021-02-21T04:38:46Z</time>
      </trkpt>
      <trkpt lat="44.48429" lon="6.55024">
        <ele>1625</ele>
        <time>2021-02-21T04:38:47Z</time>
      </trkpt>
      <trkpt lat="44.48429" lon="6.55024">
        <ele>1625</ele>
        <time>2021-02-21T04:38:48Z</time>
      </trkpt>
      <trkpt lat="44.48429" lon="6.55024">
        <ele>1625</ele>
        <time>2021-02-21T04:38:49Z</time>
      </trkpt>
      <trkpt lat="44.48429" lon="6.55024">
        <ele>1625</ele>
        <time>2021-02-21T04:38:50Z</time>
      </trkpt>
      <trkpt lat="44.48429" lon="6.55024">
        <ele>1625</ele>
        <time>2021-02-21T04:38:51Z</time>
      </trkpt>
      <trkpt lat="44.48429" lon="6.55024">
        <ele>1625</ele>
        <time>2021-02-21T04:38:52Z</time>
      </trkpt>
      <trkpt lat="44.48429" lon="6.55024">
        <ele>1625</ele>
        <time>2021-02-21T04:38:53Z</time>
      </trkpt>
      <trkpt lat="44.48429" lon="6.55024">
        <ele>1625</ele>
        <time>2021-02-21T04:38:54Z</time>
      </trkpt>
      <trkpt lat="44.48429" lon="6.55024">
        <ele>1625</ele>
        <time>2021-02-21T04:38:55Z</time>
      </trkpt>
      <trkpt lat="44.48429" lon="6.55024">
        <ele>1625</ele>
        <time>2021-02-21T04:38:56Z</time>
      </trkpt>
      <trkpt lat="44.48429" lon="6.55024">
        <ele>1625</ele>
        <time>2021-02-21T04:38:57Z</time>
      </trkpt>
      <trkpt lat="44.48429" lon="6.55024">
        <ele>1625</ele>
        <time>2021-02-21T04:38:58Z</time>
      </trkpt>
      <trkpt lat="44.48429" lon="6.55024">
        <ele>1625</ele>
        <time>2021-02-21T04:38:59Z</time>
      </trkpt>
      <trkpt lat="44.48429" lon="6.55024">
        <ele>1625</ele>
        <time>2021-02-21T04:39:00Z</time>
      </trkpt>
      <trkpt lat="44.48429" lon="6.55024">
        <ele>1625</ele>
        <time>2021-02-21T04:39:01Z</time>
      </trkpt>
      <trkpt lat="44.48429" lon="6.55024">
        <ele>1625</ele>
        <time>2021-02-21T04:39:02Z</time>
      </trkpt>
      <trkpt lat="44.48429" lon="6.55024">
        <ele>1625</ele>
        <time>2021-02-21T04:39:03Z</time>
      </trkpt>
      <trkpt lat="44.48429" lon="6.55024">
        <ele>1625</ele>
        <time>2021-02-21T04:39:04Z</time>
      </trkpt>
      <trkpt lat="44.48429" lon="6.55024">
        <ele>1625</ele>
        <time>2021-02-21T04:39:05Z</time>
      </trkpt>
      <trkpt lat="44.48429" lon="6.55024">
        <ele>1625</ele>
        <time>2021-02-21T04:39:06Z</time>
      </trkpt>
      <trkpt lat="44.48429" lon="6.55024">
        <ele>1625</ele>
        <time>2021-02-21T04:39:07Z</time>
      </trkpt>
      <trkpt lat="44.48429" lon="6.55024">
        <ele>1625</ele>
        <time>2021-02-21T04:39:08Z</time>
      </trkpt>
      <trkpt lat="44.48429" lon="6.55024">
        <ele>1625</ele>
        <time>2021-02-21T04:39:09Z</time>
      </trkpt>
      <trkpt lat="44.48429" lon="6.55024">
        <ele>1625</ele>
        <time>2021-02-21T04:39:10Z</time>
      </trkpt>
      <trkpt lat="44.48429" lon="6.55024">
        <ele>1625</ele>
        <time>2021-02-21T04:39:11Z</time>
      </trkpt>
      <trkpt lat="44.48429" lon="6.55024">
        <ele>1625</ele>
        <time>2021-02-21T04:39:12Z</time>
      </trkpt>
      <trkpt lat="44.48429" lon="6.55024">
        <ele>1625</ele>
        <time>2021-02-21T04:39:13Z</time>
      </trkpt>
      <trkpt lat="44.48429" lon="6.55024">
        <ele>1625</ele>
        <time>2021-02-21T04:39:14Z</time>
      </trkpt>
      <trkpt lat="44.48429" lon="6.55024">
        <ele>1625</ele>
        <time>2021-02-21T04:39:15Z</time>
      </trkpt>
      <trkpt lat="44.48429" lon="6.55024">
        <ele>1625</ele>
        <time>2021-02-21T04:39:16Z</time>
      </trkpt>
      <trkpt lat="44.48429" lon="6.55024">
        <ele>1625</ele>
        <time>2021-02-21T04:39:17Z</time>
      </trkpt>
      <trkpt lat="44.48429" lon="6.55024">
        <ele>1625</ele>
        <time>2021-02-21T04:39:18Z</time>
      </trkpt>
      <trkpt lat="44.48429" lon="6.55024">
        <ele>1625</ele>
        <time>2021-02-21T04:39:19Z</time>
      </trkpt>
      <trkpt lat="44.48429" lon="6.55024">
        <ele>1625</ele>
        <time>2021-02-21T04:39:20Z</time>
      </trkpt>
      <trkpt lat="44.48429" lon="6.55024">
        <ele>1625</ele>
        <time>2021-02-21T04:39:21Z</time>
      </trkpt>
      <trkpt lat="44.48429" lon="6.55024">
        <ele>1625</ele>
        <time>2021-02-21T04:39:22Z</time>
      </trkpt>
      <trkpt lat="44.48429" lon="6.55024">
        <ele>1625</ele>
        <time>2021-02-21T04:39:23Z</time>
      </trkpt>
      <trkpt lat="44.48429" lon="6.55024">
        <ele>1625</ele>
        <time>2021-02-21T04:39:24Z</time>
      </trkpt>
      <trkpt lat="44.48429" lon="6.55024">
        <ele>1625</ele>
        <time>2021-02-21T04:39:25Z</time>
      </trkpt>
      <trkpt lat="44.48429" lon="6.55024">
        <ele>1625</ele>
        <time>2021-02-21T04:39:26Z</time>
      </trkpt>
      <trkpt lat="44.48429" lon="6.55024">
        <ele>1625</ele>
        <time>2021-02-21T04:39:27Z</time>
      </trkpt>
      <trkpt lat="44.48429" lon="6.55024">
        <ele>1625</ele>
        <time>2021-02-21T04:39:28Z</time>
      </trkpt>
      <trkpt lat="44.48429" lon="6.55024">
        <ele>1625</ele>
        <time>2021-02-21T04:39:29Z</time>
      </trkpt>
      <trkpt lat="44.48429" lon="6.55024">
        <ele>1625</ele>
        <time>2021-02-21T04:39:30Z</time>
      </trkpt>
      <trkpt lat="44.48429" lon="6.55024">
        <ele>1625</ele>
        <time>2021-02-21T04:39:31Z</time>
      </trkpt>
      <trkpt lat="44.48429" lon="6.55024">
        <ele>1625</ele>
        <time>2021-02-21T04:39:32Z</time>
      </trkpt>
      <trkpt lat="44.48429" lon="6.55024">
        <ele>1625</ele>
        <time>2021-02-21T04:39:33Z</time>
      </trkpt>
      <trkpt lat="44.48429" lon="6.55024">
        <ele>1625</ele>
        <time>2021-02-21T04:39:34Z</time>
      </trkpt>
      <trkpt lat="44.48429" lon="6.55024">
        <ele>1625</ele>
        <time>2021-02-21T04:39:35Z</time>
      </trkpt>
      <trkpt lat="44.48428" lon="6.55025">
        <ele>1625</ele>
        <time>2021-02-21T04:39:36Z</time>
      </trkpt>
      <trkpt lat="44.48428" lon="6.55025">
        <ele>1625</ele>
        <time>2021-02-21T04:39:37Z</time>
      </trkpt>
      <trkpt lat="44.48428" lon="6.55025">
        <ele>1625</ele>
        <time>2021-02-21T04:39:38Z</time>
      </trkpt>
      <trkpt lat="44.48428" lon="6.55025">
        <ele>1625</ele>
        <time>2021-02-21T04:39:39Z</time>
      </trkpt>
      <trkpt lat="44.48429" lon="6.55025">
        <ele>1625</ele>
        <time>2021-02-21T04:39:40Z</time>
      </trkpt>
      <trkpt lat="44.48429" lon="6.55025">
        <ele>1625</ele>
        <time>2021-02-21T04:39:41Z</time>
      </trkpt>
      <trkpt lat="44.48429" lon="6.55025">
        <ele>1625</ele>
        <time>2021-02-21T04:39:42Z</time>
      </trkpt>
      <trkpt lat="44.48429" lon="6.55025">
        <ele>1626</ele>
        <time>2021-02-21T04:39:43Z</time>
      </trkpt>
      <trkpt lat="44.48429" lon="6.55025">
        <ele>1626</ele>
        <time>2021-02-21T04:39:44Z</time>
      </trkpt>
      <trkpt lat="44.48429" lon="6.55025">
        <ele>1626</ele>
        <time>2021-02-21T04:39:45Z</time>
      </trkpt>
      <trkpt lat="44.48429" lon="6.55025">
        <ele>1626</ele>
        <time>2021-02-21T04:39:46Z</time>
      </trkpt>
      <trkpt lat="44.48429" lon="6.55025">
        <ele>1626</ele>
        <time>2021-02-21T04:39:47Z</time>
      </trkpt>
      <trkpt lat="44.48429" lon="6.55025">
        <ele>1626</ele>
        <time>2021-02-21T04:39:48Z</time>
      </trkpt>
      <trkpt lat="44.48429" lon="6.55025">
        <ele>1626</ele>
        <time>2021-02-21T04:39:49Z</time>
      </trkpt>
      <trkpt lat="44.48429" lon="6.55025">
        <ele>1626</ele>
        <time>2021-02-21T04:39:50Z</time>
      </trkpt>
      <trkpt lat="44.48429" lon="6.55025">
        <ele>1626</ele>
        <time>2021-02-21T04:39:51Z</time>
      </trkpt>
      <trkpt lat="44.48429" lon="6.55025">
        <ele>1626</ele>
        <time>2021-02-21T04:39:52Z</time>
      </trkpt>
      <trkpt lat="44.48427" lon="6.55027">
        <ele>1626</ele>
        <time>2021-02-21T04:39:53Z</time>
      </trkpt>
      <trkpt lat="44.48426" lon="6.55027">
        <ele>1627</ele>
        <time>2021-02-21T04:39:54Z</time>
      </trkpt>
      <trkpt lat="44.48425" lon="6.55028">
        <ele>1627</ele>
        <time>2021-02-21T04:39:55Z</time>
      </trkpt>
      <trkpt lat="44.48424" lon="6.55028">
        <ele>1627</ele>
        <time>2021-02-21T04:39:56Z</time>
      </trkpt>
      <trkpt lat="44.48423" lon="6.55028">
        <ele>1627</ele>
        <time>2021-02-21T04:39:57Z</time>
      </trkpt>
      <trkpt lat="44.48422" lon="6.55028">
        <ele>1627</ele>
        <time>2021-02-21T04:39:58Z</time>
      </trkpt>
      <trkpt lat="44.48421" lon="6.55027">
        <ele>1627</ele>
        <time>2021-02-21T04:39:59Z</time>
      </trkpt>
      <trkpt lat="44.48421" lon="6.55027">
        <ele>1627</ele>
        <time>2021-02-21T04:40:00Z</time>
      </trkpt>
      <trkpt lat="44.48421" lon="6.55027">
        <ele>1627</ele>
        <time>2021-02-21T04:40:01Z</time>
      </trkpt>
      <trkpt lat="44.4842" lon="6.55027">
        <ele>1628</ele>
        <time>2021-02-21T04:40:02Z</time>
      </trkpt>
      <trkpt lat="44.48419" lon="6.55027">
        <ele>1628</ele>
        <time>2021-02-21T04:40:03Z</time>
      </trkpt>
      <trkpt lat="44.48418" lon="6.55027">
        <ele>1628</ele>
        <time>2021-02-21T04:40:04Z</time>
      </trkpt>
      <trkpt lat="44.48417" lon="6.55026">
        <ele>1628</ele>
        <time>2021-02-21T04:40:05Z</time>
      </trkpt>
      <trkpt lat="44.48416" lon="6.55026">
        <ele>1628</ele>
        <time>2021-02-21T04:40:06Z</time>
      </trkpt>
      <trkpt lat="44.48415" lon="6.55026">
        <ele>1628</ele>
        <time>2021-02-21T04:40:07Z</time>
      </trkpt>
      <trkpt lat="44.48413" lon="6.55026">
        <ele>1628</ele>
        <time>2021-02-21T04:40:08Z</time>
      </trkpt>
      <trkpt lat="44.48412" lon="6.55026">
        <ele>1628</ele>
        <time>2021-02-21T04:40:09Z</time>
      </trkpt>
      <trkpt lat="44.48411" lon="6.55026">
        <ele>1628</ele>
        <time>2021-02-21T04:40:10Z</time>
      </trkpt>
      <trkpt lat="44.48409" lon="6.55026">
        <ele>1628</ele>
        <time>2021-02-21T04:40:11Z</time>
      </trkpt>
      <trkpt lat="44.48408" lon="6.55025">
        <ele>1628</ele>
        <time>2021-02-21T04:40:12Z</time>
      </trkpt>
      <trkpt lat="44.48407" lon="6.55025">
        <ele>1628</ele>
        <time>2021-02-21T04:40:13Z</time>
      </trkpt>
      <trkpt lat="44.48406" lon="6.55024">
        <ele>1628</ele>
        <time>2021-02-21T04:40:14Z</time>
      </trkpt>
      <trkpt lat="44.48405" lon="6.55024">
        <ele>1628</ele>
        <time>2021-02-21T04:40:15Z</time>
      </trkpt>
      <trkpt lat="44.48404" lon="6.55024">
        <ele>1628</ele>
        <time>2021-02-21T04:40:16Z</time>
      </trkpt>
      <trkpt lat="44.48403" lon="6.55024">
        <ele>1628</ele>
        <time>2021-02-21T04:40:17Z</time>
      </trkpt>
      <trkpt lat="44.48402" lon="6.55024">
        <ele>1628</ele>
        <time>2021-02-21T04:40:18Z</time>
      </trkpt>
      <trkpt lat="44.484" lon="6.55024">
        <ele>1628</ele>
        <time>2021-02-21T04:40:19Z</time>
      </trkpt>
      <trkpt lat="44.48399" lon="6.55023">
        <ele>1628</ele>
        <time>2021-02-21T04:40:20Z</time>
      </trkpt>
      <trkpt lat="44.48398" lon="6.55023">
        <ele>1628</ele>
        <time>2021-02-21T04:40:21Z</time>
      </trkpt>
      <trkpt lat="44.48397" lon="6.55023">
        <ele>1628</ele>
        <time>2021-02-21T04:40:22Z</time>
      </trkpt>
      <trkpt lat="44.48396" lon="6.55022">
        <ele>1628</ele>
        <time>2021-02-21T04:40:23Z</time>
      </trkpt>
      <trkpt lat="44.48396" lon="6.55022">
        <ele>1628</ele>
        <time>2021-02-21T04:40:24Z</time>
      </trkpt>
      <trkpt lat="44.48395" lon="6.55022">
        <ele>1628</ele>
        <time>2021-02-21T04:40:25Z</time>
      </trkpt>
      <trkpt lat="44.48394" lon="6.55023">
        <ele>1628</ele>
        <time>2021-02-21T04:40:26Z</time>
      </trkpt>
      <trkpt lat="44.48394" lon="6.55023">
        <ele>1628</ele>
        <time>2021-02-21T04:40:27Z</time>
      </trkpt>
      <trkpt lat="44.48393" lon="6.55023">
        <ele>1628</ele>
        <time>2021-02-21T04:40:28Z</time>
      </trkpt>
      <trkpt lat="44.48391" lon="6.55022">
        <ele>1628</ele>
        <time>2021-02-21T04:40:29Z</time>
      </trkpt>
      <trkpt lat="44.4839" lon="6.55022">
        <ele>1627</ele>
        <time>2021-02-21T04:40:30Z</time>
      </trkpt>
      <trkpt lat="44.48389" lon="6.55022">
        <ele>1627</ele>
        <time>2021-02-21T04:40:31Z</time>
      </trkpt>
      <trkpt lat="44.48388" lon="6.55022">
        <ele>1627</ele>
        <time>2021-02-21T04:40:32Z</time>
      </trkpt>
      <trkpt lat="44.48387" lon="6.55022">
        <ele>1627</ele>
        <time>2021-02-21T04:40:33Z</time>
      </trkpt>
      <trkpt lat="44.48386" lon="6.55022">
        <ele>1627</ele>
        <time>2021-02-21T04:40:34Z</time>
      </trkpt>
      <trkpt lat="44.48385" lon="6.55021">
        <ele>1627</ele>
        <time>2021-02-21T04:40:35Z</time>
      </trkpt>
      <trkpt lat="44.48384" lon="6.55021">
        <ele>1627</ele>
        <time>2021-02-21T04:40:36Z</time>
      </trkpt>
      <trkpt lat="44.48383" lon="6.55021">
        <ele>1627</ele>
        <time>2021-02-21T04:40:37Z</time>
      </trkpt>
      <trkpt lat="44.48382" lon="6.55021">
        <ele>1627</ele>
        <time>2021-02-21T04:40:38Z</time>
      </trkpt>
      <trkpt lat="44.4838" lon="6.55021">
        <ele>1626</ele>
        <time>2021-02-21T04:40:39Z</time>
      </trkpt>
      <trkpt lat="44.48379" lon="6.5502">
        <ele>1626</ele>
        <time>2021-02-21T04:40:40Z</time>
      </trkpt>
      <trkpt lat="44.48378" lon="6.5502">
        <ele>1626</ele>
        <time>2021-02-21T04:40:41Z</time>
      </trkpt>
      <trkpt lat="44.48376" lon="6.5502">
        <ele>1626</ele>
        <time>2021-02-21T04:40:42Z</time>
      </trkpt>
      <trkpt lat="44.48373" lon="6.55019">
        <ele>1627</ele>
        <time>2021-02-21T04:40:43Z</time>
      </trkpt>
      <trkpt lat="44.48372" lon="6.55018">
        <ele>1627</ele>
        <time>2021-02-21T04:40:44Z</time>
      </trkpt>
      <trkpt lat="44.48371" lon="6.55018">
        <ele>1627</ele>
        <time>2021-02-21T04:40:45Z</time>
      </trkpt>
      <trkpt lat="44.4837" lon="6.55018">
        <ele>1627</ele>
        <time>2021-02-21T04:40:46Z</time>
      </trkpt>
      <trkpt lat="44.48369" lon="6.55018">
        <ele>1628</ele>
        <time>2021-02-21T04:40:47Z</time>
      </trkpt>
      <trkpt lat="44.48368" lon="6.55018">
        <ele>1628</ele>
        <time>2021-02-21T04:40:48Z</time>
      </trkpt>
      <trkpt lat="44.48367" lon="6.55018">
        <ele>1628</ele>
        <time>2021-02-21T04:40:49Z</time>
      </trkpt>
      <trkpt lat="44.48366" lon="6.55018">
        <ele>1628</ele>
        <time>2021-02-21T04:40:50Z</time>
      </trkpt>
      <trkpt lat="44.48365" lon="6.55018">
        <ele>1628</ele>
        <time>2021-02-21T04:40:51Z</time>
      </trkpt>
      <trkpt lat="44.48364" lon="6.55018">
        <ele>1628</ele>
        <time>2021-02-21T04:40:52Z</time>
      </trkpt>
      <trkpt lat="44.48362" lon="6.55019">
        <ele>1628</ele>
        <time>2021-02-21T04:40:53Z</time>
      </trkpt>
      <trkpt lat="44.48361" lon="6.55019">
        <ele>1628</ele>
        <time>2021-02-21T04:40:54Z</time>
      </trkpt>
      <trkpt lat="44.48359" lon="6.55019">
        <ele>1628</ele>
        <time>2021-02-21T04:40:55Z</time>
      </trkpt>
      <trkpt lat="44.48358" lon="6.55017">
        <ele>1628</ele>
        <time>2021-02-21T04:40:56Z</time>
      </trkpt>
      <trkpt lat="44.48357" lon="6.55017">
        <ele>1627</ele>
        <time>2021-02-21T04:40:57Z</time>
      </trkpt>
      <trkpt lat="44.48357" lon="6.55018">
        <ele>1627</ele>
        <time>2021-02-21T04:40:58Z</time>
      </trkpt>
      <trkpt lat="44.48356" lon="6.55018">
        <ele>1626</ele>
        <time>2021-02-21T04:40:59Z</time>
      </trkpt>
      <trkpt lat="44.48355" lon="6.55019">
        <ele>1626</ele>
        <time>2021-02-21T04:41:00Z</time>
      </trkpt>
      <trkpt lat="44.48354" lon="6.55019">
        <ele>1625</ele>
        <time>2021-02-21T04:41:01Z</time>
      </trkpt>
      <trkpt lat="44.48353" lon="6.55019">
        <ele>1624</ele>
        <time>2021-02-21T04:41:02Z</time>
      </trkpt>
      <trkpt lat="44.48352" lon="6.55019">
        <ele>1624</ele>
        <time>2021-02-21T04:41:03Z</time>
      </trkpt>
      <trkpt lat="44.48351" lon="6.5502">
        <ele>1624</ele>
        <time>2021-02-21T04:41:04Z</time>
      </trkpt>
      <trkpt lat="44.4835" lon="6.5502">
        <ele>1623</ele>
        <time>2021-02-21T04:41:05Z</time>
      </trkpt>
      <trkpt lat="44.48349" lon="6.5502">
        <ele>1623</ele>
        <time>2021-02-21T04:41:06Z</time>
      </trkpt>
      <trkpt lat="44.48349" lon="6.55021">
        <ele>1622</ele>
        <time>2021-02-21T04:41:07Z</time>
      </trkpt>
      <trkpt lat="44.48348" lon="6.55021">
        <ele>1622</ele>
        <time>2021-02-21T04:41:08Z</time>
      </trkpt>
      <trkpt lat="44.48346" lon="6.55021">
        <ele>1621</ele>
        <time>2021-02-21T04:41:09Z</time>
      </trkpt>
      <trkpt lat="44.48345" lon="6.55022">
        <ele>1621</ele>
        <time>2021-02-21T04:41:10Z</time>
      </trkpt>
      <trkpt lat="44.48344" lon="6.55022">
        <ele>1621</ele>
        <time>2021-02-21T04:41:11Z</time>
      </trkpt>
      <trkpt lat="44.48343" lon="6.55023">
        <ele>1620</ele>
        <time>2021-02-21T04:41:12Z</time>
      </trkpt>
      <trkpt lat="44.48341" lon="6.55024">
        <ele>1620</ele>
        <time>2021-02-21T04:41:13Z</time>
      </trkpt>
      <trkpt lat="44.4834" lon="6.55024">
        <ele>1620</ele>
        <time>2021-02-21T04:41:14Z</time>
      </trkpt>
      <trkpt lat="44.48338" lon="6.55024">
        <ele>1620</ele>
        <time>2021-02-21T04:41:15Z</time>
      </trkpt>
      <trkpt lat="44.48337" lon="6.55024">
        <ele>1620</ele>
        <time>2021-02-21T04:41:16Z</time>
      </trkpt>
      <trkpt lat="44.48336" lon="6.55024">
        <ele>1620</ele>
        <time>2021-02-21T04:41:17Z</time>
      </trkpt>
      <trkpt lat="44.48335" lon="6.55024">
        <ele>1620</ele>
        <time>2021-02-21T04:41:18Z</time>
      </trkpt>
      <trkpt lat="44.48334" lon="6.55024">
        <ele>1620</ele>
        <time>2021-02-21T04:41:19Z</time>
      </trkpt>
      <trkpt lat="44.48333" lon="6.55024">
        <ele>1620</ele>
        <time>2021-02-21T04:41:20Z</time>
      </trkpt>
      <trkpt lat="44.48332" lon="6.55023">
        <ele>1620</ele>
        <time>2021-02-21T04:41:21Z</time>
      </trkpt>
      <trkpt lat="44.4833" lon="6.55023">
        <ele>1620</ele>
        <time>2021-02-21T04:41:22Z</time>
      </trkpt>
      <trkpt lat="44.48329" lon="6.55023">
        <ele>1620</ele>
        <time>2021-02-21T04:41:23Z</time>
      </trkpt>
      <trkpt lat="44.48328" lon="6.55023">
        <ele>1620</ele>
        <time>2021-02-21T04:41:24Z</time>
      </trkpt>
      <trkpt lat="44.48326" lon="6.55024">
        <ele>1620</ele>
        <time>2021-02-21T04:41:25Z</time>
      </trkpt>
      <trkpt lat="44.48325" lon="6.55025">
        <ele>1621</ele>
        <time>2021-02-21T04:41:26Z</time>
      </trkpt>
      <trkpt lat="44.48324" lon="6.55025">
        <ele>1621</ele>
        <time>2021-02-21T04:41:27Z</time>
      </trkpt>
      <trkpt lat="44.48323" lon="6.55026">
        <ele>1621</ele>
        <time>2021-02-21T04:41:28Z</time>
      </trkpt>
      <trkpt lat="44.48322" lon="6.55026">
        <ele>1621</ele>
        <time>2021-02-21T04:41:29Z</time>
      </trkpt>
      <trkpt lat="44.48321" lon="6.55026">
        <ele>1621</ele>
        <time>2021-02-21T04:41:30Z</time>
      </trkpt>
      <trkpt lat="44.48319" lon="6.55026">
        <ele>1621</ele>
        <time>2021-02-21T04:41:31Z</time>
      </trkpt>
      <trkpt lat="44.48318" lon="6.55026">
        <ele>1622</ele>
        <time>2021-02-21T04:41:32Z</time>
      </trkpt>
      <trkpt lat="44.48317" lon="6.55026">
        <ele>1622</ele>
        <time>2021-02-21T04:41:33Z</time>
      </trkpt>
      <trkpt lat="44.48316" lon="6.55026">
        <ele>1622</ele>
        <time>2021-02-21T04:41:34Z</time>
      </trkpt>
      <trkpt lat="44.48314" lon="6.55026">
        <ele>1622</ele>
        <time>2021-02-21T04:41:35Z</time>
      </trkpt>
      <trkpt lat="44.48313" lon="6.55027">
        <ele>1622</ele>
        <time>2021-02-21T04:41:36Z</time>
      </trkpt>
      <trkpt lat="44.48312" lon="6.55027">
        <ele>1622</ele>
        <time>2021-02-21T04:41:37Z</time>
      </trkpt>
      <trkpt lat="44.48311" lon="6.55027">
        <ele>1622</ele>
        <time>2021-02-21T04:41:38Z</time>
      </trkpt>
      <trkpt lat="44.48309" lon="6.55027">
        <ele>1622</ele>
        <time>2021-02-21T04:41:39Z</time>
      </trkpt>
      <trkpt lat="44.48308" lon="6.55028">
        <ele>1622</ele>
        <time>2021-02-21T04:41:40Z</time>
      </trkpt>
      <trkpt lat="44.48307" lon="6.55028">
        <ele>1622</ele>
        <time>2021-02-21T04:41:41Z</time>
      </trkpt>
      <trkpt lat="44.48306" lon="6.55028">
        <ele>1622</ele>
        <time>2021-02-21T04:41:42Z</time>
      </trkpt>
      <trkpt lat="44.48304" lon="6.55028">
        <ele>1622</ele>
        <time>2021-02-21T04:41:43Z</time>
      </trkpt>
      <trkpt lat="44.48303" lon="6.55029">
        <ele>1621</ele>
        <time>2021-02-21T04:41:44Z</time>
      </trkpt>
      <trkpt lat="44.48301" lon="6.5503">
        <ele>1621</ele>
        <time>2021-02-21T04:41:45Z</time>
      </trkpt>
      <trkpt lat="44.483" lon="6.5503">
        <ele>1621</ele>
        <time>2021-02-21T04:41:46Z</time>
      </trkpt>
      <trkpt lat="44.48299" lon="6.5503">
        <ele>1621</ele>
        <time>2021-02-21T04:41:47Z</time>
      </trkpt>
      <trkpt lat="44.48297" lon="6.5503">
        <ele>1621</ele>
        <time>2021-02-21T04:41:48Z</time>
      </trkpt>
      <trkpt lat="44.48295" lon="6.5503">
        <ele>1619</ele>
        <time>2021-02-21T04:41:49Z</time>
      </trkpt>
      <trkpt lat="44.48294" lon="6.55031">
        <ele>1619</ele>
        <time>2021-02-21T04:41:50Z</time>
      </trkpt>
      <trkpt lat="44.48292" lon="6.55031">
        <ele>1618</ele>
        <time>2021-02-21T04:41:51Z</time>
      </trkpt>
      <trkpt lat="44.4829" lon="6.55031">
        <ele>1619</ele>
        <time>2021-02-21T04:41:52Z</time>
      </trkpt>
      <trkpt lat="44.48288" lon="6.55031">
        <ele>1619</ele>
        <time>2021-02-21T04:41:53Z</time>
      </trkpt>
      <trkpt lat="44.48287" lon="6.55032">
        <ele>1619</ele>
        <time>2021-02-21T04:41:54Z</time>
      </trkpt>
      <trkpt lat="44.48286" lon="6.55033">
        <ele>1619</ele>
        <time>2021-02-21T04:41:55Z</time>
      </trkpt>
      <trkpt lat="44.48285" lon="6.55033">
        <ele>1620</ele>
        <time>2021-02-21T04:41:56Z</time>
      </trkpt>
      <trkpt lat="44.48282" lon="6.55032">
        <ele>1620</ele>
        <time>2021-02-21T04:41:57Z</time>
      </trkpt>
      <trkpt lat="44.48281" lon="6.55032">
        <ele>1621</ele>
        <time>2021-02-21T04:41:58Z</time>
      </trkpt>
      <trkpt lat="44.48281" lon="6.55032">
        <ele>1621</ele>
        <time>2021-02-21T04:41:59Z</time>
      </trkpt>
      <trkpt lat="44.48279" lon="6.55033">
        <ele>1622</ele>
        <time>2021-02-21T04:42:00Z</time>
      </trkpt>
      <trkpt lat="44.48278" lon="6.55033">
        <ele>1622</ele>
        <time>2021-02-21T04:42:01Z</time>
      </trkpt>
      <trkpt lat="44.48278" lon="6.55034">
        <ele>1622</ele>
        <time>2021-02-21T04:42:02Z</time>
      </trkpt>
      <trkpt lat="44.48276" lon="6.55034">
        <ele>1622</ele>
        <time>2021-02-21T04:42:03Z</time>
      </trkpt>
      <trkpt lat="44.48276" lon="6.55035">
        <ele>1623</ele>
        <time>2021-02-21T04:42:04Z</time>
      </trkpt>
      <trkpt lat="44.48275" lon="6.55036">
        <ele>1623</ele>
        <time>2021-02-21T04:42:05Z</time>
      </trkpt>
      <trkpt lat="44.48273" lon="6.55036">
        <ele>1623</ele>
        <time>2021-02-21T04:42:06Z</time>
      </trkpt>
      <trkpt lat="44.48272" lon="6.55036">
        <ele>1623</ele>
        <time>2021-02-21T04:42:07Z</time>
      </trkpt>
      <trkpt lat="44.48271" lon="6.55036">
        <ele>1623</ele>
        <time>2021-02-21T04:42:08Z</time>
      </trkpt>
      <trkpt lat="44.4827" lon="6.55038">
        <ele>1623</ele>
        <time>2021-02-21T04:42:09Z</time>
      </trkpt>
      <trkpt lat="44.48269" lon="6.55039">
        <ele>1623</ele>
        <time>2021-02-21T04:42:10Z</time>
      </trkpt>
      <trkpt lat="44.48267" lon="6.55039">
        <ele>1622</ele>
        <time>2021-02-21T04:42:11Z</time>
      </trkpt>
      <trkpt lat="44.48266" lon="6.55039">
        <ele>1622</ele>
        <time>2021-02-21T04:42:12Z</time>
      </trkpt>
      <trkpt lat="44.48265" lon="6.5504">
        <ele>1622</ele>
        <time>2021-02-21T04:42:13Z</time>
      </trkpt>
      <trkpt lat="44.48263" lon="6.55041">
        <ele>1622</ele>
        <time>2021-02-21T04:42:14Z</time>
      </trkpt>
      <trkpt lat="44.48262" lon="6.55041">
        <ele>1621</ele>
        <time>2021-02-21T04:42:15Z</time>
      </trkpt>
      <trkpt lat="44.48261" lon="6.55042">
        <ele>1621</ele>
        <time>2021-02-21T04:42:16Z</time>
      </trkpt>
      <trkpt lat="44.48259" lon="6.55042">
        <ele>1621</ele>
        <time>2021-02-21T04:42:17Z</time>
      </trkpt>
      <trkpt lat="44.48257" lon="6.55043">
        <ele>1621</ele>
        <time>2021-02-21T04:42:18Z</time>
      </trkpt>
      <trkpt lat="44.48256" lon="6.55043">
        <ele>1621</ele>
        <time>2021-02-21T04:42:19Z</time>
      </trkpt>
      <trkpt lat="44.48255" lon="6.55043">
        <ele>1620</ele>
        <time>2021-02-21T04:42:20Z</time>
      </trkpt>
      <trkpt lat="44.48254" lon="6.55044">
        <ele>1620</ele>
        <time>2021-02-21T04:42:21Z</time>
      </trkpt>
      <trkpt lat="44.48253" lon="6.55044">
        <ele>1620</ele>
        <time>2021-02-21T04:42:22Z</time>
      </trkpt>
      <trkpt lat="44.48251" lon="6.55044">
        <ele>1620</ele>
        <time>2021-02-21T04:42:23Z</time>
      </trkpt>
      <trkpt lat="44.4825" lon="6.55044">
        <ele>1620</ele>
        <time>2021-02-21T04:42:24Z</time>
      </trkpt>
      <trkpt lat="44.48249" lon="6.55045">
        <ele>1620</ele>
        <time>2021-02-21T04:42:25Z</time>
      </trkpt>
      <trkpt lat="44.48248" lon="6.55045">
        <ele>1620</ele>
        <time>2021-02-21T04:42:26Z</time>
      </trkpt>
      <trkpt lat="44.48247" lon="6.55044">
        <ele>1620</ele>
        <time>2021-02-21T04:42:27Z</time>
      </trkpt>
      <trkpt lat="44.48246" lon="6.55044">
        <ele>1619</ele>
        <time>2021-02-21T04:42:28Z</time>
      </trkpt>
      <trkpt lat="44.48245" lon="6.55044">
        <ele>1619</ele>
        <time>2021-02-21T04:42:29Z</time>
      </trkpt>
      <trkpt lat="44.48244" lon="6.55045">
        <ele>1619</ele>
        <time>2021-02-21T04:42:30Z</time>
      </trkpt>
      <trkpt lat="44.48243" lon="6.55044">
        <ele>1619</ele>
        <time>2021-02-21T04:42:31Z</time>
      </trkpt>
      <trkpt lat="44.48241" lon="6.55043">
        <ele>1621</ele>
        <time>2021-02-21T04:42:32Z</time>
      </trkpt>
      <trkpt lat="44.48239" lon="6.55043">
        <ele>1622</ele>
        <time>2021-02-21T04:42:33Z</time>
      </trkpt>
      <trkpt lat="44.48237" lon="6.55044">
        <ele>1623</ele>
        <time>2021-02-21T04:42:34Z</time>
      </trkpt>
      <trkpt lat="44.48236" lon="6.55043">
        <ele>1624</ele>
        <time>2021-02-21T04:42:35Z</time>
      </trkpt>
      <trkpt lat="44.48234" lon="6.55043">
        <ele>1624</ele>
        <time>2021-02-21T04:42:36Z</time>
      </trkpt>
      <trkpt lat="44.48233" lon="6.55042">
        <ele>1624</ele>
        <time>2021-02-21T04:42:37Z</time>
      </trkpt>
      <trkpt lat="44.48232" lon="6.55042">
        <ele>1624</ele>
        <time>2021-02-21T04:42:38Z</time>
      </trkpt>
      <trkpt lat="44.4823" lon="6.55041">
        <ele>1624</ele>
        <time>2021-02-21T04:42:39Z</time>
      </trkpt>
      <trkpt lat="44.48228" lon="6.55041">
        <ele>1624</ele>
        <time>2021-02-21T04:42:40Z</time>
      </trkpt>
      <trkpt lat="44.48227" lon="6.55041">
        <ele>1624</ele>
        <time>2021-02-21T04:42:41Z</time>
      </trkpt>
      <trkpt lat="44.48226" lon="6.55041">
        <ele>1624</ele>
        <time>2021-02-21T04:42:42Z</time>
      </trkpt>
      <trkpt lat="44.48224" lon="6.55038">
        <ele>1627</ele>
        <time>2021-02-21T04:42:43Z</time>
      </trkpt>
      <trkpt lat="44.48223" lon="6.55037">
        <ele>1628</ele>
        <time>2021-02-21T04:42:44Z</time>
      </trkpt>
      <trkpt lat="44.48222" lon="6.55038">
        <ele>1628</ele>
        <time>2021-02-21T04:42:45Z</time>
      </trkpt>
      <trkpt lat="44.48221" lon="6.55038">
        <ele>1629</ele>
        <time>2021-02-21T04:42:46Z</time>
      </trkpt>
      <trkpt lat="44.4822" lon="6.55037">
        <ele>1630</ele>
        <time>2021-02-21T04:42:47Z</time>
      </trkpt>
      <trkpt lat="44.48218" lon="6.55037">
        <ele>1630</ele>
        <time>2021-02-21T04:42:48Z</time>
      </trkpt>
      <trkpt lat="44.48217" lon="6.55037">
        <ele>1631</ele>
        <time>2021-02-21T04:42:49Z</time>
      </trkpt>
      <trkpt lat="44.48216" lon="6.55037">
        <ele>1631</ele>
        <time>2021-02-21T04:42:50Z</time>
      </trkpt>
      <trkpt lat="44.48215" lon="6.55037">
        <ele>1631</ele>
        <time>2021-02-21T04:42:51Z</time>
      </trkpt>
      <trkpt lat="44.48214" lon="6.55038">
        <ele>1632</ele>
        <time>2021-02-21T04:42:52Z</time>
      </trkpt>
      <trkpt lat="44.48212" lon="6.55038">
        <ele>1632</ele>
        <time>2021-02-21T04:42:53Z</time>
      </trkpt>
      <trkpt lat="44.48211" lon="6.55039">
        <ele>1632</ele>
        <time>2021-02-21T04:42:54Z</time>
      </trkpt>
      <trkpt lat="44.4821" lon="6.55039">
        <ele>1632</ele>
        <time>2021-02-21T04:42:55Z</time>
      </trkpt>
      <trkpt lat="44.48209" lon="6.5504">
        <ele>1632</ele>
        <time>2021-02-21T04:42:56Z</time>
      </trkpt>
      <trkpt lat="44.48209" lon="6.55042">
        <ele>1631</ele>
        <time>2021-02-21T04:42:57Z</time>
      </trkpt>
      <trkpt lat="44.48208" lon="6.55042">
        <ele>1631</ele>
        <time>2021-02-21T04:42:58Z</time>
      </trkpt>
      <trkpt lat="44.48207" lon="6.55042">
        <ele>1630</ele>
        <time>2021-02-21T04:42:59Z</time>
      </trkpt>
      <trkpt lat="44.48206" lon="6.55042">
        <ele>1629</ele>
        <time>2021-02-21T04:43:00Z</time>
      </trkpt>
      <trkpt lat="44.48205" lon="6.55042">
        <ele>1629</ele>
        <time>2021-02-21T04:43:01Z</time>
      </trkpt>
      <trkpt lat="44.48204" lon="6.55042">
        <ele>1629</ele>
        <time>2021-02-21T04:43:02Z</time>
      </trkpt>
      <trkpt lat="44.48203" lon="6.55042">
        <ele>1629</ele>
        <time>2021-02-21T04:43:03Z</time>
      </trkpt>
      <trkpt lat="44.48202" lon="6.55042">
        <ele>1629</ele>
        <time>2021-02-21T04:43:04Z</time>
      </trkpt>
      <trkpt lat="44.482" lon="6.55039">
        <ele>1629</ele>
        <time>2021-02-21T04:43:05Z</time>
      </trkpt>
      <trkpt lat="44.482" lon="6.55039">
        <ele>1629</ele>
        <time>2021-02-21T04:43:06Z</time>
      </trkpt>
      <trkpt lat="44.48199" lon="6.55039">
        <ele>1629</ele>
        <time>2021-02-21T04:43:07Z</time>
      </trkpt>
      <trkpt lat="44.48197" lon="6.55038">
        <ele>1628</ele>
        <time>2021-02-21T04:43:08Z</time>
      </trkpt>
      <trkpt lat="44.48196" lon="6.55038">
        <ele>1628</ele>
        <time>2021-02-21T04:43:09Z</time>
      </trkpt>
      <trkpt lat="44.48195" lon="6.55037">
        <ele>1628</ele>
        <time>2021-02-21T04:43:10Z</time>
      </trkpt>
      <trkpt lat="44.48194" lon="6.55037">
        <ele>1628</ele>
        <time>2021-02-21T04:43:11Z</time>
      </trkpt>
      <trkpt lat="44.48193" lon="6.55036">
        <ele>1628</ele>
        <time>2021-02-21T04:43:12Z</time>
      </trkpt>
      <trkpt lat="44.48192" lon="6.55036">
        <ele>1628</ele>
        <time>2021-02-21T04:43:13Z</time>
      </trkpt>
      <trkpt lat="44.48191" lon="6.55036">
        <ele>1628</ele>
        <time>2021-02-21T04:43:14Z</time>
      </trkpt>
      <trkpt lat="44.48191" lon="6.55036">
        <ele>1628</ele>
        <time>2021-02-21T04:43:15Z</time>
      </trkpt>
      <trkpt lat="44.48189" lon="6.55036">
        <ele>1628</ele>
        <time>2021-02-21T04:43:16Z</time>
      </trkpt>
      <trkpt lat="44.48188" lon="6.55035">
        <ele>1628</ele>
        <time>2021-02-21T04:43:17Z</time>
      </trkpt>
      <trkpt lat="44.48187" lon="6.55035">
        <ele>1628</ele>
        <time>2021-02-21T04:43:18Z</time>
      </trkpt>
      <trkpt lat="44.48186" lon="6.55035">
        <ele>1628</ele>
        <time>2021-02-21T04:43:19Z</time>
      </trkpt>
      <trkpt lat="44.48185" lon="6.55034">
        <ele>1628</ele>
        <time>2021-02-21T04:43:20Z</time>
      </trkpt>
      <trkpt lat="44.48184" lon="6.55033">
        <ele>1628</ele>
        <time>2021-02-21T04:43:21Z</time>
      </trkpt>
      <trkpt lat="44.48182" lon="6.55033">
        <ele>1628</ele>
        <time>2021-02-21T04:43:22Z</time>
      </trkpt>
      <trkpt lat="44.48181" lon="6.55032">
        <ele>1628</ele>
        <time>2021-02-21T04:43:23Z</time>
      </trkpt>
      <trkpt lat="44.4818" lon="6.55032">
        <ele>1628</ele>
        <time>2021-02-21T04:43:24Z</time>
      </trkpt>
      <trkpt lat="44.48179" lon="6.55031">
        <ele>1628</ele>
        <time>2021-02-21T04:43:25Z</time>
      </trkpt>
      <trkpt lat="44.48178" lon="6.55031">
        <ele>1628</ele>
        <time>2021-02-21T04:43:26Z</time>
      </trkpt>
      <trkpt lat="44.48177" lon="6.55031">
        <ele>1628</ele>
        <time>2021-02-21T04:43:27Z</time>
      </trkpt>
      <trkpt lat="44.48176" lon="6.5503">
        <ele>1628</ele>
        <time>2021-02-21T04:43:28Z</time>
      </trkpt>
      <trkpt lat="44.48175" lon="6.55031">
        <ele>1628</ele>
        <time>2021-02-21T04:43:29Z</time>
      </trkpt>
      <trkpt lat="44.48173" lon="6.55031">
        <ele>1628</ele>
        <time>2021-02-21T04:43:30Z</time>
      </trkpt>
      <trkpt lat="44.48172" lon="6.5503">
        <ele>1628</ele>
        <time>2021-02-21T04:43:31Z</time>
      </trkpt>
      <trkpt lat="44.48171" lon="6.5503">
        <ele>1628</ele>
        <time>2021-02-21T04:43:32Z</time>
      </trkpt>
      <trkpt lat="44.4817" lon="6.5503">
        <ele>1628</ele>
        <time>2021-02-21T04:43:33Z</time>
      </trkpt>
      <trkpt lat="44.48169" lon="6.5503">
        <ele>1629</ele>
        <time>2021-02-21T04:43:34Z</time>
      </trkpt>
      <trkpt lat="44.48168" lon="6.5503">
        <ele>1629</ele>
        <time>2021-02-21T04:43:35Z</time>
      </trkpt>
      <trkpt lat="44.48167" lon="6.5503">
        <ele>1629</ele>
        <time>2021-02-21T04:43:36Z</time>
      </trkpt>
      <trkpt lat="44.48166" lon="6.55031">
        <ele>1628</ele>
        <time>2021-02-21T04:43:37Z</time>
      </trkpt>
      <trkpt lat="44.48165" lon="6.55031">
        <ele>1628</ele>
        <time>2021-02-21T04:43:38Z</time>
      </trkpt>
      <trkpt lat="44.48164" lon="6.55031">
        <ele>1628</ele>
        <time>2021-02-21T04:43:39Z</time>
      </trkpt>
      <trkpt lat="44.48164" lon="6.55031">
        <ele>1628</ele>
        <time>2021-02-21T04:43:40Z</time>
      </trkpt>
      <trkpt lat="44.48163" lon="6.55032">
        <ele>1628</ele>
        <time>2021-02-21T04:43:41Z</time>
      </trkpt>
      <trkpt lat="44.48163" lon="6.55032">
        <ele>1628</ele>
        <time>2021-02-21T04:43:42Z</time>
      </trkpt>
      <trkpt lat="44.48162" lon="6.55032">
        <ele>1628</ele>
        <time>2021-02-21T04:43:43Z</time>
      </trkpt>
      <trkpt lat="44.48162" lon="6.55032">
        <ele>1628</ele>
        <time>2021-02-21T04:43:44Z</time>
      </trkpt>
      <trkpt lat="44.48161" lon="6.55032">
        <ele>1628</ele>
        <time>2021-02-21T04:43:45Z</time>
      </trkpt>
      <trkpt lat="44.4816" lon="6.55031">
        <ele>1628</ele>
        <time>2021-02-21T04:43:46Z</time>
      </trkpt>
      <trkpt lat="44.48159" lon="6.55031">
        <ele>1628</ele>
        <time>2021-02-21T04:43:47Z</time>
      </trkpt>
      <trkpt lat="44.48158" lon="6.5503">
        <ele>1628</ele>
        <time>2021-02-21T04:43:48Z</time>
      </trkpt>
      <trkpt lat="44.48157" lon="6.5503">
        <ele>1628</ele>
        <time>2021-02-21T04:43:49Z</time>
      </trkpt>
      <trkpt lat="44.48156" lon="6.5503">
        <ele>1628</ele>
        <time>2021-02-21T04:43:50Z</time>
      </trkpt>
      <trkpt lat="44.48155" lon="6.5503">
        <ele>1628</ele>
        <time>2021-02-21T04:43:51Z</time>
      </trkpt>
      <trkpt lat="44.48153" lon="6.5503">
        <ele>1628</ele>
        <time>2021-02-21T04:43:52Z</time>
      </trkpt>
      <trkpt lat="44.48152" lon="6.5503">
        <ele>1628</ele>
        <time>2021-02-21T04:43:53Z</time>
      </trkpt>
      <trkpt lat="44.48151" lon="6.55029">
        <ele>1628</ele>
        <time>2021-02-21T04:43:54Z</time>
      </trkpt>
      <trkpt lat="44.4815" lon="6.55029">
        <ele>1628</ele>
        <time>2021-02-21T04:43:55Z</time>
      </trkpt>
      <trkpt lat="44.48148" lon="6.55026">
        <ele>1629</ele>
        <time>2021-02-21T04:43:56Z</time>
      </trkpt>
      <trkpt lat="44.48147" lon="6.55024">
        <ele>1630</ele>
        <time>2021-02-21T04:43:57Z</time>
      </trkpt>
      <trkpt lat="44.48146" lon="6.55024">
        <ele>1630</ele>
        <time>2021-02-21T04:43:58Z</time>
      </trkpt>
      <trkpt lat="44.48145" lon="6.55023">
        <ele>1631</ele>
        <time>2021-02-21T04:43:59Z</time>
      </trkpt>
      <trkpt lat="44.48144" lon="6.55024">
        <ele>1631</ele>
        <time>2021-02-21T04:44:00Z</time>
      </trkpt>
      <trkpt lat="44.48142" lon="6.55024">
        <ele>1631</ele>
        <time>2021-02-21T04:44:01Z</time>
      </trkpt>
      <trkpt lat="44.4814" lon="6.55024">
        <ele>1633</ele>
        <time>2021-02-21T04:44:02Z</time>
      </trkpt>
      <trkpt lat="44.48139" lon="6.55023">
        <ele>1634</ele>
        <time>2021-02-21T04:44:03Z</time>
      </trkpt>
      <trkpt lat="44.48138" lon="6.55024">
        <ele>1634</ele>
        <time>2021-02-21T04:44:04Z</time>
      </trkpt>
      <trkpt lat="44.48137" lon="6.55023">
        <ele>1635</ele>
        <time>2021-02-21T04:44:05Z</time>
      </trkpt>
      <trkpt lat="44.48136" lon="6.55023">
        <ele>1635</ele>
        <time>2021-02-21T04:44:06Z</time>
      </trkpt>
      <trkpt lat="44.48135" lon="6.55024">
        <ele>1635</ele>
        <time>2021-02-21T04:44:07Z</time>
      </trkpt>
      <trkpt lat="44.48134" lon="6.55024">
        <ele>1634</ele>
        <time>2021-02-21T04:44:08Z</time>
      </trkpt>
      <trkpt lat="44.48134" lon="6.55024">
        <ele>1633</ele>
        <time>2021-02-21T04:44:09Z</time>
      </trkpt>
      <trkpt lat="44.48133" lon="6.55025">
        <ele>1632</ele>
        <time>2021-02-21T04:44:10Z</time>
      </trkpt>
      <trkpt lat="44.48132" lon="6.55026">
        <ele>1632</ele>
        <time>2021-02-21T04:44:11Z</time>
      </trkpt>
      <trkpt lat="44.48131" lon="6.55027">
        <ele>1631</ele>
        <time>2021-02-21T04:44:12Z</time>
      </trkpt>
      <trkpt lat="44.4813" lon="6.55027">
        <ele>1630</ele>
        <time>2021-02-21T04:44:13Z</time>
      </trkpt>
      <trkpt lat="44.48129" lon="6.55028">
        <ele>1630</ele>
        <time>2021-02-21T04:44:14Z</time>
      </trkpt>
      <trkpt lat="44.48127" lon="6.55028">
        <ele>1629</ele>
        <time>2021-02-21T04:44:15Z</time>
      </trkpt>
      <trkpt lat="44.48126" lon="6.55029">
        <ele>1628</ele>
        <time>2021-02-21T04:44:16Z</time>
      </trkpt>
      <trkpt lat="44.48125" lon="6.55029">
        <ele>1628</ele>
        <time>2021-02-21T04:44:17Z</time>
      </trkpt>
      <trkpt lat="44.48124" lon="6.5503">
        <ele>1627</ele>
        <time>2021-02-21T04:44:18Z</time>
      </trkpt>
      <trkpt lat="44.48123" lon="6.5503">
        <ele>1627</ele>
        <time>2021-02-21T04:44:19Z</time>
      </trkpt>
      <trkpt lat="44.48122" lon="6.55031">
        <ele>1627</ele>
        <time>2021-02-21T04:44:20Z</time>
      </trkpt>
      <trkpt lat="44.48119" lon="6.55027">
        <ele>1627</ele>
        <time>2021-02-21T04:44:21Z</time>
      </trkpt>
      <trkpt lat="44.48118" lon="6.55028">
        <ele>1627</ele>
        <time>2021-02-21T04:44:22Z</time>
      </trkpt>
      <trkpt lat="44.48118" lon="6.55029">
        <ele>1627</ele>
        <time>2021-02-21T04:44:23Z</time>
      </trkpt>
      <trkpt lat="44.48117" lon="6.5503">
        <ele>1627</ele>
        <time>2021-02-21T04:44:24Z</time>
      </trkpt>
      <trkpt lat="44.48115" lon="6.5503">
        <ele>1626</ele>
        <time>2021-02-21T04:44:25Z</time>
      </trkpt>
      <trkpt lat="44.48114" lon="6.5503">
        <ele>1626</ele>
        <time>2021-02-21T04:44:26Z</time>
      </trkpt>
      <trkpt lat="44.48113" lon="6.5503">
        <ele>1626</ele>
        <time>2021-02-21T04:44:27Z</time>
      </trkpt>
      <trkpt lat="44.48112" lon="6.55031">
        <ele>1626</ele>
        <time>2021-02-21T04:44:28Z</time>
      </trkpt>
      <trkpt lat="44.4811" lon="6.5503">
        <ele>1626</ele>
        <time>2021-02-21T04:44:29Z</time>
      </trkpt>
      <trkpt lat="44.48109" lon="6.5503">
        <ele>1625</ele>
        <time>2021-02-21T04:44:30Z</time>
      </trkpt>
      <trkpt lat="44.48108" lon="6.55029">
        <ele>1625</ele>
        <time>2021-02-21T04:44:31Z</time>
      </trkpt>
      <trkpt lat="44.48107" lon="6.55028">
        <ele>1625</ele>
        <time>2021-02-21T04:44:32Z</time>
      </trkpt>
      <trkpt lat="44.48105" lon="6.55027">
        <ele>1625</ele>
        <time>2021-02-21T04:44:33Z</time>
      </trkpt>
      <trkpt lat="44.48104" lon="6.55027">
        <ele>1625</ele>
        <time>2021-02-21T04:44:34Z</time>
      </trkpt>
      <trkpt lat="44.48103" lon="6.55026">
        <ele>1626</ele>
        <time>2021-02-21T04:44:35Z</time>
      </trkpt>
      <trkpt lat="44.48102" lon="6.55026">
        <ele>1626</ele>
        <time>2021-02-21T04:44:36Z</time>
      </trkpt>
      <trkpt lat="44.48101" lon="6.55025">
        <ele>1626</ele>
        <time>2021-02-21T04:44:37Z</time>
      </trkpt>
      <trkpt lat="44.48099" lon="6.55024">
        <ele>1626</ele>
        <time>2021-02-21T04:44:38Z</time>
      </trkpt>
      <trkpt lat="44.48099" lon="6.55024">
        <ele>1627</ele>
        <time>2021-02-21T04:44:39Z</time>
      </trkpt>
      <trkpt lat="44.48098" lon="6.55024">
        <ele>1627</ele>
        <time>2021-02-21T04:44:40Z</time>
      </trkpt>
      <trkpt lat="44.48097" lon="6.55024">
        <ele>1627</ele>
        <time>2021-02-21T04:44:41Z</time>
      </trkpt>
      <trkpt lat="44.48096" lon="6.55024">
        <ele>1627</ele>
        <time>2021-02-21T04:44:42Z</time>
      </trkpt>
      <trkpt lat="44.48095" lon="6.55024">
        <ele>1627</ele>
        <time>2021-02-21T04:44:43Z</time>
      </trkpt>
      <trkpt lat="44.48094" lon="6.55024">
        <ele>1628</ele>
        <time>2021-02-21T04:44:44Z</time>
      </trkpt>
      <trkpt lat="44.48093" lon="6.55024">
        <ele>1628</ele>
        <time>2021-02-21T04:44:45Z</time>
      </trkpt>
      <trkpt lat="44.48091" lon="6.55021">
        <ele>1630</ele>
        <time>2021-02-21T04:44:46Z</time>
      </trkpt>
      <trkpt lat="44.4809" lon="6.55021">
        <ele>1630</ele>
        <time>2021-02-21T04:44:47Z</time>
      </trkpt>
      <trkpt lat="44.48089" lon="6.5502">
        <ele>1631</ele>
        <time>2021-02-21T04:44:48Z</time>
      </trkpt>
      <trkpt lat="44.48088" lon="6.55019">
        <ele>1632</ele>
        <time>2021-02-21T04:44:49Z</time>
      </trkpt>
      <trkpt lat="44.48087" lon="6.55019">
        <ele>1633</ele>
        <time>2021-02-21T04:44:50Z</time>
      </trkpt>
      <trkpt lat="44.48086" lon="6.55018">
        <ele>1633</ele>
        <time>2021-02-21T04:44:51Z</time>
      </trkpt>
      <trkpt lat="44.48084" lon="6.55017">
        <ele>1633</ele>
        <time>2021-02-21T04:44:52Z</time>
      </trkpt>
      <trkpt lat="44.48083" lon="6.55017">
        <ele>1633</ele>
        <time>2021-02-21T04:44:53Z</time>
      </trkpt>
      <trkpt lat="44.48082" lon="6.55017">
        <ele>1634</ele>
        <time>2021-02-21T04:44:54Z</time>
      </trkpt>
      <trkpt lat="44.4808" lon="6.55017">
        <ele>1634</ele>
        <time>2021-02-21T04:44:55Z</time>
      </trkpt>
      <trkpt lat="44.48079" lon="6.55017">
        <ele>1634</ele>
        <time>2021-02-21T04:44:56Z</time>
      </trkpt>
      <trkpt lat="44.48078" lon="6.55016">
        <ele>1634</ele>
        <time>2021-02-21T04:44:57Z</time>
      </trkpt>
      <trkpt lat="44.48077" lon="6.55016">
        <ele>1634</ele>
        <time>2021-02-21T04:44:58Z</time>
      </trkpt>
      <trkpt lat="44.48076" lon="6.55016">
        <ele>1634</ele>
        <time>2021-02-21T04:44:59Z</time>
      </trkpt>
      <trkpt lat="44.48075" lon="6.55017">
        <ele>1634</ele>
        <time>2021-02-21T04:45:00Z</time>
      </trkpt>
      <trkpt lat="44.48074" lon="6.55017">
        <ele>1634</ele>
        <time>2021-02-21T04:45:01Z</time>
      </trkpt>
      <trkpt lat="44.48073" lon="6.55017">
        <ele>1635</ele>
        <time>2021-02-21T04:45:02Z</time>
      </trkpt>
      <trkpt lat="44.48072" lon="6.55017">
        <ele>1635</ele>
        <time>2021-02-21T04:45:03Z</time>
      </trkpt>
      <trkpt lat="44.48071" lon="6.55017">
        <ele>1635</ele>
        <time>2021-02-21T04:45:04Z</time>
      </trkpt>
      <trkpt lat="44.4807" lon="6.55017">
        <ele>1635</ele>
        <time>2021-02-21T04:45:05Z</time>
      </trkpt>
      <trkpt lat="44.48068" lon="6.55016">
        <ele>1635</ele>
        <time>2021-02-21T04:45:06Z</time>
      </trkpt>
      <trkpt lat="44.48067" lon="6.55016">
        <ele>1635</ele>
        <time>2021-02-21T04:45:07Z</time>
      </trkpt>
      <trkpt lat="44.48066" lon="6.55015">
        <ele>1635</ele>
        <time>2021-02-21T04:45:08Z</time>
      </trkpt>
      <trkpt lat="44.48065" lon="6.55015">
        <ele>1635</ele>
        <time>2021-02-21T04:45:09Z</time>
      </trkpt>
      <trkpt lat="44.48065" lon="6.55015">
        <ele>1635</ele>
        <time>2021-02-21T04:45:10Z</time>
      </trkpt>
      <trkpt lat="44.48064" lon="6.55015">
        <ele>1635</ele>
        <time>2021-02-21T04:45:11Z</time>
      </trkpt>
      <trkpt lat="44.48063" lon="6.55015">
        <ele>1635</ele>
        <time>2021-02-21T04:45:12Z</time>
      </trkpt>
      <trkpt lat="44.48062" lon="6.55015">
        <ele>1635</ele>
        <time>2021-02-21T04:45:13Z</time>
      </trkpt>
      <trkpt lat="44.48061" lon="6.55015">
        <ele>1635</ele>
        <time>2021-02-21T04:45:14Z</time>
      </trkpt>
      <trkpt lat="44.48059" lon="6.55015">
        <ele>1635</ele>
        <time>2021-02-21T04:45:15Z</time>
      </trkpt>
      <trkpt lat="44.48058" lon="6.55015">
        <ele>1635</ele>
        <time>2021-02-21T04:45:16Z</time>
      </trkpt>
      <trkpt lat="44.48056" lon="6.55015">
        <ele>1635</ele>
        <time>2021-02-21T04:45:17Z</time>
      </trkpt>
      <trkpt lat="44.48055" lon="6.55015">
        <ele>1635</ele>
        <time>2021-02-21T04:45:18Z</time>
      </trkpt>
      <trkpt lat="44.48054" lon="6.55015">
        <ele>1635</ele>
        <time>2021-02-21T04:45:19Z</time>
      </trkpt>
      <trkpt lat="44.48052" lon="6.55015">
        <ele>1635</ele>
        <time>2021-02-21T04:45:20Z</time>
      </trkpt>
      <trkpt lat="44.48051" lon="6.55015">
        <ele>1635</ele>
        <time>2021-02-21T04:45:21Z</time>
      </trkpt>
      <trkpt lat="44.4805" lon="6.55015">
        <ele>1635</ele>
        <time>2021-02-21T04:45:22Z</time>
      </trkpt>
      <trkpt lat="44.48049" lon="6.55015">
        <ele>1635</ele>
        <time>2021-02-21T04:45:23Z</time>
      </trkpt>
      <trkpt lat="44.48048" lon="6.55015">
        <ele>1635</ele>
        <time>2021-02-21T04:45:24Z</time>
      </trkpt>
      <trkpt lat="44.48047" lon="6.55015">
        <ele>1635</ele>
        <time>2021-02-21T04:45:25Z</time>
      </trkpt>
      <trkpt lat="44.48046" lon="6.55016">
        <ele>1635</ele>
        <time>2021-02-21T04:45:26Z</time>
      </trkpt>
      <trkpt lat="44.48045" lon="6.55015">
        <ele>1635</ele>
        <time>2021-02-21T04:45:27Z</time>
      </trkpt>
      <trkpt lat="44.48044" lon="6.55015">
        <ele>1635</ele>
        <time>2021-02-21T04:45:28Z</time>
      </trkpt>
      <trkpt lat="44.48043" lon="6.55015">
        <ele>1635</ele>
        <time>2021-02-21T04:45:29Z</time>
      </trkpt>
      <trkpt lat="44.48042" lon="6.55015">
        <ele>1635</ele>
        <time>2021-02-21T04:45:30Z</time>
      </trkpt>
      <trkpt lat="44.48041" lon="6.55015">
        <ele>1635</ele>
        <time>2021-02-21T04:45:31Z</time>
      </trkpt>
      <trkpt lat="44.48039" lon="6.55015">
        <ele>1635</ele>
        <time>2021-02-21T04:45:32Z</time>
      </trkpt>
      <trkpt lat="44.48038" lon="6.55016">
        <ele>1635</ele>
        <time>2021-02-21T04:45:33Z</time>
      </trkpt>
      <trkpt lat="44.48037" lon="6.55016">
        <ele>1635</ele>
        <time>2021-02-21T04:45:34Z</time>
      </trkpt>
      <trkpt lat="44.48036" lon="6.55016">
        <ele>1635</ele>
        <time>2021-02-21T04:45:35Z</time>
      </trkpt>
      <trkpt lat="44.48034" lon="6.55017">
        <ele>1635</ele>
        <time>2021-02-21T04:45:36Z</time>
      </trkpt>
      <trkpt lat="44.48033" lon="6.55017">
        <ele>1635</ele>
        <time>2021-02-21T04:45:37Z</time>
      </trkpt>
      <trkpt lat="44.48032" lon="6.55017">
        <ele>1635</ele>
        <time>2021-02-21T04:45:38Z</time>
      </trkpt>
      <trkpt lat="44.48031" lon="6.55017">
        <ele>1635</ele>
        <time>2021-02-21T04:45:39Z</time>
      </trkpt>
      <trkpt lat="44.4803" lon="6.55017">
        <ele>1635</ele>
        <time>2021-02-21T04:45:40Z</time>
      </trkpt>
      <trkpt lat="44.48029" lon="6.55017">
        <ele>1635</ele>
        <time>2021-02-21T04:45:41Z</time>
      </trkpt>
      <trkpt lat="44.48028" lon="6.55017">
        <ele>1635</ele>
        <time>2021-02-21T04:45:42Z</time>
      </trkpt>
      <trkpt lat="44.48027" lon="6.55017">
        <ele>1635</ele>
        <time>2021-02-21T04:45:43Z</time>
      </trkpt>
      <trkpt lat="44.48026" lon="6.55017">
        <ele>1635</ele>
        <time>2021-02-21T04:45:44Z</time>
      </trkpt>
      <trkpt lat="44.48025" lon="6.55017">
        <ele>1635</ele>
        <time>2021-02-21T04:45:45Z</time>
      </trkpt>
      <trkpt lat="44.48023" lon="6.55017">
        <ele>1635</ele>
        <time>2021-02-21T04:45:46Z</time>
      </trkpt>
      <trkpt lat="44.48023" lon="6.55016">
        <ele>1635</ele>
        <time>2021-02-21T04:45:47Z</time>
      </trkpt>
      <trkpt lat="44.48019" lon="6.5501">
        <ele>1639</ele>
        <time>2021-02-21T04:45:48Z</time>
      </trkpt>
      <trkpt lat="44.48018" lon="6.5501">
        <ele>1640</ele>
        <time>2021-02-21T04:45:49Z</time>
      </trkpt>
      <trkpt lat="44.48017" lon="6.55009">
        <ele>1641</ele>
        <time>2021-02-21T04:45:50Z</time>
      </trkpt>
      <trkpt lat="44.48016" lon="6.55009">
        <ele>1641</ele>
        <time>2021-02-21T04:45:51Z</time>
      </trkpt>
      <trkpt lat="44.48016" lon="6.55008">
        <ele>1642</ele>
        <time>2021-02-21T04:45:52Z</time>
      </trkpt>
      <trkpt lat="44.48014" lon="6.55008">
        <ele>1642</ele>
        <time>2021-02-21T04:45:53Z</time>
      </trkpt>
      <trkpt lat="44.48014" lon="6.55008">
        <ele>1642</ele>
        <time>2021-02-21T04:45:54Z</time>
      </trkpt>
      <trkpt lat="44.48013" lon="6.55006">
        <ele>1642</ele>
        <time>2021-02-21T04:45:55Z</time>
      </trkpt>
      <trkpt lat="44.48013" lon="6.55006">
        <ele>1642</ele>
        <time>2021-02-21T04:45:56Z</time>
      </trkpt>
      <trkpt lat="44.48012" lon="6.55005">
        <ele>1642</ele>
        <time>2021-02-21T04:45:57Z</time>
      </trkpt>
      <trkpt lat="44.48011" lon="6.55005">
        <ele>1642</ele>
        <time>2021-02-21T04:45:58Z</time>
      </trkpt>
      <trkpt lat="44.48011" lon="6.55004">
        <ele>1642</ele>
        <time>2021-02-21T04:45:59Z</time>
      </trkpt>
      <trkpt lat="44.4801" lon="6.55003">
        <ele>1642</ele>
        <time>2021-02-21T04:46:00Z</time>
      </trkpt>
      <trkpt lat="44.48009" lon="6.55003">
        <ele>1642</ele>
        <time>2021-02-21T04:46:01Z</time>
      </trkpt>
      <trkpt lat="44.48008" lon="6.55002">
        <ele>1642</ele>
        <time>2021-02-21T04:46:02Z</time>
      </trkpt>
      <trkpt lat="44.48008" lon="6.55003">
        <ele>1642</ele>
        <time>2021-02-21T04:46:03Z</time>
      </trkpt>
      <trkpt lat="44.48007" lon="6.55002">
        <ele>1642</ele>
        <time>2021-02-21T04:46:04Z</time>
      </trkpt>
      <trkpt lat="44.48006" lon="6.55002">
        <ele>1641</ele>
        <time>2021-02-21T04:46:05Z</time>
      </trkpt>
      <trkpt lat="44.48005" lon="6.55002">
        <ele>1641</ele>
        <time>2021-02-21T04:46:06Z</time>
      </trkpt>
      <trkpt lat="44.48005" lon="6.55002">
        <ele>1641</ele>
        <time>2021-02-21T04:46:07Z</time>
      </trkpt>
      <trkpt lat="44.48004" lon="6.55002">
        <ele>1640</ele>
        <time>2021-02-21T04:46:08Z</time>
      </trkpt>
      <trkpt lat="44.48003" lon="6.55001">
        <ele>1640</ele>
        <time>2021-02-21T04:46:09Z</time>
      </trkpt>
      <trkpt lat="44.48003" lon="6.55001">
        <ele>1640</ele>
        <time>2021-02-21T04:46:10Z</time>
      </trkpt>
      <trkpt lat="44.48002" lon="6.55">
        <ele>1639</ele>
        <time>2021-02-21T04:46:11Z</time>
      </trkpt>
      <trkpt lat="44.48002" lon="6.54999">
        <ele>1638</ele>
        <time>2021-02-21T04:46:12Z</time>
      </trkpt>
      <trkpt lat="44.48001" lon="6.54998">
        <ele>1638</ele>
        <time>2021-02-21T04:46:13Z</time>
      </trkpt>
      <trkpt lat="44.47999" lon="6.54997">
        <ele>1638</ele>
        <time>2021-02-21T04:46:14Z</time>
      </trkpt>
      <trkpt lat="44.47999" lon="6.54996">
        <ele>1638</ele>
        <time>2021-02-21T04:46:15Z</time>
      </trkpt>
      <trkpt lat="44.47998" lon="6.54996">
        <ele>1638</ele>
        <time>2021-02-21T04:46:16Z</time>
      </trkpt>
      <trkpt lat="44.47997" lon="6.54995">
        <ele>1638</ele>
        <time>2021-02-21T04:46:17Z</time>
      </trkpt>
      <trkpt lat="44.47997" lon="6.54995">
        <ele>1638</ele>
        <time>2021-02-21T04:46:18Z</time>
      </trkpt>
      <trkpt lat="44.47996" lon="6.54994">
        <ele>1638</ele>
        <time>2021-02-21T04:46:19Z</time>
      </trkpt>
      <trkpt lat="44.47995" lon="6.54994">
        <ele>1638</ele>
        <time>2021-02-21T04:46:20Z</time>
      </trkpt>
      <trkpt lat="44.47994" lon="6.54993">
        <ele>1638</ele>
        <time>2021-02-21T04:46:21Z</time>
      </trkpt>
      <trkpt lat="44.47993" lon="6.54992">
        <ele>1638</ele>
        <time>2021-02-21T04:46:22Z</time>
      </trkpt>
      <trkpt lat="44.47992" lon="6.5499">
        <ele>1638</ele>
        <time>2021-02-21T04:46:23Z</time>
      </trkpt>
      <trkpt lat="44.47991" lon="6.5499">
        <ele>1638</ele>
        <time>2021-02-21T04:46:24Z</time>
      </trkpt>
      <trkpt lat="44.4799" lon="6.54989">
        <ele>1638</ele>
        <time>2021-02-21T04:46:25Z</time>
      </trkpt>
      <trkpt lat="44.47989" lon="6.54988">
        <ele>1639</ele>
        <time>2021-02-21T04:46:26Z</time>
      </trkpt>
      <trkpt lat="44.47988" lon="6.54987">
        <ele>1639</ele>
        <time>2021-02-21T04:46:27Z</time>
      </trkpt>
      <trkpt lat="44.47987" lon="6.54986">
        <ele>1639</ele>
        <time>2021-02-21T04:46:28Z</time>
      </trkpt>
      <trkpt lat="44.47986" lon="6.54985">
        <ele>1639</ele>
        <time>2021-02-21T04:46:29Z</time>
      </trkpt>
      <trkpt lat="44.47985" lon="6.54984">
        <ele>1639</ele>
        <time>2021-02-21T04:46:30Z</time>
      </trkpt>
      <trkpt lat="44.47985" lon="6.54984">
        <ele>1639</ele>
        <time>2021-02-21T04:46:31Z</time>
      </trkpt>
      <trkpt lat="44.47984" lon="6.54983">
        <ele>1639</ele>
        <time>2021-02-21T04:46:32Z</time>
      </trkpt>
      <trkpt lat="44.47983" lon="6.54982">
        <ele>1639</ele>
        <time>2021-02-21T04:46:33Z</time>
      </trkpt>
      <trkpt lat="44.47982" lon="6.54982">
        <ele>1639</ele>
        <time>2021-02-21T04:46:34Z</time>
      </trkpt>
      <trkpt lat="44.47981" lon="6.54981">
        <ele>1640</ele>
        <time>2021-02-21T04:46:35Z</time>
      </trkpt>
      <trkpt lat="44.4798" lon="6.5498">
        <ele>1640</ele>
        <time>2021-02-21T04:46:36Z</time>
      </trkpt>
      <trkpt lat="44.47979" lon="6.5498">
        <ele>1640</ele>
        <time>2021-02-21T04:46:37Z</time>
      </trkpt>
      <trkpt lat="44.47978" lon="6.5498">
        <ele>1641</ele>
        <time>2021-02-21T04:46:38Z</time>
      </trkpt>
      <trkpt lat="44.47978" lon="6.5498">
        <ele>1641</ele>
        <time>2021-02-21T04:46:39Z</time>
      </trkpt>
      <trkpt lat="44.47977" lon="6.5498">
        <ele>1641</ele>
        <time>2021-02-21T04:46:40Z</time>
      </trkpt>
      <trkpt lat="44.47976" lon="6.5498">
        <ele>1642</ele>
        <time>2021-02-21T04:46:41Z</time>
      </trkpt>
      <trkpt lat="44.47975" lon="6.5498">
        <ele>1642</ele>
        <time>2021-02-21T04:46:42Z</time>
      </trkpt>
      <trkpt lat="44.47975" lon="6.54979">
        <ele>1643</ele>
        <time>2021-02-21T04:46:43Z</time>
      </trkpt>
      <trkpt lat="44.47974" lon="6.54979">
        <ele>1643</ele>
        <time>2021-02-21T04:46:44Z</time>
      </trkpt>
      <trkpt lat="44.47973" lon="6.54979">
        <ele>1643</ele>
        <time>2021-02-21T04:46:45Z</time>
      </trkpt>
      <trkpt lat="44.47972" lon="6.54979">
        <ele>1643</ele>
        <time>2021-02-21T04:46:46Z</time>
      </trkpt>
      <trkpt lat="44.47971" lon="6.5498">
        <ele>1644</ele>
        <time>2021-02-21T04:46:47Z</time>
      </trkpt>
      <trkpt lat="44.4797" lon="6.5498">
        <ele>1644</ele>
        <time>2021-02-21T04:46:48Z</time>
      </trkpt>
      <trkpt lat="44.47969" lon="6.5498">
        <ele>1644</ele>
        <time>2021-02-21T04:46:49Z</time>
      </trkpt>
      <trkpt lat="44.47968" lon="6.54981">
        <ele>1644</ele>
        <time>2021-02-21T04:46:50Z</time>
      </trkpt>
      <trkpt lat="44.47967" lon="6.54981">
        <ele>1645</ele>
        <time>2021-02-21T04:46:51Z</time>
      </trkpt>
      <trkpt lat="44.47966" lon="6.54981">
        <ele>1645</ele>
        <time>2021-02-21T04:46:52Z</time>
      </trkpt>
      <trkpt lat="44.47965" lon="6.54983">
        <ele>1645</ele>
        <time>2021-02-21T04:46:53Z</time>
      </trkpt>
      <trkpt lat="44.47964" lon="6.54983">
        <ele>1645</ele>
        <time>2021-02-21T04:46:54Z</time>
      </trkpt>
      <trkpt lat="44.47964" lon="6.54984">
        <ele>1645</ele>
        <time>2021-02-21T04:46:55Z</time>
      </trkpt>
      <trkpt lat="44.47962" lon="6.54984">
        <ele>1645</ele>
        <time>2021-02-21T04:46:56Z</time>
      </trkpt>
      <trkpt lat="44.47961" lon="6.54984">
        <ele>1645</ele>
        <time>2021-02-21T04:46:57Z</time>
      </trkpt>
      <trkpt lat="44.4796" lon="6.54984">
        <ele>1645</ele>
        <time>2021-02-21T04:46:58Z</time>
      </trkpt>
      <trkpt lat="44.47959" lon="6.54984">
        <ele>1645</ele>
        <time>2021-02-21T04:46:59Z</time>
      </trkpt>
      <trkpt lat="44.47958" lon="6.54983">
        <ele>1645</ele>
        <time>2021-02-21T04:47:00Z</time>
      </trkpt>
      <trkpt lat="44.47958" lon="6.54983">
        <ele>1646</ele>
        <time>2021-02-21T04:47:01Z</time>
      </trkpt>
      <trkpt lat="44.47957" lon="6.54983">
        <ele>1646</ele>
        <time>2021-02-21T04:47:02Z</time>
      </trkpt>
      <trkpt lat="44.47955" lon="6.54982">
        <ele>1646</ele>
        <time>2021-02-21T04:47:03Z</time>
      </trkpt>
      <trkpt lat="44.47954" lon="6.54983">
        <ele>1647</ele>
        <time>2021-02-21T04:47:04Z</time>
      </trkpt>
      <trkpt lat="44.47953" lon="6.54983">
        <ele>1647</ele>
        <time>2021-02-21T04:47:05Z</time>
      </trkpt>
      <trkpt lat="44.47952" lon="6.54983">
        <ele>1647</ele>
        <time>2021-02-21T04:47:06Z</time>
      </trkpt>
      <trkpt lat="44.47951" lon="6.54984">
        <ele>1647</ele>
        <time>2021-02-21T04:47:07Z</time>
      </trkpt>
      <trkpt lat="44.4795" lon="6.54984">
        <ele>1647</ele>
        <time>2021-02-21T04:47:08Z</time>
      </trkpt>
      <trkpt lat="44.47949" lon="6.54984">
        <ele>1647</ele>
        <time>2021-02-21T04:47:09Z</time>
      </trkpt>
      <trkpt lat="44.47949" lon="6.54984">
        <ele>1647</ele>
        <time>2021-02-21T04:47:10Z</time>
      </trkpt>
      <trkpt lat="44.47948" lon="6.54984">
        <ele>1647</ele>
        <time>2021-02-21T04:47:11Z</time>
      </trkpt>
      <trkpt lat="44.47946" lon="6.54983">
        <ele>1648</ele>
        <time>2021-02-21T04:47:12Z</time>
      </trkpt>
      <trkpt lat="44.47945" lon="6.54982">
        <ele>1648</ele>
        <time>2021-02-21T04:47:13Z</time>
      </trkpt>
      <trkpt lat="44.47944" lon="6.54982">
        <ele>1648</ele>
        <time>2021-02-21T04:47:14Z</time>
      </trkpt>
      <trkpt lat="44.47943" lon="6.54983">
        <ele>1648</ele>
        <time>2021-02-21T04:47:15Z</time>
      </trkpt>
      <trkpt lat="44.47942" lon="6.54983">
        <ele>1648</ele>
        <time>2021-02-21T04:47:16Z</time>
      </trkpt>
      <trkpt lat="44.4794" lon="6.54984">
        <ele>1648</ele>
        <time>2021-02-21T04:47:17Z</time>
      </trkpt>
      <trkpt lat="44.47939" lon="6.54983">
        <ele>1648</ele>
        <time>2021-02-21T04:47:18Z</time>
      </trkpt>
      <trkpt lat="44.47939" lon="6.54983">
        <ele>1648</ele>
        <time>2021-02-21T04:47:19Z</time>
      </trkpt>
      <trkpt lat="44.47938" lon="6.54983">
        <ele>1648</ele>
        <time>2021-02-21T04:47:20Z</time>
      </trkpt>
      <trkpt lat="44.47937" lon="6.54983">
        <ele>1648</ele>
        <time>2021-02-21T04:47:21Z</time>
      </trkpt>
      <trkpt lat="44.47936" lon="6.54983">
        <ele>1648</ele>
        <time>2021-02-21T04:47:22Z</time>
      </trkpt>
      <trkpt lat="44.47934" lon="6.54983">
        <ele>1648</ele>
        <time>2021-02-21T04:47:23Z</time>
      </trkpt>
      <trkpt lat="44.47933" lon="6.54983">
        <ele>1648</ele>
        <time>2021-02-21T04:47:24Z</time>
      </trkpt>
      <trkpt lat="44.47932" lon="6.54984">
        <ele>1648</ele>
        <time>2021-02-21T04:47:25Z</time>
      </trkpt>
      <trkpt lat="44.47931" lon="6.54984">
        <ele>1647</ele>
        <time>2021-02-21T04:47:26Z</time>
      </trkpt>
      <trkpt lat="44.4793" lon="6.54985">
        <ele>1647</ele>
        <time>2021-02-21T04:47:27Z</time>
      </trkpt>
      <trkpt lat="44.47929" lon="6.54986">
        <ele>1647</ele>
        <time>2021-02-21T04:47:28Z</time>
      </trkpt>
      <trkpt lat="44.47927" lon="6.54986">
        <ele>1647</ele>
        <time>2021-02-21T04:47:29Z</time>
      </trkpt>
      <trkpt lat="44.47926" lon="6.54986">
        <ele>1647</ele>
        <time>2021-02-21T04:47:30Z</time>
      </trkpt>
      <trkpt lat="44.47924" lon="6.54985">
        <ele>1647</ele>
        <time>2021-02-21T04:47:31Z</time>
      </trkpt>
      <trkpt lat="44.47923" lon="6.54986">
        <ele>1647</ele>
        <time>2021-02-21T04:47:32Z</time>
      </trkpt>
      <trkpt lat="44.47922" lon="6.54985">
        <ele>1647</ele>
        <time>2021-02-21T04:47:33Z</time>
      </trkpt>
      <trkpt lat="44.47921" lon="6.54985">
        <ele>1646</ele>
        <time>2021-02-21T04:47:34Z</time>
      </trkpt>
      <trkpt lat="44.4792" lon="6.54985">
        <ele>1646</ele>
        <time>2021-02-21T04:47:35Z</time>
      </trkpt>
      <trkpt lat="44.47919" lon="6.54984">
        <ele>1646</ele>
        <time>2021-02-21T04:47:36Z</time>
      </trkpt>
      <trkpt lat="44.47917" lon="6.54984">
        <ele>1647</ele>
        <time>2021-02-21T04:47:37Z</time>
      </trkpt>
      <trkpt lat="44.47916" lon="6.54984">
        <ele>1647</ele>
        <time>2021-02-21T04:47:38Z</time>
      </trkpt>
      <trkpt lat="44.47915" lon="6.54984">
        <ele>1647</ele>
        <time>2021-02-21T04:47:39Z</time>
      </trkpt>
      <trkpt lat="44.47914" lon="6.54984">
        <ele>1647</ele>
        <time>2021-02-21T04:47:40Z</time>
      </trkpt>
      <trkpt lat="44.47913" lon="6.54984">
        <ele>1647</ele>
        <time>2021-02-21T04:47:41Z</time>
      </trkpt>
      <trkpt lat="44.47912" lon="6.54985">
        <ele>1647</ele>
        <time>2021-02-21T04:47:42Z</time>
      </trkpt>
      <trkpt lat="44.47911" lon="6.54985">
        <ele>1647</ele>
        <time>2021-02-21T04:47:43Z</time>
      </trkpt>
      <trkpt lat="44.4791" lon="6.54984">
        <ele>1647</ele>
        <time>2021-02-21T04:47:44Z</time>
      </trkpt>
      <trkpt lat="44.47908" lon="6.54984">
        <ele>1647</ele>
        <time>2021-02-21T04:47:45Z</time>
      </trkpt>
      <trkpt lat="44.47907" lon="6.54984">
        <ele>1648</ele>
        <time>2021-02-21T04:47:46Z</time>
      </trkpt>
      <trkpt lat="44.47905" lon="6.54984">
        <ele>1648</ele>
        <time>2021-02-21T04:47:47Z</time>
      </trkpt>
      <trkpt lat="44.47904" lon="6.54983">
        <ele>1648</ele>
        <time>2021-02-21T04:47:48Z</time>
      </trkpt>
      <trkpt lat="44.47903" lon="6.54983">
        <ele>1648</ele>
        <time>2021-02-21T04:47:49Z</time>
      </trkpt>
      <trkpt lat="44.47902" lon="6.54984">
        <ele>1648</ele>
        <time>2021-02-21T04:47:50Z</time>
      </trkpt>
      <trkpt lat="44.47901" lon="6.54984">
        <ele>1648</ele>
        <time>2021-02-21T04:47:51Z</time>
      </trkpt>
      <trkpt lat="44.479" lon="6.54984">
        <ele>1648</ele>
        <time>2021-02-21T04:47:52Z</time>
      </trkpt>
      <trkpt lat="44.47898" lon="6.54984">
        <ele>1649</ele>
        <time>2021-02-21T04:47:53Z</time>
      </trkpt>
      <trkpt lat="44.47898" lon="6.54984">
        <ele>1649</ele>
        <time>2021-02-21T04:47:54Z</time>
      </trkpt>
      <trkpt lat="44.47897" lon="6.54983">
        <ele>1649</ele>
        <time>2021-02-21T04:47:55Z</time>
      </trkpt>
      <trkpt lat="44.47895" lon="6.54984">
        <ele>1649</ele>
        <time>2021-02-21T04:47:56Z</time>
      </trkpt>
      <trkpt lat="44.47894" lon="6.54984">
        <ele>1649</ele>
        <time>2021-02-21T04:47:57Z</time>
      </trkpt>
      <trkpt lat="44.47893" lon="6.54984">
        <ele>1649</ele>
        <time>2021-02-21T04:47:58Z</time>
      </trkpt>
      <trkpt lat="44.47892" lon="6.54984">
        <ele>1649</ele>
        <time>2021-02-21T04:47:59Z</time>
      </trkpt>
      <trkpt lat="44.47891" lon="6.54984">
        <ele>1650</ele>
        <time>2021-02-21T04:48:00Z</time>
      </trkpt>
      <trkpt lat="44.4789" lon="6.54985">
        <ele>1650</ele>
        <time>2021-02-21T04:48:01Z</time>
      </trkpt>
      <trkpt lat="44.47889" lon="6.54984">
        <ele>1650</ele>
        <time>2021-02-21T04:48:02Z</time>
      </trkpt>
      <trkpt lat="44.47888" lon="6.54984">
        <ele>1650</ele>
        <time>2021-02-21T04:48:03Z</time>
      </trkpt>
      <trkpt lat="44.47887" lon="6.54984">
        <ele>1650</ele>
        <time>2021-02-21T04:48:04Z</time>
      </trkpt>
      <trkpt lat="44.47886" lon="6.54983">
        <ele>1650</ele>
        <time>2021-02-21T04:48:05Z</time>
      </trkpt>
      <trkpt lat="44.47885" lon="6.54983">
        <ele>1650</ele>
        <time>2021-02-21T04:48:06Z</time>
      </trkpt>
      <trkpt lat="44.47883" lon="6.54983">
        <ele>1649</ele>
        <time>2021-02-21T04:48:07Z</time>
      </trkpt>
      <trkpt lat="44.47882" lon="6.54982">
        <ele>1649</ele>
        <time>2021-02-21T04:48:08Z</time>
      </trkpt>
      <trkpt lat="44.47881" lon="6.54982">
        <ele>1649</ele>
        <time>2021-02-21T04:48:09Z</time>
      </trkpt>
      <trkpt lat="44.4788" lon="6.54981">
        <ele>1649</ele>
        <time>2021-02-21T04:48:10Z</time>
      </trkpt>
      <trkpt lat="44.47879" lon="6.54981">
        <ele>1649</ele>
        <time>2021-02-21T04:48:11Z</time>
      </trkpt>
      <trkpt lat="44.47878" lon="6.5498">
        <ele>1649</ele>
        <time>2021-02-21T04:48:12Z</time>
      </trkpt>
      <trkpt lat="44.47877" lon="6.5498">
        <ele>1649</ele>
        <time>2021-02-21T04:48:13Z</time>
      </trkpt>
      <trkpt lat="44.47876" lon="6.54981">
        <ele>1649</ele>
        <time>2021-02-21T04:48:14Z</time>
      </trkpt>
      <trkpt lat="44.47875" lon="6.54981">
        <ele>1649</ele>
        <time>2021-02-21T04:48:15Z</time>
      </trkpt>
      <trkpt lat="44.47874" lon="6.54981">
        <ele>1649</ele>
        <time>2021-02-21T04:48:16Z</time>
      </trkpt>
      <trkpt lat="44.47872" lon="6.5498">
        <ele>1649</ele>
        <time>2021-02-21T04:48:17Z</time>
      </trkpt>
      <trkpt lat="44.47871" lon="6.5498">
        <ele>1650</ele>
        <time>2021-02-21T04:48:18Z</time>
      </trkpt>
      <trkpt lat="44.4787" lon="6.5498">
        <ele>1650</ele>
        <time>2021-02-21T04:48:19Z</time>
      </trkpt>
      <trkpt lat="44.47869" lon="6.54979">
        <ele>1650</ele>
        <time>2021-02-21T04:48:20Z</time>
      </trkpt>
      <trkpt lat="44.47868" lon="6.54979">
        <ele>1650</ele>
        <time>2021-02-21T04:48:21Z</time>
      </trkpt>
      <trkpt lat="44.47867" lon="6.54978">
        <ele>1649</ele>
        <time>2021-02-21T04:48:22Z</time>
      </trkpt>
      <trkpt lat="44.47866" lon="6.54978">
        <ele>1649</ele>
        <time>2021-02-21T04:48:23Z</time>
      </trkpt>
      <trkpt lat="44.47865" lon="6.54978">
        <ele>1649</ele>
        <time>2021-02-21T04:48:24Z</time>
      </trkpt>
      <trkpt lat="44.47864" lon="6.54977">
        <ele>1648</ele>
        <time>2021-02-21T04:48:25Z</time>
      </trkpt>
      <trkpt lat="44.47863" lon="6.54977">
        <ele>1648</ele>
        <time>2021-02-21T04:48:26Z</time>
      </trkpt>
      <trkpt lat="44.47862" lon="6.54977">
        <ele>1647</ele>
        <time>2021-02-21T04:48:27Z</time>
      </trkpt>
      <trkpt lat="44.4786" lon="6.54976">
        <ele>1647</ele>
        <time>2021-02-21T04:48:28Z</time>
      </trkpt>
      <trkpt lat="44.47859" lon="6.54975">
        <ele>1647</ele>
        <time>2021-02-21T04:48:29Z</time>
      </trkpt>
      <trkpt lat="44.47858" lon="6.54974">
        <ele>1647</ele>
        <time>2021-02-21T04:48:30Z</time>
      </trkpt>
      <trkpt lat="44.47856" lon="6.54973">
        <ele>1647</ele>
        <time>2021-02-21T04:48:31Z</time>
      </trkpt>
      <trkpt lat="44.47855" lon="6.54973">
        <ele>1646</ele>
        <time>2021-02-21T04:48:32Z</time>
      </trkpt>
      <trkpt lat="44.47854" lon="6.54973">
        <ele>1646</ele>
        <time>2021-02-21T04:48:33Z</time>
      </trkpt>
      <trkpt lat="44.47853" lon="6.54972">
        <ele>1647</ele>
        <time>2021-02-21T04:48:34Z</time>
      </trkpt>
      <trkpt lat="44.47852" lon="6.54972">
        <ele>1646</ele>
        <time>2021-02-21T04:48:35Z</time>
      </trkpt>
      <trkpt lat="44.47851" lon="6.54972">
        <ele>1647</ele>
        <time>2021-02-21T04:48:36Z</time>
      </trkpt>
      <trkpt lat="44.47849" lon="6.54971">
        <ele>1647</ele>
        <time>2021-02-21T04:48:37Z</time>
      </trkpt>
      <trkpt lat="44.47848" lon="6.5497">
        <ele>1647</ele>
        <time>2021-02-21T04:48:38Z</time>
      </trkpt>
      <trkpt lat="44.47847" lon="6.5497">
        <ele>1647</ele>
        <time>2021-02-21T04:48:39Z</time>
      </trkpt>
      <trkpt lat="44.47846" lon="6.54969">
        <ele>1647</ele>
        <time>2021-02-21T04:48:40Z</time>
      </trkpt>
      <trkpt lat="44.47844" lon="6.54969">
        <ele>1646</ele>
        <time>2021-02-21T04:48:41Z</time>
      </trkpt>
      <trkpt lat="44.47843" lon="6.54968">
        <ele>1646</ele>
        <time>2021-02-21T04:48:42Z</time>
      </trkpt>
      <trkpt lat="44.47842" lon="6.54968">
        <ele>1646</ele>
        <time>2021-02-21T04:48:43Z</time>
      </trkpt>
      <trkpt lat="44.47841" lon="6.54967">
        <ele>1646</ele>
        <time>2021-02-21T04:48:44Z</time>
      </trkpt>
      <trkpt lat="44.4784" lon="6.54966">
        <ele>1647</ele>
        <time>2021-02-21T04:48:45Z</time>
      </trkpt>
      <trkpt lat="44.47839" lon="6.54967">
        <ele>1647</ele>
        <time>2021-02-21T04:48:46Z</time>
      </trkpt>
      <trkpt lat="44.47838" lon="6.54966">
        <ele>1647</ele>
        <time>2021-02-21T04:48:47Z</time>
      </trkpt>
      <trkpt lat="44.47837" lon="6.54966">
        <ele>1647</ele>
        <time>2021-02-21T04:48:48Z</time>
      </trkpt>
      <trkpt lat="44.47836" lon="6.54965">
        <ele>1647</ele>
        <time>2021-02-21T04:48:49Z</time>
      </trkpt>
      <trkpt lat="44.47835" lon="6.54965">
        <ele>1647</ele>
        <time>2021-02-21T04:48:50Z</time>
      </trkpt>
      <trkpt lat="44.47834" lon="6.54964">
        <ele>1647</ele>
        <time>2021-02-21T04:48:51Z</time>
      </trkpt>
      <trkpt lat="44.47833" lon="6.54964">
        <ele>1648</ele>
        <time>2021-02-21T04:48:52Z</time>
      </trkpt>
      <trkpt lat="44.47832" lon="6.54964">
        <ele>1648</ele>
        <time>2021-02-21T04:48:53Z</time>
      </trkpt>
      <trkpt lat="44.47831" lon="6.54964">
        <ele>1648</ele>
        <time>2021-02-21T04:48:54Z</time>
      </trkpt>
      <trkpt lat="44.47829" lon="6.54963">
        <ele>1648</ele>
        <time>2021-02-21T04:48:55Z</time>
      </trkpt>
      <trkpt lat="44.47829" lon="6.54963">
        <ele>1649</ele>
        <time>2021-02-21T04:48:56Z</time>
      </trkpt>
      <trkpt lat="44.47828" lon="6.54963">
        <ele>1649</ele>
        <time>2021-02-21T04:48:57Z</time>
      </trkpt>
      <trkpt lat="44.47826" lon="6.54962">
        <ele>1649</ele>
        <time>2021-02-21T04:48:58Z</time>
      </trkpt>
      <trkpt lat="44.47825" lon="6.54962">
        <ele>1649</ele>
        <time>2021-02-21T04:48:59Z</time>
      </trkpt>
      <trkpt lat="44.47824" lon="6.54961">
        <ele>1649</ele>
        <time>2021-02-21T04:49:00Z</time>
      </trkpt>
      <trkpt lat="44.47823" lon="6.5496">
        <ele>1650</ele>
        <time>2021-02-21T04:49:01Z</time>
      </trkpt>
      <trkpt lat="44.47821" lon="6.54959">
        <ele>1650</ele>
        <time>2021-02-21T04:49:02Z</time>
      </trkpt>
      <trkpt lat="44.4782" lon="6.54959">
        <ele>1650</ele>
        <time>2021-02-21T04:49:03Z</time>
      </trkpt>
      <trkpt lat="44.47819" lon="6.54958">
        <ele>1651</ele>
        <time>2021-02-21T04:49:04Z</time>
      </trkpt>
      <trkpt lat="44.47818" lon="6.54958">
        <ele>1651</ele>
        <time>2021-02-21T04:49:05Z</time>
      </trkpt>
      <trkpt lat="44.47817" lon="6.54958">
        <ele>1651</ele>
        <time>2021-02-21T04:49:06Z</time>
      </trkpt>
      <trkpt lat="44.47816" lon="6.54957">
        <ele>1651</ele>
        <time>2021-02-21T04:49:07Z</time>
      </trkpt>
      <trkpt lat="44.47814" lon="6.54956">
        <ele>1651</ele>
        <time>2021-02-21T04:49:08Z</time>
      </trkpt>
      <trkpt lat="44.47813" lon="6.54956">
        <ele>1652</ele>
        <time>2021-02-21T04:49:09Z</time>
      </trkpt>
      <trkpt lat="44.47812" lon="6.54956">
        <ele>1652</ele>
        <time>2021-02-21T04:49:10Z</time>
      </trkpt>
      <trkpt lat="44.47811" lon="6.54955">
        <ele>1652</ele>
        <time>2021-02-21T04:49:11Z</time>
      </trkpt>
      <trkpt lat="44.4781" lon="6.54955">
        <ele>1652</ele>
        <time>2021-02-21T04:49:12Z</time>
      </trkpt>
      <trkpt lat="44.47809" lon="6.54954">
        <ele>1652</ele>
        <time>2021-02-21T04:49:13Z</time>
      </trkpt>
      <trkpt lat="44.47808" lon="6.54954">
        <ele>1652</ele>
        <time>2021-02-21T04:49:14Z</time>
      </trkpt>
      <trkpt lat="44.47807" lon="6.54953">
        <ele>1653</ele>
        <time>2021-02-21T04:49:15Z</time>
      </trkpt>
      <trkpt lat="44.47806" lon="6.54953">
        <ele>1653</ele>
        <time>2021-02-21T04:49:16Z</time>
      </trkpt>
      <trkpt lat="44.47805" lon="6.54952">
        <ele>1653</ele>
        <time>2021-02-21T04:49:17Z</time>
      </trkpt>
      <trkpt lat="44.47803" lon="6.54951">
        <ele>1653</ele>
        <time>2021-02-21T04:49:18Z</time>
      </trkpt>
      <trkpt lat="44.47802" lon="6.54951">
        <ele>1653</ele>
        <time>2021-02-21T04:49:19Z</time>
      </trkpt>
      <trkpt lat="44.47801" lon="6.5495">
        <ele>1654</ele>
        <time>2021-02-21T04:49:20Z</time>
      </trkpt>
      <trkpt lat="44.47801" lon="6.5495">
        <ele>1654</ele>
        <time>2021-02-21T04:49:21Z</time>
      </trkpt>
      <trkpt lat="44.478" lon="6.5495">
        <ele>1654</ele>
        <time>2021-02-21T04:49:22Z</time>
      </trkpt>
      <trkpt lat="44.47799" lon="6.54949">
        <ele>1654</ele>
        <time>2021-02-21T04:49:23Z</time>
      </trkpt>
      <trkpt lat="44.47798" lon="6.54949">
        <ele>1654</ele>
        <time>2021-02-21T04:49:24Z</time>
      </trkpt>
      <trkpt lat="44.47797" lon="6.54949">
        <ele>1654</ele>
        <time>2021-02-21T04:49:25Z</time>
      </trkpt>
      <trkpt lat="44.47796" lon="6.54949">
        <ele>1654</ele>
        <time>2021-02-21T04:49:26Z</time>
      </trkpt>
      <trkpt lat="44.47795" lon="6.54948">
        <ele>1655</ele>
        <time>2021-02-21T04:49:27Z</time>
      </trkpt>
      <trkpt lat="44.47794" lon="6.54948">
        <ele>1655</ele>
        <time>2021-02-21T04:49:28Z</time>
      </trkpt>
      <trkpt lat="44.47793" lon="6.54947">
        <ele>1655</ele>
        <time>2021-02-21T04:49:29Z</time>
      </trkpt>
      <trkpt lat="44.47792" lon="6.54947">
        <ele>1655</ele>
        <time>2021-02-21T04:49:30Z</time>
      </trkpt>
      <trkpt lat="44.47791" lon="6.54946">
        <ele>1655</ele>
        <time>2021-02-21T04:49:31Z</time>
      </trkpt>
      <trkpt lat="44.4779" lon="6.54946">
        <ele>1656</ele>
        <time>2021-02-21T04:49:32Z</time>
      </trkpt>
      <trkpt lat="44.47789" lon="6.54946">
        <ele>1656</ele>
        <time>2021-02-21T04:49:33Z</time>
      </trkpt>
      <trkpt lat="44.47788" lon="6.54946">
        <ele>1656</ele>
        <time>2021-02-21T04:49:34Z</time>
      </trkpt>
      <trkpt lat="44.47787" lon="6.54946">
        <ele>1657</ele>
        <time>2021-02-21T04:49:35Z</time>
      </trkpt>
      <trkpt lat="44.47786" lon="6.54946">
        <ele>1657</ele>
        <time>2021-02-21T04:49:36Z</time>
      </trkpt>
      <trkpt lat="44.47785" lon="6.54947">
        <ele>1657</ele>
        <time>2021-02-21T04:49:37Z</time>
      </trkpt>
      <trkpt lat="44.47784" lon="6.54946">
        <ele>1657</ele>
        <time>2021-02-21T04:49:38Z</time>
      </trkpt>
      <trkpt lat="44.47783" lon="6.54946">
        <ele>1658</ele>
        <time>2021-02-21T04:49:39Z</time>
      </trkpt>
      <trkpt lat="44.47782" lon="6.54946">
        <ele>1658</ele>
        <time>2021-02-21T04:49:40Z</time>
      </trkpt>
      <trkpt lat="44.47781" lon="6.54946">
        <ele>1658</ele>
        <time>2021-02-21T04:49:41Z</time>
      </trkpt>
      <trkpt lat="44.4778" lon="6.54946">
        <ele>1658</ele>
        <time>2021-02-21T04:49:42Z</time>
      </trkpt>
      <trkpt lat="44.47779" lon="6.54947">
        <ele>1659</ele>
        <time>2021-02-21T04:49:43Z</time>
      </trkpt>
      <trkpt lat="44.47779" lon="6.54947">
        <ele>1659</ele>
        <time>2021-02-21T04:49:44Z</time>
      </trkpt>
      <trkpt lat="44.47778" lon="6.54947">
        <ele>1659</ele>
        <time>2021-02-21T04:49:45Z</time>
      </trkpt>
      <trkpt lat="44.47777" lon="6.54947">
        <ele>1659</ele>
        <time>2021-02-21T04:49:46Z</time>
      </trkpt>
      <trkpt lat="44.47775" lon="6.54946">
        <ele>1659</ele>
        <time>2021-02-21T04:49:47Z</time>
      </trkpt>
      <trkpt lat="44.47775" lon="6.54946">
        <ele>1659</ele>
        <time>2021-02-21T04:49:48Z</time>
      </trkpt>
      <trkpt lat="44.47774" lon="6.54946">
        <ele>1660</ele>
        <time>2021-02-21T04:49:49Z</time>
      </trkpt>
      <trkpt lat="44.47773" lon="6.54945">
        <ele>1660</ele>
        <time>2021-02-21T04:49:50Z</time>
      </trkpt>
      <trkpt lat="44.47772" lon="6.54945">
        <ele>1660</ele>
        <time>2021-02-21T04:49:51Z</time>
      </trkpt>
      <trkpt lat="44.47771" lon="6.54945">
        <ele>1660</ele>
        <time>2021-02-21T04:49:52Z</time>
      </trkpt>
      <trkpt lat="44.47769" lon="6.54944">
        <ele>1660</ele>
        <time>2021-02-21T04:49:53Z</time>
      </trkpt>
      <trkpt lat="44.47768" lon="6.54943">
        <ele>1660</ele>
        <time>2021-02-21T04:49:54Z</time>
      </trkpt>
      <trkpt lat="44.47767" lon="6.54943">
        <ele>1660</ele>
        <time>2021-02-21T04:49:55Z</time>
      </trkpt>
      <trkpt lat="44.47766" lon="6.54941">
        <ele>1660</ele>
        <time>2021-02-21T04:49:56Z</time>
      </trkpt>
      <trkpt lat="44.47764" lon="6.54941">
        <ele>1661</ele>
        <time>2021-02-21T04:49:57Z</time>
      </trkpt>
      <trkpt lat="44.47763" lon="6.5494">
        <ele>1661</ele>
        <time>2021-02-21T04:49:58Z</time>
      </trkpt>
      <trkpt lat="44.47762" lon="6.5494">
        <ele>1661</ele>
        <time>2021-02-21T04:49:59Z</time>
      </trkpt>
      <trkpt lat="44.47761" lon="6.54938">
        <ele>1661</ele>
        <time>2021-02-21T04:50:00Z</time>
      </trkpt>
      <trkpt lat="44.4776" lon="6.54938">
        <ele>1662</ele>
        <time>2021-02-21T04:50:01Z</time>
      </trkpt>
      <trkpt lat="44.47759" lon="6.54937">
        <ele>1662</ele>
        <time>2021-02-21T04:50:02Z</time>
      </trkpt>
      <trkpt lat="44.47759" lon="6.54936">
        <ele>1662</ele>
        <time>2021-02-21T04:50:03Z</time>
      </trkpt>
      <trkpt lat="44.47758" lon="6.54936">
        <ele>1662</ele>
        <time>2021-02-21T04:50:04Z</time>
      </trkpt>
      <trkpt lat="44.47757" lon="6.54935">
        <ele>1662</ele>
        <time>2021-02-21T04:50:05Z</time>
      </trkpt>
      <trkpt lat="44.47756" lon="6.54934">
        <ele>1662</ele>
        <time>2021-02-21T04:50:06Z</time>
      </trkpt>
      <trkpt lat="44.47756" lon="6.54934">
        <ele>1662</ele>
        <time>2021-02-21T04:50:07Z</time>
      </trkpt>
      <trkpt lat="44.47755" lon="6.54933">
        <ele>1663</ele>
        <time>2021-02-21T04:50:08Z</time>
      </trkpt>
      <trkpt lat="44.47754" lon="6.54933">
        <ele>1663</ele>
        <time>2021-02-21T04:50:09Z</time>
      </trkpt>
      <trkpt lat="44.47753" lon="6.54932">
        <ele>1663</ele>
        <time>2021-02-21T04:50:10Z</time>
      </trkpt>
      <trkpt lat="44.47753" lon="6.54931">
        <ele>1663</ele>
        <time>2021-02-21T04:50:11Z</time>
      </trkpt>
      <trkpt lat="44.47752" lon="6.5493">
        <ele>1663</ele>
        <time>2021-02-21T04:50:12Z</time>
      </trkpt>
      <trkpt lat="44.47751" lon="6.54929">
        <ele>1663</ele>
        <time>2021-02-21T04:50:13Z</time>
      </trkpt>
      <trkpt lat="44.4775" lon="6.54929">
        <ele>1663</ele>
        <time>2021-02-21T04:50:14Z</time>
      </trkpt>
      <trkpt lat="44.4775" lon="6.54928">
        <ele>1663</ele>
        <time>2021-02-21T04:50:15Z</time>
      </trkpt>
      <trkpt lat="44.47749" lon="6.54928">
        <ele>1663</ele>
        <time>2021-02-21T04:50:16Z</time>
      </trkpt>
      <trkpt lat="44.47748" lon="6.54927">
        <ele>1664</ele>
        <time>2021-02-21T04:50:17Z</time>
      </trkpt>
      <trkpt lat="44.47747" lon="6.54927">
        <ele>1664</ele>
        <time>2021-02-21T04:50:18Z</time>
      </trkpt>
      <trkpt lat="44.47747" lon="6.54926">
        <ele>1664</ele>
        <time>2021-02-21T04:50:19Z</time>
      </trkpt>
      <trkpt lat="44.47746" lon="6.54926">
        <ele>1664</ele>
        <time>2021-02-21T04:50:20Z</time>
      </trkpt>
      <trkpt lat="44.47745" lon="6.54925">
        <ele>1664</ele>
        <time>2021-02-21T04:50:21Z</time>
      </trkpt>
      <trkpt lat="44.47745" lon="6.54924">
        <ele>1664</ele>
        <time>2021-02-21T04:50:22Z</time>
      </trkpt>
      <trkpt lat="44.47744" lon="6.54923">
        <ele>1664</ele>
        <time>2021-02-21T04:50:23Z</time>
      </trkpt>
      <trkpt lat="44.47743" lon="6.54922">
        <ele>1664</ele>
        <time>2021-02-21T04:50:24Z</time>
      </trkpt>
      <trkpt lat="44.47742" lon="6.54922">
        <ele>1664</ele>
        <time>2021-02-21T04:50:25Z</time>
      </trkpt>
      <trkpt lat="44.47742" lon="6.54921">
        <ele>1664</ele>
        <time>2021-02-21T04:50:26Z</time>
      </trkpt>
      <trkpt lat="44.47741" lon="6.54921">
        <ele>1664</ele>
        <time>2021-02-21T04:50:27Z</time>
      </trkpt>
      <trkpt lat="44.47739" lon="6.54919">
        <ele>1664</ele>
        <time>2021-02-21T04:50:28Z</time>
      </trkpt>
      <trkpt lat="44.47738" lon="6.54919">
        <ele>1664</ele>
        <time>2021-02-21T04:50:29Z</time>
      </trkpt>
      <trkpt lat="44.47737" lon="6.54919">
        <ele>1665</ele>
        <time>2021-02-21T04:50:30Z</time>
      </trkpt>
      <trkpt lat="44.47736" lon="6.54919">
        <ele>1665</ele>
        <time>2021-02-21T04:50:31Z</time>
      </trkpt>
      <trkpt lat="44.47735" lon="6.54918">
        <ele>1665</ele>
        <time>2021-02-21T04:50:32Z</time>
      </trkpt>
      <trkpt lat="44.47734" lon="6.54918">
        <ele>1665</ele>
        <time>2021-02-21T04:50:33Z</time>
      </trkpt>
      <trkpt lat="44.47734" lon="6.54917">
        <ele>1664</ele>
        <time>2021-02-21T04:50:34Z</time>
      </trkpt>
      <trkpt lat="44.47733" lon="6.54917">
        <ele>1664</ele>
        <time>2021-02-21T04:50:35Z</time>
      </trkpt>
      <trkpt lat="44.47732" lon="6.54917">
        <ele>1664</ele>
        <time>2021-02-21T04:50:36Z</time>
      </trkpt>
      <trkpt lat="44.47731" lon="6.54916">
        <ele>1663</ele>
        <time>2021-02-21T04:50:37Z</time>
      </trkpt>
      <trkpt lat="44.4773" lon="6.54916">
        <ele>1663</ele>
        <time>2021-02-21T04:50:38Z</time>
      </trkpt>
      <trkpt lat="44.47729" lon="6.54916">
        <ele>1662</ele>
        <time>2021-02-21T04:50:39Z</time>
      </trkpt>
      <trkpt lat="44.47727" lon="6.54916">
        <ele>1662</ele>
        <time>2021-02-21T04:50:40Z</time>
      </trkpt>
      <trkpt lat="44.47726" lon="6.54917">
        <ele>1662</ele>
        <time>2021-02-21T04:50:41Z</time>
      </trkpt>
      <trkpt lat="44.47725" lon="6.54917">
        <ele>1662</ele>
        <time>2021-02-21T04:50:42Z</time>
      </trkpt>
      <trkpt lat="44.47724" lon="6.54917">
        <ele>1662</ele>
        <time>2021-02-21T04:50:43Z</time>
      </trkpt>
      <trkpt lat="44.47722" lon="6.54918">
        <ele>1661</ele>
        <time>2021-02-21T04:50:44Z</time>
      </trkpt>
      <trkpt lat="44.47721" lon="6.54918">
        <ele>1661</ele>
        <time>2021-02-21T04:50:45Z</time>
      </trkpt>
      <trkpt lat="44.47719" lon="6.54918">
        <ele>1662</ele>
        <time>2021-02-21T04:50:46Z</time>
      </trkpt>
      <trkpt lat="44.47718" lon="6.54917">
        <ele>1662</ele>
        <time>2021-02-21T04:50:47Z</time>
      </trkpt>
      <trkpt lat="44.47717" lon="6.54917">
        <ele>1662</ele>
        <time>2021-02-21T04:50:48Z</time>
      </trkpt>
      <trkpt lat="44.47716" lon="6.54916">
        <ele>1662</ele>
        <time>2021-02-21T04:50:49Z</time>
      </trkpt>
      <trkpt lat="44.47715" lon="6.54916">
        <ele>1662</ele>
        <time>2021-02-21T04:50:50Z</time>
      </trkpt>
      <trkpt lat="44.47714" lon="6.54915">
        <ele>1662</ele>
        <time>2021-02-21T04:50:51Z</time>
      </trkpt>
      <trkpt lat="44.47713" lon="6.54915">
        <ele>1662</ele>
        <time>2021-02-21T04:50:52Z</time>
      </trkpt>
      <trkpt lat="44.47711" lon="6.54915">
        <ele>1662</ele>
        <time>2021-02-21T04:50:53Z</time>
      </trkpt>
      <trkpt lat="44.4771" lon="6.54914">
        <ele>1661</ele>
        <time>2021-02-21T04:50:54Z</time>
      </trkpt>
      <trkpt lat="44.47709" lon="6.54913">
        <ele>1661</ele>
        <time>2021-02-21T04:50:55Z</time>
      </trkpt>
      <trkpt lat="44.47708" lon="6.54912">
        <ele>1661</ele>
        <time>2021-02-21T04:50:56Z</time>
      </trkpt>
      <trkpt lat="44.47707" lon="6.54912">
        <ele>1661</ele>
        <time>2021-02-21T04:50:57Z</time>
      </trkpt>
      <trkpt lat="44.47706" lon="6.54912">
        <ele>1661</ele>
        <time>2021-02-21T04:50:58Z</time>
      </trkpt>
      <trkpt lat="44.47705" lon="6.54912">
        <ele>1661</ele>
        <time>2021-02-21T04:50:59Z</time>
      </trkpt>
      <trkpt lat="44.47704" lon="6.54912">
        <ele>1661</ele>
        <time>2021-02-21T04:51:00Z</time>
      </trkpt>
      <trkpt lat="44.47703" lon="6.54912">
        <ele>1661</ele>
        <time>2021-02-21T04:51:01Z</time>
      </trkpt>
      <trkpt lat="44.47702" lon="6.54913">
        <ele>1661</ele>
        <time>2021-02-21T04:51:02Z</time>
      </trkpt>
      <trkpt lat="44.477" lon="6.54913">
        <ele>1661</ele>
        <time>2021-02-21T04:51:03Z</time>
      </trkpt>
      <trkpt lat="44.47699" lon="6.54913">
        <ele>1661</ele>
        <time>2021-02-21T04:51:04Z</time>
      </trkpt>
      <trkpt lat="44.47698" lon="6.54913">
        <ele>1661</ele>
        <time>2021-02-21T04:51:05Z</time>
      </trkpt>
      <trkpt lat="44.47697" lon="6.54913">
        <ele>1661</ele>
        <time>2021-02-21T04:51:06Z</time>
      </trkpt>
      <trkpt lat="44.47696" lon="6.54913">
        <ele>1661</ele>
        <time>2021-02-21T04:51:07Z</time>
      </trkpt>
      <trkpt lat="44.47694" lon="6.54912">
        <ele>1661</ele>
        <time>2021-02-21T04:51:08Z</time>
      </trkpt>
      <trkpt lat="44.47693" lon="6.54912">
        <ele>1661</ele>
        <time>2021-02-21T04:51:09Z</time>
      </trkpt>
      <trkpt lat="44.47691" lon="6.54912">
        <ele>1661</ele>
        <time>2021-02-21T04:51:10Z</time>
      </trkpt>
      <trkpt lat="44.4769" lon="6.54912">
        <ele>1661</ele>
        <time>2021-02-21T04:51:11Z</time>
      </trkpt>
      <trkpt lat="44.47689" lon="6.54912">
        <ele>1661</ele>
        <time>2021-02-21T04:51:12Z</time>
      </trkpt>
      <trkpt lat="44.47687" lon="6.54911">
        <ele>1661</ele>
        <time>2021-02-21T04:51:13Z</time>
      </trkpt>
      <trkpt lat="44.47686" lon="6.54911">
        <ele>1661</ele>
        <time>2021-02-21T04:51:14Z</time>
      </trkpt>
      <trkpt lat="44.47685" lon="6.5491">
        <ele>1661</ele>
        <time>2021-02-21T04:51:15Z</time>
      </trkpt>
      <trkpt lat="44.47683" lon="6.54909">
        <ele>1661</ele>
        <time>2021-02-21T04:51:16Z</time>
      </trkpt>
      <trkpt lat="44.47682" lon="6.54909">
        <ele>1661</ele>
        <time>2021-02-21T04:51:17Z</time>
      </trkpt>
      <trkpt lat="44.4768" lon="6.54907">
        <ele>1661</ele>
        <time>2021-02-21T04:51:18Z</time>
      </trkpt>
      <trkpt lat="44.47679" lon="6.54907">
        <ele>1661</ele>
        <time>2021-02-21T04:51:19Z</time>
      </trkpt>
      <trkpt lat="44.47677" lon="6.54907">
        <ele>1661</ele>
        <time>2021-02-21T04:51:20Z</time>
      </trkpt>
      <trkpt lat="44.47676" lon="6.54907">
        <ele>1662</ele>
        <time>2021-02-21T04:51:21Z</time>
      </trkpt>
      <trkpt lat="44.47675" lon="6.54906">
        <ele>1662</ele>
        <time>2021-02-21T04:51:22Z</time>
      </trkpt>
      <trkpt lat="44.47674" lon="6.54906">
        <ele>1662</ele>
        <time>2021-02-21T04:51:23Z</time>
      </trkpt>
      <trkpt lat="44.47673" lon="6.54906">
        <ele>1662</ele>
        <time>2021-02-21T04:51:24Z</time>
      </trkpt>
      <trkpt lat="44.47672" lon="6.54906">
        <ele>1662</ele>
        <time>2021-02-21T04:51:25Z</time>
      </trkpt>
      <trkpt lat="44.4767" lon="6.54906">
        <ele>1662</ele>
        <time>2021-02-21T04:51:26Z</time>
      </trkpt>
      <trkpt lat="44.47668" lon="6.54906">
        <ele>1662</ele>
        <time>2021-02-21T04:51:27Z</time>
      </trkpt>
      <trkpt lat="44.47667" lon="6.54906">
        <ele>1662</ele>
        <time>2021-02-21T04:51:28Z</time>
      </trkpt>
      <trkpt lat="44.47666" lon="6.54907">
        <ele>1663</ele>
        <time>2021-02-21T04:51:29Z</time>
      </trkpt>
      <trkpt lat="44.47664" lon="6.54907">
        <ele>1663</ele>
        <time>2021-02-21T04:51:30Z</time>
      </trkpt>
      <trkpt lat="44.47663" lon="6.54908">
        <ele>1663</ele>
        <time>2021-02-21T04:51:31Z</time>
      </trkpt>
      <trkpt lat="44.47662" lon="6.54909">
        <ele>1663</ele>
        <time>2021-02-21T04:51:32Z</time>
      </trkpt>
      <trkpt lat="44.47661" lon="6.54909">
        <ele>1663</ele>
        <time>2021-02-21T04:51:33Z</time>
      </trkpt>
      <trkpt lat="44.4766" lon="6.54908">
        <ele>1663</ele>
        <time>2021-02-21T04:51:34Z</time>
      </trkpt>
      <trkpt lat="44.47659" lon="6.54908">
        <ele>1663</ele>
        <time>2021-02-21T04:51:35Z</time>
      </trkpt>
      <trkpt lat="44.47658" lon="6.54907">
        <ele>1663</ele>
        <time>2021-02-21T04:51:36Z</time>
      </trkpt>
      <trkpt lat="44.47657" lon="6.54907">
        <ele>1663</ele>
        <time>2021-02-21T04:51:37Z</time>
      </trkpt>
      <trkpt lat="44.47656" lon="6.54906">
        <ele>1663</ele>
        <time>2021-02-21T04:51:38Z</time>
      </trkpt>
      <trkpt lat="44.47654" lon="6.54905">
        <ele>1663</ele>
        <time>2021-02-21T04:51:39Z</time>
      </trkpt>
      <trkpt lat="44.47653" lon="6.54904">
        <ele>1663</ele>
        <time>2021-02-21T04:51:40Z</time>
      </trkpt>
      <trkpt lat="44.47652" lon="6.54903">
        <ele>1663</ele>
        <time>2021-02-21T04:51:41Z</time>
      </trkpt>
      <trkpt lat="44.47651" lon="6.54903">
        <ele>1663</ele>
        <time>2021-02-21T04:51:42Z</time>
      </trkpt>
      <trkpt lat="44.4765" lon="6.54903">
        <ele>1663</ele>
        <time>2021-02-21T04:51:43Z</time>
      </trkpt>
      <trkpt lat="44.47649" lon="6.54903">
        <ele>1663</ele>
        <time>2021-02-21T04:51:44Z</time>
      </trkpt>
      <trkpt lat="44.47648" lon="6.54902">
        <ele>1663</ele>
        <time>2021-02-21T04:51:45Z</time>
      </trkpt>
      <trkpt lat="44.47647" lon="6.54902">
        <ele>1663</ele>
        <time>2021-02-21T04:51:46Z</time>
      </trkpt>
      <trkpt lat="44.47646" lon="6.54901">
        <ele>1663</ele>
        <time>2021-02-21T04:51:47Z</time>
      </trkpt>
      <trkpt lat="44.47645" lon="6.549">
        <ele>1663</ele>
        <time>2021-02-21T04:51:48Z</time>
      </trkpt>
      <trkpt lat="44.47644" lon="6.54899">
        <ele>1664</ele>
        <time>2021-02-21T04:51:49Z</time>
      </trkpt>
      <trkpt lat="44.47642" lon="6.54898">
        <ele>1664</ele>
        <time>2021-02-21T04:51:50Z</time>
      </trkpt>
      <trkpt lat="44.47641" lon="6.54898">
        <ele>1664</ele>
        <time>2021-02-21T04:51:51Z</time>
      </trkpt>
      <trkpt lat="44.4764" lon="6.54897">
        <ele>1664</ele>
        <time>2021-02-21T04:51:52Z</time>
      </trkpt>
      <trkpt lat="44.47639" lon="6.54896">
        <ele>1664</ele>
        <time>2021-02-21T04:51:53Z</time>
      </trkpt>
      <trkpt lat="44.47637" lon="6.54896">
        <ele>1664</ele>
        <time>2021-02-21T04:51:54Z</time>
      </trkpt>
      <trkpt lat="44.47636" lon="6.54895">
        <ele>1664</ele>
        <time>2021-02-21T04:51:55Z</time>
      </trkpt>
      <trkpt lat="44.47635" lon="6.54895">
        <ele>1664</ele>
        <time>2021-02-21T04:51:56Z</time>
      </trkpt>
      <trkpt lat="44.47634" lon="6.54895">
        <ele>1664</ele>
        <time>2021-02-21T04:51:57Z</time>
      </trkpt>
      <trkpt lat="44.47632" lon="6.54894">
        <ele>1664</ele>
        <time>2021-02-21T04:51:58Z</time>
      </trkpt>
      <trkpt lat="44.47631" lon="6.54893">
        <ele>1664</ele>
        <time>2021-02-21T04:51:59Z</time>
      </trkpt>
      <trkpt lat="44.4763" lon="6.54892">
        <ele>1664</ele>
        <time>2021-02-21T04:52:00Z</time>
      </trkpt>
      <trkpt lat="44.47629" lon="6.54892">
        <ele>1664</ele>
        <time>2021-02-21T04:52:01Z</time>
      </trkpt>
      <trkpt lat="44.47628" lon="6.54891">
        <ele>1664</ele>
        <time>2021-02-21T04:52:02Z</time>
      </trkpt>
      <trkpt lat="44.47627" lon="6.54891">
        <ele>1664</ele>
        <time>2021-02-21T04:52:03Z</time>
      </trkpt>
      <trkpt lat="44.47626" lon="6.5489">
        <ele>1664</ele>
        <time>2021-02-21T04:52:04Z</time>
      </trkpt>
      <trkpt lat="44.47625" lon="6.5489">
        <ele>1664</ele>
        <time>2021-02-21T04:52:05Z</time>
      </trkpt>
      <trkpt lat="44.47623" lon="6.54889">
        <ele>1664</ele>
        <time>2021-02-21T04:52:06Z</time>
      </trkpt>
      <trkpt lat="44.47623" lon="6.54888">
        <ele>1664</ele>
        <time>2021-02-21T04:52:07Z</time>
      </trkpt>
      <trkpt lat="44.47621" lon="6.54887">
        <ele>1664</ele>
        <time>2021-02-21T04:52:08Z</time>
      </trkpt>
      <trkpt lat="44.4762" lon="6.54886">
        <ele>1664</ele>
        <time>2021-02-21T04:52:09Z</time>
      </trkpt>
      <trkpt lat="44.4762" lon="6.54885">
        <ele>1664</ele>
        <time>2021-02-21T04:52:10Z</time>
      </trkpt>
      <trkpt lat="44.47619" lon="6.54885">
        <ele>1664</ele>
        <time>2021-02-21T04:52:11Z</time>
      </trkpt>
      <trkpt lat="44.47618" lon="6.54884">
        <ele>1664</ele>
        <time>2021-02-21T04:52:12Z</time>
      </trkpt>
      <trkpt lat="44.47618" lon="6.54883">
        <ele>1664</ele>
        <time>2021-02-21T04:52:13Z</time>
      </trkpt>
      <trkpt lat="44.47617" lon="6.54883">
        <ele>1664</ele>
        <time>2021-02-21T04:52:14Z</time>
      </trkpt>
      <trkpt lat="44.47615" lon="6.54881">
        <ele>1664</ele>
        <time>2021-02-21T04:52:15Z</time>
      </trkpt>
      <trkpt lat="44.47613" lon="6.5488">
        <ele>1664</ele>
        <time>2021-02-21T04:52:16Z</time>
      </trkpt>
      <trkpt lat="44.47612" lon="6.54879">
        <ele>1664</ele>
        <time>2021-02-21T04:52:17Z</time>
      </trkpt>
      <trkpt lat="44.47611" lon="6.54878">
        <ele>1665</ele>
        <time>2021-02-21T04:52:18Z</time>
      </trkpt>
      <trkpt lat="44.4761" lon="6.54878">
        <ele>1665</ele>
        <time>2021-02-21T04:52:19Z</time>
      </trkpt>
      <trkpt lat="44.47609" lon="6.54877">
        <ele>1665</ele>
        <time>2021-02-21T04:52:20Z</time>
      </trkpt>
      <trkpt lat="44.47609" lon="6.54875">
        <ele>1665</ele>
        <time>2021-02-21T04:52:21Z</time>
      </trkpt>
      <trkpt lat="44.47609" lon="6.54874">
        <ele>1665</ele>
        <time>2021-02-21T04:52:22Z</time>
      </trkpt>
      <trkpt lat="44.47608" lon="6.54873">
        <ele>1665</ele>
        <time>2021-02-21T04:52:23Z</time>
      </trkpt>
      <trkpt lat="44.47607" lon="6.54873">
        <ele>1665</ele>
        <time>2021-02-21T04:52:24Z</time>
      </trkpt>
      <trkpt lat="44.47606" lon="6.54871">
        <ele>1665</ele>
        <time>2021-02-21T04:52:25Z</time>
      </trkpt>
      <trkpt lat="44.47605" lon="6.54871">
        <ele>1665</ele>
        <time>2021-02-21T04:52:26Z</time>
      </trkpt>
      <trkpt lat="44.47604" lon="6.54869">
        <ele>1665</ele>
        <time>2021-02-21T04:52:27Z</time>
      </trkpt>
      <trkpt lat="44.47603" lon="6.54867">
        <ele>1666</ele>
        <time>2021-02-21T04:52:28Z</time>
      </trkpt>
      <trkpt lat="44.47603" lon="6.54867">
        <ele>1667</ele>
        <time>2021-02-21T04:52:29Z</time>
      </trkpt>
      <trkpt lat="44.47602" lon="6.54866">
        <ele>1667</ele>
        <time>2021-02-21T04:52:30Z</time>
      </trkpt>
      <trkpt lat="44.47601" lon="6.54866">
        <ele>1667</ele>
        <time>2021-02-21T04:52:31Z</time>
      </trkpt>
      <trkpt lat="44.476" lon="6.54866">
        <ele>1667</ele>
        <time>2021-02-21T04:52:32Z</time>
      </trkpt>
      <trkpt lat="44.47599" lon="6.54866">
        <ele>1667</ele>
        <time>2021-02-21T04:52:33Z</time>
      </trkpt>
      <trkpt lat="44.47598" lon="6.54866">
        <ele>1667</ele>
        <time>2021-02-21T04:52:34Z</time>
      </trkpt>
      <trkpt lat="44.47597" lon="6.54866">
        <ele>1666</ele>
        <time>2021-02-21T04:52:35Z</time>
      </trkpt>
      <trkpt lat="44.47596" lon="6.54866">
        <ele>1665</ele>
        <time>2021-02-21T04:52:36Z</time>
      </trkpt>
      <trkpt lat="44.47596" lon="6.54866">
        <ele>1665</ele>
        <time>2021-02-21T04:52:37Z</time>
      </trkpt>
      <trkpt lat="44.47595" lon="6.54865">
        <ele>1665</ele>
        <time>2021-02-21T04:52:38Z</time>
      </trkpt>
      <trkpt lat="44.47594" lon="6.54865">
        <ele>1664</ele>
        <time>2021-02-21T04:52:39Z</time>
      </trkpt>
      <trkpt lat="44.47592" lon="6.54864">
        <ele>1663</ele>
        <time>2021-02-21T04:52:40Z</time>
      </trkpt>
      <trkpt lat="44.47591" lon="6.54865">
        <ele>1663</ele>
        <time>2021-02-21T04:52:41Z</time>
      </trkpt>
      <trkpt lat="44.4759" lon="6.54864">
        <ele>1663</ele>
        <time>2021-02-21T04:52:42Z</time>
      </trkpt>
      <trkpt lat="44.47589" lon="6.54863">
        <ele>1662</ele>
        <time>2021-02-21T04:52:43Z</time>
      </trkpt>
      <trkpt lat="44.47587" lon="6.54863">
        <ele>1662</ele>
        <time>2021-02-21T04:52:44Z</time>
      </trkpt>
      <trkpt lat="44.47586" lon="6.54863">
        <ele>1662</ele>
        <time>2021-02-21T04:52:45Z</time>
      </trkpt>
      <trkpt lat="44.47585" lon="6.54862">
        <ele>1661</ele>
        <time>2021-02-21T04:52:46Z</time>
      </trkpt>
      <trkpt lat="44.47583" lon="6.54862">
        <ele>1661</ele>
        <time>2021-02-21T04:52:47Z</time>
      </trkpt>
      <trkpt lat="44.47581" lon="6.54862">
        <ele>1661</ele>
        <time>2021-02-21T04:52:48Z</time>
      </trkpt>
      <trkpt lat="44.4758" lon="6.54861">
        <ele>1661</ele>
        <time>2021-02-21T04:52:49Z</time>
      </trkpt>
      <trkpt lat="44.47579" lon="6.5486">
        <ele>1661</ele>
        <time>2021-02-21T04:52:50Z</time>
      </trkpt>
      <trkpt lat="44.47578" lon="6.5486">
        <ele>1660</ele>
        <time>2021-02-21T04:52:51Z</time>
      </trkpt>
      <trkpt lat="44.47577" lon="6.5486">
        <ele>1660</ele>
        <time>2021-02-21T04:52:52Z</time>
      </trkpt>
      <trkpt lat="44.47576" lon="6.54859">
        <ele>1660</ele>
        <time>2021-02-21T04:52:53Z</time>
      </trkpt>
      <trkpt lat="44.47575" lon="6.54859">
        <ele>1660</ele>
        <time>2021-02-21T04:52:54Z</time>
      </trkpt>
      <trkpt lat="44.47574" lon="6.54859">
        <ele>1660</ele>
        <time>2021-02-21T04:52:55Z</time>
      </trkpt>
      <trkpt lat="44.47572" lon="6.54858">
        <ele>1659</ele>
        <time>2021-02-21T04:52:56Z</time>
      </trkpt>
      <trkpt lat="44.47571" lon="6.54858">
        <ele>1659</ele>
        <time>2021-02-21T04:52:57Z</time>
      </trkpt>
      <trkpt lat="44.4757" lon="6.54857">
        <ele>1659</ele>
        <time>2021-02-21T04:52:58Z</time>
      </trkpt>
      <trkpt lat="44.47569" lon="6.54856">
        <ele>1660</ele>
        <time>2021-02-21T04:52:59Z</time>
      </trkpt>
      <trkpt lat="44.47568" lon="6.54856">
        <ele>1660</ele>
        <time>2021-02-21T04:53:00Z</time>
      </trkpt>
      <trkpt lat="44.47567" lon="6.54855">
        <ele>1660</ele>
        <time>2021-02-21T04:53:01Z</time>
      </trkpt>
      <trkpt lat="44.47565" lon="6.54855">
        <ele>1660</ele>
        <time>2021-02-21T04:53:02Z</time>
      </trkpt>
      <trkpt lat="44.47564" lon="6.54854">
        <ele>1661</ele>
        <time>2021-02-21T04:53:03Z</time>
      </trkpt>
      <trkpt lat="44.47562" lon="6.54853">
        <ele>1661</ele>
        <time>2021-02-21T04:53:04Z</time>
      </trkpt>
      <trkpt lat="44.47561" lon="6.54853">
        <ele>1662</ele>
        <time>2021-02-21T04:53:05Z</time>
      </trkpt>
      <trkpt lat="44.4756" lon="6.54853">
        <ele>1662</ele>
        <time>2021-02-21T04:53:06Z</time>
      </trkpt>
      <trkpt lat="44.47558" lon="6.54853">
        <ele>1662</ele>
        <time>2021-02-21T04:53:07Z</time>
      </trkpt>
      <trkpt lat="44.47557" lon="6.54853">
        <ele>1663</ele>
        <time>2021-02-21T04:53:08Z</time>
      </trkpt>
      <trkpt lat="44.47557" lon="6.54852">
        <ele>1663</ele>
        <time>2021-02-21T04:53:09Z</time>
      </trkpt>
      <trkpt lat="44.47556" lon="6.54851">
        <ele>1664</ele>
        <time>2021-02-21T04:53:10Z</time>
      </trkpt>
      <trkpt lat="44.47555" lon="6.5485">
        <ele>1665</ele>
        <time>2021-02-21T04:53:11Z</time>
      </trkpt>
      <trkpt lat="44.47555" lon="6.5485">
        <ele>1665</ele>
        <time>2021-02-21T04:53:12Z</time>
      </trkpt>
      <trkpt lat="44.47554" lon="6.5485">
        <ele>1666</ele>
        <time>2021-02-21T04:53:13Z</time>
      </trkpt>
      <trkpt lat="44.47553" lon="6.5485">
        <ele>1666</ele>
        <time>2021-02-21T04:53:14Z</time>
      </trkpt>
      <trkpt lat="44.47552" lon="6.5485">
        <ele>1667</ele>
        <time>2021-02-21T04:53:15Z</time>
      </trkpt>
      <trkpt lat="44.47551" lon="6.5485">
        <ele>1667</ele>
        <time>2021-02-21T04:53:16Z</time>
      </trkpt>
      <trkpt lat="44.4755" lon="6.5485">
        <ele>1667</ele>
        <time>2021-02-21T04:53:17Z</time>
      </trkpt>
      <trkpt lat="44.47549" lon="6.54849">
        <ele>1667</ele>
        <time>2021-02-21T04:53:18Z</time>
      </trkpt>
      <trkpt lat="44.47548" lon="6.54848">
        <ele>1667</ele>
        <time>2021-02-21T04:53:19Z</time>
      </trkpt>
      <trkpt lat="44.47546" lon="6.54848">
        <ele>1667</ele>
        <time>2021-02-21T04:53:20Z</time>
      </trkpt>
      <trkpt lat="44.47545" lon="6.54848">
        <ele>1667</ele>
        <time>2021-02-21T04:53:21Z</time>
      </trkpt>
      <trkpt lat="44.47544" lon="6.54848">
        <ele>1667</ele>
        <time>2021-02-21T04:53:22Z</time>
      </trkpt>
      <trkpt lat="44.47543" lon="6.54848">
        <ele>1667</ele>
        <time>2021-02-21T04:53:23Z</time>
      </trkpt>
      <trkpt lat="44.47542" lon="6.54848">
        <ele>1667</ele>
        <time>2021-02-21T04:53:24Z</time>
      </trkpt>
      <trkpt lat="44.47541" lon="6.54848">
        <ele>1667</ele>
        <time>2021-02-21T04:53:25Z</time>
      </trkpt>
      <trkpt lat="44.4754" lon="6.54847">
        <ele>1666</ele>
        <time>2021-02-21T04:53:26Z</time>
      </trkpt>
      <trkpt lat="44.47539" lon="6.54847">
        <ele>1666</ele>
        <time>2021-02-21T04:53:27Z</time>
      </trkpt>
      <trkpt lat="44.47537" lon="6.54846">
        <ele>1666</ele>
        <time>2021-02-21T04:53:28Z</time>
      </trkpt>
      <trkpt lat="44.47536" lon="6.54845">
        <ele>1666</ele>
        <time>2021-02-21T04:53:29Z</time>
      </trkpt>
      <trkpt lat="44.47535" lon="6.54845">
        <ele>1666</ele>
        <time>2021-02-21T04:53:30Z</time>
      </trkpt>
      <trkpt lat="44.47534" lon="6.54845">
        <ele>1666</ele>
        <time>2021-02-21T04:53:31Z</time>
      </trkpt>
      <trkpt lat="44.47531" lon="6.54842">
        <ele>1668</ele>
        <time>2021-02-21T04:53:32Z</time>
      </trkpt>
      <trkpt lat="44.47529" lon="6.54842">
        <ele>1668</ele>
        <time>2021-02-21T04:53:33Z</time>
      </trkpt>
      <trkpt lat="44.47528" lon="6.5484">
        <ele>1669</ele>
        <time>2021-02-21T04:53:34Z</time>
      </trkpt>
      <trkpt lat="44.47526" lon="6.54838">
        <ele>1670</ele>
        <time>2021-02-21T04:53:35Z</time>
      </trkpt>
      <trkpt lat="44.47525" lon="6.54837">
        <ele>1671</ele>
        <time>2021-02-21T04:53:36Z</time>
      </trkpt>
      <trkpt lat="44.47524" lon="6.54837">
        <ele>1671</ele>
        <time>2021-02-21T04:53:37Z</time>
      </trkpt>
      <trkpt lat="44.47523" lon="6.54836">
        <ele>1671</ele>
        <time>2021-02-21T04:53:38Z</time>
      </trkpt>
      <trkpt lat="44.47522" lon="6.54835">
        <ele>1672</ele>
        <time>2021-02-21T04:53:39Z</time>
      </trkpt>
      <trkpt lat="44.47521" lon="6.54835">
        <ele>1672</ele>
        <time>2021-02-21T04:53:40Z</time>
      </trkpt>
      <trkpt lat="44.4752" lon="6.54835">
        <ele>1672</ele>
        <time>2021-02-21T04:53:41Z</time>
      </trkpt>
      <trkpt lat="44.47519" lon="6.54836">
        <ele>1672</ele>
        <time>2021-02-21T04:53:42Z</time>
      </trkpt>
      <trkpt lat="44.47518" lon="6.54836">
        <ele>1673</ele>
        <time>2021-02-21T04:53:43Z</time>
      </trkpt>
      <trkpt lat="44.47517" lon="6.54836">
        <ele>1673</ele>
        <time>2021-02-21T04:53:44Z</time>
      </trkpt>
      <trkpt lat="44.47515" lon="6.54836">
        <ele>1673</ele>
        <time>2021-02-21T04:53:45Z</time>
      </trkpt>
      <trkpt lat="44.47514" lon="6.54836">
        <ele>1673</ele>
        <time>2021-02-21T04:53:46Z</time>
      </trkpt>
      <trkpt lat="44.47513" lon="6.54835">
        <ele>1673</ele>
        <time>2021-02-21T04:53:47Z</time>
      </trkpt>
      <trkpt lat="44.47512" lon="6.54835">
        <ele>1673</ele>
        <time>2021-02-21T04:53:48Z</time>
      </trkpt>
      <trkpt lat="44.47511" lon="6.54835">
        <ele>1674</ele>
        <time>2021-02-21T04:53:49Z</time>
      </trkpt>
      <trkpt lat="44.47509" lon="6.54835">
        <ele>1674</ele>
        <time>2021-02-21T04:53:50Z</time>
      </trkpt>
      <trkpt lat="44.47509" lon="6.54835">
        <ele>1674</ele>
        <time>2021-02-21T04:53:51Z</time>
      </trkpt>
      <trkpt lat="44.47508" lon="6.54835">
        <ele>1674</ele>
        <time>2021-02-21T04:53:52Z</time>
      </trkpt>
      <trkpt lat="44.47507" lon="6.54835">
        <ele>1675</ele>
        <time>2021-02-21T04:53:53Z</time>
      </trkpt>
      <trkpt lat="44.47506" lon="6.54835">
        <ele>1675</ele>
        <time>2021-02-21T04:53:54Z</time>
      </trkpt>
      <trkpt lat="44.47505" lon="6.54835">
        <ele>1675</ele>
        <time>2021-02-21T04:53:55Z</time>
      </trkpt>
      <trkpt lat="44.47504" lon="6.54834">
        <ele>1675</ele>
        <time>2021-02-21T04:53:56Z</time>
      </trkpt>
      <trkpt lat="44.47503" lon="6.54835">
        <ele>1676</ele>
        <time>2021-02-21T04:53:57Z</time>
      </trkpt>
      <trkpt lat="44.47502" lon="6.54835">
        <ele>1676</ele>
        <time>2021-02-21T04:53:58Z</time>
      </trkpt>
      <trkpt lat="44.475" lon="6.54835">
        <ele>1676</ele>
        <time>2021-02-21T04:53:59Z</time>
      </trkpt>
      <trkpt lat="44.47499" lon="6.54835">
        <ele>1676</ele>
        <time>2021-02-21T04:54:00Z</time>
      </trkpt>
      <trkpt lat="44.47497" lon="6.54835">
        <ele>1676</ele>
        <time>2021-02-21T04:54:01Z</time>
      </trkpt>
      <trkpt lat="44.47496" lon="6.54835">
        <ele>1677</ele>
        <time>2021-02-21T04:54:02Z</time>
      </trkpt>
      <trkpt lat="44.47494" lon="6.54834">
        <ele>1677</ele>
        <time>2021-02-21T04:54:03Z</time>
      </trkpt>
      <trkpt lat="44.47493" lon="6.54834">
        <ele>1677</ele>
        <time>2021-02-21T04:54:04Z</time>
      </trkpt>
      <trkpt lat="44.47491" lon="6.54834">
        <ele>1677</ele>
        <time>2021-02-21T04:54:05Z</time>
      </trkpt>
      <trkpt lat="44.4749" lon="6.54834">
        <ele>1677</ele>
        <time>2021-02-21T04:54:06Z</time>
      </trkpt>
      <trkpt lat="44.47488" lon="6.54833">
        <ele>1677</ele>
        <time>2021-02-21T04:54:07Z</time>
      </trkpt>
      <trkpt lat="44.47487" lon="6.54833">
        <ele>1677</ele>
        <time>2021-02-21T04:54:08Z</time>
      </trkpt>
      <trkpt lat="44.47486" lon="6.54833">
        <ele>1678</ele>
        <time>2021-02-21T04:54:09Z</time>
      </trkpt>
      <trkpt lat="44.47485" lon="6.54833">
        <ele>1678</ele>
        <time>2021-02-21T04:54:10Z</time>
      </trkpt>
      <trkpt lat="44.47484" lon="6.54833">
        <ele>1677</ele>
        <time>2021-02-21T04:54:11Z</time>
      </trkpt>
      <trkpt lat="44.47483" lon="6.54833">
        <ele>1677</ele>
        <time>2021-02-21T04:54:12Z</time>
      </trkpt>
      <trkpt lat="44.47482" lon="6.54832">
        <ele>1677</ele>
        <time>2021-02-21T04:54:13Z</time>
      </trkpt>
      <trkpt lat="44.4748" lon="6.54832">
        <ele>1677</ele>
        <time>2021-02-21T04:54:14Z</time>
      </trkpt>
      <trkpt lat="44.47479" lon="6.54833">
        <ele>1678</ele>
        <time>2021-02-21T04:54:15Z</time>
      </trkpt>
      <trkpt lat="44.47478" lon="6.54833">
        <ele>1677</ele>
        <time>2021-02-21T04:54:16Z</time>
      </trkpt>
      <trkpt lat="44.47478" lon="6.54833">
        <ele>1677</ele>
        <time>2021-02-21T04:54:17Z</time>
      </trkpt>
      <trkpt lat="44.47477" lon="6.54834">
        <ele>1677</ele>
        <time>2021-02-21T04:54:18Z</time>
      </trkpt>
      <trkpt lat="44.47476" lon="6.54834">
        <ele>1677</ele>
        <time>2021-02-21T04:54:19Z</time>
      </trkpt>
      <trkpt lat="44.47475" lon="6.54834">
        <ele>1677</ele>
        <time>2021-02-21T04:54:20Z</time>
      </trkpt>
      <trkpt lat="44.47473" lon="6.54834">
        <ele>1677</ele>
        <time>2021-02-21T04:54:21Z</time>
      </trkpt>
      <trkpt lat="44.47469" lon="6.54829">
        <ele>1678</ele>
        <time>2021-02-21T04:54:22Z</time>
      </trkpt>
      <trkpt lat="44.47468" lon="6.54829">
        <ele>1678</ele>
        <time>2021-02-21T04:54:23Z</time>
      </trkpt>
      <trkpt lat="44.47467" lon="6.54829">
        <ele>1678</ele>
        <time>2021-02-21T04:54:24Z</time>
      </trkpt>
      <trkpt lat="44.47466" lon="6.54829">
        <ele>1678</ele>
        <time>2021-02-21T04:54:25Z</time>
      </trkpt>
      <trkpt lat="44.47464" lon="6.54829">
        <ele>1678</ele>
        <time>2021-02-21T04:54:26Z</time>
      </trkpt>
      <trkpt lat="44.47463" lon="6.54829">
        <ele>1678</ele>
        <time>2021-02-21T04:54:27Z</time>
      </trkpt>
      <trkpt lat="44.47462" lon="6.5483">
        <ele>1678</ele>
        <time>2021-02-21T04:54:28Z</time>
      </trkpt>
      <trkpt lat="44.47461" lon="6.5483">
        <ele>1678</ele>
        <time>2021-02-21T04:54:29Z</time>
      </trkpt>
      <trkpt lat="44.4746" lon="6.54831">
        <ele>1677</ele>
        <time>2021-02-21T04:54:30Z</time>
      </trkpt>
      <trkpt lat="44.47459" lon="6.54831">
        <ele>1677</ele>
        <time>2021-02-21T04:54:31Z</time>
      </trkpt>
      <trkpt lat="44.47459" lon="6.54831">
        <ele>1676</ele>
        <time>2021-02-21T04:54:32Z</time>
      </trkpt>
      <trkpt lat="44.47458" lon="6.54831">
        <ele>1676</ele>
        <time>2021-02-21T04:54:33Z</time>
      </trkpt>
      <trkpt lat="44.47457" lon="6.5483">
        <ele>1673</ele>
        <time>2021-02-21T04:54:34Z</time>
      </trkpt>
      <trkpt lat="44.47456" lon="6.54829">
        <ele>1672</ele>
        <time>2021-02-21T04:54:35Z</time>
      </trkpt>
      <trkpt lat="44.47455" lon="6.54829">
        <ele>1672</ele>
        <time>2021-02-21T04:54:36Z</time>
      </trkpt>
      <trkpt lat="44.47455" lon="6.54829">
        <ele>1671</ele>
        <time>2021-02-21T04:54:37Z</time>
      </trkpt>
      <trkpt lat="44.47453" lon="6.54828">
        <ele>1669</ele>
        <time>2021-02-21T04:54:38Z</time>
      </trkpt>
      <trkpt lat="44.47452" lon="6.54826">
        <ele>1668</ele>
        <time>2021-02-21T04:54:39Z</time>
      </trkpt>
      <trkpt lat="44.47448" lon="6.54821">
        <ele>1671</ele>
        <time>2021-02-21T04:54:40Z</time>
      </trkpt>
      <trkpt lat="44.47447" lon="6.5482">
        <ele>1672</ele>
        <time>2021-02-21T04:54:41Z</time>
      </trkpt>
      <trkpt lat="44.47447" lon="6.54815">
        <ele>1672</ele>
        <time>2021-02-21T04:54:42Z</time>
      </trkpt>
      <trkpt lat="44.47446" lon="6.54811">
        <ele>1672</ele>
        <time>2021-02-21T04:54:43Z</time>
      </trkpt>
      <trkpt lat="44.47445" lon="6.5481">
        <ele>1672</ele>
        <time>2021-02-21T04:54:44Z</time>
      </trkpt>
      <trkpt lat="44.47444" lon="6.54809">
        <ele>1672</ele>
        <time>2021-02-21T04:54:45Z</time>
      </trkpt>
      <trkpt lat="44.47443" lon="6.54807">
        <ele>1672</ele>
        <time>2021-02-21T04:54:46Z</time>
      </trkpt>
      <trkpt lat="44.47442" lon="6.54804">
        <ele>1673</ele>
        <time>2021-02-21T04:54:47Z</time>
      </trkpt>
      <trkpt lat="44.47441" lon="6.54803">
        <ele>1674</ele>
        <time>2021-02-21T04:54:48Z</time>
      </trkpt>
      <trkpt lat="44.47441" lon="6.54801">
        <ele>1674</ele>
        <time>2021-02-21T04:54:49Z</time>
      </trkpt>
      <trkpt lat="44.4744" lon="6.548">
        <ele>1674</ele>
        <time>2021-02-21T04:54:50Z</time>
      </trkpt>
      <trkpt lat="44.47439" lon="6.54799">
        <ele>1674</ele>
        <time>2021-02-21T04:54:51Z</time>
      </trkpt>
      <trkpt lat="44.47438" lon="6.54799">
        <ele>1674</ele>
        <time>2021-02-21T04:54:52Z</time>
      </trkpt>
      <trkpt lat="44.47438" lon="6.54798">
        <ele>1675</ele>
        <time>2021-02-21T04:54:53Z</time>
      </trkpt>
      <trkpt lat="44.47437" lon="6.54798">
        <ele>1675</ele>
        <time>2021-02-21T04:54:54Z</time>
      </trkpt>
      <trkpt lat="44.47436" lon="6.54797">
        <ele>1675</ele>
        <time>2021-02-21T04:54:55Z</time>
      </trkpt>
      <trkpt lat="44.47436" lon="6.54797">
        <ele>1675</ele>
        <time>2021-02-21T04:54:56Z</time>
      </trkpt>
      <trkpt lat="44.47435" lon="6.54797">
        <ele>1675</ele>
        <time>2021-02-21T04:54:57Z</time>
      </trkpt>
      <trkpt lat="44.47435" lon="6.54797">
        <ele>1675</ele>
        <time>2021-02-21T04:54:58Z</time>
      </trkpt>
      <trkpt lat="44.47434" lon="6.54796">
        <ele>1675</ele>
        <time>2021-02-21T04:54:59Z</time>
      </trkpt>
      <trkpt lat="44.47433" lon="6.54796">
        <ele>1675</ele>
        <time>2021-02-21T04:55:00Z</time>
      </trkpt>
      <trkpt lat="44.47432" lon="6.54797">
        <ele>1676</ele>
        <time>2021-02-21T04:55:01Z</time>
      </trkpt>
      <trkpt lat="44.47431" lon="6.54798">
        <ele>1676</ele>
        <time>2021-02-21T04:55:02Z</time>
      </trkpt>
      <trkpt lat="44.4743" lon="6.54798">
        <ele>1676</ele>
        <time>2021-02-21T04:55:03Z</time>
      </trkpt>
      <trkpt lat="44.47429" lon="6.54798">
        <ele>1677</ele>
        <time>2021-02-21T04:55:04Z</time>
      </trkpt>
      <trkpt lat="44.47428" lon="6.54797">
        <ele>1677</ele>
        <time>2021-02-21T04:55:05Z</time>
      </trkpt>
      <trkpt lat="44.47427" lon="6.54797">
        <ele>1677</ele>
        <time>2021-02-21T04:55:06Z</time>
      </trkpt>
      <trkpt lat="44.47426" lon="6.54795">
        <ele>1676</ele>
        <time>2021-02-21T04:55:07Z</time>
      </trkpt>
      <trkpt lat="44.47426" lon="6.54794">
        <ele>1676</ele>
        <time>2021-02-21T04:55:08Z</time>
      </trkpt>
      <trkpt lat="44.47425" lon="6.54793">
        <ele>1676</ele>
        <time>2021-02-21T04:55:09Z</time>
      </trkpt>
      <trkpt lat="44.47424" lon="6.54793">
        <ele>1676</ele>
        <time>2021-02-21T04:55:10Z</time>
      </trkpt>
      <trkpt lat="44.47422" lon="6.54792">
        <ele>1676</ele>
        <time>2021-02-21T04:55:11Z</time>
      </trkpt>
      <trkpt lat="44.47421" lon="6.54793">
        <ele>1676</ele>
        <time>2021-02-21T04:55:12Z</time>
      </trkpt>
      <trkpt lat="44.4742" lon="6.54794">
        <ele>1676</ele>
        <time>2021-02-21T04:55:13Z</time>
      </trkpt>
      <trkpt lat="44.47419" lon="6.54794">
        <ele>1676</ele>
        <time>2021-02-21T04:55:14Z</time>
      </trkpt>
      <trkpt lat="44.47418" lon="6.54795">
        <ele>1677</ele>
        <time>2021-02-21T04:55:15Z</time>
      </trkpt>
      <trkpt lat="44.47417" lon="6.54796">
        <ele>1677</ele>
        <time>2021-02-21T04:55:16Z</time>
      </trkpt>
      <trkpt lat="44.47417" lon="6.54796">
        <ele>1677</ele>
        <time>2021-02-21T04:55:17Z</time>
      </trkpt>
      <trkpt lat="44.47416" lon="6.54797">
        <ele>1677</ele>
        <time>2021-02-21T04:55:18Z</time>
      </trkpt>
      <trkpt lat="44.47415" lon="6.54799">
        <ele>1677</ele>
        <time>2021-02-21T04:55:19Z</time>
      </trkpt>
      <trkpt lat="44.47414" lon="6.548">
        <ele>1677</ele>
        <time>2021-02-21T04:55:20Z</time>
      </trkpt>
      <trkpt lat="44.47413" lon="6.548">
        <ele>1677</ele>
        <time>2021-02-21T04:55:21Z</time>
      </trkpt>
      <trkpt lat="44.47412" lon="6.54801">
        <ele>1677</ele>
        <time>2021-02-21T04:55:22Z</time>
      </trkpt>
      <trkpt lat="44.47411" lon="6.54801">
        <ele>1677</ele>
        <time>2021-02-21T04:55:23Z</time>
      </trkpt>
      <trkpt lat="44.47409" lon="6.548">
        <ele>1677</ele>
        <time>2021-02-21T04:55:24Z</time>
      </trkpt>
      <trkpt lat="44.47407" lon="6.54801">
        <ele>1677</ele>
        <time>2021-02-21T04:55:25Z</time>
      </trkpt>
      <trkpt lat="44.47406" lon="6.54801">
        <ele>1677</ele>
        <time>2021-02-21T04:55:26Z</time>
      </trkpt>
      <trkpt lat="44.47405" lon="6.548">
        <ele>1677</ele>
        <time>2021-02-21T04:55:27Z</time>
      </trkpt>
      <trkpt lat="44.47404" lon="6.548">
        <ele>1677</ele>
        <time>2021-02-21T04:55:28Z</time>
      </trkpt>
      <trkpt lat="44.47403" lon="6.548">
        <ele>1677</ele>
        <time>2021-02-21T04:55:29Z</time>
      </trkpt>
      <trkpt lat="44.47401" lon="6.54799">
        <ele>1677</ele>
        <time>2021-02-21T04:55:30Z</time>
      </trkpt>
      <trkpt lat="44.474" lon="6.548">
        <ele>1677</ele>
        <time>2021-02-21T04:55:31Z</time>
      </trkpt>
      <trkpt lat="44.47399" lon="6.548">
        <ele>1677</ele>
        <time>2021-02-21T04:55:32Z</time>
      </trkpt>
      <trkpt lat="44.47398" lon="6.54801">
        <ele>1677</ele>
        <time>2021-02-21T04:55:33Z</time>
      </trkpt>
      <trkpt lat="44.47397" lon="6.54801">
        <ele>1677</ele>
        <time>2021-02-21T04:55:34Z</time>
      </trkpt>
      <trkpt lat="44.47396" lon="6.54801">
        <ele>1677</ele>
        <time>2021-02-21T04:55:35Z</time>
      </trkpt>
      <trkpt lat="44.47394" lon="6.548">
        <ele>1677</ele>
        <time>2021-02-21T04:55:36Z</time>
      </trkpt>
      <trkpt lat="44.47392" lon="6.54801">
        <ele>1677</ele>
        <time>2021-02-21T04:55:37Z</time>
      </trkpt>
      <trkpt lat="44.47391" lon="6.548">
        <ele>1677</ele>
        <time>2021-02-21T04:55:38Z</time>
      </trkpt>
      <trkpt lat="44.47389" lon="6.548">
        <ele>1677</ele>
        <time>2021-02-21T04:55:39Z</time>
      </trkpt>
      <trkpt lat="44.47388" lon="6.54801">
        <ele>1677</ele>
        <time>2021-02-21T04:55:40Z</time>
      </trkpt>
      <trkpt lat="44.47387" lon="6.548">
        <ele>1677</ele>
        <time>2021-02-21T04:55:41Z</time>
      </trkpt>
      <trkpt lat="44.47385" lon="6.548">
        <ele>1677</ele>
        <time>2021-02-21T04:55:42Z</time>
      </trkpt>
      <trkpt lat="44.47384" lon="6.548">
        <ele>1677</ele>
        <time>2021-02-21T04:55:43Z</time>
      </trkpt>
      <trkpt lat="44.47383" lon="6.548">
        <ele>1677</ele>
        <time>2021-02-21T04:55:44Z</time>
      </trkpt>
      <trkpt lat="44.47382" lon="6.54799">
        <ele>1677</ele>
        <time>2021-02-21T04:55:45Z</time>
      </trkpt>
      <trkpt lat="44.47381" lon="6.54799">
        <ele>1678</ele>
        <time>2021-02-21T04:55:46Z</time>
      </trkpt>
      <trkpt lat="44.47379" lon="6.54799">
        <ele>1677</ele>
        <time>2021-02-21T04:55:47Z</time>
      </trkpt>
      <trkpt lat="44.47378" lon="6.54799">
        <ele>1677</ele>
        <time>2021-02-21T04:55:48Z</time>
      </trkpt>
      <trkpt lat="44.47377" lon="6.54799">
        <ele>1677</ele>
        <time>2021-02-21T04:55:49Z</time>
      </trkpt>
      <trkpt lat="44.47376" lon="6.54799">
        <ele>1678</ele>
        <time>2021-02-21T04:55:50Z</time>
      </trkpt>
      <trkpt lat="44.47374" lon="6.54798">
        <ele>1678</ele>
        <time>2021-02-21T04:55:51Z</time>
      </trkpt>
      <trkpt lat="44.47373" lon="6.54797">
        <ele>1678</ele>
        <time>2021-02-21T04:55:52Z</time>
      </trkpt>
      <trkpt lat="44.47372" lon="6.54797">
        <ele>1678</ele>
        <time>2021-02-21T04:55:53Z</time>
      </trkpt>
      <trkpt lat="44.47371" lon="6.54797">
        <ele>1678</ele>
        <time>2021-02-21T04:55:54Z</time>
      </trkpt>
      <trkpt lat="44.4737" lon="6.54797">
        <ele>1678</ele>
        <time>2021-02-21T04:55:55Z</time>
      </trkpt>
      <trkpt lat="44.47369" lon="6.54797">
        <ele>1678</ele>
        <time>2021-02-21T04:55:56Z</time>
      </trkpt>
      <trkpt lat="44.47368" lon="6.54797">
        <ele>1679</ele>
        <time>2021-02-21T04:55:57Z</time>
      </trkpt>
      <trkpt lat="44.47367" lon="6.54797">
        <ele>1679</ele>
        <time>2021-02-21T04:55:58Z</time>
      </trkpt>
      <trkpt lat="44.47366" lon="6.54797">
        <ele>1679</ele>
        <time>2021-02-21T04:55:59Z</time>
      </trkpt>
      <trkpt lat="44.47366" lon="6.54798">
        <ele>1679</ele>
        <time>2021-02-21T04:56:00Z</time>
      </trkpt>
      <trkpt lat="44.47365" lon="6.54799">
        <ele>1679</ele>
        <time>2021-02-21T04:56:01Z</time>
      </trkpt>
      <trkpt lat="44.47364" lon="6.54799">
        <ele>1679</ele>
        <time>2021-02-21T04:56:02Z</time>
      </trkpt>
      <trkpt lat="44.47363" lon="6.54799">
        <ele>1679</ele>
        <time>2021-02-21T04:56:03Z</time>
      </trkpt>
      <trkpt lat="44.47363" lon="6.548">
        <ele>1678</ele>
        <time>2021-02-21T04:56:04Z</time>
      </trkpt>
      <trkpt lat="44.47362" lon="6.54799">
        <ele>1678</ele>
        <time>2021-02-21T04:56:05Z</time>
      </trkpt>
      <trkpt lat="44.47361" lon="6.54799">
        <ele>1678</ele>
        <time>2021-02-21T04:56:06Z</time>
      </trkpt>
      <trkpt lat="44.4736" lon="6.54799">
        <ele>1678</ele>
        <time>2021-02-21T04:56:07Z</time>
      </trkpt>
      <trkpt lat="44.47359" lon="6.54798">
        <ele>1678</ele>
        <time>2021-02-21T04:56:08Z</time>
      </trkpt>
      <trkpt lat="44.47359" lon="6.54798">
        <ele>1678</ele>
        <time>2021-02-21T04:56:09Z</time>
      </trkpt>
      <trkpt lat="44.47358" lon="6.54797">
        <ele>1678</ele>
        <time>2021-02-21T04:56:10Z</time>
      </trkpt>
      <trkpt lat="44.47358" lon="6.54797">
        <ele>1678</ele>
        <time>2021-02-21T04:56:11Z</time>
      </trkpt>
      <trkpt lat="44.47357" lon="6.54796">
        <ele>1677</ele>
        <time>2021-02-21T04:56:12Z</time>
      </trkpt>
      <trkpt lat="44.47356" lon="6.54796">
        <ele>1677</ele>
        <time>2021-02-21T04:56:13Z</time>
      </trkpt>
      <trkpt lat="44.47355" lon="6.54795">
        <ele>1677</ele>
        <time>2021-02-21T04:56:14Z</time>
      </trkpt>
      <trkpt lat="44.47353" lon="6.54794">
        <ele>1677</ele>
        <time>2021-02-21T04:56:15Z</time>
      </trkpt>
      <trkpt lat="44.47352" lon="6.54794">
        <ele>1677</ele>
        <time>2021-02-21T04:56:16Z</time>
      </trkpt>
      <trkpt lat="44.47351" lon="6.54793">
        <ele>1677</ele>
        <time>2021-02-21T04:56:17Z</time>
      </trkpt>
      <trkpt lat="44.4735" lon="6.54793">
        <ele>1677</ele>
        <time>2021-02-21T04:56:18Z</time>
      </trkpt>
      <trkpt lat="44.47349" lon="6.54793">
        <ele>1677</ele>
        <time>2021-02-21T04:56:19Z</time>
      </trkpt>
      <trkpt lat="44.47348" lon="6.54793">
        <ele>1677</ele>
        <time>2021-02-21T04:56:20Z</time>
      </trkpt>
      <trkpt lat="44.47347" lon="6.54792">
        <ele>1677</ele>
        <time>2021-02-21T04:56:21Z</time>
      </trkpt>
      <trkpt lat="44.47345" lon="6.54792">
        <ele>1677</ele>
        <time>2021-02-21T04:56:22Z</time>
      </trkpt>
      <trkpt lat="44.47344" lon="6.54791">
        <ele>1677</ele>
        <time>2021-02-21T04:56:23Z</time>
      </trkpt>
      <trkpt lat="44.47344" lon="6.54791">
        <ele>1677</ele>
        <time>2021-02-21T04:56:24Z</time>
      </trkpt>
      <trkpt lat="44.47343" lon="6.54791">
        <ele>1677</ele>
        <time>2021-02-21T04:56:25Z</time>
      </trkpt>
      <trkpt lat="44.47342" lon="6.54791">
        <ele>1678</ele>
        <time>2021-02-21T04:56:26Z</time>
      </trkpt>
      <trkpt lat="44.47341" lon="6.5479">
        <ele>1678</ele>
        <time>2021-02-21T04:56:27Z</time>
      </trkpt>
      <trkpt lat="44.4734" lon="6.5479">
        <ele>1678</ele>
        <time>2021-02-21T04:56:28Z</time>
      </trkpt>
      <trkpt lat="44.47339" lon="6.5479">
        <ele>1678</ele>
        <time>2021-02-21T04:56:29Z</time>
      </trkpt>
      <trkpt lat="44.47338" lon="6.54789">
        <ele>1678</ele>
        <time>2021-02-21T04:56:30Z</time>
      </trkpt>
      <trkpt lat="44.47337" lon="6.54788">
        <ele>1678</ele>
        <time>2021-02-21T04:56:31Z</time>
      </trkpt>
      <trkpt lat="44.47336" lon="6.54787">
        <ele>1678</ele>
        <time>2021-02-21T04:56:32Z</time>
      </trkpt>
      <trkpt lat="44.47335" lon="6.54787">
        <ele>1679</ele>
        <time>2021-02-21T04:56:33Z</time>
      </trkpt>
      <trkpt lat="44.47334" lon="6.54786">
        <ele>1679</ele>
        <time>2021-02-21T04:56:34Z</time>
      </trkpt>
      <trkpt lat="44.47333" lon="6.54784">
        <ele>1679</ele>
        <time>2021-02-21T04:56:35Z</time>
      </trkpt>
      <trkpt lat="44.47332" lon="6.54783">
        <ele>1679</ele>
        <time>2021-02-21T04:56:36Z</time>
      </trkpt>
      <trkpt lat="44.47331" lon="6.54782">
        <ele>1679</ele>
        <time>2021-02-21T04:56:37Z</time>
      </trkpt>
      <trkpt lat="44.47329" lon="6.54779">
        <ele>1680</ele>
        <time>2021-02-21T04:56:38Z</time>
      </trkpt>
      <trkpt lat="44.47328" lon="6.54777">
        <ele>1680</ele>
        <time>2021-02-21T04:56:39Z</time>
      </trkpt>
      <trkpt lat="44.47327" lon="6.54775">
        <ele>1680</ele>
        <time>2021-02-21T04:56:40Z</time>
      </trkpt>
      <trkpt lat="44.47326" lon="6.54775">
        <ele>1681</ele>
        <time>2021-02-21T04:56:41Z</time>
      </trkpt>
      <trkpt lat="44.47326" lon="6.54774">
        <ele>1681</ele>
        <time>2021-02-21T04:56:42Z</time>
      </trkpt>
      <trkpt lat="44.47325" lon="6.54774">
        <ele>1681</ele>
        <time>2021-02-21T04:56:43Z</time>
      </trkpt>
      <trkpt lat="44.47325" lon="6.54774">
        <ele>1681</ele>
        <time>2021-02-21T04:56:44Z</time>
      </trkpt>
      <trkpt lat="44.47324" lon="6.54773">
        <ele>1681</ele>
        <time>2021-02-21T04:56:45Z</time>
      </trkpt>
      <trkpt lat="44.47323" lon="6.54773">
        <ele>1681</ele>
        <time>2021-02-21T04:56:46Z</time>
      </trkpt>
      <trkpt lat="44.47323" lon="6.54772">
        <ele>1681</ele>
        <time>2021-02-21T04:56:47Z</time>
      </trkpt>
      <trkpt lat="44.47322" lon="6.54772">
        <ele>1681</ele>
        <time>2021-02-21T04:56:48Z</time>
      </trkpt>
      <trkpt lat="44.47322" lon="6.54771">
        <ele>1681</ele>
        <time>2021-02-21T04:56:49Z</time>
      </trkpt>
      <trkpt lat="44.47321" lon="6.54771">
        <ele>1681</ele>
        <time>2021-02-21T04:56:50Z</time>
      </trkpt>
      <trkpt lat="44.47321" lon="6.5477">
        <ele>1681</ele>
        <time>2021-02-21T04:56:51Z</time>
      </trkpt>
      <trkpt lat="44.4732" lon="6.54769">
        <ele>1681</ele>
        <time>2021-02-21T04:56:52Z</time>
      </trkpt>
      <trkpt lat="44.47319" lon="6.54768">
        <ele>1681</ele>
        <time>2021-02-21T04:56:53Z</time>
      </trkpt>
      <trkpt lat="44.47318" lon="6.54767">
        <ele>1681</ele>
        <time>2021-02-21T04:56:54Z</time>
      </trkpt>
      <trkpt lat="44.47318" lon="6.54765">
        <ele>1681</ele>
        <time>2021-02-21T04:56:55Z</time>
      </trkpt>
      <trkpt lat="44.47317" lon="6.54764">
        <ele>1681</ele>
        <time>2021-02-21T04:56:56Z</time>
      </trkpt>
      <trkpt lat="44.47316" lon="6.54763">
        <ele>1681</ele>
        <time>2021-02-21T04:56:57Z</time>
      </trkpt>
      <trkpt lat="44.47315" lon="6.54761">
        <ele>1681</ele>
        <time>2021-02-21T04:56:58Z</time>
      </trkpt>
      <trkpt lat="44.47315" lon="6.54761">
        <ele>1681</ele>
        <time>2021-02-21T04:56:59Z</time>
      </trkpt>
      <trkpt lat="44.47314" lon="6.5476">
        <ele>1682</ele>
        <time>2021-02-21T04:57:00Z</time>
      </trkpt>
      <trkpt lat="44.47313" lon="6.54759">
        <ele>1682</ele>
        <time>2021-02-21T04:57:01Z</time>
      </trkpt>
      <trkpt lat="44.47312" lon="6.54758">
        <ele>1682</ele>
        <time>2021-02-21T04:57:02Z</time>
      </trkpt>
      <trkpt lat="44.47311" lon="6.54758">
        <ele>1682</ele>
        <time>2021-02-21T04:57:03Z</time>
      </trkpt>
      <trkpt lat="44.4731" lon="6.54756">
        <ele>1683</ele>
        <time>2021-02-21T04:57:04Z</time>
      </trkpt>
      <trkpt lat="44.47309" lon="6.54756">
        <ele>1683</ele>
        <time>2021-02-21T04:57:05Z</time>
      </trkpt>
      <trkpt lat="44.47308" lon="6.54755">
        <ele>1683</ele>
        <time>2021-02-21T04:57:06Z</time>
      </trkpt>
      <trkpt lat="44.47308" lon="6.54755">
        <ele>1683</ele>
        <time>2021-02-21T04:57:07Z</time>
      </trkpt>
      <trkpt lat="44.47307" lon="6.54754">
        <ele>1683</ele>
        <time>2021-02-21T04:57:08Z</time>
      </trkpt>
      <trkpt lat="44.47306" lon="6.54753">
        <ele>1684</ele>
        <time>2021-02-21T04:57:09Z</time>
      </trkpt>
      <trkpt lat="44.47305" lon="6.54753">
        <ele>1684</ele>
        <time>2021-02-21T04:57:10Z</time>
      </trkpt>
      <trkpt lat="44.47304" lon="6.54753">
        <ele>1684</ele>
        <time>2021-02-21T04:57:11Z</time>
      </trkpt>
      <trkpt lat="44.47303" lon="6.54753">
        <ele>1684</ele>
        <time>2021-02-21T04:57:12Z</time>
      </trkpt>
      <trkpt lat="44.47303" lon="6.54752">
        <ele>1685</ele>
        <time>2021-02-21T04:57:13Z</time>
      </trkpt>
      <trkpt lat="44.47302" lon="6.54752">
        <ele>1685</ele>
        <time>2021-02-21T04:57:14Z</time>
      </trkpt>
      <trkpt lat="44.47301" lon="6.54751">
        <ele>1685</ele>
        <time>2021-02-21T04:57:15Z</time>
      </trkpt>
      <trkpt lat="44.473" lon="6.54751">
        <ele>1685</ele>
        <time>2021-02-21T04:57:16Z</time>
      </trkpt>
      <trkpt lat="44.47299" lon="6.5475">
        <ele>1686</ele>
        <time>2021-02-21T04:57:17Z</time>
      </trkpt>
      <trkpt lat="44.47298" lon="6.5475">
        <ele>1686</ele>
        <time>2021-02-21T04:57:18Z</time>
      </trkpt>
      <trkpt lat="44.47298" lon="6.5475">
        <ele>1686</ele>
        <time>2021-02-21T04:57:19Z</time>
      </trkpt>
      <trkpt lat="44.47297" lon="6.54749">
        <ele>1687</ele>
        <time>2021-02-21T04:57:20Z</time>
      </trkpt>
      <trkpt lat="44.47296" lon="6.54749">
        <ele>1687</ele>
        <time>2021-02-21T04:57:21Z</time>
      </trkpt>
      <trkpt lat="44.47296" lon="6.54747">
        <ele>1688</ele>
        <time>2021-02-21T04:57:22Z</time>
      </trkpt>
      <trkpt lat="44.47295" lon="6.54747">
        <ele>1688</ele>
        <time>2021-02-21T04:57:23Z</time>
      </trkpt>
      <trkpt lat="44.47294" lon="6.54746">
        <ele>1688</ele>
        <time>2021-02-21T04:57:24Z</time>
      </trkpt>
      <trkpt lat="44.47294" lon="6.54746">
        <ele>1688</ele>
        <time>2021-02-21T04:57:25Z</time>
      </trkpt>
      <trkpt lat="44.47293" lon="6.54746">
        <ele>1689</ele>
        <time>2021-02-21T04:57:26Z</time>
      </trkpt>
      <trkpt lat="44.47293" lon="6.54746">
        <ele>1689</ele>
        <time>2021-02-21T04:57:27Z</time>
      </trkpt>
      <trkpt lat="44.47292" lon="6.54745">
        <ele>1690</ele>
        <time>2021-02-21T04:57:28Z</time>
      </trkpt>
      <trkpt lat="44.47291" lon="6.54745">
        <ele>1690</ele>
        <time>2021-02-21T04:57:29Z</time>
      </trkpt>
      <trkpt lat="44.4729" lon="6.54745">
        <ele>1691</ele>
        <time>2021-02-21T04:57:30Z</time>
      </trkpt>
      <trkpt lat="44.4729" lon="6.54744">
        <ele>1691</ele>
        <time>2021-02-21T04:57:31Z</time>
      </trkpt>
      <trkpt lat="44.47289" lon="6.54744">
        <ele>1691</ele>
        <time>2021-02-21T04:57:32Z</time>
      </trkpt>
      <trkpt lat="44.47289" lon="6.54743">
        <ele>1691</ele>
        <time>2021-02-21T04:57:33Z</time>
      </trkpt>
      <trkpt lat="44.47288" lon="6.54743">
        <ele>1691</ele>
        <time>2021-02-21T04:57:34Z</time>
      </trkpt>
      <trkpt lat="44.47287" lon="6.54743">
        <ele>1692</ele>
        <time>2021-02-21T04:57:35Z</time>
      </trkpt>
      <trkpt lat="44.47286" lon="6.54742">
        <ele>1692</ele>
        <time>2021-02-21T04:57:36Z</time>
      </trkpt>
      <trkpt lat="44.47285" lon="6.54742">
        <ele>1692</ele>
        <time>2021-02-21T04:57:37Z</time>
      </trkpt>
      <trkpt lat="44.47285" lon="6.54742">
        <ele>1692</ele>
        <time>2021-02-21T04:57:38Z</time>
      </trkpt>
      <trkpt lat="44.47284" lon="6.54742">
        <ele>1692</ele>
        <time>2021-02-21T04:57:39Z</time>
      </trkpt>
      <trkpt lat="44.47283" lon="6.54741">
        <ele>1692</ele>
        <time>2021-02-21T04:57:40Z</time>
      </trkpt>
      <trkpt lat="44.47282" lon="6.54742">
        <ele>1692</ele>
        <time>2021-02-21T04:57:41Z</time>
      </trkpt>
      <trkpt lat="44.47281" lon="6.54742">
        <ele>1693</ele>
        <time>2021-02-21T04:57:42Z</time>
      </trkpt>
      <trkpt lat="44.4728" lon="6.54742">
        <ele>1693</ele>
        <time>2021-02-21T04:57:43Z</time>
      </trkpt>
      <trkpt lat="44.47279" lon="6.54743">
        <ele>1693</ele>
        <time>2021-02-21T04:57:44Z</time>
      </trkpt>
      <trkpt lat="44.47278" lon="6.54743">
        <ele>1693</ele>
        <time>2021-02-21T04:57:45Z</time>
      </trkpt>
      <trkpt lat="44.47277" lon="6.54744">
        <ele>1694</ele>
        <time>2021-02-21T04:57:46Z</time>
      </trkpt>
      <trkpt lat="44.47276" lon="6.54744">
        <ele>1694</ele>
        <time>2021-02-21T04:57:47Z</time>
      </trkpt>
      <trkpt lat="44.47276" lon="6.54745">
        <ele>1694</ele>
        <time>2021-02-21T04:57:48Z</time>
      </trkpt>
      <trkpt lat="44.47275" lon="6.54745">
        <ele>1694</ele>
        <time>2021-02-21T04:57:49Z</time>
      </trkpt>
      <trkpt lat="44.47275" lon="6.54746">
        <ele>1695</ele>
        <time>2021-02-21T04:57:50Z</time>
      </trkpt>
      <trkpt lat="44.47274" lon="6.54747">
        <ele>1695</ele>
        <time>2021-02-21T04:57:51Z</time>
      </trkpt>
      <trkpt lat="44.47274" lon="6.54747">
        <ele>1695</ele>
        <time>2021-02-21T04:57:52Z</time>
      </trkpt>
      <trkpt lat="44.47273" lon="6.54748">
        <ele>1695</ele>
        <time>2021-02-21T04:57:53Z</time>
      </trkpt>
      <trkpt lat="44.47273" lon="6.54749">
        <ele>1696</ele>
        <time>2021-02-21T04:57:54Z</time>
      </trkpt>
      <trkpt lat="44.47272" lon="6.5475">
        <ele>1696</ele>
        <time>2021-02-21T04:57:55Z</time>
      </trkpt>
      <trkpt lat="44.47272" lon="6.5475">
        <ele>1696</ele>
        <time>2021-02-21T04:57:56Z</time>
      </trkpt>
      <trkpt lat="44.47271" lon="6.54751">
        <ele>1696</ele>
        <time>2021-02-21T04:57:57Z</time>
      </trkpt>
      <trkpt lat="44.4727" lon="6.54752">
        <ele>1697</ele>
        <time>2021-02-21T04:57:58Z</time>
      </trkpt>
      <trkpt lat="44.47269" lon="6.54752">
        <ele>1697</ele>
        <time>2021-02-21T04:57:59Z</time>
      </trkpt>
      <trkpt lat="44.47268" lon="6.54753">
        <ele>1697</ele>
        <time>2021-02-21T04:58:00Z</time>
      </trkpt>
      <trkpt lat="44.47267" lon="6.54754">
        <ele>1697</ele>
        <time>2021-02-21T04:58:01Z</time>
      </trkpt>
      <trkpt lat="44.47267" lon="6.54755">
        <ele>1697</ele>
        <time>2021-02-21T04:58:02Z</time>
      </trkpt>
      <trkpt lat="44.47266" lon="6.54756">
        <ele>1698</ele>
        <time>2021-02-21T04:58:03Z</time>
      </trkpt>
      <trkpt lat="44.47266" lon="6.54757">
        <ele>1698</ele>
        <time>2021-02-21T04:58:04Z</time>
      </trkpt>
      <trkpt lat="44.47264" lon="6.54757">
        <ele>1698</ele>
        <time>2021-02-21T04:58:05Z</time>
      </trkpt>
      <trkpt lat="44.47264" lon="6.54758">
        <ele>1698</ele>
        <time>2021-02-21T04:58:06Z</time>
      </trkpt>
      <trkpt lat="44.47263" lon="6.54759">
        <ele>1698</ele>
        <time>2021-02-21T04:58:07Z</time>
      </trkpt>
      <trkpt lat="44.47262" lon="6.54759">
        <ele>1699</ele>
        <time>2021-02-21T04:58:08Z</time>
      </trkpt>
      <trkpt lat="44.47261" lon="6.54759">
        <ele>1699</ele>
        <time>2021-02-21T04:58:09Z</time>
      </trkpt>
      <trkpt lat="44.47259" lon="6.54759">
        <ele>1699</ele>
        <time>2021-02-21T04:58:10Z</time>
      </trkpt>
      <trkpt lat="44.47257" lon="6.54759">
        <ele>1699</ele>
        <time>2021-02-21T04:58:11Z</time>
      </trkpt>
      <trkpt lat="44.47257" lon="6.54759">
        <ele>1700</ele>
        <time>2021-02-21T04:58:12Z</time>
      </trkpt>
      <trkpt lat="44.47256" lon="6.5476">
        <ele>1700</ele>
        <time>2021-02-21T04:58:13Z</time>
      </trkpt>
      <trkpt lat="44.47255" lon="6.54761">
        <ele>1700</ele>
        <time>2021-02-21T04:58:14Z</time>
      </trkpt>
      <trkpt lat="44.47254" lon="6.54761">
        <ele>1700</ele>
        <time>2021-02-21T04:58:15Z</time>
      </trkpt>
      <trkpt lat="44.47253" lon="6.54762">
        <ele>1700</ele>
        <time>2021-02-21T04:58:16Z</time>
      </trkpt>
      <trkpt lat="44.47252" lon="6.54762">
        <ele>1701</ele>
        <time>2021-02-21T04:58:17Z</time>
      </trkpt>
      <trkpt lat="44.47252" lon="6.54763">
        <ele>1701</ele>
        <time>2021-02-21T04:58:18Z</time>
      </trkpt>
      <trkpt lat="44.4725" lon="6.54763">
        <ele>1702</ele>
        <time>2021-02-21T04:58:19Z</time>
      </trkpt>
      <trkpt lat="44.4725" lon="6.54764">
        <ele>1702</ele>
        <time>2021-02-21T04:58:20Z</time>
      </trkpt>
      <trkpt lat="44.47249" lon="6.54764">
        <ele>1702</ele>
        <time>2021-02-21T04:58:21Z</time>
      </trkpt>
      <trkpt lat="44.47249" lon="6.54764">
        <ele>1703</ele>
        <time>2021-02-21T04:58:22Z</time>
      </trkpt>
      <trkpt lat="44.47249" lon="6.54764">
        <ele>1703</ele>
        <time>2021-02-21T04:58:23Z</time>
      </trkpt>
      <trkpt lat="44.47249" lon="6.54764">
        <ele>1703</ele>
        <time>2021-02-21T04:58:24Z</time>
      </trkpt>
      <trkpt lat="44.47249" lon="6.54764">
        <ele>1703</ele>
        <time>2021-02-21T04:58:25Z</time>
      </trkpt>
      <trkpt lat="44.47249" lon="6.54763">
        <ele>1703</ele>
        <time>2021-02-21T04:58:26Z</time>
      </trkpt>
      <trkpt lat="44.47248" lon="6.54763">
        <ele>1703</ele>
        <time>2021-02-21T04:58:27Z</time>
      </trkpt>
      <trkpt lat="44.47248" lon="6.54763">
        <ele>1703</ele>
        <time>2021-02-21T04:58:28Z</time>
      </trkpt>
      <trkpt lat="44.47247" lon="6.54762">
        <ele>1703</ele>
        <time>2021-02-21T04:58:29Z</time>
      </trkpt>
      <trkpt lat="44.47246" lon="6.54763">
        <ele>1703</ele>
        <time>2021-02-21T04:58:30Z</time>
      </trkpt>
      <trkpt lat="44.47245" lon="6.54764">
        <ele>1703</ele>
        <time>2021-02-21T04:58:31Z</time>
      </trkpt>
      <trkpt lat="44.47245" lon="6.54765">
        <ele>1703</ele>
        <time>2021-02-21T04:58:32Z</time>
      </trkpt>
      <trkpt lat="44.47244" lon="6.54767">
        <ele>1703</ele>
        <time>2021-02-21T04:58:33Z</time>
      </trkpt>
      <trkpt lat="44.47243" lon="6.54768">
        <ele>1704</ele>
        <time>2021-02-21T04:58:34Z</time>
      </trkpt>
      <trkpt lat="44.47243" lon="6.54769">
        <ele>1704</ele>
        <time>2021-02-21T04:58:35Z</time>
      </trkpt>
      <trkpt lat="44.47242" lon="6.54771">
        <ele>1704</ele>
        <time>2021-02-21T04:58:36Z</time>
      </trkpt>
      <trkpt lat="44.47242" lon="6.54774">
        <ele>1704</ele>
        <time>2021-02-21T04:58:37Z</time>
      </trkpt>
      <trkpt lat="44.47242" lon="6.54776">
        <ele>1704</ele>
        <time>2021-02-21T04:58:38Z</time>
      </trkpt>
      <trkpt lat="44.47241" lon="6.54777">
        <ele>1704</ele>
        <time>2021-02-21T04:58:39Z</time>
      </trkpt>
      <trkpt lat="44.4724" lon="6.54778">
        <ele>1704</ele>
        <time>2021-02-21T04:58:40Z</time>
      </trkpt>
      <trkpt lat="44.47239" lon="6.54779">
        <ele>1705</ele>
        <time>2021-02-21T04:58:41Z</time>
      </trkpt>
      <trkpt lat="44.47238" lon="6.5478">
        <ele>1705</ele>
        <time>2021-02-21T04:58:42Z</time>
      </trkpt>
      <trkpt lat="44.47237" lon="6.54781">
        <ele>1705</ele>
        <time>2021-02-21T04:58:43Z</time>
      </trkpt>
      <trkpt lat="44.47236" lon="6.5478">
        <ele>1705</ele>
        <time>2021-02-21T04:58:44Z</time>
      </trkpt>
      <trkpt lat="44.47235" lon="6.54781">
        <ele>1705</ele>
        <time>2021-02-21T04:58:45Z</time>
      </trkpt>
      <trkpt lat="44.47234" lon="6.54781">
        <ele>1706</ele>
        <time>2021-02-21T04:58:46Z</time>
      </trkpt>
      <trkpt lat="44.47233" lon="6.54781">
        <ele>1706</ele>
        <time>2021-02-21T04:58:47Z</time>
      </trkpt>
      <trkpt lat="44.47232" lon="6.54782">
        <ele>1706</ele>
        <time>2021-02-21T04:58:48Z</time>
      </trkpt>
      <trkpt lat="44.47231" lon="6.54782">
        <ele>1706</ele>
        <time>2021-02-21T04:58:49Z</time>
      </trkpt>
      <trkpt lat="44.4723" lon="6.54782">
        <ele>1707</ele>
        <time>2021-02-21T04:58:50Z</time>
      </trkpt>
      <trkpt lat="44.47228" lon="6.54782">
        <ele>1707</ele>
        <time>2021-02-21T04:58:51Z</time>
      </trkpt>
      <trkpt lat="44.47227" lon="6.54781">
        <ele>1707</ele>
        <time>2021-02-21T04:58:52Z</time>
      </trkpt>
      <trkpt lat="44.47226" lon="6.5478">
        <ele>1708</ele>
        <time>2021-02-21T04:58:53Z</time>
      </trkpt>
      <trkpt lat="44.47224" lon="6.54779">
        <ele>1709</ele>
        <time>2021-02-21T04:58:54Z</time>
      </trkpt>
      <trkpt lat="44.47223" lon="6.54779">
        <ele>1709</ele>
        <time>2021-02-21T04:58:55Z</time>
      </trkpt>
      <trkpt lat="44.47222" lon="6.5478">
        <ele>1710</ele>
        <time>2021-02-21T04:58:56Z</time>
      </trkpt>
      <trkpt lat="44.47221" lon="6.5478">
        <ele>1710</ele>
        <time>2021-02-21T04:58:57Z</time>
      </trkpt>
      <trkpt lat="44.47221" lon="6.5478">
        <ele>1710</ele>
        <time>2021-02-21T04:58:58Z</time>
      </trkpt>
      <trkpt lat="44.4722" lon="6.5478">
        <ele>1710</ele>
        <time>2021-02-21T04:58:59Z</time>
      </trkpt>
      <trkpt lat="44.47219" lon="6.5478">
        <ele>1710</ele>
        <time>2021-02-21T04:59:00Z</time>
      </trkpt>
      <trkpt lat="44.47219" lon="6.5478">
        <ele>1711</ele>
        <time>2021-02-21T04:59:01Z</time>
      </trkpt>
      <trkpt lat="44.47218" lon="6.5478">
        <ele>1711</ele>
        <time>2021-02-21T04:59:02Z</time>
      </trkpt>
      <trkpt lat="44.47218" lon="6.5478">
        <ele>1711</ele>
        <time>2021-02-21T04:59:03Z</time>
      </trkpt>
      <trkpt lat="44.47217" lon="6.5478">
        <ele>1712</ele>
        <time>2021-02-21T04:59:04Z</time>
      </trkpt>
      <trkpt lat="44.47217" lon="6.5478">
        <ele>1712</ele>
        <time>2021-02-21T04:59:05Z</time>
      </trkpt>
      <trkpt lat="44.47216" lon="6.5478">
        <ele>1712</ele>
        <time>2021-02-21T04:59:06Z</time>
      </trkpt>
      <trkpt lat="44.47215" lon="6.5478">
        <ele>1712</ele>
        <time>2021-02-21T04:59:07Z</time>
      </trkpt>
      <trkpt lat="44.47215" lon="6.54779">
        <ele>1712</ele>
        <time>2021-02-21T04:59:08Z</time>
      </trkpt>
      <trkpt lat="44.47214" lon="6.54779">
        <ele>1712</ele>
        <time>2021-02-21T04:59:09Z</time>
      </trkpt>
      <trkpt lat="44.47213" lon="6.5478">
        <ele>1713</ele>
        <time>2021-02-21T04:59:10Z</time>
      </trkpt>
      <trkpt lat="44.47212" lon="6.5478">
        <ele>1713</ele>
        <time>2021-02-21T04:59:11Z</time>
      </trkpt>
      <trkpt lat="44.47212" lon="6.5478">
        <ele>1713</ele>
        <time>2021-02-21T04:59:12Z</time>
      </trkpt>
      <trkpt lat="44.4721" lon="6.5478">
        <ele>1713</ele>
        <time>2021-02-21T04:59:13Z</time>
      </trkpt>
      <trkpt lat="44.47209" lon="6.54779">
        <ele>1713</ele>
        <time>2021-02-21T04:59:14Z</time>
      </trkpt>
      <trkpt lat="44.47208" lon="6.54779">
        <ele>1713</ele>
        <time>2021-02-21T04:59:15Z</time>
      </trkpt>
      <trkpt lat="44.47207" lon="6.54779">
        <ele>1714</ele>
        <time>2021-02-21T04:59:16Z</time>
      </trkpt>
      <trkpt lat="44.47205" lon="6.54779">
        <ele>1714</ele>
        <time>2021-02-21T04:59:17Z</time>
      </trkpt>
      <trkpt lat="44.47204" lon="6.54779">
        <ele>1714</ele>
        <time>2021-02-21T04:59:18Z</time>
      </trkpt>
      <trkpt lat="44.47203" lon="6.54778">
        <ele>1715</ele>
        <time>2021-02-21T04:59:19Z</time>
      </trkpt>
      <trkpt lat="44.47201" lon="6.54777">
        <ele>1715</ele>
        <time>2021-02-21T04:59:20Z</time>
      </trkpt>
      <trkpt lat="44.47201" lon="6.54777">
        <ele>1715</ele>
        <time>2021-02-21T04:59:21Z</time>
      </trkpt>
      <trkpt lat="44.472" lon="6.54777">
        <ele>1715</ele>
        <time>2021-02-21T04:59:22Z</time>
      </trkpt>
      <trkpt lat="44.47199" lon="6.54778">
        <ele>1716</ele>
        <time>2021-02-21T04:59:23Z</time>
      </trkpt>
      <trkpt lat="44.47198" lon="6.54778">
        <ele>1716</ele>
        <time>2021-02-21T04:59:24Z</time>
      </trkpt>
      <trkpt lat="44.47197" lon="6.54778">
        <ele>1716</ele>
        <time>2021-02-21T04:59:25Z</time>
      </trkpt>
      <trkpt lat="44.47195" lon="6.54778">
        <ele>1716</ele>
        <time>2021-02-21T04:59:26Z</time>
      </trkpt>
      <trkpt lat="44.47195" lon="6.54778">
        <ele>1717</ele>
        <time>2021-02-21T04:59:27Z</time>
      </trkpt>
      <trkpt lat="44.47194" lon="6.54778">
        <ele>1717</ele>
        <time>2021-02-21T04:59:28Z</time>
      </trkpt>
      <trkpt lat="44.47194" lon="6.54779">
        <ele>1717</ele>
        <time>2021-02-21T04:59:29Z</time>
      </trkpt>
      <trkpt lat="44.47193" lon="6.54779">
        <ele>1717</ele>
        <time>2021-02-21T04:59:30Z</time>
      </trkpt>
      <trkpt lat="44.47193" lon="6.54779">
        <ele>1717</ele>
        <time>2021-02-21T04:59:31Z</time>
      </trkpt>
      <trkpt lat="44.47193" lon="6.5478">
        <ele>1717</ele>
        <time>2021-02-21T04:59:32Z</time>
      </trkpt>
      <trkpt lat="44.47192" lon="6.5478">
        <ele>1716</ele>
        <time>2021-02-21T04:59:33Z</time>
      </trkpt>
      <trkpt lat="44.47191" lon="6.5478">
        <ele>1716</ele>
        <time>2021-02-21T04:59:34Z</time>
      </trkpt>
      <trkpt lat="44.4719" lon="6.5478">
        <ele>1715</ele>
        <time>2021-02-21T04:59:35Z</time>
      </trkpt>
      <trkpt lat="44.47189" lon="6.54781">
        <ele>1715</ele>
        <time>2021-02-21T04:59:36Z</time>
      </trkpt>
      <trkpt lat="44.47188" lon="6.5478">
        <ele>1715</ele>
        <time>2021-02-21T04:59:37Z</time>
      </trkpt>
      <trkpt lat="44.47186" lon="6.54781">
        <ele>1715</ele>
        <time>2021-02-21T04:59:38Z</time>
      </trkpt>
      <trkpt lat="44.47186" lon="6.5478">
        <ele>1715</ele>
        <time>2021-02-21T04:59:39Z</time>
      </trkpt>
      <trkpt lat="44.47185" lon="6.5478">
        <ele>1715</ele>
        <time>2021-02-21T04:59:40Z</time>
      </trkpt>
      <trkpt lat="44.47184" lon="6.5478">
        <ele>1715</ele>
        <time>2021-02-21T04:59:41Z</time>
      </trkpt>
      <trkpt lat="44.47183" lon="6.54781">
        <ele>1715</ele>
        <time>2021-02-21T04:59:42Z</time>
      </trkpt>
      <trkpt lat="44.47182" lon="6.54781">
        <ele>1715</ele>
        <time>2021-02-21T04:59:43Z</time>
      </trkpt>
      <trkpt lat="44.47181" lon="6.54781">
        <ele>1715</ele>
        <time>2021-02-21T04:59:44Z</time>
      </trkpt>
      <trkpt lat="44.4718" lon="6.54781">
        <ele>1715</ele>
        <time>2021-02-21T04:59:45Z</time>
      </trkpt>
      <trkpt lat="44.47179" lon="6.54781">
        <ele>1715</ele>
        <time>2021-02-21T04:59:46Z</time>
      </trkpt>
      <trkpt lat="44.47178" lon="6.54782">
        <ele>1715</ele>
        <time>2021-02-21T04:59:47Z</time>
      </trkpt>
      <trkpt lat="44.47178" lon="6.54783">
        <ele>1715</ele>
        <time>2021-02-21T04:59:48Z</time>
      </trkpt>
      <trkpt lat="44.47177" lon="6.54783">
        <ele>1715</ele>
        <time>2021-02-21T04:59:49Z</time>
      </trkpt>
      <trkpt lat="44.47176" lon="6.54783">
        <ele>1715</ele>
        <time>2021-02-21T04:59:50Z</time>
      </trkpt>
      <trkpt lat="44.47175" lon="6.54783">
        <ele>1715</ele>
        <time>2021-02-21T04:59:51Z</time>
      </trkpt>
      <trkpt lat="44.47174" lon="6.54783">
        <ele>1715</ele>
        <time>2021-02-21T04:59:52Z</time>
      </trkpt>
      <trkpt lat="44.47174" lon="6.54783">
        <ele>1715</ele>
        <time>2021-02-21T04:59:53Z</time>
      </trkpt>
      <trkpt lat="44.47173" lon="6.54783">
        <ele>1715</ele>
        <time>2021-02-21T04:59:54Z</time>
      </trkpt>
      <trkpt lat="44.47172" lon="6.54783">
        <ele>1715</ele>
        <time>2021-02-21T04:59:55Z</time>
      </trkpt>
      <trkpt lat="44.47171" lon="6.54783">
        <ele>1715</ele>
        <time>2021-02-21T04:59:56Z</time>
      </trkpt>
      <trkpt lat="44.4717" lon="6.54783">
        <ele>1716</ele>
        <time>2021-02-21T04:59:57Z</time>
      </trkpt>
      <trkpt lat="44.47168" lon="6.54783">
        <ele>1717</ele>
        <time>2021-02-21T04:59:58Z</time>
      </trkpt>
      <trkpt lat="44.47167" lon="6.54782">
        <ele>1717</ele>
        <time>2021-02-21T04:59:59Z</time>
      </trkpt>
      <trkpt lat="44.47166" lon="6.54783">
        <ele>1718</ele>
        <time>2021-02-21T05:00:00Z</time>
      </trkpt>
      <trkpt lat="44.47165" lon="6.54783">
        <ele>1719</ele>
        <time>2021-02-21T05:00:01Z</time>
      </trkpt>
      <trkpt lat="44.47164" lon="6.54783">
        <ele>1720</ele>
        <time>2021-02-21T05:00:02Z</time>
      </trkpt>
      <trkpt lat="44.47163" lon="6.54783">
        <ele>1720</ele>
        <time>2021-02-21T05:00:03Z</time>
      </trkpt>
      <trkpt lat="44.47162" lon="6.54783">
        <ele>1720</ele>
        <time>2021-02-21T05:00:04Z</time>
      </trkpt>
      <trkpt lat="44.47162" lon="6.54784">
        <ele>1720</ele>
        <time>2021-02-21T05:00:05Z</time>
      </trkpt>
      <trkpt lat="44.47161" lon="6.54785">
        <ele>1721</ele>
        <time>2021-02-21T05:00:06Z</time>
      </trkpt>
      <trkpt lat="44.4716" lon="6.54785">
        <ele>1722</ele>
        <time>2021-02-21T05:00:07Z</time>
      </trkpt>
      <trkpt lat="44.47159" lon="6.54786">
        <ele>1722</ele>
        <time>2021-02-21T05:00:08Z</time>
      </trkpt>
      <trkpt lat="44.47158" lon="6.54786">
        <ele>1723</ele>
        <time>2021-02-21T05:00:09Z</time>
      </trkpt>
      <trkpt lat="44.47157" lon="6.54787">
        <ele>1723</ele>
        <time>2021-02-21T05:00:10Z</time>
      </trkpt>
      <trkpt lat="44.47156" lon="6.54787">
        <ele>1723</ele>
        <time>2021-02-21T05:00:11Z</time>
      </trkpt>
      <trkpt lat="44.47155" lon="6.54788">
        <ele>1723</ele>
        <time>2021-02-21T05:00:12Z</time>
      </trkpt>
      <trkpt lat="44.47154" lon="6.54788">
        <ele>1724</ele>
        <time>2021-02-21T05:00:13Z</time>
      </trkpt>
      <trkpt lat="44.47153" lon="6.54788">
        <ele>1724</ele>
        <time>2021-02-21T05:00:14Z</time>
      </trkpt>
      <trkpt lat="44.47152" lon="6.54788">
        <ele>1724</ele>
        <time>2021-02-21T05:00:15Z</time>
      </trkpt>
      <trkpt lat="44.47151" lon="6.54787">
        <ele>1724</ele>
        <time>2021-02-21T05:00:16Z</time>
      </trkpt>
      <trkpt lat="44.4715" lon="6.54788">
        <ele>1725</ele>
        <time>2021-02-21T05:00:17Z</time>
      </trkpt>
      <trkpt lat="44.47149" lon="6.54789">
        <ele>1725</ele>
        <time>2021-02-21T05:00:18Z</time>
      </trkpt>
      <trkpt lat="44.47148" lon="6.54789">
        <ele>1725</ele>
        <time>2021-02-21T05:00:19Z</time>
      </trkpt>
      <trkpt lat="44.47147" lon="6.5479">
        <ele>1725</ele>
        <time>2021-02-21T05:00:20Z</time>
      </trkpt>
      <trkpt lat="44.47147" lon="6.5479">
        <ele>1725</ele>
        <time>2021-02-21T05:00:21Z</time>
      </trkpt>
      <trkpt lat="44.47146" lon="6.54791">
        <ele>1726</ele>
        <time>2021-02-21T05:00:22Z</time>
      </trkpt>
      <trkpt lat="44.47145" lon="6.54792">
        <ele>1726</ele>
        <time>2021-02-21T05:00:23Z</time>
      </trkpt>
      <trkpt lat="44.47144" lon="6.54792">
        <ele>1726</ele>
        <time>2021-02-21T05:00:24Z</time>
      </trkpt>
      <trkpt lat="44.47144" lon="6.54793">
        <ele>1726</ele>
        <time>2021-02-21T05:00:25Z</time>
      </trkpt>
      <trkpt lat="44.47144" lon="6.54794">
        <ele>1726</ele>
        <time>2021-02-21T05:00:26Z</time>
      </trkpt>
      <trkpt lat="44.47144" lon="6.54794">
        <ele>1726</ele>
        <time>2021-02-21T05:00:27Z</time>
      </trkpt>
      <trkpt lat="44.47144" lon="6.54794">
        <ele>1726</ele>
        <time>2021-02-21T05:00:28Z</time>
      </trkpt>
      <trkpt lat="44.47144" lon="6.54794">
        <ele>1726</ele>
        <time>2021-02-21T05:00:29Z</time>
      </trkpt>
      <trkpt lat="44.47144" lon="6.54795">
        <ele>1726</ele>
        <time>2021-02-21T05:00:30Z</time>
      </trkpt>
      <trkpt lat="44.47143" lon="6.54795">
        <ele>1726</ele>
        <time>2021-02-21T05:00:31Z</time>
      </trkpt>
      <trkpt lat="44.47143" lon="6.54796">
        <ele>1726</ele>
        <time>2021-02-21T05:00:32Z</time>
      </trkpt>
      <trkpt lat="44.47143" lon="6.54795">
        <ele>1726</ele>
        <time>2021-02-21T05:00:33Z</time>
      </trkpt>
      <trkpt lat="44.47142" lon="6.54796">
        <ele>1726</ele>
        <time>2021-02-21T05:00:34Z</time>
      </trkpt>
      <trkpt lat="44.47142" lon="6.54796">
        <ele>1726</ele>
        <time>2021-02-21T05:00:35Z</time>
      </trkpt>
      <trkpt lat="44.47142" lon="6.54796">
        <ele>1726</ele>
        <time>2021-02-21T05:00:36Z</time>
      </trkpt>
      <trkpt lat="44.47142" lon="6.54796">
        <ele>1726</ele>
        <time>2021-02-21T05:00:37Z</time>
      </trkpt>
      <trkpt lat="44.47142" lon="6.54796">
        <ele>1726</ele>
        <time>2021-02-21T05:00:38Z</time>
      </trkpt>
      <trkpt lat="44.47142" lon="6.54796">
        <ele>1726</ele>
        <time>2021-02-21T05:00:39Z</time>
      </trkpt>
      <trkpt lat="44.47142" lon="6.54796">
        <ele>1726</ele>
        <time>2021-02-21T05:00:40Z</time>
      </trkpt>
      <trkpt lat="44.47142" lon="6.54796">
        <ele>1726</ele>
        <time>2021-02-21T05:00:41Z</time>
      </trkpt>
      <trkpt lat="44.47142" lon="6.54796">
        <ele>1726</ele>
        <time>2021-02-21T05:00:42Z</time>
      </trkpt>
      <trkpt lat="44.47142" lon="6.54796">
        <ele>1726</ele>
        <time>2021-02-21T05:00:43Z</time>
      </trkpt>
      <trkpt lat="44.47142" lon="6.54796">
        <ele>1726</ele>
        <time>2021-02-21T05:00:44Z</time>
      </trkpt>
      <trkpt lat="44.47142" lon="6.54796">
        <ele>1726</ele>
        <time>2021-02-21T05:00:45Z</time>
      </trkpt>
      <trkpt lat="44.47142" lon="6.54796">
        <ele>1726</ele>
        <time>2021-02-21T05:00:46Z</time>
      </trkpt>
      <trkpt lat="44.47142" lon="6.54796">
        <ele>1726</ele>
        <time>2021-02-21T05:00:47Z</time>
      </trkpt>
      <trkpt lat="44.47142" lon="6.54796">
        <ele>1726</ele>
        <time>2021-02-21T05:00:48Z</time>
      </trkpt>
      <trkpt lat="44.47142" lon="6.54796">
        <ele>1726</ele>
        <time>2021-02-21T05:00:49Z</time>
      </trkpt>
      <trkpt lat="44.47142" lon="6.54796">
        <ele>1726</ele>
        <time>2021-02-21T05:00:50Z</time>
      </trkpt>
      <trkpt lat="44.47142" lon="6.54796">
        <ele>1726</ele>
        <time>2021-02-21T05:00:51Z</time>
      </trkpt>
      <trkpt lat="44.47142" lon="6.54796">
        <ele>1726</ele>
        <time>2021-02-21T05:00:52Z</time>
      </trkpt>
      <trkpt lat="44.47142" lon="6.54796">
        <ele>1726</ele>
        <time>2021-02-21T05:00:53Z</time>
      </trkpt>
      <trkpt lat="44.47142" lon="6.54796">
        <ele>1726</ele>
        <time>2021-02-21T05:00:54Z</time>
      </trkpt>
      <trkpt lat="44.47142" lon="6.54796">
        <ele>1726</ele>
        <time>2021-02-21T05:00:55Z</time>
      </trkpt>
      <trkpt lat="44.47142" lon="6.54796">
        <ele>1726</ele>
        <time>2021-02-21T05:00:56Z</time>
      </trkpt>
      <trkpt lat="44.47142" lon="6.54796">
        <ele>1726</ele>
        <time>2021-02-21T05:00:57Z</time>
      </trkpt>
      <trkpt lat="44.47142" lon="6.54796">
        <ele>1726</ele>
        <time>2021-02-21T05:00:58Z</time>
      </trkpt>
      <trkpt lat="44.47142" lon="6.54796">
        <ele>1726</ele>
        <time>2021-02-21T05:00:59Z</time>
      </trkpt>
      <trkpt lat="44.47142" lon="6.54796">
        <ele>1726</ele>
        <time>2021-02-21T05:01:00Z</time>
      </trkpt>
      <trkpt lat="44.47142" lon="6.54796">
        <ele>1726</ele>
        <time>2021-02-21T05:01:01Z</time>
      </trkpt>
      <trkpt lat="44.47142" lon="6.54796">
        <ele>1726</ele>
        <time>2021-02-21T05:01:02Z</time>
      </trkpt>
      <trkpt lat="44.47142" lon="6.54796">
        <ele>1726</ele>
        <time>2021-02-21T05:01:03Z</time>
      </trkpt>
      <trkpt lat="44.47142" lon="6.54796">
        <ele>1726</ele>
        <time>2021-02-21T05:01:04Z</time>
      </trkpt>
      <trkpt lat="44.47142" lon="6.54796">
        <ele>1726</ele>
        <time>2021-02-21T05:01:05Z</time>
      </trkpt>
      <trkpt lat="44.47142" lon="6.54796">
        <ele>1726</ele>
        <time>2021-02-21T05:01:06Z</time>
      </trkpt>
      <trkpt lat="44.47142" lon="6.54796">
        <ele>1726</ele>
        <time>2021-02-21T05:01:07Z</time>
      </trkpt>
      <trkpt lat="44.47142" lon="6.54796">
        <ele>1726</ele>
        <time>2021-02-21T05:01:08Z</time>
      </trkpt>
      <trkpt lat="44.47142" lon="6.54796">
        <ele>1726</ele>
        <time>2021-02-21T05:01:09Z</time>
      </trkpt>
      <trkpt lat="44.47142" lon="6.54796">
        <ele>1726</ele>
        <time>2021-02-21T05:01:10Z</time>
      </trkpt>
      <trkpt lat="44.47142" lon="6.54796">
        <ele>1726</ele>
        <time>2021-02-21T05:01:11Z</time>
      </trkpt>
      <trkpt lat="44.47142" lon="6.54796">
        <ele>1726</ele>
        <time>2021-02-21T05:01:12Z</time>
      </trkpt>
      <trkpt lat="44.47142" lon="6.54796">
        <ele>1726</ele>
        <time>2021-02-21T05:01:13Z</time>
      </trkpt>
      <trkpt lat="44.47142" lon="6.54796">
        <ele>1726</ele>
        <time>2021-02-21T05:01:14Z</time>
      </trkpt>
      <trkpt lat="44.47142" lon="6.54796">
        <ele>1726</ele>
        <time>2021-02-21T05:01:15Z</time>
      </trkpt>
      <trkpt lat="44.47142" lon="6.54796">
        <ele>1726</ele>
        <time>2021-02-21T05:01:16Z</time>
      </trkpt>
      <trkpt lat="44.47142" lon="6.54796">
        <ele>1726</ele>
        <time>2021-02-21T05:01:17Z</time>
      </trkpt>
      <trkpt lat="44.47142" lon="6.54796">
        <ele>1726</ele>
        <time>2021-02-21T05:01:18Z</time>
      </trkpt>
      <trkpt lat="44.47142" lon="6.54796">
        <ele>1726</ele>
        <time>2021-02-21T05:01:19Z</time>
      </trkpt>
      <trkpt lat="44.47142" lon="6.54796">
        <ele>1726</ele>
        <time>2021-02-21T05:01:20Z</time>
      </trkpt>
      <trkpt lat="44.47142" lon="6.54796">
        <ele>1726</ele>
        <time>2021-02-21T05:01:21Z</time>
      </trkpt>
      <trkpt lat="44.47142" lon="6.54796">
        <ele>1726</ele>
        <time>2021-02-21T05:01:22Z</time>
      </trkpt>
      <trkpt lat="44.47142" lon="6.54796">
        <ele>1726</ele>
        <time>2021-02-21T05:01:23Z</time>
      </trkpt>
      <trkpt lat="44.47142" lon="6.54796">
        <ele>1726</ele>
        <time>2021-02-21T05:01:24Z</time>
      </trkpt>
      <trkpt lat="44.47142" lon="6.54796">
        <ele>1726</ele>
        <time>2021-02-21T05:01:25Z</time>
      </trkpt>
      <trkpt lat="44.47142" lon="6.54796">
        <ele>1726</ele>
        <time>2021-02-21T05:01:26Z</time>
      </trkpt>
      <trkpt lat="44.47142" lon="6.54796">
        <ele>1726</ele>
        <time>2021-02-21T05:01:27Z</time>
      </trkpt>
      <trkpt lat="44.47142" lon="6.54796">
        <ele>1726</ele>
        <time>2021-02-21T05:01:28Z</time>
      </trkpt>
      <trkpt lat="44.47142" lon="6.54796">
        <ele>1726</ele>
        <time>2021-02-21T05:01:29Z</time>
      </trkpt>
      <trkpt lat="44.47142" lon="6.54796">
        <ele>1726</ele>
        <time>2021-02-21T05:01:30Z</time>
      </trkpt>
      <trkpt lat="44.47142" lon="6.54796">
        <ele>1726</ele>
        <time>2021-02-21T05:01:31Z</time>
      </trkpt>
      <trkpt lat="44.47142" lon="6.54796">
        <ele>1726</ele>
        <time>2021-02-21T05:01:32Z</time>
      </trkpt>
      <trkpt lat="44.47142" lon="6.54796">
        <ele>1726</ele>
        <time>2021-02-21T05:01:33Z</time>
      </trkpt>
      <trkpt lat="44.47142" lon="6.54796">
        <ele>1726</ele>
        <time>2021-02-21T05:01:34Z</time>
      </trkpt>
      <trkpt lat="44.47142" lon="6.54796">
        <ele>1726</ele>
        <time>2021-02-21T05:01:35Z</time>
      </trkpt>
      <trkpt lat="44.47142" lon="6.54796">
        <ele>1726</ele>
        <time>2021-02-21T05:01:36Z</time>
      </trkpt>
      <trkpt lat="44.47142" lon="6.54796">
        <ele>1726</ele>
        <time>2021-02-21T05:01:37Z</time>
      </trkpt>
      <trkpt lat="44.47142" lon="6.54796">
        <ele>1726</ele>
        <time>2021-02-21T05:01:38Z</time>
      </trkpt>
      <trkpt lat="44.47142" lon="6.54796">
        <ele>1726</ele>
        <time>2021-02-21T05:01:39Z</time>
      </trkpt>
      <trkpt lat="44.47142" lon="6.54796">
        <ele>1726</ele>
        <time>2021-02-21T05:01:40Z</time>
      </trkpt>
      <trkpt lat="44.47142" lon="6.54796">
        <ele>1726</ele>
        <time>2021-02-21T05:01:41Z</time>
      </trkpt>
      <trkpt lat="44.47142" lon="6.54796">
        <ele>1726</ele>
        <time>2021-02-21T05:01:42Z</time>
      </trkpt>
      <trkpt lat="44.47142" lon="6.54796">
        <ele>1726</ele>
        <time>2021-02-21T05:01:43Z</time>
      </trkpt>
      <trkpt lat="44.47142" lon="6.54796">
        <ele>1726</ele>
        <time>2021-02-21T05:01:44Z</time>
      </trkpt>
      <trkpt lat="44.47142" lon="6.54796">
        <ele>1726</ele>
        <time>2021-02-21T05:01:45Z</time>
      </trkpt>
      <trkpt lat="44.47142" lon="6.54796">
        <ele>1726</ele>
        <time>2021-02-21T05:01:46Z</time>
      </trkpt>
      <trkpt lat="44.47142" lon="6.54796">
        <ele>1726</ele>
        <time>2021-02-21T05:01:47Z</time>
      </trkpt>
      <trkpt lat="44.47142" lon="6.54796">
        <ele>1726</ele>
        <time>2021-02-21T05:01:48Z</time>
      </trkpt>
      <trkpt lat="44.47142" lon="6.54796">
        <ele>1726</ele>
        <time>2021-02-21T05:01:49Z</time>
      </trkpt>
      <trkpt lat="44.47142" lon="6.54796">
        <ele>1726</ele>
        <time>2021-02-21T05:01:50Z</time>
      </trkpt>
      <trkpt lat="44.47142" lon="6.54796">
        <ele>1726</ele>
        <time>2021-02-21T05:01:51Z</time>
      </trkpt>
      <trkpt lat="44.47142" lon="6.54796">
        <ele>1726</ele>
        <time>2021-02-21T05:01:52Z</time>
      </trkpt>
      <trkpt lat="44.47142" lon="6.54796">
        <ele>1726</ele>
        <time>2021-02-21T05:01:53Z</time>
      </trkpt>
      <trkpt lat="44.47142" lon="6.54796">
        <ele>1726</ele>
        <time>2021-02-21T05:01:54Z</time>
      </trkpt>
      <trkpt lat="44.47142" lon="6.54796">
        <ele>1726</ele>
        <time>2021-02-21T05:01:55Z</time>
      </trkpt>
      <trkpt lat="44.47142" lon="6.54796">
        <ele>1726</ele>
        <time>2021-02-21T05:01:56Z</time>
      </trkpt>
      <trkpt lat="44.47142" lon="6.54796">
        <ele>1726</ele>
        <time>2021-02-21T05:01:57Z</time>
      </trkpt>
      <trkpt lat="44.47142" lon="6.54796">
        <ele>1726</ele>
        <time>2021-02-21T05:01:58Z</time>
      </trkpt>
      <trkpt lat="44.47142" lon="6.54796">
        <ele>1726</ele>
        <time>2021-02-21T05:01:59Z</time>
      </trkpt>
      <trkpt lat="44.47142" lon="6.54796">
        <ele>1726</ele>
        <time>2021-02-21T05:02:00Z</time>
      </trkpt>
      <trkpt lat="44.47142" lon="6.54796">
        <ele>1726</ele>
        <time>2021-02-21T05:02:01Z</time>
      </trkpt>
      <trkpt lat="44.47142" lon="6.54796">
        <ele>1726</ele>
        <time>2021-02-21T05:02:02Z</time>
      </trkpt>
      <trkpt lat="44.47142" lon="6.54796">
        <ele>1726</ele>
        <time>2021-02-21T05:02:03Z</time>
      </trkpt>
      <trkpt lat="44.47142" lon="6.54796">
        <ele>1726</ele>
        <time>2021-02-21T05:02:04Z</time>
      </trkpt>
      <trkpt lat="44.47142" lon="6.54796">
        <ele>1726</ele>
        <time>2021-02-21T05:02:05Z</time>
      </trkpt>
      <trkpt lat="44.47142" lon="6.54796">
        <ele>1726</ele>
        <time>2021-02-21T05:02:06Z</time>
      </trkpt>
      <trkpt lat="44.47142" lon="6.54796">
        <ele>1726</ele>
        <time>2021-02-21T05:02:07Z</time>
      </trkpt>
      <trkpt lat="44.47142" lon="6.54796">
        <ele>1726</ele>
        <time>2021-02-21T05:02:08Z</time>
      </trkpt>
      <trkpt lat="44.47142" lon="6.54796">
        <ele>1726</ele>
        <time>2021-02-21T05:02:09Z</time>
      </trkpt>
      <trkpt lat="44.47142" lon="6.54796">
        <ele>1726</ele>
        <time>2021-02-21T05:02:10Z</time>
      </trkpt>
      <trkpt lat="44.47142" lon="6.54796">
        <ele>1726</ele>
        <time>2021-02-21T05:02:11Z</time>
      </trkpt>
      <trkpt lat="44.47142" lon="6.54796">
        <ele>1726</ele>
        <time>2021-02-21T05:02:12Z</time>
      </trkpt>
      <trkpt lat="44.47142" lon="6.54796">
        <ele>1726</ele>
        <time>2021-02-21T05:02:13Z</time>
      </trkpt>
      <trkpt lat="44.47142" lon="6.54796">
        <ele>1726</ele>
        <time>2021-02-21T05:02:14Z</time>
      </trkpt>
      <trkpt lat="44.47142" lon="6.54796">
        <ele>1726</ele>
        <time>2021-02-21T05:02:15Z</time>
      </trkpt>
      <trkpt lat="44.47142" lon="6.54796">
        <ele>1726</ele>
        <time>2021-02-21T05:02:16Z</time>
      </trkpt>
      <trkpt lat="44.47142" lon="6.54796">
        <ele>1726</ele>
        <time>2021-02-21T05:02:17Z</time>
      </trkpt>
      <trkpt lat="44.47142" lon="6.54796">
        <ele>1726</ele>
        <time>2021-02-21T05:02:18Z</time>
      </trkpt>
      <trkpt lat="44.47142" lon="6.54796">
        <ele>1726</ele>
        <time>2021-02-21T05:02:19Z</time>
      </trkpt>
      <trkpt lat="44.47142" lon="6.54796">
        <ele>1726</ele>
        <time>2021-02-21T05:02:20Z</time>
      </trkpt>
      <trkpt lat="44.47142" lon="6.54796">
        <ele>1726</ele>
        <time>2021-02-21T05:02:21Z</time>
      </trkpt>
      <trkpt lat="44.47142" lon="6.54796">
        <ele>1726</ele>
        <time>2021-02-21T05:02:22Z</time>
      </trkpt>
      <trkpt lat="44.47142" lon="6.54796">
        <ele>1726</ele>
        <time>2021-02-21T05:02:23Z</time>
      </trkpt>
      <trkpt lat="44.47142" lon="6.54796">
        <ele>1726</ele>
        <time>2021-02-21T05:02:24Z</time>
      </trkpt>
      <trkpt lat="44.47142" lon="6.54796">
        <ele>1726</ele>
        <time>2021-02-21T05:02:25Z</time>
      </trkpt>
      <trkpt lat="44.47142" lon="6.54796">
        <ele>1726</ele>
        <time>2021-02-21T05:02:26Z</time>
      </trkpt>
      <trkpt lat="44.47142" lon="6.54796">
        <ele>1726</ele>
        <time>2021-02-21T05:02:27Z</time>
      </trkpt>
      <trkpt lat="44.47142" lon="6.54796">
        <ele>1726</ele>
        <time>2021-02-21T05:02:28Z</time>
      </trkpt>
      <trkpt lat="44.47142" lon="6.54796">
        <ele>1726</ele>
        <time>2021-02-21T05:02:29Z</time>
      </trkpt>
      <trkpt lat="44.47142" lon="6.54802">
        <ele>1725</ele>
        <time>2021-02-21T05:02:30Z</time>
      </trkpt>
      <trkpt lat="44.47141" lon="6.54802">
        <ele>1724</ele>
        <time>2021-02-21T05:02:31Z</time>
      </trkpt>
      <trkpt lat="44.4714" lon="6.54802">
        <ele>1724</ele>
        <time>2021-02-21T05:02:32Z</time>
      </trkpt>
      <trkpt lat="44.47139" lon="6.54802">
        <ele>1724</ele>
        <time>2021-02-21T05:02:33Z</time>
      </trkpt>
      <trkpt lat="44.47138" lon="6.54802">
        <ele>1724</ele>
        <time>2021-02-21T05:02:34Z</time>
      </trkpt>
      <trkpt lat="44.47137" lon="6.54803">
        <ele>1724</ele>
        <time>2021-02-21T05:02:35Z</time>
      </trkpt>
      <trkpt lat="44.47136" lon="6.54803">
        <ele>1724</ele>
        <time>2021-02-21T05:02:36Z</time>
      </trkpt>
      <trkpt lat="44.47135" lon="6.54803">
        <ele>1724</ele>
        <time>2021-02-21T05:02:37Z</time>
      </trkpt>
      <trkpt lat="44.47135" lon="6.54803">
        <ele>1724</ele>
        <time>2021-02-21T05:02:38Z</time>
      </trkpt>
      <trkpt lat="44.47134" lon="6.54802">
        <ele>1724</ele>
        <time>2021-02-21T05:02:39Z</time>
      </trkpt>
      <trkpt lat="44.47133" lon="6.54802">
        <ele>1724</ele>
        <time>2021-02-21T05:02:40Z</time>
      </trkpt>
      <trkpt lat="44.47132" lon="6.54801">
        <ele>1724</ele>
        <time>2021-02-21T05:02:41Z</time>
      </trkpt>
      <trkpt lat="44.47132" lon="6.54801">
        <ele>1724</ele>
        <time>2021-02-21T05:02:42Z</time>
      </trkpt>
      <trkpt lat="44.47131" lon="6.54802">
        <ele>1724</ele>
        <time>2021-02-21T05:02:43Z</time>
      </trkpt>
      <trkpt lat="44.4713" lon="6.54802">
        <ele>1724</ele>
        <time>2021-02-21T05:02:44Z</time>
      </trkpt>
      <trkpt lat="44.47129" lon="6.54802">
        <ele>1724</ele>
        <time>2021-02-21T05:02:45Z</time>
      </trkpt>
      <trkpt lat="44.47129" lon="6.54802">
        <ele>1724</ele>
        <time>2021-02-21T05:02:46Z</time>
      </trkpt>
      <trkpt lat="44.47127" lon="6.54801">
        <ele>1724</ele>
        <time>2021-02-21T05:02:47Z</time>
      </trkpt>
      <trkpt lat="44.47126" lon="6.54802">
        <ele>1724</ele>
        <time>2021-02-21T05:02:48Z</time>
      </trkpt>
      <trkpt lat="44.47126" lon="6.54803">
        <ele>1724</ele>
        <time>2021-02-21T05:02:49Z</time>
      </trkpt>
      <trkpt lat="44.47125" lon="6.54803">
        <ele>1724</ele>
        <time>2021-02-21T05:02:50Z</time>
      </trkpt>
      <trkpt lat="44.47124" lon="6.54803">
        <ele>1724</ele>
        <time>2021-02-21T05:02:51Z</time>
      </trkpt>
      <trkpt lat="44.47123" lon="6.54803">
        <ele>1724</ele>
        <time>2021-02-21T05:02:52Z</time>
      </trkpt>
      <trkpt lat="44.47122" lon="6.54803">
        <ele>1724</ele>
        <time>2021-02-21T05:02:53Z</time>
      </trkpt>
      <trkpt lat="44.47121" lon="6.54803">
        <ele>1724</ele>
        <time>2021-02-21T05:02:54Z</time>
      </trkpt>
      <trkpt lat="44.47121" lon="6.54804">
        <ele>1724</ele>
        <time>2021-02-21T05:02:55Z</time>
      </trkpt>
      <trkpt lat="44.4712" lon="6.54804">
        <ele>1724</ele>
        <time>2021-02-21T05:02:56Z</time>
      </trkpt>
      <trkpt lat="44.47119" lon="6.54804">
        <ele>1724</ele>
        <time>2021-02-21T05:02:57Z</time>
      </trkpt>
      <trkpt lat="44.47118" lon="6.54805">
        <ele>1724</ele>
        <time>2021-02-21T05:02:58Z</time>
      </trkpt>
      <trkpt lat="44.47117" lon="6.54805">
        <ele>1724</ele>
        <time>2021-02-21T05:02:59Z</time>
      </trkpt>
      <trkpt lat="44.47116" lon="6.54805">
        <ele>1725</ele>
        <time>2021-02-21T05:03:00Z</time>
      </trkpt>
      <trkpt lat="44.47115" lon="6.54806">
        <ele>1725</ele>
        <time>2021-02-21T05:03:01Z</time>
      </trkpt>
      <trkpt lat="44.47115" lon="6.54806">
        <ele>1725</ele>
        <time>2021-02-21T05:03:02Z</time>
      </trkpt>
      <trkpt lat="44.47115" lon="6.54807">
        <ele>1725</ele>
        <time>2021-02-21T05:03:03Z</time>
      </trkpt>
      <trkpt lat="44.47114" lon="6.54807">
        <ele>1725</ele>
        <time>2021-02-21T05:03:04Z</time>
      </trkpt>
      <trkpt lat="44.47114" lon="6.54808">
        <ele>1725</ele>
        <time>2021-02-21T05:03:05Z</time>
      </trkpt>
      <trkpt lat="44.47113" lon="6.54808">
        <ele>1725</ele>
        <time>2021-02-21T05:03:06Z</time>
      </trkpt>
      <trkpt lat="44.47112" lon="6.54808">
        <ele>1725</ele>
        <time>2021-02-21T05:03:07Z</time>
      </trkpt>
      <trkpt lat="44.47112" lon="6.54809">
        <ele>1725</ele>
        <time>2021-02-21T05:03:08Z</time>
      </trkpt>
      <trkpt lat="44.47111" lon="6.54809">
        <ele>1725</ele>
        <time>2021-02-21T05:03:09Z</time>
      </trkpt>
      <trkpt lat="44.47111" lon="6.54808">
        <ele>1725</ele>
        <time>2021-02-21T05:03:10Z</time>
      </trkpt>
      <trkpt lat="44.4711" lon="6.54808">
        <ele>1725</ele>
        <time>2021-02-21T05:03:11Z</time>
      </trkpt>
      <trkpt lat="44.4711" lon="6.54808">
        <ele>1725</ele>
        <time>2021-02-21T05:03:12Z</time>
      </trkpt>
      <trkpt lat="44.4711" lon="6.54808">
        <ele>1725</ele>
        <time>2021-02-21T05:03:13Z</time>
      </trkpt>
      <trkpt lat="44.4711" lon="6.54808">
        <ele>1725</ele>
        <time>2021-02-21T05:03:14Z</time>
      </trkpt>
      <trkpt lat="44.4711" lon="6.54809">
        <ele>1725</ele>
        <time>2021-02-21T05:03:15Z</time>
      </trkpt>
      <trkpt lat="44.4711" lon="6.54809">
        <ele>1725</ele>
        <time>2021-02-21T05:03:16Z</time>
      </trkpt>
      <trkpt lat="44.47109" lon="6.54809">
        <ele>1725</ele>
        <time>2021-02-21T05:03:17Z</time>
      </trkpt>
      <trkpt lat="44.4711" lon="6.54808">
        <ele>1726</ele>
        <time>2021-02-21T05:03:18Z</time>
      </trkpt>
      <trkpt lat="44.4711" lon="6.54808">
        <ele>1726</ele>
        <time>2021-02-21T05:03:19Z</time>
      </trkpt>
      <trkpt lat="44.4711" lon="6.54808">
        <ele>1726</ele>
        <time>2021-02-21T05:03:20Z</time>
      </trkpt>
      <trkpt lat="44.4711" lon="6.54808">
        <ele>1726</ele>
        <time>2021-02-21T05:03:21Z</time>
      </trkpt>
      <trkpt lat="44.4711" lon="6.54808">
        <ele>1726</ele>
        <time>2021-02-21T05:03:22Z</time>
      </trkpt>
      <trkpt lat="44.4711" lon="6.54808">
        <ele>1726</ele>
        <time>2021-02-21T05:03:23Z</time>
      </trkpt>
      <trkpt lat="44.4711" lon="6.54808">
        <ele>1726</ele>
        <time>2021-02-21T05:03:24Z</time>
      </trkpt>
      <trkpt lat="44.4711" lon="6.54808">
        <ele>1726</ele>
        <time>2021-02-21T05:03:25Z</time>
      </trkpt>
      <trkpt lat="44.4711" lon="6.54808">
        <ele>1726</ele>
        <time>2021-02-21T05:03:26Z</time>
      </trkpt>
      <trkpt lat="44.4711" lon="6.54808">
        <ele>1726</ele>
        <time>2021-02-21T05:03:27Z</time>
      </trkpt>
      <trkpt lat="44.4711" lon="6.54808">
        <ele>1726</ele>
        <time>2021-02-21T05:03:28Z</time>
      </trkpt>
      <trkpt lat="44.4711" lon="6.54808">
        <ele>1726</ele>
        <time>2021-02-21T05:03:29Z</time>
      </trkpt>
      <trkpt lat="44.4711" lon="6.54808">
        <ele>1726</ele>
        <time>2021-02-21T05:03:30Z</time>
      </trkpt>
      <trkpt lat="44.4711" lon="6.54808">
        <ele>1726</ele>
        <time>2021-02-21T05:03:31Z</time>
      </trkpt>
      <trkpt lat="44.4711" lon="6.54808">
        <ele>1726</ele>
        <time>2021-02-21T05:03:32Z</time>
      </trkpt>
      <trkpt lat="44.4711" lon="6.54808">
        <ele>1726</ele>
        <time>2021-02-21T05:03:33Z</time>
      </trkpt>
      <trkpt lat="44.4711" lon="6.54808">
        <ele>1726</ele>
        <time>2021-02-21T05:03:34Z</time>
      </trkpt>
      <trkpt lat="44.4711" lon="6.54808">
        <ele>1726</ele>
        <time>2021-02-21T05:03:35Z</time>
      </trkpt>
      <trkpt lat="44.4711" lon="6.54808">
        <ele>1726</ele>
        <time>2021-02-21T05:03:36Z</time>
      </trkpt>
      <trkpt lat="44.4711" lon="6.54808">
        <ele>1726</ele>
        <time>2021-02-21T05:03:37Z</time>
      </trkpt>
      <trkpt lat="44.4711" lon="6.54808">
        <ele>1726</ele>
        <time>2021-02-21T05:03:38Z</time>
      </trkpt>
      <trkpt lat="44.4711" lon="6.54808">
        <ele>1726</ele>
        <time>2021-02-21T05:03:39Z</time>
      </trkpt>
      <trkpt lat="44.47104" lon="6.54812">
        <ele>1731</ele>
        <time>2021-02-21T05:03:40Z</time>
      </trkpt>
      <trkpt lat="44.47103" lon="6.54812">
        <ele>1733</ele>
        <time>2021-02-21T05:03:41Z</time>
      </trkpt>
      <trkpt lat="44.47102" lon="6.54812">
        <ele>1734</ele>
        <time>2021-02-21T05:03:42Z</time>
      </trkpt>
      <trkpt lat="44.47102" lon="6.54812">
        <ele>1734</ele>
        <time>2021-02-21T05:03:43Z</time>
      </trkpt>
      <trkpt lat="44.47101" lon="6.54812">
        <ele>1734</ele>
        <time>2021-02-21T05:03:44Z</time>
      </trkpt>
      <trkpt lat="44.471" lon="6.54813">
        <ele>1735</ele>
        <time>2021-02-21T05:03:45Z</time>
      </trkpt>
      <trkpt lat="44.471" lon="6.54813">
        <ele>1735</ele>
        <time>2021-02-21T05:03:46Z</time>
      </trkpt>
      <trkpt lat="44.47099" lon="6.54813">
        <ele>1735</ele>
        <time>2021-02-21T05:03:47Z</time>
      </trkpt>
      <trkpt lat="44.47098" lon="6.54813">
        <ele>1735</ele>
        <time>2021-02-21T05:03:48Z</time>
      </trkpt>
      <trkpt lat="44.47097" lon="6.54813">
        <ele>1735</ele>
        <time>2021-02-21T05:03:49Z</time>
      </trkpt>
      <trkpt lat="44.47097" lon="6.54814">
        <ele>1735</ele>
        <time>2021-02-21T05:03:50Z</time>
      </trkpt>
      <trkpt lat="44.47096" lon="6.54814">
        <ele>1735</ele>
        <time>2021-02-21T05:03:51Z</time>
      </trkpt>
      <trkpt lat="44.47095" lon="6.54814">
        <ele>1735</ele>
        <time>2021-02-21T05:03:52Z</time>
      </trkpt>
      <trkpt lat="44.47094" lon="6.54815">
        <ele>1735</ele>
        <time>2021-02-21T05:03:53Z</time>
      </trkpt>
      <trkpt lat="44.47093" lon="6.54815">
        <ele>1735</ele>
        <time>2021-02-21T05:03:54Z</time>
      </trkpt>
      <trkpt lat="44.47092" lon="6.54816">
        <ele>1735</ele>
        <time>2021-02-21T05:03:55Z</time>
      </trkpt>
      <trkpt lat="44.47092" lon="6.54817">
        <ele>1735</ele>
        <time>2021-02-21T05:03:56Z</time>
      </trkpt>
      <trkpt lat="44.47091" lon="6.54818">
        <ele>1735</ele>
        <time>2021-02-21T05:03:57Z</time>
      </trkpt>
      <trkpt lat="44.4709" lon="6.54819">
        <ele>1735</ele>
        <time>2021-02-21T05:03:58Z</time>
      </trkpt>
      <trkpt lat="44.4709" lon="6.5482">
        <ele>1734</ele>
        <time>2021-02-21T05:03:59Z</time>
      </trkpt>
      <trkpt lat="44.47089" lon="6.5482">
        <ele>1734</ele>
        <time>2021-02-21T05:04:00Z</time>
      </trkpt>
      <trkpt lat="44.47088" lon="6.54821">
        <ele>1734</ele>
        <time>2021-02-21T05:04:01Z</time>
      </trkpt>
      <trkpt lat="44.47088" lon="6.54822">
        <ele>1733</ele>
        <time>2021-02-21T05:04:02Z</time>
      </trkpt>
      <trkpt lat="44.47087" lon="6.54822">
        <ele>1733</ele>
        <time>2021-02-21T05:04:03Z</time>
      </trkpt>
      <trkpt lat="44.47086" lon="6.54823">
        <ele>1733</ele>
        <time>2021-02-21T05:04:04Z</time>
      </trkpt>
      <trkpt lat="44.47085" lon="6.54824">
        <ele>1732</ele>
        <time>2021-02-21T05:04:05Z</time>
      </trkpt>
      <trkpt lat="44.47084" lon="6.54824">
        <ele>1732</ele>
        <time>2021-02-21T05:04:06Z</time>
      </trkpt>
      <trkpt lat="44.47084" lon="6.54825">
        <ele>1731</ele>
        <time>2021-02-21T05:04:07Z</time>
      </trkpt>
      <trkpt lat="44.47083" lon="6.54826">
        <ele>1731</ele>
        <time>2021-02-21T05:04:08Z</time>
      </trkpt>
      <trkpt lat="44.47083" lon="6.54827">
        <ele>1730</ele>
        <time>2021-02-21T05:04:09Z</time>
      </trkpt>
      <trkpt lat="44.47082" lon="6.54829">
        <ele>1730</ele>
        <time>2021-02-21T05:04:10Z</time>
      </trkpt>
      <trkpt lat="44.47082" lon="6.5483">
        <ele>1729</ele>
        <time>2021-02-21T05:04:11Z</time>
      </trkpt>
      <trkpt lat="44.47081" lon="6.5483">
        <ele>1729</ele>
        <time>2021-02-21T05:04:12Z</time>
      </trkpt>
      <trkpt lat="44.47081" lon="6.54831">
        <ele>1728</ele>
        <time>2021-02-21T05:04:13Z</time>
      </trkpt>
      <trkpt lat="44.4708" lon="6.54832">
        <ele>1728</ele>
        <time>2021-02-21T05:04:14Z</time>
      </trkpt>
      <trkpt lat="44.47079" lon="6.54833">
        <ele>1727</ele>
        <time>2021-02-21T05:04:15Z</time>
      </trkpt>
      <trkpt lat="44.47078" lon="6.54834">
        <ele>1727</ele>
        <time>2021-02-21T05:04:16Z</time>
      </trkpt>
      <trkpt lat="44.47077" lon="6.54835">
        <ele>1726</ele>
        <time>2021-02-21T05:04:17Z</time>
      </trkpt>
      <trkpt lat="44.47076" lon="6.54836">
        <ele>1726</ele>
        <time>2021-02-21T05:04:18Z</time>
      </trkpt>
      <trkpt lat="44.47076" lon="6.54837">
        <ele>1726</ele>
        <time>2021-02-21T05:04:19Z</time>
      </trkpt>
      <trkpt lat="44.47075" lon="6.54837">
        <ele>1726</ele>
        <time>2021-02-21T05:04:20Z</time>
      </trkpt>
      <trkpt lat="44.47074" lon="6.54838">
        <ele>1725</ele>
        <time>2021-02-21T05:04:21Z</time>
      </trkpt>
      <trkpt lat="44.47072" lon="6.54839">
        <ele>1725</ele>
        <time>2021-02-21T05:04:22Z</time>
      </trkpt>
      <trkpt lat="44.47072" lon="6.5484">
        <ele>1725</ele>
        <time>2021-02-21T05:04:23Z</time>
      </trkpt>
      <trkpt lat="44.47071" lon="6.54841">
        <ele>1725</ele>
        <time>2021-02-21T05:04:24Z</time>
      </trkpt>
      <trkpt lat="44.4707" lon="6.54841">
        <ele>1725</ele>
        <time>2021-02-21T05:04:25Z</time>
      </trkpt>
      <trkpt lat="44.47069" lon="6.54842">
        <ele>1724</ele>
        <time>2021-02-21T05:04:26Z</time>
      </trkpt>
      <trkpt lat="44.47068" lon="6.54842">
        <ele>1724</ele>
        <time>2021-02-21T05:04:27Z</time>
      </trkpt>
      <trkpt lat="44.47067" lon="6.54843">
        <ele>1724</ele>
        <time>2021-02-21T05:04:28Z</time>
      </trkpt>
      <trkpt lat="44.47066" lon="6.54844">
        <ele>1724</ele>
        <time>2021-02-21T05:04:29Z</time>
      </trkpt>
      <trkpt lat="44.47065" lon="6.54844">
        <ele>1724</ele>
        <time>2021-02-21T05:04:30Z</time>
      </trkpt>
      <trkpt lat="44.47064" lon="6.54845">
        <ele>1724</ele>
        <time>2021-02-21T05:04:31Z</time>
      </trkpt>
      <trkpt lat="44.47063" lon="6.54846">
        <ele>1724</ele>
        <time>2021-02-21T05:04:32Z</time>
      </trkpt>
      <trkpt lat="44.47062" lon="6.54847">
        <ele>1724</ele>
        <time>2021-02-21T05:04:33Z</time>
      </trkpt>
      <trkpt lat="44.4706" lon="6.54847">
        <ele>1724</ele>
        <time>2021-02-21T05:04:34Z</time>
      </trkpt>
      <trkpt lat="44.4706" lon="6.54848">
        <ele>1725</ele>
        <time>2021-02-21T05:04:35Z</time>
      </trkpt>
      <trkpt lat="44.47059" lon="6.54849">
        <ele>1725</ele>
        <time>2021-02-21T05:04:36Z</time>
      </trkpt>
      <trkpt lat="44.47059" lon="6.5485">
        <ele>1725</ele>
        <time>2021-02-21T05:04:37Z</time>
      </trkpt>
      <trkpt lat="44.47059" lon="6.54851">
        <ele>1725</ele>
        <time>2021-02-21T05:04:38Z</time>
      </trkpt>
      <trkpt lat="44.47059" lon="6.54852">
        <ele>1725</ele>
        <time>2021-02-21T05:04:39Z</time>
      </trkpt>
      <trkpt lat="44.47059" lon="6.54854">
        <ele>1725</ele>
        <time>2021-02-21T05:04:40Z</time>
      </trkpt>
      <trkpt lat="44.47058" lon="6.54854">
        <ele>1725</ele>
        <time>2021-02-21T05:04:41Z</time>
      </trkpt>
      <trkpt lat="44.47057" lon="6.54855">
        <ele>1725</ele>
        <time>2021-02-21T05:04:42Z</time>
      </trkpt>
      <trkpt lat="44.47056" lon="6.54855">
        <ele>1725</ele>
        <time>2021-02-21T05:04:43Z</time>
      </trkpt>
      <trkpt lat="44.47055" lon="6.54856">
        <ele>1725</ele>
        <time>2021-02-21T05:04:44Z</time>
      </trkpt>
      <trkpt lat="44.47054" lon="6.54858">
        <ele>1725</ele>
        <time>2021-02-21T05:04:45Z</time>
      </trkpt>
      <trkpt lat="44.47054" lon="6.54858">
        <ele>1725</ele>
        <time>2021-02-21T05:04:46Z</time>
      </trkpt>
      <trkpt lat="44.47053" lon="6.54858">
        <ele>1726</ele>
        <time>2021-02-21T05:04:47Z</time>
      </trkpt>
      <trkpt lat="44.47051" lon="6.54859">
        <ele>1726</ele>
        <time>2021-02-21T05:04:48Z</time>
      </trkpt>
      <trkpt lat="44.4705" lon="6.54859">
        <ele>1726</ele>
        <time>2021-02-21T05:04:49Z</time>
      </trkpt>
      <trkpt lat="44.47049" lon="6.5486">
        <ele>1726</ele>
        <time>2021-02-21T05:04:50Z</time>
      </trkpt>
      <trkpt lat="44.47048" lon="6.5486">
        <ele>1726</ele>
        <time>2021-02-21T05:04:51Z</time>
      </trkpt>
      <trkpt lat="44.47048" lon="6.54862">
        <ele>1726</ele>
        <time>2021-02-21T05:04:52Z</time>
      </trkpt>
      <trkpt lat="44.47047" lon="6.54862">
        <ele>1726</ele>
        <time>2021-02-21T05:04:53Z</time>
      </trkpt>
      <trkpt lat="44.47045" lon="6.54863">
        <ele>1726</ele>
        <time>2021-02-21T05:04:54Z</time>
      </trkpt>
      <trkpt lat="44.47044" lon="6.54864">
        <ele>1726</ele>
        <time>2021-02-21T05:04:55Z</time>
      </trkpt>
      <trkpt lat="44.47043" lon="6.54864">
        <ele>1727</ele>
        <time>2021-02-21T05:04:56Z</time>
      </trkpt>
      <trkpt lat="44.47042" lon="6.54865">
        <ele>1727</ele>
        <time>2021-02-21T05:04:57Z</time>
      </trkpt>
      <trkpt lat="44.47041" lon="6.54866">
        <ele>1727</ele>
        <time>2021-02-21T05:04:58Z</time>
      </trkpt>
      <trkpt lat="44.4704" lon="6.54866">
        <ele>1727</ele>
        <time>2021-02-21T05:04:59Z</time>
      </trkpt>
      <trkpt lat="44.47039" lon="6.54866">
        <ele>1728</ele>
        <time>2021-02-21T05:05:00Z</time>
      </trkpt>
      <trkpt lat="44.47038" lon="6.54867">
        <ele>1728</ele>
        <time>2021-02-21T05:05:01Z</time>
      </trkpt>
      <trkpt lat="44.47037" lon="6.54867">
        <ele>1728</ele>
        <time>2021-02-21T05:05:02Z</time>
      </trkpt>
      <trkpt lat="44.47036" lon="6.54867">
        <ele>1729</ele>
        <time>2021-02-21T05:05:03Z</time>
      </trkpt>
      <trkpt lat="44.47035" lon="6.54867">
        <ele>1729</ele>
        <time>2021-02-21T05:05:04Z</time>
      </trkpt>
      <trkpt lat="44.47034" lon="6.54868">
        <ele>1729</ele>
        <time>2021-02-21T05:05:05Z</time>
      </trkpt>
      <trkpt lat="44.47033" lon="6.54869">
        <ele>1730</ele>
        <time>2021-02-21T05:05:06Z</time>
      </trkpt>
      <trkpt lat="44.47032" lon="6.54869">
        <ele>1730</ele>
        <time>2021-02-21T05:05:07Z</time>
      </trkpt>
      <trkpt lat="44.47031" lon="6.54869">
        <ele>1730</ele>
        <time>2021-02-21T05:05:08Z</time>
      </trkpt>
      <trkpt lat="44.4703" lon="6.54869">
        <ele>1731</ele>
        <time>2021-02-21T05:05:09Z</time>
      </trkpt>
      <trkpt lat="44.47029" lon="6.54869">
        <ele>1731</ele>
        <time>2021-02-21T05:05:10Z</time>
      </trkpt>
      <trkpt lat="44.47028" lon="6.54869">
        <ele>1731</ele>
        <time>2021-02-21T05:05:11Z</time>
      </trkpt>
      <trkpt lat="44.47027" lon="6.54869">
        <ele>1732</ele>
        <time>2021-02-21T05:05:12Z</time>
      </trkpt>
      <trkpt lat="44.47026" lon="6.5487">
        <ele>1732</ele>
        <time>2021-02-21T05:05:13Z</time>
      </trkpt>
      <trkpt lat="44.47025" lon="6.54869">
        <ele>1732</ele>
        <time>2021-02-21T05:05:14Z</time>
      </trkpt>
      <trkpt lat="44.47023" lon="6.5487">
        <ele>1732</ele>
        <time>2021-02-21T05:05:15Z</time>
      </trkpt>
      <trkpt lat="44.47022" lon="6.5487">
        <ele>1733</ele>
        <time>2021-02-21T05:05:16Z</time>
      </trkpt>
      <trkpt lat="44.47021" lon="6.54871">
        <ele>1733</ele>
        <time>2021-02-21T05:05:17Z</time>
      </trkpt>
      <trkpt lat="44.4702" lon="6.54871">
        <ele>1733</ele>
        <time>2021-02-21T05:05:18Z</time>
      </trkpt>
      <trkpt lat="44.47019" lon="6.54871">
        <ele>1733</ele>
        <time>2021-02-21T05:05:19Z</time>
      </trkpt>
      <trkpt lat="44.47018" lon="6.54871">
        <ele>1734</ele>
        <time>2021-02-21T05:05:20Z</time>
      </trkpt>
      <trkpt lat="44.47017" lon="6.54871">
        <ele>1734</ele>
        <time>2021-02-21T05:05:21Z</time>
      </trkpt>
      <trkpt lat="44.47016" lon="6.5487">
        <ele>1734</ele>
        <time>2021-02-21T05:05:22Z</time>
      </trkpt>
      <trkpt lat="44.47015" lon="6.5487">
        <ele>1734</ele>
        <time>2021-02-21T05:05:23Z</time>
      </trkpt>
      <trkpt lat="44.47014" lon="6.5487">
        <ele>1735</ele>
        <time>2021-02-21T05:05:24Z</time>
      </trkpt>
      <trkpt lat="44.47013" lon="6.5487">
        <ele>1735</ele>
        <time>2021-02-21T05:05:25Z</time>
      </trkpt>
      <trkpt lat="44.47012" lon="6.5487">
        <ele>1735</ele>
        <time>2021-02-21T05:05:26Z</time>
      </trkpt>
      <trkpt lat="44.47011" lon="6.5487">
        <ele>1735</ele>
        <time>2021-02-21T05:05:27Z</time>
      </trkpt>
      <trkpt lat="44.4701" lon="6.5487">
        <ele>1736</ele>
        <time>2021-02-21T05:05:28Z</time>
      </trkpt>
      <trkpt lat="44.47009" lon="6.5487">
        <ele>1736</ele>
        <time>2021-02-21T05:05:29Z</time>
      </trkpt>
      <trkpt lat="44.47008" lon="6.54869">
        <ele>1737</ele>
        <time>2021-02-21T05:05:30Z</time>
      </trkpt>
      <trkpt lat="44.47007" lon="6.54869">
        <ele>1737</ele>
        <time>2021-02-21T05:05:31Z</time>
      </trkpt>
      <trkpt lat="44.47007" lon="6.54869">
        <ele>1737</ele>
        <time>2021-02-21T05:05:32Z</time>
      </trkpt>
      <trkpt lat="44.47007" lon="6.54869">
        <ele>1738</ele>
        <time>2021-02-21T05:05:33Z</time>
      </trkpt>
      <trkpt lat="44.47006" lon="6.54869">
        <ele>1738</ele>
        <time>2021-02-21T05:05:34Z</time>
      </trkpt>
      <trkpt lat="44.47005" lon="6.54868">
        <ele>1739</ele>
        <time>2021-02-21T05:05:35Z</time>
      </trkpt>
      <trkpt lat="44.47004" lon="6.54868">
        <ele>1739</ele>
        <time>2021-02-21T05:05:36Z</time>
      </trkpt>
      <trkpt lat="44.47003" lon="6.54868">
        <ele>1739</ele>
        <time>2021-02-21T05:05:37Z</time>
      </trkpt>
      <trkpt lat="44.47002" lon="6.54868">
        <ele>1739</ele>
        <time>2021-02-21T05:05:38Z</time>
      </trkpt>
      <trkpt lat="44.47001" lon="6.54868">
        <ele>1740</ele>
        <time>2021-02-21T05:05:39Z</time>
      </trkpt>
      <trkpt lat="44.47" lon="6.54867">
        <ele>1740</ele>
        <time>2021-02-21T05:05:40Z</time>
      </trkpt>
      <trkpt lat="44.46999" lon="6.54867">
        <ele>1740</ele>
        <time>2021-02-21T05:05:41Z</time>
      </trkpt>
      <trkpt lat="44.46998" lon="6.54867">
        <ele>1741</ele>
        <time>2021-02-21T05:05:42Z</time>
      </trkpt>
      <trkpt lat="44.46997" lon="6.54867">
        <ele>1741</ele>
        <time>2021-02-21T05:05:43Z</time>
      </trkpt>
      <trkpt lat="44.46997" lon="6.54867">
        <ele>1741</ele>
        <time>2021-02-21T05:05:44Z</time>
      </trkpt>
      <trkpt lat="44.46996" lon="6.54867">
        <ele>1741</ele>
        <time>2021-02-21T05:05:45Z</time>
      </trkpt>
      <trkpt lat="44.46995" lon="6.54867">
        <ele>1741</ele>
        <time>2021-02-21T05:05:46Z</time>
      </trkpt>
      <trkpt lat="44.46995" lon="6.54867">
        <ele>1741</ele>
        <time>2021-02-21T05:05:47Z</time>
      </trkpt>
      <trkpt lat="44.46994" lon="6.54868">
        <ele>1741</ele>
        <time>2021-02-21T05:05:48Z</time>
      </trkpt>
      <trkpt lat="44.46993" lon="6.54868">
        <ele>1742</ele>
        <time>2021-02-21T05:05:49Z</time>
      </trkpt>
      <trkpt lat="44.46992" lon="6.54869">
        <ele>1742</ele>
        <time>2021-02-21T05:05:50Z</time>
      </trkpt>
      <trkpt lat="44.46991" lon="6.54869">
        <ele>1742</ele>
        <time>2021-02-21T05:05:51Z</time>
      </trkpt>
      <trkpt lat="44.4699" lon="6.54869">
        <ele>1742</ele>
        <time>2021-02-21T05:05:52Z</time>
      </trkpt>
      <trkpt lat="44.46989" lon="6.54868">
        <ele>1741</ele>
        <time>2021-02-21T05:05:53Z</time>
      </trkpt>
      <trkpt lat="44.46987" lon="6.54868">
        <ele>1741</ele>
        <time>2021-02-21T05:05:54Z</time>
      </trkpt>
      <trkpt lat="44.46987" lon="6.54867">
        <ele>1742</ele>
        <time>2021-02-21T05:05:55Z</time>
      </trkpt>
      <trkpt lat="44.46986" lon="6.54867">
        <ele>1742</ele>
        <time>2021-02-21T05:05:56Z</time>
      </trkpt>
      <trkpt lat="44.46985" lon="6.54867">
        <ele>1742</ele>
        <time>2021-02-21T05:05:57Z</time>
      </trkpt>
      <trkpt lat="44.46983" lon="6.54867">
        <ele>1742</ele>
        <time>2021-02-21T05:05:58Z</time>
      </trkpt>
      <trkpt lat="44.46983" lon="6.54868">
        <ele>1742</ele>
        <time>2021-02-21T05:05:59Z</time>
      </trkpt>
      <trkpt lat="44.46982" lon="6.54868">
        <ele>1742</ele>
        <time>2021-02-21T05:06:00Z</time>
      </trkpt>
      <trkpt lat="44.46981" lon="6.54869">
        <ele>1742</ele>
        <time>2021-02-21T05:06:01Z</time>
      </trkpt>
      <trkpt lat="44.46979" lon="6.54867">
        <ele>1743</ele>
        <time>2021-02-21T05:06:02Z</time>
      </trkpt>
      <trkpt lat="44.46979" lon="6.54867">
        <ele>1743</ele>
        <time>2021-02-21T05:06:03Z</time>
      </trkpt>
      <trkpt lat="44.46978" lon="6.54868">
        <ele>1743</ele>
        <time>2021-02-21T05:06:04Z</time>
      </trkpt>
      <trkpt lat="44.46976" lon="6.54867">
        <ele>1743</ele>
        <time>2021-02-21T05:06:05Z</time>
      </trkpt>
      <trkpt lat="44.46975" lon="6.54868">
        <ele>1743</ele>
        <time>2021-02-21T05:06:06Z</time>
      </trkpt>
      <trkpt lat="44.46974" lon="6.54868">
        <ele>1743</ele>
        <time>2021-02-21T05:06:07Z</time>
      </trkpt>
      <trkpt lat="44.46973" lon="6.54868">
        <ele>1743</ele>
        <time>2021-02-21T05:06:08Z</time>
      </trkpt>
      <trkpt lat="44.46972" lon="6.54868">
        <ele>1743</ele>
        <time>2021-02-21T05:06:09Z</time>
      </trkpt>
      <trkpt lat="44.46971" lon="6.54869">
        <ele>1743</ele>
        <time>2021-02-21T05:06:10Z</time>
      </trkpt>
      <trkpt lat="44.4697" lon="6.54869">
        <ele>1743</ele>
        <time>2021-02-21T05:06:11Z</time>
      </trkpt>
      <trkpt lat="44.46969" lon="6.54869">
        <ele>1743</ele>
        <time>2021-02-21T05:06:12Z</time>
      </trkpt>
      <trkpt lat="44.46968" lon="6.54869">
        <ele>1743</ele>
        <time>2021-02-21T05:06:13Z</time>
      </trkpt>
      <trkpt lat="44.46968" lon="6.54869">
        <ele>1743</ele>
        <time>2021-02-21T05:06:14Z</time>
      </trkpt>
      <trkpt lat="44.46967" lon="6.54869">
        <ele>1743</ele>
        <time>2021-02-21T05:06:15Z</time>
      </trkpt>
      <trkpt lat="44.46966" lon="6.54869">
        <ele>1743</ele>
        <time>2021-02-21T05:06:16Z</time>
      </trkpt>
      <trkpt lat="44.46965" lon="6.5487">
        <ele>1743</ele>
        <time>2021-02-21T05:06:17Z</time>
      </trkpt>
      <trkpt lat="44.46965" lon="6.5487">
        <ele>1743</ele>
        <time>2021-02-21T05:06:18Z</time>
      </trkpt>
      <trkpt lat="44.46964" lon="6.5487">
        <ele>1743</ele>
        <time>2021-02-21T05:06:19Z</time>
      </trkpt>
      <trkpt lat="44.46964" lon="6.5487">
        <ele>1744</ele>
        <time>2021-02-21T05:06:20Z</time>
      </trkpt>
      <trkpt lat="44.46962" lon="6.5487">
        <ele>1744</ele>
        <time>2021-02-21T05:06:21Z</time>
      </trkpt>
      <trkpt lat="44.46962" lon="6.5487">
        <ele>1744</ele>
        <time>2021-02-21T05:06:22Z</time>
      </trkpt>
      <trkpt lat="44.46961" lon="6.54869">
        <ele>1744</ele>
        <time>2021-02-21T05:06:23Z</time>
      </trkpt>
      <trkpt lat="44.46959" lon="6.54869">
        <ele>1744</ele>
        <time>2021-02-21T05:06:24Z</time>
      </trkpt>
      <trkpt lat="44.46958" lon="6.54868">
        <ele>1744</ele>
        <time>2021-02-21T05:06:25Z</time>
      </trkpt>
      <trkpt lat="44.46957" lon="6.54867">
        <ele>1745</ele>
        <time>2021-02-21T05:06:26Z</time>
      </trkpt>
      <trkpt lat="44.46956" lon="6.54867">
        <ele>1745</ele>
        <time>2021-02-21T05:06:27Z</time>
      </trkpt>
      <trkpt lat="44.46955" lon="6.54867">
        <ele>1745</ele>
        <time>2021-02-21T05:06:28Z</time>
      </trkpt>
      <trkpt lat="44.46954" lon="6.54866">
        <ele>1745</ele>
        <time>2021-02-21T05:06:29Z</time>
      </trkpt>
      <trkpt lat="44.46953" lon="6.54866">
        <ele>1745</ele>
        <time>2021-02-21T05:06:30Z</time>
      </trkpt>
      <trkpt lat="44.46952" lon="6.54866">
        <ele>1745</ele>
        <time>2021-02-21T05:06:31Z</time>
      </trkpt>
      <trkpt lat="44.46951" lon="6.54866">
        <ele>1745</ele>
        <time>2021-02-21T05:06:32Z</time>
      </trkpt>
      <trkpt lat="44.4695" lon="6.54866">
        <ele>1746</ele>
        <time>2021-02-21T05:06:33Z</time>
      </trkpt>
      <trkpt lat="44.46949" lon="6.54866">
        <ele>1746</ele>
        <time>2021-02-21T05:06:34Z</time>
      </trkpt>
      <trkpt lat="44.46948" lon="6.54866">
        <ele>1746</ele>
        <time>2021-02-21T05:06:35Z</time>
      </trkpt>
      <trkpt lat="44.46947" lon="6.54866">
        <ele>1746</ele>
        <time>2021-02-21T05:06:36Z</time>
      </trkpt>
      <trkpt lat="44.46946" lon="6.54866">
        <ele>1746</ele>
        <time>2021-02-21T05:06:37Z</time>
      </trkpt>
      <trkpt lat="44.46945" lon="6.54867">
        <ele>1746</ele>
        <time>2021-02-21T05:06:38Z</time>
      </trkpt>
      <trkpt lat="44.46944" lon="6.54867">
        <ele>1746</ele>
        <time>2021-02-21T05:06:39Z</time>
      </trkpt>
      <trkpt lat="44.46943" lon="6.54867">
        <ele>1746</ele>
        <time>2021-02-21T05:06:40Z</time>
      </trkpt>
      <trkpt lat="44.46942" lon="6.54867">
        <ele>1746</ele>
        <time>2021-02-21T05:06:41Z</time>
      </trkpt>
      <trkpt lat="44.46941" lon="6.54867">
        <ele>1746</ele>
        <time>2021-02-21T05:06:42Z</time>
      </trkpt>
      <trkpt lat="44.4694" lon="6.54867">
        <ele>1746</ele>
        <time>2021-02-21T05:06:43Z</time>
      </trkpt>
      <trkpt lat="44.46939" lon="6.54866">
        <ele>1746</ele>
        <time>2021-02-21T05:06:44Z</time>
      </trkpt>
      <trkpt lat="44.46938" lon="6.54866">
        <ele>1746</ele>
        <time>2021-02-21T05:06:45Z</time>
      </trkpt>
      <trkpt lat="44.46937" lon="6.54866">
        <ele>1746</ele>
        <time>2021-02-21T05:06:46Z</time>
      </trkpt>
      <trkpt lat="44.46935" lon="6.54866">
        <ele>1747</ele>
        <time>2021-02-21T05:06:47Z</time>
      </trkpt>
      <trkpt lat="44.46934" lon="6.54866">
        <ele>1747</ele>
        <time>2021-02-21T05:06:48Z</time>
      </trkpt>
      <trkpt lat="44.46933" lon="6.54867">
        <ele>1747</ele>
        <time>2021-02-21T05:06:49Z</time>
      </trkpt>
      <trkpt lat="44.46932" lon="6.54867">
        <ele>1747</ele>
        <time>2021-02-21T05:06:50Z</time>
      </trkpt>
      <trkpt lat="44.46931" lon="6.54867">
        <ele>1747</ele>
        <time>2021-02-21T05:06:51Z</time>
      </trkpt>
      <trkpt lat="44.4693" lon="6.54868">
        <ele>1747</ele>
        <time>2021-02-21T05:06:52Z</time>
      </trkpt>
      <trkpt lat="44.46929" lon="6.54868">
        <ele>1747</ele>
        <time>2021-02-21T05:06:53Z</time>
      </trkpt>
      <trkpt lat="44.46928" lon="6.54869">
        <ele>1747</ele>
        <time>2021-02-21T05:06:54Z</time>
      </trkpt>
      <trkpt lat="44.46926" lon="6.54869">
        <ele>1747</ele>
        <time>2021-02-21T05:06:55Z</time>
      </trkpt>
      <trkpt lat="44.46925" lon="6.54869">
        <ele>1747</ele>
        <time>2021-02-21T05:06:56Z</time>
      </trkpt>
      <trkpt lat="44.46924" lon="6.5487">
        <ele>1747</ele>
        <time>2021-02-21T05:06:57Z</time>
      </trkpt>
      <trkpt lat="44.46924" lon="6.54871">
        <ele>1747</ele>
        <time>2021-02-21T05:06:58Z</time>
      </trkpt>
      <trkpt lat="44.46923" lon="6.54871">
        <ele>1747</ele>
        <time>2021-02-21T05:06:59Z</time>
      </trkpt>
      <trkpt lat="44.46922" lon="6.54872">
        <ele>1747</ele>
        <time>2021-02-21T05:07:00Z</time>
      </trkpt>
      <trkpt lat="44.46921" lon="6.54873">
        <ele>1747</ele>
        <time>2021-02-21T05:07:01Z</time>
      </trkpt>
      <trkpt lat="44.4692" lon="6.54874">
        <ele>1747</ele>
        <time>2021-02-21T05:07:02Z</time>
      </trkpt>
      <trkpt lat="44.46919" lon="6.54874">
        <ele>1747</ele>
        <time>2021-02-21T05:07:03Z</time>
      </trkpt>
      <trkpt lat="44.46918" lon="6.54875">
        <ele>1747</ele>
        <time>2021-02-21T05:07:04Z</time>
      </trkpt>
      <trkpt lat="44.46917" lon="6.54875">
        <ele>1747</ele>
        <time>2021-02-21T05:07:05Z</time>
      </trkpt>
      <trkpt lat="44.46916" lon="6.54875">
        <ele>1747</ele>
        <time>2021-02-21T05:07:06Z</time>
      </trkpt>
      <trkpt lat="44.46915" lon="6.54876">
        <ele>1748</ele>
        <time>2021-02-21T05:07:07Z</time>
      </trkpt>
      <trkpt lat="44.46914" lon="6.54876">
        <ele>1748</ele>
        <time>2021-02-21T05:07:08Z</time>
      </trkpt>
      <trkpt lat="44.46913" lon="6.54877">
        <ele>1748</ele>
        <time>2021-02-21T05:07:09Z</time>
      </trkpt>
      <trkpt lat="44.46912" lon="6.54878">
        <ele>1748</ele>
        <time>2021-02-21T05:07:10Z</time>
      </trkpt>
      <trkpt lat="44.46911" lon="6.54878">
        <ele>1748</ele>
        <time>2021-02-21T05:07:11Z</time>
      </trkpt>
      <trkpt lat="44.46911" lon="6.54879">
        <ele>1748</ele>
        <time>2021-02-21T05:07:12Z</time>
      </trkpt>
      <trkpt lat="44.4691" lon="6.54879">
        <ele>1748</ele>
        <time>2021-02-21T05:07:13Z</time>
      </trkpt>
      <trkpt lat="44.46909" lon="6.54879">
        <ele>1749</ele>
        <time>2021-02-21T05:07:14Z</time>
      </trkpt>
      <trkpt lat="44.46908" lon="6.5488">
        <ele>1749</ele>
        <time>2021-02-21T05:07:15Z</time>
      </trkpt>
      <trkpt lat="44.46908" lon="6.54881">
        <ele>1749</ele>
        <time>2021-02-21T05:07:16Z</time>
      </trkpt>
      <trkpt lat="44.46907" lon="6.54881">
        <ele>1749</ele>
        <time>2021-02-21T05:07:17Z</time>
      </trkpt>
      <trkpt lat="44.46906" lon="6.54882">
        <ele>1750</ele>
        <time>2021-02-21T05:07:18Z</time>
      </trkpt>
      <trkpt lat="44.46906" lon="6.54883">
        <ele>1750</ele>
        <time>2021-02-21T05:07:19Z</time>
      </trkpt>
      <trkpt lat="44.46905" lon="6.54883">
        <ele>1750</ele>
        <time>2021-02-21T05:07:20Z</time>
      </trkpt>
      <trkpt lat="44.46904" lon="6.54884">
        <ele>1750</ele>
        <time>2021-02-21T05:07:21Z</time>
      </trkpt>
      <trkpt lat="44.46904" lon="6.54885">
        <ele>1750</ele>
        <time>2021-02-21T05:07:22Z</time>
      </trkpt>
      <trkpt lat="44.46903" lon="6.54886">
        <ele>1750</ele>
        <time>2021-02-21T05:07:23Z</time>
      </trkpt>
      <trkpt lat="44.46903" lon="6.54887">
        <ele>1750</ele>
        <time>2021-02-21T05:07:24Z</time>
      </trkpt>
      <trkpt lat="44.46902" lon="6.54887">
        <ele>1751</ele>
        <time>2021-02-21T05:07:25Z</time>
      </trkpt>
      <trkpt lat="44.46902" lon="6.54888">
        <ele>1751</ele>
        <time>2021-02-21T05:07:26Z</time>
      </trkpt>
      <trkpt lat="44.46901" lon="6.5489">
        <ele>1751</ele>
        <time>2021-02-21T05:07:27Z</time>
      </trkpt>
      <trkpt lat="44.469" lon="6.5489">
        <ele>1751</ele>
        <time>2021-02-21T05:07:28Z</time>
      </trkpt>
      <trkpt lat="44.469" lon="6.54891">
        <ele>1751</ele>
        <time>2021-02-21T05:07:29Z</time>
      </trkpt>
      <trkpt lat="44.46899" lon="6.54892">
        <ele>1751</ele>
        <time>2021-02-21T05:07:30Z</time>
      </trkpt>
      <trkpt lat="44.46899" lon="6.54893">
        <ele>1751</ele>
        <time>2021-02-21T05:07:31Z</time>
      </trkpt>
      <trkpt lat="44.46899" lon="6.54893">
        <ele>1752</ele>
        <time>2021-02-21T05:07:32Z</time>
      </trkpt>
      <trkpt lat="44.46898" lon="6.54894">
        <ele>1752</ele>
        <time>2021-02-21T05:07:33Z</time>
      </trkpt>
      <trkpt lat="44.46898" lon="6.54895">
        <ele>1752</ele>
        <time>2021-02-21T05:07:34Z</time>
      </trkpt>
      <trkpt lat="44.46897" lon="6.54896">
        <ele>1752</ele>
        <time>2021-02-21T05:07:35Z</time>
      </trkpt>
      <trkpt lat="44.46896" lon="6.54897">
        <ele>1752</ele>
        <time>2021-02-21T05:07:36Z</time>
      </trkpt>
      <trkpt lat="44.46896" lon="6.54898">
        <ele>1753</ele>
        <time>2021-02-21T05:07:37Z</time>
      </trkpt>
      <trkpt lat="44.46896" lon="6.54899">
        <ele>1753</ele>
        <time>2021-02-21T05:07:38Z</time>
      </trkpt>
      <trkpt lat="44.46895" lon="6.54899">
        <ele>1753</ele>
        <time>2021-02-21T05:07:39Z</time>
      </trkpt>
      <trkpt lat="44.46894" lon="6.549">
        <ele>1753</ele>
        <time>2021-02-21T05:07:40Z</time>
      </trkpt>
      <trkpt lat="44.46894" lon="6.54902">
        <ele>1753</ele>
        <time>2021-02-21T05:07:41Z</time>
      </trkpt>
      <trkpt lat="44.46893" lon="6.54903">
        <ele>1754</ele>
        <time>2021-02-21T05:07:42Z</time>
      </trkpt>
      <trkpt lat="44.46893" lon="6.54904">
        <ele>1754</ele>
        <time>2021-02-21T05:07:43Z</time>
      </trkpt>
      <trkpt lat="44.46892" lon="6.54905">
        <ele>1754</ele>
        <time>2021-02-21T05:07:44Z</time>
      </trkpt>
      <trkpt lat="44.46891" lon="6.54907">
        <ele>1754</ele>
        <time>2021-02-21T05:07:45Z</time>
      </trkpt>
      <trkpt lat="44.46891" lon="6.54907">
        <ele>1754</ele>
        <time>2021-02-21T05:07:46Z</time>
      </trkpt>
      <trkpt lat="44.4689" lon="6.54909">
        <ele>1755</ele>
        <time>2021-02-21T05:07:47Z</time>
      </trkpt>
      <trkpt lat="44.4689" lon="6.54909">
        <ele>1755</ele>
        <time>2021-02-21T05:07:48Z</time>
      </trkpt>
      <trkpt lat="44.4689" lon="6.5491">
        <ele>1755</ele>
        <time>2021-02-21T05:07:49Z</time>
      </trkpt>
      <trkpt lat="44.46889" lon="6.54911">
        <ele>1755</ele>
        <time>2021-02-21T05:07:50Z</time>
      </trkpt>
      <trkpt lat="44.46889" lon="6.54912">
        <ele>1755</ele>
        <time>2021-02-21T05:07:51Z</time>
      </trkpt>
      <trkpt lat="44.46889" lon="6.54913">
        <ele>1756</ele>
        <time>2021-02-21T05:07:52Z</time>
      </trkpt>
      <trkpt lat="44.46889" lon="6.54915">
        <ele>1756</ele>
        <time>2021-02-21T05:07:53Z</time>
      </trkpt>
      <trkpt lat="44.46889" lon="6.54916">
        <ele>1756</ele>
        <time>2021-02-21T05:07:54Z</time>
      </trkpt>
      <trkpt lat="44.46888" lon="6.54917">
        <ele>1756</ele>
        <time>2021-02-21T05:07:55Z</time>
      </trkpt>
      <trkpt lat="44.46888" lon="6.54918">
        <ele>1756</ele>
        <time>2021-02-21T05:07:56Z</time>
      </trkpt>
      <trkpt lat="44.46887" lon="6.54919">
        <ele>1757</ele>
        <time>2021-02-21T05:07:57Z</time>
      </trkpt>
      <trkpt lat="44.46887" lon="6.5492">
        <ele>1757</ele>
        <time>2021-02-21T05:07:58Z</time>
      </trkpt>
      <trkpt lat="44.46887" lon="6.54921">
        <ele>1757</ele>
        <time>2021-02-21T05:07:59Z</time>
      </trkpt>
      <trkpt lat="44.46887" lon="6.54922">
        <ele>1757</ele>
        <time>2021-02-21T05:08:00Z</time>
      </trkpt>
      <trkpt lat="44.46887" lon="6.54923">
        <ele>1757</ele>
        <time>2021-02-21T05:08:01Z</time>
      </trkpt>
      <trkpt lat="44.46887" lon="6.54924">
        <ele>1758</ele>
        <time>2021-02-21T05:08:02Z</time>
      </trkpt>
      <trkpt lat="44.46887" lon="6.54925">
        <ele>1758</ele>
        <time>2021-02-21T05:08:03Z</time>
      </trkpt>
      <trkpt lat="44.46887" lon="6.54926">
        <ele>1759</ele>
        <time>2021-02-21T05:08:04Z</time>
      </trkpt>
      <trkpt lat="44.46887" lon="6.54927">
        <ele>1759</ele>
        <time>2021-02-21T05:08:05Z</time>
      </trkpt>
      <trkpt lat="44.46887" lon="6.54927">
        <ele>1759</ele>
        <time>2021-02-21T05:08:06Z</time>
      </trkpt>
      <trkpt lat="44.46887" lon="6.54928">
        <ele>1759</ele>
        <time>2021-02-21T05:08:07Z</time>
      </trkpt>
      <trkpt lat="44.46887" lon="6.54929">
        <ele>1760</ele>
        <time>2021-02-21T05:08:08Z</time>
      </trkpt>
      <trkpt lat="44.46887" lon="6.5493">
        <ele>1760</ele>
        <time>2021-02-21T05:08:09Z</time>
      </trkpt>
      <trkpt lat="44.46887" lon="6.54931">
        <ele>1760</ele>
        <time>2021-02-21T05:08:10Z</time>
      </trkpt>
      <trkpt lat="44.46887" lon="6.54931">
        <ele>1761</ele>
        <time>2021-02-21T05:08:11Z</time>
      </trkpt>
      <trkpt lat="44.46886" lon="6.54932">
        <ele>1761</ele>
        <time>2021-02-21T05:08:12Z</time>
      </trkpt>
      <trkpt lat="44.46886" lon="6.54932">
        <ele>1761</ele>
        <time>2021-02-21T05:08:13Z</time>
      </trkpt>
      <trkpt lat="44.46886" lon="6.54933">
        <ele>1762</ele>
        <time>2021-02-21T05:08:14Z</time>
      </trkpt>
      <trkpt lat="44.46886" lon="6.54934">
        <ele>1762</ele>
        <time>2021-02-21T05:08:15Z</time>
      </trkpt>
      <trkpt lat="44.46886" lon="6.54935">
        <ele>1762</ele>
        <time>2021-02-21T05:08:16Z</time>
      </trkpt>
      <trkpt lat="44.46885" lon="6.54936">
        <ele>1762</ele>
        <time>2021-02-21T05:08:17Z</time>
      </trkpt>
      <trkpt lat="44.46885" lon="6.54937">
        <ele>1762</ele>
        <time>2021-02-21T05:08:18Z</time>
      </trkpt>
      <trkpt lat="44.46884" lon="6.54938">
        <ele>1763</ele>
        <time>2021-02-21T05:08:19Z</time>
      </trkpt>
      <trkpt lat="44.46884" lon="6.54939">
        <ele>1763</ele>
        <time>2021-02-21T05:08:20Z</time>
      </trkpt>
      <trkpt lat="44.46883" lon="6.5494">
        <ele>1763</ele>
        <time>2021-02-21T05:08:21Z</time>
      </trkpt>
      <trkpt lat="44.46882" lon="6.54941">
        <ele>1765</ele>
        <time>2021-02-21T05:08:22Z</time>
      </trkpt>
      <trkpt lat="44.46881" lon="6.54942">
        <ele>1765</ele>
        <time>2021-02-21T05:08:23Z</time>
      </trkpt>
      <trkpt lat="44.46881" lon="6.54943">
        <ele>1767</ele>
        <time>2021-02-21T05:08:24Z</time>
      </trkpt>
      <trkpt lat="44.4688" lon="6.54944">
        <ele>1768</ele>
        <time>2021-02-21T05:08:25Z</time>
      </trkpt>
      <trkpt lat="44.4688" lon="6.54944">
        <ele>1768</ele>
        <time>2021-02-21T05:08:26Z</time>
      </trkpt>
      <trkpt lat="44.46879" lon="6.54945">
        <ele>1769</ele>
        <time>2021-02-21T05:08:27Z</time>
      </trkpt>
      <trkpt lat="44.46879" lon="6.54946">
        <ele>1769</ele>
        <time>2021-02-21T05:08:28Z</time>
      </trkpt>
      <trkpt lat="44.46879" lon="6.54947">
        <ele>1769</ele>
        <time>2021-02-21T05:08:29Z</time>
      </trkpt>
      <trkpt lat="44.46878" lon="6.54948">
        <ele>1769</ele>
        <time>2021-02-21T05:08:30Z</time>
      </trkpt>
      <trkpt lat="44.46878" lon="6.54949">
        <ele>1769</ele>
        <time>2021-02-21T05:08:31Z</time>
      </trkpt>
      <trkpt lat="44.46878" lon="6.5495">
        <ele>1769</ele>
        <time>2021-02-21T05:08:32Z</time>
      </trkpt>
      <trkpt lat="44.46879" lon="6.54952">
        <ele>1768</ele>
        <time>2021-02-21T05:08:33Z</time>
      </trkpt>
      <trkpt lat="44.46879" lon="6.54953">
        <ele>1768</ele>
        <time>2021-02-21T05:08:34Z</time>
      </trkpt>
      <trkpt lat="44.4688" lon="6.54954">
        <ele>1768</ele>
        <time>2021-02-21T05:08:35Z</time>
      </trkpt>
      <trkpt lat="44.4688" lon="6.54955">
        <ele>1768</ele>
        <time>2021-02-21T05:08:36Z</time>
      </trkpt>
      <trkpt lat="44.46881" lon="6.54956">
        <ele>1768</ele>
        <time>2021-02-21T05:08:37Z</time>
      </trkpt>
      <trkpt lat="44.46882" lon="6.54956">
        <ele>1768</ele>
        <time>2021-02-21T05:08:38Z</time>
      </trkpt>
      <trkpt lat="44.46882" lon="6.54956">
        <ele>1768</ele>
        <time>2021-02-21T05:08:39Z</time>
      </trkpt>
      <trkpt lat="44.46883" lon="6.54957">
        <ele>1768</ele>
        <time>2021-02-21T05:08:40Z</time>
      </trkpt>
      <trkpt lat="44.46884" lon="6.54958">
        <ele>1768</ele>
        <time>2021-02-21T05:08:41Z</time>
      </trkpt>
      <trkpt lat="44.46884" lon="6.54959">
        <ele>1768</ele>
        <time>2021-02-21T05:08:42Z</time>
      </trkpt>
      <trkpt lat="44.46884" lon="6.5496">
        <ele>1768</ele>
        <time>2021-02-21T05:08:43Z</time>
      </trkpt>
      <trkpt lat="44.46885" lon="6.54961">
        <ele>1769</ele>
        <time>2021-02-21T05:08:44Z</time>
      </trkpt>
      <trkpt lat="44.46885" lon="6.54962">
        <ele>1769</ele>
        <time>2021-02-21T05:08:45Z</time>
      </trkpt>
      <trkpt lat="44.46885" lon="6.54963">
        <ele>1769</ele>
        <time>2021-02-21T05:08:46Z</time>
      </trkpt>
      <trkpt lat="44.46884" lon="6.54964">
        <ele>1769</ele>
        <time>2021-02-21T05:08:47Z</time>
      </trkpt>
      <trkpt lat="44.46884" lon="6.54964">
        <ele>1770</ele>
        <time>2021-02-21T05:08:48Z</time>
      </trkpt>
      <trkpt lat="44.46884" lon="6.54965">
        <ele>1770</ele>
        <time>2021-02-21T05:08:49Z</time>
      </trkpt>
      <trkpt lat="44.46884" lon="6.54967">
        <ele>1770</ele>
        <time>2021-02-21T05:08:50Z</time>
      </trkpt>
      <trkpt lat="44.46883" lon="6.54968">
        <ele>1770</ele>
        <time>2021-02-21T05:08:51Z</time>
      </trkpt>
      <trkpt lat="44.46883" lon="6.54969">
        <ele>1771</ele>
        <time>2021-02-21T05:08:52Z</time>
      </trkpt>
      <trkpt lat="44.46882" lon="6.5497">
        <ele>1771</ele>
        <time>2021-02-21T05:08:53Z</time>
      </trkpt>
      <trkpt lat="44.46882" lon="6.54971">
        <ele>1771</ele>
        <time>2021-02-21T05:08:54Z</time>
      </trkpt>
      <trkpt lat="44.46881" lon="6.54971">
        <ele>1772</ele>
        <time>2021-02-21T05:08:55Z</time>
      </trkpt>
      <trkpt lat="44.46881" lon="6.54972">
        <ele>1772</ele>
        <time>2021-02-21T05:08:56Z</time>
      </trkpt>
      <trkpt lat="44.4688" lon="6.54973">
        <ele>1772</ele>
        <time>2021-02-21T05:08:57Z</time>
      </trkpt>
      <trkpt lat="44.4688" lon="6.54974">
        <ele>1772</ele>
        <time>2021-02-21T05:08:58Z</time>
      </trkpt>
      <trkpt lat="44.4688" lon="6.54975">
        <ele>1772</ele>
        <time>2021-02-21T05:08:59Z</time>
      </trkpt>
      <trkpt lat="44.46879" lon="6.54976">
        <ele>1773</ele>
        <time>2021-02-21T05:09:00Z</time>
      </trkpt>
      <trkpt lat="44.46879" lon="6.54977">
        <ele>1773</ele>
        <time>2021-02-21T05:09:01Z</time>
      </trkpt>
      <trkpt lat="44.46878" lon="6.54978">
        <ele>1773</ele>
        <time>2021-02-21T05:09:02Z</time>
      </trkpt>
      <trkpt lat="44.46878" lon="6.54979">
        <ele>1773</ele>
        <time>2021-02-21T05:09:03Z</time>
      </trkpt>
      <trkpt lat="44.46877" lon="6.54979">
        <ele>1774</ele>
        <time>2021-02-21T05:09:04Z</time>
      </trkpt>
      <trkpt lat="44.46877" lon="6.5498">
        <ele>1774</ele>
        <time>2021-02-21T05:09:05Z</time>
      </trkpt>
      <trkpt lat="44.46876" lon="6.54981">
        <ele>1774</ele>
        <time>2021-02-21T05:09:06Z</time>
      </trkpt>
      <trkpt lat="44.46876" lon="6.54982">
        <ele>1774</ele>
        <time>2021-02-21T05:09:07Z</time>
      </trkpt>
      <trkpt lat="44.46875" lon="6.54983">
        <ele>1775</ele>
        <time>2021-02-21T05:09:08Z</time>
      </trkpt>
      <trkpt lat="44.46875" lon="6.54984">
        <ele>1775</ele>
        <time>2021-02-21T05:09:09Z</time>
      </trkpt>
      <trkpt lat="44.46874" lon="6.54986">
        <ele>1775</ele>
        <time>2021-02-21T05:09:10Z</time>
      </trkpt>
      <trkpt lat="44.46873" lon="6.54987">
        <ele>1775</ele>
        <time>2021-02-21T05:09:11Z</time>
      </trkpt>
      <trkpt lat="44.46873" lon="6.54987">
        <ele>1776</ele>
        <time>2021-02-21T05:09:12Z</time>
      </trkpt>
      <trkpt lat="44.46872" lon="6.54989">
        <ele>1775</ele>
        <time>2021-02-21T05:09:13Z</time>
      </trkpt>
      <trkpt lat="44.46872" lon="6.54989">
        <ele>1775</ele>
        <time>2021-02-21T05:09:14Z</time>
      </trkpt>
      <trkpt lat="44.46871" lon="6.5499">
        <ele>1775</ele>
        <time>2021-02-21T05:09:15Z</time>
      </trkpt>
      <trkpt lat="44.46871" lon="6.54991">
        <ele>1775</ele>
        <time>2021-02-21T05:09:16Z</time>
      </trkpt>
      <trkpt lat="44.46871" lon="6.54992">
        <ele>1775</ele>
        <time>2021-02-21T05:09:17Z</time>
      </trkpt>
      <trkpt lat="44.4687" lon="6.54993">
        <ele>1776</ele>
        <time>2021-02-21T05:09:18Z</time>
      </trkpt>
      <trkpt lat="44.46871" lon="6.54994">
        <ele>1776</ele>
        <time>2021-02-21T05:09:19Z</time>
      </trkpt>
      <trkpt lat="44.4687" lon="6.54996">
        <ele>1776</ele>
        <time>2021-02-21T05:09:20Z</time>
      </trkpt>
      <trkpt lat="44.4687" lon="6.54997">
        <ele>1777</ele>
        <time>2021-02-21T05:09:21Z</time>
      </trkpt>
      <trkpt lat="44.46869" lon="6.54998">
        <ele>1777</ele>
        <time>2021-02-21T05:09:22Z</time>
      </trkpt>
      <trkpt lat="44.4687" lon="6.55">
        <ele>1778</ele>
        <time>2021-02-21T05:09:23Z</time>
      </trkpt>
      <trkpt lat="44.4687" lon="6.55001">
        <ele>1778</ele>
        <time>2021-02-21T05:09:24Z</time>
      </trkpt>
      <trkpt lat="44.4687" lon="6.55002">
        <ele>1778</ele>
        <time>2021-02-21T05:09:25Z</time>
      </trkpt>
      <trkpt lat="44.4687" lon="6.55004">
        <ele>1779</ele>
        <time>2021-02-21T05:09:26Z</time>
      </trkpt>
      <trkpt lat="44.4687" lon="6.55005">
        <ele>1779</ele>
        <time>2021-02-21T05:09:27Z</time>
      </trkpt>
      <trkpt lat="44.4687" lon="6.55006">
        <ele>1779</ele>
        <time>2021-02-21T05:09:28Z</time>
      </trkpt>
      <trkpt lat="44.46871" lon="6.55007">
        <ele>1779</ele>
        <time>2021-02-21T05:09:29Z</time>
      </trkpt>
      <trkpt lat="44.46871" lon="6.55008">
        <ele>1780</ele>
        <time>2021-02-21T05:09:30Z</time>
      </trkpt>
      <trkpt lat="44.46871" lon="6.55009">
        <ele>1780</ele>
        <time>2021-02-21T05:09:31Z</time>
      </trkpt>
      <trkpt lat="44.46871" lon="6.5501">
        <ele>1780</ele>
        <time>2021-02-21T05:09:32Z</time>
      </trkpt>
      <trkpt lat="44.46871" lon="6.55012">
        <ele>1780</ele>
        <time>2021-02-21T05:09:33Z</time>
      </trkpt>
      <trkpt lat="44.46872" lon="6.55013">
        <ele>1780</ele>
        <time>2021-02-21T05:09:34Z</time>
      </trkpt>
      <trkpt lat="44.46872" lon="6.55014">
        <ele>1781</ele>
        <time>2021-02-21T05:09:35Z</time>
      </trkpt>
      <trkpt lat="44.46872" lon="6.55015">
        <ele>1781</ele>
        <time>2021-02-21T05:09:36Z</time>
      </trkpt>
      <trkpt lat="44.46872" lon="6.55016">
        <ele>1781</ele>
        <time>2021-02-21T05:09:37Z</time>
      </trkpt>
      <trkpt lat="44.46872" lon="6.55017">
        <ele>1781</ele>
        <time>2021-02-21T05:09:38Z</time>
      </trkpt>
      <trkpt lat="44.46872" lon="6.55018">
        <ele>1782</ele>
        <time>2021-02-21T05:09:39Z</time>
      </trkpt>
      <trkpt lat="44.46872" lon="6.55018">
        <ele>1782</ele>
        <time>2021-02-21T05:09:40Z</time>
      </trkpt>
      <trkpt lat="44.46872" lon="6.5502">
        <ele>1782</ele>
        <time>2021-02-21T05:09:41Z</time>
      </trkpt>
      <trkpt lat="44.46872" lon="6.5502">
        <ele>1782</ele>
        <time>2021-02-21T05:09:42Z</time>
      </trkpt>
      <trkpt lat="44.46871" lon="6.55021">
        <ele>1783</ele>
        <time>2021-02-21T05:09:43Z</time>
      </trkpt>
      <trkpt lat="44.46871" lon="6.55022">
        <ele>1783</ele>
        <time>2021-02-21T05:09:44Z</time>
      </trkpt>
      <trkpt lat="44.46871" lon="6.55022">
        <ele>1783</ele>
        <time>2021-02-21T05:09:45Z</time>
      </trkpt>
      <trkpt lat="44.46871" lon="6.55023">
        <ele>1783</ele>
        <time>2021-02-21T05:09:46Z</time>
      </trkpt>
      <trkpt lat="44.4687" lon="6.55024">
        <ele>1784</ele>
        <time>2021-02-21T05:09:47Z</time>
      </trkpt>
      <trkpt lat="44.46871" lon="6.55025">
        <ele>1784</ele>
        <time>2021-02-21T05:09:48Z</time>
      </trkpt>
      <trkpt lat="44.46871" lon="6.55026">
        <ele>1784</ele>
        <time>2021-02-21T05:09:49Z</time>
      </trkpt>
      <trkpt lat="44.4687" lon="6.55027">
        <ele>1784</ele>
        <time>2021-02-21T05:09:50Z</time>
      </trkpt>
      <trkpt lat="44.4687" lon="6.55028">
        <ele>1784</ele>
        <time>2021-02-21T05:09:51Z</time>
      </trkpt>
      <trkpt lat="44.4687" lon="6.55028">
        <ele>1785</ele>
        <time>2021-02-21T05:09:52Z</time>
      </trkpt>
      <trkpt lat="44.4687" lon="6.55029">
        <ele>1785</ele>
        <time>2021-02-21T05:09:53Z</time>
      </trkpt>
      <trkpt lat="44.46869" lon="6.55029">
        <ele>1785</ele>
        <time>2021-02-21T05:09:54Z</time>
      </trkpt>
      <trkpt lat="44.46869" lon="6.5503">
        <ele>1785</ele>
        <time>2021-02-21T05:09:55Z</time>
      </trkpt>
      <trkpt lat="44.46869" lon="6.55031">
        <ele>1785</ele>
        <time>2021-02-21T05:09:56Z</time>
      </trkpt>
      <trkpt lat="44.46868" lon="6.55032">
        <ele>1786</ele>
        <time>2021-02-21T05:09:57Z</time>
      </trkpt>
      <trkpt lat="44.46867" lon="6.55033">
        <ele>1786</ele>
        <time>2021-02-21T05:09:58Z</time>
      </trkpt>
      <trkpt lat="44.46867" lon="6.55034">
        <ele>1786</ele>
        <time>2021-02-21T05:09:59Z</time>
      </trkpt>
      <trkpt lat="44.46866" lon="6.55035">
        <ele>1786</ele>
        <time>2021-02-21T05:10:00Z</time>
      </trkpt>
      <trkpt lat="44.46865" lon="6.55035">
        <ele>1787</ele>
        <time>2021-02-21T05:10:01Z</time>
      </trkpt>
      <trkpt lat="44.46865" lon="6.55036">
        <ele>1788</ele>
        <time>2021-02-21T05:10:02Z</time>
      </trkpt>
      <trkpt lat="44.46865" lon="6.55037">
        <ele>1788</ele>
        <time>2021-02-21T05:10:03Z</time>
      </trkpt>
      <trkpt lat="44.46865" lon="6.55038">
        <ele>1788</ele>
        <time>2021-02-21T05:10:04Z</time>
      </trkpt>
      <trkpt lat="44.46865" lon="6.55039">
        <ele>1788</ele>
        <time>2021-02-21T05:10:05Z</time>
      </trkpt>
      <trkpt lat="44.46865" lon="6.5504">
        <ele>1788</ele>
        <time>2021-02-21T05:10:06Z</time>
      </trkpt>
      <trkpt lat="44.46865" lon="6.55041">
        <ele>1788</ele>
        <time>2021-02-21T05:10:07Z</time>
      </trkpt>
      <trkpt lat="44.46865" lon="6.55042">
        <ele>1788</ele>
        <time>2021-02-21T05:10:08Z</time>
      </trkpt>
      <trkpt lat="44.46864" lon="6.55042">
        <ele>1788</ele>
        <time>2021-02-21T05:10:09Z</time>
      </trkpt>
      <trkpt lat="44.46864" lon="6.55043">
        <ele>1788</ele>
        <time>2021-02-21T05:10:10Z</time>
      </trkpt>
      <trkpt lat="44.46864" lon="6.55044">
        <ele>1788</ele>
        <time>2021-02-21T05:10:11Z</time>
      </trkpt>
      <trkpt lat="44.46863" lon="6.55045">
        <ele>1788</ele>
        <time>2021-02-21T05:10:12Z</time>
      </trkpt>
      <trkpt lat="44.46863" lon="6.55045">
        <ele>1788</ele>
        <time>2021-02-21T05:10:13Z</time>
      </trkpt>
      <trkpt lat="44.46863" lon="6.55046">
        <ele>1788</ele>
        <time>2021-02-21T05:10:14Z</time>
      </trkpt>
      <trkpt lat="44.46862" lon="6.55047">
        <ele>1788</ele>
        <time>2021-02-21T05:10:15Z</time>
      </trkpt>
      <trkpt lat="44.46861" lon="6.55047">
        <ele>1788</ele>
        <time>2021-02-21T05:10:16Z</time>
      </trkpt>
      <trkpt lat="44.46861" lon="6.55048">
        <ele>1788</ele>
        <time>2021-02-21T05:10:17Z</time>
      </trkpt>
      <trkpt lat="44.46861" lon="6.55048">
        <ele>1788</ele>
        <time>2021-02-21T05:10:18Z</time>
      </trkpt>
      <trkpt lat="44.4686" lon="6.55049">
        <ele>1788</ele>
        <time>2021-02-21T05:10:19Z</time>
      </trkpt>
      <trkpt lat="44.4686" lon="6.55049">
        <ele>1788</ele>
        <time>2021-02-21T05:10:20Z</time>
      </trkpt>
      <trkpt lat="44.4686" lon="6.5505">
        <ele>1788</ele>
        <time>2021-02-21T05:10:21Z</time>
      </trkpt>
      <trkpt lat="44.4686" lon="6.55051">
        <ele>1788</ele>
        <time>2021-02-21T05:10:22Z</time>
      </trkpt>
      <trkpt lat="44.46859" lon="6.55052">
        <ele>1789</ele>
        <time>2021-02-21T05:10:23Z</time>
      </trkpt>
      <trkpt lat="44.46859" lon="6.55053">
        <ele>1789</ele>
        <time>2021-02-21T05:10:24Z</time>
      </trkpt>
      <trkpt lat="44.46859" lon="6.55053">
        <ele>1789</ele>
        <time>2021-02-21T05:10:25Z</time>
      </trkpt>
      <trkpt lat="44.46859" lon="6.55054">
        <ele>1789</ele>
        <time>2021-02-21T05:10:26Z</time>
      </trkpt>
      <trkpt lat="44.46859" lon="6.55055">
        <ele>1789</ele>
        <time>2021-02-21T05:10:27Z</time>
      </trkpt>
      <trkpt lat="44.46859" lon="6.55056">
        <ele>1789</ele>
        <time>2021-02-21T05:10:28Z</time>
      </trkpt>
      <trkpt lat="44.46859" lon="6.55056">
        <ele>1789</ele>
        <time>2021-02-21T05:10:29Z</time>
      </trkpt>
      <trkpt lat="44.46859" lon="6.55057">
        <ele>1789</ele>
        <time>2021-02-21T05:10:30Z</time>
      </trkpt>
      <trkpt lat="44.46859" lon="6.55058">
        <ele>1789</ele>
        <time>2021-02-21T05:10:31Z</time>
      </trkpt>
      <trkpt lat="44.46859" lon="6.55058">
        <ele>1789</ele>
        <time>2021-02-21T05:10:32Z</time>
      </trkpt>
      <trkpt lat="44.46858" lon="6.55059">
        <ele>1789</ele>
        <time>2021-02-21T05:10:33Z</time>
      </trkpt>
      <trkpt lat="44.46858" lon="6.55059">
        <ele>1789</ele>
        <time>2021-02-21T05:10:34Z</time>
      </trkpt>
      <trkpt lat="44.46858" lon="6.5506">
        <ele>1789</ele>
        <time>2021-02-21T05:10:35Z</time>
      </trkpt>
      <trkpt lat="44.46857" lon="6.5506">
        <ele>1789</ele>
        <time>2021-02-21T05:10:36Z</time>
      </trkpt>
      <trkpt lat="44.46857" lon="6.55061">
        <ele>1789</ele>
        <time>2021-02-21T05:10:37Z</time>
      </trkpt>
      <trkpt lat="44.46856" lon="6.55062">
        <ele>1789</ele>
        <time>2021-02-21T05:10:38Z</time>
      </trkpt>
      <trkpt lat="44.46856" lon="6.55063">
        <ele>1789</ele>
        <time>2021-02-21T05:10:39Z</time>
      </trkpt>
      <trkpt lat="44.46856" lon="6.55064">
        <ele>1789</ele>
        <time>2021-02-21T05:10:40Z</time>
      </trkpt>
      <trkpt lat="44.46856" lon="6.55066">
        <ele>1789</ele>
        <time>2021-02-21T05:10:41Z</time>
      </trkpt>
      <trkpt lat="44.46855" lon="6.55067">
        <ele>1789</ele>
        <time>2021-02-21T05:10:42Z</time>
      </trkpt>
      <trkpt lat="44.46854" lon="6.55068">
        <ele>1789</ele>
        <time>2021-02-21T05:10:43Z</time>
      </trkpt>
      <trkpt lat="44.46854" lon="6.55069">
        <ele>1789</ele>
        <time>2021-02-21T05:10:44Z</time>
      </trkpt>
      <trkpt lat="44.46854" lon="6.5507">
        <ele>1789</ele>
        <time>2021-02-21T05:10:45Z</time>
      </trkpt>
      <trkpt lat="44.46853" lon="6.55071">
        <ele>1790</ele>
        <time>2021-02-21T05:10:46Z</time>
      </trkpt>
      <trkpt lat="44.46853" lon="6.55073">
        <ele>1790</ele>
        <time>2021-02-21T05:10:47Z</time>
      </trkpt>
      <trkpt lat="44.46852" lon="6.55074">
        <ele>1790</ele>
        <time>2021-02-21T05:10:48Z</time>
      </trkpt>
      <trkpt lat="44.46852" lon="6.55075">
        <ele>1790</ele>
        <time>2021-02-21T05:10:49Z</time>
      </trkpt>
      <trkpt lat="44.46851" lon="6.55076">
        <ele>1790</ele>
        <time>2021-02-21T05:10:50Z</time>
      </trkpt>
      <trkpt lat="44.4685" lon="6.55078">
        <ele>1790</ele>
        <time>2021-02-21T05:10:51Z</time>
      </trkpt>
      <trkpt lat="44.4685" lon="6.55078">
        <ele>1791</ele>
        <time>2021-02-21T05:10:52Z</time>
      </trkpt>
      <trkpt lat="44.46849" lon="6.55079">
        <ele>1791</ele>
        <time>2021-02-21T05:10:53Z</time>
      </trkpt>
      <trkpt lat="44.46849" lon="6.55081">
        <ele>1791</ele>
        <time>2021-02-21T05:10:54Z</time>
      </trkpt>
      <trkpt lat="44.46849" lon="6.55082">
        <ele>1791</ele>
        <time>2021-02-21T05:10:55Z</time>
      </trkpt>
      <trkpt lat="44.46848" lon="6.55082">
        <ele>1792</ele>
        <time>2021-02-21T05:10:56Z</time>
      </trkpt>
      <trkpt lat="44.46848" lon="6.55083">
        <ele>1793</ele>
        <time>2021-02-21T05:10:57Z</time>
      </trkpt>
      <trkpt lat="44.46847" lon="6.55084">
        <ele>1793</ele>
        <time>2021-02-21T05:10:58Z</time>
      </trkpt>
      <trkpt lat="44.46847" lon="6.55085">
        <ele>1793</ele>
        <time>2021-02-21T05:10:59Z</time>
      </trkpt>
      <trkpt lat="44.46847" lon="6.55087">
        <ele>1794</ele>
        <time>2021-02-21T05:11:00Z</time>
      </trkpt>
      <trkpt lat="44.46847" lon="6.55088">
        <ele>1794</ele>
        <time>2021-02-21T05:11:01Z</time>
      </trkpt>
      <trkpt lat="44.46847" lon="6.55089">
        <ele>1795</ele>
        <time>2021-02-21T05:11:02Z</time>
      </trkpt>
      <trkpt lat="44.46846" lon="6.5509">
        <ele>1795</ele>
        <time>2021-02-21T05:11:03Z</time>
      </trkpt>
      <trkpt lat="44.46846" lon="6.55091">
        <ele>1796</ele>
        <time>2021-02-21T05:11:04Z</time>
      </trkpt>
      <trkpt lat="44.46845" lon="6.55093">
        <ele>1796</ele>
        <time>2021-02-21T05:11:05Z</time>
      </trkpt>
      <trkpt lat="44.46845" lon="6.55093">
        <ele>1796</ele>
        <time>2021-02-21T05:11:06Z</time>
      </trkpt>
      <trkpt lat="44.46844" lon="6.55094">
        <ele>1796</ele>
        <time>2021-02-21T05:11:07Z</time>
      </trkpt>
      <trkpt lat="44.46843" lon="6.55095">
        <ele>1797</ele>
        <time>2021-02-21T05:11:08Z</time>
      </trkpt>
      <trkpt lat="44.46843" lon="6.55096">
        <ele>1797</ele>
        <time>2021-02-21T05:11:09Z</time>
      </trkpt>
      <trkpt lat="44.46843" lon="6.55097">
        <ele>1797</ele>
        <time>2021-02-21T05:11:10Z</time>
      </trkpt>
      <trkpt lat="44.46843" lon="6.55098">
        <ele>1797</ele>
        <time>2021-02-21T05:11:11Z</time>
      </trkpt>
      <trkpt lat="44.46842" lon="6.55099">
        <ele>1798</ele>
        <time>2021-02-21T05:11:12Z</time>
      </trkpt>
      <trkpt lat="44.46841" lon="6.551">
        <ele>1798</ele>
        <time>2021-02-21T05:11:13Z</time>
      </trkpt>
      <trkpt lat="44.46841" lon="6.55101">
        <ele>1798</ele>
        <time>2021-02-21T05:11:14Z</time>
      </trkpt>
      <trkpt lat="44.4684" lon="6.55102">
        <ele>1798</ele>
        <time>2021-02-21T05:11:15Z</time>
      </trkpt>
      <trkpt lat="44.4684" lon="6.55103">
        <ele>1797</ele>
        <time>2021-02-21T05:11:16Z</time>
      </trkpt>
      <trkpt lat="44.46839" lon="6.55104">
        <ele>1797</ele>
        <time>2021-02-21T05:11:17Z</time>
      </trkpt>
      <trkpt lat="44.46839" lon="6.55105">
        <ele>1797</ele>
        <time>2021-02-21T05:11:18Z</time>
      </trkpt>
      <trkpt lat="44.46838" lon="6.55106">
        <ele>1797</ele>
        <time>2021-02-21T05:11:19Z</time>
      </trkpt>
      <trkpt lat="44.46837" lon="6.55106">
        <ele>1796</ele>
        <time>2021-02-21T05:11:20Z</time>
      </trkpt>
      <trkpt lat="44.46837" lon="6.55107">
        <ele>1796</ele>
        <time>2021-02-21T05:11:21Z</time>
      </trkpt>
      <trkpt lat="44.46837" lon="6.55108">
        <ele>1796</ele>
        <time>2021-02-21T05:11:22Z</time>
      </trkpt>
      <trkpt lat="44.46836" lon="6.55109">
        <ele>1796</ele>
        <time>2021-02-21T05:11:23Z</time>
      </trkpt>
      <trkpt lat="44.46836" lon="6.55109">
        <ele>1796</ele>
        <time>2021-02-21T05:11:24Z</time>
      </trkpt>
      <trkpt lat="44.46835" lon="6.5511">
        <ele>1795</ele>
        <time>2021-02-21T05:11:25Z</time>
      </trkpt>
      <trkpt lat="44.46834" lon="6.55111">
        <ele>1795</ele>
        <time>2021-02-21T05:11:26Z</time>
      </trkpt>
      <trkpt lat="44.46833" lon="6.55112">
        <ele>1795</ele>
        <time>2021-02-21T05:11:27Z</time>
      </trkpt>
      <trkpt lat="44.46833" lon="6.55113">
        <ele>1795</ele>
        <time>2021-02-21T05:11:28Z</time>
      </trkpt>
      <trkpt lat="44.46833" lon="6.55113">
        <ele>1795</ele>
        <time>2021-02-21T05:11:29Z</time>
      </trkpt>
      <trkpt lat="44.46832" lon="6.55114">
        <ele>1794</ele>
        <time>2021-02-21T05:11:30Z</time>
      </trkpt>
      <trkpt lat="44.46832" lon="6.55115">
        <ele>1794</ele>
        <time>2021-02-21T05:11:31Z</time>
      </trkpt>
      <trkpt lat="44.46831" lon="6.55116">
        <ele>1794</ele>
        <time>2021-02-21T05:11:32Z</time>
      </trkpt>
      <trkpt lat="44.46831" lon="6.55117">
        <ele>1794</ele>
        <time>2021-02-21T05:11:33Z</time>
      </trkpt>
      <trkpt lat="44.4683" lon="6.55118">
        <ele>1794</ele>
        <time>2021-02-21T05:11:34Z</time>
      </trkpt>
      <trkpt lat="44.4683" lon="6.55118">
        <ele>1794</ele>
        <time>2021-02-21T05:11:35Z</time>
      </trkpt>
      <trkpt lat="44.4683" lon="6.55119">
        <ele>1794</ele>
        <time>2021-02-21T05:11:36Z</time>
      </trkpt>
      <trkpt lat="44.4683" lon="6.5512">
        <ele>1794</ele>
        <time>2021-02-21T05:11:37Z</time>
      </trkpt>
      <trkpt lat="44.46829" lon="6.5512">
        <ele>1794</ele>
        <time>2021-02-21T05:11:38Z</time>
      </trkpt>
      <trkpt lat="44.46829" lon="6.55121">
        <ele>1794</ele>
        <time>2021-02-21T05:11:39Z</time>
      </trkpt>
      <trkpt lat="44.46829" lon="6.55122">
        <ele>1794</ele>
        <time>2021-02-21T05:11:40Z</time>
      </trkpt>
      <trkpt lat="44.46829" lon="6.55123">
        <ele>1794</ele>
        <time>2021-02-21T05:11:41Z</time>
      </trkpt>
      <trkpt lat="44.46829" lon="6.55123">
        <ele>1794</ele>
        <time>2021-02-21T05:11:42Z</time>
      </trkpt>
      <trkpt lat="44.46828" lon="6.55124">
        <ele>1794</ele>
        <time>2021-02-21T05:11:43Z</time>
      </trkpt>
      <trkpt lat="44.46828" lon="6.55124">
        <ele>1794</ele>
        <time>2021-02-21T05:11:44Z</time>
      </trkpt>
      <trkpt lat="44.46828" lon="6.55125">
        <ele>1794</ele>
        <time>2021-02-21T05:11:45Z</time>
      </trkpt>
      <trkpt lat="44.46827" lon="6.55125">
        <ele>1794</ele>
        <time>2021-02-21T05:11:46Z</time>
      </trkpt>
      <trkpt lat="44.46827" lon="6.55126">
        <ele>1794</ele>
        <time>2021-02-21T05:11:47Z</time>
      </trkpt>
      <trkpt lat="44.46827" lon="6.55126">
        <ele>1794</ele>
        <time>2021-02-21T05:11:48Z</time>
      </trkpt>
      <trkpt lat="44.46827" lon="6.55127">
        <ele>1794</ele>
        <time>2021-02-21T05:11:49Z</time>
      </trkpt>
      <trkpt lat="44.46826" lon="6.55128">
        <ele>1794</ele>
        <time>2021-02-21T05:11:50Z</time>
      </trkpt>
      <trkpt lat="44.46826" lon="6.55129">
        <ele>1794</ele>
        <time>2021-02-21T05:11:51Z</time>
      </trkpt>
      <trkpt lat="44.46826" lon="6.5513">
        <ele>1795</ele>
        <time>2021-02-21T05:11:52Z</time>
      </trkpt>
      <trkpt lat="44.46826" lon="6.55131">
        <ele>1795</ele>
        <time>2021-02-21T05:11:53Z</time>
      </trkpt>
      <trkpt lat="44.46825" lon="6.55131">
        <ele>1795</ele>
        <time>2021-02-21T05:11:54Z</time>
      </trkpt>
      <trkpt lat="44.46826" lon="6.55132">
        <ele>1795</ele>
        <time>2021-02-21T05:11:55Z</time>
      </trkpt>
      <trkpt lat="44.46826" lon="6.55133">
        <ele>1796</ele>
        <time>2021-02-21T05:11:56Z</time>
      </trkpt>
      <trkpt lat="44.46826" lon="6.55134">
        <ele>1796</ele>
        <time>2021-02-21T05:11:57Z</time>
      </trkpt>
      <trkpt lat="44.46826" lon="6.55135">
        <ele>1796</ele>
        <time>2021-02-21T05:11:58Z</time>
      </trkpt>
      <trkpt lat="44.46825" lon="6.55136">
        <ele>1797</ele>
        <time>2021-02-21T05:11:59Z</time>
      </trkpt>
      <trkpt lat="44.46824" lon="6.55137">
        <ele>1797</ele>
        <time>2021-02-21T05:12:00Z</time>
      </trkpt>
      <trkpt lat="44.46824" lon="6.55137">
        <ele>1797</ele>
        <time>2021-02-21T05:12:01Z</time>
      </trkpt>
      <trkpt lat="44.46824" lon="6.55138">
        <ele>1798</ele>
        <time>2021-02-21T05:12:02Z</time>
      </trkpt>
      <trkpt lat="44.46824" lon="6.55138">
        <ele>1798</ele>
        <time>2021-02-21T05:12:03Z</time>
      </trkpt>
      <trkpt lat="44.46823" lon="6.55139">
        <ele>1799</ele>
        <time>2021-02-21T05:12:04Z</time>
      </trkpt>
      <trkpt lat="44.46823" lon="6.5514">
        <ele>1799</ele>
        <time>2021-02-21T05:12:05Z</time>
      </trkpt>
      <trkpt lat="44.46822" lon="6.55141">
        <ele>1799</ele>
        <time>2021-02-21T05:12:06Z</time>
      </trkpt>
      <trkpt lat="44.46822" lon="6.55141">
        <ele>1800</ele>
        <time>2021-02-21T05:12:07Z</time>
      </trkpt>
      <trkpt lat="44.46822" lon="6.55142">
        <ele>1800</ele>
        <time>2021-02-21T05:12:08Z</time>
      </trkpt>
      <trkpt lat="44.46822" lon="6.55143">
        <ele>1800</ele>
        <time>2021-02-21T05:12:09Z</time>
      </trkpt>
      <trkpt lat="44.46821" lon="6.55144">
        <ele>1800</ele>
        <time>2021-02-21T05:12:10Z</time>
      </trkpt>
      <trkpt lat="44.46821" lon="6.55145">
        <ele>1800</ele>
        <time>2021-02-21T05:12:11Z</time>
      </trkpt>
      <trkpt lat="44.4682" lon="6.55146">
        <ele>1801</ele>
        <time>2021-02-21T05:12:12Z</time>
      </trkpt>
      <trkpt lat="44.46819" lon="6.55146">
        <ele>1801</ele>
        <time>2021-02-21T05:12:13Z</time>
      </trkpt>
      <trkpt lat="44.46819" lon="6.55147">
        <ele>1801</ele>
        <time>2021-02-21T05:12:14Z</time>
      </trkpt>
      <trkpt lat="44.46818" lon="6.55148">
        <ele>1802</ele>
        <time>2021-02-21T05:12:15Z</time>
      </trkpt>
      <trkpt lat="44.46818" lon="6.55149">
        <ele>1802</ele>
        <time>2021-02-21T05:12:16Z</time>
      </trkpt>
      <trkpt lat="44.46817" lon="6.55149">
        <ele>1803</ele>
        <time>2021-02-21T05:12:17Z</time>
      </trkpt>
      <trkpt lat="44.46817" lon="6.5515">
        <ele>1803</ele>
        <time>2021-02-21T05:12:18Z</time>
      </trkpt>
      <trkpt lat="44.46816" lon="6.55151">
        <ele>1803</ele>
        <time>2021-02-21T05:12:19Z</time>
      </trkpt>
      <trkpt lat="44.46816" lon="6.55152">
        <ele>1803</ele>
        <time>2021-02-21T05:12:20Z</time>
      </trkpt>
      <trkpt lat="44.46815" lon="6.55153">
        <ele>1804</ele>
        <time>2021-02-21T05:12:21Z</time>
      </trkpt>
      <trkpt lat="44.46815" lon="6.55153">
        <ele>1804</ele>
        <time>2021-02-21T05:12:22Z</time>
      </trkpt>
      <trkpt lat="44.46815" lon="6.55154">
        <ele>1804</ele>
        <time>2021-02-21T05:12:23Z</time>
      </trkpt>
      <trkpt lat="44.46814" lon="6.55154">
        <ele>1804</ele>
        <time>2021-02-21T05:12:24Z</time>
      </trkpt>
      <trkpt lat="44.46814" lon="6.55155">
        <ele>1804</ele>
        <time>2021-02-21T05:12:25Z</time>
      </trkpt>
      <trkpt lat="44.46813" lon="6.55155">
        <ele>1805</ele>
        <time>2021-02-21T05:12:26Z</time>
      </trkpt>
      <trkpt lat="44.46812" lon="6.55156">
        <ele>1805</ele>
        <time>2021-02-21T05:12:27Z</time>
      </trkpt>
      <trkpt lat="44.46812" lon="6.55156">
        <ele>1806</ele>
        <time>2021-02-21T05:12:28Z</time>
      </trkpt>
      <trkpt lat="44.46811" lon="6.55156">
        <ele>1806</ele>
        <time>2021-02-21T05:12:29Z</time>
      </trkpt>
      <trkpt lat="44.46811" lon="6.55157">
        <ele>1806</ele>
        <time>2021-02-21T05:12:30Z</time>
      </trkpt>
      <trkpt lat="44.46811" lon="6.55158">
        <ele>1806</ele>
        <time>2021-02-21T05:12:31Z</time>
      </trkpt>
      <trkpt lat="44.4681" lon="6.55158">
        <ele>1806</ele>
        <time>2021-02-21T05:12:32Z</time>
      </trkpt>
      <trkpt lat="44.4681" lon="6.55159">
        <ele>1807</ele>
        <time>2021-02-21T05:12:33Z</time>
      </trkpt>
      <trkpt lat="44.46809" lon="6.55159">
        <ele>1807</ele>
        <time>2021-02-21T05:12:34Z</time>
      </trkpt>
      <trkpt lat="44.46809" lon="6.5516">
        <ele>1808</ele>
        <time>2021-02-21T05:12:35Z</time>
      </trkpt>
      <trkpt lat="44.46808" lon="6.55161">
        <ele>1808</ele>
        <time>2021-02-21T05:12:36Z</time>
      </trkpt>
      <trkpt lat="44.46808" lon="6.55161">
        <ele>1809</ele>
        <time>2021-02-21T05:12:37Z</time>
      </trkpt>
      <trkpt lat="44.46807" lon="6.55162">
        <ele>1809</ele>
        <time>2021-02-21T05:12:38Z</time>
      </trkpt>
      <trkpt lat="44.46807" lon="6.55163">
        <ele>1809</ele>
        <time>2021-02-21T05:12:39Z</time>
      </trkpt>
      <trkpt lat="44.46806" lon="6.55163">
        <ele>1809</ele>
        <time>2021-02-21T05:12:40Z</time>
      </trkpt>
      <trkpt lat="44.46806" lon="6.55164">
        <ele>1809</ele>
        <time>2021-02-21T05:12:41Z</time>
      </trkpt>
      <trkpt lat="44.46805" lon="6.55164">
        <ele>1810</ele>
        <time>2021-02-21T05:12:42Z</time>
      </trkpt>
      <trkpt lat="44.46805" lon="6.55164">
        <ele>1810</ele>
        <time>2021-02-21T05:12:43Z</time>
      </trkpt>
      <trkpt lat="44.46804" lon="6.55165">
        <ele>1810</ele>
        <time>2021-02-21T05:12:44Z</time>
      </trkpt>
      <trkpt lat="44.46804" lon="6.55165">
        <ele>1811</ele>
        <time>2021-02-21T05:12:45Z</time>
      </trkpt>
      <trkpt lat="44.46804" lon="6.55166">
        <ele>1811</ele>
        <time>2021-02-21T05:12:46Z</time>
      </trkpt>
      <trkpt lat="44.46803" lon="6.55166">
        <ele>1811</ele>
        <time>2021-02-21T05:12:47Z</time>
      </trkpt>
      <trkpt lat="44.46802" lon="6.55167">
        <ele>1811</ele>
        <time>2021-02-21T05:12:48Z</time>
      </trkpt>
      <trkpt lat="44.46802" lon="6.55167">
        <ele>1812</ele>
        <time>2021-02-21T05:12:49Z</time>
      </trkpt>
      <trkpt lat="44.46802" lon="6.55168">
        <ele>1812</ele>
        <time>2021-02-21T05:12:50Z</time>
      </trkpt>
      <trkpt lat="44.46802" lon="6.55168">
        <ele>1812</ele>
        <time>2021-02-21T05:12:51Z</time>
      </trkpt>
      <trkpt lat="44.46802" lon="6.55169">
        <ele>1812</ele>
        <time>2021-02-21T05:12:52Z</time>
      </trkpt>
      <trkpt lat="44.46801" lon="6.5517">
        <ele>1812</ele>
        <time>2021-02-21T05:12:53Z</time>
      </trkpt>
      <trkpt lat="44.468" lon="6.55171">
        <ele>1812</ele>
        <time>2021-02-21T05:12:54Z</time>
      </trkpt>
      <trkpt lat="44.468" lon="6.55172">
        <ele>1813</ele>
        <time>2021-02-21T05:12:55Z</time>
      </trkpt>
      <trkpt lat="44.468" lon="6.55173">
        <ele>1813</ele>
        <time>2021-02-21T05:12:56Z</time>
      </trkpt>
      <trkpt lat="44.46799" lon="6.55173">
        <ele>1813</ele>
        <time>2021-02-21T05:12:57Z</time>
      </trkpt>
      <trkpt lat="44.46799" lon="6.55174">
        <ele>1813</ele>
        <time>2021-02-21T05:12:58Z</time>
      </trkpt>
      <trkpt lat="44.46798" lon="6.55174">
        <ele>1813</ele>
        <time>2021-02-21T05:12:59Z</time>
      </trkpt>
      <trkpt lat="44.46797" lon="6.55174">
        <ele>1813</ele>
        <time>2021-02-21T05:13:00Z</time>
      </trkpt>
      <trkpt lat="44.46796" lon="6.55175">
        <ele>1814</ele>
        <time>2021-02-21T05:13:01Z</time>
      </trkpt>
      <trkpt lat="44.46795" lon="6.55174">
        <ele>1814</ele>
        <time>2021-02-21T05:13:02Z</time>
      </trkpt>
      <trkpt lat="44.46794" lon="6.55174">
        <ele>1814</ele>
        <time>2021-02-21T05:13:03Z</time>
      </trkpt>
      <trkpt lat="44.46794" lon="6.55175">
        <ele>1814</ele>
        <time>2021-02-21T05:13:04Z</time>
      </trkpt>
      <trkpt lat="44.46794" lon="6.55176">
        <ele>1814</ele>
        <time>2021-02-21T05:13:05Z</time>
      </trkpt>
      <trkpt lat="44.46794" lon="6.55177">
        <ele>1815</ele>
        <time>2021-02-21T05:13:06Z</time>
      </trkpt>
      <trkpt lat="44.46794" lon="6.55177">
        <ele>1815</ele>
        <time>2021-02-21T05:13:07Z</time>
      </trkpt>
      <trkpt lat="44.46794" lon="6.55178">
        <ele>1815</ele>
        <time>2021-02-21T05:13:08Z</time>
      </trkpt>
      <trkpt lat="44.46794" lon="6.55179">
        <ele>1815</ele>
        <time>2021-02-21T05:13:09Z</time>
      </trkpt>
      <trkpt lat="44.46794" lon="6.5518">
        <ele>1816</ele>
        <time>2021-02-21T05:13:10Z</time>
      </trkpt>
      <trkpt lat="44.46793" lon="6.5518">
        <ele>1816</ele>
        <time>2021-02-21T05:13:11Z</time>
      </trkpt>
      <trkpt lat="44.46793" lon="6.55181">
        <ele>1816</ele>
        <time>2021-02-21T05:13:12Z</time>
      </trkpt>
      <trkpt lat="44.46792" lon="6.55182">
        <ele>1816</ele>
        <time>2021-02-21T05:13:13Z</time>
      </trkpt>
      <trkpt lat="44.46791" lon="6.55183">
        <ele>1817</ele>
        <time>2021-02-21T05:13:14Z</time>
      </trkpt>
      <trkpt lat="44.4679" lon="6.55184">
        <ele>1818</ele>
        <time>2021-02-21T05:13:15Z</time>
      </trkpt>
      <trkpt lat="44.46789" lon="6.55184">
        <ele>1818</ele>
        <time>2021-02-21T05:13:16Z</time>
      </trkpt>
      <trkpt lat="44.46789" lon="6.55184">
        <ele>1819</ele>
        <time>2021-02-21T05:13:17Z</time>
      </trkpt>
      <trkpt lat="44.46788" lon="6.55185">
        <ele>1819</ele>
        <time>2021-02-21T05:13:18Z</time>
      </trkpt>
      <trkpt lat="44.46788" lon="6.55186">
        <ele>1819</ele>
        <time>2021-02-21T05:13:19Z</time>
      </trkpt>
      <trkpt lat="44.46788" lon="6.55186">
        <ele>1820</ele>
        <time>2021-02-21T05:13:20Z</time>
      </trkpt>
      <trkpt lat="44.46787" lon="6.55186">
        <ele>1820</ele>
        <time>2021-02-21T05:13:21Z</time>
      </trkpt>
      <trkpt lat="44.46787" lon="6.55187">
        <ele>1820</ele>
        <time>2021-02-21T05:13:22Z</time>
      </trkpt>
      <trkpt lat="44.46786" lon="6.55187">
        <ele>1820</ele>
        <time>2021-02-21T05:13:23Z</time>
      </trkpt>
      <trkpt lat="44.46786" lon="6.55188">
        <ele>1820</ele>
        <time>2021-02-21T05:13:24Z</time>
      </trkpt>
      <trkpt lat="44.46786" lon="6.55188">
        <ele>1821</ele>
        <time>2021-02-21T05:13:25Z</time>
      </trkpt>
      <trkpt lat="44.46785" lon="6.55189">
        <ele>1821</ele>
        <time>2021-02-21T05:13:26Z</time>
      </trkpt>
      <trkpt lat="44.46785" lon="6.55189">
        <ele>1821</ele>
        <time>2021-02-21T05:13:27Z</time>
      </trkpt>
      <trkpt lat="44.46784" lon="6.5519">
        <ele>1821</ele>
        <time>2021-02-21T05:13:28Z</time>
      </trkpt>
      <trkpt lat="44.46784" lon="6.5519">
        <ele>1821</ele>
        <time>2021-02-21T05:13:29Z</time>
      </trkpt>
      <trkpt lat="44.46783" lon="6.5519">
        <ele>1822</ele>
        <time>2021-02-21T05:13:30Z</time>
      </trkpt>
      <trkpt lat="44.46782" lon="6.55191">
        <ele>1822</ele>
        <time>2021-02-21T05:13:31Z</time>
      </trkpt>
      <trkpt lat="44.46781" lon="6.55191">
        <ele>1822</ele>
        <time>2021-02-21T05:13:32Z</time>
      </trkpt>
      <trkpt lat="44.46781" lon="6.55192">
        <ele>1822</ele>
        <time>2021-02-21T05:13:33Z</time>
      </trkpt>
      <trkpt lat="44.4678" lon="6.55193">
        <ele>1822</ele>
        <time>2021-02-21T05:13:34Z</time>
      </trkpt>
      <trkpt lat="44.46779" lon="6.55193">
        <ele>1822</ele>
        <time>2021-02-21T05:13:35Z</time>
      </trkpt>
      <trkpt lat="44.46779" lon="6.55194">
        <ele>1822</ele>
        <time>2021-02-21T05:13:36Z</time>
      </trkpt>
      <trkpt lat="44.46778" lon="6.55193">
        <ele>1822</ele>
        <time>2021-02-21T05:13:37Z</time>
      </trkpt>
      <trkpt lat="44.46777" lon="6.55194">
        <ele>1823</ele>
        <time>2021-02-21T05:13:38Z</time>
      </trkpt>
      <trkpt lat="44.46777" lon="6.55195">
        <ele>1823</ele>
        <time>2021-02-21T05:13:39Z</time>
      </trkpt>
      <trkpt lat="44.46776" lon="6.55195">
        <ele>1823</ele>
        <time>2021-02-21T05:13:40Z</time>
      </trkpt>
      <trkpt lat="44.46776" lon="6.55196">
        <ele>1823</ele>
        <time>2021-02-21T05:13:41Z</time>
      </trkpt>
      <trkpt lat="44.46775" lon="6.55196">
        <ele>1823</ele>
        <time>2021-02-21T05:13:42Z</time>
      </trkpt>
      <trkpt lat="44.46775" lon="6.55197">
        <ele>1823</ele>
        <time>2021-02-21T05:13:43Z</time>
      </trkpt>
      <trkpt lat="44.46775" lon="6.55197">
        <ele>1824</ele>
        <time>2021-02-21T05:13:44Z</time>
      </trkpt>
      <trkpt lat="44.46775" lon="6.55198">
        <ele>1824</ele>
        <time>2021-02-21T05:13:45Z</time>
      </trkpt>
      <trkpt lat="44.46774" lon="6.55198">
        <ele>1824</ele>
        <time>2021-02-21T05:13:46Z</time>
      </trkpt>
      <trkpt lat="44.46774" lon="6.55199">
        <ele>1825</ele>
        <time>2021-02-21T05:13:47Z</time>
      </trkpt>
      <trkpt lat="44.46773" lon="6.552">
        <ele>1825</ele>
        <time>2021-02-21T05:13:48Z</time>
      </trkpt>
      <trkpt lat="44.46773" lon="6.552">
        <ele>1825</ele>
        <time>2021-02-21T05:13:49Z</time>
      </trkpt>
      <trkpt lat="44.46773" lon="6.552">
        <ele>1825</ele>
        <time>2021-02-21T05:13:50Z</time>
      </trkpt>
      <trkpt lat="44.46773" lon="6.552">
        <ele>1825</ele>
        <time>2021-02-21T05:13:51Z</time>
      </trkpt>
      <trkpt lat="44.46773" lon="6.552">
        <ele>1825</ele>
        <time>2021-02-21T05:13:52Z</time>
      </trkpt>
      <trkpt lat="44.46772" lon="6.55201">
        <ele>1826</ele>
        <time>2021-02-21T05:13:53Z</time>
      </trkpt>
      <trkpt lat="44.46771" lon="6.55201">
        <ele>1826</ele>
        <time>2021-02-21T05:13:54Z</time>
      </trkpt>
      <trkpt lat="44.46771" lon="6.55202">
        <ele>1826</ele>
        <time>2021-02-21T05:13:55Z</time>
      </trkpt>
      <trkpt lat="44.4677" lon="6.55203">
        <ele>1826</ele>
        <time>2021-02-21T05:13:56Z</time>
      </trkpt>
      <trkpt lat="44.4677" lon="6.55204">
        <ele>1826</ele>
        <time>2021-02-21T05:13:57Z</time>
      </trkpt>
      <trkpt lat="44.4677" lon="6.55204">
        <ele>1827</ele>
        <time>2021-02-21T05:13:58Z</time>
      </trkpt>
      <trkpt lat="44.46769" lon="6.55204">
        <ele>1827</ele>
        <time>2021-02-21T05:13:59Z</time>
      </trkpt>
      <trkpt lat="44.46769" lon="6.55205">
        <ele>1827</ele>
        <time>2021-02-21T05:14:00Z</time>
      </trkpt>
      <trkpt lat="44.46769" lon="6.55206">
        <ele>1827</ele>
        <time>2021-02-21T05:14:01Z</time>
      </trkpt>
      <trkpt lat="44.46768" lon="6.55206">
        <ele>1827</ele>
        <time>2021-02-21T05:14:02Z</time>
      </trkpt>
      <trkpt lat="44.46767" lon="6.55206">
        <ele>1827</ele>
        <time>2021-02-21T05:14:03Z</time>
      </trkpt>
      <trkpt lat="44.46767" lon="6.55207">
        <ele>1828</ele>
        <time>2021-02-21T05:14:04Z</time>
      </trkpt>
      <trkpt lat="44.46767" lon="6.55208">
        <ele>1828</ele>
        <time>2021-02-21T05:14:05Z</time>
      </trkpt>
      <trkpt lat="44.46766" lon="6.55209">
        <ele>1828</ele>
        <time>2021-02-21T05:14:06Z</time>
      </trkpt>
      <trkpt lat="44.46766" lon="6.5521">
        <ele>1828</ele>
        <time>2021-02-21T05:14:07Z</time>
      </trkpt>
      <trkpt lat="44.46766" lon="6.5521">
        <ele>1828</ele>
        <time>2021-02-21T05:14:08Z</time>
      </trkpt>
      <trkpt lat="44.46765" lon="6.55211">
        <ele>1828</ele>
        <time>2021-02-21T05:14:09Z</time>
      </trkpt>
      <trkpt lat="44.46764" lon="6.55213">
        <ele>1829</ele>
        <time>2021-02-21T05:14:10Z</time>
      </trkpt>
      <trkpt lat="44.46764" lon="6.55214">
        <ele>1829</ele>
        <time>2021-02-21T05:14:11Z</time>
      </trkpt>
      <trkpt lat="44.46763" lon="6.55214">
        <ele>1829</ele>
        <time>2021-02-21T05:14:12Z</time>
      </trkpt>
      <trkpt lat="44.46763" lon="6.55215">
        <ele>1829</ele>
        <time>2021-02-21T05:14:13Z</time>
      </trkpt>
      <trkpt lat="44.46762" lon="6.55216">
        <ele>1829</ele>
        <time>2021-02-21T05:14:14Z</time>
      </trkpt>
      <trkpt lat="44.46761" lon="6.55217">
        <ele>1829</ele>
        <time>2021-02-21T05:14:15Z</time>
      </trkpt>
      <trkpt lat="44.46761" lon="6.55217">
        <ele>1829</ele>
        <time>2021-02-21T05:14:16Z</time>
      </trkpt>
      <trkpt lat="44.46761" lon="6.55218">
        <ele>1829</ele>
        <time>2021-02-21T05:14:17Z</time>
      </trkpt>
      <trkpt lat="44.46761" lon="6.55218">
        <ele>1830</ele>
        <time>2021-02-21T05:14:18Z</time>
      </trkpt>
      <trkpt lat="44.4676" lon="6.55219">
        <ele>1830</ele>
        <time>2021-02-21T05:14:19Z</time>
      </trkpt>
      <trkpt lat="44.4676" lon="6.55219">
        <ele>1830</ele>
        <time>2021-02-21T05:14:20Z</time>
      </trkpt>
      <trkpt lat="44.46759" lon="6.5522">
        <ele>1830</ele>
        <time>2021-02-21T05:14:21Z</time>
      </trkpt>
      <trkpt lat="44.46759" lon="6.5522">
        <ele>1830</ele>
        <time>2021-02-21T05:14:22Z</time>
      </trkpt>
      <trkpt lat="44.46758" lon="6.5522">
        <ele>1830</ele>
        <time>2021-02-21T05:14:23Z</time>
      </trkpt>
      <trkpt lat="44.46758" lon="6.5522">
        <ele>1830</ele>
        <time>2021-02-21T05:14:24Z</time>
      </trkpt>
      <trkpt lat="44.46758" lon="6.5522">
        <ele>1831</ele>
        <time>2021-02-21T05:14:25Z</time>
      </trkpt>
      <trkpt lat="44.46757" lon="6.5522">
        <ele>1831</ele>
        <time>2021-02-21T05:14:26Z</time>
      </trkpt>
      <trkpt lat="44.46756" lon="6.55219">
        <ele>1832</ele>
        <time>2021-02-21T05:14:27Z</time>
      </trkpt>
      <trkpt lat="44.46755" lon="6.55219">
        <ele>1832</ele>
        <time>2021-02-21T05:14:28Z</time>
      </trkpt>
      <trkpt lat="44.46755" lon="6.55218">
        <ele>1832</ele>
        <time>2021-02-21T05:14:29Z</time>
      </trkpt>
      <trkpt lat="44.46754" lon="6.55217">
        <ele>1832</ele>
        <time>2021-02-21T05:14:30Z</time>
      </trkpt>
      <trkpt lat="44.46754" lon="6.55217">
        <ele>1832</ele>
        <time>2021-02-21T05:14:31Z</time>
      </trkpt>
      <trkpt lat="44.46753" lon="6.55216">
        <ele>1832</ele>
        <time>2021-02-21T05:14:32Z</time>
      </trkpt>
      <trkpt lat="44.46753" lon="6.55215">
        <ele>1832</ele>
        <time>2021-02-21T05:14:33Z</time>
      </trkpt>
      <trkpt lat="44.46753" lon="6.55214">
        <ele>1832</ele>
        <time>2021-02-21T05:14:34Z</time>
      </trkpt>
      <trkpt lat="44.46752" lon="6.55212">
        <ele>1833</ele>
        <time>2021-02-21T05:14:35Z</time>
      </trkpt>
      <trkpt lat="44.46752" lon="6.55211">
        <ele>1833</ele>
        <time>2021-02-21T05:14:36Z</time>
      </trkpt>
      <trkpt lat="44.46752" lon="6.5521">
        <ele>1833</ele>
        <time>2021-02-21T05:14:37Z</time>
      </trkpt>
      <trkpt lat="44.46752" lon="6.55208">
        <ele>1834</ele>
        <time>2021-02-21T05:14:38Z</time>
      </trkpt>
      <trkpt lat="44.46752" lon="6.55207">
        <ele>1834</ele>
        <time>2021-02-21T05:14:39Z</time>
      </trkpt>
      <trkpt lat="44.46751" lon="6.55205">
        <ele>1835</ele>
        <time>2021-02-21T05:14:40Z</time>
      </trkpt>
      <trkpt lat="44.4675" lon="6.55203">
        <ele>1835</ele>
        <time>2021-02-21T05:14:41Z</time>
      </trkpt>
      <trkpt lat="44.4675" lon="6.55202">
        <ele>1836</ele>
        <time>2021-02-21T05:14:42Z</time>
      </trkpt>
      <trkpt lat="44.4675" lon="6.55201">
        <ele>1837</ele>
        <time>2021-02-21T05:14:43Z</time>
      </trkpt>
      <trkpt lat="44.4675" lon="6.55198">
        <ele>1838</ele>
        <time>2021-02-21T05:14:44Z</time>
      </trkpt>
      <trkpt lat="44.4675" lon="6.55196">
        <ele>1839</ele>
        <time>2021-02-21T05:14:45Z</time>
      </trkpt>
      <trkpt lat="44.4675" lon="6.55195">
        <ele>1840</ele>
        <time>2021-02-21T05:14:46Z</time>
      </trkpt>
      <trkpt lat="44.46749" lon="6.55193">
        <ele>1841</ele>
        <time>2021-02-21T05:14:47Z</time>
      </trkpt>
      <trkpt lat="44.46749" lon="6.55193">
        <ele>1841</ele>
        <time>2021-02-21T05:14:48Z</time>
      </trkpt>
      <trkpt lat="44.46749" lon="6.55192">
        <ele>1843</ele>
        <time>2021-02-21T05:14:49Z</time>
      </trkpt>
      <trkpt lat="44.46749" lon="6.5519">
        <ele>1843</ele>
        <time>2021-02-21T05:14:50Z</time>
      </trkpt>
      <trkpt lat="44.46749" lon="6.55189">
        <ele>1844</ele>
        <time>2021-02-21T05:14:51Z</time>
      </trkpt>
      <trkpt lat="44.46748" lon="6.55189">
        <ele>1844</ele>
        <time>2021-02-21T05:14:52Z</time>
      </trkpt>
      <trkpt lat="44.46748" lon="6.55187">
        <ele>1845</ele>
        <time>2021-02-21T05:14:53Z</time>
      </trkpt>
      <trkpt lat="44.46748" lon="6.55187">
        <ele>1845</ele>
        <time>2021-02-21T05:14:54Z</time>
      </trkpt>
      <trkpt lat="44.46747" lon="6.55186">
        <ele>1846</ele>
        <time>2021-02-21T05:14:55Z</time>
      </trkpt>
      <trkpt lat="44.46747" lon="6.55185">
        <ele>1846</ele>
        <time>2021-02-21T05:14:56Z</time>
      </trkpt>
      <trkpt lat="44.46747" lon="6.55185">
        <ele>1846</ele>
        <time>2021-02-21T05:14:57Z</time>
      </trkpt>
      <trkpt lat="44.46747" lon="6.55184">
        <ele>1846</ele>
        <time>2021-02-21T05:14:58Z</time>
      </trkpt>
      <trkpt lat="44.46746" lon="6.55184">
        <ele>1848</ele>
        <time>2021-02-21T05:14:59Z</time>
      </trkpt>
      <trkpt lat="44.46746" lon="6.55183">
        <ele>1848</ele>
        <time>2021-02-21T05:15:00Z</time>
      </trkpt>
      <trkpt lat="44.46746" lon="6.55183">
        <ele>1848</ele>
        <time>2021-02-21T05:15:01Z</time>
      </trkpt>
      <trkpt lat="44.46746" lon="6.55182">
        <ele>1848</ele>
        <time>2021-02-21T05:15:02Z</time>
      </trkpt>
      <trkpt lat="44.46746" lon="6.55181">
        <ele>1849</ele>
        <time>2021-02-21T05:15:03Z</time>
      </trkpt>
      <trkpt lat="44.46745" lon="6.55181">
        <ele>1849</ele>
        <time>2021-02-21T05:15:04Z</time>
      </trkpt>
      <trkpt lat="44.46745" lon="6.5518">
        <ele>1849</ele>
        <time>2021-02-21T05:15:05Z</time>
      </trkpt>
      <trkpt lat="44.46744" lon="6.55179">
        <ele>1849</ele>
        <time>2021-02-21T05:15:06Z</time>
      </trkpt>
      <trkpt lat="44.46743" lon="6.55178">
        <ele>1849</ele>
        <time>2021-02-21T05:15:07Z</time>
      </trkpt>
      <trkpt lat="44.46743" lon="6.55177">
        <ele>1849</ele>
        <time>2021-02-21T05:15:08Z</time>
      </trkpt>
      <trkpt lat="44.46743" lon="6.55177">
        <ele>1850</ele>
        <time>2021-02-21T05:15:09Z</time>
      </trkpt>
      <trkpt lat="44.46743" lon="6.55176">
        <ele>1850</ele>
        <time>2021-02-21T05:15:10Z</time>
      </trkpt>
      <trkpt lat="44.46743" lon="6.55176">
        <ele>1850</ele>
        <time>2021-02-21T05:15:11Z</time>
      </trkpt>
      <trkpt lat="44.46743" lon="6.55175">
        <ele>1851</ele>
        <time>2021-02-21T05:15:12Z</time>
      </trkpt>
      <trkpt lat="44.46743" lon="6.55174">
        <ele>1851</ele>
        <time>2021-02-21T05:15:13Z</time>
      </trkpt>
      <trkpt lat="44.46743" lon="6.55173">
        <ele>1851</ele>
        <time>2021-02-21T05:15:14Z</time>
      </trkpt>
      <trkpt lat="44.46743" lon="6.55172">
        <ele>1851</ele>
        <time>2021-02-21T05:15:15Z</time>
      </trkpt>
      <trkpt lat="44.46743" lon="6.5517">
        <ele>1852</ele>
        <time>2021-02-21T05:15:16Z</time>
      </trkpt>
      <trkpt lat="44.46744" lon="6.55168">
        <ele>1852</ele>
        <time>2021-02-21T05:15:17Z</time>
      </trkpt>
      <trkpt lat="44.46744" lon="6.55167">
        <ele>1853</ele>
        <time>2021-02-21T05:15:18Z</time>
      </trkpt>
      <trkpt lat="44.46744" lon="6.55166">
        <ele>1853</ele>
        <time>2021-02-21T05:15:19Z</time>
      </trkpt>
      <trkpt lat="44.46744" lon="6.55165">
        <ele>1853</ele>
        <time>2021-02-21T05:15:20Z</time>
      </trkpt>
      <trkpt lat="44.46744" lon="6.55165">
        <ele>1854</ele>
        <time>2021-02-21T05:15:21Z</time>
      </trkpt>
      <trkpt lat="44.46744" lon="6.55165">
        <ele>1854</ele>
        <time>2021-02-21T05:15:22Z</time>
      </trkpt>
      <trkpt lat="44.46744" lon="6.55164">
        <ele>1854</ele>
        <time>2021-02-21T05:15:23Z</time>
      </trkpt>
      <trkpt lat="44.46743" lon="6.55163">
        <ele>1854</ele>
        <time>2021-02-21T05:15:24Z</time>
      </trkpt>
      <trkpt lat="44.46743" lon="6.55162">
        <ele>1854</ele>
        <time>2021-02-21T05:15:25Z</time>
      </trkpt>
      <trkpt lat="44.46742" lon="6.55162">
        <ele>1854</ele>
        <time>2021-02-21T05:15:26Z</time>
      </trkpt>
      <trkpt lat="44.46742" lon="6.55161">
        <ele>1854</ele>
        <time>2021-02-21T05:15:27Z</time>
      </trkpt>
      <trkpt lat="44.46742" lon="6.55161">
        <ele>1854</ele>
        <time>2021-02-21T05:15:28Z</time>
      </trkpt>
      <trkpt lat="44.46742" lon="6.55161">
        <ele>1854</ele>
        <time>2021-02-21T05:15:29Z</time>
      </trkpt>
      <trkpt lat="44.46742" lon="6.55161">
        <ele>1854</ele>
        <time>2021-02-21T05:15:30Z</time>
      </trkpt>
      <trkpt lat="44.46741" lon="6.55161">
        <ele>1854</ele>
        <time>2021-02-21T05:15:31Z</time>
      </trkpt>
      <trkpt lat="44.4674" lon="6.55161">
        <ele>1854</ele>
        <time>2021-02-21T05:15:32Z</time>
      </trkpt>
      <trkpt lat="44.4674" lon="6.55161">
        <ele>1854</ele>
        <time>2021-02-21T05:15:33Z</time>
      </trkpt>
      <trkpt lat="44.46739" lon="6.55162">
        <ele>1853</ele>
        <time>2021-02-21T05:15:34Z</time>
      </trkpt>
      <trkpt lat="44.46738" lon="6.55161">
        <ele>1853</ele>
        <time>2021-02-21T05:15:35Z</time>
      </trkpt>
      <trkpt lat="44.46737" lon="6.55161">
        <ele>1853</ele>
        <time>2021-02-21T05:15:36Z</time>
      </trkpt>
      <trkpt lat="44.46736" lon="6.55161">
        <ele>1853</ele>
        <time>2021-02-21T05:15:37Z</time>
      </trkpt>
      <trkpt lat="44.46735" lon="6.55161">
        <ele>1853</ele>
        <time>2021-02-21T05:15:38Z</time>
      </trkpt>
      <trkpt lat="44.46734" lon="6.5516">
        <ele>1853</ele>
        <time>2021-02-21T05:15:39Z</time>
      </trkpt>
      <trkpt lat="44.46733" lon="6.55161">
        <ele>1853</ele>
        <time>2021-02-21T05:15:40Z</time>
      </trkpt>
      <trkpt lat="44.46732" lon="6.55161">
        <ele>1853</ele>
        <time>2021-02-21T05:15:41Z</time>
      </trkpt>
      <trkpt lat="44.46731" lon="6.5516">
        <ele>1853</ele>
        <time>2021-02-21T05:15:42Z</time>
      </trkpt>
      <trkpt lat="44.4673" lon="6.55161">
        <ele>1853</ele>
        <time>2021-02-21T05:15:43Z</time>
      </trkpt>
      <trkpt lat="44.4673" lon="6.55161">
        <ele>1853</ele>
        <time>2021-02-21T05:15:44Z</time>
      </trkpt>
      <trkpt lat="44.46729" lon="6.55161">
        <ele>1852</ele>
        <time>2021-02-21T05:15:45Z</time>
      </trkpt>
      <trkpt lat="44.46728" lon="6.55162">
        <ele>1852</ele>
        <time>2021-02-21T05:15:46Z</time>
      </trkpt>
      <trkpt lat="44.46727" lon="6.55162">
        <ele>1852</ele>
        <time>2021-02-21T05:15:47Z</time>
      </trkpt>
      <trkpt lat="44.46727" lon="6.55162">
        <ele>1852</ele>
        <time>2021-02-21T05:15:48Z</time>
      </trkpt>
      <trkpt lat="44.46726" lon="6.55162">
        <ele>1852</ele>
        <time>2021-02-21T05:15:49Z</time>
      </trkpt>
      <trkpt lat="44.46725" lon="6.55162">
        <ele>1852</ele>
        <time>2021-02-21T05:15:50Z</time>
      </trkpt>
      <trkpt lat="44.46724" lon="6.55162">
        <ele>1852</ele>
        <time>2021-02-21T05:15:51Z</time>
      </trkpt>
      <trkpt lat="44.46723" lon="6.55161">
        <ele>1853</ele>
        <time>2021-02-21T05:15:52Z</time>
      </trkpt>
      <trkpt lat="44.46722" lon="6.5516">
        <ele>1853</ele>
        <time>2021-02-21T05:15:53Z</time>
      </trkpt>
      <trkpt lat="44.46721" lon="6.55159">
        <ele>1853</ele>
        <time>2021-02-21T05:15:54Z</time>
      </trkpt>
      <trkpt lat="44.4672" lon="6.55158">
        <ele>1853</ele>
        <time>2021-02-21T05:15:55Z</time>
      </trkpt>
      <trkpt lat="44.46719" lon="6.55157">
        <ele>1853</ele>
        <time>2021-02-21T05:15:56Z</time>
      </trkpt>
      <trkpt lat="44.46719" lon="6.55157">
        <ele>1853</ele>
        <time>2021-02-21T05:15:57Z</time>
      </trkpt>
      <trkpt lat="44.46718" lon="6.55156">
        <ele>1853</ele>
        <time>2021-02-21T05:15:58Z</time>
      </trkpt>
      <trkpt lat="44.46717" lon="6.55156">
        <ele>1853</ele>
        <time>2021-02-21T05:15:59Z</time>
      </trkpt>
      <trkpt lat="44.46717" lon="6.55156">
        <ele>1854</ele>
        <time>2021-02-21T05:16:00Z</time>
      </trkpt>
      <trkpt lat="44.46716" lon="6.55156">
        <ele>1854</ele>
        <time>2021-02-21T05:16:01Z</time>
      </trkpt>
      <trkpt lat="44.46715" lon="6.55155">
        <ele>1854</ele>
        <time>2021-02-21T05:16:02Z</time>
      </trkpt>
      <trkpt lat="44.46714" lon="6.55155">
        <ele>1854</ele>
        <time>2021-02-21T05:16:03Z</time>
      </trkpt>
      <trkpt lat="44.46714" lon="6.55155">
        <ele>1854</ele>
        <time>2021-02-21T05:16:04Z</time>
      </trkpt>
      <trkpt lat="44.46713" lon="6.55154">
        <ele>1854</ele>
        <time>2021-02-21T05:16:05Z</time>
      </trkpt>
      <trkpt lat="44.46712" lon="6.55154">
        <ele>1854</ele>
        <time>2021-02-21T05:16:06Z</time>
      </trkpt>
      <trkpt lat="44.46711" lon="6.55153">
        <ele>1854</ele>
        <time>2021-02-21T05:16:07Z</time>
      </trkpt>
      <trkpt lat="44.46711" lon="6.55153">
        <ele>1854</ele>
        <time>2021-02-21T05:16:08Z</time>
      </trkpt>
      <trkpt lat="44.46711" lon="6.55153">
        <ele>1854</ele>
        <time>2021-02-21T05:16:09Z</time>
      </trkpt>
      <trkpt lat="44.4671" lon="6.55152">
        <ele>1854</ele>
        <time>2021-02-21T05:16:10Z</time>
      </trkpt>
      <trkpt lat="44.46709" lon="6.55152">
        <ele>1854</ele>
        <time>2021-02-21T05:16:11Z</time>
      </trkpt>
      <trkpt lat="44.46709" lon="6.55151">
        <ele>1854</ele>
        <time>2021-02-21T05:16:12Z</time>
      </trkpt>
      <trkpt lat="44.46708" lon="6.55151">
        <ele>1854</ele>
        <time>2021-02-21T05:16:13Z</time>
      </trkpt>
      <trkpt lat="44.46707" lon="6.55151">
        <ele>1854</ele>
        <time>2021-02-21T05:16:14Z</time>
      </trkpt>
      <trkpt lat="44.46707" lon="6.55151">
        <ele>1854</ele>
        <time>2021-02-21T05:16:15Z</time>
      </trkpt>
      <trkpt lat="44.46706" lon="6.55151">
        <ele>1854</ele>
        <time>2021-02-21T05:16:16Z</time>
      </trkpt>
      <trkpt lat="44.46705" lon="6.5515">
        <ele>1854</ele>
        <time>2021-02-21T05:16:17Z</time>
      </trkpt>
      <trkpt lat="44.46705" lon="6.5515">
        <ele>1854</ele>
        <time>2021-02-21T05:16:18Z</time>
      </trkpt>
      <trkpt lat="44.46704" lon="6.55149">
        <ele>1854</ele>
        <time>2021-02-21T05:16:19Z</time>
      </trkpt>
      <trkpt lat="44.46703" lon="6.55149">
        <ele>1854</ele>
        <time>2021-02-21T05:16:20Z</time>
      </trkpt>
      <trkpt lat="44.46703" lon="6.5515">
        <ele>1854</ele>
        <time>2021-02-21T05:16:21Z</time>
      </trkpt>
      <trkpt lat="44.46702" lon="6.5515">
        <ele>1854</ele>
        <time>2021-02-21T05:16:22Z</time>
      </trkpt>
      <trkpt lat="44.46701" lon="6.5515">
        <ele>1854</ele>
        <time>2021-02-21T05:16:23Z</time>
      </trkpt>
      <trkpt lat="44.467" lon="6.55149">
        <ele>1854</ele>
        <time>2021-02-21T05:16:24Z</time>
      </trkpt>
      <trkpt lat="44.46699" lon="6.55148">
        <ele>1854</ele>
        <time>2021-02-21T05:16:25Z</time>
      </trkpt>
      <trkpt lat="44.46698" lon="6.55147">
        <ele>1854</ele>
        <time>2021-02-21T05:16:26Z</time>
      </trkpt>
      <trkpt lat="44.46697" lon="6.55147">
        <ele>1854</ele>
        <time>2021-02-21T05:16:27Z</time>
      </trkpt>
      <trkpt lat="44.46696" lon="6.55146">
        <ele>1854</ele>
        <time>2021-02-21T05:16:28Z</time>
      </trkpt>
      <trkpt lat="44.46695" lon="6.55144">
        <ele>1854</ele>
        <time>2021-02-21T05:16:29Z</time>
      </trkpt>
      <trkpt lat="44.46693" lon="6.55143">
        <ele>1854</ele>
        <time>2021-02-21T05:16:30Z</time>
      </trkpt>
      <trkpt lat="44.46692" lon="6.55143">
        <ele>1854</ele>
        <time>2021-02-21T05:16:31Z</time>
      </trkpt>
      <trkpt lat="44.46691" lon="6.55143">
        <ele>1854</ele>
        <time>2021-02-21T05:16:32Z</time>
      </trkpt>
      <trkpt lat="44.4669" lon="6.55143">
        <ele>1854</ele>
        <time>2021-02-21T05:16:33Z</time>
      </trkpt>
      <trkpt lat="44.46689" lon="6.55142">
        <ele>1854</ele>
        <time>2021-02-21T05:16:34Z</time>
      </trkpt>
      <trkpt lat="44.46689" lon="6.55142">
        <ele>1854</ele>
        <time>2021-02-21T05:16:35Z</time>
      </trkpt>
      <trkpt lat="44.46688" lon="6.55141">
        <ele>1855</ele>
        <time>2021-02-21T05:16:36Z</time>
      </trkpt>
      <trkpt lat="44.46688" lon="6.55141">
        <ele>1855</ele>
        <time>2021-02-21T05:16:37Z</time>
      </trkpt>
      <trkpt lat="44.46687" lon="6.5514">
        <ele>1855</ele>
        <time>2021-02-21T05:16:38Z</time>
      </trkpt>
      <trkpt lat="44.46687" lon="6.5514">
        <ele>1855</ele>
        <time>2021-02-21T05:16:39Z</time>
      </trkpt>
      <trkpt lat="44.46686" lon="6.5514">
        <ele>1855</ele>
        <time>2021-02-21T05:16:40Z</time>
      </trkpt>
      <trkpt lat="44.46686" lon="6.5514">
        <ele>1855</ele>
        <time>2021-02-21T05:16:41Z</time>
      </trkpt>
      <trkpt lat="44.46686" lon="6.5514">
        <ele>1856</ele>
        <time>2021-02-21T05:16:42Z</time>
      </trkpt>
      <trkpt lat="44.46685" lon="6.55139">
        <ele>1856</ele>
        <time>2021-02-21T05:16:43Z</time>
      </trkpt>
      <trkpt lat="44.46685" lon="6.55139">
        <ele>1856</ele>
        <time>2021-02-21T05:16:44Z</time>
      </trkpt>
      <trkpt lat="44.46684" lon="6.55138">
        <ele>1856</ele>
        <time>2021-02-21T05:16:45Z</time>
      </trkpt>
      <trkpt lat="44.46683" lon="6.55138">
        <ele>1856</ele>
        <time>2021-02-21T05:16:46Z</time>
      </trkpt>
      <trkpt lat="44.46683" lon="6.55138">
        <ele>1856</ele>
        <time>2021-02-21T05:16:47Z</time>
      </trkpt>
      <trkpt lat="44.46682" lon="6.55137">
        <ele>1856</ele>
        <time>2021-02-21T05:16:48Z</time>
      </trkpt>
      <trkpt lat="44.46681" lon="6.55138">
        <ele>1856</ele>
        <time>2021-02-21T05:16:49Z</time>
      </trkpt>
      <trkpt lat="44.46681" lon="6.55138">
        <ele>1856</ele>
        <time>2021-02-21T05:16:50Z</time>
      </trkpt>
      <trkpt lat="44.4668" lon="6.55138">
        <ele>1856</ele>
        <time>2021-02-21T05:16:51Z</time>
      </trkpt>
      <trkpt lat="44.4668" lon="6.55138">
        <ele>1856</ele>
        <time>2021-02-21T05:16:52Z</time>
      </trkpt>
      <trkpt lat="44.46679" lon="6.55137">
        <ele>1856</ele>
        <time>2021-02-21T05:16:53Z</time>
      </trkpt>
      <trkpt lat="44.46678" lon="6.55137">
        <ele>1856</ele>
        <time>2021-02-21T05:16:54Z</time>
      </trkpt>
      <trkpt lat="44.46678" lon="6.55137">
        <ele>1856</ele>
        <time>2021-02-21T05:16:55Z</time>
      </trkpt>
      <trkpt lat="44.46678" lon="6.55137">
        <ele>1856</ele>
        <time>2021-02-21T05:16:56Z</time>
      </trkpt>
      <trkpt lat="44.46678" lon="6.55137">
        <ele>1856</ele>
        <time>2021-02-21T05:16:57Z</time>
      </trkpt>
      <trkpt lat="44.46677" lon="6.55136">
        <ele>1856</ele>
        <time>2021-02-21T05:16:58Z</time>
      </trkpt>
      <trkpt lat="44.46677" lon="6.55136">
        <ele>1856</ele>
        <time>2021-02-21T05:16:59Z</time>
      </trkpt>
      <trkpt lat="44.46676" lon="6.55135">
        <ele>1857</ele>
        <time>2021-02-21T05:17:00Z</time>
      </trkpt>
      <trkpt lat="44.46675" lon="6.55135">
        <ele>1857</ele>
        <time>2021-02-21T05:17:01Z</time>
      </trkpt>
      <trkpt lat="44.46675" lon="6.55134">
        <ele>1857</ele>
        <time>2021-02-21T05:17:02Z</time>
      </trkpt>
      <trkpt lat="44.46673" lon="6.55134">
        <ele>1858</ele>
        <time>2021-02-21T05:17:03Z</time>
      </trkpt>
      <trkpt lat="44.46672" lon="6.55133">
        <ele>1858</ele>
        <time>2021-02-21T05:17:04Z</time>
      </trkpt>
      <trkpt lat="44.46672" lon="6.55132">
        <ele>1858</ele>
        <time>2021-02-21T05:17:05Z</time>
      </trkpt>
      <trkpt lat="44.46671" lon="6.55132">
        <ele>1858</ele>
        <time>2021-02-21T05:17:06Z</time>
      </trkpt>
      <trkpt lat="44.4667" lon="6.55132">
        <ele>1858</ele>
        <time>2021-02-21T05:17:07Z</time>
      </trkpt>
      <trkpt lat="44.46669" lon="6.55131">
        <ele>1859</ele>
        <time>2021-02-21T05:17:08Z</time>
      </trkpt>
      <trkpt lat="44.46669" lon="6.55131">
        <ele>1859</ele>
        <time>2021-02-21T05:17:09Z</time>
      </trkpt>
      <trkpt lat="44.46669" lon="6.55131">
        <ele>1859</ele>
        <time>2021-02-21T05:17:10Z</time>
      </trkpt>
      <trkpt lat="44.46668" lon="6.55131">
        <ele>1859</ele>
        <time>2021-02-21T05:17:11Z</time>
      </trkpt>
      <trkpt lat="44.46667" lon="6.5513">
        <ele>1859</ele>
        <time>2021-02-21T05:17:12Z</time>
      </trkpt>
      <trkpt lat="44.46666" lon="6.5513">
        <ele>1859</ele>
        <time>2021-02-21T05:17:13Z</time>
      </trkpt>
      <trkpt lat="44.46665" lon="6.5513">
        <ele>1859</ele>
        <time>2021-02-21T05:17:14Z</time>
      </trkpt>
      <trkpt lat="44.46664" lon="6.55128">
        <ele>1860</ele>
        <time>2021-02-21T05:17:15Z</time>
      </trkpt>
      <trkpt lat="44.46663" lon="6.55128">
        <ele>1863</ele>
        <time>2021-02-21T05:17:16Z</time>
      </trkpt>
      <trkpt lat="44.46663" lon="6.55127">
        <ele>1863</ele>
        <time>2021-02-21T05:17:17Z</time>
      </trkpt>
      <trkpt lat="44.46662" lon="6.55127">
        <ele>1863</ele>
        <time>2021-02-21T05:17:18Z</time>
      </trkpt>
      <trkpt lat="44.46661" lon="6.55126">
        <ele>1864</ele>
        <time>2021-02-21T05:17:19Z</time>
      </trkpt>
      <trkpt lat="44.4666" lon="6.55126">
        <ele>1864</ele>
        <time>2021-02-21T05:17:20Z</time>
      </trkpt>
      <trkpt lat="44.4666" lon="6.55125">
        <ele>1864</ele>
        <time>2021-02-21T05:17:21Z</time>
      </trkpt>
      <trkpt lat="44.4666" lon="6.55125">
        <ele>1864</ele>
        <time>2021-02-21T05:17:22Z</time>
      </trkpt>
      <trkpt lat="44.4666" lon="6.55125">
        <ele>1864</ele>
        <time>2021-02-21T05:17:23Z</time>
      </trkpt>
      <trkpt lat="44.46659" lon="6.55126">
        <ele>1864</ele>
        <time>2021-02-21T05:17:24Z</time>
      </trkpt>
      <trkpt lat="44.46659" lon="6.55125">
        <ele>1864</ele>
        <time>2021-02-21T05:17:25Z</time>
      </trkpt>
      <trkpt lat="44.46659" lon="6.55125">
        <ele>1864</ele>
        <time>2021-02-21T05:17:26Z</time>
      </trkpt>
      <trkpt lat="44.46658" lon="6.55124">
        <ele>1864</ele>
        <time>2021-02-21T05:17:27Z</time>
      </trkpt>
      <trkpt lat="44.46657" lon="6.55124">
        <ele>1864</ele>
        <time>2021-02-21T05:17:28Z</time>
      </trkpt>
      <trkpt lat="44.46656" lon="6.55123">
        <ele>1864</ele>
        <time>2021-02-21T05:17:29Z</time>
      </trkpt>
      <trkpt lat="44.46656" lon="6.55123">
        <ele>1864</ele>
        <time>2021-02-21T05:17:30Z</time>
      </trkpt>
      <trkpt lat="44.46655" lon="6.55122">
        <ele>1864</ele>
        <time>2021-02-21T05:17:31Z</time>
      </trkpt>
      <trkpt lat="44.46654" lon="6.55121">
        <ele>1865</ele>
        <time>2021-02-21T05:17:32Z</time>
      </trkpt>
      <trkpt lat="44.46653" lon="6.55121">
        <ele>1865</ele>
        <time>2021-02-21T05:17:33Z</time>
      </trkpt>
      <trkpt lat="44.46653" lon="6.5512">
        <ele>1865</ele>
        <time>2021-02-21T05:17:34Z</time>
      </trkpt>
      <trkpt lat="44.46652" lon="6.55119">
        <ele>1865</ele>
        <time>2021-02-21T05:17:35Z</time>
      </trkpt>
      <trkpt lat="44.46651" lon="6.55119">
        <ele>1865</ele>
        <time>2021-02-21T05:17:36Z</time>
      </trkpt>
      <trkpt lat="44.46651" lon="6.55118">
        <ele>1865</ele>
        <time>2021-02-21T05:17:37Z</time>
      </trkpt>
      <trkpt lat="44.46651" lon="6.55118">
        <ele>1865</ele>
        <time>2021-02-21T05:17:38Z</time>
      </trkpt>
      <trkpt lat="44.4665" lon="6.55118">
        <ele>1865</ele>
        <time>2021-02-21T05:17:39Z</time>
      </trkpt>
      <trkpt lat="44.4665" lon="6.55117">
        <ele>1865</ele>
        <time>2021-02-21T05:17:40Z</time>
      </trkpt>
      <trkpt lat="44.46649" lon="6.55117">
        <ele>1866</ele>
        <time>2021-02-21T05:17:41Z</time>
      </trkpt>
      <trkpt lat="44.46647" lon="6.55116">
        <ele>1866</ele>
        <time>2021-02-21T05:17:42Z</time>
      </trkpt>
      <trkpt lat="44.46646" lon="6.55115">
        <ele>1867</ele>
        <time>2021-02-21T05:17:43Z</time>
      </trkpt>
      <trkpt lat="44.46646" lon="6.55114">
        <ele>1867</ele>
        <time>2021-02-21T05:17:44Z</time>
      </trkpt>
      <trkpt lat="44.46645" lon="6.55113">
        <ele>1867</ele>
        <time>2021-02-21T05:17:45Z</time>
      </trkpt>
      <trkpt lat="44.46645" lon="6.55113">
        <ele>1868</ele>
        <time>2021-02-21T05:17:46Z</time>
      </trkpt>
      <trkpt lat="44.46644" lon="6.55112">
        <ele>1868</ele>
        <time>2021-02-21T05:17:47Z</time>
      </trkpt>
      <trkpt lat="44.46644" lon="6.55111">
        <ele>1869</ele>
        <time>2021-02-21T05:17:48Z</time>
      </trkpt>
      <trkpt lat="44.46643" lon="6.5511">
        <ele>1869</ele>
        <time>2021-02-21T05:17:49Z</time>
      </trkpt>
      <trkpt lat="44.46643" lon="6.55109">
        <ele>1869</ele>
        <time>2021-02-21T05:17:50Z</time>
      </trkpt>
      <trkpt lat="44.46643" lon="6.55109">
        <ele>1869</ele>
        <time>2021-02-21T05:17:51Z</time>
      </trkpt>
      <trkpt lat="44.46642" lon="6.55108">
        <ele>1870</ele>
        <time>2021-02-21T05:17:52Z</time>
      </trkpt>
      <trkpt lat="44.46641" lon="6.55108">
        <ele>1870</ele>
        <time>2021-02-21T05:17:53Z</time>
      </trkpt>
      <trkpt lat="44.4664" lon="6.55106">
        <ele>1871</ele>
        <time>2021-02-21T05:17:54Z</time>
      </trkpt>
      <trkpt lat="44.46638" lon="6.55105">
        <ele>1871</ele>
        <time>2021-02-21T05:17:55Z</time>
      </trkpt>
      <trkpt lat="44.46637" lon="6.55105">
        <ele>1872</ele>
        <time>2021-02-21T05:17:56Z</time>
      </trkpt>
      <trkpt lat="44.46636" lon="6.55104">
        <ele>1872</ele>
        <time>2021-02-21T05:17:57Z</time>
      </trkpt>
      <trkpt lat="44.46636" lon="6.55104">
        <ele>1872</ele>
        <time>2021-02-21T05:17:58Z</time>
      </trkpt>
      <trkpt lat="44.46635" lon="6.55103">
        <ele>1872</ele>
        <time>2021-02-21T05:17:59Z</time>
      </trkpt>
      <trkpt lat="44.46635" lon="6.55102">
        <ele>1872</ele>
        <time>2021-02-21T05:18:00Z</time>
      </trkpt>
      <trkpt lat="44.46634" lon="6.55102">
        <ele>1872</ele>
        <time>2021-02-21T05:18:01Z</time>
      </trkpt>
      <trkpt lat="44.46634" lon="6.55101">
        <ele>1872</ele>
        <time>2021-02-21T05:18:02Z</time>
      </trkpt>
      <trkpt lat="44.46633" lon="6.551">
        <ele>1872</ele>
        <time>2021-02-21T05:18:03Z</time>
      </trkpt>
      <trkpt lat="44.46632" lon="6.551">
        <ele>1872</ele>
        <time>2021-02-21T05:18:04Z</time>
      </trkpt>
      <trkpt lat="44.46632" lon="6.55099">
        <ele>1872</ele>
        <time>2021-02-21T05:18:05Z</time>
      </trkpt>
      <trkpt lat="44.46631" lon="6.55098">
        <ele>1872</ele>
        <time>2021-02-21T05:18:06Z</time>
      </trkpt>
      <trkpt lat="44.4663" lon="6.55097">
        <ele>1872</ele>
        <time>2021-02-21T05:18:07Z</time>
      </trkpt>
      <trkpt lat="44.4663" lon="6.55096">
        <ele>1872</ele>
        <time>2021-02-21T05:18:08Z</time>
      </trkpt>
      <trkpt lat="44.46629" lon="6.55095">
        <ele>1872</ele>
        <time>2021-02-21T05:18:09Z</time>
      </trkpt>
      <trkpt lat="44.46629" lon="6.55094">
        <ele>1872</ele>
        <time>2021-02-21T05:18:10Z</time>
      </trkpt>
      <trkpt lat="44.46628" lon="6.55094">
        <ele>1872</ele>
        <time>2021-02-21T05:18:11Z</time>
      </trkpt>
      <trkpt lat="44.46627" lon="6.55093">
        <ele>1873</ele>
        <time>2021-02-21T05:18:12Z</time>
      </trkpt>
      <trkpt lat="44.46627" lon="6.55091">
        <ele>1873</ele>
        <time>2021-02-21T05:18:13Z</time>
      </trkpt>
      <trkpt lat="44.46626" lon="6.55091">
        <ele>1873</ele>
        <time>2021-02-21T05:18:14Z</time>
      </trkpt>
      <trkpt lat="44.46625" lon="6.5509">
        <ele>1873</ele>
        <time>2021-02-21T05:18:15Z</time>
      </trkpt>
      <trkpt lat="44.46624" lon="6.55089">
        <ele>1874</ele>
        <time>2021-02-21T05:18:16Z</time>
      </trkpt>
      <trkpt lat="44.46624" lon="6.55088">
        <ele>1874</ele>
        <time>2021-02-21T05:18:17Z</time>
      </trkpt>
      <trkpt lat="44.46624" lon="6.55087">
        <ele>1874</ele>
        <time>2021-02-21T05:18:18Z</time>
      </trkpt>
      <trkpt lat="44.46623" lon="6.55086">
        <ele>1875</ele>
        <time>2021-02-21T05:18:19Z</time>
      </trkpt>
      <trkpt lat="44.46623" lon="6.55085">
        <ele>1875</ele>
        <time>2021-02-21T05:18:20Z</time>
      </trkpt>
      <trkpt lat="44.46622" lon="6.55084">
        <ele>1875</ele>
        <time>2021-02-21T05:18:21Z</time>
      </trkpt>
      <trkpt lat="44.46622" lon="6.55084">
        <ele>1875</ele>
        <time>2021-02-21T05:18:22Z</time>
      </trkpt>
      <trkpt lat="44.46621" lon="6.55083">
        <ele>1876</ele>
        <time>2021-02-21T05:18:23Z</time>
      </trkpt>
      <trkpt lat="44.4662" lon="6.55082">
        <ele>1876</ele>
        <time>2021-02-21T05:18:24Z</time>
      </trkpt>
      <trkpt lat="44.46619" lon="6.55081">
        <ele>1876</ele>
        <time>2021-02-21T05:18:25Z</time>
      </trkpt>
      <trkpt lat="44.46619" lon="6.5508">
        <ele>1876</ele>
        <time>2021-02-21T05:18:26Z</time>
      </trkpt>
      <trkpt lat="44.46618" lon="6.55079">
        <ele>1876</ele>
        <time>2021-02-21T05:18:27Z</time>
      </trkpt>
      <trkpt lat="44.46617" lon="6.55078">
        <ele>1877</ele>
        <time>2021-02-21T05:18:28Z</time>
      </trkpt>
      <trkpt lat="44.46616" lon="6.55076">
        <ele>1877</ele>
        <time>2021-02-21T05:18:29Z</time>
      </trkpt>
      <trkpt lat="44.46615" lon="6.55075">
        <ele>1877</ele>
        <time>2021-02-21T05:18:30Z</time>
      </trkpt>
      <trkpt lat="44.46614" lon="6.55073">
        <ele>1877</ele>
        <time>2021-02-21T05:18:31Z</time>
      </trkpt>
      <trkpt lat="44.46614" lon="6.55073">
        <ele>1877</ele>
        <time>2021-02-21T05:18:32Z</time>
      </trkpt>
      <trkpt lat="44.46614" lon="6.55072">
        <ele>1877</ele>
        <time>2021-02-21T05:18:33Z</time>
      </trkpt>
      <trkpt lat="44.46614" lon="6.55072">
        <ele>1877</ele>
        <time>2021-02-21T05:18:34Z</time>
      </trkpt>
      <trkpt lat="44.46613" lon="6.5507">
        <ele>1878</ele>
        <time>2021-02-21T05:18:35Z</time>
      </trkpt>
      <trkpt lat="44.46613" lon="6.55069">
        <ele>1878</ele>
        <time>2021-02-21T05:18:36Z</time>
      </trkpt>
      <trkpt lat="44.46614" lon="6.55069">
        <ele>1878</ele>
        <time>2021-02-21T05:18:37Z</time>
      </trkpt>
      <trkpt lat="44.46614" lon="6.55067">
        <ele>1878</ele>
        <time>2021-02-21T05:18:38Z</time>
      </trkpt>
      <trkpt lat="44.46614" lon="6.55066">
        <ele>1878</ele>
        <time>2021-02-21T05:18:39Z</time>
      </trkpt>
      <trkpt lat="44.46614" lon="6.55066">
        <ele>1879</ele>
        <time>2021-02-21T05:18:40Z</time>
      </trkpt>
      <trkpt lat="44.46614" lon="6.55065">
        <ele>1879</ele>
        <time>2021-02-21T05:18:41Z</time>
      </trkpt>
      <trkpt lat="44.46613" lon="6.55064">
        <ele>1879</ele>
        <time>2021-02-21T05:18:42Z</time>
      </trkpt>
      <trkpt lat="44.46613" lon="6.55063">
        <ele>1879</ele>
        <time>2021-02-21T05:18:43Z</time>
      </trkpt>
      <trkpt lat="44.46613" lon="6.55062">
        <ele>1879</ele>
        <time>2021-02-21T05:18:44Z</time>
      </trkpt>
      <trkpt lat="44.46612" lon="6.55062">
        <ele>1880</ele>
        <time>2021-02-21T05:18:45Z</time>
      </trkpt>
      <trkpt lat="44.46612" lon="6.55061">
        <ele>1880</ele>
        <time>2021-02-21T05:18:46Z</time>
      </trkpt>
      <trkpt lat="44.46611" lon="6.5506">
        <ele>1880</ele>
        <time>2021-02-21T05:18:47Z</time>
      </trkpt>
      <trkpt lat="44.46611" lon="6.5506">
        <ele>1880</ele>
        <time>2021-02-21T05:18:48Z</time>
      </trkpt>
      <trkpt lat="44.46611" lon="6.55059">
        <ele>1880</ele>
        <time>2021-02-21T05:18:49Z</time>
      </trkpt>
      <trkpt lat="44.4661" lon="6.55058">
        <ele>1881</ele>
        <time>2021-02-21T05:18:50Z</time>
      </trkpt>
      <trkpt lat="44.46609" lon="6.55056">
        <ele>1881</ele>
        <time>2021-02-21T05:18:51Z</time>
      </trkpt>
      <trkpt lat="44.46609" lon="6.55055">
        <ele>1881</ele>
        <time>2021-02-21T05:18:52Z</time>
      </trkpt>
      <trkpt lat="44.46609" lon="6.55053">
        <ele>1881</ele>
        <time>2021-02-21T05:18:53Z</time>
      </trkpt>
      <trkpt lat="44.46609" lon="6.55052">
        <ele>1881</ele>
        <time>2021-02-21T05:18:54Z</time>
      </trkpt>
      <trkpt lat="44.46609" lon="6.55051">
        <ele>1882</ele>
        <time>2021-02-21T05:18:55Z</time>
      </trkpt>
      <trkpt lat="44.46609" lon="6.5505">
        <ele>1882</ele>
        <time>2021-02-21T05:18:56Z</time>
      </trkpt>
      <trkpt lat="44.46609" lon="6.55049">
        <ele>1882</ele>
        <time>2021-02-21T05:18:57Z</time>
      </trkpt>
      <trkpt lat="44.46608" lon="6.55047">
        <ele>1882</ele>
        <time>2021-02-21T05:18:58Z</time>
      </trkpt>
      <trkpt lat="44.46608" lon="6.55045">
        <ele>1883</ele>
        <time>2021-02-21T05:18:59Z</time>
      </trkpt>
      <trkpt lat="44.46607" lon="6.55044">
        <ele>1883</ele>
        <time>2021-02-21T05:19:00Z</time>
      </trkpt>
      <trkpt lat="44.46606" lon="6.55043">
        <ele>1883</ele>
        <time>2021-02-21T05:19:01Z</time>
      </trkpt>
      <trkpt lat="44.46606" lon="6.55042">
        <ele>1883</ele>
        <time>2021-02-21T05:19:02Z</time>
      </trkpt>
      <trkpt lat="44.46605" lon="6.55041">
        <ele>1884</ele>
        <time>2021-02-21T05:19:03Z</time>
      </trkpt>
      <trkpt lat="44.46605" lon="6.5504">
        <ele>1884</ele>
        <time>2021-02-21T05:19:04Z</time>
      </trkpt>
      <trkpt lat="44.46604" lon="6.55039">
        <ele>1884</ele>
        <time>2021-02-21T05:19:05Z</time>
      </trkpt>
      <trkpt lat="44.46604" lon="6.55036">
        <ele>1884</ele>
        <time>2021-02-21T05:19:06Z</time>
      </trkpt>
      <trkpt lat="44.46603" lon="6.55035">
        <ele>1884</ele>
        <time>2021-02-21T05:19:07Z</time>
      </trkpt>
      <trkpt lat="44.46603" lon="6.55034">
        <ele>1885</ele>
        <time>2021-02-21T05:19:08Z</time>
      </trkpt>
      <trkpt lat="44.46602" lon="6.55032">
        <ele>1885</ele>
        <time>2021-02-21T05:19:09Z</time>
      </trkpt>
      <trkpt lat="44.46601" lon="6.5503">
        <ele>1885</ele>
        <time>2021-02-21T05:19:10Z</time>
      </trkpt>
      <trkpt lat="44.46601" lon="6.55029">
        <ele>1885</ele>
        <time>2021-02-21T05:19:11Z</time>
      </trkpt>
      <trkpt lat="44.466" lon="6.55029">
        <ele>1885</ele>
        <time>2021-02-21T05:19:12Z</time>
      </trkpt>
      <trkpt lat="44.46599" lon="6.55028">
        <ele>1885</ele>
        <time>2021-02-21T05:19:13Z</time>
      </trkpt>
      <trkpt lat="44.46599" lon="6.55028">
        <ele>1885</ele>
        <time>2021-02-21T05:19:14Z</time>
      </trkpt>
      <trkpt lat="44.46599" lon="6.55028">
        <ele>1885</ele>
        <time>2021-02-21T05:19:15Z</time>
      </trkpt>
      <trkpt lat="44.46598" lon="6.55027">
        <ele>1884</ele>
        <time>2021-02-21T05:19:16Z</time>
      </trkpt>
      <trkpt lat="44.46597" lon="6.55027">
        <ele>1883</ele>
        <time>2021-02-21T05:19:17Z</time>
      </trkpt>
      <trkpt lat="44.46597" lon="6.55026">
        <ele>1883</ele>
        <time>2021-02-21T05:19:18Z</time>
      </trkpt>
      <trkpt lat="44.46596" lon="6.55025">
        <ele>1883</ele>
        <time>2021-02-21T05:19:19Z</time>
      </trkpt>
      <trkpt lat="44.46596" lon="6.55024">
        <ele>1883</ele>
        <time>2021-02-21T05:19:20Z</time>
      </trkpt>
      <trkpt lat="44.46595" lon="6.55023">
        <ele>1882</ele>
        <time>2021-02-21T05:19:21Z</time>
      </trkpt>
      <trkpt lat="44.46595" lon="6.55022">
        <ele>1881</ele>
        <time>2021-02-21T05:19:22Z</time>
      </trkpt>
      <trkpt lat="44.46594" lon="6.55021">
        <ele>1881</ele>
        <time>2021-02-21T05:19:23Z</time>
      </trkpt>
      <trkpt lat="44.46593" lon="6.55019">
        <ele>1881</ele>
        <time>2021-02-21T05:19:24Z</time>
      </trkpt>
      <trkpt lat="44.46594" lon="6.55018">
        <ele>1881</ele>
        <time>2021-02-21T05:19:25Z</time>
      </trkpt>
      <trkpt lat="44.46594" lon="6.55017">
        <ele>1881</ele>
        <time>2021-02-21T05:19:26Z</time>
      </trkpt>
      <trkpt lat="44.46593" lon="6.55015">
        <ele>1881</ele>
        <time>2021-02-21T05:19:27Z</time>
      </trkpt>
      <trkpt lat="44.46593" lon="6.55014">
        <ele>1881</ele>
        <time>2021-02-21T05:19:28Z</time>
      </trkpt>
      <trkpt lat="44.46593" lon="6.55012">
        <ele>1881</ele>
        <time>2021-02-21T05:19:29Z</time>
      </trkpt>
      <trkpt lat="44.46593" lon="6.55011">
        <ele>1882</ele>
        <time>2021-02-21T05:19:30Z</time>
      </trkpt>
      <trkpt lat="44.46594" lon="6.55009">
        <ele>1882</ele>
        <time>2021-02-21T05:19:31Z</time>
      </trkpt>
      <trkpt lat="44.46593" lon="6.55008">
        <ele>1883</ele>
        <time>2021-02-21T05:19:32Z</time>
      </trkpt>
      <trkpt lat="44.46593" lon="6.55006">
        <ele>1883</ele>
        <time>2021-02-21T05:19:33Z</time>
      </trkpt>
      <trkpt lat="44.46593" lon="6.55005">
        <ele>1883</ele>
        <time>2021-02-21T05:19:34Z</time>
      </trkpt>
      <trkpt lat="44.46593" lon="6.55004">
        <ele>1884</ele>
        <time>2021-02-21T05:19:35Z</time>
      </trkpt>
      <trkpt lat="44.46593" lon="6.55002">
        <ele>1884</ele>
        <time>2021-02-21T05:19:36Z</time>
      </trkpt>
      <trkpt lat="44.46593" lon="6.55001">
        <ele>1885</ele>
        <time>2021-02-21T05:19:37Z</time>
      </trkpt>
      <trkpt lat="44.46592" lon="6.55">
        <ele>1885</ele>
        <time>2021-02-21T05:19:38Z</time>
      </trkpt>
      <trkpt lat="44.46592" lon="6.54999">
        <ele>1886</ele>
        <time>2021-02-21T05:19:39Z</time>
      </trkpt>
      <trkpt lat="44.46591" lon="6.54998">
        <ele>1886</ele>
        <time>2021-02-21T05:19:40Z</time>
      </trkpt>
      <trkpt lat="44.46591" lon="6.54997">
        <ele>1887</ele>
        <time>2021-02-21T05:19:41Z</time>
      </trkpt>
      <trkpt lat="44.46591" lon="6.54996">
        <ele>1887</ele>
        <time>2021-02-21T05:19:42Z</time>
      </trkpt>
      <trkpt lat="44.4659" lon="6.54995">
        <ele>1887</ele>
        <time>2021-02-21T05:19:43Z</time>
      </trkpt>
      <trkpt lat="44.4659" lon="6.54994">
        <ele>1888</ele>
        <time>2021-02-21T05:19:44Z</time>
      </trkpt>
      <trkpt lat="44.4659" lon="6.54993">
        <ele>1888</ele>
        <time>2021-02-21T05:19:45Z</time>
      </trkpt>
      <trkpt lat="44.4659" lon="6.54991">
        <ele>1888</ele>
        <time>2021-02-21T05:19:46Z</time>
      </trkpt>
      <trkpt lat="44.4659" lon="6.5499">
        <ele>1889</ele>
        <time>2021-02-21T05:19:47Z</time>
      </trkpt>
      <trkpt lat="44.4659" lon="6.54989">
        <ele>1889</ele>
        <time>2021-02-21T05:19:48Z</time>
      </trkpt>
      <trkpt lat="44.4659" lon="6.54987">
        <ele>1890</ele>
        <time>2021-02-21T05:19:49Z</time>
      </trkpt>
      <trkpt lat="44.4659" lon="6.54986">
        <ele>1890</ele>
        <time>2021-02-21T05:19:50Z</time>
      </trkpt>
      <trkpt lat="44.46589" lon="6.54985">
        <ele>1890</ele>
        <time>2021-02-21T05:19:51Z</time>
      </trkpt>
      <trkpt lat="44.46589" lon="6.54984">
        <ele>1890</ele>
        <time>2021-02-21T05:19:52Z</time>
      </trkpt>
      <trkpt lat="44.46589" lon="6.54982">
        <ele>1891</ele>
        <time>2021-02-21T05:19:53Z</time>
      </trkpt>
      <trkpt lat="44.46588" lon="6.5498">
        <ele>1891</ele>
        <time>2021-02-21T05:19:54Z</time>
      </trkpt>
      <trkpt lat="44.46588" lon="6.54979">
        <ele>1891</ele>
        <time>2021-02-21T05:19:55Z</time>
      </trkpt>
      <trkpt lat="44.46588" lon="6.54977">
        <ele>1891</ele>
        <time>2021-02-21T05:19:56Z</time>
      </trkpt>
      <trkpt lat="44.46587" lon="6.54976">
        <ele>1891</ele>
        <time>2021-02-21T05:19:57Z</time>
      </trkpt>
      <trkpt lat="44.46587" lon="6.54975">
        <ele>1892</ele>
        <time>2021-02-21T05:19:58Z</time>
      </trkpt>
      <trkpt lat="44.46587" lon="6.54974">
        <ele>1892</ele>
        <time>2021-02-21T05:19:59Z</time>
      </trkpt>
      <trkpt lat="44.46586" lon="6.54973">
        <ele>1892</ele>
        <time>2021-02-21T05:20:00Z</time>
      </trkpt>
      <trkpt lat="44.46586" lon="6.54972">
        <ele>1892</ele>
        <time>2021-02-21T05:20:01Z</time>
      </trkpt>
      <trkpt lat="44.46585" lon="6.54971">
        <ele>1891</ele>
        <time>2021-02-21T05:20:02Z</time>
      </trkpt>
      <trkpt lat="44.46585" lon="6.5497">
        <ele>1891</ele>
        <time>2021-02-21T05:20:03Z</time>
      </trkpt>
      <trkpt lat="44.46585" lon="6.54969">
        <ele>1891</ele>
        <time>2021-02-21T05:20:04Z</time>
      </trkpt>
      <trkpt lat="44.46585" lon="6.54967">
        <ele>1891</ele>
        <time>2021-02-21T05:20:05Z</time>
      </trkpt>
      <trkpt lat="44.46584" lon="6.54966">
        <ele>1891</ele>
        <time>2021-02-21T05:20:06Z</time>
      </trkpt>
      <trkpt lat="44.46584" lon="6.54965">
        <ele>1890</ele>
        <time>2021-02-21T05:20:07Z</time>
      </trkpt>
      <trkpt lat="44.46584" lon="6.54964">
        <ele>1890</ele>
        <time>2021-02-21T05:20:08Z</time>
      </trkpt>
      <trkpt lat="44.46584" lon="6.54962">
        <ele>1890</ele>
        <time>2021-02-21T05:20:09Z</time>
      </trkpt>
      <trkpt lat="44.46584" lon="6.54961">
        <ele>1890</ele>
        <time>2021-02-21T05:20:10Z</time>
      </trkpt>
      <trkpt lat="44.46584" lon="6.54959">
        <ele>1890</ele>
        <time>2021-02-21T05:20:11Z</time>
      </trkpt>
      <trkpt lat="44.46584" lon="6.54959">
        <ele>1889</ele>
        <time>2021-02-21T05:20:12Z</time>
      </trkpt>
      <trkpt lat="44.46584" lon="6.54958">
        <ele>1889</ele>
        <time>2021-02-21T05:20:13Z</time>
      </trkpt>
      <trkpt lat="44.46584" lon="6.54956">
        <ele>1889</ele>
        <time>2021-02-21T05:20:14Z</time>
      </trkpt>
      <trkpt lat="44.46583" lon="6.54955">
        <ele>1889</ele>
        <time>2021-02-21T05:20:15Z</time>
      </trkpt>
      <trkpt lat="44.46583" lon="6.54954">
        <ele>1888</ele>
        <time>2021-02-21T05:20:16Z</time>
      </trkpt>
      <trkpt lat="44.46583" lon="6.54953">
        <ele>1888</ele>
        <time>2021-02-21T05:20:17Z</time>
      </trkpt>
      <trkpt lat="44.46583" lon="6.54952">
        <ele>1888</ele>
        <time>2021-02-21T05:20:18Z</time>
      </trkpt>
      <trkpt lat="44.46584" lon="6.54951">
        <ele>1888</ele>
        <time>2021-02-21T05:20:19Z</time>
      </trkpt>
      <trkpt lat="44.46584" lon="6.5495">
        <ele>1888</ele>
        <time>2021-02-21T05:20:20Z</time>
      </trkpt>
      <trkpt lat="44.46584" lon="6.54949">
        <ele>1887</ele>
        <time>2021-02-21T05:20:21Z</time>
      </trkpt>
      <trkpt lat="44.46584" lon="6.54948">
        <ele>1887</ele>
        <time>2021-02-21T05:20:22Z</time>
      </trkpt>
      <trkpt lat="44.46584" lon="6.54947">
        <ele>1887</ele>
        <time>2021-02-21T05:20:23Z</time>
      </trkpt>
      <trkpt lat="44.46584" lon="6.54945">
        <ele>1887</ele>
        <time>2021-02-21T05:20:24Z</time>
      </trkpt>
      <trkpt lat="44.46584" lon="6.54944">
        <ele>1887</ele>
        <time>2021-02-21T05:20:25Z</time>
      </trkpt>
      <trkpt lat="44.46584" lon="6.54943">
        <ele>1887</ele>
        <time>2021-02-21T05:20:26Z</time>
      </trkpt>
      <trkpt lat="44.46585" lon="6.54941">
        <ele>1887</ele>
        <time>2021-02-21T05:20:27Z</time>
      </trkpt>
      <trkpt lat="44.46585" lon="6.5494">
        <ele>1887</ele>
        <time>2021-02-21T05:20:28Z</time>
      </trkpt>
      <trkpt lat="44.46586" lon="6.54939">
        <ele>1888</ele>
        <time>2021-02-21T05:20:29Z</time>
      </trkpt>
      <trkpt lat="44.46586" lon="6.54939">
        <ele>1888</ele>
        <time>2021-02-21T05:20:30Z</time>
      </trkpt>
      <trkpt lat="44.46585" lon="6.54938">
        <ele>1888</ele>
        <time>2021-02-21T05:20:31Z</time>
      </trkpt>
      <trkpt lat="44.46586" lon="6.54938">
        <ele>1888</ele>
        <time>2021-02-21T05:20:32Z</time>
      </trkpt>
      <trkpt lat="44.46585" lon="6.54937">
        <ele>1888</ele>
        <time>2021-02-21T05:20:33Z</time>
      </trkpt>
      <trkpt lat="44.46585" lon="6.54936">
        <ele>1888</ele>
        <time>2021-02-21T05:20:34Z</time>
      </trkpt>
      <trkpt lat="44.46586" lon="6.54935">
        <ele>1888</ele>
        <time>2021-02-21T05:20:35Z</time>
      </trkpt>
      <trkpt lat="44.46586" lon="6.54934">
        <ele>1887</ele>
        <time>2021-02-21T05:20:36Z</time>
      </trkpt>
      <trkpt lat="44.46586" lon="6.54933">
        <ele>1887</ele>
        <time>2021-02-21T05:20:37Z</time>
      </trkpt>
      <trkpt lat="44.46586" lon="6.54932">
        <ele>1887</ele>
        <time>2021-02-21T05:20:38Z</time>
      </trkpt>
      <trkpt lat="44.46586" lon="6.54931">
        <ele>1887</ele>
        <time>2021-02-21T05:20:39Z</time>
      </trkpt>
      <trkpt lat="44.46587" lon="6.5493">
        <ele>1887</ele>
        <time>2021-02-21T05:20:40Z</time>
      </trkpt>
      <trkpt lat="44.46587" lon="6.54928">
        <ele>1887</ele>
        <time>2021-02-21T05:20:41Z</time>
      </trkpt>
      <trkpt lat="44.46587" lon="6.54927">
        <ele>1887</ele>
        <time>2021-02-21T05:20:42Z</time>
      </trkpt>
      <trkpt lat="44.46588" lon="6.54926">
        <ele>1887</ele>
        <time>2021-02-21T05:20:43Z</time>
      </trkpt>
      <trkpt lat="44.46588" lon="6.54924">
        <ele>1887</ele>
        <time>2021-02-21T05:20:44Z</time>
      </trkpt>
      <trkpt lat="44.46589" lon="6.54923">
        <ele>1887</ele>
        <time>2021-02-21T05:20:45Z</time>
      </trkpt>
      <trkpt lat="44.46589" lon="6.54922">
        <ele>1887</ele>
        <time>2021-02-21T05:20:46Z</time>
      </trkpt>
      <trkpt lat="44.46589" lon="6.54921">
        <ele>1887</ele>
        <time>2021-02-21T05:20:47Z</time>
      </trkpt>
      <trkpt lat="44.46589" lon="6.54919">
        <ele>1887</ele>
        <time>2021-02-21T05:20:48Z</time>
      </trkpt>
      <trkpt lat="44.46589" lon="6.54918">
        <ele>1887</ele>
        <time>2021-02-21T05:20:49Z</time>
      </trkpt>
      <trkpt lat="44.4659" lon="6.54917">
        <ele>1887</ele>
        <time>2021-02-21T05:20:50Z</time>
      </trkpt>
      <trkpt lat="44.4659" lon="6.54916">
        <ele>1887</ele>
        <time>2021-02-21T05:20:51Z</time>
      </trkpt>
      <trkpt lat="44.4659" lon="6.54916">
        <ele>1888</ele>
        <time>2021-02-21T05:20:52Z</time>
      </trkpt>
      <trkpt lat="44.46589" lon="6.54915">
        <ele>1888</ele>
        <time>2021-02-21T05:20:53Z</time>
      </trkpt>
      <trkpt lat="44.4659" lon="6.54914">
        <ele>1888</ele>
        <time>2021-02-21T05:20:54Z</time>
      </trkpt>
      <trkpt lat="44.4659" lon="6.54913">
        <ele>1888</ele>
        <time>2021-02-21T05:20:55Z</time>
      </trkpt>
      <trkpt lat="44.4659" lon="6.54912">
        <ele>1888</ele>
        <time>2021-02-21T05:20:56Z</time>
      </trkpt>
      <trkpt lat="44.46589" lon="6.54911">
        <ele>1889</ele>
        <time>2021-02-21T05:20:57Z</time>
      </trkpt>
      <trkpt lat="44.46589" lon="6.5491">
        <ele>1889</ele>
        <time>2021-02-21T05:20:58Z</time>
      </trkpt>
      <trkpt lat="44.46588" lon="6.54909">
        <ele>1889</ele>
        <time>2021-02-21T05:20:59Z</time>
      </trkpt>
      <trkpt lat="44.46588" lon="6.54908">
        <ele>1889</ele>
        <time>2021-02-21T05:21:00Z</time>
      </trkpt>
      <trkpt lat="44.46588" lon="6.54907">
        <ele>1890</ele>
        <time>2021-02-21T05:21:01Z</time>
      </trkpt>
      <trkpt lat="44.46587" lon="6.54906">
        <ele>1890</ele>
        <time>2021-02-21T05:21:02Z</time>
      </trkpt>
      <trkpt lat="44.46586" lon="6.54905">
        <ele>1890</ele>
        <time>2021-02-21T05:21:03Z</time>
      </trkpt>
      <trkpt lat="44.46586" lon="6.54905">
        <ele>1890</ele>
        <time>2021-02-21T05:21:04Z</time>
      </trkpt>
      <trkpt lat="44.46586" lon="6.54904">
        <ele>1891</ele>
        <time>2021-02-21T05:21:05Z</time>
      </trkpt>
      <trkpt lat="44.46585" lon="6.54904">
        <ele>1891</ele>
        <time>2021-02-21T05:21:06Z</time>
      </trkpt>
      <trkpt lat="44.46584" lon="6.54904">
        <ele>1891</ele>
        <time>2021-02-21T05:21:07Z</time>
      </trkpt>
      <trkpt lat="44.46584" lon="6.54904">
        <ele>1891</ele>
        <time>2021-02-21T05:21:08Z</time>
      </trkpt>
      <trkpt lat="44.46584" lon="6.54904">
        <ele>1891</ele>
        <time>2021-02-21T05:21:09Z</time>
      </trkpt>
      <trkpt lat="44.46584" lon="6.54904">
        <ele>1891</ele>
        <time>2021-02-21T05:21:10Z</time>
      </trkpt>
      <trkpt lat="44.46584" lon="6.54903">
        <ele>1891</ele>
        <time>2021-02-21T05:21:11Z</time>
      </trkpt>
      <trkpt lat="44.46583" lon="6.54902">
        <ele>1891</ele>
        <time>2021-02-21T05:21:12Z</time>
      </trkpt>
      <trkpt lat="44.46583" lon="6.54901">
        <ele>1891</ele>
        <time>2021-02-21T05:21:13Z</time>
      </trkpt>
      <trkpt lat="44.46583" lon="6.54899">
        <ele>1891</ele>
        <time>2021-02-21T05:21:14Z</time>
      </trkpt>
      <trkpt lat="44.46583" lon="6.54898">
        <ele>1892</ele>
        <time>2021-02-21T05:21:15Z</time>
      </trkpt>
      <trkpt lat="44.46583" lon="6.54896">
        <ele>1892</ele>
        <time>2021-02-21T05:21:16Z</time>
      </trkpt>
      <trkpt lat="44.46583" lon="6.54895">
        <ele>1892</ele>
        <time>2021-02-21T05:21:17Z</time>
      </trkpt>
      <trkpt lat="44.46583" lon="6.54894">
        <ele>1892</ele>
        <time>2021-02-21T05:21:18Z</time>
      </trkpt>
      <trkpt lat="44.46584" lon="6.54892">
        <ele>1892</ele>
        <time>2021-02-21T05:21:19Z</time>
      </trkpt>
      <trkpt lat="44.46584" lon="6.54891">
        <ele>1892</ele>
        <time>2021-02-21T05:21:20Z</time>
      </trkpt>
      <trkpt lat="44.46584" lon="6.5489">
        <ele>1892</ele>
        <time>2021-02-21T05:21:21Z</time>
      </trkpt>
      <trkpt lat="44.46584" lon="6.54888">
        <ele>1892</ele>
        <time>2021-02-21T05:21:22Z</time>
      </trkpt>
      <trkpt lat="44.46584" lon="6.54887">
        <ele>1892</ele>
        <time>2021-02-21T05:21:23Z</time>
      </trkpt>
      <trkpt lat="44.46584" lon="6.54886">
        <ele>1892</ele>
        <time>2021-02-21T05:21:24Z</time>
      </trkpt>
      <trkpt lat="44.46584" lon="6.54885">
        <ele>1892</ele>
        <time>2021-02-21T05:21:25Z</time>
      </trkpt>
      <trkpt lat="44.46584" lon="6.54883">
        <ele>1892</ele>
        <time>2021-02-21T05:21:26Z</time>
      </trkpt>
      <trkpt lat="44.46584" lon="6.54882">
        <ele>1893</ele>
        <time>2021-02-21T05:21:27Z</time>
      </trkpt>
      <trkpt lat="44.46584" lon="6.5488">
        <ele>1893</ele>
        <time>2021-02-21T05:21:28Z</time>
      </trkpt>
      <trkpt lat="44.46584" lon="6.54879">
        <ele>1893</ele>
        <time>2021-02-21T05:21:29Z</time>
      </trkpt>
      <trkpt lat="44.46584" lon="6.54878">
        <ele>1893</ele>
        <time>2021-02-21T05:21:30Z</time>
      </trkpt>
      <trkpt lat="44.46583" lon="6.54876">
        <ele>1893</ele>
        <time>2021-02-21T05:21:31Z</time>
      </trkpt>
      <trkpt lat="44.46582" lon="6.54875">
        <ele>1894</ele>
        <time>2021-02-21T05:21:32Z</time>
      </trkpt>
      <trkpt lat="44.46582" lon="6.54875">
        <ele>1894</ele>
        <time>2021-02-21T05:21:33Z</time>
      </trkpt>
      <trkpt lat="44.46582" lon="6.54874">
        <ele>1894</ele>
        <time>2021-02-21T05:21:34Z</time>
      </trkpt>
      <trkpt lat="44.46582" lon="6.54872">
        <ele>1894</ele>
        <time>2021-02-21T05:21:35Z</time>
      </trkpt>
      <trkpt lat="44.46583" lon="6.54871">
        <ele>1895</ele>
        <time>2021-02-21T05:21:36Z</time>
      </trkpt>
      <trkpt lat="44.46583" lon="6.5487">
        <ele>1895</ele>
        <time>2021-02-21T05:21:37Z</time>
      </trkpt>
      <trkpt lat="44.46582" lon="6.54869">
        <ele>1895</ele>
        <time>2021-02-21T05:21:38Z</time>
      </trkpt>
      <trkpt lat="44.46582" lon="6.54868">
        <ele>1895</ele>
        <time>2021-02-21T05:21:39Z</time>
      </trkpt>
      <trkpt lat="44.46582" lon="6.54867">
        <ele>1895</ele>
        <time>2021-02-21T05:21:40Z</time>
      </trkpt>
      <trkpt lat="44.46582" lon="6.54866">
        <ele>1896</ele>
        <time>2021-02-21T05:21:41Z</time>
      </trkpt>
      <trkpt lat="44.46582" lon="6.54864">
        <ele>1896</ele>
        <time>2021-02-21T05:21:42Z</time>
      </trkpt>
      <trkpt lat="44.46583" lon="6.54863">
        <ele>1897</ele>
        <time>2021-02-21T05:21:43Z</time>
      </trkpt>
      <trkpt lat="44.46583" lon="6.54862">
        <ele>1897</ele>
        <time>2021-02-21T05:21:44Z</time>
      </trkpt>
      <trkpt lat="44.46583" lon="6.5486">
        <ele>1897</ele>
        <time>2021-02-21T05:21:45Z</time>
      </trkpt>
      <trkpt lat="44.46584" lon="6.54859">
        <ele>1898</ele>
        <time>2021-02-21T05:21:46Z</time>
      </trkpt>
      <trkpt lat="44.46584" lon="6.54858">
        <ele>1898</ele>
        <time>2021-02-21T05:21:47Z</time>
      </trkpt>
      <trkpt lat="44.46584" lon="6.54857">
        <ele>1898</ele>
        <time>2021-02-21T05:21:48Z</time>
      </trkpt>
      <trkpt lat="44.46584" lon="6.54856">
        <ele>1898</ele>
        <time>2021-02-21T05:21:49Z</time>
      </trkpt>
      <trkpt lat="44.46584" lon="6.54855">
        <ele>1899</ele>
        <time>2021-02-21T05:21:50Z</time>
      </trkpt>
      <trkpt lat="44.46585" lon="6.54854">
        <ele>1899</ele>
        <time>2021-02-21T05:21:51Z</time>
      </trkpt>
      <trkpt lat="44.46585" lon="6.54852">
        <ele>1900</ele>
        <time>2021-02-21T05:21:52Z</time>
      </trkpt>
      <trkpt lat="44.46585" lon="6.54851">
        <ele>1900</ele>
        <time>2021-02-21T05:21:53Z</time>
      </trkpt>
      <trkpt lat="44.46586" lon="6.54851">
        <ele>1900</ele>
        <time>2021-02-21T05:21:54Z</time>
      </trkpt>
      <trkpt lat="44.46587" lon="6.54849">
        <ele>1901</ele>
        <time>2021-02-21T05:21:55Z</time>
      </trkpt>
      <trkpt lat="44.46588" lon="6.54848">
        <ele>1901</ele>
        <time>2021-02-21T05:21:56Z</time>
      </trkpt>
      <trkpt lat="44.46587" lon="6.54847">
        <ele>1902</ele>
        <time>2021-02-21T05:21:57Z</time>
      </trkpt>
      <trkpt lat="44.46588" lon="6.54846">
        <ele>1902</ele>
        <time>2021-02-21T05:21:58Z</time>
      </trkpt>
      <trkpt lat="44.46588" lon="6.54846">
        <ele>1902</ele>
        <time>2021-02-21T05:21:59Z</time>
      </trkpt>
      <trkpt lat="44.46588" lon="6.54845">
        <ele>1902</ele>
        <time>2021-02-21T05:22:00Z</time>
      </trkpt>
      <trkpt lat="44.46588" lon="6.54844">
        <ele>1902</ele>
        <time>2021-02-21T05:22:01Z</time>
      </trkpt>
      <trkpt lat="44.46588" lon="6.54843">
        <ele>1902</ele>
        <time>2021-02-21T05:22:02Z</time>
      </trkpt>
      <trkpt lat="44.46589" lon="6.54841">
        <ele>1902</ele>
        <time>2021-02-21T05:22:03Z</time>
      </trkpt>
      <trkpt lat="44.4659" lon="6.54839">
        <ele>1902</ele>
        <time>2021-02-21T05:22:04Z</time>
      </trkpt>
      <trkpt lat="44.4659" lon="6.54838">
        <ele>1901</ele>
        <time>2021-02-21T05:22:05Z</time>
      </trkpt>
      <trkpt lat="44.46591" lon="6.54837">
        <ele>1901</ele>
        <time>2021-02-21T05:22:06Z</time>
      </trkpt>
      <trkpt lat="44.46591" lon="6.54836">
        <ele>1901</ele>
        <time>2021-02-21T05:22:07Z</time>
      </trkpt>
      <trkpt lat="44.46591" lon="6.54835">
        <ele>1901</ele>
        <time>2021-02-21T05:22:08Z</time>
      </trkpt>
      <trkpt lat="44.46592" lon="6.54833">
        <ele>1901</ele>
        <time>2021-02-21T05:22:09Z</time>
      </trkpt>
      <trkpt lat="44.46592" lon="6.54832">
        <ele>1900</ele>
        <time>2021-02-21T05:22:10Z</time>
      </trkpt>
      <trkpt lat="44.46593" lon="6.5483">
        <ele>1900</ele>
        <time>2021-02-21T05:22:11Z</time>
      </trkpt>
      <trkpt lat="44.46593" lon="6.54829">
        <ele>1900</ele>
        <time>2021-02-21T05:22:12Z</time>
      </trkpt>
      <trkpt lat="44.46592" lon="6.54827">
        <ele>1900</ele>
        <time>2021-02-21T05:22:13Z</time>
      </trkpt>
      <trkpt lat="44.46593" lon="6.54826">
        <ele>1900</ele>
        <time>2021-02-21T05:22:14Z</time>
      </trkpt>
      <trkpt lat="44.46593" lon="6.54826">
        <ele>1900</ele>
        <time>2021-02-21T05:22:15Z</time>
      </trkpt>
      <trkpt lat="44.46592" lon="6.54824">
        <ele>1900</ele>
        <time>2021-02-21T05:22:16Z</time>
      </trkpt>
      <trkpt lat="44.46592" lon="6.54823">
        <ele>1900</ele>
        <time>2021-02-21T05:22:17Z</time>
      </trkpt>
      <trkpt lat="44.46591" lon="6.54823">
        <ele>1900</ele>
        <time>2021-02-21T05:22:18Z</time>
      </trkpt>
      <trkpt lat="44.46591" lon="6.54822">
        <ele>1900</ele>
        <time>2021-02-21T05:22:19Z</time>
      </trkpt>
      <trkpt lat="44.46591" lon="6.54821">
        <ele>1900</ele>
        <time>2021-02-21T05:22:20Z</time>
      </trkpt>
      <trkpt lat="44.46591" lon="6.5482">
        <ele>1900</ele>
        <time>2021-02-21T05:22:21Z</time>
      </trkpt>
      <trkpt lat="44.46591" lon="6.54818">
        <ele>1901</ele>
        <time>2021-02-21T05:22:22Z</time>
      </trkpt>
      <trkpt lat="44.4659" lon="6.54817">
        <ele>1901</ele>
        <time>2021-02-21T05:22:23Z</time>
      </trkpt>
      <trkpt lat="44.46591" lon="6.54816">
        <ele>1901</ele>
        <time>2021-02-21T05:22:24Z</time>
      </trkpt>
      <trkpt lat="44.46591" lon="6.54815">
        <ele>1901</ele>
        <time>2021-02-21T05:22:25Z</time>
      </trkpt>
      <trkpt lat="44.46591" lon="6.54814">
        <ele>1901</ele>
        <time>2021-02-21T05:22:26Z</time>
      </trkpt>
      <trkpt lat="44.46592" lon="6.54813">
        <ele>1902</ele>
        <time>2021-02-21T05:22:27Z</time>
      </trkpt>
      <trkpt lat="44.46592" lon="6.54812">
        <ele>1902</ele>
        <time>2021-02-21T05:22:28Z</time>
      </trkpt>
      <trkpt lat="44.46593" lon="6.54811">
        <ele>1902</ele>
        <time>2021-02-21T05:22:29Z</time>
      </trkpt>
      <trkpt lat="44.46593" lon="6.54809">
        <ele>1902</ele>
        <time>2021-02-21T05:22:30Z</time>
      </trkpt>
      <trkpt lat="44.46593" lon="6.54807">
        <ele>1902</ele>
        <time>2021-02-21T05:22:31Z</time>
      </trkpt>
      <trkpt lat="44.46593" lon="6.54805">
        <ele>1902</ele>
        <time>2021-02-21T05:22:32Z</time>
      </trkpt>
      <trkpt lat="44.46594" lon="6.54803">
        <ele>1902</ele>
        <time>2021-02-21T05:22:33Z</time>
      </trkpt>
      <trkpt lat="44.46595" lon="6.54802">
        <ele>1903</ele>
        <time>2021-02-21T05:22:34Z</time>
      </trkpt>
      <trkpt lat="44.46595" lon="6.548">
        <ele>1903</ele>
        <time>2021-02-21T05:22:35Z</time>
      </trkpt>
      <trkpt lat="44.46595" lon="6.54799">
        <ele>1903</ele>
        <time>2021-02-21T05:22:36Z</time>
      </trkpt>
      <trkpt lat="44.46596" lon="6.54797">
        <ele>1903</ele>
        <time>2021-02-21T05:22:37Z</time>
      </trkpt>
      <trkpt lat="44.46596" lon="6.54795">
        <ele>1904</ele>
        <time>2021-02-21T05:22:38Z</time>
      </trkpt>
      <trkpt lat="44.46597" lon="6.54793">
        <ele>1904</ele>
        <time>2021-02-21T05:22:39Z</time>
      </trkpt>
      <trkpt lat="44.46596" lon="6.54791">
        <ele>1904</ele>
        <time>2021-02-21T05:22:40Z</time>
      </trkpt>
      <trkpt lat="44.46596" lon="6.54789">
        <ele>1905</ele>
        <time>2021-02-21T05:22:41Z</time>
      </trkpt>
      <trkpt lat="44.46596" lon="6.54787">
        <ele>1905</ele>
        <time>2021-02-21T05:22:42Z</time>
      </trkpt>
      <trkpt lat="44.46596" lon="6.54786">
        <ele>1905</ele>
        <time>2021-02-21T05:22:43Z</time>
      </trkpt>
      <trkpt lat="44.46596" lon="6.54784">
        <ele>1905</ele>
        <time>2021-02-21T05:22:44Z</time>
      </trkpt>
      <trkpt lat="44.46596" lon="6.54783">
        <ele>1906</ele>
        <time>2021-02-21T05:22:45Z</time>
      </trkpt>
      <trkpt lat="44.46596" lon="6.54781">
        <ele>1906</ele>
        <time>2021-02-21T05:22:46Z</time>
      </trkpt>
      <trkpt lat="44.46597" lon="6.54779">
        <ele>1906</ele>
        <time>2021-02-21T05:22:47Z</time>
      </trkpt>
      <trkpt lat="44.46597" lon="6.54778">
        <ele>1906</ele>
        <time>2021-02-21T05:22:48Z</time>
      </trkpt>
      <trkpt lat="44.46598" lon="6.54776">
        <ele>1906</ele>
        <time>2021-02-21T05:22:49Z</time>
      </trkpt>
      <trkpt lat="44.46598" lon="6.54775">
        <ele>1906</ele>
        <time>2021-02-21T05:22:50Z</time>
      </trkpt>
      <trkpt lat="44.46599" lon="6.54774">
        <ele>1906</ele>
        <time>2021-02-21T05:22:51Z</time>
      </trkpt>
      <trkpt lat="44.46599" lon="6.54773">
        <ele>1906</ele>
        <time>2021-02-21T05:22:52Z</time>
      </trkpt>
      <trkpt lat="44.46599" lon="6.54771">
        <ele>1906</ele>
        <time>2021-02-21T05:22:53Z</time>
      </trkpt>
      <trkpt lat="44.46599" lon="6.5477">
        <ele>1906</ele>
        <time>2021-02-21T05:22:54Z</time>
      </trkpt>
      <trkpt lat="44.466" lon="6.54769">
        <ele>1907</ele>
        <time>2021-02-21T05:22:55Z</time>
      </trkpt>
      <trkpt lat="44.466" lon="6.54768">
        <ele>1907</ele>
        <time>2021-02-21T05:22:56Z</time>
      </trkpt>
      <trkpt lat="44.466" lon="6.54766">
        <ele>1907</ele>
        <time>2021-02-21T05:22:57Z</time>
      </trkpt>
      <trkpt lat="44.466" lon="6.54765">
        <ele>1907</ele>
        <time>2021-02-21T05:22:58Z</time>
      </trkpt>
      <trkpt lat="44.46601" lon="6.54763">
        <ele>1907</ele>
        <time>2021-02-21T05:22:59Z</time>
      </trkpt>
      <trkpt lat="44.46601" lon="6.54761">
        <ele>1907</ele>
        <time>2021-02-21T05:23:00Z</time>
      </trkpt>
      <trkpt lat="44.46601" lon="6.54759">
        <ele>1907</ele>
        <time>2021-02-21T05:23:01Z</time>
      </trkpt>
      <trkpt lat="44.46601" lon="6.54758">
        <ele>1907</ele>
        <time>2021-02-21T05:23:02Z</time>
      </trkpt>
      <trkpt lat="44.46601" lon="6.54756">
        <ele>1906</ele>
        <time>2021-02-21T05:23:03Z</time>
      </trkpt>
      <trkpt lat="44.46601" lon="6.54754">
        <ele>1907</ele>
        <time>2021-02-21T05:23:04Z</time>
      </trkpt>
      <trkpt lat="44.46601" lon="6.54753">
        <ele>1907</ele>
        <time>2021-02-21T05:23:05Z</time>
      </trkpt>
      <trkpt lat="44.46601" lon="6.54751">
        <ele>1907</ele>
        <time>2021-02-21T05:23:06Z</time>
      </trkpt>
      <trkpt lat="44.46601" lon="6.5475">
        <ele>1907</ele>
        <time>2021-02-21T05:23:07Z</time>
      </trkpt>
      <trkpt lat="44.46601" lon="6.54748">
        <ele>1907</ele>
        <time>2021-02-21T05:23:08Z</time>
      </trkpt>
      <trkpt lat="44.46602" lon="6.54746">
        <ele>1907</ele>
        <time>2021-02-21T05:23:09Z</time>
      </trkpt>
      <trkpt lat="44.46602" lon="6.54745">
        <ele>1907</ele>
        <time>2021-02-21T05:23:10Z</time>
      </trkpt>
      <trkpt lat="44.46601" lon="6.54744">
        <ele>1906</ele>
        <time>2021-02-21T05:23:11Z</time>
      </trkpt>
      <trkpt lat="44.46601" lon="6.54742">
        <ele>1906</ele>
        <time>2021-02-21T05:23:12Z</time>
      </trkpt>
      <trkpt lat="44.46601" lon="6.5474">
        <ele>1906</ele>
        <time>2021-02-21T05:23:13Z</time>
      </trkpt>
      <trkpt lat="44.466" lon="6.54739">
        <ele>1905</ele>
        <time>2021-02-21T05:23:14Z</time>
      </trkpt>
      <trkpt lat="44.46601" lon="6.54737">
        <ele>1904</ele>
        <time>2021-02-21T05:23:15Z</time>
      </trkpt>
      <trkpt lat="44.46602" lon="6.54736">
        <ele>1904</ele>
        <time>2021-02-21T05:23:16Z</time>
      </trkpt>
      <trkpt lat="44.46602" lon="6.54735">
        <ele>1904</ele>
        <time>2021-02-21T05:23:17Z</time>
      </trkpt>
      <trkpt lat="44.46602" lon="6.54734">
        <ele>1903</ele>
        <time>2021-02-21T05:23:18Z</time>
      </trkpt>
      <trkpt lat="44.46601" lon="6.54733">
        <ele>1902</ele>
        <time>2021-02-21T05:23:19Z</time>
      </trkpt>
      <trkpt lat="44.46601" lon="6.54732">
        <ele>1902</ele>
        <time>2021-02-21T05:23:20Z</time>
      </trkpt>
      <trkpt lat="44.466" lon="6.54731">
        <ele>1902</ele>
        <time>2021-02-21T05:23:21Z</time>
      </trkpt>
      <trkpt lat="44.466" lon="6.5473">
        <ele>1901</ele>
        <time>2021-02-21T05:23:22Z</time>
      </trkpt>
      <trkpt lat="44.46601" lon="6.54729">
        <ele>1901</ele>
        <time>2021-02-21T05:23:23Z</time>
      </trkpt>
      <trkpt lat="44.466" lon="6.54728">
        <ele>1901</ele>
        <time>2021-02-21T05:23:24Z</time>
      </trkpt>
      <trkpt lat="44.466" lon="6.54726">
        <ele>1901</ele>
        <time>2021-02-21T05:23:25Z</time>
      </trkpt>
      <trkpt lat="44.466" lon="6.54724">
        <ele>1901</ele>
        <time>2021-02-21T05:23:26Z</time>
      </trkpt>
      <trkpt lat="44.466" lon="6.54723">
        <ele>1900</ele>
        <time>2021-02-21T05:23:27Z</time>
      </trkpt>
      <trkpt lat="44.46601" lon="6.54721">
        <ele>1900</ele>
        <time>2021-02-21T05:23:28Z</time>
      </trkpt>
      <trkpt lat="44.466" lon="6.5472">
        <ele>1900</ele>
        <time>2021-02-21T05:23:29Z</time>
      </trkpt>
      <trkpt lat="44.466" lon="6.54719">
        <ele>1900</ele>
        <time>2021-02-21T05:23:30Z</time>
      </trkpt>
      <trkpt lat="44.466" lon="6.54718">
        <ele>1900</ele>
        <time>2021-02-21T05:23:31Z</time>
      </trkpt>
      <trkpt lat="44.46601" lon="6.54716">
        <ele>1900</ele>
        <time>2021-02-21T05:23:32Z</time>
      </trkpt>
      <trkpt lat="44.46601" lon="6.54714">
        <ele>1900</ele>
        <time>2021-02-21T05:23:33Z</time>
      </trkpt>
      <trkpt lat="44.46602" lon="6.54713">
        <ele>1900</ele>
        <time>2021-02-21T05:23:34Z</time>
      </trkpt>
      <trkpt lat="44.46602" lon="6.54712">
        <ele>1900</ele>
        <time>2021-02-21T05:23:35Z</time>
      </trkpt>
      <trkpt lat="44.46603" lon="6.5471">
        <ele>1900</ele>
        <time>2021-02-21T05:23:36Z</time>
      </trkpt>
      <trkpt lat="44.46603" lon="6.54709">
        <ele>1900</ele>
        <time>2021-02-21T05:23:37Z</time>
      </trkpt>
      <trkpt lat="44.46603" lon="6.54707">
        <ele>1901</ele>
        <time>2021-02-21T05:23:38Z</time>
      </trkpt>
      <trkpt lat="44.46602" lon="6.54707">
        <ele>1901</ele>
        <time>2021-02-21T05:23:39Z</time>
      </trkpt>
      <trkpt lat="44.46603" lon="6.54706">
        <ele>1901</ele>
        <time>2021-02-21T05:23:40Z</time>
      </trkpt>
      <trkpt lat="44.46603" lon="6.54705">
        <ele>1901</ele>
        <time>2021-02-21T05:23:41Z</time>
      </trkpt>
      <trkpt lat="44.46604" lon="6.54703">
        <ele>1901</ele>
        <time>2021-02-21T05:23:42Z</time>
      </trkpt>
      <trkpt lat="44.46604" lon="6.54702">
        <ele>1902</ele>
        <time>2021-02-21T05:23:43Z</time>
      </trkpt>
      <trkpt lat="44.46604" lon="6.547">
        <ele>1902</ele>
        <time>2021-02-21T05:23:44Z</time>
      </trkpt>
      <trkpt lat="44.46605" lon="6.54699">
        <ele>1902</ele>
        <time>2021-02-21T05:23:45Z</time>
      </trkpt>
      <trkpt lat="44.46605" lon="6.54698">
        <ele>1902</ele>
        <time>2021-02-21T05:23:46Z</time>
      </trkpt>
      <trkpt lat="44.46606" lon="6.54697">
        <ele>1902</ele>
        <time>2021-02-21T05:23:47Z</time>
      </trkpt>
      <trkpt lat="44.46606" lon="6.54695">
        <ele>1902</ele>
        <time>2021-02-21T05:23:48Z</time>
      </trkpt>
      <trkpt lat="44.46606" lon="6.54694">
        <ele>1902</ele>
        <time>2021-02-21T05:23:49Z</time>
      </trkpt>
      <trkpt lat="44.46607" lon="6.54693">
        <ele>1902</ele>
        <time>2021-02-21T05:23:50Z</time>
      </trkpt>
      <trkpt lat="44.46607" lon="6.54692">
        <ele>1902</ele>
        <time>2021-02-21T05:23:51Z</time>
      </trkpt>
      <trkpt lat="44.46608" lon="6.54691">
        <ele>1902</ele>
        <time>2021-02-21T05:23:52Z</time>
      </trkpt>
      <trkpt lat="44.46608" lon="6.5469">
        <ele>1902</ele>
        <time>2021-02-21T05:23:53Z</time>
      </trkpt>
      <trkpt lat="44.46608" lon="6.54689">
        <ele>1902</ele>
        <time>2021-02-21T05:23:54Z</time>
      </trkpt>
      <trkpt lat="44.46608" lon="6.54688">
        <ele>1903</ele>
        <time>2021-02-21T05:23:55Z</time>
      </trkpt>
      <trkpt lat="44.46608" lon="6.54687">
        <ele>1903</ele>
        <time>2021-02-21T05:23:56Z</time>
      </trkpt>
      <trkpt lat="44.46608" lon="6.54686">
        <ele>1903</ele>
        <time>2021-02-21T05:23:57Z</time>
      </trkpt>
      <trkpt lat="44.46608" lon="6.54685">
        <ele>1903</ele>
        <time>2021-02-21T05:23:58Z</time>
      </trkpt>
      <trkpt lat="44.46607" lon="6.54684">
        <ele>1904</ele>
        <time>2021-02-21T05:23:59Z</time>
      </trkpt>
      <trkpt lat="44.46607" lon="6.54683">
        <ele>1904</ele>
        <time>2021-02-21T05:24:00Z</time>
      </trkpt>
      <trkpt lat="44.46608" lon="6.54682">
        <ele>1904</ele>
        <time>2021-02-21T05:24:01Z</time>
      </trkpt>
      <trkpt lat="44.46608" lon="6.54681">
        <ele>1904</ele>
        <time>2021-02-21T05:24:02Z</time>
      </trkpt>
      <trkpt lat="44.46608" lon="6.54679">
        <ele>1904</ele>
        <time>2021-02-21T05:24:03Z</time>
      </trkpt>
      <trkpt lat="44.46609" lon="6.54678">
        <ele>1905</ele>
        <time>2021-02-21T05:24:04Z</time>
      </trkpt>
      <trkpt lat="44.4661" lon="6.54677">
        <ele>1905</ele>
        <time>2021-02-21T05:24:05Z</time>
      </trkpt>
      <trkpt lat="44.46609" lon="6.54676">
        <ele>1906</ele>
        <time>2021-02-21T05:24:06Z</time>
      </trkpt>
      <trkpt lat="44.4661" lon="6.54676">
        <ele>1906</ele>
        <time>2021-02-21T05:24:07Z</time>
      </trkpt>
      <trkpt lat="44.4661" lon="6.54675">
        <ele>1906</ele>
        <time>2021-02-21T05:24:08Z</time>
      </trkpt>
      <trkpt lat="44.4661" lon="6.54674">
        <ele>1906</ele>
        <time>2021-02-21T05:24:09Z</time>
      </trkpt>
      <trkpt lat="44.4661" lon="6.54673">
        <ele>1906</ele>
        <time>2021-02-21T05:24:10Z</time>
      </trkpt>
      <trkpt lat="44.4661" lon="6.54672">
        <ele>1906</ele>
        <time>2021-02-21T05:24:11Z</time>
      </trkpt>
      <trkpt lat="44.4661" lon="6.54671">
        <ele>1907</ele>
        <time>2021-02-21T05:24:12Z</time>
      </trkpt>
      <trkpt lat="44.4661" lon="6.54669">
        <ele>1907</ele>
        <time>2021-02-21T05:24:13Z</time>
      </trkpt>
      <trkpt lat="44.4661" lon="6.54668">
        <ele>1908</ele>
        <time>2021-02-21T05:24:14Z</time>
      </trkpt>
      <trkpt lat="44.46609" lon="6.54666">
        <ele>1908</ele>
        <time>2021-02-21T05:24:15Z</time>
      </trkpt>
      <trkpt lat="44.46609" lon="6.54666">
        <ele>1908</ele>
        <time>2021-02-21T05:24:16Z</time>
      </trkpt>
      <trkpt lat="44.46609" lon="6.54664">
        <ele>1909</ele>
        <time>2021-02-21T05:24:17Z</time>
      </trkpt>
      <trkpt lat="44.46609" lon="6.54663">
        <ele>1909</ele>
        <time>2021-02-21T05:24:18Z</time>
      </trkpt>
      <trkpt lat="44.46608" lon="6.54662">
        <ele>1909</ele>
        <time>2021-02-21T05:24:19Z</time>
      </trkpt>
      <trkpt lat="44.46608" lon="6.5466">
        <ele>1910</ele>
        <time>2021-02-21T05:24:20Z</time>
      </trkpt>
      <trkpt lat="44.46608" lon="6.5466">
        <ele>1910</ele>
        <time>2021-02-21T05:24:21Z</time>
      </trkpt>
      <trkpt lat="44.46608" lon="6.54659">
        <ele>1911</ele>
        <time>2021-02-21T05:24:22Z</time>
      </trkpt>
      <trkpt lat="44.46608" lon="6.54658">
        <ele>1911</ele>
        <time>2021-02-21T05:24:23Z</time>
      </trkpt>
      <trkpt lat="44.46607" lon="6.54657">
        <ele>1911</ele>
        <time>2021-02-21T05:24:24Z</time>
      </trkpt>
      <trkpt lat="44.46607" lon="6.54656">
        <ele>1912</ele>
        <time>2021-02-21T05:24:25Z</time>
      </trkpt>
      <trkpt lat="44.46607" lon="6.54654">
        <ele>1912</ele>
        <time>2021-02-21T05:24:26Z</time>
      </trkpt>
      <trkpt lat="44.46608" lon="6.54653">
        <ele>1912</ele>
        <time>2021-02-21T05:24:27Z</time>
      </trkpt>
      <trkpt lat="44.46608" lon="6.54652">
        <ele>1912</ele>
        <time>2021-02-21T05:24:28Z</time>
      </trkpt>
      <trkpt lat="44.46608" lon="6.54652">
        <ele>1912</ele>
        <time>2021-02-21T05:24:29Z</time>
      </trkpt>
      <trkpt lat="44.46608" lon="6.54651">
        <ele>1913</ele>
        <time>2021-02-21T05:24:30Z</time>
      </trkpt>
      <trkpt lat="44.46609" lon="6.5465">
        <ele>1913</ele>
        <time>2021-02-21T05:24:31Z</time>
      </trkpt>
      <trkpt lat="44.46609" lon="6.54649">
        <ele>1913</ele>
        <time>2021-02-21T05:24:32Z</time>
      </trkpt>
      <trkpt lat="44.46609" lon="6.54648">
        <ele>1914</ele>
        <time>2021-02-21T05:24:33Z</time>
      </trkpt>
      <trkpt lat="44.46609" lon="6.54647">
        <ele>1914</ele>
        <time>2021-02-21T05:24:34Z</time>
      </trkpt>
      <trkpt lat="44.4661" lon="6.54646">
        <ele>1914</ele>
        <time>2021-02-21T05:24:35Z</time>
      </trkpt>
      <trkpt lat="44.4661" lon="6.54645">
        <ele>1915</ele>
        <time>2021-02-21T05:24:36Z</time>
      </trkpt>
      <trkpt lat="44.46611" lon="6.54644">
        <ele>1915</ele>
        <time>2021-02-21T05:24:37Z</time>
      </trkpt>
      <trkpt lat="44.46611" lon="6.54643">
        <ele>1915</ele>
        <time>2021-02-21T05:24:38Z</time>
      </trkpt>
      <trkpt lat="44.46611" lon="6.54642">
        <ele>1915</ele>
        <time>2021-02-21T05:24:39Z</time>
      </trkpt>
      <trkpt lat="44.46612" lon="6.54641">
        <ele>1916</ele>
        <time>2021-02-21T05:24:40Z</time>
      </trkpt>
      <trkpt lat="44.46611" lon="6.5464">
        <ele>1916</ele>
        <time>2021-02-21T05:24:41Z</time>
      </trkpt>
      <trkpt lat="44.46612" lon="6.54639">
        <ele>1916</ele>
        <time>2021-02-21T05:24:42Z</time>
      </trkpt>
      <trkpt lat="44.46612" lon="6.54638">
        <ele>1916</ele>
        <time>2021-02-21T05:24:43Z</time>
      </trkpt>
      <trkpt lat="44.46612" lon="6.54637">
        <ele>1917</ele>
        <time>2021-02-21T05:24:44Z</time>
      </trkpt>
      <trkpt lat="44.46613" lon="6.54636">
        <ele>1917</ele>
        <time>2021-02-21T05:24:45Z</time>
      </trkpt>
      <trkpt lat="44.46614" lon="6.54635">
        <ele>1918</ele>
        <time>2021-02-21T05:24:46Z</time>
      </trkpt>
      <trkpt lat="44.46614" lon="6.54634">
        <ele>1918</ele>
        <time>2021-02-21T05:24:47Z</time>
      </trkpt>
      <trkpt lat="44.46614" lon="6.54633">
        <ele>1918</ele>
        <time>2021-02-21T05:24:48Z</time>
      </trkpt>
      <trkpt lat="44.46615" lon="6.54632">
        <ele>1918</ele>
        <time>2021-02-21T05:24:49Z</time>
      </trkpt>
      <trkpt lat="44.46615" lon="6.54631">
        <ele>1919</ele>
        <time>2021-02-21T05:24:50Z</time>
      </trkpt>
      <trkpt lat="44.46616" lon="6.5463">
        <ele>1919</ele>
        <time>2021-02-21T05:24:51Z</time>
      </trkpt>
      <trkpt lat="44.46616" lon="6.5463">
        <ele>1919</ele>
        <time>2021-02-21T05:24:52Z</time>
      </trkpt>
      <trkpt lat="44.46617" lon="6.54628">
        <ele>1919</ele>
        <time>2021-02-21T05:24:53Z</time>
      </trkpt>
      <trkpt lat="44.46617" lon="6.54627">
        <ele>1920</ele>
        <time>2021-02-21T05:24:54Z</time>
      </trkpt>
      <trkpt lat="44.46618" lon="6.54626">
        <ele>1920</ele>
        <time>2021-02-21T05:24:55Z</time>
      </trkpt>
      <trkpt lat="44.46618" lon="6.54625">
        <ele>1921</ele>
        <time>2021-02-21T05:24:56Z</time>
      </trkpt>
      <trkpt lat="44.46618" lon="6.54624">
        <ele>1921</ele>
        <time>2021-02-21T05:24:57Z</time>
      </trkpt>
      <trkpt lat="44.46619" lon="6.54623">
        <ele>1921</ele>
        <time>2021-02-21T05:24:58Z</time>
      </trkpt>
      <trkpt lat="44.46619" lon="6.54621">
        <ele>1922</ele>
        <time>2021-02-21T05:24:59Z</time>
      </trkpt>
      <trkpt lat="44.46619" lon="6.5462">
        <ele>1922</ele>
        <time>2021-02-21T05:25:00Z</time>
      </trkpt>
      <trkpt lat="44.46619" lon="6.54619">
        <ele>1922</ele>
        <time>2021-02-21T05:25:01Z</time>
      </trkpt>
      <trkpt lat="44.46619" lon="6.54618">
        <ele>1923</ele>
        <time>2021-02-21T05:25:02Z</time>
      </trkpt>
      <trkpt lat="44.4662" lon="6.54617">
        <ele>1923</ele>
        <time>2021-02-21T05:25:03Z</time>
      </trkpt>
      <trkpt lat="44.4662" lon="6.54616">
        <ele>1923</ele>
        <time>2021-02-21T05:25:04Z</time>
      </trkpt>
      <trkpt lat="44.4662" lon="6.54616">
        <ele>1924</ele>
        <time>2021-02-21T05:25:05Z</time>
      </trkpt>
      <trkpt lat="44.4662" lon="6.54615">
        <ele>1924</ele>
        <time>2021-02-21T05:25:06Z</time>
      </trkpt>
      <trkpt lat="44.4662" lon="6.54614">
        <ele>1924</ele>
        <time>2021-02-21T05:25:07Z</time>
      </trkpt>
      <trkpt lat="44.4662" lon="6.54613">
        <ele>1925</ele>
        <time>2021-02-21T05:25:08Z</time>
      </trkpt>
      <trkpt lat="44.4662" lon="6.54613">
        <ele>1925</ele>
        <time>2021-02-21T05:25:09Z</time>
      </trkpt>
      <trkpt lat="44.4662" lon="6.54612">
        <ele>1925</ele>
        <time>2021-02-21T05:25:10Z</time>
      </trkpt>
      <trkpt lat="44.4662" lon="6.54611">
        <ele>1926</ele>
        <time>2021-02-21T05:25:11Z</time>
      </trkpt>
      <trkpt lat="44.4662" lon="6.54611">
        <ele>1926</ele>
        <time>2021-02-21T05:25:12Z</time>
      </trkpt>
      <trkpt lat="44.4662" lon="6.5461">
        <ele>1926</ele>
        <time>2021-02-21T05:25:13Z</time>
      </trkpt>
      <trkpt lat="44.4662" lon="6.5461">
        <ele>1926</ele>
        <time>2021-02-21T05:25:14Z</time>
      </trkpt>
      <trkpt lat="44.4662" lon="6.54609">
        <ele>1926</ele>
        <time>2021-02-21T05:25:15Z</time>
      </trkpt>
      <trkpt lat="44.4662" lon="6.54609">
        <ele>1927</ele>
        <time>2021-02-21T05:25:16Z</time>
      </trkpt>
      <trkpt lat="44.4662" lon="6.54608">
        <ele>1927</ele>
        <time>2021-02-21T05:25:17Z</time>
      </trkpt>
      <trkpt lat="44.4662" lon="6.54607">
        <ele>1928</ele>
        <time>2021-02-21T05:25:18Z</time>
      </trkpt>
      <trkpt lat="44.4662" lon="6.54606">
        <ele>1928</ele>
        <time>2021-02-21T05:25:19Z</time>
      </trkpt>
      <trkpt lat="44.4662" lon="6.54605">
        <ele>1928</ele>
        <time>2021-02-21T05:25:20Z</time>
      </trkpt>
      <trkpt lat="44.4662" lon="6.54604">
        <ele>1928</ele>
        <time>2021-02-21T05:25:21Z</time>
      </trkpt>
      <trkpt lat="44.4662" lon="6.54603">
        <ele>1929</ele>
        <time>2021-02-21T05:25:22Z</time>
      </trkpt>
      <trkpt lat="44.4662" lon="6.54602">
        <ele>1929</ele>
        <time>2021-02-21T05:25:23Z</time>
      </trkpt>
      <trkpt lat="44.46621" lon="6.54601">
        <ele>1930</ele>
        <time>2021-02-21T05:25:24Z</time>
      </trkpt>
      <trkpt lat="44.46621" lon="6.546">
        <ele>1930</ele>
        <time>2021-02-21T05:25:25Z</time>
      </trkpt>
      <trkpt lat="44.46621" lon="6.54599">
        <ele>1930</ele>
        <time>2021-02-21T05:25:26Z</time>
      </trkpt>
      <trkpt lat="44.46621" lon="6.54598">
        <ele>1930</ele>
        <time>2021-02-21T05:25:27Z</time>
      </trkpt>
      <trkpt lat="44.46621" lon="6.54597">
        <ele>1930</ele>
        <time>2021-02-21T05:25:28Z</time>
      </trkpt>
      <trkpt lat="44.46621" lon="6.54596">
        <ele>1931</ele>
        <time>2021-02-21T05:25:29Z</time>
      </trkpt>
      <trkpt lat="44.46621" lon="6.54595">
        <ele>1931</ele>
        <time>2021-02-21T05:25:30Z</time>
      </trkpt>
      <trkpt lat="44.46621" lon="6.54594">
        <ele>1931</ele>
        <time>2021-02-21T05:25:31Z</time>
      </trkpt>
      <trkpt lat="44.46621" lon="6.54593">
        <ele>1932</ele>
        <time>2021-02-21T05:25:32Z</time>
      </trkpt>
      <trkpt lat="44.46621" lon="6.54592">
        <ele>1932</ele>
        <time>2021-02-21T05:25:33Z</time>
      </trkpt>
      <trkpt lat="44.46621" lon="6.54591">
        <ele>1932</ele>
        <time>2021-02-21T05:25:34Z</time>
      </trkpt>
      <trkpt lat="44.46621" lon="6.5459">
        <ele>1932</ele>
        <time>2021-02-21T05:25:35Z</time>
      </trkpt>
      <trkpt lat="44.46621" lon="6.54589">
        <ele>1933</ele>
        <time>2021-02-21T05:25:36Z</time>
      </trkpt>
      <trkpt lat="44.46621" lon="6.54588">
        <ele>1933</ele>
        <time>2021-02-21T05:25:37Z</time>
      </trkpt>
      <trkpt lat="44.46621" lon="6.54587">
        <ele>1933</ele>
        <time>2021-02-21T05:25:38Z</time>
      </trkpt>
      <trkpt lat="44.46622" lon="6.54586">
        <ele>1933</ele>
        <time>2021-02-21T05:25:39Z</time>
      </trkpt>
      <trkpt lat="44.46622" lon="6.54585">
        <ele>1934</ele>
        <time>2021-02-21T05:25:40Z</time>
      </trkpt>
      <trkpt lat="44.46622" lon="6.54583">
        <ele>1934</ele>
        <time>2021-02-21T05:25:41Z</time>
      </trkpt>
      <trkpt lat="44.46622" lon="6.54583">
        <ele>1934</ele>
        <time>2021-02-21T05:25:42Z</time>
      </trkpt>
      <trkpt lat="44.46622" lon="6.54581">
        <ele>1934</ele>
        <time>2021-02-21T05:25:43Z</time>
      </trkpt>
      <trkpt lat="44.46622" lon="6.5458">
        <ele>1935</ele>
        <time>2021-02-21T05:25:44Z</time>
      </trkpt>
      <trkpt lat="44.46622" lon="6.54578">
        <ele>1935</ele>
        <time>2021-02-21T05:25:45Z</time>
      </trkpt>
      <trkpt lat="44.46622" lon="6.54577">
        <ele>1935</ele>
        <time>2021-02-21T05:25:46Z</time>
      </trkpt>
      <trkpt lat="44.46622" lon="6.54576">
        <ele>1935</ele>
        <time>2021-02-21T05:25:47Z</time>
      </trkpt>
      <trkpt lat="44.46622" lon="6.54575">
        <ele>1936</ele>
        <time>2021-02-21T05:25:48Z</time>
      </trkpt>
      <trkpt lat="44.46622" lon="6.54574">
        <ele>1936</ele>
        <time>2021-02-21T05:25:49Z</time>
      </trkpt>
      <trkpt lat="44.46622" lon="6.54573">
        <ele>1936</ele>
        <time>2021-02-21T05:25:50Z</time>
      </trkpt>
      <trkpt lat="44.46623" lon="6.54572">
        <ele>1936</ele>
        <time>2021-02-21T05:25:51Z</time>
      </trkpt>
      <trkpt lat="44.46623" lon="6.54571">
        <ele>1937</ele>
        <time>2021-02-21T05:25:52Z</time>
      </trkpt>
      <trkpt lat="44.46623" lon="6.5457">
        <ele>1937</ele>
        <time>2021-02-21T05:25:53Z</time>
      </trkpt>
      <trkpt lat="44.46623" lon="6.54569">
        <ele>1937</ele>
        <time>2021-02-21T05:25:54Z</time>
      </trkpt>
      <trkpt lat="44.46622" lon="6.54568">
        <ele>1937</ele>
        <time>2021-02-21T05:25:55Z</time>
      </trkpt>
      <trkpt lat="44.46622" lon="6.54567">
        <ele>1937</ele>
        <time>2021-02-21T05:25:56Z</time>
      </trkpt>
      <trkpt lat="44.46622" lon="6.54566">
        <ele>1937</ele>
        <time>2021-02-21T05:25:57Z</time>
      </trkpt>
      <trkpt lat="44.46627" lon="6.54565">
        <ele>1939</ele>
        <time>2021-02-21T05:25:58Z</time>
      </trkpt>
      <trkpt lat="44.46627" lon="6.54564">
        <ele>1939</ele>
        <time>2021-02-21T05:25:59Z</time>
      </trkpt>
      <trkpt lat="44.46626" lon="6.54563">
        <ele>1939</ele>
        <time>2021-02-21T05:26:00Z</time>
      </trkpt>
      <trkpt lat="44.46626" lon="6.54562">
        <ele>1940</ele>
        <time>2021-02-21T05:26:01Z</time>
      </trkpt>
      <trkpt lat="44.46626" lon="6.54561">
        <ele>1940</ele>
        <time>2021-02-21T05:26:02Z</time>
      </trkpt>
      <trkpt lat="44.46626" lon="6.54559">
        <ele>1940</ele>
        <time>2021-02-21T05:26:03Z</time>
      </trkpt>
      <trkpt lat="44.46626" lon="6.54558">
        <ele>1940</ele>
        <time>2021-02-21T05:26:04Z</time>
      </trkpt>
      <trkpt lat="44.46626" lon="6.54556">
        <ele>1940</ele>
        <time>2021-02-21T05:26:05Z</time>
      </trkpt>
      <trkpt lat="44.46626" lon="6.54555">
        <ele>1940</ele>
        <time>2021-02-21T05:26:06Z</time>
      </trkpt>
      <trkpt lat="44.46626" lon="6.54553">
        <ele>1940</ele>
        <time>2021-02-21T05:26:07Z</time>
      </trkpt>
      <trkpt lat="44.46626" lon="6.54552">
        <ele>1940</ele>
        <time>2021-02-21T05:26:08Z</time>
      </trkpt>
      <trkpt lat="44.46626" lon="6.54551">
        <ele>1940</ele>
        <time>2021-02-21T05:26:09Z</time>
      </trkpt>
      <trkpt lat="44.46626" lon="6.54549">
        <ele>1940</ele>
        <time>2021-02-21T05:26:10Z</time>
      </trkpt>
      <trkpt lat="44.46626" lon="6.54548">
        <ele>1940</ele>
        <time>2021-02-21T05:26:11Z</time>
      </trkpt>
      <trkpt lat="44.46627" lon="6.54547">
        <ele>1940</ele>
        <time>2021-02-21T05:26:12Z</time>
      </trkpt>
      <trkpt lat="44.46627" lon="6.54545">
        <ele>1940</ele>
        <time>2021-02-21T05:26:13Z</time>
      </trkpt>
      <trkpt lat="44.46627" lon="6.54543">
        <ele>1940</ele>
        <time>2021-02-21T05:26:14Z</time>
      </trkpt>
      <trkpt lat="44.46627" lon="6.54542">
        <ele>1940</ele>
        <time>2021-02-21T05:26:15Z</time>
      </trkpt>
      <trkpt lat="44.46627" lon="6.54541">
        <ele>1940</ele>
        <time>2021-02-21T05:26:16Z</time>
      </trkpt>
      <trkpt lat="44.46628" lon="6.54539">
        <ele>1940</ele>
        <time>2021-02-21T05:26:17Z</time>
      </trkpt>
      <trkpt lat="44.46628" lon="6.54538">
        <ele>1940</ele>
        <time>2021-02-21T05:26:18Z</time>
      </trkpt>
      <trkpt lat="44.46628" lon="6.54537">
        <ele>1941</ele>
        <time>2021-02-21T05:26:19Z</time>
      </trkpt>
      <trkpt lat="44.46628" lon="6.54536">
        <ele>1941</ele>
        <time>2021-02-21T05:26:20Z</time>
      </trkpt>
      <trkpt lat="44.46628" lon="6.54535">
        <ele>1941</ele>
        <time>2021-02-21T05:26:21Z</time>
      </trkpt>
      <trkpt lat="44.46628" lon="6.54534">
        <ele>1941</ele>
        <time>2021-02-21T05:26:22Z</time>
      </trkpt>
      <trkpt lat="44.46628" lon="6.54533">
        <ele>1941</ele>
        <time>2021-02-21T05:26:23Z</time>
      </trkpt>
      <trkpt lat="44.46628" lon="6.54532">
        <ele>1941</ele>
        <time>2021-02-21T05:26:24Z</time>
      </trkpt>
      <trkpt lat="44.46628" lon="6.54531">
        <ele>1941</ele>
        <time>2021-02-21T05:26:25Z</time>
      </trkpt>
      <trkpt lat="44.46628" lon="6.5453">
        <ele>1941</ele>
        <time>2021-02-21T05:26:26Z</time>
      </trkpt>
      <trkpt lat="44.46629" lon="6.5453">
        <ele>1941</ele>
        <time>2021-02-21T05:26:27Z</time>
      </trkpt>
      <trkpt lat="44.4663" lon="6.54529">
        <ele>1941</ele>
        <time>2021-02-21T05:26:28Z</time>
      </trkpt>
      <trkpt lat="44.4663" lon="6.54528">
        <ele>1941</ele>
        <time>2021-02-21T05:26:29Z</time>
      </trkpt>
      <trkpt lat="44.46631" lon="6.54527">
        <ele>1941</ele>
        <time>2021-02-21T05:26:30Z</time>
      </trkpt>
      <trkpt lat="44.46631" lon="6.54526">
        <ele>1941</ele>
        <time>2021-02-21T05:26:31Z</time>
      </trkpt>
      <trkpt lat="44.46631" lon="6.54525">
        <ele>1941</ele>
        <time>2021-02-21T05:26:32Z</time>
      </trkpt>
      <trkpt lat="44.46632" lon="6.54524">
        <ele>1942</ele>
        <time>2021-02-21T05:26:33Z</time>
      </trkpt>
      <trkpt lat="44.46632" lon="6.54522">
        <ele>1942</ele>
        <time>2021-02-21T05:26:34Z</time>
      </trkpt>
      <trkpt lat="44.46633" lon="6.54521">
        <ele>1942</ele>
        <time>2021-02-21T05:26:35Z</time>
      </trkpt>
      <trkpt lat="44.46633" lon="6.5452">
        <ele>1942</ele>
        <time>2021-02-21T05:26:36Z</time>
      </trkpt>
      <trkpt lat="44.46633" lon="6.54519">
        <ele>1942</ele>
        <time>2021-02-21T05:26:37Z</time>
      </trkpt>
      <trkpt lat="44.46633" lon="6.54518">
        <ele>1943</ele>
        <time>2021-02-21T05:26:38Z</time>
      </trkpt>
      <trkpt lat="44.46634" lon="6.54517">
        <ele>1943</ele>
        <time>2021-02-21T05:26:39Z</time>
      </trkpt>
      <trkpt lat="44.46634" lon="6.54516">
        <ele>1943</ele>
        <time>2021-02-21T05:26:40Z</time>
      </trkpt>
      <trkpt lat="44.46634" lon="6.54515">
        <ele>1943</ele>
        <time>2021-02-21T05:26:41Z</time>
      </trkpt>
      <trkpt lat="44.46634" lon="6.54515">
        <ele>1943</ele>
        <time>2021-02-21T05:26:42Z</time>
      </trkpt>
      <trkpt lat="44.46634" lon="6.54514">
        <ele>1943</ele>
        <time>2021-02-21T05:26:43Z</time>
      </trkpt>
      <trkpt lat="44.46635" lon="6.54513">
        <ele>1943</ele>
        <time>2021-02-21T05:26:44Z</time>
      </trkpt>
      <trkpt lat="44.46635" lon="6.54513">
        <ele>1943</ele>
        <time>2021-02-21T05:26:45Z</time>
      </trkpt>
      <trkpt lat="44.46635" lon="6.54512">
        <ele>1943</ele>
        <time>2021-02-21T05:26:46Z</time>
      </trkpt>
      <trkpt lat="44.46636" lon="6.54511">
        <ele>1944</ele>
        <time>2021-02-21T05:26:47Z</time>
      </trkpt>
      <trkpt lat="44.46637" lon="6.5451">
        <ele>1944</ele>
        <time>2021-02-21T05:26:48Z</time>
      </trkpt>
      <trkpt lat="44.46638" lon="6.5451">
        <ele>1944</ele>
        <time>2021-02-21T05:26:49Z</time>
      </trkpt>
      <trkpt lat="44.46638" lon="6.54509">
        <ele>1944</ele>
        <time>2021-02-21T05:26:50Z</time>
      </trkpt>
      <trkpt lat="44.46639" lon="6.54509">
        <ele>1944</ele>
        <time>2021-02-21T05:26:51Z</time>
      </trkpt>
      <trkpt lat="44.46639" lon="6.54508">
        <ele>1944</ele>
        <time>2021-02-21T05:26:52Z</time>
      </trkpt>
      <trkpt lat="44.46639" lon="6.54508">
        <ele>1945</ele>
        <time>2021-02-21T05:26:53Z</time>
      </trkpt>
      <trkpt lat="44.4664" lon="6.54507">
        <ele>1945</ele>
        <time>2021-02-21T05:26:54Z</time>
      </trkpt>
      <trkpt lat="44.46641" lon="6.54507">
        <ele>1945</ele>
        <time>2021-02-21T05:26:55Z</time>
      </trkpt>
      <trkpt lat="44.46641" lon="6.54506">
        <ele>1945</ele>
        <time>2021-02-21T05:26:56Z</time>
      </trkpt>
      <trkpt lat="44.46641" lon="6.54506">
        <ele>1945</ele>
        <time>2021-02-21T05:26:57Z</time>
      </trkpt>
      <trkpt lat="44.46641" lon="6.54506">
        <ele>1945</ele>
        <time>2021-02-21T05:26:58Z</time>
      </trkpt>
      <trkpt lat="44.46642" lon="6.54506">
        <ele>1945</ele>
        <time>2021-02-21T05:26:59Z</time>
      </trkpt>
      <trkpt lat="44.46642" lon="6.54505">
        <ele>1946</ele>
        <time>2021-02-21T05:27:00Z</time>
      </trkpt>
      <trkpt lat="44.46642" lon="6.54505">
        <ele>1946</ele>
        <time>2021-02-21T05:27:01Z</time>
      </trkpt>
      <trkpt lat="44.46642" lon="6.54504">
        <ele>1946</ele>
        <time>2021-02-21T05:27:02Z</time>
      </trkpt>
      <trkpt lat="44.46642" lon="6.54504">
        <ele>1946</ele>
        <time>2021-02-21T05:27:03Z</time>
      </trkpt>
      <trkpt lat="44.46643" lon="6.54503">
        <ele>1946</ele>
        <time>2021-02-21T05:27:04Z</time>
      </trkpt>
      <trkpt lat="44.46643" lon="6.54503">
        <ele>1946</ele>
        <time>2021-02-21T05:27:05Z</time>
      </trkpt>
      <trkpt lat="44.46643" lon="6.54503">
        <ele>1946</ele>
        <time>2021-02-21T05:27:06Z</time>
      </trkpt>
      <trkpt lat="44.46644" lon="6.54502">
        <ele>1946</ele>
        <time>2021-02-21T05:27:07Z</time>
      </trkpt>
      <trkpt lat="44.46644" lon="6.54501">
        <ele>1947</ele>
        <time>2021-02-21T05:27:08Z</time>
      </trkpt>
      <trkpt lat="44.46644" lon="6.54501">
        <ele>1947</ele>
        <time>2021-02-21T05:27:09Z</time>
      </trkpt>
      <trkpt lat="44.46645" lon="6.54501">
        <ele>1947</ele>
        <time>2021-02-21T05:27:10Z</time>
      </trkpt>
      <trkpt lat="44.46645" lon="6.54501">
        <ele>1947</ele>
        <time>2021-02-21T05:27:11Z</time>
      </trkpt>
      <trkpt lat="44.46646" lon="6.545">
        <ele>1947</ele>
        <time>2021-02-21T05:27:12Z</time>
      </trkpt>
      <trkpt lat="44.46647" lon="6.545">
        <ele>1947</ele>
        <time>2021-02-21T05:27:13Z</time>
      </trkpt>
      <trkpt lat="44.46647" lon="6.545">
        <ele>1948</ele>
        <time>2021-02-21T05:27:14Z</time>
      </trkpt>
      <trkpt lat="44.46648" lon="6.545">
        <ele>1948</ele>
        <time>2021-02-21T05:27:15Z</time>
      </trkpt>
      <trkpt lat="44.46648" lon="6.545">
        <ele>1948</ele>
        <time>2021-02-21T05:27:16Z</time>
      </trkpt>
      <trkpt lat="44.46649" lon="6.545">
        <ele>1948</ele>
        <time>2021-02-21T05:27:17Z</time>
      </trkpt>
      <trkpt lat="44.4665" lon="6.54499">
        <ele>1948</ele>
        <time>2021-02-21T05:27:18Z</time>
      </trkpt>
      <trkpt lat="44.4665" lon="6.54498">
        <ele>1948</ele>
        <time>2021-02-21T05:27:19Z</time>
      </trkpt>
      <trkpt lat="44.4665" lon="6.54498">
        <ele>1949</ele>
        <time>2021-02-21T05:27:20Z</time>
      </trkpt>
      <trkpt lat="44.46651" lon="6.54497">
        <ele>1949</ele>
        <time>2021-02-21T05:27:21Z</time>
      </trkpt>
      <trkpt lat="44.46651" lon="6.54497">
        <ele>1949</ele>
        <time>2021-02-21T05:27:22Z</time>
      </trkpt>
      <trkpt lat="44.46652" lon="6.54497">
        <ele>1949</ele>
        <time>2021-02-21T05:27:23Z</time>
      </trkpt>
      <trkpt lat="44.46653" lon="6.54496">
        <ele>1949</ele>
        <time>2021-02-21T05:27:24Z</time>
      </trkpt>
      <trkpt lat="44.46653" lon="6.54496">
        <ele>1949</ele>
        <time>2021-02-21T05:27:25Z</time>
      </trkpt>
      <trkpt lat="44.46654" lon="6.54495">
        <ele>1949</ele>
        <time>2021-02-21T05:27:26Z</time>
      </trkpt>
      <trkpt lat="44.46655" lon="6.54494">
        <ele>1950</ele>
        <time>2021-02-21T05:27:27Z</time>
      </trkpt>
      <trkpt lat="44.46656" lon="6.54494">
        <ele>1950</ele>
        <time>2021-02-21T05:27:28Z</time>
      </trkpt>
      <trkpt lat="44.46656" lon="6.54493">
        <ele>1950</ele>
        <time>2021-02-21T05:27:29Z</time>
      </trkpt>
      <trkpt lat="44.46656" lon="6.54492">
        <ele>1950</ele>
        <time>2021-02-21T05:27:30Z</time>
      </trkpt>
      <trkpt lat="44.46657" lon="6.54491">
        <ele>1950</ele>
        <time>2021-02-21T05:27:31Z</time>
      </trkpt>
      <trkpt lat="44.46658" lon="6.5449">
        <ele>1950</ele>
        <time>2021-02-21T05:27:32Z</time>
      </trkpt>
      <trkpt lat="44.46658" lon="6.54489">
        <ele>1950</ele>
        <time>2021-02-21T05:27:33Z</time>
      </trkpt>
      <trkpt lat="44.46658" lon="6.54489">
        <ele>1950</ele>
        <time>2021-02-21T05:27:34Z</time>
      </trkpt>
      <trkpt lat="44.46658" lon="6.54489">
        <ele>1950</ele>
        <time>2021-02-21T05:27:35Z</time>
      </trkpt>
      <trkpt lat="44.46658" lon="6.54488">
        <ele>1951</ele>
        <time>2021-02-21T05:27:36Z</time>
      </trkpt>
      <trkpt lat="44.46658" lon="6.54488">
        <ele>1951</ele>
        <time>2021-02-21T05:27:37Z</time>
      </trkpt>
      <trkpt lat="44.46657" lon="6.54487">
        <ele>1951</ele>
        <time>2021-02-21T05:27:38Z</time>
      </trkpt>
      <trkpt lat="44.46656" lon="6.54488">
        <ele>1951</ele>
        <time>2021-02-21T05:27:39Z</time>
      </trkpt>
      <trkpt lat="44.46655" lon="6.54488">
        <ele>1951</ele>
        <time>2021-02-21T05:27:40Z</time>
      </trkpt>
      <trkpt lat="44.46655" lon="6.54488">
        <ele>1951</ele>
        <time>2021-02-21T05:27:41Z</time>
      </trkpt>
      <trkpt lat="44.46654" lon="6.54488">
        <ele>1951</ele>
        <time>2021-02-21T05:27:42Z</time>
      </trkpt>
      <trkpt lat="44.46653" lon="6.54488">
        <ele>1951</ele>
        <time>2021-02-21T05:27:43Z</time>
      </trkpt>
      <trkpt lat="44.46651" lon="6.54488">
        <ele>1951</ele>
        <time>2021-02-21T05:27:44Z</time>
      </trkpt>
      <trkpt lat="44.4665" lon="6.54488">
        <ele>1952</ele>
        <time>2021-02-21T05:27:45Z</time>
      </trkpt>
      <trkpt lat="44.46649" lon="6.54488">
        <ele>1952</ele>
        <time>2021-02-21T05:27:46Z</time>
      </trkpt>
      <trkpt lat="44.46648" lon="6.54488">
        <ele>1952</ele>
        <time>2021-02-21T05:27:47Z</time>
      </trkpt>
      <trkpt lat="44.46647" lon="6.54487">
        <ele>1952</ele>
        <time>2021-02-21T05:27:48Z</time>
      </trkpt>
      <trkpt lat="44.46646" lon="6.54487">
        <ele>1952</ele>
        <time>2021-02-21T05:27:49Z</time>
      </trkpt>
      <trkpt lat="44.46645" lon="6.54487">
        <ele>1953</ele>
        <time>2021-02-21T05:27:50Z</time>
      </trkpt>
      <trkpt lat="44.46645" lon="6.54487">
        <ele>1953</ele>
        <time>2021-02-21T05:27:51Z</time>
      </trkpt>
      <trkpt lat="44.46644" lon="6.54487">
        <ele>1953</ele>
        <time>2021-02-21T05:27:52Z</time>
      </trkpt>
      <trkpt lat="44.46643" lon="6.54487">
        <ele>1953</ele>
        <time>2021-02-21T05:27:53Z</time>
      </trkpt>
      <trkpt lat="44.46642" lon="6.54486">
        <ele>1953</ele>
        <time>2021-02-21T05:27:54Z</time>
      </trkpt>
      <trkpt lat="44.46642" lon="6.54487">
        <ele>1953</ele>
        <time>2021-02-21T05:27:55Z</time>
      </trkpt>
      <trkpt lat="44.46641" lon="6.54488">
        <ele>1953</ele>
        <time>2021-02-21T05:27:56Z</time>
      </trkpt>
      <trkpt lat="44.46641" lon="6.54489">
        <ele>1953</ele>
        <time>2021-02-21T05:27:57Z</time>
      </trkpt>
      <trkpt lat="44.46641" lon="6.54489">
        <ele>1953</ele>
        <time>2021-02-21T05:27:58Z</time>
      </trkpt>
      <trkpt lat="44.4664" lon="6.54489">
        <ele>1953</ele>
        <time>2021-02-21T05:27:59Z</time>
      </trkpt>
      <trkpt lat="44.4664" lon="6.5449">
        <ele>1953</ele>
        <time>2021-02-21T05:28:00Z</time>
      </trkpt>
      <trkpt lat="44.46641" lon="6.5449">
        <ele>1953</ele>
        <time>2021-02-21T05:28:01Z</time>
      </trkpt>
      <trkpt lat="44.4664" lon="6.5449">
        <ele>1953</ele>
        <time>2021-02-21T05:28:02Z</time>
      </trkpt>
      <trkpt lat="44.46639" lon="6.5449">
        <ele>1953</ele>
        <time>2021-02-21T05:28:03Z</time>
      </trkpt>
      <trkpt lat="44.46639" lon="6.54489">
        <ele>1954</ele>
        <time>2021-02-21T05:28:04Z</time>
      </trkpt>
      <trkpt lat="44.46639" lon="6.54489">
        <ele>1954</ele>
        <time>2021-02-21T05:28:05Z</time>
      </trkpt>
      <trkpt lat="44.46638" lon="6.54485">
        <ele>1958</ele>
        <time>2021-02-21T05:28:06Z</time>
      </trkpt>
      <trkpt lat="44.46638" lon="6.54484">
        <ele>1959</ele>
        <time>2021-02-21T05:28:07Z</time>
      </trkpt>
      <trkpt lat="44.46637" lon="6.54483">
        <ele>1960</ele>
        <time>2021-02-21T05:28:08Z</time>
      </trkpt>
      <trkpt lat="44.46637" lon="6.54482">
        <ele>1960</ele>
        <time>2021-02-21T05:28:09Z</time>
      </trkpt>
      <trkpt lat="44.46637" lon="6.54481">
        <ele>1960</ele>
        <time>2021-02-21T05:28:10Z</time>
      </trkpt>
      <trkpt lat="44.46636" lon="6.5448">
        <ele>1961</ele>
        <time>2021-02-21T05:28:11Z</time>
      </trkpt>
      <trkpt lat="44.46636" lon="6.54479">
        <ele>1961</ele>
        <time>2021-02-21T05:28:12Z</time>
      </trkpt>
      <trkpt lat="44.46636" lon="6.54479">
        <ele>1961</ele>
        <time>2021-02-21T05:28:13Z</time>
      </trkpt>
      <trkpt lat="44.46636" lon="6.54479">
        <ele>1961</ele>
        <time>2021-02-21T05:28:14Z</time>
      </trkpt>
      <trkpt lat="44.46635" lon="6.54479">
        <ele>1961</ele>
        <time>2021-02-21T05:28:15Z</time>
      </trkpt>
      <trkpt lat="44.46634" lon="6.54478">
        <ele>1961</ele>
        <time>2021-02-21T05:28:16Z</time>
      </trkpt>
      <trkpt lat="44.46634" lon="6.54477">
        <ele>1961</ele>
        <time>2021-02-21T05:28:17Z</time>
      </trkpt>
      <trkpt lat="44.46633" lon="6.54476">
        <ele>1961</ele>
        <time>2021-02-21T05:28:18Z</time>
      </trkpt>
      <trkpt lat="44.46633" lon="6.54476">
        <ele>1961</ele>
        <time>2021-02-21T05:28:19Z</time>
      </trkpt>
      <trkpt lat="44.46633" lon="6.54475">
        <ele>1961</ele>
        <time>2021-02-21T05:28:20Z</time>
      </trkpt>
      <trkpt lat="44.46633" lon="6.54474">
        <ele>1960</ele>
        <time>2021-02-21T05:28:21Z</time>
      </trkpt>
      <trkpt lat="44.46634" lon="6.54473">
        <ele>1960</ele>
        <time>2021-02-21T05:28:22Z</time>
      </trkpt>
      <trkpt lat="44.46634" lon="6.54472">
        <ele>1960</ele>
        <time>2021-02-21T05:28:23Z</time>
      </trkpt>
      <trkpt lat="44.46634" lon="6.54471">
        <ele>1959</ele>
        <time>2021-02-21T05:28:24Z</time>
      </trkpt>
      <trkpt lat="44.46633" lon="6.5447">
        <ele>1959</ele>
        <time>2021-02-21T05:28:25Z</time>
      </trkpt>
      <trkpt lat="44.46633" lon="6.5447">
        <ele>1959</ele>
        <time>2021-02-21T05:28:26Z</time>
      </trkpt>
      <trkpt lat="44.46632" lon="6.54469">
        <ele>1959</ele>
        <time>2021-02-21T05:28:27Z</time>
      </trkpt>
      <trkpt lat="44.46632" lon="6.54469">
        <ele>1959</ele>
        <time>2021-02-21T05:28:28Z</time>
      </trkpt>
      <trkpt lat="44.46632" lon="6.54469">
        <ele>1958</ele>
        <time>2021-02-21T05:28:29Z</time>
      </trkpt>
      <trkpt lat="44.46631" lon="6.54469">
        <ele>1958</ele>
        <time>2021-02-21T05:28:30Z</time>
      </trkpt>
      <trkpt lat="44.46631" lon="6.54469">
        <ele>1958</ele>
        <time>2021-02-21T05:28:31Z</time>
      </trkpt>
      <trkpt lat="44.4663" lon="6.54469">
        <ele>1958</ele>
        <time>2021-02-21T05:28:32Z</time>
      </trkpt>
      <trkpt lat="44.4663" lon="6.54469">
        <ele>1958</ele>
        <time>2021-02-21T05:28:33Z</time>
      </trkpt>
      <trkpt lat="44.46625" lon="6.54468">
        <ele>1959</ele>
        <time>2021-02-21T05:28:34Z</time>
      </trkpt>
      <trkpt lat="44.46624" lon="6.54468">
        <ele>1960</ele>
        <time>2021-02-21T05:28:35Z</time>
      </trkpt>
      <trkpt lat="44.46623" lon="6.54468">
        <ele>1960</ele>
        <time>2021-02-21T05:28:36Z</time>
      </trkpt>
      <trkpt lat="44.46623" lon="6.54468">
        <ele>1960</ele>
        <time>2021-02-21T05:28:37Z</time>
      </trkpt>
      <trkpt lat="44.46622" lon="6.54468">
        <ele>1960</ele>
        <time>2021-02-21T05:28:38Z</time>
      </trkpt>
      <trkpt lat="44.46621" lon="6.54467">
        <ele>1960</ele>
        <time>2021-02-21T05:28:39Z</time>
      </trkpt>
      <trkpt lat="44.46621" lon="6.54468">
        <ele>1960</ele>
        <time>2021-02-21T05:28:40Z</time>
      </trkpt>
      <trkpt lat="44.4662" lon="6.54468">
        <ele>1960</ele>
        <time>2021-02-21T05:28:41Z</time>
      </trkpt>
      <trkpt lat="44.46621" lon="6.54467">
        <ele>1960</ele>
        <time>2021-02-21T05:28:42Z</time>
      </trkpt>
      <trkpt lat="44.4662" lon="6.54467">
        <ele>1960</ele>
        <time>2021-02-21T05:28:43Z</time>
      </trkpt>
      <trkpt lat="44.4662" lon="6.54467">
        <ele>1961</ele>
        <time>2021-02-21T05:28:44Z</time>
      </trkpt>
      <trkpt lat="44.46619" lon="6.54467">
        <ele>1961</ele>
        <time>2021-02-21T05:28:45Z</time>
      </trkpt>
      <trkpt lat="44.46619" lon="6.54466">
        <ele>1961</ele>
        <time>2021-02-21T05:28:46Z</time>
      </trkpt>
      <trkpt lat="44.46618" lon="6.54466">
        <ele>1961</ele>
        <time>2021-02-21T05:28:47Z</time>
      </trkpt>
      <trkpt lat="44.46618" lon="6.54466">
        <ele>1961</ele>
        <time>2021-02-21T05:28:48Z</time>
      </trkpt>
      <trkpt lat="44.46618" lon="6.54466">
        <ele>1961</ele>
        <time>2021-02-21T05:28:49Z</time>
      </trkpt>
      <trkpt lat="44.46617" lon="6.54466">
        <ele>1961</ele>
        <time>2021-02-21T05:28:50Z</time>
      </trkpt>
      <trkpt lat="44.46615" lon="6.54465">
        <ele>1962</ele>
        <time>2021-02-21T05:28:51Z</time>
      </trkpt>
      <trkpt lat="44.46614" lon="6.54465">
        <ele>1963</ele>
        <time>2021-02-21T05:28:52Z</time>
      </trkpt>
      <trkpt lat="44.46614" lon="6.54465">
        <ele>1963</ele>
        <time>2021-02-21T05:28:53Z</time>
      </trkpt>
      <trkpt lat="44.46613" lon="6.54465">
        <ele>1964</ele>
        <time>2021-02-21T05:28:54Z</time>
      </trkpt>
      <trkpt lat="44.46613" lon="6.54465">
        <ele>1964</ele>
        <time>2021-02-21T05:28:55Z</time>
      </trkpt>
      <trkpt lat="44.46612" lon="6.54465">
        <ele>1965</ele>
        <time>2021-02-21T05:28:56Z</time>
      </trkpt>
      <trkpt lat="44.46612" lon="6.54465">
        <ele>1965</ele>
        <time>2021-02-21T05:28:57Z</time>
      </trkpt>
      <trkpt lat="44.46611" lon="6.54465">
        <ele>1965</ele>
        <time>2021-02-21T05:28:58Z</time>
      </trkpt>
      <trkpt lat="44.46611" lon="6.54466">
        <ele>1965</ele>
        <time>2021-02-21T05:28:59Z</time>
      </trkpt>
      <trkpt lat="44.4661" lon="6.54466">
        <ele>1965</ele>
        <time>2021-02-21T05:29:00Z</time>
      </trkpt>
      <trkpt lat="44.46609" lon="6.54466">
        <ele>1965</ele>
        <time>2021-02-21T05:29:01Z</time>
      </trkpt>
      <trkpt lat="44.46608" lon="6.54466">
        <ele>1965</ele>
        <time>2021-02-21T05:29:02Z</time>
      </trkpt>
      <trkpt lat="44.46609" lon="6.54466">
        <ele>1965</ele>
        <time>2021-02-21T05:29:03Z</time>
      </trkpt>
      <trkpt lat="44.46608" lon="6.54466">
        <ele>1965</ele>
        <time>2021-02-21T05:29:04Z</time>
      </trkpt>
      <trkpt lat="44.46608" lon="6.54467">
        <ele>1966</ele>
        <time>2021-02-21T05:29:05Z</time>
      </trkpt>
      <trkpt lat="44.46608" lon="6.54467">
        <ele>1966</ele>
        <time>2021-02-21T05:29:06Z</time>
      </trkpt>
      <trkpt lat="44.46607" lon="6.54467">
        <ele>1966</ele>
        <time>2021-02-21T05:29:07Z</time>
      </trkpt>
      <trkpt lat="44.46606" lon="6.54468">
        <ele>1966</ele>
        <time>2021-02-21T05:29:08Z</time>
      </trkpt>
      <trkpt lat="44.46606" lon="6.54468">
        <ele>1966</ele>
        <time>2021-02-21T05:29:09Z</time>
      </trkpt>
      <trkpt lat="44.46606" lon="6.54468">
        <ele>1966</ele>
        <time>2021-02-21T05:29:10Z</time>
      </trkpt>
      <trkpt lat="44.46605" lon="6.54469">
        <ele>1966</ele>
        <time>2021-02-21T05:29:11Z</time>
      </trkpt>
      <trkpt lat="44.46604" lon="6.5447">
        <ele>1966</ele>
        <time>2021-02-21T05:29:12Z</time>
      </trkpt>
      <trkpt lat="44.46604" lon="6.5447">
        <ele>1966</ele>
        <time>2021-02-21T05:29:13Z</time>
      </trkpt>
      <trkpt lat="44.46603" lon="6.5447">
        <ele>1966</ele>
        <time>2021-02-21T05:29:14Z</time>
      </trkpt>
      <trkpt lat="44.46602" lon="6.5447">
        <ele>1966</ele>
        <time>2021-02-21T05:29:15Z</time>
      </trkpt>
      <trkpt lat="44.46603" lon="6.5447">
        <ele>1966</ele>
        <time>2021-02-21T05:29:16Z</time>
      </trkpt>
      <trkpt lat="44.46603" lon="6.5447">
        <ele>1966</ele>
        <time>2021-02-21T05:29:17Z</time>
      </trkpt>
      <trkpt lat="44.46603" lon="6.5447">
        <ele>1966</ele>
        <time>2021-02-21T05:29:18Z</time>
      </trkpt>
      <trkpt lat="44.46603" lon="6.54469">
        <ele>1967</ele>
        <time>2021-02-21T05:29:19Z</time>
      </trkpt>
      <trkpt lat="44.46602" lon="6.54469">
        <ele>1967</ele>
        <time>2021-02-21T05:29:20Z</time>
      </trkpt>
      <trkpt lat="44.46602" lon="6.54468">
        <ele>1967</ele>
        <time>2021-02-21T05:29:21Z</time>
      </trkpt>
      <trkpt lat="44.46602" lon="6.54468">
        <ele>1967</ele>
        <time>2021-02-21T05:29:22Z</time>
      </trkpt>
      <trkpt lat="44.46601" lon="6.54467">
        <ele>1967</ele>
        <time>2021-02-21T05:29:23Z</time>
      </trkpt>
      <trkpt lat="44.46601" lon="6.54467">
        <ele>1967</ele>
        <time>2021-02-21T05:29:24Z</time>
      </trkpt>
      <trkpt lat="44.466" lon="6.54467">
        <ele>1968</ele>
        <time>2021-02-21T05:29:25Z</time>
      </trkpt>
      <trkpt lat="44.46599" lon="6.54468">
        <ele>1968</ele>
        <time>2021-02-21T05:29:26Z</time>
      </trkpt>
      <trkpt lat="44.46598" lon="6.54468">
        <ele>1968</ele>
        <time>2021-02-21T05:29:27Z</time>
      </trkpt>
      <trkpt lat="44.46597" lon="6.54469">
        <ele>1969</ele>
        <time>2021-02-21T05:29:28Z</time>
      </trkpt>
      <trkpt lat="44.46597" lon="6.54469">
        <ele>1969</ele>
        <time>2021-02-21T05:29:29Z</time>
      </trkpt>
      <trkpt lat="44.46597" lon="6.5447">
        <ele>1969</ele>
        <time>2021-02-21T05:29:30Z</time>
      </trkpt>
      <trkpt lat="44.46596" lon="6.54471">
        <ele>1969</ele>
        <time>2021-02-21T05:29:31Z</time>
      </trkpt>
      <trkpt lat="44.46596" lon="6.54472">
        <ele>1969</ele>
        <time>2021-02-21T05:29:32Z</time>
      </trkpt>
      <trkpt lat="44.46595" lon="6.54473">
        <ele>1970</ele>
        <time>2021-02-21T05:29:33Z</time>
      </trkpt>
      <trkpt lat="44.46594" lon="6.54474">
        <ele>1970</ele>
        <time>2021-02-21T05:29:34Z</time>
      </trkpt>
      <trkpt lat="44.46594" lon="6.54474">
        <ele>1970</ele>
        <time>2021-02-21T05:29:35Z</time>
      </trkpt>
      <trkpt lat="44.46594" lon="6.54474">
        <ele>1970</ele>
        <time>2021-02-21T05:29:36Z</time>
      </trkpt>
      <trkpt lat="44.46593" lon="6.54475">
        <ele>1970</ele>
        <time>2021-02-21T05:29:37Z</time>
      </trkpt>
      <trkpt lat="44.46593" lon="6.54475">
        <ele>1971</ele>
        <time>2021-02-21T05:29:38Z</time>
      </trkpt>
      <trkpt lat="44.46593" lon="6.54475">
        <ele>1971</ele>
        <time>2021-02-21T05:29:39Z</time>
      </trkpt>
      <trkpt lat="44.46593" lon="6.54476">
        <ele>1971</ele>
        <time>2021-02-21T05:29:40Z</time>
      </trkpt>
      <trkpt lat="44.46593" lon="6.54476">
        <ele>1971</ele>
        <time>2021-02-21T05:29:41Z</time>
      </trkpt>
      <trkpt lat="44.46593" lon="6.54476">
        <ele>1971</ele>
        <time>2021-02-21T05:29:42Z</time>
      </trkpt>
      <trkpt lat="44.46593" lon="6.54475">
        <ele>1971</ele>
        <time>2021-02-21T05:29:43Z</time>
      </trkpt>
      <trkpt lat="44.46592" lon="6.54475">
        <ele>1971</ele>
        <time>2021-02-21T05:29:44Z</time>
      </trkpt>
      <trkpt lat="44.46592" lon="6.54475">
        <ele>1971</ele>
        <time>2021-02-21T05:29:45Z</time>
      </trkpt>
      <trkpt lat="44.46592" lon="6.54473">
        <ele>1971</ele>
        <time>2021-02-21T05:29:46Z</time>
      </trkpt>
      <trkpt lat="44.46592" lon="6.54472">
        <ele>1972</ele>
        <time>2021-02-21T05:29:47Z</time>
      </trkpt>
      <trkpt lat="44.46592" lon="6.54471">
        <ele>1972</ele>
        <time>2021-02-21T05:29:48Z</time>
      </trkpt>
      <trkpt lat="44.46592" lon="6.5447">
        <ele>1972</ele>
        <time>2021-02-21T05:29:49Z</time>
      </trkpt>
      <trkpt lat="44.46591" lon="6.54469">
        <ele>1972</ele>
        <time>2021-02-21T05:29:50Z</time>
      </trkpt>
      <trkpt lat="44.46591" lon="6.54468">
        <ele>1972</ele>
        <time>2021-02-21T05:29:51Z</time>
      </trkpt>
      <trkpt lat="44.46591" lon="6.54467">
        <ele>1972</ele>
        <time>2021-02-21T05:29:52Z</time>
      </trkpt>
      <trkpt lat="44.46591" lon="6.54467">
        <ele>1973</ele>
        <time>2021-02-21T05:29:53Z</time>
      </trkpt>
      <trkpt lat="44.4659" lon="6.54466">
        <ele>1973</ele>
        <time>2021-02-21T05:29:54Z</time>
      </trkpt>
      <trkpt lat="44.4659" lon="6.54466">
        <ele>1973</ele>
        <time>2021-02-21T05:29:55Z</time>
      </trkpt>
      <trkpt lat="44.4659" lon="6.54466">
        <ele>1973</ele>
        <time>2021-02-21T05:29:56Z</time>
      </trkpt>
      <trkpt lat="44.46589" lon="6.54467">
        <ele>1973</ele>
        <time>2021-02-21T05:29:57Z</time>
      </trkpt>
      <trkpt lat="44.46589" lon="6.54467">
        <ele>1973</ele>
        <time>2021-02-21T05:29:58Z</time>
      </trkpt>
      <trkpt lat="44.46588" lon="6.54468">
        <ele>1973</ele>
        <time>2021-02-21T05:29:59Z</time>
      </trkpt>
      <trkpt lat="44.46588" lon="6.54469">
        <ele>1973</ele>
        <time>2021-02-21T05:30:00Z</time>
      </trkpt>
      <trkpt lat="44.46588" lon="6.54469">
        <ele>1974</ele>
        <time>2021-02-21T05:30:01Z</time>
      </trkpt>
      <trkpt lat="44.46588" lon="6.5447">
        <ele>1974</ele>
        <time>2021-02-21T05:30:02Z</time>
      </trkpt>
      <trkpt lat="44.46588" lon="6.5447">
        <ele>1975</ele>
        <time>2021-02-21T05:30:03Z</time>
      </trkpt>
      <trkpt lat="44.46588" lon="6.5447">
        <ele>1975</ele>
        <time>2021-02-21T05:30:04Z</time>
      </trkpt>
      <trkpt lat="44.46586" lon="6.5447">
        <ele>1975</ele>
        <time>2021-02-21T05:30:05Z</time>
      </trkpt>
      <trkpt lat="44.46586" lon="6.5447">
        <ele>1975</ele>
        <time>2021-02-21T05:30:06Z</time>
      </trkpt>
      <trkpt lat="44.46585" lon="6.5447">
        <ele>1975</ele>
        <time>2021-02-21T05:30:07Z</time>
      </trkpt>
      <trkpt lat="44.46585" lon="6.54469">
        <ele>1975</ele>
        <time>2021-02-21T05:30:08Z</time>
      </trkpt>
      <trkpt lat="44.46585" lon="6.54468">
        <ele>1976</ele>
        <time>2021-02-21T05:30:09Z</time>
      </trkpt>
      <trkpt lat="44.46584" lon="6.54468">
        <ele>1977</ele>
        <time>2021-02-21T05:30:10Z</time>
      </trkpt>
      <trkpt lat="44.46584" lon="6.54468">
        <ele>1977</ele>
        <time>2021-02-21T05:30:11Z</time>
      </trkpt>
      <trkpt lat="44.46584" lon="6.54467">
        <ele>1977</ele>
        <time>2021-02-21T05:30:12Z</time>
      </trkpt>
      <trkpt lat="44.46583" lon="6.54467">
        <ele>1977</ele>
        <time>2021-02-21T05:30:13Z</time>
      </trkpt>
      <trkpt lat="44.46582" lon="6.54468">
        <ele>1977</ele>
        <time>2021-02-21T05:30:14Z</time>
      </trkpt>
      <trkpt lat="44.46582" lon="6.54468">
        <ele>1977</ele>
        <time>2021-02-21T05:30:15Z</time>
      </trkpt>
      <trkpt lat="44.46581" lon="6.54467">
        <ele>1978</ele>
        <time>2021-02-21T05:30:16Z</time>
      </trkpt>
      <trkpt lat="44.46581" lon="6.54467">
        <ele>1978</ele>
        <time>2021-02-21T05:30:17Z</time>
      </trkpt>
      <trkpt lat="44.4658" lon="6.54466">
        <ele>1978</ele>
        <time>2021-02-21T05:30:18Z</time>
      </trkpt>
      <trkpt lat="44.46579" lon="6.54466">
        <ele>1978</ele>
        <time>2021-02-21T05:30:19Z</time>
      </trkpt>
      <trkpt lat="44.46579" lon="6.54465">
        <ele>1978</ele>
        <time>2021-02-21T05:30:20Z</time>
      </trkpt>
      <trkpt lat="44.46578" lon="6.54465">
        <ele>1979</ele>
        <time>2021-02-21T05:30:21Z</time>
      </trkpt>
      <trkpt lat="44.46578" lon="6.54465">
        <ele>1979</ele>
        <time>2021-02-21T05:30:22Z</time>
      </trkpt>
      <trkpt lat="44.46577" lon="6.54464">
        <ele>1979</ele>
        <time>2021-02-21T05:30:23Z</time>
      </trkpt>
      <trkpt lat="44.46576" lon="6.54464">
        <ele>1979</ele>
        <time>2021-02-21T05:30:24Z</time>
      </trkpt>
      <trkpt lat="44.46575" lon="6.54464">
        <ele>1979</ele>
        <time>2021-02-21T05:30:25Z</time>
      </trkpt>
      <trkpt lat="44.46574" lon="6.54464">
        <ele>1979</ele>
        <time>2021-02-21T05:30:26Z</time>
      </trkpt>
      <trkpt lat="44.46573" lon="6.54464">
        <ele>1980</ele>
        <time>2021-02-21T05:30:27Z</time>
      </trkpt>
      <trkpt lat="44.46573" lon="6.54465">
        <ele>1980</ele>
        <time>2021-02-21T05:30:28Z</time>
      </trkpt>
      <trkpt lat="44.46572" lon="6.54465">
        <ele>1980</ele>
        <time>2021-02-21T05:30:29Z</time>
      </trkpt>
      <trkpt lat="44.46572" lon="6.54465">
        <ele>1980</ele>
        <time>2021-02-21T05:30:30Z</time>
      </trkpt>
      <trkpt lat="44.46571" lon="6.54465">
        <ele>1980</ele>
        <time>2021-02-21T05:30:31Z</time>
      </trkpt>
      <trkpt lat="44.46571" lon="6.54466">
        <ele>1981</ele>
        <time>2021-02-21T05:30:32Z</time>
      </trkpt>
      <trkpt lat="44.4657" lon="6.54467">
        <ele>1981</ele>
        <time>2021-02-21T05:30:33Z</time>
      </trkpt>
      <trkpt lat="44.46569" lon="6.54468">
        <ele>1981</ele>
        <time>2021-02-21T05:30:34Z</time>
      </trkpt>
      <trkpt lat="44.46569" lon="6.54468">
        <ele>1981</ele>
        <time>2021-02-21T05:30:35Z</time>
      </trkpt>
      <trkpt lat="44.46569" lon="6.54468">
        <ele>1981</ele>
        <time>2021-02-21T05:30:36Z</time>
      </trkpt>
      <trkpt lat="44.46568" lon="6.54468">
        <ele>1982</ele>
        <time>2021-02-21T05:30:37Z</time>
      </trkpt>
      <trkpt lat="44.46567" lon="6.54469">
        <ele>1982</ele>
        <time>2021-02-21T05:30:38Z</time>
      </trkpt>
      <trkpt lat="44.46566" lon="6.54469">
        <ele>1982</ele>
        <time>2021-02-21T05:30:39Z</time>
      </trkpt>
      <trkpt lat="44.46564" lon="6.54469">
        <ele>1982</ele>
        <time>2021-02-21T05:30:40Z</time>
      </trkpt>
      <trkpt lat="44.46563" lon="6.54469">
        <ele>1982</ele>
        <time>2021-02-21T05:30:41Z</time>
      </trkpt>
      <trkpt lat="44.46561" lon="6.54469">
        <ele>1983</ele>
        <time>2021-02-21T05:30:42Z</time>
      </trkpt>
      <trkpt lat="44.46558" lon="6.54466">
        <ele>1989</ele>
        <time>2021-02-21T05:30:43Z</time>
      </trkpt>
      <trkpt lat="44.46557" lon="6.54466">
        <ele>1991</ele>
        <time>2021-02-21T05:30:44Z</time>
      </trkpt>
      <trkpt lat="44.46556" lon="6.54467">
        <ele>1992</ele>
        <time>2021-02-21T05:30:45Z</time>
      </trkpt>
      <trkpt lat="44.46555" lon="6.54467">
        <ele>1993</ele>
        <time>2021-02-21T05:30:46Z</time>
      </trkpt>
      <trkpt lat="44.46554" lon="6.54467">
        <ele>1994</ele>
        <time>2021-02-21T05:30:47Z</time>
      </trkpt>
      <trkpt lat="44.46554" lon="6.54467">
        <ele>1994</ele>
        <time>2021-02-21T05:30:48Z</time>
      </trkpt>
      <trkpt lat="44.46553" lon="6.54467">
        <ele>1994</ele>
        <time>2021-02-21T05:30:49Z</time>
      </trkpt>
      <trkpt lat="44.46552" lon="6.54467">
        <ele>1994</ele>
        <time>2021-02-21T05:30:50Z</time>
      </trkpt>
      <trkpt lat="44.46552" lon="6.54468">
        <ele>1994</ele>
        <time>2021-02-21T05:30:51Z</time>
      </trkpt>
      <trkpt lat="44.46551" lon="6.54468">
        <ele>1994</ele>
        <time>2021-02-21T05:30:52Z</time>
      </trkpt>
      <trkpt lat="44.4655" lon="6.54468">
        <ele>1994</ele>
        <time>2021-02-21T05:30:53Z</time>
      </trkpt>
      <trkpt lat="44.46549" lon="6.54468">
        <ele>1994</ele>
        <time>2021-02-21T05:30:54Z</time>
      </trkpt>
      <trkpt lat="44.46548" lon="6.54468">
        <ele>1994</ele>
        <time>2021-02-21T05:30:55Z</time>
      </trkpt>
      <trkpt lat="44.46548" lon="6.54469">
        <ele>1994</ele>
        <time>2021-02-21T05:30:56Z</time>
      </trkpt>
      <trkpt lat="44.46546" lon="6.54469">
        <ele>1994</ele>
        <time>2021-02-21T05:30:57Z</time>
      </trkpt>
      <trkpt lat="44.46545" lon="6.5447">
        <ele>1994</ele>
        <time>2021-02-21T05:30:58Z</time>
      </trkpt>
      <trkpt lat="44.46544" lon="6.54471">
        <ele>1994</ele>
        <time>2021-02-21T05:30:59Z</time>
      </trkpt>
      <trkpt lat="44.46543" lon="6.54471">
        <ele>1994</ele>
        <time>2021-02-21T05:31:00Z</time>
      </trkpt>
      <trkpt lat="44.46542" lon="6.54472">
        <ele>1995</ele>
        <time>2021-02-21T05:31:01Z</time>
      </trkpt>
      <trkpt lat="44.46541" lon="6.54473">
        <ele>1995</ele>
        <time>2021-02-21T05:31:02Z</time>
      </trkpt>
      <trkpt lat="44.46541" lon="6.54473">
        <ele>1995</ele>
        <time>2021-02-21T05:31:03Z</time>
      </trkpt>
      <trkpt lat="44.46541" lon="6.54473">
        <ele>1995</ele>
        <time>2021-02-21T05:31:04Z</time>
      </trkpt>
      <trkpt lat="44.46541" lon="6.54472">
        <ele>1995</ele>
        <time>2021-02-21T05:31:05Z</time>
      </trkpt>
      <trkpt lat="44.46541" lon="6.54472">
        <ele>1995</ele>
        <time>2021-02-21T05:31:06Z</time>
      </trkpt>
      <trkpt lat="44.4654" lon="6.54471">
        <ele>1995</ele>
        <time>2021-02-21T05:31:07Z</time>
      </trkpt>
      <trkpt lat="44.4654" lon="6.5447">
        <ele>1995</ele>
        <time>2021-02-21T05:31:08Z</time>
      </trkpt>
      <trkpt lat="44.4654" lon="6.54468">
        <ele>1995</ele>
        <time>2021-02-21T05:31:09Z</time>
      </trkpt>
      <trkpt lat="44.4654" lon="6.54467">
        <ele>1995</ele>
        <time>2021-02-21T05:31:10Z</time>
      </trkpt>
      <trkpt lat="44.4654" lon="6.54465">
        <ele>1995</ele>
        <time>2021-02-21T05:31:11Z</time>
      </trkpt>
      <trkpt lat="44.4654" lon="6.54464">
        <ele>1995</ele>
        <time>2021-02-21T05:31:12Z</time>
      </trkpt>
      <trkpt lat="44.46541" lon="6.54463">
        <ele>1995</ele>
        <time>2021-02-21T05:31:13Z</time>
      </trkpt>
      <trkpt lat="44.46541" lon="6.54462">
        <ele>1995</ele>
        <time>2021-02-21T05:31:14Z</time>
      </trkpt>
      <trkpt lat="44.46541" lon="6.54461">
        <ele>1995</ele>
        <time>2021-02-21T05:31:15Z</time>
      </trkpt>
      <trkpt lat="44.46541" lon="6.5446">
        <ele>1995</ele>
        <time>2021-02-21T05:31:16Z</time>
      </trkpt>
      <trkpt lat="44.46541" lon="6.54458">
        <ele>1995</ele>
        <time>2021-02-21T05:31:17Z</time>
      </trkpt>
      <trkpt lat="44.46541" lon="6.54457">
        <ele>1995</ele>
        <time>2021-02-21T05:31:18Z</time>
      </trkpt>
      <trkpt lat="44.46541" lon="6.54456">
        <ele>1995</ele>
        <time>2021-02-21T05:31:19Z</time>
      </trkpt>
      <trkpt lat="44.4654" lon="6.54455">
        <ele>1995</ele>
        <time>2021-02-21T05:31:20Z</time>
      </trkpt>
      <trkpt lat="44.4654" lon="6.54455">
        <ele>1995</ele>
        <time>2021-02-21T05:31:21Z</time>
      </trkpt>
      <trkpt lat="44.4654" lon="6.54454">
        <ele>1995</ele>
        <time>2021-02-21T05:31:22Z</time>
      </trkpt>
      <trkpt lat="44.4654" lon="6.54454">
        <ele>1995</ele>
        <time>2021-02-21T05:31:23Z</time>
      </trkpt>
      <trkpt lat="44.46539" lon="6.54453">
        <ele>1995</ele>
        <time>2021-02-21T05:31:24Z</time>
      </trkpt>
      <trkpt lat="44.46539" lon="6.54452">
        <ele>1994</ele>
        <time>2021-02-21T05:31:25Z</time>
      </trkpt>
      <trkpt lat="44.46539" lon="6.54452">
        <ele>1994</ele>
        <time>2021-02-21T05:31:26Z</time>
      </trkpt>
      <trkpt lat="44.46539" lon="6.54451">
        <ele>1994</ele>
        <time>2021-02-21T05:31:27Z</time>
      </trkpt>
      <trkpt lat="44.46539" lon="6.5445">
        <ele>1994</ele>
        <time>2021-02-21T05:31:28Z</time>
      </trkpt>
      <trkpt lat="44.46538" lon="6.54448">
        <ele>1994</ele>
        <time>2021-02-21T05:31:29Z</time>
      </trkpt>
      <trkpt lat="44.46538" lon="6.54447">
        <ele>1994</ele>
        <time>2021-02-21T05:31:30Z</time>
      </trkpt>
      <trkpt lat="44.46538" lon="6.54446">
        <ele>1994</ele>
        <time>2021-02-21T05:31:31Z</time>
      </trkpt>
      <trkpt lat="44.46538" lon="6.54446">
        <ele>1994</ele>
        <time>2021-02-21T05:31:32Z</time>
      </trkpt>
      <trkpt lat="44.46537" lon="6.54445">
        <ele>1994</ele>
        <time>2021-02-21T05:31:33Z</time>
      </trkpt>
      <trkpt lat="44.46537" lon="6.54443">
        <ele>1993</ele>
        <time>2021-02-21T05:31:34Z</time>
      </trkpt>
      <trkpt lat="44.46537" lon="6.54442">
        <ele>1993</ele>
        <time>2021-02-21T05:31:35Z</time>
      </trkpt>
      <trkpt lat="44.46537" lon="6.54441">
        <ele>1993</ele>
        <time>2021-02-21T05:31:36Z</time>
      </trkpt>
      <trkpt lat="44.46537" lon="6.54439">
        <ele>1993</ele>
        <time>2021-02-21T05:31:37Z</time>
      </trkpt>
      <trkpt lat="44.46536" lon="6.54437">
        <ele>1993</ele>
        <time>2021-02-21T05:31:38Z</time>
      </trkpt>
      <trkpt lat="44.46536" lon="6.54437">
        <ele>1994</ele>
        <time>2021-02-21T05:31:39Z</time>
      </trkpt>
      <trkpt lat="44.46536" lon="6.54436">
        <ele>1994</ele>
        <time>2021-02-21T05:31:40Z</time>
      </trkpt>
      <trkpt lat="44.46536" lon="6.54435">
        <ele>1994</ele>
        <time>2021-02-21T05:31:41Z</time>
      </trkpt>
      <trkpt lat="44.46536" lon="6.54435">
        <ele>1994</ele>
        <time>2021-02-21T05:31:42Z</time>
      </trkpt>
      <trkpt lat="44.46535" lon="6.54434">
        <ele>1994</ele>
        <time>2021-02-21T05:31:43Z</time>
      </trkpt>
      <trkpt lat="44.46535" lon="6.54433">
        <ele>1994</ele>
        <time>2021-02-21T05:31:44Z</time>
      </trkpt>
      <trkpt lat="44.46535" lon="6.54432">
        <ele>1994</ele>
        <time>2021-02-21T05:31:45Z</time>
      </trkpt>
      <trkpt lat="44.46535" lon="6.5443">
        <ele>1994</ele>
        <time>2021-02-21T05:31:46Z</time>
      </trkpt>
      <trkpt lat="44.46534" lon="6.54429">
        <ele>1994</ele>
        <time>2021-02-21T05:31:47Z</time>
      </trkpt>
      <trkpt lat="44.46535" lon="6.54428">
        <ele>1995</ele>
        <time>2021-02-21T05:31:48Z</time>
      </trkpt>
      <trkpt lat="44.46534" lon="6.54426">
        <ele>1995</ele>
        <time>2021-02-21T05:31:49Z</time>
      </trkpt>
      <trkpt lat="44.46534" lon="6.54425">
        <ele>1996</ele>
        <time>2021-02-21T05:31:50Z</time>
      </trkpt>
      <trkpt lat="44.46534" lon="6.54424">
        <ele>1996</ele>
        <time>2021-02-21T05:31:51Z</time>
      </trkpt>
      <trkpt lat="44.46534" lon="6.54423">
        <ele>1996</ele>
        <time>2021-02-21T05:31:52Z</time>
      </trkpt>
      <trkpt lat="44.46534" lon="6.54422">
        <ele>1998</ele>
        <time>2021-02-21T05:31:53Z</time>
      </trkpt>
      <trkpt lat="44.46534" lon="6.54421">
        <ele>1998</ele>
        <time>2021-02-21T05:31:54Z</time>
      </trkpt>
      <trkpt lat="44.46534" lon="6.5442">
        <ele>1999</ele>
        <time>2021-02-21T05:31:55Z</time>
      </trkpt>
      <trkpt lat="44.46534" lon="6.54418">
        <ele>1999</ele>
        <time>2021-02-21T05:31:56Z</time>
      </trkpt>
      <trkpt lat="44.46534" lon="6.54417">
        <ele>2000</ele>
        <time>2021-02-21T05:31:57Z</time>
      </trkpt>
      <trkpt lat="44.46534" lon="6.54416">
        <ele>2000</ele>
        <time>2021-02-21T05:31:58Z</time>
      </trkpt>
      <trkpt lat="44.46534" lon="6.54415">
        <ele>2001</ele>
        <time>2021-02-21T05:31:59Z</time>
      </trkpt>
      <trkpt lat="44.46534" lon="6.54415">
        <ele>2001</ele>
        <time>2021-02-21T05:32:00Z</time>
      </trkpt>
      <trkpt lat="44.46534" lon="6.54415">
        <ele>2001</ele>
        <time>2021-02-21T05:32:01Z</time>
      </trkpt>
      <trkpt lat="44.46534" lon="6.54414">
        <ele>2001</ele>
        <time>2021-02-21T05:32:02Z</time>
      </trkpt>
      <trkpt lat="44.46534" lon="6.54413">
        <ele>2002</ele>
        <time>2021-02-21T05:32:03Z</time>
      </trkpt>
      <trkpt lat="44.46534" lon="6.54413">
        <ele>2002</ele>
        <time>2021-02-21T05:32:04Z</time>
      </trkpt>
      <trkpt lat="44.46534" lon="6.54412">
        <ele>2002</ele>
        <time>2021-02-21T05:32:05Z</time>
      </trkpt>
      <trkpt lat="44.46533" lon="6.54411">
        <ele>2002</ele>
        <time>2021-02-21T05:32:06Z</time>
      </trkpt>
      <trkpt lat="44.46533" lon="6.5441">
        <ele>2003</ele>
        <time>2021-02-21T05:32:07Z</time>
      </trkpt>
      <trkpt lat="44.46533" lon="6.5441">
        <ele>2003</ele>
        <time>2021-02-21T05:32:08Z</time>
      </trkpt>
      <trkpt lat="44.46532" lon="6.54409">
        <ele>2003</ele>
        <time>2021-02-21T05:32:09Z</time>
      </trkpt>
      <trkpt lat="44.46532" lon="6.54408">
        <ele>2003</ele>
        <time>2021-02-21T05:32:10Z</time>
      </trkpt>
      <trkpt lat="44.46533" lon="6.54407">
        <ele>2004</ele>
        <time>2021-02-21T05:32:11Z</time>
      </trkpt>
      <trkpt lat="44.46533" lon="6.54407">
        <ele>2004</ele>
        <time>2021-02-21T05:32:12Z</time>
      </trkpt>
      <trkpt lat="44.46533" lon="6.54406">
        <ele>2004</ele>
        <time>2021-02-21T05:32:13Z</time>
      </trkpt>
      <trkpt lat="44.46534" lon="6.54405">
        <ele>2005</ele>
        <time>2021-02-21T05:32:14Z</time>
      </trkpt>
      <trkpt lat="44.46534" lon="6.54403">
        <ele>2005</ele>
        <time>2021-02-21T05:32:15Z</time>
      </trkpt>
      <trkpt lat="44.46533" lon="6.54403">
        <ele>2005</ele>
        <time>2021-02-21T05:32:16Z</time>
      </trkpt>
      <trkpt lat="44.46533" lon="6.54402">
        <ele>2005</ele>
        <time>2021-02-21T05:32:17Z</time>
      </trkpt>
      <trkpt lat="44.46533" lon="6.54402">
        <ele>2005</ele>
        <time>2021-02-21T05:32:18Z</time>
      </trkpt>
      <trkpt lat="44.46532" lon="6.54401">
        <ele>2005</ele>
        <time>2021-02-21T05:32:19Z</time>
      </trkpt>
      <trkpt lat="44.46532" lon="6.54401">
        <ele>2006</ele>
        <time>2021-02-21T05:32:20Z</time>
      </trkpt>
      <trkpt lat="44.46531" lon="6.54402">
        <ele>2006</ele>
        <time>2021-02-21T05:32:21Z</time>
      </trkpt>
      <trkpt lat="44.46531" lon="6.54401">
        <ele>2006</ele>
        <time>2021-02-21T05:32:22Z</time>
      </trkpt>
      <trkpt lat="44.4653" lon="6.54401">
        <ele>2006</ele>
        <time>2021-02-21T05:32:23Z</time>
      </trkpt>
      <trkpt lat="44.4653" lon="6.54401">
        <ele>2006</ele>
        <time>2021-02-21T05:32:24Z</time>
      </trkpt>
      <trkpt lat="44.46528" lon="6.544">
        <ele>2006</ele>
        <time>2021-02-21T05:32:25Z</time>
      </trkpt>
      <trkpt lat="44.46528" lon="6.544">
        <ele>2006</ele>
        <time>2021-02-21T05:32:26Z</time>
      </trkpt>
      <trkpt lat="44.46527" lon="6.544">
        <ele>2006</ele>
        <time>2021-02-21T05:32:27Z</time>
      </trkpt>
      <trkpt lat="44.46526" lon="6.544">
        <ele>2006</ele>
        <time>2021-02-21T05:32:28Z</time>
      </trkpt>
      <trkpt lat="44.46525" lon="6.54399">
        <ele>2006</ele>
        <time>2021-02-21T05:32:29Z</time>
      </trkpt>
      <trkpt lat="44.46524" lon="6.54398">
        <ele>2005</ele>
        <time>2021-02-21T05:32:30Z</time>
      </trkpt>
      <trkpt lat="44.46525" lon="6.54398">
        <ele>2005</ele>
        <time>2021-02-21T05:32:31Z</time>
      </trkpt>
      <trkpt lat="44.46524" lon="6.54397">
        <ele>2005</ele>
        <time>2021-02-21T05:32:32Z</time>
      </trkpt>
      <trkpt lat="44.46524" lon="6.54397">
        <ele>2005</ele>
        <time>2021-02-21T05:32:33Z</time>
      </trkpt>
      <trkpt lat="44.46524" lon="6.54397">
        <ele>2005</ele>
        <time>2021-02-21T05:32:34Z</time>
      </trkpt>
      <trkpt lat="44.46523" lon="6.54397">
        <ele>2005</ele>
        <time>2021-02-21T05:32:35Z</time>
      </trkpt>
      <trkpt lat="44.46522" lon="6.54397">
        <ele>2005</ele>
        <time>2021-02-21T05:32:36Z</time>
      </trkpt>
      <trkpt lat="44.46521" lon="6.54396">
        <ele>2005</ele>
        <time>2021-02-21T05:32:37Z</time>
      </trkpt>
      <trkpt lat="44.46521" lon="6.54396">
        <ele>2006</ele>
        <time>2021-02-21T05:32:38Z</time>
      </trkpt>
      <trkpt lat="44.4652" lon="6.54396">
        <ele>2006</ele>
        <time>2021-02-21T05:32:39Z</time>
      </trkpt>
      <trkpt lat="44.4652" lon="6.54396">
        <ele>2006</ele>
        <time>2021-02-21T05:32:40Z</time>
      </trkpt>
      <trkpt lat="44.46519" lon="6.54395">
        <ele>2006</ele>
        <time>2021-02-21T05:32:41Z</time>
      </trkpt>
      <trkpt lat="44.46519" lon="6.54394">
        <ele>2006</ele>
        <time>2021-02-21T05:32:42Z</time>
      </trkpt>
      <trkpt lat="44.46518" lon="6.54393">
        <ele>2006</ele>
        <time>2021-02-21T05:32:43Z</time>
      </trkpt>
      <trkpt lat="44.46518" lon="6.54392">
        <ele>2006</ele>
        <time>2021-02-21T05:32:44Z</time>
      </trkpt>
      <trkpt lat="44.46517" lon="6.54392">
        <ele>2006</ele>
        <time>2021-02-21T05:32:45Z</time>
      </trkpt>
      <trkpt lat="44.46516" lon="6.54391">
        <ele>2006</ele>
        <time>2021-02-21T05:32:46Z</time>
      </trkpt>
      <trkpt lat="44.46516" lon="6.5439">
        <ele>2006</ele>
        <time>2021-02-21T05:32:47Z</time>
      </trkpt>
      <trkpt lat="44.46516" lon="6.54389">
        <ele>2006</ele>
        <time>2021-02-21T05:32:48Z</time>
      </trkpt>
      <trkpt lat="44.46516" lon="6.54388">
        <ele>2006</ele>
        <time>2021-02-21T05:32:49Z</time>
      </trkpt>
      <trkpt lat="44.46516" lon="6.54387">
        <ele>2006</ele>
        <time>2021-02-21T05:32:50Z</time>
      </trkpt>
      <trkpt lat="44.46517" lon="6.54386">
        <ele>2006</ele>
        <time>2021-02-21T05:32:51Z</time>
      </trkpt>
      <trkpt lat="44.46517" lon="6.54385">
        <ele>2006</ele>
        <time>2021-02-21T05:32:52Z</time>
      </trkpt>
      <trkpt lat="44.46519" lon="6.54384">
        <ele>2008</ele>
        <time>2021-02-21T05:32:53Z</time>
      </trkpt>
      <trkpt lat="44.4652" lon="6.54382">
        <ele>2008</ele>
        <time>2021-02-21T05:32:54Z</time>
      </trkpt>
      <trkpt lat="44.4652" lon="6.54381">
        <ele>2008</ele>
        <time>2021-02-21T05:32:55Z</time>
      </trkpt>
      <trkpt lat="44.46521" lon="6.54381">
        <ele>2010</ele>
        <time>2021-02-21T05:32:56Z</time>
      </trkpt>
      <trkpt lat="44.46522" lon="6.5438">
        <ele>2010</ele>
        <time>2021-02-21T05:32:57Z</time>
      </trkpt>
      <trkpt lat="44.46523" lon="6.54379">
        <ele>2011</ele>
        <time>2021-02-21T05:32:58Z</time>
      </trkpt>
      <trkpt lat="44.46523" lon="6.54378">
        <ele>2012</ele>
        <time>2021-02-21T05:32:59Z</time>
      </trkpt>
      <trkpt lat="44.46523" lon="6.54377">
        <ele>2012</ele>
        <time>2021-02-21T05:33:00Z</time>
      </trkpt>
      <trkpt lat="44.46523" lon="6.54377">
        <ele>2012</ele>
        <time>2021-02-21T05:33:01Z</time>
      </trkpt>
      <trkpt lat="44.46523" lon="6.54377">
        <ele>2012</ele>
        <time>2021-02-21T05:33:02Z</time>
      </trkpt>
      <trkpt lat="44.46523" lon="6.54376">
        <ele>2012</ele>
        <time>2021-02-21T05:33:03Z</time>
      </trkpt>
      <trkpt lat="44.46522" lon="6.54376">
        <ele>2013</ele>
        <time>2021-02-21T05:33:04Z</time>
      </trkpt>
      <trkpt lat="44.46522" lon="6.54376">
        <ele>2013</ele>
        <time>2021-02-21T05:33:05Z</time>
      </trkpt>
      <trkpt lat="44.46521" lon="6.54377">
        <ele>2013</ele>
        <time>2021-02-21T05:33:06Z</time>
      </trkpt>
      <trkpt lat="44.46521" lon="6.54377">
        <ele>2013</ele>
        <time>2021-02-21T05:33:07Z</time>
      </trkpt>
      <trkpt lat="44.4652" lon="6.54378">
        <ele>2013</ele>
        <time>2021-02-21T05:33:08Z</time>
      </trkpt>
      <trkpt lat="44.46519" lon="6.54379">
        <ele>2014</ele>
        <time>2021-02-21T05:33:09Z</time>
      </trkpt>
      <trkpt lat="44.46519" lon="6.54379">
        <ele>2014</ele>
        <time>2021-02-21T05:33:10Z</time>
      </trkpt>
      <trkpt lat="44.4652" lon="6.5438">
        <ele>2014</ele>
        <time>2021-02-21T05:33:11Z</time>
      </trkpt>
      <trkpt lat="44.4652" lon="6.5438">
        <ele>2014</ele>
        <time>2021-02-21T05:33:12Z</time>
      </trkpt>
      <trkpt lat="44.4652" lon="6.5438">
        <ele>2014</ele>
        <time>2021-02-21T05:33:13Z</time>
      </trkpt>
      <trkpt lat="44.46519" lon="6.54381">
        <ele>2014</ele>
        <time>2021-02-21T05:33:14Z</time>
      </trkpt>
      <trkpt lat="44.46519" lon="6.54381">
        <ele>2014</ele>
        <time>2021-02-21T05:33:15Z</time>
      </trkpt>
      <trkpt lat="44.46519" lon="6.54381">
        <ele>2014</ele>
        <time>2021-02-21T05:33:16Z</time>
      </trkpt>
      <trkpt lat="44.46519" lon="6.54381">
        <ele>2014</ele>
        <time>2021-02-21T05:33:17Z</time>
      </trkpt>
      <trkpt lat="44.46519" lon="6.54381">
        <ele>2014</ele>
        <time>2021-02-21T05:33:18Z</time>
      </trkpt>
      <trkpt lat="44.46519" lon="6.54381">
        <ele>2014</ele>
        <time>2021-02-21T05:33:19Z</time>
      </trkpt>
      <trkpt lat="44.46519" lon="6.54381">
        <ele>2014</ele>
        <time>2021-02-21T05:33:20Z</time>
      </trkpt>
      <trkpt lat="44.46519" lon="6.54381">
        <ele>2014</ele>
        <time>2021-02-21T05:33:21Z</time>
      </trkpt>
      <trkpt lat="44.46519" lon="6.54381">
        <ele>2014</ele>
        <time>2021-02-21T05:33:22Z</time>
      </trkpt>
      <trkpt lat="44.46519" lon="6.54381">
        <ele>2014</ele>
        <time>2021-02-21T05:33:23Z</time>
      </trkpt>
      <trkpt lat="44.46519" lon="6.54381">
        <ele>2014</ele>
        <time>2021-02-21T05:33:24Z</time>
      </trkpt>
      <trkpt lat="44.46519" lon="6.54381">
        <ele>2014</ele>
        <time>2021-02-21T05:33:25Z</time>
      </trkpt>
      <trkpt lat="44.46519" lon="6.54381">
        <ele>2014</ele>
        <time>2021-02-21T05:33:26Z</time>
      </trkpt>
      <trkpt lat="44.46519" lon="6.54381">
        <ele>2014</ele>
        <time>2021-02-21T05:33:27Z</time>
      </trkpt>
      <trkpt lat="44.46519" lon="6.54381">
        <ele>2014</ele>
        <time>2021-02-21T05:33:28Z</time>
      </trkpt>
      <trkpt lat="44.46519" lon="6.54381">
        <ele>2014</ele>
        <time>2021-02-21T05:33:29Z</time>
      </trkpt>
      <trkpt lat="44.46519" lon="6.54381">
        <ele>2014</ele>
        <time>2021-02-21T05:33:30Z</time>
      </trkpt>
      <trkpt lat="44.46519" lon="6.54381">
        <ele>2014</ele>
        <time>2021-02-21T05:33:31Z</time>
      </trkpt>
      <trkpt lat="44.46519" lon="6.54381">
        <ele>2014</ele>
        <time>2021-02-21T05:33:32Z</time>
      </trkpt>
      <trkpt lat="44.46519" lon="6.54381">
        <ele>2014</ele>
        <time>2021-02-21T05:33:33Z</time>
      </trkpt>
      <trkpt lat="44.46519" lon="6.54381">
        <ele>2014</ele>
        <time>2021-02-21T05:33:34Z</time>
      </trkpt>
      <trkpt lat="44.46519" lon="6.54381">
        <ele>2014</ele>
        <time>2021-02-21T05:33:35Z</time>
      </trkpt>
      <trkpt lat="44.46519" lon="6.54381">
        <ele>2014</ele>
        <time>2021-02-21T05:33:36Z</time>
      </trkpt>
      <trkpt lat="44.46519" lon="6.54381">
        <ele>2014</ele>
        <time>2021-02-21T05:33:37Z</time>
      </trkpt>
      <trkpt lat="44.46519" lon="6.54381">
        <ele>2014</ele>
        <time>2021-02-21T05:33:38Z</time>
      </trkpt>
      <trkpt lat="44.46519" lon="6.54381">
        <ele>2014</ele>
        <time>2021-02-21T05:33:39Z</time>
      </trkpt>
      <trkpt lat="44.46519" lon="6.54381">
        <ele>2014</ele>
        <time>2021-02-21T05:33:40Z</time>
      </trkpt>
      <trkpt lat="44.46519" lon="6.54381">
        <ele>2014</ele>
        <time>2021-02-21T05:33:41Z</time>
      </trkpt>
      <trkpt lat="44.46519" lon="6.54381">
        <ele>2014</ele>
        <time>2021-02-21T05:33:42Z</time>
      </trkpt>
      <trkpt lat="44.46519" lon="6.54381">
        <ele>2014</ele>
        <time>2021-02-21T05:33:43Z</time>
      </trkpt>
      <trkpt lat="44.46519" lon="6.54381">
        <ele>2014</ele>
        <time>2021-02-21T05:33:44Z</time>
      </trkpt>
      <trkpt lat="44.46519" lon="6.54381">
        <ele>2014</ele>
        <time>2021-02-21T05:33:45Z</time>
      </trkpt>
      <trkpt lat="44.46519" lon="6.54381">
        <ele>2014</ele>
        <time>2021-02-21T05:33:46Z</time>
      </trkpt>
      <trkpt lat="44.46519" lon="6.54381">
        <ele>2014</ele>
        <time>2021-02-21T05:33:47Z</time>
      </trkpt>
      <trkpt lat="44.46519" lon="6.54381">
        <ele>2014</ele>
        <time>2021-02-21T05:33:48Z</time>
      </trkpt>
      <trkpt lat="44.46519" lon="6.54381">
        <ele>2014</ele>
        <time>2021-02-21T05:33:49Z</time>
      </trkpt>
      <trkpt lat="44.46519" lon="6.54381">
        <ele>2014</ele>
        <time>2021-02-21T05:33:50Z</time>
      </trkpt>
      <trkpt lat="44.46519" lon="6.54381">
        <ele>2014</ele>
        <time>2021-02-21T05:33:51Z</time>
      </trkpt>
      <trkpt lat="44.46519" lon="6.54381">
        <ele>2014</ele>
        <time>2021-02-21T05:33:52Z</time>
      </trkpt>
      <trkpt lat="44.46519" lon="6.54381">
        <ele>2014</ele>
        <time>2021-02-21T05:33:53Z</time>
      </trkpt>
      <trkpt lat="44.46519" lon="6.54381">
        <ele>2014</ele>
        <time>2021-02-21T05:33:54Z</time>
      </trkpt>
      <trkpt lat="44.46519" lon="6.54381">
        <ele>2014</ele>
        <time>2021-02-21T05:33:55Z</time>
      </trkpt>
      <trkpt lat="44.46519" lon="6.54381">
        <ele>2014</ele>
        <time>2021-02-21T05:33:56Z</time>
      </trkpt>
      <trkpt lat="44.46519" lon="6.54381">
        <ele>2014</ele>
        <time>2021-02-21T05:33:57Z</time>
      </trkpt>
      <trkpt lat="44.46519" lon="6.54381">
        <ele>2014</ele>
        <time>2021-02-21T05:33:58Z</time>
      </trkpt>
      <trkpt lat="44.46519" lon="6.54381">
        <ele>2014</ele>
        <time>2021-02-21T05:33:59Z</time>
      </trkpt>
      <trkpt lat="44.46519" lon="6.54381">
        <ele>2014</ele>
        <time>2021-02-21T05:34:00Z</time>
      </trkpt>
      <trkpt lat="44.46519" lon="6.54381">
        <ele>2014</ele>
        <time>2021-02-21T05:34:01Z</time>
      </trkpt>
      <trkpt lat="44.46519" lon="6.54381">
        <ele>2014</ele>
        <time>2021-02-21T05:34:02Z</time>
      </trkpt>
      <trkpt lat="44.46519" lon="6.54381">
        <ele>2014</ele>
        <time>2021-02-21T05:34:03Z</time>
      </trkpt>
      <trkpt lat="44.46519" lon="6.54381">
        <ele>2014</ele>
        <time>2021-02-21T05:34:04Z</time>
      </trkpt>
      <trkpt lat="44.46519" lon="6.54381">
        <ele>2014</ele>
        <time>2021-02-21T05:34:05Z</time>
      </trkpt>
      <trkpt lat="44.46519" lon="6.54381">
        <ele>2014</ele>
        <time>2021-02-21T05:34:06Z</time>
      </trkpt>
      <trkpt lat="44.46519" lon="6.54381">
        <ele>2014</ele>
        <time>2021-02-21T05:34:07Z</time>
      </trkpt>
      <trkpt lat="44.46519" lon="6.54381">
        <ele>2014</ele>
        <time>2021-02-21T05:34:08Z</time>
      </trkpt>
      <trkpt lat="44.46519" lon="6.54381">
        <ele>2014</ele>
        <time>2021-02-21T05:34:09Z</time>
      </trkpt>
      <trkpt lat="44.46519" lon="6.54381">
        <ele>2014</ele>
        <time>2021-02-21T05:34:10Z</time>
      </trkpt>
      <trkpt lat="44.46519" lon="6.54381">
        <ele>2014</ele>
        <time>2021-02-21T05:34:11Z</time>
      </trkpt>
      <trkpt lat="44.46519" lon="6.54381">
        <ele>2014</ele>
        <time>2021-02-21T05:34:12Z</time>
      </trkpt>
      <trkpt lat="44.46519" lon="6.54381">
        <ele>2014</ele>
        <time>2021-02-21T05:34:13Z</time>
      </trkpt>
      <trkpt lat="44.46519" lon="6.54381">
        <ele>2014</ele>
        <time>2021-02-21T05:34:14Z</time>
      </trkpt>
      <trkpt lat="44.46519" lon="6.54381">
        <ele>2014</ele>
        <time>2021-02-21T05:34:15Z</time>
      </trkpt>
      <trkpt lat="44.46519" lon="6.54381">
        <ele>2014</ele>
        <time>2021-02-21T05:34:16Z</time>
      </trkpt>
      <trkpt lat="44.46519" lon="6.54381">
        <ele>2014</ele>
        <time>2021-02-21T05:34:17Z</time>
      </trkpt>
      <trkpt lat="44.46519" lon="6.54381">
        <ele>2014</ele>
        <time>2021-02-21T05:34:18Z</time>
      </trkpt>
      <trkpt lat="44.46519" lon="6.54381">
        <ele>2014</ele>
        <time>2021-02-21T05:34:19Z</time>
      </trkpt>
      <trkpt lat="44.46519" lon="6.54381">
        <ele>2014</ele>
        <time>2021-02-21T05:34:20Z</time>
      </trkpt>
      <trkpt lat="44.46519" lon="6.54381">
        <ele>2014</ele>
        <time>2021-02-21T05:34:21Z</time>
      </trkpt>
      <trkpt lat="44.46519" lon="6.54381">
        <ele>2014</ele>
        <time>2021-02-21T05:34:22Z</time>
      </trkpt>
      <trkpt lat="44.46519" lon="6.54381">
        <ele>2014</ele>
        <time>2021-02-21T05:34:23Z</time>
      </trkpt>
      <trkpt lat="44.46519" lon="6.54381">
        <ele>2014</ele>
        <time>2021-02-21T05:34:24Z</time>
      </trkpt>
      <trkpt lat="44.46519" lon="6.54381">
        <ele>2014</ele>
        <time>2021-02-21T05:34:25Z</time>
      </trkpt>
      <trkpt lat="44.46519" lon="6.54381">
        <ele>2014</ele>
        <time>2021-02-21T05:34:26Z</time>
      </trkpt>
      <trkpt lat="44.46519" lon="6.54381">
        <ele>2014</ele>
        <time>2021-02-21T05:34:27Z</time>
      </trkpt>
      <trkpt lat="44.46519" lon="6.54381">
        <ele>2014</ele>
        <time>2021-02-21T05:34:28Z</time>
      </trkpt>
      <trkpt lat="44.46519" lon="6.54381">
        <ele>2014</ele>
        <time>2021-02-21T05:34:29Z</time>
      </trkpt>
      <trkpt lat="44.46519" lon="6.54381">
        <ele>2014</ele>
        <time>2021-02-21T05:34:30Z</time>
      </trkpt>
      <trkpt lat="44.46519" lon="6.54381">
        <ele>2014</ele>
        <time>2021-02-21T05:34:31Z</time>
      </trkpt>
      <trkpt lat="44.46519" lon="6.54381">
        <ele>2014</ele>
        <time>2021-02-21T05:34:32Z</time>
      </trkpt>
      <trkpt lat="44.46519" lon="6.54381">
        <ele>2014</ele>
        <time>2021-02-21T05:34:33Z</time>
      </trkpt>
      <trkpt lat="44.46519" lon="6.54381">
        <ele>2014</ele>
        <time>2021-02-21T05:34:34Z</time>
      </trkpt>
      <trkpt lat="44.46519" lon="6.54381">
        <ele>2014</ele>
        <time>2021-02-21T05:34:35Z</time>
      </trkpt>
      <trkpt lat="44.46519" lon="6.54381">
        <ele>2014</ele>
        <time>2021-02-21T05:34:36Z</time>
      </trkpt>
      <trkpt lat="44.46519" lon="6.54381">
        <ele>2014</ele>
        <time>2021-02-21T05:34:37Z</time>
      </trkpt>
      <trkpt lat="44.46519" lon="6.54381">
        <ele>2014</ele>
        <time>2021-02-21T05:34:38Z</time>
      </trkpt>
      <trkpt lat="44.46521" lon="6.54379">
        <ele>2014</ele>
        <time>2021-02-21T05:34:39Z</time>
      </trkpt>
      <trkpt lat="44.46521" lon="6.54378">
        <ele>2014</ele>
        <time>2021-02-21T05:34:40Z</time>
      </trkpt>
      <trkpt lat="44.46521" lon="6.54378">
        <ele>2014</ele>
        <time>2021-02-21T05:34:41Z</time>
      </trkpt>
      <trkpt lat="44.4652" lon="6.54377">
        <ele>2014</ele>
        <time>2021-02-21T05:34:42Z</time>
      </trkpt>
      <trkpt lat="44.4652" lon="6.54377">
        <ele>2014</ele>
        <time>2021-02-21T05:34:43Z</time>
      </trkpt>
      <trkpt lat="44.4652" lon="6.54377">
        <ele>2014</ele>
        <time>2021-02-21T05:34:44Z</time>
      </trkpt>
      <trkpt lat="44.4652" lon="6.54377">
        <ele>2014</ele>
        <time>2021-02-21T05:34:45Z</time>
      </trkpt>
      <trkpt lat="44.4652" lon="6.54377">
        <ele>2014</ele>
        <time>2021-02-21T05:34:46Z</time>
      </trkpt>
      <trkpt lat="44.4652" lon="6.54377">
        <ele>2014</ele>
        <time>2021-02-21T05:34:47Z</time>
      </trkpt>
      <trkpt lat="44.4652" lon="6.54377">
        <ele>2014</ele>
        <time>2021-02-21T05:34:48Z</time>
      </trkpt>
      <trkpt lat="44.4652" lon="6.54377">
        <ele>2014</ele>
        <time>2021-02-21T05:34:49Z</time>
      </trkpt>
      <trkpt lat="44.46519" lon="6.54373">
        <ele>2014</ele>
        <time>2021-02-21T05:34:50Z</time>
      </trkpt>
      <trkpt lat="44.46519" lon="6.54372">
        <ele>2014</ele>
        <time>2021-02-21T05:34:51Z</time>
      </trkpt>
      <trkpt lat="44.46519" lon="6.54371">
        <ele>2014</ele>
        <time>2021-02-21T05:34:52Z</time>
      </trkpt>
      <trkpt lat="44.46519" lon="6.54369">
        <ele>2014</ele>
        <time>2021-02-21T05:34:53Z</time>
      </trkpt>
      <trkpt lat="44.46519" lon="6.54368">
        <ele>2014</ele>
        <time>2021-02-21T05:34:54Z</time>
      </trkpt>
      <trkpt lat="44.46519" lon="6.54367">
        <ele>2014</ele>
        <time>2021-02-21T05:34:55Z</time>
      </trkpt>
      <trkpt lat="44.46519" lon="6.54365">
        <ele>2014</ele>
        <time>2021-02-21T05:34:56Z</time>
      </trkpt>
      <trkpt lat="44.46519" lon="6.54364">
        <ele>2014</ele>
        <time>2021-02-21T05:34:57Z</time>
      </trkpt>
      <trkpt lat="44.46519" lon="6.54363">
        <ele>2014</ele>
        <time>2021-02-21T05:34:58Z</time>
      </trkpt>
      <trkpt lat="44.4652" lon="6.54362">
        <ele>2014</ele>
        <time>2021-02-21T05:34:59Z</time>
      </trkpt>
      <trkpt lat="44.4652" lon="6.54361">
        <ele>2014</ele>
        <time>2021-02-21T05:35:00Z</time>
      </trkpt>
      <trkpt lat="44.4652" lon="6.54361">
        <ele>2013</ele>
        <time>2021-02-21T05:35:01Z</time>
      </trkpt>
      <trkpt lat="44.4652" lon="6.5436">
        <ele>2013</ele>
        <time>2021-02-21T05:35:02Z</time>
      </trkpt>
      <trkpt lat="44.4652" lon="6.54359">
        <ele>2013</ele>
        <time>2021-02-21T05:35:03Z</time>
      </trkpt>
      <trkpt lat="44.4652" lon="6.54358">
        <ele>2013</ele>
        <time>2021-02-21T05:35:04Z</time>
      </trkpt>
      <trkpt lat="44.46521" lon="6.54356">
        <ele>2012</ele>
        <time>2021-02-21T05:35:05Z</time>
      </trkpt>
      <trkpt lat="44.46521" lon="6.54355">
        <ele>2012</ele>
        <time>2021-02-21T05:35:06Z</time>
      </trkpt>
      <trkpt lat="44.46521" lon="6.54354">
        <ele>2012</ele>
        <time>2021-02-21T05:35:07Z</time>
      </trkpt>
      <trkpt lat="44.46521" lon="6.54352">
        <ele>2012</ele>
        <time>2021-02-21T05:35:08Z</time>
      </trkpt>
      <trkpt lat="44.46521" lon="6.54351">
        <ele>2012</ele>
        <time>2021-02-21T05:35:09Z</time>
      </trkpt>
      <trkpt lat="44.46521" lon="6.54349">
        <ele>2012</ele>
        <time>2021-02-21T05:35:10Z</time>
      </trkpt>
      <trkpt lat="44.46521" lon="6.54348">
        <ele>2012</ele>
        <time>2021-02-21T05:35:11Z</time>
      </trkpt>
      <trkpt lat="44.46521" lon="6.54346">
        <ele>2012</ele>
        <time>2021-02-21T05:35:12Z</time>
      </trkpt>
      <trkpt lat="44.46521" lon="6.54346">
        <ele>2012</ele>
        <time>2021-02-21T05:35:13Z</time>
      </trkpt>
      <trkpt lat="44.46521" lon="6.54345">
        <ele>2012</ele>
        <time>2021-02-21T05:35:14Z</time>
      </trkpt>
      <trkpt lat="44.46521" lon="6.54344">
        <ele>2012</ele>
        <time>2021-02-21T05:35:15Z</time>
      </trkpt>
      <trkpt lat="44.46521" lon="6.54343">
        <ele>2012</ele>
        <time>2021-02-21T05:35:16Z</time>
      </trkpt>
      <trkpt lat="44.46522" lon="6.54343">
        <ele>2012</ele>
        <time>2021-02-21T05:35:17Z</time>
      </trkpt>
      <trkpt lat="44.46522" lon="6.54342">
        <ele>2012</ele>
        <time>2021-02-21T05:35:18Z</time>
      </trkpt>
      <trkpt lat="44.46522" lon="6.54342">
        <ele>2012</ele>
        <time>2021-02-21T05:35:19Z</time>
      </trkpt>
      <trkpt lat="44.46522" lon="6.54342">
        <ele>2012</ele>
        <time>2021-02-21T05:35:20Z</time>
      </trkpt>
      <trkpt lat="44.46522" lon="6.54341">
        <ele>2012</ele>
        <time>2021-02-21T05:35:21Z</time>
      </trkpt>
      <trkpt lat="44.46521" lon="6.54341">
        <ele>2012</ele>
        <time>2021-02-21T05:35:22Z</time>
      </trkpt>
      <trkpt lat="44.46521" lon="6.5434">
        <ele>2013</ele>
        <time>2021-02-21T05:35:23Z</time>
      </trkpt>
      <trkpt lat="44.4652" lon="6.5434">
        <ele>2013</ele>
        <time>2021-02-21T05:35:24Z</time>
      </trkpt>
      <trkpt lat="44.4652" lon="6.54339">
        <ele>2013</ele>
        <time>2021-02-21T05:35:25Z</time>
      </trkpt>
      <trkpt lat="44.4652" lon="6.54339">
        <ele>2013</ele>
        <time>2021-02-21T05:35:26Z</time>
      </trkpt>
      <trkpt lat="44.4652" lon="6.54337">
        <ele>2013</ele>
        <time>2021-02-21T05:35:27Z</time>
      </trkpt>
      <trkpt lat="44.46519" lon="6.54337">
        <ele>2013</ele>
        <time>2021-02-21T05:35:28Z</time>
      </trkpt>
      <trkpt lat="44.46519" lon="6.54336">
        <ele>2014</ele>
        <time>2021-02-21T05:35:29Z</time>
      </trkpt>
      <trkpt lat="44.46519" lon="6.54335">
        <ele>2014</ele>
        <time>2021-02-21T05:35:30Z</time>
      </trkpt>
      <trkpt lat="44.46519" lon="6.54334">
        <ele>2014</ele>
        <time>2021-02-21T05:35:31Z</time>
      </trkpt>
      <trkpt lat="44.46519" lon="6.54334">
        <ele>2014</ele>
        <time>2021-02-21T05:35:32Z</time>
      </trkpt>
      <trkpt lat="44.46519" lon="6.54334">
        <ele>2014</ele>
        <time>2021-02-21T05:35:33Z</time>
      </trkpt>
      <trkpt lat="44.46519" lon="6.54333">
        <ele>2014</ele>
        <time>2021-02-21T05:35:34Z</time>
      </trkpt>
      <trkpt lat="44.46519" lon="6.54332">
        <ele>2014</ele>
        <time>2021-02-21T05:35:35Z</time>
      </trkpt>
      <trkpt lat="44.46519" lon="6.54332">
        <ele>2014</ele>
        <time>2021-02-21T05:35:36Z</time>
      </trkpt>
      <trkpt lat="44.46519" lon="6.54332">
        <ele>2014</ele>
        <time>2021-02-21T05:35:37Z</time>
      </trkpt>
      <trkpt lat="44.46519" lon="6.54331">
        <ele>2014</ele>
        <time>2021-02-21T05:35:38Z</time>
      </trkpt>
      <trkpt lat="44.46519" lon="6.54331">
        <ele>2014</ele>
        <time>2021-02-21T05:35:39Z</time>
      </trkpt>
      <trkpt lat="44.46519" lon="6.54331">
        <ele>2014</ele>
        <time>2021-02-21T05:35:40Z</time>
      </trkpt>
      <trkpt lat="44.46519" lon="6.54331">
        <ele>2014</ele>
        <time>2021-02-21T05:35:41Z</time>
      </trkpt>
      <trkpt lat="44.46519" lon="6.54331">
        <ele>2014</ele>
        <time>2021-02-21T05:35:42Z</time>
      </trkpt>
      <trkpt lat="44.46519" lon="6.54331">
        <ele>2014</ele>
        <time>2021-02-21T05:35:43Z</time>
      </trkpt>
      <trkpt lat="44.46519" lon="6.54331">
        <ele>2014</ele>
        <time>2021-02-21T05:35:44Z</time>
      </trkpt>
      <trkpt lat="44.46519" lon="6.54326">
        <ele>2015</ele>
        <time>2021-02-21T05:35:45Z</time>
      </trkpt>
      <trkpt lat="44.46519" lon="6.54325">
        <ele>2015</ele>
        <time>2021-02-21T05:35:46Z</time>
      </trkpt>
      <trkpt lat="44.46519" lon="6.54324">
        <ele>2015</ele>
        <time>2021-02-21T05:35:47Z</time>
      </trkpt>
      <trkpt lat="44.46519" lon="6.54324">
        <ele>2015</ele>
        <time>2021-02-21T05:35:48Z</time>
      </trkpt>
      <trkpt lat="44.46519" lon="6.54325">
        <ele>2015</ele>
        <time>2021-02-21T05:35:49Z</time>
      </trkpt>
      <trkpt lat="44.46519" lon="6.54325">
        <ele>2015</ele>
        <time>2021-02-21T05:35:50Z</time>
      </trkpt>
      <trkpt lat="44.4652" lon="6.54325">
        <ele>2015</ele>
        <time>2021-02-21T05:35:51Z</time>
      </trkpt>
      <trkpt lat="44.46519" lon="6.54326">
        <ele>2015</ele>
        <time>2021-02-21T05:35:52Z</time>
      </trkpt>
      <trkpt lat="44.46519" lon="6.54327">
        <ele>2015</ele>
        <time>2021-02-21T05:35:53Z</time>
      </trkpt>
      <trkpt lat="44.46517" lon="6.54327">
        <ele>2015</ele>
        <time>2021-02-21T05:35:54Z</time>
      </trkpt>
      <trkpt lat="44.46516" lon="6.54328">
        <ele>2016</ele>
        <time>2021-02-21T05:35:55Z</time>
      </trkpt>
      <trkpt lat="44.46515" lon="6.54329">
        <ele>2017</ele>
        <time>2021-02-21T05:35:56Z</time>
      </trkpt>
      <trkpt lat="44.46514" lon="6.54329">
        <ele>2018</ele>
        <time>2021-02-21T05:35:57Z</time>
      </trkpt>
      <trkpt lat="44.46514" lon="6.5433">
        <ele>2018</ele>
        <time>2021-02-21T05:35:58Z</time>
      </trkpt>
      <trkpt lat="44.46513" lon="6.54331">
        <ele>2018</ele>
        <time>2021-02-21T05:35:59Z</time>
      </trkpt>
      <trkpt lat="44.46512" lon="6.54331">
        <ele>2019</ele>
        <time>2021-02-21T05:36:00Z</time>
      </trkpt>
      <trkpt lat="44.46511" lon="6.54331">
        <ele>2020</ele>
        <time>2021-02-21T05:36:01Z</time>
      </trkpt>
      <trkpt lat="44.4651" lon="6.54332">
        <ele>2020</ele>
        <time>2021-02-21T05:36:02Z</time>
      </trkpt>
      <trkpt lat="44.4651" lon="6.54333">
        <ele>2020</ele>
        <time>2021-02-21T05:36:03Z</time>
      </trkpt>
      <trkpt lat="44.46509" lon="6.54334">
        <ele>2021</ele>
        <time>2021-02-21T05:36:04Z</time>
      </trkpt>
      <trkpt lat="44.46508" lon="6.54334">
        <ele>2021</ele>
        <time>2021-02-21T05:36:05Z</time>
      </trkpt>
      <trkpt lat="44.46507" lon="6.54335">
        <ele>2022</ele>
        <time>2021-02-21T05:36:06Z</time>
      </trkpt>
      <trkpt lat="44.46506" lon="6.54336">
        <ele>2022</ele>
        <time>2021-02-21T05:36:07Z</time>
      </trkpt>
      <trkpt lat="44.46506" lon="6.54337">
        <ele>2022</ele>
        <time>2021-02-21T05:36:08Z</time>
      </trkpt>
      <trkpt lat="44.46505" lon="6.54337">
        <ele>2023</ele>
        <time>2021-02-21T05:36:09Z</time>
      </trkpt>
      <trkpt lat="44.46505" lon="6.54339">
        <ele>2023</ele>
        <time>2021-02-21T05:36:10Z</time>
      </trkpt>
      <trkpt lat="44.46505" lon="6.54339">
        <ele>2023</ele>
        <time>2021-02-21T05:36:11Z</time>
      </trkpt>
      <trkpt lat="44.46505" lon="6.5434">
        <ele>2024</ele>
        <time>2021-02-21T05:36:12Z</time>
      </trkpt>
      <trkpt lat="44.46505" lon="6.5434">
        <ele>2024</ele>
        <time>2021-02-21T05:36:13Z</time>
      </trkpt>
      <trkpt lat="44.46504" lon="6.54341">
        <ele>2024</ele>
        <time>2021-02-21T05:36:14Z</time>
      </trkpt>
      <trkpt lat="44.46504" lon="6.54341">
        <ele>2024</ele>
        <time>2021-02-21T05:36:15Z</time>
      </trkpt>
      <trkpt lat="44.46504" lon="6.54342">
        <ele>2024</ele>
        <time>2021-02-21T05:36:16Z</time>
      </trkpt>
      <trkpt lat="44.46503" lon="6.54343">
        <ele>2024</ele>
        <time>2021-02-21T05:36:17Z</time>
      </trkpt>
      <trkpt lat="44.46503" lon="6.54344">
        <ele>2025</ele>
        <time>2021-02-21T05:36:18Z</time>
      </trkpt>
      <trkpt lat="44.46503" lon="6.54344">
        <ele>2025</ele>
        <time>2021-02-21T05:36:19Z</time>
      </trkpt>
      <trkpt lat="44.46503" lon="6.54344">
        <ele>2026</ele>
        <time>2021-02-21T05:36:20Z</time>
      </trkpt>
      <trkpt lat="44.46503" lon="6.54345">
        <ele>2026</ele>
        <time>2021-02-21T05:36:21Z</time>
      </trkpt>
      <trkpt lat="44.46502" lon="6.54345">
        <ele>2026</ele>
        <time>2021-02-21T05:36:22Z</time>
      </trkpt>
      <trkpt lat="44.46502" lon="6.54346">
        <ele>2026</ele>
        <time>2021-02-21T05:36:23Z</time>
      </trkpt>
      <trkpt lat="44.46502" lon="6.54346">
        <ele>2026</ele>
        <time>2021-02-21T05:36:24Z</time>
      </trkpt>
      <trkpt lat="44.46501" lon="6.54347">
        <ele>2027</ele>
        <time>2021-02-21T05:36:25Z</time>
      </trkpt>
      <trkpt lat="44.46501" lon="6.54347">
        <ele>2028</ele>
        <time>2021-02-21T05:36:26Z</time>
      </trkpt>
      <trkpt lat="44.46501" lon="6.54348">
        <ele>2028</ele>
        <time>2021-02-21T05:36:27Z</time>
      </trkpt>
      <trkpt lat="44.46501" lon="6.54349">
        <ele>2028</ele>
        <time>2021-02-21T05:36:28Z</time>
      </trkpt>
      <trkpt lat="44.465" lon="6.54349">
        <ele>2028</ele>
        <time>2021-02-21T05:36:29Z</time>
      </trkpt>
      <trkpt lat="44.46499" lon="6.5435">
        <ele>2029</ele>
        <time>2021-02-21T05:36:30Z</time>
      </trkpt>
      <trkpt lat="44.46498" lon="6.5435">
        <ele>2029</ele>
        <time>2021-02-21T05:36:31Z</time>
      </trkpt>
      <trkpt lat="44.46498" lon="6.54351">
        <ele>2029</ele>
        <time>2021-02-21T05:36:32Z</time>
      </trkpt>
      <trkpt lat="44.46497" lon="6.54351">
        <ele>2029</ele>
        <time>2021-02-21T05:36:33Z</time>
      </trkpt>
      <trkpt lat="44.46496" lon="6.54352">
        <ele>2029</ele>
        <time>2021-02-21T05:36:34Z</time>
      </trkpt>
      <trkpt lat="44.46495" lon="6.54352">
        <ele>2030</ele>
        <time>2021-02-21T05:36:35Z</time>
      </trkpt>
      <trkpt lat="44.46495" lon="6.54352">
        <ele>2030</ele>
        <time>2021-02-21T05:36:36Z</time>
      </trkpt>
      <trkpt lat="44.46494" lon="6.54352">
        <ele>2030</ele>
        <time>2021-02-21T05:36:37Z</time>
      </trkpt>
      <trkpt lat="44.46494" lon="6.54352">
        <ele>2030</ele>
        <time>2021-02-21T05:36:38Z</time>
      </trkpt>
      <trkpt lat="44.46493" lon="6.54352">
        <ele>2030</ele>
        <time>2021-02-21T05:36:39Z</time>
      </trkpt>
      <trkpt lat="44.46493" lon="6.54352">
        <ele>2030</ele>
        <time>2021-02-21T05:36:40Z</time>
      </trkpt>
      <trkpt lat="44.46492" lon="6.5435">
        <ele>2030</ele>
        <time>2021-02-21T05:36:41Z</time>
      </trkpt>
      <trkpt lat="44.46492" lon="6.54349">
        <ele>2031</ele>
        <time>2021-02-21T05:36:42Z</time>
      </trkpt>
      <trkpt lat="44.46492" lon="6.54348">
        <ele>2031</ele>
        <time>2021-02-21T05:36:43Z</time>
      </trkpt>
      <trkpt lat="44.46492" lon="6.54346">
        <ele>2031</ele>
        <time>2021-02-21T05:36:44Z</time>
      </trkpt>
      <trkpt lat="44.46491" lon="6.54345">
        <ele>2031</ele>
        <time>2021-02-21T05:36:45Z</time>
      </trkpt>
      <trkpt lat="44.46491" lon="6.54343">
        <ele>2031</ele>
        <time>2021-02-21T05:36:46Z</time>
      </trkpt>
      <trkpt lat="44.46491" lon="6.54342">
        <ele>2031</ele>
        <time>2021-02-21T05:36:47Z</time>
      </trkpt>
      <trkpt lat="44.4649" lon="6.5434">
        <ele>2031</ele>
        <time>2021-02-21T05:36:48Z</time>
      </trkpt>
      <trkpt lat="44.4649" lon="6.54339">
        <ele>2032</ele>
        <time>2021-02-21T05:36:49Z</time>
      </trkpt>
      <trkpt lat="44.46491" lon="6.54337">
        <ele>2032</ele>
        <time>2021-02-21T05:36:50Z</time>
      </trkpt>
      <trkpt lat="44.46491" lon="6.54335">
        <ele>2032</ele>
        <time>2021-02-21T05:36:51Z</time>
      </trkpt>
      <trkpt lat="44.46491" lon="6.54333">
        <ele>2032</ele>
        <time>2021-02-21T05:36:52Z</time>
      </trkpt>
      <trkpt lat="44.46491" lon="6.54332">
        <ele>2032</ele>
        <time>2021-02-21T05:36:53Z</time>
      </trkpt>
      <trkpt lat="44.46492" lon="6.5433">
        <ele>2032</ele>
        <time>2021-02-21T05:36:54Z</time>
      </trkpt>
      <trkpt lat="44.46492" lon="6.54329">
        <ele>2032</ele>
        <time>2021-02-21T05:36:55Z</time>
      </trkpt>
      <trkpt lat="44.46493" lon="6.54327">
        <ele>2032</ele>
        <time>2021-02-21T05:36:56Z</time>
      </trkpt>
      <trkpt lat="44.46494" lon="6.54326">
        <ele>2032</ele>
        <time>2021-02-21T05:36:57Z</time>
      </trkpt>
      <trkpt lat="44.46495" lon="6.54324">
        <ele>2032</ele>
        <time>2021-02-21T05:36:58Z</time>
      </trkpt>
      <trkpt lat="44.46495" lon="6.54323">
        <ele>2032</ele>
        <time>2021-02-21T05:36:59Z</time>
      </trkpt>
      <trkpt lat="44.46495" lon="6.54322">
        <ele>2032</ele>
        <time>2021-02-21T05:37:00Z</time>
      </trkpt>
      <trkpt lat="44.46494" lon="6.54321">
        <ele>2032</ele>
        <time>2021-02-21T05:37:01Z</time>
      </trkpt>
      <trkpt lat="44.46493" lon="6.5432">
        <ele>2032</ele>
        <time>2021-02-21T05:37:02Z</time>
      </trkpt>
      <trkpt lat="44.46493" lon="6.54319">
        <ele>2033</ele>
        <time>2021-02-21T05:37:03Z</time>
      </trkpt>
      <trkpt lat="44.46492" lon="6.54319">
        <ele>2033</ele>
        <time>2021-02-21T05:37:04Z</time>
      </trkpt>
      <trkpt lat="44.46491" lon="6.54319">
        <ele>2033</ele>
        <time>2021-02-21T05:37:05Z</time>
      </trkpt>
      <trkpt lat="44.46491" lon="6.54318">
        <ele>2033</ele>
        <time>2021-02-21T05:37:06Z</time>
      </trkpt>
      <trkpt lat="44.4649" lon="6.54318">
        <ele>2033</ele>
        <time>2021-02-21T05:37:07Z</time>
      </trkpt>
      <trkpt lat="44.4649" lon="6.54317">
        <ele>2033</ele>
        <time>2021-02-21T05:37:08Z</time>
      </trkpt>
      <trkpt lat="44.46489" lon="6.54316">
        <ele>2033</ele>
        <time>2021-02-21T05:37:09Z</time>
      </trkpt>
      <trkpt lat="44.46489" lon="6.54316">
        <ele>2034</ele>
        <time>2021-02-21T05:37:10Z</time>
      </trkpt>
      <trkpt lat="44.46487" lon="6.54316">
        <ele>2034</ele>
        <time>2021-02-21T05:37:11Z</time>
      </trkpt>
      <trkpt lat="44.46486" lon="6.54315">
        <ele>2034</ele>
        <time>2021-02-21T05:37:12Z</time>
      </trkpt>
      <trkpt lat="44.46485" lon="6.54315">
        <ele>2034</ele>
        <time>2021-02-21T05:37:13Z</time>
      </trkpt>
      <trkpt lat="44.46485" lon="6.54314">
        <ele>2034</ele>
        <time>2021-02-21T05:37:14Z</time>
      </trkpt>
      <trkpt lat="44.46483" lon="6.54313">
        <ele>2034</ele>
        <time>2021-02-21T05:37:15Z</time>
      </trkpt>
      <trkpt lat="44.46482" lon="6.54313">
        <ele>2034</ele>
        <time>2021-02-21T05:37:16Z</time>
      </trkpt>
      <trkpt lat="44.4648" lon="6.54313">
        <ele>2035</ele>
        <time>2021-02-21T05:37:17Z</time>
      </trkpt>
      <trkpt lat="44.46479" lon="6.54312">
        <ele>2035</ele>
        <time>2021-02-21T05:37:18Z</time>
      </trkpt>
      <trkpt lat="44.46477" lon="6.54312">
        <ele>2035</ele>
        <time>2021-02-21T05:37:19Z</time>
      </trkpt>
      <trkpt lat="44.46477" lon="6.5431">
        <ele>2035</ele>
        <time>2021-02-21T05:37:20Z</time>
      </trkpt>
      <trkpt lat="44.46476" lon="6.5431">
        <ele>2035</ele>
        <time>2021-02-21T05:37:21Z</time>
      </trkpt>
      <trkpt lat="44.46475" lon="6.54309">
        <ele>2035</ele>
        <time>2021-02-21T05:37:22Z</time>
      </trkpt>
      <trkpt lat="44.46474" lon="6.54309">
        <ele>2035</ele>
        <time>2021-02-21T05:37:23Z</time>
      </trkpt>
      <trkpt lat="44.46474" lon="6.54308">
        <ele>2034</ele>
        <time>2021-02-21T05:37:24Z</time>
      </trkpt>
      <trkpt lat="44.46473" lon="6.54308">
        <ele>2034</ele>
        <time>2021-02-21T05:37:25Z</time>
      </trkpt>
      <trkpt lat="44.46471" lon="6.54307">
        <ele>2034</ele>
        <time>2021-02-21T05:37:26Z</time>
      </trkpt>
      <trkpt lat="44.46471" lon="6.54306">
        <ele>2034</ele>
        <time>2021-02-21T05:37:27Z</time>
      </trkpt>
      <trkpt lat="44.4647" lon="6.54305">
        <ele>2034</ele>
        <time>2021-02-21T05:37:28Z</time>
      </trkpt>
      <trkpt lat="44.46469" lon="6.54305">
        <ele>2034</ele>
        <time>2021-02-21T05:37:29Z</time>
      </trkpt>
      <trkpt lat="44.46468" lon="6.54305">
        <ele>2034</ele>
        <time>2021-02-21T05:37:30Z</time>
      </trkpt>
      <trkpt lat="44.46468" lon="6.54305">
        <ele>2034</ele>
        <time>2021-02-21T05:37:31Z</time>
      </trkpt>
      <trkpt lat="44.46467" lon="6.54303">
        <ele>2033</ele>
        <time>2021-02-21T05:37:32Z</time>
      </trkpt>
      <trkpt lat="44.46465" lon="6.54303">
        <ele>2033</ele>
        <time>2021-02-21T05:37:33Z</time>
      </trkpt>
      <trkpt lat="44.46465" lon="6.54303">
        <ele>2033</ele>
        <time>2021-02-21T05:37:34Z</time>
      </trkpt>
      <trkpt lat="44.46464" lon="6.54302">
        <ele>2033</ele>
        <time>2021-02-21T05:37:35Z</time>
      </trkpt>
      <trkpt lat="44.46463" lon="6.54302">
        <ele>2033</ele>
        <time>2021-02-21T05:37:36Z</time>
      </trkpt>
      <trkpt lat="44.46463" lon="6.54301">
        <ele>2033</ele>
        <time>2021-02-21T05:37:37Z</time>
      </trkpt>
      <trkpt lat="44.46462" lon="6.543">
        <ele>2033</ele>
        <time>2021-02-21T05:37:38Z</time>
      </trkpt>
      <trkpt lat="44.46461" lon="6.543">
        <ele>2033</ele>
        <time>2021-02-21T05:37:39Z</time>
      </trkpt>
      <trkpt lat="44.46461" lon="6.54299">
        <ele>2033</ele>
        <time>2021-02-21T05:37:40Z</time>
      </trkpt>
      <trkpt lat="44.46459" lon="6.54298">
        <ele>2033</ele>
        <time>2021-02-21T05:37:41Z</time>
      </trkpt>
      <trkpt lat="44.46459" lon="6.54297">
        <ele>2033</ele>
        <time>2021-02-21T05:37:42Z</time>
      </trkpt>
      <trkpt lat="44.46458" lon="6.54297">
        <ele>2034</ele>
        <time>2021-02-21T05:37:43Z</time>
      </trkpt>
      <trkpt lat="44.46458" lon="6.54297">
        <ele>2034</ele>
        <time>2021-02-21T05:37:44Z</time>
      </trkpt>
      <trkpt lat="44.46457" lon="6.54296">
        <ele>2034</ele>
        <time>2021-02-21T05:37:45Z</time>
      </trkpt>
      <trkpt lat="44.46456" lon="6.54294">
        <ele>2035</ele>
        <time>2021-02-21T05:37:46Z</time>
      </trkpt>
      <trkpt lat="44.46456" lon="6.54294">
        <ele>2035</ele>
        <time>2021-02-21T05:37:47Z</time>
      </trkpt>
      <trkpt lat="44.46456" lon="6.54294">
        <ele>2035</ele>
        <time>2021-02-21T05:37:48Z</time>
      </trkpt>
      <trkpt lat="44.46456" lon="6.54294">
        <ele>2035</ele>
        <time>2021-02-21T05:37:49Z</time>
      </trkpt>
      <trkpt lat="44.46455" lon="6.54294">
        <ele>2035</ele>
        <time>2021-02-21T05:37:50Z</time>
      </trkpt>
      <trkpt lat="44.46454" lon="6.54294">
        <ele>2036</ele>
        <time>2021-02-21T05:37:51Z</time>
      </trkpt>
      <trkpt lat="44.46454" lon="6.54294">
        <ele>2036</ele>
        <time>2021-02-21T05:37:52Z</time>
      </trkpt>
      <trkpt lat="44.46453" lon="6.54294">
        <ele>2037</ele>
        <time>2021-02-21T05:37:53Z</time>
      </trkpt>
      <trkpt lat="44.46453" lon="6.54295">
        <ele>2039</ele>
        <time>2021-02-21T05:37:54Z</time>
      </trkpt>
      <trkpt lat="44.46452" lon="6.54295">
        <ele>2040</ele>
        <time>2021-02-21T05:37:55Z</time>
      </trkpt>
      <trkpt lat="44.46451" lon="6.54295">
        <ele>2040</ele>
        <time>2021-02-21T05:37:56Z</time>
      </trkpt>
      <trkpt lat="44.46451" lon="6.54295">
        <ele>2040</ele>
        <time>2021-02-21T05:37:57Z</time>
      </trkpt>
      <trkpt lat="44.4645" lon="6.54295">
        <ele>2040</ele>
        <time>2021-02-21T05:37:58Z</time>
      </trkpt>
      <trkpt lat="44.46449" lon="6.54295">
        <ele>2041</ele>
        <time>2021-02-21T05:37:59Z</time>
      </trkpt>
      <trkpt lat="44.46449" lon="6.54295">
        <ele>2041</ele>
        <time>2021-02-21T05:38:00Z</time>
      </trkpt>
      <trkpt lat="44.46448" lon="6.54295">
        <ele>2041</ele>
        <time>2021-02-21T05:38:01Z</time>
      </trkpt>
      <trkpt lat="44.46447" lon="6.54295">
        <ele>2041</ele>
        <time>2021-02-21T05:38:02Z</time>
      </trkpt>
      <trkpt lat="44.46446" lon="6.54295">
        <ele>2042</ele>
        <time>2021-02-21T05:38:03Z</time>
      </trkpt>
      <trkpt lat="44.46444" lon="6.54294">
        <ele>2042</ele>
        <time>2021-02-21T05:38:04Z</time>
      </trkpt>
      <trkpt lat="44.46443" lon="6.54294">
        <ele>2042</ele>
        <time>2021-02-21T05:38:05Z</time>
      </trkpt>
      <trkpt lat="44.46442" lon="6.54293">
        <ele>2042</ele>
        <time>2021-02-21T05:38:06Z</time>
      </trkpt>
      <trkpt lat="44.46441" lon="6.54292">
        <ele>2042</ele>
        <time>2021-02-21T05:38:07Z</time>
      </trkpt>
      <trkpt lat="44.4644" lon="6.54291">
        <ele>2042</ele>
        <time>2021-02-21T05:38:08Z</time>
      </trkpt>
      <trkpt lat="44.46439" lon="6.5429">
        <ele>2042</ele>
        <time>2021-02-21T05:38:09Z</time>
      </trkpt>
      <trkpt lat="44.46438" lon="6.5429">
        <ele>2042</ele>
        <time>2021-02-21T05:38:10Z</time>
      </trkpt>
      <trkpt lat="44.46437" lon="6.54289">
        <ele>2042</ele>
        <time>2021-02-21T05:38:11Z</time>
      </trkpt>
      <trkpt lat="44.46436" lon="6.54289">
        <ele>2042</ele>
        <time>2021-02-21T05:38:12Z</time>
      </trkpt>
      <trkpt lat="44.46435" lon="6.54289">
        <ele>2043</ele>
        <time>2021-02-21T05:38:13Z</time>
      </trkpt>
      <trkpt lat="44.46435" lon="6.54288">
        <ele>2043</ele>
        <time>2021-02-21T05:38:14Z</time>
      </trkpt>
      <trkpt lat="44.46434" lon="6.54288">
        <ele>2043</ele>
        <time>2021-02-21T05:38:15Z</time>
      </trkpt>
      <trkpt lat="44.46433" lon="6.54288">
        <ele>2043</ele>
        <time>2021-02-21T05:38:16Z</time>
      </trkpt>
      <trkpt lat="44.46432" lon="6.54288">
        <ele>2043</ele>
        <time>2021-02-21T05:38:17Z</time>
      </trkpt>
      <trkpt lat="44.46431" lon="6.54287">
        <ele>2043</ele>
        <time>2021-02-21T05:38:18Z</time>
      </trkpt>
      <trkpt lat="44.4643" lon="6.54287">
        <ele>2043</ele>
        <time>2021-02-21T05:38:19Z</time>
      </trkpt>
      <trkpt lat="44.4643" lon="6.54287">
        <ele>2043</ele>
        <time>2021-02-21T05:38:20Z</time>
      </trkpt>
      <trkpt lat="44.46429" lon="6.54287">
        <ele>2043</ele>
        <time>2021-02-21T05:38:21Z</time>
      </trkpt>
      <trkpt lat="44.46428" lon="6.54286">
        <ele>2043</ele>
        <time>2021-02-21T05:38:22Z</time>
      </trkpt>
      <trkpt lat="44.46428" lon="6.54286">
        <ele>2044</ele>
        <time>2021-02-21T05:38:23Z</time>
      </trkpt>
      <trkpt lat="44.46427" lon="6.54286">
        <ele>2044</ele>
        <time>2021-02-21T05:38:24Z</time>
      </trkpt>
      <trkpt lat="44.46427" lon="6.54285">
        <ele>2044</ele>
        <time>2021-02-21T05:38:25Z</time>
      </trkpt>
      <trkpt lat="44.46426" lon="6.54285">
        <ele>2044</ele>
        <time>2021-02-21T05:38:26Z</time>
      </trkpt>
      <trkpt lat="44.46426" lon="6.54285">
        <ele>2044</ele>
        <time>2021-02-21T05:38:27Z</time>
      </trkpt>
      <trkpt lat="44.46425" lon="6.54285">
        <ele>2044</ele>
        <time>2021-02-21T05:38:28Z</time>
      </trkpt>
      <trkpt lat="44.46424" lon="6.54285">
        <ele>2044</ele>
        <time>2021-02-21T05:38:29Z</time>
      </trkpt>
      <trkpt lat="44.46423" lon="6.54284">
        <ele>2044</ele>
        <time>2021-02-21T05:38:30Z</time>
      </trkpt>
      <trkpt lat="44.46422" lon="6.54284">
        <ele>2044</ele>
        <time>2021-02-21T05:38:31Z</time>
      </trkpt>
      <trkpt lat="44.46422" lon="6.54284">
        <ele>2045</ele>
        <time>2021-02-21T05:38:32Z</time>
      </trkpt>
      <trkpt lat="44.46421" lon="6.54284">
        <ele>2045</ele>
        <time>2021-02-21T05:38:33Z</time>
      </trkpt>
      <trkpt lat="44.4642" lon="6.54284">
        <ele>2045</ele>
        <time>2021-02-21T05:38:34Z</time>
      </trkpt>
      <trkpt lat="44.46419" lon="6.54283">
        <ele>2046</ele>
        <time>2021-02-21T05:38:35Z</time>
      </trkpt>
      <trkpt lat="44.46418" lon="6.54283">
        <ele>2046</ele>
        <time>2021-02-21T05:38:36Z</time>
      </trkpt>
      <trkpt lat="44.46417" lon="6.54283">
        <ele>2046</ele>
        <time>2021-02-21T05:38:37Z</time>
      </trkpt>
      <trkpt lat="44.46417" lon="6.54282">
        <ele>2047</ele>
        <time>2021-02-21T05:38:38Z</time>
      </trkpt>
      <trkpt lat="44.46415" lon="6.54282">
        <ele>2047</ele>
        <time>2021-02-21T05:38:39Z</time>
      </trkpt>
      <trkpt lat="44.46414" lon="6.54282">
        <ele>2047</ele>
        <time>2021-02-21T05:38:40Z</time>
      </trkpt>
      <trkpt lat="44.46414" lon="6.54281">
        <ele>2048</ele>
        <time>2021-02-21T05:38:41Z</time>
      </trkpt>
      <trkpt lat="44.46414" lon="6.54281">
        <ele>2048</ele>
        <time>2021-02-21T05:38:42Z</time>
      </trkpt>
      <trkpt lat="44.46413" lon="6.5428">
        <ele>2048</ele>
        <time>2021-02-21T05:38:43Z</time>
      </trkpt>
      <trkpt lat="44.46412" lon="6.5428">
        <ele>2048</ele>
        <time>2021-02-21T05:38:44Z</time>
      </trkpt>
      <trkpt lat="44.46412" lon="6.5428">
        <ele>2048</ele>
        <time>2021-02-21T05:38:45Z</time>
      </trkpt>
      <trkpt lat="44.46411" lon="6.54279">
        <ele>2047</ele>
        <time>2021-02-21T05:38:46Z</time>
      </trkpt>
      <trkpt lat="44.4641" lon="6.54279">
        <ele>2047</ele>
        <time>2021-02-21T05:38:47Z</time>
      </trkpt>
      <trkpt lat="44.4641" lon="6.54279">
        <ele>2047</ele>
        <time>2021-02-21T05:38:48Z</time>
      </trkpt>
      <trkpt lat="44.46408" lon="6.54278">
        <ele>2046</ele>
        <time>2021-02-21T05:38:49Z</time>
      </trkpt>
      <trkpt lat="44.46407" lon="6.54278">
        <ele>2046</ele>
        <time>2021-02-21T05:38:50Z</time>
      </trkpt>
      <trkpt lat="44.46406" lon="6.54277">
        <ele>2045</ele>
        <time>2021-02-21T05:38:51Z</time>
      </trkpt>
      <trkpt lat="44.46405" lon="6.54278">
        <ele>2045</ele>
        <time>2021-02-21T05:38:52Z</time>
      </trkpt>
      <trkpt lat="44.46404" lon="6.54278">
        <ele>2045</ele>
        <time>2021-02-21T05:38:53Z</time>
      </trkpt>
      <trkpt lat="44.46403" lon="6.54278">
        <ele>2044</ele>
        <time>2021-02-21T05:38:54Z</time>
      </trkpt>
      <trkpt lat="44.46402" lon="6.54278">
        <ele>2044</ele>
        <time>2021-02-21T05:38:55Z</time>
      </trkpt>
      <trkpt lat="44.46401" lon="6.54278">
        <ele>2044</ele>
        <time>2021-02-21T05:38:56Z</time>
      </trkpt>
      <trkpt lat="44.46401" lon="6.54278">
        <ele>2044</ele>
        <time>2021-02-21T05:38:57Z</time>
      </trkpt>
      <trkpt lat="44.46401" lon="6.54278">
        <ele>2044</ele>
        <time>2021-02-21T05:38:58Z</time>
      </trkpt>
      <trkpt lat="44.464" lon="6.54278">
        <ele>2044</ele>
        <time>2021-02-21T05:38:59Z</time>
      </trkpt>
      <trkpt lat="44.46399" lon="6.54277">
        <ele>2044</ele>
        <time>2021-02-21T05:39:00Z</time>
      </trkpt>
      <trkpt lat="44.46398" lon="6.54277">
        <ele>2044</ele>
        <time>2021-02-21T05:39:01Z</time>
      </trkpt>
      <trkpt lat="44.46398" lon="6.54277">
        <ele>2043</ele>
        <time>2021-02-21T05:39:02Z</time>
      </trkpt>
      <trkpt lat="44.46397" lon="6.54277">
        <ele>2043</ele>
        <time>2021-02-21T05:39:03Z</time>
      </trkpt>
      <trkpt lat="44.46396" lon="6.54277">
        <ele>2043</ele>
        <time>2021-02-21T05:39:04Z</time>
      </trkpt>
      <trkpt lat="44.46395" lon="6.54276">
        <ele>2043</ele>
        <time>2021-02-21T05:39:05Z</time>
      </trkpt>
      <trkpt lat="44.46394" lon="6.54276">
        <ele>2043</ele>
        <time>2021-02-21T05:39:06Z</time>
      </trkpt>
      <trkpt lat="44.46393" lon="6.54276">
        <ele>2042</ele>
        <time>2021-02-21T05:39:07Z</time>
      </trkpt>
      <trkpt lat="44.46393" lon="6.54276">
        <ele>2042</ele>
        <time>2021-02-21T05:39:08Z</time>
      </trkpt>
      <trkpt lat="44.46392" lon="6.54276">
        <ele>2042</ele>
        <time>2021-02-21T05:39:09Z</time>
      </trkpt>
      <trkpt lat="44.46391" lon="6.54275">
        <ele>2042</ele>
        <time>2021-02-21T05:39:10Z</time>
      </trkpt>
      <trkpt lat="44.46391" lon="6.54275">
        <ele>2042</ele>
        <time>2021-02-21T05:39:11Z</time>
      </trkpt>
      <trkpt lat="44.4639" lon="6.54275">
        <ele>2042</ele>
        <time>2021-02-21T05:39:12Z</time>
      </trkpt>
      <trkpt lat="44.46389" lon="6.54275">
        <ele>2042</ele>
        <time>2021-02-21T05:39:13Z</time>
      </trkpt>
      <trkpt lat="44.46389" lon="6.54274">
        <ele>2042</ele>
        <time>2021-02-21T05:39:14Z</time>
      </trkpt>
      <trkpt lat="44.46388" lon="6.54274">
        <ele>2043</ele>
        <time>2021-02-21T05:39:15Z</time>
      </trkpt>
      <trkpt lat="44.46387" lon="6.54273">
        <ele>2043</ele>
        <time>2021-02-21T05:39:16Z</time>
      </trkpt>
      <trkpt lat="44.46386" lon="6.54272">
        <ele>2043</ele>
        <time>2021-02-21T05:39:17Z</time>
      </trkpt>
      <trkpt lat="44.46386" lon="6.54272">
        <ele>2043</ele>
        <time>2021-02-21T05:39:18Z</time>
      </trkpt>
      <trkpt lat="44.46385" lon="6.54271">
        <ele>2043</ele>
        <time>2021-02-21T05:39:19Z</time>
      </trkpt>
      <trkpt lat="44.46384" lon="6.54271">
        <ele>2043</ele>
        <time>2021-02-21T05:39:20Z</time>
      </trkpt>
      <trkpt lat="44.46383" lon="6.5427">
        <ele>2043</ele>
        <time>2021-02-21T05:39:21Z</time>
      </trkpt>
      <trkpt lat="44.46382" lon="6.54269">
        <ele>2043</ele>
        <time>2021-02-21T05:39:22Z</time>
      </trkpt>
      <trkpt lat="44.46381" lon="6.54268">
        <ele>2044</ele>
        <time>2021-02-21T05:39:23Z</time>
      </trkpt>
      <trkpt lat="44.46381" lon="6.54267">
        <ele>2044</ele>
        <time>2021-02-21T05:39:24Z</time>
      </trkpt>
      <trkpt lat="44.46379" lon="6.54267">
        <ele>2044</ele>
        <time>2021-02-21T05:39:25Z</time>
      </trkpt>
      <trkpt lat="44.46379" lon="6.54266">
        <ele>2044</ele>
        <time>2021-02-21T05:39:26Z</time>
      </trkpt>
      <trkpt lat="44.46378" lon="6.54266">
        <ele>2044</ele>
        <time>2021-02-21T05:39:27Z</time>
      </trkpt>
      <trkpt lat="44.46377" lon="6.54266">
        <ele>2044</ele>
        <time>2021-02-21T05:39:28Z</time>
      </trkpt>
      <trkpt lat="44.46377" lon="6.54265">
        <ele>2045</ele>
        <time>2021-02-21T05:39:29Z</time>
      </trkpt>
      <trkpt lat="44.46376" lon="6.54264">
        <ele>2045</ele>
        <time>2021-02-21T05:39:30Z</time>
      </trkpt>
      <trkpt lat="44.46375" lon="6.54263">
        <ele>2045</ele>
        <time>2021-02-21T05:39:31Z</time>
      </trkpt>
      <trkpt lat="44.46374" lon="6.54262">
        <ele>2045</ele>
        <time>2021-02-21T05:39:32Z</time>
      </trkpt>
      <trkpt lat="44.46374" lon="6.54261">
        <ele>2045</ele>
        <time>2021-02-21T05:39:33Z</time>
      </trkpt>
      <trkpt lat="44.46373" lon="6.5426">
        <ele>2045</ele>
        <time>2021-02-21T05:39:34Z</time>
      </trkpt>
      <trkpt lat="44.46372" lon="6.54259">
        <ele>2045</ele>
        <time>2021-02-21T05:39:35Z</time>
      </trkpt>
      <trkpt lat="44.46371" lon="6.54257">
        <ele>2045</ele>
        <time>2021-02-21T05:39:36Z</time>
      </trkpt>
      <trkpt lat="44.4637" lon="6.54256">
        <ele>2045</ele>
        <time>2021-02-21T05:39:37Z</time>
      </trkpt>
      <trkpt lat="44.46369" lon="6.54256">
        <ele>2045</ele>
        <time>2021-02-21T05:39:38Z</time>
      </trkpt>
      <trkpt lat="44.46369" lon="6.54255">
        <ele>2045</ele>
        <time>2021-02-21T05:39:39Z</time>
      </trkpt>
      <trkpt lat="44.46368" lon="6.54254">
        <ele>2045</ele>
        <time>2021-02-21T05:39:40Z</time>
      </trkpt>
      <trkpt lat="44.46368" lon="6.54253">
        <ele>2045</ele>
        <time>2021-02-21T05:39:41Z</time>
      </trkpt>
      <trkpt lat="44.46367" lon="6.54251">
        <ele>2045</ele>
        <time>2021-02-21T05:39:42Z</time>
      </trkpt>
      <trkpt lat="44.46367" lon="6.5425">
        <ele>2046</ele>
        <time>2021-02-21T05:39:43Z</time>
      </trkpt>
      <trkpt lat="44.46367" lon="6.54249">
        <ele>2046</ele>
        <time>2021-02-21T05:39:44Z</time>
      </trkpt>
      <trkpt lat="44.46366" lon="6.54247">
        <ele>2046</ele>
        <time>2021-02-21T05:39:45Z</time>
      </trkpt>
      <trkpt lat="44.46365" lon="6.54246">
        <ele>2046</ele>
        <time>2021-02-21T05:39:46Z</time>
      </trkpt>
      <trkpt lat="44.46364" lon="6.54245">
        <ele>2046</ele>
        <time>2021-02-21T05:39:47Z</time>
      </trkpt>
      <trkpt lat="44.46363" lon="6.54244">
        <ele>2046</ele>
        <time>2021-02-21T05:39:48Z</time>
      </trkpt>
      <trkpt lat="44.46363" lon="6.54243">
        <ele>2046</ele>
        <time>2021-02-21T05:39:49Z</time>
      </trkpt>
      <trkpt lat="44.46362" lon="6.54243">
        <ele>2047</ele>
        <time>2021-02-21T05:39:50Z</time>
      </trkpt>
      <trkpt lat="44.46362" lon="6.54242">
        <ele>2047</ele>
        <time>2021-02-21T05:39:51Z</time>
      </trkpt>
      <trkpt lat="44.46362" lon="6.54242">
        <ele>2047</ele>
        <time>2021-02-21T05:39:52Z</time>
      </trkpt>
      <trkpt lat="44.46362" lon="6.54242">
        <ele>2047</ele>
        <time>2021-02-21T05:39:53Z</time>
      </trkpt>
      <trkpt lat="44.46361" lon="6.54242">
        <ele>2047</ele>
        <time>2021-02-21T05:39:54Z</time>
      </trkpt>
      <trkpt lat="44.46361" lon="6.54242">
        <ele>2047</ele>
        <time>2021-02-21T05:39:55Z</time>
      </trkpt>
      <trkpt lat="44.4636" lon="6.54242">
        <ele>2047</ele>
        <time>2021-02-21T05:39:56Z</time>
      </trkpt>
      <trkpt lat="44.4636" lon="6.54242">
        <ele>2047</ele>
        <time>2021-02-21T05:39:57Z</time>
      </trkpt>
      <trkpt lat="44.4636" lon="6.54242">
        <ele>2047</ele>
        <time>2021-02-21T05:39:58Z</time>
      </trkpt>
      <trkpt lat="44.4636" lon="6.54242">
        <ele>2048</ele>
        <time>2021-02-21T05:39:59Z</time>
      </trkpt>
      <trkpt lat="44.46359" lon="6.54241">
        <ele>2048</ele>
        <time>2021-02-21T05:40:00Z</time>
      </trkpt>
      <trkpt lat="44.46359" lon="6.54241">
        <ele>2048</ele>
        <time>2021-02-21T05:40:01Z</time>
      </trkpt>
      <trkpt lat="44.46359" lon="6.54241">
        <ele>2048</ele>
        <time>2021-02-21T05:40:02Z</time>
      </trkpt>
      <trkpt lat="44.46359" lon="6.54241">
        <ele>2048</ele>
        <time>2021-02-21T05:40:03Z</time>
      </trkpt>
      <trkpt lat="44.46359" lon="6.54241">
        <ele>2048</ele>
        <time>2021-02-21T05:40:04Z</time>
      </trkpt>
      <trkpt lat="44.46359" lon="6.54241">
        <ele>2048</ele>
        <time>2021-02-21T05:40:05Z</time>
      </trkpt>
      <trkpt lat="44.46359" lon="6.54241">
        <ele>2048</ele>
        <time>2021-02-21T05:40:06Z</time>
      </trkpt>
      <trkpt lat="44.46359" lon="6.54241">
        <ele>2048</ele>
        <time>2021-02-21T05:40:07Z</time>
      </trkpt>
      <trkpt lat="44.46359" lon="6.54241">
        <ele>2048</ele>
        <time>2021-02-21T05:40:08Z</time>
      </trkpt>
      <trkpt lat="44.46359" lon="6.54241">
        <ele>2048</ele>
        <time>2021-02-21T05:40:09Z</time>
      </trkpt>
      <trkpt lat="44.46359" lon="6.54241">
        <ele>2048</ele>
        <time>2021-02-21T05:40:10Z</time>
      </trkpt>
      <trkpt lat="44.46358" lon="6.54242">
        <ele>2048</ele>
        <time>2021-02-21T05:40:11Z</time>
      </trkpt>
      <trkpt lat="44.46358" lon="6.54242">
        <ele>2048</ele>
        <time>2021-02-21T05:40:12Z</time>
      </trkpt>
      <trkpt lat="44.46357" lon="6.54243">
        <ele>2048</ele>
        <time>2021-02-21T05:40:13Z</time>
      </trkpt>
      <trkpt lat="44.46357" lon="6.54244">
        <ele>2048</ele>
        <time>2021-02-21T05:40:14Z</time>
      </trkpt>
      <trkpt lat="44.46356" lon="6.54245">
        <ele>2048</ele>
        <time>2021-02-21T05:40:15Z</time>
      </trkpt>
      <trkpt lat="44.46356" lon="6.54245">
        <ele>2048</ele>
        <time>2021-02-21T05:40:16Z</time>
      </trkpt>
      <trkpt lat="44.46356" lon="6.54245">
        <ele>2048</ele>
        <time>2021-02-21T05:40:17Z</time>
      </trkpt>
      <trkpt lat="44.46355" lon="6.54245">
        <ele>2048</ele>
        <time>2021-02-21T05:40:18Z</time>
      </trkpt>
      <trkpt lat="44.46354" lon="6.54245">
        <ele>2048</ele>
        <time>2021-02-21T05:40:19Z</time>
      </trkpt>
      <trkpt lat="44.46354" lon="6.54245">
        <ele>2048</ele>
        <time>2021-02-21T05:40:20Z</time>
      </trkpt>
      <trkpt lat="44.46353" lon="6.54245">
        <ele>2049</ele>
        <time>2021-02-21T05:40:21Z</time>
      </trkpt>
      <trkpt lat="44.46352" lon="6.54245">
        <ele>2049</ele>
        <time>2021-02-21T05:40:22Z</time>
      </trkpt>
      <trkpt lat="44.46352" lon="6.54245">
        <ele>2049</ele>
        <time>2021-02-21T05:40:23Z</time>
      </trkpt>
      <trkpt lat="44.46351" lon="6.54245">
        <ele>2049</ele>
        <time>2021-02-21T05:40:24Z</time>
      </trkpt>
      <trkpt lat="44.4635" lon="6.54245">
        <ele>2049</ele>
        <time>2021-02-21T05:40:25Z</time>
      </trkpt>
      <trkpt lat="44.46349" lon="6.54245">
        <ele>2050</ele>
        <time>2021-02-21T05:40:26Z</time>
      </trkpt>
      <trkpt lat="44.46348" lon="6.54245">
        <ele>2050</ele>
        <time>2021-02-21T05:40:27Z</time>
      </trkpt>
      <trkpt lat="44.46347" lon="6.54245">
        <ele>2050</ele>
        <time>2021-02-21T05:40:28Z</time>
      </trkpt>
      <trkpt lat="44.46346" lon="6.54245">
        <ele>2050</ele>
        <time>2021-02-21T05:40:29Z</time>
      </trkpt>
      <trkpt lat="44.46345" lon="6.54245">
        <ele>2050</ele>
        <time>2021-02-21T05:40:30Z</time>
      </trkpt>
      <trkpt lat="44.46345" lon="6.54244">
        <ele>2050</ele>
        <time>2021-02-21T05:40:31Z</time>
      </trkpt>
      <trkpt lat="44.46344" lon="6.54244">
        <ele>2051</ele>
        <time>2021-02-21T05:40:32Z</time>
      </trkpt>
      <trkpt lat="44.46343" lon="6.54244">
        <ele>2051</ele>
        <time>2021-02-21T05:40:33Z</time>
      </trkpt>
      <trkpt lat="44.46343" lon="6.54243">
        <ele>2051</ele>
        <time>2021-02-21T05:40:34Z</time>
      </trkpt>
      <trkpt lat="44.46342" lon="6.54243">
        <ele>2051</ele>
        <time>2021-02-21T05:40:35Z</time>
      </trkpt>
      <trkpt lat="44.46341" lon="6.54242">
        <ele>2051</ele>
        <time>2021-02-21T05:40:36Z</time>
      </trkpt>
      <trkpt lat="44.46341" lon="6.54241">
        <ele>2052</ele>
        <time>2021-02-21T05:40:37Z</time>
      </trkpt>
      <trkpt lat="44.4634" lon="6.5424">
        <ele>2052</ele>
        <time>2021-02-21T05:40:38Z</time>
      </trkpt>
      <trkpt lat="44.4634" lon="6.54239">
        <ele>2052</ele>
        <time>2021-02-21T05:40:39Z</time>
      </trkpt>
      <trkpt lat="44.46339" lon="6.54239">
        <ele>2052</ele>
        <time>2021-02-21T05:40:40Z</time>
      </trkpt>
      <trkpt lat="44.46339" lon="6.54239">
        <ele>2052</ele>
        <time>2021-02-21T05:40:41Z</time>
      </trkpt>
      <trkpt lat="44.46339" lon="6.54239">
        <ele>2052</ele>
        <time>2021-02-21T05:40:42Z</time>
      </trkpt>
      <trkpt lat="44.46339" lon="6.54239">
        <ele>2052</ele>
        <time>2021-02-21T05:40:43Z</time>
      </trkpt>
      <trkpt lat="44.46339" lon="6.54239">
        <ele>2052</ele>
        <time>2021-02-21T05:40:44Z</time>
      </trkpt>
      <trkpt lat="44.46339" lon="6.54239">
        <ele>2052</ele>
        <time>2021-02-21T05:40:45Z</time>
      </trkpt>
      <trkpt lat="44.46339" lon="6.54239">
        <ele>2052</ele>
        <time>2021-02-21T05:40:46Z</time>
      </trkpt>
      <trkpt lat="44.46339" lon="6.54239">
        <ele>2052</ele>
        <time>2021-02-21T05:40:47Z</time>
      </trkpt>
      <trkpt lat="44.46339" lon="6.54239">
        <ele>2052</ele>
        <time>2021-02-21T05:40:48Z</time>
      </trkpt>
      <trkpt lat="44.46339" lon="6.54239">
        <ele>2052</ele>
        <time>2021-02-21T05:40:49Z</time>
      </trkpt>
      <trkpt lat="44.46341" lon="6.54239">
        <ele>2052</ele>
        <time>2021-02-21T05:40:50Z</time>
      </trkpt>
      <trkpt lat="44.46341" lon="6.54239">
        <ele>2052</ele>
        <time>2021-02-21T05:40:51Z</time>
      </trkpt>
      <trkpt lat="44.46341" lon="6.54239">
        <ele>2052</ele>
        <time>2021-02-21T05:40:52Z</time>
      </trkpt>
      <trkpt lat="44.46342" lon="6.5424">
        <ele>2052</ele>
        <time>2021-02-21T05:40:53Z</time>
      </trkpt>
      <trkpt lat="44.46342" lon="6.54241">
        <ele>2053</ele>
        <time>2021-02-21T05:40:54Z</time>
      </trkpt>
      <trkpt lat="44.46343" lon="6.54241">
        <ele>2053</ele>
        <time>2021-02-21T05:40:55Z</time>
      </trkpt>
      <trkpt lat="44.46343" lon="6.54242">
        <ele>2053</ele>
        <time>2021-02-21T05:40:56Z</time>
      </trkpt>
      <trkpt lat="44.46344" lon="6.54242">
        <ele>2053</ele>
        <time>2021-02-21T05:40:57Z</time>
      </trkpt>
      <trkpt lat="44.46345" lon="6.54242">
        <ele>2053</ele>
        <time>2021-02-21T05:40:58Z</time>
      </trkpt>
      <trkpt lat="44.46346" lon="6.54242">
        <ele>2053</ele>
        <time>2021-02-21T05:40:59Z</time>
      </trkpt>
      <trkpt lat="44.46348" lon="6.54241">
        <ele>2052</ele>
        <time>2021-02-21T05:41:00Z</time>
      </trkpt>
      <trkpt lat="44.4635" lon="6.54241">
        <ele>2052</ele>
        <time>2021-02-21T05:41:01Z</time>
      </trkpt>
      <trkpt lat="44.46352" lon="6.5424">
        <ele>2052</ele>
        <time>2021-02-21T05:41:02Z</time>
      </trkpt>
      <trkpt lat="44.46354" lon="6.5424">
        <ele>2052</ele>
        <time>2021-02-21T05:41:03Z</time>
      </trkpt>
      <trkpt lat="44.46355" lon="6.54239">
        <ele>2052</ele>
        <time>2021-02-21T05:41:04Z</time>
      </trkpt>
      <trkpt lat="44.46356" lon="6.54238">
        <ele>2052</ele>
        <time>2021-02-21T05:41:05Z</time>
      </trkpt>
      <trkpt lat="44.46358" lon="6.54238">
        <ele>2052</ele>
        <time>2021-02-21T05:41:06Z</time>
      </trkpt>
      <trkpt lat="44.4636" lon="6.54238">
        <ele>2051</ele>
        <time>2021-02-21T05:41:07Z</time>
      </trkpt>
      <trkpt lat="44.46361" lon="6.54238">
        <ele>2051</ele>
        <time>2021-02-21T05:41:08Z</time>
      </trkpt>
      <trkpt lat="44.46362" lon="6.54238">
        <ele>2051</ele>
        <time>2021-02-21T05:41:09Z</time>
      </trkpt>
      <trkpt lat="44.46363" lon="6.54238">
        <ele>2051</ele>
        <time>2021-02-21T05:41:10Z</time>
      </trkpt>
      <trkpt lat="44.46364" lon="6.54238">
        <ele>2051</ele>
        <time>2021-02-21T05:41:11Z</time>
      </trkpt>
      <trkpt lat="44.46365" lon="6.54238">
        <ele>2051</ele>
        <time>2021-02-21T05:41:12Z</time>
      </trkpt>
      <trkpt lat="44.46366" lon="6.54238">
        <ele>2050</ele>
        <time>2021-02-21T05:41:13Z</time>
      </trkpt>
      <trkpt lat="44.46366" lon="6.54238">
        <ele>2050</ele>
        <time>2021-02-21T05:41:14Z</time>
      </trkpt>
      <trkpt lat="44.46367" lon="6.54238">
        <ele>2050</ele>
        <time>2021-02-21T05:41:15Z</time>
      </trkpt>
      <trkpt lat="44.46368" lon="6.54238">
        <ele>2051</ele>
        <time>2021-02-21T05:41:16Z</time>
      </trkpt>
      <trkpt lat="44.46368" lon="6.54239">
        <ele>2051</ele>
        <time>2021-02-21T05:41:17Z</time>
      </trkpt>
      <trkpt lat="44.46369" lon="6.54239">
        <ele>2051</ele>
        <time>2021-02-21T05:41:18Z</time>
      </trkpt>
      <trkpt lat="44.4637" lon="6.54239">
        <ele>2051</ele>
        <time>2021-02-21T05:41:19Z</time>
      </trkpt>
      <trkpt lat="44.46371" lon="6.54239">
        <ele>2051</ele>
        <time>2021-02-21T05:41:20Z</time>
      </trkpt>
      <trkpt lat="44.46372" lon="6.54239">
        <ele>2051</ele>
        <time>2021-02-21T05:41:21Z</time>
      </trkpt>
      <trkpt lat="44.46372" lon="6.54239">
        <ele>2051</ele>
        <time>2021-02-21T05:41:22Z</time>
      </trkpt>
      <trkpt lat="44.46373" lon="6.54239">
        <ele>2051</ele>
        <time>2021-02-21T05:41:23Z</time>
      </trkpt>
      <trkpt lat="44.46373" lon="6.54239">
        <ele>2051</ele>
        <time>2021-02-21T05:41:24Z</time>
      </trkpt>
      <trkpt lat="44.46373" lon="6.54239">
        <ele>2051</ele>
        <time>2021-02-21T05:41:25Z</time>
      </trkpt>
      <trkpt lat="44.46374" lon="6.54238">
        <ele>2051</ele>
        <time>2021-02-21T05:41:26Z</time>
      </trkpt>
      <trkpt lat="44.46374" lon="6.54238">
        <ele>2051</ele>
        <time>2021-02-21T05:41:27Z</time>
      </trkpt>
      <trkpt lat="44.46375" lon="6.54238">
        <ele>2051</ele>
        <time>2021-02-21T05:41:28Z</time>
      </trkpt>
      <trkpt lat="44.46376" lon="6.54238">
        <ele>2051</ele>
        <time>2021-02-21T05:41:29Z</time>
      </trkpt>
      <trkpt lat="44.46377" lon="6.54238">
        <ele>2051</ele>
        <time>2021-02-21T05:41:30Z</time>
      </trkpt>
      <trkpt lat="44.46378" lon="6.54238">
        <ele>2051</ele>
        <time>2021-02-21T05:41:31Z</time>
      </trkpt>
      <trkpt lat="44.46379" lon="6.54237">
        <ele>2052</ele>
        <time>2021-02-21T05:41:32Z</time>
      </trkpt>
      <trkpt lat="44.4638" lon="6.54237">
        <ele>2052</ele>
        <time>2021-02-21T05:41:33Z</time>
      </trkpt>
      <trkpt lat="44.46381" lon="6.54236">
        <ele>2052</ele>
        <time>2021-02-21T05:41:34Z</time>
      </trkpt>
      <trkpt lat="44.46381" lon="6.54236">
        <ele>2052</ele>
        <time>2021-02-21T05:41:35Z</time>
      </trkpt>
      <trkpt lat="44.46382" lon="6.54236">
        <ele>2052</ele>
        <time>2021-02-21T05:41:36Z</time>
      </trkpt>
      <trkpt lat="44.46383" lon="6.54235">
        <ele>2053</ele>
        <time>2021-02-21T05:41:37Z</time>
      </trkpt>
      <trkpt lat="44.46384" lon="6.54234">
        <ele>2053</ele>
        <time>2021-02-21T05:41:38Z</time>
      </trkpt>
      <trkpt lat="44.46385" lon="6.54233">
        <ele>2053</ele>
        <time>2021-02-21T05:41:39Z</time>
      </trkpt>
      <trkpt lat="44.46385" lon="6.54233">
        <ele>2053</ele>
        <time>2021-02-21T05:41:40Z</time>
      </trkpt>
      <trkpt lat="44.46386" lon="6.54233">
        <ele>2054</ele>
        <time>2021-02-21T05:41:41Z</time>
      </trkpt>
      <trkpt lat="44.46387" lon="6.54233">
        <ele>2054</ele>
        <time>2021-02-21T05:41:42Z</time>
      </trkpt>
      <trkpt lat="44.46387" lon="6.54232">
        <ele>2054</ele>
        <time>2021-02-21T05:41:43Z</time>
      </trkpt>
      <trkpt lat="44.46388" lon="6.54232">
        <ele>2055</ele>
        <time>2021-02-21T05:41:44Z</time>
      </trkpt>
      <trkpt lat="44.46388" lon="6.54232">
        <ele>2055</ele>
        <time>2021-02-21T05:41:45Z</time>
      </trkpt>
      <trkpt lat="44.46388" lon="6.54232">
        <ele>2055</ele>
        <time>2021-02-21T05:41:46Z</time>
      </trkpt>
      <trkpt lat="44.46389" lon="6.54231">
        <ele>2056</ele>
        <time>2021-02-21T05:41:47Z</time>
      </trkpt>
      <trkpt lat="44.46389" lon="6.54231">
        <ele>2056</ele>
        <time>2021-02-21T05:41:48Z</time>
      </trkpt>
      <trkpt lat="44.46389" lon="6.5423">
        <ele>2056</ele>
        <time>2021-02-21T05:41:49Z</time>
      </trkpt>
      <trkpt lat="44.46389" lon="6.54229">
        <ele>2057</ele>
        <time>2021-02-21T05:41:50Z</time>
      </trkpt>
      <trkpt lat="44.46389" lon="6.54229">
        <ele>2057</ele>
        <time>2021-02-21T05:41:51Z</time>
      </trkpt>
      <trkpt lat="44.46389" lon="6.54228">
        <ele>2057</ele>
        <time>2021-02-21T05:41:52Z</time>
      </trkpt>
      <trkpt lat="44.46388" lon="6.54228">
        <ele>2057</ele>
        <time>2021-02-21T05:41:53Z</time>
      </trkpt>
      <trkpt lat="44.46388" lon="6.54227">
        <ele>2058</ele>
        <time>2021-02-21T05:41:54Z</time>
      </trkpt>
      <trkpt lat="44.46387" lon="6.54227">
        <ele>2058</ele>
        <time>2021-02-21T05:41:55Z</time>
      </trkpt>
      <trkpt lat="44.46387" lon="6.54226">
        <ele>2058</ele>
        <time>2021-02-21T05:41:56Z</time>
      </trkpt>
      <trkpt lat="44.46386" lon="6.54225">
        <ele>2059</ele>
        <time>2021-02-21T05:41:57Z</time>
      </trkpt>
      <trkpt lat="44.46386" lon="6.54224">
        <ele>2059</ele>
        <time>2021-02-21T05:41:58Z</time>
      </trkpt>
      <trkpt lat="44.46386" lon="6.54224">
        <ele>2059</ele>
        <time>2021-02-21T05:41:59Z</time>
      </trkpt>
      <trkpt lat="44.46386" lon="6.54223">
        <ele>2060</ele>
        <time>2021-02-21T05:42:00Z</time>
      </trkpt>
      <trkpt lat="44.46386" lon="6.54223">
        <ele>2060</ele>
        <time>2021-02-21T05:42:01Z</time>
      </trkpt>
      <trkpt lat="44.46386" lon="6.54222">
        <ele>2060</ele>
        <time>2021-02-21T05:42:02Z</time>
      </trkpt>
      <trkpt lat="44.46386" lon="6.54222">
        <ele>2060</ele>
        <time>2021-02-21T05:42:03Z</time>
      </trkpt>
      <trkpt lat="44.46387" lon="6.54221">
        <ele>2060</ele>
        <time>2021-02-21T05:42:04Z</time>
      </trkpt>
      <trkpt lat="44.46388" lon="6.5422">
        <ele>2060</ele>
        <time>2021-02-21T05:42:05Z</time>
      </trkpt>
      <trkpt lat="44.46388" lon="6.5422">
        <ele>2060</ele>
        <time>2021-02-21T05:42:06Z</time>
      </trkpt>
      <trkpt lat="44.46389" lon="6.54219">
        <ele>2060</ele>
        <time>2021-02-21T05:42:07Z</time>
      </trkpt>
      <trkpt lat="44.46389" lon="6.54218">
        <ele>2061</ele>
        <time>2021-02-21T05:42:08Z</time>
      </trkpt>
      <trkpt lat="44.4639" lon="6.54217">
        <ele>2061</ele>
        <time>2021-02-21T05:42:09Z</time>
      </trkpt>
      <trkpt lat="44.4639" lon="6.54217">
        <ele>2061</ele>
        <time>2021-02-21T05:42:10Z</time>
      </trkpt>
      <trkpt lat="44.4639" lon="6.54216">
        <ele>2061</ele>
        <time>2021-02-21T05:42:11Z</time>
      </trkpt>
      <trkpt lat="44.4639" lon="6.54215">
        <ele>2061</ele>
        <time>2021-02-21T05:42:12Z</time>
      </trkpt>
      <trkpt lat="44.46391" lon="6.54214">
        <ele>2062</ele>
        <time>2021-02-21T05:42:13Z</time>
      </trkpt>
      <trkpt lat="44.46391" lon="6.54213">
        <ele>2062</ele>
        <time>2021-02-21T05:42:14Z</time>
      </trkpt>
      <trkpt lat="44.46391" lon="6.54211">
        <ele>2062</ele>
        <time>2021-02-21T05:42:15Z</time>
      </trkpt>
      <trkpt lat="44.46391" lon="6.5421">
        <ele>2062</ele>
        <time>2021-02-21T05:42:16Z</time>
      </trkpt>
      <trkpt lat="44.46391" lon="6.5421">
        <ele>2062</ele>
        <time>2021-02-21T05:42:17Z</time>
      </trkpt>
      <trkpt lat="44.46391" lon="6.54209">
        <ele>2062</ele>
        <time>2021-02-21T05:42:18Z</time>
      </trkpt>
      <trkpt lat="44.46391" lon="6.54208">
        <ele>2062</ele>
        <time>2021-02-21T05:42:19Z</time>
      </trkpt>
      <trkpt lat="44.4639" lon="6.54208">
        <ele>2062</ele>
        <time>2021-02-21T05:42:20Z</time>
      </trkpt>
      <trkpt lat="44.4639" lon="6.54208">
        <ele>2062</ele>
        <time>2021-02-21T05:42:21Z</time>
      </trkpt>
      <trkpt lat="44.4639" lon="6.54208">
        <ele>2062</ele>
        <time>2021-02-21T05:42:22Z</time>
      </trkpt>
      <trkpt lat="44.4639" lon="6.54207">
        <ele>2063</ele>
        <time>2021-02-21T05:42:23Z</time>
      </trkpt>
      <trkpt lat="44.4639" lon="6.54206">
        <ele>2063</ele>
        <time>2021-02-21T05:42:24Z</time>
      </trkpt>
      <trkpt lat="44.4639" lon="6.54205">
        <ele>2063</ele>
        <time>2021-02-21T05:42:25Z</time>
      </trkpt>
      <trkpt lat="44.4639" lon="6.54205">
        <ele>2062</ele>
        <time>2021-02-21T05:42:26Z</time>
      </trkpt>
      <trkpt lat="44.4639" lon="6.54205">
        <ele>2062</ele>
        <time>2021-02-21T05:42:27Z</time>
      </trkpt>
      <trkpt lat="44.4639" lon="6.54204">
        <ele>2062</ele>
        <time>2021-02-21T05:42:28Z</time>
      </trkpt>
      <trkpt lat="44.46391" lon="6.54203">
        <ele>2062</ele>
        <time>2021-02-21T05:42:29Z</time>
      </trkpt>
      <trkpt lat="44.46391" lon="6.54203">
        <ele>2062</ele>
        <time>2021-02-21T05:42:30Z</time>
      </trkpt>
      <trkpt lat="44.46391" lon="6.54202">
        <ele>2062</ele>
        <time>2021-02-21T05:42:31Z</time>
      </trkpt>
      <trkpt lat="44.46392" lon="6.54202">
        <ele>2062</ele>
        <time>2021-02-21T05:42:32Z</time>
      </trkpt>
      <trkpt lat="44.46393" lon="6.54201">
        <ele>2062</ele>
        <time>2021-02-21T05:42:33Z</time>
      </trkpt>
      <trkpt lat="44.46394" lon="6.54201">
        <ele>2063</ele>
        <time>2021-02-21T05:42:34Z</time>
      </trkpt>
      <trkpt lat="44.46394" lon="6.542">
        <ele>2063</ele>
        <time>2021-02-21T05:42:35Z</time>
      </trkpt>
      <trkpt lat="44.46395" lon="6.54199">
        <ele>2063</ele>
        <time>2021-02-21T05:42:36Z</time>
      </trkpt>
      <trkpt lat="44.46396" lon="6.54198">
        <ele>2064</ele>
        <time>2021-02-21T05:42:37Z</time>
      </trkpt>
      <trkpt lat="44.46397" lon="6.54197">
        <ele>2064</ele>
        <time>2021-02-21T05:42:38Z</time>
      </trkpt>
      <trkpt lat="44.46397" lon="6.54196">
        <ele>2064</ele>
        <time>2021-02-21T05:42:39Z</time>
      </trkpt>
      <trkpt lat="44.46397" lon="6.54194">
        <ele>2065</ele>
        <time>2021-02-21T05:42:40Z</time>
      </trkpt>
      <trkpt lat="44.46398" lon="6.54192">
        <ele>2065</ele>
        <time>2021-02-21T05:42:41Z</time>
      </trkpt>
      <trkpt lat="44.46399" lon="6.54191">
        <ele>2065</ele>
        <time>2021-02-21T05:42:42Z</time>
      </trkpt>
      <trkpt lat="44.464" lon="6.5419">
        <ele>2066</ele>
        <time>2021-02-21T05:42:43Z</time>
      </trkpt>
      <trkpt lat="44.464" lon="6.54188">
        <ele>2066</ele>
        <time>2021-02-21T05:42:44Z</time>
      </trkpt>
      <trkpt lat="44.46401" lon="6.54187">
        <ele>2066</ele>
        <time>2021-02-21T05:42:45Z</time>
      </trkpt>
      <trkpt lat="44.46401" lon="6.54186">
        <ele>2067</ele>
        <time>2021-02-21T05:42:46Z</time>
      </trkpt>
      <trkpt lat="44.46402" lon="6.54185">
        <ele>2067</ele>
        <time>2021-02-21T05:42:47Z</time>
      </trkpt>
      <trkpt lat="44.46402" lon="6.54184">
        <ele>2067</ele>
        <time>2021-02-21T05:42:48Z</time>
      </trkpt>
      <trkpt lat="44.46403" lon="6.54183">
        <ele>2067</ele>
        <time>2021-02-21T05:42:49Z</time>
      </trkpt>
      <trkpt lat="44.46403" lon="6.54182">
        <ele>2067</ele>
        <time>2021-02-21T05:42:50Z</time>
      </trkpt>
      <trkpt lat="44.46403" lon="6.54182">
        <ele>2068</ele>
        <time>2021-02-21T05:42:51Z</time>
      </trkpt>
      <trkpt lat="44.46404" lon="6.54181">
        <ele>2068</ele>
        <time>2021-02-21T05:42:52Z</time>
      </trkpt>
      <trkpt lat="44.46404" lon="6.5418">
        <ele>2068</ele>
        <time>2021-02-21T05:42:53Z</time>
      </trkpt>
      <trkpt lat="44.46404" lon="6.5418">
        <ele>2068</ele>
        <time>2021-02-21T05:42:54Z</time>
      </trkpt>
      <trkpt lat="44.46405" lon="6.54179">
        <ele>2068</ele>
        <time>2021-02-21T05:42:55Z</time>
      </trkpt>
      <trkpt lat="44.46405" lon="6.54179">
        <ele>2068</ele>
        <time>2021-02-21T05:42:56Z</time>
      </trkpt>
      <trkpt lat="44.46405" lon="6.54178">
        <ele>2068</ele>
        <time>2021-02-21T05:42:57Z</time>
      </trkpt>
      <trkpt lat="44.46406" lon="6.54177">
        <ele>2068</ele>
        <time>2021-02-21T05:42:58Z</time>
      </trkpt>
      <trkpt lat="44.46405" lon="6.54176">
        <ele>2069</ele>
        <time>2021-02-21T05:42:59Z</time>
      </trkpt>
      <trkpt lat="44.46406" lon="6.54175">
        <ele>2069</ele>
        <time>2021-02-21T05:43:00Z</time>
      </trkpt>
      <trkpt lat="44.46406" lon="6.54174">
        <ele>2069</ele>
        <time>2021-02-21T05:43:01Z</time>
      </trkpt>
      <trkpt lat="44.46407" lon="6.54173">
        <ele>2070</ele>
        <time>2021-02-21T05:43:02Z</time>
      </trkpt>
      <trkpt lat="44.46407" lon="6.54172">
        <ele>2070</ele>
        <time>2021-02-21T05:43:03Z</time>
      </trkpt>
      <trkpt lat="44.46407" lon="6.54171">
        <ele>2070</ele>
        <time>2021-02-21T05:43:04Z</time>
      </trkpt>
      <trkpt lat="44.46408" lon="6.5417">
        <ele>2070</ele>
        <time>2021-02-21T05:43:05Z</time>
      </trkpt>
      <trkpt lat="44.46408" lon="6.54169">
        <ele>2070</ele>
        <time>2021-02-21T05:43:06Z</time>
      </trkpt>
      <trkpt lat="44.46408" lon="6.54168">
        <ele>2070</ele>
        <time>2021-02-21T05:43:07Z</time>
      </trkpt>
      <trkpt lat="44.46408" lon="6.54167">
        <ele>2071</ele>
        <time>2021-02-21T05:43:08Z</time>
      </trkpt>
      <trkpt lat="44.46409" lon="6.54166">
        <ele>2071</ele>
        <time>2021-02-21T05:43:09Z</time>
      </trkpt>
      <trkpt lat="44.46409" lon="6.54165">
        <ele>2071</ele>
        <time>2021-02-21T05:43:10Z</time>
      </trkpt>
      <trkpt lat="44.4641" lon="6.54163">
        <ele>2071</ele>
        <time>2021-02-21T05:43:11Z</time>
      </trkpt>
      <trkpt lat="44.4641" lon="6.54161">
        <ele>2071</ele>
        <time>2021-02-21T05:43:12Z</time>
      </trkpt>
      <trkpt lat="44.46411" lon="6.54159">
        <ele>2071</ele>
        <time>2021-02-21T05:43:13Z</time>
      </trkpt>
      <trkpt lat="44.46411" lon="6.54158">
        <ele>2071</ele>
        <time>2021-02-21T05:43:14Z</time>
      </trkpt>
      <trkpt lat="44.46411" lon="6.54156">
        <ele>2071</ele>
        <time>2021-02-21T05:43:15Z</time>
      </trkpt>
      <trkpt lat="44.46411" lon="6.54155">
        <ele>2072</ele>
        <time>2021-02-21T05:43:16Z</time>
      </trkpt>
      <trkpt lat="44.46412" lon="6.54155">
        <ele>2072</ele>
        <time>2021-02-21T05:43:17Z</time>
      </trkpt>
      <trkpt lat="44.46412" lon="6.54154">
        <ele>2072</ele>
        <time>2021-02-21T05:43:18Z</time>
      </trkpt>
      <trkpt lat="44.46412" lon="6.54154">
        <ele>2072</ele>
        <time>2021-02-21T05:43:19Z</time>
      </trkpt>
      <trkpt lat="44.46412" lon="6.54153">
        <ele>2072</ele>
        <time>2021-02-21T05:43:20Z</time>
      </trkpt>
      <trkpt lat="44.46413" lon="6.54153">
        <ele>2072</ele>
        <time>2021-02-21T05:43:21Z</time>
      </trkpt>
      <trkpt lat="44.46413" lon="6.54153">
        <ele>2072</ele>
        <time>2021-02-21T05:43:22Z</time>
      </trkpt>
      <trkpt lat="44.46414" lon="6.54152">
        <ele>2072</ele>
        <time>2021-02-21T05:43:23Z</time>
      </trkpt>
      <trkpt lat="44.46414" lon="6.54152">
        <ele>2072</ele>
        <time>2021-02-21T05:43:24Z</time>
      </trkpt>
      <trkpt lat="44.46414" lon="6.54151">
        <ele>2072</ele>
        <time>2021-02-21T05:43:25Z</time>
      </trkpt>
      <trkpt lat="44.46415" lon="6.5415">
        <ele>2073</ele>
        <time>2021-02-21T05:43:26Z</time>
      </trkpt>
      <trkpt lat="44.46415" lon="6.54149">
        <ele>2073</ele>
        <time>2021-02-21T05:43:27Z</time>
      </trkpt>
      <trkpt lat="44.46416" lon="6.54148">
        <ele>2073</ele>
        <time>2021-02-21T05:43:28Z</time>
      </trkpt>
      <trkpt lat="44.46416" lon="6.54146">
        <ele>2073</ele>
        <time>2021-02-21T05:43:29Z</time>
      </trkpt>
      <trkpt lat="44.46416" lon="6.54146">
        <ele>2073</ele>
        <time>2021-02-21T05:43:30Z</time>
      </trkpt>
      <trkpt lat="44.46416" lon="6.54144">
        <ele>2073</ele>
        <time>2021-02-21T05:43:31Z</time>
      </trkpt>
      <trkpt lat="44.46416" lon="6.54143">
        <ele>2073</ele>
        <time>2021-02-21T05:43:32Z</time>
      </trkpt>
      <trkpt lat="44.46416" lon="6.54142">
        <ele>2073</ele>
        <time>2021-02-21T05:43:33Z</time>
      </trkpt>
      <trkpt lat="44.46416" lon="6.5414">
        <ele>2074</ele>
        <time>2021-02-21T05:43:34Z</time>
      </trkpt>
      <trkpt lat="44.46416" lon="6.54139">
        <ele>2074</ele>
        <time>2021-02-21T05:43:35Z</time>
      </trkpt>
      <trkpt lat="44.46416" lon="6.54138">
        <ele>2074</ele>
        <time>2021-02-21T05:43:36Z</time>
      </trkpt>
      <trkpt lat="44.46416" lon="6.54137">
        <ele>2074</ele>
        <time>2021-02-21T05:43:37Z</time>
      </trkpt>
      <trkpt lat="44.46416" lon="6.54136">
        <ele>2074</ele>
        <time>2021-02-21T05:43:38Z</time>
      </trkpt>
      <trkpt lat="44.46416" lon="6.54135">
        <ele>2074</ele>
        <time>2021-02-21T05:43:39Z</time>
      </trkpt>
      <trkpt lat="44.46416" lon="6.54134">
        <ele>2074</ele>
        <time>2021-02-21T05:43:40Z</time>
      </trkpt>
      <trkpt lat="44.46416" lon="6.54134">
        <ele>2074</ele>
        <time>2021-02-21T05:43:41Z</time>
      </trkpt>
      <trkpt lat="44.46416" lon="6.54133">
        <ele>2074</ele>
        <time>2021-02-21T05:43:42Z</time>
      </trkpt>
      <trkpt lat="44.46416" lon="6.54132">
        <ele>2074</ele>
        <time>2021-02-21T05:43:43Z</time>
      </trkpt>
      <trkpt lat="44.46417" lon="6.54131">
        <ele>2074</ele>
        <time>2021-02-21T05:43:44Z</time>
      </trkpt>
      <trkpt lat="44.46417" lon="6.5413">
        <ele>2074</ele>
        <time>2021-02-21T05:43:45Z</time>
      </trkpt>
      <trkpt lat="44.46417" lon="6.54129">
        <ele>2074</ele>
        <time>2021-02-21T05:43:46Z</time>
      </trkpt>
      <trkpt lat="44.46417" lon="6.54128">
        <ele>2074</ele>
        <time>2021-02-21T05:43:47Z</time>
      </trkpt>
      <trkpt lat="44.46418" lon="6.54126">
        <ele>2074</ele>
        <time>2021-02-21T05:43:48Z</time>
      </trkpt>
      <trkpt lat="44.46418" lon="6.54124">
        <ele>2074</ele>
        <time>2021-02-21T05:43:49Z</time>
      </trkpt>
      <trkpt lat="44.46418" lon="6.54123">
        <ele>2074</ele>
        <time>2021-02-21T05:43:50Z</time>
      </trkpt>
      <trkpt lat="44.46419" lon="6.54121">
        <ele>2074</ele>
        <time>2021-02-21T05:43:51Z</time>
      </trkpt>
      <trkpt lat="44.46418" lon="6.5412">
        <ele>2074</ele>
        <time>2021-02-21T05:43:52Z</time>
      </trkpt>
      <trkpt lat="44.46418" lon="6.54119">
        <ele>2075</ele>
        <time>2021-02-21T05:43:53Z</time>
      </trkpt>
      <trkpt lat="44.46418" lon="6.54117">
        <ele>2075</ele>
        <time>2021-02-21T05:43:54Z</time>
      </trkpt>
      <trkpt lat="44.46418" lon="6.54115">
        <ele>2075</ele>
        <time>2021-02-21T05:43:55Z</time>
      </trkpt>
      <trkpt lat="44.46419" lon="6.54113">
        <ele>2075</ele>
        <time>2021-02-21T05:43:56Z</time>
      </trkpt>
      <trkpt lat="44.46418" lon="6.54112">
        <ele>2076</ele>
        <time>2021-02-21T05:43:57Z</time>
      </trkpt>
      <trkpt lat="44.46417" lon="6.54111">
        <ele>2076</ele>
        <time>2021-02-21T05:43:58Z</time>
      </trkpt>
      <trkpt lat="44.46417" lon="6.5411">
        <ele>2076</ele>
        <time>2021-02-21T05:43:59Z</time>
      </trkpt>
      <trkpt lat="44.46416" lon="6.5411">
        <ele>2076</ele>
        <time>2021-02-21T05:44:00Z</time>
      </trkpt>
      <trkpt lat="44.46416" lon="6.54109">
        <ele>2076</ele>
        <time>2021-02-21T05:44:01Z</time>
      </trkpt>
      <trkpt lat="44.46416" lon="6.54108">
        <ele>2076</ele>
        <time>2021-02-21T05:44:02Z</time>
      </trkpt>
      <trkpt lat="44.46416" lon="6.54107">
        <ele>2075</ele>
        <time>2021-02-21T05:44:03Z</time>
      </trkpt>
      <trkpt lat="44.46416" lon="6.54106">
        <ele>2075</ele>
        <time>2021-02-21T05:44:04Z</time>
      </trkpt>
      <trkpt lat="44.46416" lon="6.54105">
        <ele>2075</ele>
        <time>2021-02-21T05:44:05Z</time>
      </trkpt>
      <trkpt lat="44.46417" lon="6.54103">
        <ele>2075</ele>
        <time>2021-02-21T05:44:06Z</time>
      </trkpt>
      <trkpt lat="44.46416" lon="6.54101">
        <ele>2075</ele>
        <time>2021-02-21T05:44:07Z</time>
      </trkpt>
      <trkpt lat="44.46417" lon="6.541">
        <ele>2075</ele>
        <time>2021-02-21T05:44:08Z</time>
      </trkpt>
      <trkpt lat="44.46416" lon="6.54099">
        <ele>2074</ele>
        <time>2021-02-21T05:44:09Z</time>
      </trkpt>
      <trkpt lat="44.46416" lon="6.54098">
        <ele>2074</ele>
        <time>2021-02-21T05:44:10Z</time>
      </trkpt>
      <trkpt lat="44.46416" lon="6.54097">
        <ele>2074</ele>
        <time>2021-02-21T05:44:11Z</time>
      </trkpt>
      <trkpt lat="44.46415" lon="6.54095">
        <ele>2074</ele>
        <time>2021-02-21T05:44:12Z</time>
      </trkpt>
      <trkpt lat="44.46415" lon="6.54094">
        <ele>2074</ele>
        <time>2021-02-21T05:44:13Z</time>
      </trkpt>
      <trkpt lat="44.46415" lon="6.54093">
        <ele>2074</ele>
        <time>2021-02-21T05:44:14Z</time>
      </trkpt>
      <trkpt lat="44.46414" lon="6.54091">
        <ele>2074</ele>
        <time>2021-02-21T05:44:15Z</time>
      </trkpt>
      <trkpt lat="44.46414" lon="6.54089">
        <ele>2074</ele>
        <time>2021-02-21T05:44:16Z</time>
      </trkpt>
      <trkpt lat="44.46414" lon="6.54088">
        <ele>2074</ele>
        <time>2021-02-21T05:44:17Z</time>
      </trkpt>
      <trkpt lat="44.46413" lon="6.54087">
        <ele>2074</ele>
        <time>2021-02-21T05:44:18Z</time>
      </trkpt>
      <trkpt lat="44.46413" lon="6.54085">
        <ele>2074</ele>
        <time>2021-02-21T05:44:19Z</time>
      </trkpt>
      <trkpt lat="44.46412" lon="6.54083">
        <ele>2074</ele>
        <time>2021-02-21T05:44:20Z</time>
      </trkpt>
      <trkpt lat="44.46412" lon="6.54082">
        <ele>2074</ele>
        <time>2021-02-21T05:44:21Z</time>
      </trkpt>
      <trkpt lat="44.46412" lon="6.54081">
        <ele>2075</ele>
        <time>2021-02-21T05:44:22Z</time>
      </trkpt>
      <trkpt lat="44.46412" lon="6.54079">
        <ele>2075</ele>
        <time>2021-02-21T05:44:23Z</time>
      </trkpt>
      <trkpt lat="44.46411" lon="6.54078">
        <ele>2075</ele>
        <time>2021-02-21T05:44:24Z</time>
      </trkpt>
      <trkpt lat="44.46411" lon="6.54077">
        <ele>2076</ele>
        <time>2021-02-21T05:44:25Z</time>
      </trkpt>
      <trkpt lat="44.46411" lon="6.54076">
        <ele>2076</ele>
        <time>2021-02-21T05:44:26Z</time>
      </trkpt>
      <trkpt lat="44.46411" lon="6.54074">
        <ele>2076</ele>
        <time>2021-02-21T05:44:27Z</time>
      </trkpt>
      <trkpt lat="44.4641" lon="6.54073">
        <ele>2077</ele>
        <time>2021-02-21T05:44:28Z</time>
      </trkpt>
      <trkpt lat="44.4641" lon="6.54072">
        <ele>2077</ele>
        <time>2021-02-21T05:44:29Z</time>
      </trkpt>
      <trkpt lat="44.4641" lon="6.54071">
        <ele>2078</ele>
        <time>2021-02-21T05:44:30Z</time>
      </trkpt>
      <trkpt lat="44.4641" lon="6.5407">
        <ele>2078</ele>
        <time>2021-02-21T05:44:31Z</time>
      </trkpt>
      <trkpt lat="44.4641" lon="6.54069">
        <ele>2078</ele>
        <time>2021-02-21T05:44:32Z</time>
      </trkpt>
      <trkpt lat="44.46409" lon="6.54068">
        <ele>2078</ele>
        <time>2021-02-21T05:44:33Z</time>
      </trkpt>
      <trkpt lat="44.46409" lon="6.54068">
        <ele>2078</ele>
        <time>2021-02-21T05:44:34Z</time>
      </trkpt>
      <trkpt lat="44.46409" lon="6.54066">
        <ele>2079</ele>
        <time>2021-02-21T05:44:35Z</time>
      </trkpt>
      <trkpt lat="44.46409" lon="6.54066">
        <ele>2079</ele>
        <time>2021-02-21T05:44:36Z</time>
      </trkpt>
      <trkpt lat="44.46408" lon="6.54065">
        <ele>2079</ele>
        <time>2021-02-21T05:44:37Z</time>
      </trkpt>
      <trkpt lat="44.46408" lon="6.54065">
        <ele>2080</ele>
        <time>2021-02-21T05:44:38Z</time>
      </trkpt>
      <trkpt lat="44.46407" lon="6.54064">
        <ele>2080</ele>
        <time>2021-02-21T05:44:39Z</time>
      </trkpt>
      <trkpt lat="44.46407" lon="6.54063">
        <ele>2080</ele>
        <time>2021-02-21T05:44:40Z</time>
      </trkpt>
      <trkpt lat="44.46406" lon="6.54063">
        <ele>2080</ele>
        <time>2021-02-21T05:44:41Z</time>
      </trkpt>
      <trkpt lat="44.46406" lon="6.54063">
        <ele>2080</ele>
        <time>2021-02-21T05:44:42Z</time>
      </trkpt>
      <trkpt lat="44.46405" lon="6.54062">
        <ele>2081</ele>
        <time>2021-02-21T05:44:43Z</time>
      </trkpt>
      <trkpt lat="44.46405" lon="6.54062">
        <ele>2081</ele>
        <time>2021-02-21T05:44:44Z</time>
      </trkpt>
      <trkpt lat="44.46405" lon="6.54062">
        <ele>2081</ele>
        <time>2021-02-21T05:44:45Z</time>
      </trkpt>
      <trkpt lat="44.46404" lon="6.54061">
        <ele>2081</ele>
        <time>2021-02-21T05:44:46Z</time>
      </trkpt>
      <trkpt lat="44.46404" lon="6.5406">
        <ele>2081</ele>
        <time>2021-02-21T05:44:47Z</time>
      </trkpt>
      <trkpt lat="44.46404" lon="6.5406">
        <ele>2081</ele>
        <time>2021-02-21T05:44:48Z</time>
      </trkpt>
      <trkpt lat="44.46403" lon="6.54059">
        <ele>2081</ele>
        <time>2021-02-21T05:44:49Z</time>
      </trkpt>
      <trkpt lat="44.46402" lon="6.54058">
        <ele>2081</ele>
        <time>2021-02-21T05:44:50Z</time>
      </trkpt>
      <trkpt lat="44.46402" lon="6.54058">
        <ele>2081</ele>
        <time>2021-02-21T05:44:51Z</time>
      </trkpt>
      <trkpt lat="44.46402" lon="6.54058">
        <ele>2082</ele>
        <time>2021-02-21T05:44:52Z</time>
      </trkpt>
      <trkpt lat="44.46402" lon="6.54058">
        <ele>2082</ele>
        <time>2021-02-21T05:44:53Z</time>
      </trkpt>
      <trkpt lat="44.46401" lon="6.54058">
        <ele>2082</ele>
        <time>2021-02-21T05:44:54Z</time>
      </trkpt>
      <trkpt lat="44.46401" lon="6.54058">
        <ele>2082</ele>
        <time>2021-02-21T05:44:55Z</time>
      </trkpt>
      <trkpt lat="44.464" lon="6.54058">
        <ele>2082</ele>
        <time>2021-02-21T05:44:56Z</time>
      </trkpt>
      <trkpt lat="44.464" lon="6.54057">
        <ele>2082</ele>
        <time>2021-02-21T05:44:57Z</time>
      </trkpt>
      <trkpt lat="44.46399" lon="6.54055">
        <ele>2082</ele>
        <time>2021-02-21T05:44:58Z</time>
      </trkpt>
      <trkpt lat="44.46399" lon="6.54054">
        <ele>2082</ele>
        <time>2021-02-21T05:44:59Z</time>
      </trkpt>
      <trkpt lat="44.46399" lon="6.54054">
        <ele>2082</ele>
        <time>2021-02-21T05:45:00Z</time>
      </trkpt>
      <trkpt lat="44.46399" lon="6.54054">
        <ele>2082</ele>
        <time>2021-02-21T05:45:01Z</time>
      </trkpt>
      <trkpt lat="44.46399" lon="6.54053">
        <ele>2082</ele>
        <time>2021-02-21T05:45:02Z</time>
      </trkpt>
      <trkpt lat="44.46398" lon="6.54053">
        <ele>2081</ele>
        <time>2021-02-21T05:45:03Z</time>
      </trkpt>
      <trkpt lat="44.46398" lon="6.54052">
        <ele>2081</ele>
        <time>2021-02-21T05:45:04Z</time>
      </trkpt>
      <trkpt lat="44.46397" lon="6.54051">
        <ele>2081</ele>
        <time>2021-02-21T05:45:05Z</time>
      </trkpt>
      <trkpt lat="44.46397" lon="6.54049">
        <ele>2081</ele>
        <time>2021-02-21T05:45:06Z</time>
      </trkpt>
      <trkpt lat="44.46397" lon="6.54047">
        <ele>2081</ele>
        <time>2021-02-21T05:45:07Z</time>
      </trkpt>
      <trkpt lat="44.46397" lon="6.54044">
        <ele>2080</ele>
        <time>2021-02-21T05:45:08Z</time>
      </trkpt>
      <trkpt lat="44.46397" lon="6.54043">
        <ele>2080</ele>
        <time>2021-02-21T05:45:09Z</time>
      </trkpt>
      <trkpt lat="44.46397" lon="6.54041">
        <ele>2080</ele>
        <time>2021-02-21T05:45:10Z</time>
      </trkpt>
      <trkpt lat="44.46397" lon="6.5404">
        <ele>2080</ele>
        <time>2021-02-21T05:45:11Z</time>
      </trkpt>
      <trkpt lat="44.46397" lon="6.54039">
        <ele>2080</ele>
        <time>2021-02-21T05:45:12Z</time>
      </trkpt>
      <trkpt lat="44.46397" lon="6.54037">
        <ele>2080</ele>
        <time>2021-02-21T05:45:13Z</time>
      </trkpt>
      <trkpt lat="44.46397" lon="6.54036">
        <ele>2080</ele>
        <time>2021-02-21T05:45:14Z</time>
      </trkpt>
      <trkpt lat="44.46396" lon="6.54035">
        <ele>2080</ele>
        <time>2021-02-21T05:45:15Z</time>
      </trkpt>
      <trkpt lat="44.46395" lon="6.54033">
        <ele>2080</ele>
        <time>2021-02-21T05:45:16Z</time>
      </trkpt>
      <trkpt lat="44.46395" lon="6.54032">
        <ele>2080</ele>
        <time>2021-02-21T05:45:17Z</time>
      </trkpt>
      <trkpt lat="44.46394" lon="6.54031">
        <ele>2080</ele>
        <time>2021-02-21T05:45:18Z</time>
      </trkpt>
      <trkpt lat="44.46394" lon="6.54031">
        <ele>2080</ele>
        <time>2021-02-21T05:45:19Z</time>
      </trkpt>
      <trkpt lat="44.46394" lon="6.54029">
        <ele>2080</ele>
        <time>2021-02-21T05:45:20Z</time>
      </trkpt>
      <trkpt lat="44.46394" lon="6.54027">
        <ele>2080</ele>
        <time>2021-02-21T05:45:21Z</time>
      </trkpt>
      <trkpt lat="44.46394" lon="6.54026">
        <ele>2081</ele>
        <time>2021-02-21T05:45:22Z</time>
      </trkpt>
      <trkpt lat="44.46394" lon="6.54024">
        <ele>2081</ele>
        <time>2021-02-21T05:45:23Z</time>
      </trkpt>
      <trkpt lat="44.46394" lon="6.54023">
        <ele>2081</ele>
        <time>2021-02-21T05:45:24Z</time>
      </trkpt>
      <trkpt lat="44.46394" lon="6.54022">
        <ele>2082</ele>
        <time>2021-02-21T05:45:25Z</time>
      </trkpt>
      <trkpt lat="44.46394" lon="6.5402">
        <ele>2082</ele>
        <time>2021-02-21T05:45:26Z</time>
      </trkpt>
      <trkpt lat="44.46395" lon="6.54019">
        <ele>2082</ele>
        <time>2021-02-21T05:45:27Z</time>
      </trkpt>
      <trkpt lat="44.46395" lon="6.54018">
        <ele>2083</ele>
        <time>2021-02-21T05:45:28Z</time>
      </trkpt>
      <trkpt lat="44.46395" lon="6.54018">
        <ele>2083</ele>
        <time>2021-02-21T05:45:29Z</time>
      </trkpt>
      <trkpt lat="44.46395" lon="6.54017">
        <ele>2084</ele>
        <time>2021-02-21T05:45:30Z</time>
      </trkpt>
      <trkpt lat="44.46395" lon="6.54015">
        <ele>2084</ele>
        <time>2021-02-21T05:45:31Z</time>
      </trkpt>
      <trkpt lat="44.46394" lon="6.54014">
        <ele>2085</ele>
        <time>2021-02-21T05:45:32Z</time>
      </trkpt>
      <trkpt lat="44.46394" lon="6.54013">
        <ele>2085</ele>
        <time>2021-02-21T05:45:33Z</time>
      </trkpt>
      <trkpt lat="44.46394" lon="6.54012">
        <ele>2086</ele>
        <time>2021-02-21T05:45:34Z</time>
      </trkpt>
      <trkpt lat="44.46393" lon="6.54011">
        <ele>2086</ele>
        <time>2021-02-21T05:45:35Z</time>
      </trkpt>
      <trkpt lat="44.46393" lon="6.5401">
        <ele>2086</ele>
        <time>2021-02-21T05:45:36Z</time>
      </trkpt>
      <trkpt lat="44.46394" lon="6.54008">
        <ele>2087</ele>
        <time>2021-02-21T05:45:37Z</time>
      </trkpt>
      <trkpt lat="44.46394" lon="6.54007">
        <ele>2087</ele>
        <time>2021-02-21T05:45:38Z</time>
      </trkpt>
      <trkpt lat="44.46393" lon="6.54006">
        <ele>2088</ele>
        <time>2021-02-21T05:45:39Z</time>
      </trkpt>
      <trkpt lat="44.46393" lon="6.54004">
        <ele>2088</ele>
        <time>2021-02-21T05:45:40Z</time>
      </trkpt>
      <trkpt lat="44.46393" lon="6.54002">
        <ele>2089</ele>
        <time>2021-02-21T05:45:41Z</time>
      </trkpt>
      <trkpt lat="44.46393" lon="6.54001">
        <ele>2089</ele>
        <time>2021-02-21T05:45:42Z</time>
      </trkpt>
      <trkpt lat="44.46394" lon="6.53999">
        <ele>2089</ele>
        <time>2021-02-21T05:45:43Z</time>
      </trkpt>
      <trkpt lat="44.46394" lon="6.53998">
        <ele>2089</ele>
        <time>2021-02-21T05:45:44Z</time>
      </trkpt>
      <trkpt lat="44.46394" lon="6.53997">
        <ele>2090</ele>
        <time>2021-02-21T05:45:45Z</time>
      </trkpt>
      <trkpt lat="44.46394" lon="6.53995">
        <ele>2090</ele>
        <time>2021-02-21T05:45:46Z</time>
      </trkpt>
      <trkpt lat="44.46394" lon="6.53994">
        <ele>2090</ele>
        <time>2021-02-21T05:45:47Z</time>
      </trkpt>
      <trkpt lat="44.46394" lon="6.53992">
        <ele>2091</ele>
        <time>2021-02-21T05:45:48Z</time>
      </trkpt>
      <trkpt lat="44.46394" lon="6.5399">
        <ele>2091</ele>
        <time>2021-02-21T05:45:49Z</time>
      </trkpt>
      <trkpt lat="44.46394" lon="6.53988">
        <ele>2091</ele>
        <time>2021-02-21T05:45:50Z</time>
      </trkpt>
      <trkpt lat="44.46394" lon="6.53986">
        <ele>2091</ele>
        <time>2021-02-21T05:45:51Z</time>
      </trkpt>
      <trkpt lat="44.46394" lon="6.53985">
        <ele>2091</ele>
        <time>2021-02-21T05:45:52Z</time>
      </trkpt>
      <trkpt lat="44.46394" lon="6.53983">
        <ele>2091</ele>
        <time>2021-02-21T05:45:53Z</time>
      </trkpt>
      <trkpt lat="44.46393" lon="6.53982">
        <ele>2092</ele>
        <time>2021-02-21T05:45:54Z</time>
      </trkpt>
      <trkpt lat="44.46393" lon="6.5398">
        <ele>2092</ele>
        <time>2021-02-21T05:45:55Z</time>
      </trkpt>
      <trkpt lat="44.46392" lon="6.53979">
        <ele>2092</ele>
        <time>2021-02-21T05:45:56Z</time>
      </trkpt>
      <trkpt lat="44.46392" lon="6.53978">
        <ele>2092</ele>
        <time>2021-02-21T05:45:57Z</time>
      </trkpt>
      <trkpt lat="44.46391" lon="6.53978">
        <ele>2093</ele>
        <time>2021-02-21T05:45:58Z</time>
      </trkpt>
      <trkpt lat="44.46391" lon="6.53977">
        <ele>2093</ele>
        <time>2021-02-21T05:45:59Z</time>
      </trkpt>
      <trkpt lat="44.4639" lon="6.53977">
        <ele>2093</ele>
        <time>2021-02-21T05:46:00Z</time>
      </trkpt>
      <trkpt lat="44.4639" lon="6.53976">
        <ele>2093</ele>
        <time>2021-02-21T05:46:01Z</time>
      </trkpt>
      <trkpt lat="44.4639" lon="6.53976">
        <ele>2093</ele>
        <time>2021-02-21T05:46:02Z</time>
      </trkpt>
      <trkpt lat="44.4639" lon="6.53976">
        <ele>2094</ele>
        <time>2021-02-21T05:46:03Z</time>
      </trkpt>
      <trkpt lat="44.4639" lon="6.53976">
        <ele>2094</ele>
        <time>2021-02-21T05:46:04Z</time>
      </trkpt>
      <trkpt lat="44.46389" lon="6.53976">
        <ele>2094</ele>
        <time>2021-02-21T05:46:05Z</time>
      </trkpt>
      <trkpt lat="44.46389" lon="6.53975">
        <ele>2094</ele>
        <time>2021-02-21T05:46:06Z</time>
      </trkpt>
      <trkpt lat="44.46389" lon="6.53975">
        <ele>2094</ele>
        <time>2021-02-21T05:46:07Z</time>
      </trkpt>
      <trkpt lat="44.46389" lon="6.53975">
        <ele>2093</ele>
        <time>2021-02-21T05:46:08Z</time>
      </trkpt>
      <trkpt lat="44.46389" lon="6.53974">
        <ele>2093</ele>
        <time>2021-02-21T05:46:09Z</time>
      </trkpt>
      <trkpt lat="44.46389" lon="6.53974">
        <ele>2093</ele>
        <time>2021-02-21T05:46:10Z</time>
      </trkpt>
      <trkpt lat="44.46389" lon="6.53974">
        <ele>2093</ele>
        <time>2021-02-21T05:46:11Z</time>
      </trkpt>
      <trkpt lat="44.46388" lon="6.53972">
        <ele>2093</ele>
        <time>2021-02-21T05:46:12Z</time>
      </trkpt>
      <trkpt lat="44.46388" lon="6.53971">
        <ele>2093</ele>
        <time>2021-02-21T05:46:13Z</time>
      </trkpt>
      <trkpt lat="44.46388" lon="6.53971">
        <ele>2093</ele>
        <time>2021-02-21T05:46:14Z</time>
      </trkpt>
      <trkpt lat="44.46387" lon="6.5397">
        <ele>2092</ele>
        <time>2021-02-21T05:46:15Z</time>
      </trkpt>
      <trkpt lat="44.46387" lon="6.53969">
        <ele>2092</ele>
        <time>2021-02-21T05:46:16Z</time>
      </trkpt>
      <trkpt lat="44.46386" lon="6.53969">
        <ele>2092</ele>
        <time>2021-02-21T05:46:17Z</time>
      </trkpt>
      <trkpt lat="44.46387" lon="6.53968">
        <ele>2092</ele>
        <time>2021-02-21T05:46:18Z</time>
      </trkpt>
      <trkpt lat="44.46386" lon="6.53968">
        <ele>2092</ele>
        <time>2021-02-21T05:46:19Z</time>
      </trkpt>
      <trkpt lat="44.46386" lon="6.53967">
        <ele>2092</ele>
        <time>2021-02-21T05:46:20Z</time>
      </trkpt>
      <trkpt lat="44.46385" lon="6.53966">
        <ele>2091</ele>
        <time>2021-02-21T05:46:21Z</time>
      </trkpt>
      <trkpt lat="44.46385" lon="6.53965">
        <ele>2091</ele>
        <time>2021-02-21T05:46:22Z</time>
      </trkpt>
      <trkpt lat="44.46384" lon="6.53965">
        <ele>2091</ele>
        <time>2021-02-21T05:46:23Z</time>
      </trkpt>
      <trkpt lat="44.46384" lon="6.53964">
        <ele>2091</ele>
        <time>2021-02-21T05:46:24Z</time>
      </trkpt>
      <trkpt lat="44.46383" lon="6.53963">
        <ele>2091</ele>
        <time>2021-02-21T05:46:25Z</time>
      </trkpt>
      <trkpt lat="44.46383" lon="6.53962">
        <ele>2090</ele>
        <time>2021-02-21T05:46:26Z</time>
      </trkpt>
      <trkpt lat="44.46382" lon="6.53961">
        <ele>2090</ele>
        <time>2021-02-21T05:46:27Z</time>
      </trkpt>
      <trkpt lat="44.46382" lon="6.53961">
        <ele>2090</ele>
        <time>2021-02-21T05:46:28Z</time>
      </trkpt>
      <trkpt lat="44.46381" lon="6.5396">
        <ele>2090</ele>
        <time>2021-02-21T05:46:29Z</time>
      </trkpt>
      <trkpt lat="44.46381" lon="6.5396">
        <ele>2090</ele>
        <time>2021-02-21T05:46:30Z</time>
      </trkpt>
      <trkpt lat="44.4638" lon="6.53959">
        <ele>2090</ele>
        <time>2021-02-21T05:46:31Z</time>
      </trkpt>
      <trkpt lat="44.4638" lon="6.53958">
        <ele>2090</ele>
        <time>2021-02-21T05:46:32Z</time>
      </trkpt>
      <trkpt lat="44.4638" lon="6.53957">
        <ele>2090</ele>
        <time>2021-02-21T05:46:33Z</time>
      </trkpt>
      <trkpt lat="44.46379" lon="6.53956">
        <ele>2090</ele>
        <time>2021-02-21T05:46:34Z</time>
      </trkpt>
      <trkpt lat="44.46379" lon="6.53955">
        <ele>2090</ele>
        <time>2021-02-21T05:46:35Z</time>
      </trkpt>
      <trkpt lat="44.46379" lon="6.53953">
        <ele>2090</ele>
        <time>2021-02-21T05:46:36Z</time>
      </trkpt>
      <trkpt lat="44.46378" lon="6.53952">
        <ele>2090</ele>
        <time>2021-02-21T05:46:37Z</time>
      </trkpt>
      <trkpt lat="44.46378" lon="6.53951">
        <ele>2090</ele>
        <time>2021-02-21T05:46:38Z</time>
      </trkpt>
      <trkpt lat="44.46378" lon="6.53949">
        <ele>2090</ele>
        <time>2021-02-21T05:46:39Z</time>
      </trkpt>
      <trkpt lat="44.46377" lon="6.53948">
        <ele>2090</ele>
        <time>2021-02-21T05:46:40Z</time>
      </trkpt>
      <trkpt lat="44.46377" lon="6.53947">
        <ele>2091</ele>
        <time>2021-02-21T05:46:41Z</time>
      </trkpt>
      <trkpt lat="44.46377" lon="6.53947">
        <ele>2091</ele>
        <time>2021-02-21T05:46:42Z</time>
      </trkpt>
      <trkpt lat="44.46377" lon="6.53946">
        <ele>2091</ele>
        <time>2021-02-21T05:46:43Z</time>
      </trkpt>
      <trkpt lat="44.46376" lon="6.53945">
        <ele>2091</ele>
        <time>2021-02-21T05:46:44Z</time>
      </trkpt>
      <trkpt lat="44.46376" lon="6.53944">
        <ele>2091</ele>
        <time>2021-02-21T05:46:45Z</time>
      </trkpt>
      <trkpt lat="44.46376" lon="6.53944">
        <ele>2091</ele>
        <time>2021-02-21T05:46:46Z</time>
      </trkpt>
      <trkpt lat="44.46376" lon="6.53943">
        <ele>2091</ele>
        <time>2021-02-21T05:46:47Z</time>
      </trkpt>
      <trkpt lat="44.46376" lon="6.53942">
        <ele>2091</ele>
        <time>2021-02-21T05:46:48Z</time>
      </trkpt>
      <trkpt lat="44.46376" lon="6.53941">
        <ele>2091</ele>
        <time>2021-02-21T05:46:49Z</time>
      </trkpt>
      <trkpt lat="44.46376" lon="6.53941">
        <ele>2091</ele>
        <time>2021-02-21T05:46:50Z</time>
      </trkpt>
      <trkpt lat="44.46375" lon="6.5394">
        <ele>2091</ele>
        <time>2021-02-21T05:46:51Z</time>
      </trkpt>
      <trkpt lat="44.46375" lon="6.5394">
        <ele>2092</ele>
        <time>2021-02-21T05:46:52Z</time>
      </trkpt>
      <trkpt lat="44.46374" lon="6.5394">
        <ele>2092</ele>
        <time>2021-02-21T05:46:53Z</time>
      </trkpt>
      <trkpt lat="44.46374" lon="6.53939">
        <ele>2092</ele>
        <time>2021-02-21T05:46:54Z</time>
      </trkpt>
      <trkpt lat="44.46373" lon="6.53938">
        <ele>2092</ele>
        <time>2021-02-21T05:46:55Z</time>
      </trkpt>
      <trkpt lat="44.46373" lon="6.53937">
        <ele>2092</ele>
        <time>2021-02-21T05:46:56Z</time>
      </trkpt>
      <trkpt lat="44.46372" lon="6.53937">
        <ele>2092</ele>
        <time>2021-02-21T05:46:57Z</time>
      </trkpt>
      <trkpt lat="44.46372" lon="6.53936">
        <ele>2093</ele>
        <time>2021-02-21T05:46:58Z</time>
      </trkpt>
      <trkpt lat="44.46371" lon="6.53935">
        <ele>2093</ele>
        <time>2021-02-21T05:46:59Z</time>
      </trkpt>
      <trkpt lat="44.46371" lon="6.53934">
        <ele>2093</ele>
        <time>2021-02-21T05:47:00Z</time>
      </trkpt>
      <trkpt lat="44.4637" lon="6.53933">
        <ele>2093</ele>
        <time>2021-02-21T05:47:01Z</time>
      </trkpt>
      <trkpt lat="44.4637" lon="6.53932">
        <ele>2094</ele>
        <time>2021-02-21T05:47:02Z</time>
      </trkpt>
      <trkpt lat="44.46369" lon="6.53931">
        <ele>2094</ele>
        <time>2021-02-21T05:47:03Z</time>
      </trkpt>
      <trkpt lat="44.46369" lon="6.53931">
        <ele>2094</ele>
        <time>2021-02-21T05:47:04Z</time>
      </trkpt>
      <trkpt lat="44.46369" lon="6.5393">
        <ele>2094</ele>
        <time>2021-02-21T05:47:05Z</time>
      </trkpt>
      <trkpt lat="44.46368" lon="6.53929">
        <ele>2094</ele>
        <time>2021-02-21T05:47:06Z</time>
      </trkpt>
      <trkpt lat="44.46368" lon="6.53928">
        <ele>2094</ele>
        <time>2021-02-21T05:47:07Z</time>
      </trkpt>
      <trkpt lat="44.46368" lon="6.53927">
        <ele>2094</ele>
        <time>2021-02-21T05:47:08Z</time>
      </trkpt>
      <trkpt lat="44.46367" lon="6.53926">
        <ele>2094</ele>
        <time>2021-02-21T05:47:09Z</time>
      </trkpt>
      <trkpt lat="44.46367" lon="6.53926">
        <ele>2095</ele>
        <time>2021-02-21T05:47:10Z</time>
      </trkpt>
      <trkpt lat="44.46367" lon="6.53925">
        <ele>2095</ele>
        <time>2021-02-21T05:47:11Z</time>
      </trkpt>
      <trkpt lat="44.46366" lon="6.53924">
        <ele>2095</ele>
        <time>2021-02-21T05:47:12Z</time>
      </trkpt>
      <trkpt lat="44.46366" lon="6.53923">
        <ele>2095</ele>
        <time>2021-02-21T05:47:13Z</time>
      </trkpt>
      <trkpt lat="44.46365" lon="6.53922">
        <ele>2095</ele>
        <time>2021-02-21T05:47:14Z</time>
      </trkpt>
      <trkpt lat="44.46365" lon="6.53922">
        <ele>2095</ele>
        <time>2021-02-21T05:47:15Z</time>
      </trkpt>
      <trkpt lat="44.46364" lon="6.53921">
        <ele>2095</ele>
        <time>2021-02-21T05:47:16Z</time>
      </trkpt>
      <trkpt lat="44.46363" lon="6.53921">
        <ele>2096</ele>
        <time>2021-02-21T05:47:17Z</time>
      </trkpt>
      <trkpt lat="44.46363" lon="6.5392">
        <ele>2096</ele>
        <time>2021-02-21T05:47:18Z</time>
      </trkpt>
      <trkpt lat="44.46362" lon="6.5392">
        <ele>2096</ele>
        <time>2021-02-21T05:47:19Z</time>
      </trkpt>
      <trkpt lat="44.46362" lon="6.53919">
        <ele>2096</ele>
        <time>2021-02-21T05:47:20Z</time>
      </trkpt>
      <trkpt lat="44.46362" lon="6.53919">
        <ele>2097</ele>
        <time>2021-02-21T05:47:21Z</time>
      </trkpt>
      <trkpt lat="44.46361" lon="6.53918">
        <ele>2097</ele>
        <time>2021-02-21T05:47:22Z</time>
      </trkpt>
      <trkpt lat="44.4636" lon="6.53918">
        <ele>2097</ele>
        <time>2021-02-21T05:47:23Z</time>
      </trkpt>
      <trkpt lat="44.46359" lon="6.53918">
        <ele>2097</ele>
        <time>2021-02-21T05:47:24Z</time>
      </trkpt>
      <trkpt lat="44.46358" lon="6.53917">
        <ele>2098</ele>
        <time>2021-02-21T05:47:25Z</time>
      </trkpt>
      <trkpt lat="44.46358" lon="6.53917">
        <ele>2098</ele>
        <time>2021-02-21T05:47:26Z</time>
      </trkpt>
      <trkpt lat="44.46357" lon="6.53917">
        <ele>2098</ele>
        <time>2021-02-21T05:47:27Z</time>
      </trkpt>
      <trkpt lat="44.46356" lon="6.53917">
        <ele>2098</ele>
        <time>2021-02-21T05:47:28Z</time>
      </trkpt>
      <trkpt lat="44.46356" lon="6.53916">
        <ele>2099</ele>
        <time>2021-02-21T05:47:29Z</time>
      </trkpt>
      <trkpt lat="44.46355" lon="6.53915">
        <ele>2099</ele>
        <time>2021-02-21T05:47:30Z</time>
      </trkpt>
      <trkpt lat="44.46355" lon="6.53914">
        <ele>2099</ele>
        <time>2021-02-21T05:47:31Z</time>
      </trkpt>
      <trkpt lat="44.46354" lon="6.53913">
        <ele>2099</ele>
        <time>2021-02-21T05:47:32Z</time>
      </trkpt>
      <trkpt lat="44.46354" lon="6.53912">
        <ele>2099</ele>
        <time>2021-02-21T05:47:33Z</time>
      </trkpt>
      <trkpt lat="44.46353" lon="6.53911">
        <ele>2099</ele>
        <time>2021-02-21T05:47:34Z</time>
      </trkpt>
      <trkpt lat="44.46353" lon="6.53911">
        <ele>2099</ele>
        <time>2021-02-21T05:47:35Z</time>
      </trkpt>
      <trkpt lat="44.46352" lon="6.5391">
        <ele>2099</ele>
        <time>2021-02-21T05:47:36Z</time>
      </trkpt>
      <trkpt lat="44.46351" lon="6.53909">
        <ele>2099</ele>
        <time>2021-02-21T05:47:37Z</time>
      </trkpt>
      <trkpt lat="44.46351" lon="6.53908">
        <ele>2099</ele>
        <time>2021-02-21T05:47:38Z</time>
      </trkpt>
      <trkpt lat="44.4635" lon="6.53907">
        <ele>2099</ele>
        <time>2021-02-21T05:47:39Z</time>
      </trkpt>
      <trkpt lat="44.46349" lon="6.53906">
        <ele>2100</ele>
        <time>2021-02-21T05:47:40Z</time>
      </trkpt>
      <trkpt lat="44.46348" lon="6.53906">
        <ele>2100</ele>
        <time>2021-02-21T05:47:41Z</time>
      </trkpt>
      <trkpt lat="44.46347" lon="6.53905">
        <ele>2100</ele>
        <time>2021-02-21T05:47:42Z</time>
      </trkpt>
      <trkpt lat="44.46347" lon="6.53904">
        <ele>2100</ele>
        <time>2021-02-21T05:47:43Z</time>
      </trkpt>
      <trkpt lat="44.46346" lon="6.53902">
        <ele>2100</ele>
        <time>2021-02-21T05:47:44Z</time>
      </trkpt>
      <trkpt lat="44.46346" lon="6.53901">
        <ele>2100</ele>
        <time>2021-02-21T05:47:45Z</time>
      </trkpt>
      <trkpt lat="44.46345" lon="6.539">
        <ele>2101</ele>
        <time>2021-02-21T05:47:46Z</time>
      </trkpt>
      <trkpt lat="44.46345" lon="6.539">
        <ele>2101</ele>
        <time>2021-02-21T05:47:47Z</time>
      </trkpt>
      <trkpt lat="44.46344" lon="6.539">
        <ele>2101</ele>
        <time>2021-02-21T05:47:48Z</time>
      </trkpt>
      <trkpt lat="44.46343" lon="6.53899">
        <ele>2101</ele>
        <time>2021-02-21T05:47:49Z</time>
      </trkpt>
      <trkpt lat="44.46343" lon="6.53898">
        <ele>2101</ele>
        <time>2021-02-21T05:47:50Z</time>
      </trkpt>
      <trkpt lat="44.46342" lon="6.53897">
        <ele>2101</ele>
        <time>2021-02-21T05:47:51Z</time>
      </trkpt>
      <trkpt lat="44.46341" lon="6.53897">
        <ele>2101</ele>
        <time>2021-02-21T05:47:52Z</time>
      </trkpt>
      <trkpt lat="44.46341" lon="6.53897">
        <ele>2102</ele>
        <time>2021-02-21T05:47:53Z</time>
      </trkpt>
      <trkpt lat="44.4634" lon="6.53896">
        <ele>2102</ele>
        <time>2021-02-21T05:47:54Z</time>
      </trkpt>
      <trkpt lat="44.4634" lon="6.53896">
        <ele>2102</ele>
        <time>2021-02-21T05:47:55Z</time>
      </trkpt>
      <trkpt lat="44.4634" lon="6.53895">
        <ele>2102</ele>
        <time>2021-02-21T05:47:56Z</time>
      </trkpt>
      <trkpt lat="44.4634" lon="6.53895">
        <ele>2102</ele>
        <time>2021-02-21T05:47:57Z</time>
      </trkpt>
      <trkpt lat="44.46339" lon="6.53894">
        <ele>2102</ele>
        <time>2021-02-21T05:47:58Z</time>
      </trkpt>
      <trkpt lat="44.46339" lon="6.53894">
        <ele>2103</ele>
        <time>2021-02-21T05:47:59Z</time>
      </trkpt>
      <trkpt lat="44.46339" lon="6.53893">
        <ele>2103</ele>
        <time>2021-02-21T05:48:00Z</time>
      </trkpt>
      <trkpt lat="44.46338" lon="6.53893">
        <ele>2104</ele>
        <time>2021-02-21T05:48:01Z</time>
      </trkpt>
      <trkpt lat="44.46338" lon="6.53893">
        <ele>2104</ele>
        <time>2021-02-21T05:48:02Z</time>
      </trkpt>
      <trkpt lat="44.46337" lon="6.53893">
        <ele>2104</ele>
        <time>2021-02-21T05:48:03Z</time>
      </trkpt>
      <trkpt lat="44.46336" lon="6.53893">
        <ele>2105</ele>
        <time>2021-02-21T05:48:04Z</time>
      </trkpt>
      <trkpt lat="44.46335" lon="6.53893">
        <ele>2105</ele>
        <time>2021-02-21T05:48:05Z</time>
      </trkpt>
      <trkpt lat="44.46335" lon="6.53892">
        <ele>2105</ele>
        <time>2021-02-21T05:48:06Z</time>
      </trkpt>
      <trkpt lat="44.46334" lon="6.53892">
        <ele>2105</ele>
        <time>2021-02-21T05:48:07Z</time>
      </trkpt>
      <trkpt lat="44.46334" lon="6.53892">
        <ele>2105</ele>
        <time>2021-02-21T05:48:08Z</time>
      </trkpt>
      <trkpt lat="44.46333" lon="6.53891">
        <ele>2105</ele>
        <time>2021-02-21T05:48:09Z</time>
      </trkpt>
      <trkpt lat="44.46333" lon="6.53891">
        <ele>2105</ele>
        <time>2021-02-21T05:48:10Z</time>
      </trkpt>
      <trkpt lat="44.46332" lon="6.53891">
        <ele>2106</ele>
        <time>2021-02-21T05:48:11Z</time>
      </trkpt>
      <trkpt lat="44.46332" lon="6.53891">
        <ele>2106</ele>
        <time>2021-02-21T05:48:12Z</time>
      </trkpt>
      <trkpt lat="44.46331" lon="6.53891">
        <ele>2106</ele>
        <time>2021-02-21T05:48:13Z</time>
      </trkpt>
      <trkpt lat="44.4633" lon="6.53891">
        <ele>2106</ele>
        <time>2021-02-21T05:48:14Z</time>
      </trkpt>
      <trkpt lat="44.46329" lon="6.53889">
        <ele>2107</ele>
        <time>2021-02-21T05:48:15Z</time>
      </trkpt>
      <trkpt lat="44.46328" lon="6.53888">
        <ele>2107</ele>
        <time>2021-02-21T05:48:16Z</time>
      </trkpt>
      <trkpt lat="44.46328" lon="6.53888">
        <ele>2107</ele>
        <time>2021-02-21T05:48:17Z</time>
      </trkpt>
      <trkpt lat="44.46327" lon="6.53887">
        <ele>2107</ele>
        <time>2021-02-21T05:48:18Z</time>
      </trkpt>
      <trkpt lat="44.46327" lon="6.53886">
        <ele>2108</ele>
        <time>2021-02-21T05:48:19Z</time>
      </trkpt>
      <trkpt lat="44.46326" lon="6.53885">
        <ele>2108</ele>
        <time>2021-02-21T05:48:20Z</time>
      </trkpt>
      <trkpt lat="44.46326" lon="6.53884">
        <ele>2108</ele>
        <time>2021-02-21T05:48:21Z</time>
      </trkpt>
      <trkpt lat="44.46325" lon="6.53883">
        <ele>2108</ele>
        <time>2021-02-21T05:48:22Z</time>
      </trkpt>
      <trkpt lat="44.46325" lon="6.53881">
        <ele>2108</ele>
        <time>2021-02-21T05:48:23Z</time>
      </trkpt>
      <trkpt lat="44.46325" lon="6.53881">
        <ele>2108</ele>
        <time>2021-02-21T05:48:24Z</time>
      </trkpt>
      <trkpt lat="44.46324" lon="6.5388">
        <ele>2109</ele>
        <time>2021-02-21T05:48:25Z</time>
      </trkpt>
      <trkpt lat="44.46324" lon="6.53879">
        <ele>2109</ele>
        <time>2021-02-21T05:48:26Z</time>
      </trkpt>
      <trkpt lat="44.46324" lon="6.53879">
        <ele>2109</ele>
        <time>2021-02-21T05:48:27Z</time>
      </trkpt>
      <trkpt lat="44.46323" lon="6.53878">
        <ele>2109</ele>
        <time>2021-02-21T05:48:28Z</time>
      </trkpt>
      <trkpt lat="44.46322" lon="6.53877">
        <ele>2109</ele>
        <time>2021-02-21T05:48:29Z</time>
      </trkpt>
      <trkpt lat="44.46322" lon="6.53877">
        <ele>2109</ele>
        <time>2021-02-21T05:48:30Z</time>
      </trkpt>
      <trkpt lat="44.46322" lon="6.53876">
        <ele>2110</ele>
        <time>2021-02-21T05:48:31Z</time>
      </trkpt>
      <trkpt lat="44.46321" lon="6.53875">
        <ele>2110</ele>
        <time>2021-02-21T05:48:32Z</time>
      </trkpt>
      <trkpt lat="44.46321" lon="6.53874">
        <ele>2110</ele>
        <time>2021-02-21T05:48:33Z</time>
      </trkpt>
      <trkpt lat="44.4632" lon="6.53874">
        <ele>2110</ele>
        <time>2021-02-21T05:48:34Z</time>
      </trkpt>
      <trkpt lat="44.46319" lon="6.53872">
        <ele>2110</ele>
        <time>2021-02-21T05:48:35Z</time>
      </trkpt>
      <trkpt lat="44.46319" lon="6.53872">
        <ele>2110</ele>
        <time>2021-02-21T05:48:36Z</time>
      </trkpt>
      <trkpt lat="44.46318" lon="6.5387">
        <ele>2110</ele>
        <time>2021-02-21T05:48:37Z</time>
      </trkpt>
      <trkpt lat="44.46318" lon="6.53869">
        <ele>2110</ele>
        <time>2021-02-21T05:48:38Z</time>
      </trkpt>
      <trkpt lat="44.46317" lon="6.53869">
        <ele>2110</ele>
        <time>2021-02-21T05:48:39Z</time>
      </trkpt>
      <trkpt lat="44.46316" lon="6.53868">
        <ele>2110</ele>
        <time>2021-02-21T05:48:40Z</time>
      </trkpt>
      <trkpt lat="44.46315" lon="6.53867">
        <ele>2111</ele>
        <time>2021-02-21T05:48:41Z</time>
      </trkpt>
      <trkpt lat="44.46314" lon="6.53866">
        <ele>2111</ele>
        <time>2021-02-21T05:48:42Z</time>
      </trkpt>
      <trkpt lat="44.46313" lon="6.53865">
        <ele>2111</ele>
        <time>2021-02-21T05:48:43Z</time>
      </trkpt>
      <trkpt lat="44.46312" lon="6.53864">
        <ele>2111</ele>
        <time>2021-02-21T05:48:44Z</time>
      </trkpt>
      <trkpt lat="44.46312" lon="6.53863">
        <ele>2111</ele>
        <time>2021-02-21T05:48:45Z</time>
      </trkpt>
      <trkpt lat="44.46311" lon="6.53862">
        <ele>2111</ele>
        <time>2021-02-21T05:48:46Z</time>
      </trkpt>
      <trkpt lat="44.46311" lon="6.53861">
        <ele>2111</ele>
        <time>2021-02-21T05:48:47Z</time>
      </trkpt>
      <trkpt lat="44.4631" lon="6.5386">
        <ele>2112</ele>
        <time>2021-02-21T05:48:48Z</time>
      </trkpt>
      <trkpt lat="44.4631" lon="6.53859">
        <ele>2112</ele>
        <time>2021-02-21T05:48:49Z</time>
      </trkpt>
      <trkpt lat="44.4631" lon="6.53858">
        <ele>2112</ele>
        <time>2021-02-21T05:48:50Z</time>
      </trkpt>
      <trkpt lat="44.4631" lon="6.53859">
        <ele>2112</ele>
        <time>2021-02-21T05:48:51Z</time>
      </trkpt>
      <trkpt lat="44.4631" lon="6.53859">
        <ele>2112</ele>
        <time>2021-02-21T05:48:52Z</time>
      </trkpt>
      <trkpt lat="44.4631" lon="6.53859">
        <ele>2112</ele>
        <time>2021-02-21T05:48:53Z</time>
      </trkpt>
      <trkpt lat="44.4631" lon="6.53859">
        <ele>2112</ele>
        <time>2021-02-21T05:48:54Z</time>
      </trkpt>
      <trkpt lat="44.46309" lon="6.53859">
        <ele>2112</ele>
        <time>2021-02-21T05:48:55Z</time>
      </trkpt>
      <trkpt lat="44.46309" lon="6.5386">
        <ele>2112</ele>
        <time>2021-02-21T05:48:56Z</time>
      </trkpt>
      <trkpt lat="44.46309" lon="6.5386">
        <ele>2112</ele>
        <time>2021-02-21T05:48:57Z</time>
      </trkpt>
      <trkpt lat="44.46309" lon="6.5386">
        <ele>2112</ele>
        <time>2021-02-21T05:48:58Z</time>
      </trkpt>
      <trkpt lat="44.46309" lon="6.5386">
        <ele>2112</ele>
        <time>2021-02-21T05:48:59Z</time>
      </trkpt>
      <trkpt lat="44.46309" lon="6.5386">
        <ele>2112</ele>
        <time>2021-02-21T05:49:00Z</time>
      </trkpt>
      <trkpt lat="44.46309" lon="6.5386">
        <ele>2112</ele>
        <time>2021-02-21T05:49:01Z</time>
      </trkpt>
      <trkpt lat="44.46309" lon="6.5386">
        <ele>2112</ele>
        <time>2021-02-21T05:49:02Z</time>
      </trkpt>
      <trkpt lat="44.46309" lon="6.5386">
        <ele>2112</ele>
        <time>2021-02-21T05:49:03Z</time>
      </trkpt>
      <trkpt lat="44.46309" lon="6.5386">
        <ele>2112</ele>
        <time>2021-02-21T05:49:04Z</time>
      </trkpt>
      <trkpt lat="44.46309" lon="6.5386">
        <ele>2112</ele>
        <time>2021-02-21T05:49:05Z</time>
      </trkpt>
      <trkpt lat="44.46309" lon="6.5386">
        <ele>2112</ele>
        <time>2021-02-21T05:49:06Z</time>
      </trkpt>
      <trkpt lat="44.46309" lon="6.53861">
        <ele>2112</ele>
        <time>2021-02-21T05:49:07Z</time>
      </trkpt>
      <trkpt lat="44.46308" lon="6.5386">
        <ele>2112</ele>
        <time>2021-02-21T05:49:08Z</time>
      </trkpt>
      <trkpt lat="44.46308" lon="6.53858">
        <ele>2112</ele>
        <time>2021-02-21T05:49:09Z</time>
      </trkpt>
      <trkpt lat="44.46308" lon="6.53857">
        <ele>2112</ele>
        <time>2021-02-21T05:49:10Z</time>
      </trkpt>
      <trkpt lat="44.46307" lon="6.53857">
        <ele>2111</ele>
        <time>2021-02-21T05:49:11Z</time>
      </trkpt>
      <trkpt lat="44.46306" lon="6.53856">
        <ele>2111</ele>
        <time>2021-02-21T05:49:12Z</time>
      </trkpt>
      <trkpt lat="44.46305" lon="6.53856">
        <ele>2111</ele>
        <time>2021-02-21T05:49:13Z</time>
      </trkpt>
      <trkpt lat="44.46304" lon="6.53856">
        <ele>2111</ele>
        <time>2021-02-21T05:49:14Z</time>
      </trkpt>
      <trkpt lat="44.46304" lon="6.53855">
        <ele>2111</ele>
        <time>2021-02-21T05:49:15Z</time>
      </trkpt>
      <trkpt lat="44.46303" lon="6.53854">
        <ele>2111</ele>
        <time>2021-02-21T05:49:16Z</time>
      </trkpt>
      <trkpt lat="44.46302" lon="6.53854">
        <ele>2111</ele>
        <time>2021-02-21T05:49:17Z</time>
      </trkpt>
      <trkpt lat="44.46301" lon="6.53853">
        <ele>2111</ele>
        <time>2021-02-21T05:49:18Z</time>
      </trkpt>
      <trkpt lat="44.463" lon="6.53853">
        <ele>2111</ele>
        <time>2021-02-21T05:49:19Z</time>
      </trkpt>
      <trkpt lat="44.463" lon="6.53853">
        <ele>2111</ele>
        <time>2021-02-21T05:49:20Z</time>
      </trkpt>
      <trkpt lat="44.46299" lon="6.53853">
        <ele>2111</ele>
        <time>2021-02-21T05:49:21Z</time>
      </trkpt>
      <trkpt lat="44.46298" lon="6.53852">
        <ele>2111</ele>
        <time>2021-02-21T05:49:22Z</time>
      </trkpt>
      <trkpt lat="44.46297" lon="6.53852">
        <ele>2111</ele>
        <time>2021-02-21T05:49:23Z</time>
      </trkpt>
      <trkpt lat="44.46297" lon="6.53851">
        <ele>2111</ele>
        <time>2021-02-21T05:49:24Z</time>
      </trkpt>
      <trkpt lat="44.46296" lon="6.53851">
        <ele>2111</ele>
        <time>2021-02-21T05:49:25Z</time>
      </trkpt>
      <trkpt lat="44.46296" lon="6.53851">
        <ele>2111</ele>
        <time>2021-02-21T05:49:26Z</time>
      </trkpt>
      <trkpt lat="44.46295" lon="6.5385">
        <ele>2110</ele>
        <time>2021-02-21T05:49:27Z</time>
      </trkpt>
      <trkpt lat="44.46295" lon="6.53848">
        <ele>2110</ele>
        <time>2021-02-21T05:49:28Z</time>
      </trkpt>
      <trkpt lat="44.46295" lon="6.53847">
        <ele>2110</ele>
        <time>2021-02-21T05:49:29Z</time>
      </trkpt>
      <trkpt lat="44.46294" lon="6.53846">
        <ele>2110</ele>
        <time>2021-02-21T05:49:30Z</time>
      </trkpt>
      <trkpt lat="44.46294" lon="6.53844">
        <ele>2110</ele>
        <time>2021-02-21T05:49:31Z</time>
      </trkpt>
      <trkpt lat="44.46294" lon="6.53842">
        <ele>2111</ele>
        <time>2021-02-21T05:49:32Z</time>
      </trkpt>
      <trkpt lat="44.46294" lon="6.53841">
        <ele>2111</ele>
        <time>2021-02-21T05:49:33Z</time>
      </trkpt>
      <trkpt lat="44.46294" lon="6.53841">
        <ele>2111</ele>
        <time>2021-02-21T05:49:34Z</time>
      </trkpt>
      <trkpt lat="44.46293" lon="6.5384">
        <ele>2111</ele>
        <time>2021-02-21T05:49:35Z</time>
      </trkpt>
      <trkpt lat="44.46293" lon="6.5384">
        <ele>2111</ele>
        <time>2021-02-21T05:49:36Z</time>
      </trkpt>
      <trkpt lat="44.46293" lon="6.5384">
        <ele>2111</ele>
        <time>2021-02-21T05:49:37Z</time>
      </trkpt>
      <trkpt lat="44.46292" lon="6.5384">
        <ele>2111</ele>
        <time>2021-02-21T05:49:38Z</time>
      </trkpt>
      <trkpt lat="44.46292" lon="6.53839">
        <ele>2111</ele>
        <time>2021-02-21T05:49:39Z</time>
      </trkpt>
      <trkpt lat="44.46292" lon="6.53839">
        <ele>2111</ele>
        <time>2021-02-21T05:49:40Z</time>
      </trkpt>
      <trkpt lat="44.46291" lon="6.53839">
        <ele>2111</ele>
        <time>2021-02-21T05:49:41Z</time>
      </trkpt>
      <trkpt lat="44.46291" lon="6.53839">
        <ele>2111</ele>
        <time>2021-02-21T05:49:42Z</time>
      </trkpt>
      <trkpt lat="44.46291" lon="6.53838">
        <ele>2111</ele>
        <time>2021-02-21T05:49:43Z</time>
      </trkpt>
      <trkpt lat="44.46291" lon="6.53838">
        <ele>2111</ele>
        <time>2021-02-21T05:49:44Z</time>
      </trkpt>
      <trkpt lat="44.46291" lon="6.53837">
        <ele>2111</ele>
        <time>2021-02-21T05:49:45Z</time>
      </trkpt>
      <trkpt lat="44.46291" lon="6.53837">
        <ele>2111</ele>
        <time>2021-02-21T05:49:46Z</time>
      </trkpt>
      <trkpt lat="44.46291" lon="6.53837">
        <ele>2111</ele>
        <time>2021-02-21T05:49:47Z</time>
      </trkpt>
      <trkpt lat="44.46291" lon="6.53837">
        <ele>2111</ele>
        <time>2021-02-21T05:49:48Z</time>
      </trkpt>
      <trkpt lat="44.46291" lon="6.53837">
        <ele>2111</ele>
        <time>2021-02-21T05:49:49Z</time>
      </trkpt>
      <trkpt lat="44.46291" lon="6.53837">
        <ele>2111</ele>
        <time>2021-02-21T05:49:50Z</time>
      </trkpt>
      <trkpt lat="44.46291" lon="6.53837">
        <ele>2111</ele>
        <time>2021-02-21T05:49:51Z</time>
      </trkpt>
      <trkpt lat="44.46291" lon="6.53837">
        <ele>2111</ele>
        <time>2021-02-21T05:49:52Z</time>
      </trkpt>
      <trkpt lat="44.46291" lon="6.53837">
        <ele>2111</ele>
        <time>2021-02-21T05:49:53Z</time>
      </trkpt>
      <trkpt lat="44.46291" lon="6.53837">
        <ele>2111</ele>
        <time>2021-02-21T05:49:54Z</time>
      </trkpt>
      <trkpt lat="44.46291" lon="6.53837">
        <ele>2111</ele>
        <time>2021-02-21T05:49:55Z</time>
      </trkpt>
      <trkpt lat="44.46291" lon="6.53837">
        <ele>2111</ele>
        <time>2021-02-21T05:49:56Z</time>
      </trkpt>
      <trkpt lat="44.46291" lon="6.53837">
        <ele>2111</ele>
        <time>2021-02-21T05:49:57Z</time>
      </trkpt>
      <trkpt lat="44.46291" lon="6.53837">
        <ele>2111</ele>
        <time>2021-02-21T05:49:58Z</time>
      </trkpt>
      <trkpt lat="44.46291" lon="6.53837">
        <ele>2111</ele>
        <time>2021-02-21T05:49:59Z</time>
      </trkpt>
      <trkpt lat="44.46291" lon="6.53835">
        <ele>2111</ele>
        <time>2021-02-21T05:50:00Z</time>
      </trkpt>
      <trkpt lat="44.46291" lon="6.53835">
        <ele>2111</ele>
        <time>2021-02-21T05:50:01Z</time>
      </trkpt>
      <trkpt lat="44.46291" lon="6.53835">
        <ele>2111</ele>
        <time>2021-02-21T05:50:02Z</time>
      </trkpt>
      <trkpt lat="44.46291" lon="6.53835">
        <ele>2111</ele>
        <time>2021-02-21T05:50:03Z</time>
      </trkpt>
      <trkpt lat="44.46291" lon="6.53835">
        <ele>2111</ele>
        <time>2021-02-21T05:50:04Z</time>
      </trkpt>
      <trkpt lat="44.4629" lon="6.53832">
        <ele>2111</ele>
        <time>2021-02-21T05:50:05Z</time>
      </trkpt>
      <trkpt lat="44.46289" lon="6.53831">
        <ele>2111</ele>
        <time>2021-02-21T05:50:06Z</time>
      </trkpt>
      <trkpt lat="44.46288" lon="6.5383">
        <ele>2111</ele>
        <time>2021-02-21T05:50:07Z</time>
      </trkpt>
      <trkpt lat="44.46287" lon="6.53829">
        <ele>2111</ele>
        <time>2021-02-21T05:50:08Z</time>
      </trkpt>
      <trkpt lat="44.46287" lon="6.53828">
        <ele>2111</ele>
        <time>2021-02-21T05:50:09Z</time>
      </trkpt>
      <trkpt lat="44.46286" lon="6.53826">
        <ele>2111</ele>
        <time>2021-02-21T05:50:10Z</time>
      </trkpt>
      <trkpt lat="44.46285" lon="6.53825">
        <ele>2111</ele>
        <time>2021-02-21T05:50:11Z</time>
      </trkpt>
      <trkpt lat="44.46285" lon="6.53825">
        <ele>2111</ele>
        <time>2021-02-21T05:50:12Z</time>
      </trkpt>
      <trkpt lat="44.46284" lon="6.53824">
        <ele>2111</ele>
        <time>2021-02-21T05:50:13Z</time>
      </trkpt>
      <trkpt lat="44.46284" lon="6.53823">
        <ele>2111</ele>
        <time>2021-02-21T05:50:14Z</time>
      </trkpt>
      <trkpt lat="44.46284" lon="6.53823">
        <ele>2111</ele>
        <time>2021-02-21T05:50:15Z</time>
      </trkpt>
      <trkpt lat="44.46283" lon="6.53821">
        <ele>2111</ele>
        <time>2021-02-21T05:50:16Z</time>
      </trkpt>
      <trkpt lat="44.46283" lon="6.5382">
        <ele>2111</ele>
        <time>2021-02-21T05:50:17Z</time>
      </trkpt>
      <trkpt lat="44.46283" lon="6.5382">
        <ele>2111</ele>
        <time>2021-02-21T05:50:18Z</time>
      </trkpt>
      <trkpt lat="44.46282" lon="6.53818">
        <ele>2111</ele>
        <time>2021-02-21T05:50:19Z</time>
      </trkpt>
      <trkpt lat="44.46282" lon="6.53818">
        <ele>2111</ele>
        <time>2021-02-21T05:50:20Z</time>
      </trkpt>
      <trkpt lat="44.46281" lon="6.53817">
        <ele>2111</ele>
        <time>2021-02-21T05:50:21Z</time>
      </trkpt>
      <trkpt lat="44.4628" lon="6.53816">
        <ele>2111</ele>
        <time>2021-02-21T05:50:22Z</time>
      </trkpt>
      <trkpt lat="44.4628" lon="6.53816">
        <ele>2111</ele>
        <time>2021-02-21T05:50:23Z</time>
      </trkpt>
      <trkpt lat="44.46279" lon="6.53816">
        <ele>2111</ele>
        <time>2021-02-21T05:50:24Z</time>
      </trkpt>
      <trkpt lat="44.46278" lon="6.53815">
        <ele>2111</ele>
        <time>2021-02-21T05:50:25Z</time>
      </trkpt>
      <trkpt lat="44.46277" lon="6.53814">
        <ele>2111</ele>
        <time>2021-02-21T05:50:26Z</time>
      </trkpt>
      <trkpt lat="44.46276" lon="6.53814">
        <ele>2111</ele>
        <time>2021-02-21T05:50:27Z</time>
      </trkpt>
      <trkpt lat="44.46275" lon="6.53812">
        <ele>2111</ele>
        <time>2021-02-21T05:50:28Z</time>
      </trkpt>
      <trkpt lat="44.46274" lon="6.53811">
        <ele>2111</ele>
        <time>2021-02-21T05:50:29Z</time>
      </trkpt>
      <trkpt lat="44.46273" lon="6.5381">
        <ele>2111</ele>
        <time>2021-02-21T05:50:30Z</time>
      </trkpt>
      <trkpt lat="44.46272" lon="6.53809">
        <ele>2112</ele>
        <time>2021-02-21T05:50:31Z</time>
      </trkpt>
      <trkpt lat="44.46272" lon="6.53808">
        <ele>2112</ele>
        <time>2021-02-21T05:50:32Z</time>
      </trkpt>
      <trkpt lat="44.46271" lon="6.53807">
        <ele>2112</ele>
        <time>2021-02-21T05:50:33Z</time>
      </trkpt>
      <trkpt lat="44.4627" lon="6.53806">
        <ele>2112</ele>
        <time>2021-02-21T05:50:34Z</time>
      </trkpt>
      <trkpt lat="44.4627" lon="6.53806">
        <ele>2112</ele>
        <time>2021-02-21T05:50:35Z</time>
      </trkpt>
      <trkpt lat="44.46269" lon="6.53805">
        <ele>2112</ele>
        <time>2021-02-21T05:50:36Z</time>
      </trkpt>
      <trkpt lat="44.46269" lon="6.53804">
        <ele>2113</ele>
        <time>2021-02-21T05:50:37Z</time>
      </trkpt>
      <trkpt lat="44.46268" lon="6.53803">
        <ele>2113</ele>
        <time>2021-02-21T05:50:38Z</time>
      </trkpt>
      <trkpt lat="44.46268" lon="6.53803">
        <ele>2113</ele>
        <time>2021-02-21T05:50:39Z</time>
      </trkpt>
      <trkpt lat="44.46267" lon="6.53802">
        <ele>2113</ele>
        <time>2021-02-21T05:50:40Z</time>
      </trkpt>
      <trkpt lat="44.46267" lon="6.53801">
        <ele>2113</ele>
        <time>2021-02-21T05:50:41Z</time>
      </trkpt>
      <trkpt lat="44.46266" lon="6.538">
        <ele>2114</ele>
        <time>2021-02-21T05:50:42Z</time>
      </trkpt>
      <trkpt lat="44.46266" lon="6.53799">
        <ele>2114</ele>
        <time>2021-02-21T05:50:43Z</time>
      </trkpt>
      <trkpt lat="44.46265" lon="6.53798">
        <ele>2114</ele>
        <time>2021-02-21T05:50:44Z</time>
      </trkpt>
      <trkpt lat="44.46265" lon="6.53797">
        <ele>2114</ele>
        <time>2021-02-21T05:50:45Z</time>
      </trkpt>
      <trkpt lat="44.46264" lon="6.53797">
        <ele>2114</ele>
        <time>2021-02-21T05:50:46Z</time>
      </trkpt>
      <trkpt lat="44.46264" lon="6.53796">
        <ele>2115</ele>
        <time>2021-02-21T05:50:47Z</time>
      </trkpt>
      <trkpt lat="44.46263" lon="6.53796">
        <ele>2115</ele>
        <time>2021-02-21T05:50:48Z</time>
      </trkpt>
      <trkpt lat="44.46262" lon="6.53795">
        <ele>2115</ele>
        <time>2021-02-21T05:50:49Z</time>
      </trkpt>
      <trkpt lat="44.46262" lon="6.53794">
        <ele>2115</ele>
        <time>2021-02-21T05:50:50Z</time>
      </trkpt>
      <trkpt lat="44.46262" lon="6.53793">
        <ele>2115</ele>
        <time>2021-02-21T05:50:51Z</time>
      </trkpt>
      <trkpt lat="44.46261" lon="6.53793">
        <ele>2116</ele>
        <time>2021-02-21T05:50:52Z</time>
      </trkpt>
      <trkpt lat="44.46261" lon="6.53792">
        <ele>2116</ele>
        <time>2021-02-21T05:50:53Z</time>
      </trkpt>
      <trkpt lat="44.46261" lon="6.53791">
        <ele>2116</ele>
        <time>2021-02-21T05:50:54Z</time>
      </trkpt>
      <trkpt lat="44.46262" lon="6.53789">
        <ele>2116</ele>
        <time>2021-02-21T05:50:55Z</time>
      </trkpt>
      <trkpt lat="44.46262" lon="6.53788">
        <ele>2116</ele>
        <time>2021-02-21T05:50:56Z</time>
      </trkpt>
      <trkpt lat="44.46262" lon="6.53786">
        <ele>2117</ele>
        <time>2021-02-21T05:50:57Z</time>
      </trkpt>
      <trkpt lat="44.46262" lon="6.53786">
        <ele>2117</ele>
        <time>2021-02-21T05:50:58Z</time>
      </trkpt>
      <trkpt lat="44.46261" lon="6.53785">
        <ele>2118</ele>
        <time>2021-02-21T05:50:59Z</time>
      </trkpt>
      <trkpt lat="44.4626" lon="6.53785">
        <ele>2118</ele>
        <time>2021-02-21T05:51:00Z</time>
      </trkpt>
      <trkpt lat="44.4626" lon="6.53784">
        <ele>2118</ele>
        <time>2021-02-21T05:51:01Z</time>
      </trkpt>
      <trkpt lat="44.46259" lon="6.53783">
        <ele>2118</ele>
        <time>2021-02-21T05:51:02Z</time>
      </trkpt>
      <trkpt lat="44.46259" lon="6.53783">
        <ele>2118</ele>
        <time>2021-02-21T05:51:03Z</time>
      </trkpt>
      <trkpt lat="44.46258" lon="6.53782">
        <ele>2118</ele>
        <time>2021-02-21T05:51:04Z</time>
      </trkpt>
      <trkpt lat="44.46258" lon="6.53781">
        <ele>2118</ele>
        <time>2021-02-21T05:51:05Z</time>
      </trkpt>
      <trkpt lat="44.46258" lon="6.5378">
        <ele>2119</ele>
        <time>2021-02-21T05:51:06Z</time>
      </trkpt>
      <trkpt lat="44.46258" lon="6.53779">
        <ele>2119</ele>
        <time>2021-02-21T05:51:07Z</time>
      </trkpt>
      <trkpt lat="44.46258" lon="6.53778">
        <ele>2119</ele>
        <time>2021-02-21T05:51:08Z</time>
      </trkpt>
      <trkpt lat="44.46257" lon="6.53777">
        <ele>2119</ele>
        <time>2021-02-21T05:51:09Z</time>
      </trkpt>
      <trkpt lat="44.46257" lon="6.53776">
        <ele>2119</ele>
        <time>2021-02-21T05:51:10Z</time>
      </trkpt>
      <trkpt lat="44.46257" lon="6.53774">
        <ele>2119</ele>
        <time>2021-02-21T05:51:11Z</time>
      </trkpt>
      <trkpt lat="44.46256" lon="6.53773">
        <ele>2120</ele>
        <time>2021-02-21T05:51:12Z</time>
      </trkpt>
      <trkpt lat="44.46255" lon="6.53772">
        <ele>2120</ele>
        <time>2021-02-21T05:51:13Z</time>
      </trkpt>
      <trkpt lat="44.46255" lon="6.53771">
        <ele>2120</ele>
        <time>2021-02-21T05:51:14Z</time>
      </trkpt>
      <trkpt lat="44.46255" lon="6.5377">
        <ele>2120</ele>
        <time>2021-02-21T05:51:15Z</time>
      </trkpt>
      <trkpt lat="44.46254" lon="6.5377">
        <ele>2120</ele>
        <time>2021-02-21T05:51:16Z</time>
      </trkpt>
      <trkpt lat="44.46253" lon="6.53769">
        <ele>2121</ele>
        <time>2021-02-21T05:51:17Z</time>
      </trkpt>
      <trkpt lat="44.46253" lon="6.53768">
        <ele>2121</ele>
        <time>2021-02-21T05:51:18Z</time>
      </trkpt>
      <trkpt lat="44.46253" lon="6.53767">
        <ele>2121</ele>
        <time>2021-02-21T05:51:19Z</time>
      </trkpt>
      <trkpt lat="44.46252" lon="6.53766">
        <ele>2122</ele>
        <time>2021-02-21T05:51:20Z</time>
      </trkpt>
      <trkpt lat="44.46251" lon="6.53765">
        <ele>2122</ele>
        <time>2021-02-21T05:51:21Z</time>
      </trkpt>
      <trkpt lat="44.4625" lon="6.53764">
        <ele>2122</ele>
        <time>2021-02-21T05:51:22Z</time>
      </trkpt>
      <trkpt lat="44.4625" lon="6.53763">
        <ele>2122</ele>
        <time>2021-02-21T05:51:23Z</time>
      </trkpt>
      <trkpt lat="44.46249" lon="6.53762">
        <ele>2123</ele>
        <time>2021-02-21T05:51:24Z</time>
      </trkpt>
      <trkpt lat="44.46249" lon="6.53761">
        <ele>2123</ele>
        <time>2021-02-21T05:51:25Z</time>
      </trkpt>
      <trkpt lat="44.46248" lon="6.5376">
        <ele>2123</ele>
        <time>2021-02-21T05:51:26Z</time>
      </trkpt>
      <trkpt lat="44.46248" lon="6.53759">
        <ele>2123</ele>
        <time>2021-02-21T05:51:27Z</time>
      </trkpt>
      <trkpt lat="44.46248" lon="6.53758">
        <ele>2123</ele>
        <time>2021-02-21T05:51:28Z</time>
      </trkpt>
      <trkpt lat="44.46248" lon="6.53757">
        <ele>2123</ele>
        <time>2021-02-21T05:51:29Z</time>
      </trkpt>
      <trkpt lat="44.46247" lon="6.53756">
        <ele>2124</ele>
        <time>2021-02-21T05:51:30Z</time>
      </trkpt>
      <trkpt lat="44.46247" lon="6.53754">
        <ele>2124</ele>
        <time>2021-02-21T05:51:31Z</time>
      </trkpt>
      <trkpt lat="44.46247" lon="6.53753">
        <ele>2124</ele>
        <time>2021-02-21T05:51:32Z</time>
      </trkpt>
      <trkpt lat="44.46246" lon="6.53751">
        <ele>2124</ele>
        <time>2021-02-21T05:51:33Z</time>
      </trkpt>
      <trkpt lat="44.46246" lon="6.5375">
        <ele>2124</ele>
        <time>2021-02-21T05:51:34Z</time>
      </trkpt>
      <trkpt lat="44.46245" lon="6.53749">
        <ele>2124</ele>
        <time>2021-02-21T05:51:35Z</time>
      </trkpt>
      <trkpt lat="44.46244" lon="6.53748">
        <ele>2124</ele>
        <time>2021-02-21T05:51:36Z</time>
      </trkpt>
      <trkpt lat="44.46245" lon="6.53748">
        <ele>2124</ele>
        <time>2021-02-21T05:51:37Z</time>
      </trkpt>
      <trkpt lat="44.46245" lon="6.53748">
        <ele>2124</ele>
        <time>2021-02-21T05:51:38Z</time>
      </trkpt>
      <trkpt lat="44.46245" lon="6.53748">
        <ele>2124</ele>
        <time>2021-02-21T05:51:39Z</time>
      </trkpt>
      <trkpt lat="44.46245" lon="6.53747">
        <ele>2124</ele>
        <time>2021-02-21T05:51:40Z</time>
      </trkpt>
      <trkpt lat="44.46245" lon="6.53748">
        <ele>2124</ele>
        <time>2021-02-21T05:51:41Z</time>
      </trkpt>
      <trkpt lat="44.46245" lon="6.53749">
        <ele>2124</ele>
        <time>2021-02-21T05:51:42Z</time>
      </trkpt>
      <trkpt lat="44.46245" lon="6.53749">
        <ele>2124</ele>
        <time>2021-02-21T05:51:43Z</time>
      </trkpt>
      <trkpt lat="44.46244" lon="6.53748">
        <ele>2124</ele>
        <time>2021-02-21T05:51:44Z</time>
      </trkpt>
      <trkpt lat="44.46244" lon="6.53748">
        <ele>2124</ele>
        <time>2021-02-21T05:51:45Z</time>
      </trkpt>
      <trkpt lat="44.46244" lon="6.53747">
        <ele>2124</ele>
        <time>2021-02-21T05:51:46Z</time>
      </trkpt>
      <trkpt lat="44.46245" lon="6.53746">
        <ele>2124</ele>
        <time>2021-02-21T05:51:47Z</time>
      </trkpt>
      <trkpt lat="44.46244" lon="6.53745">
        <ele>2124</ele>
        <time>2021-02-21T05:51:48Z</time>
      </trkpt>
      <trkpt lat="44.46244" lon="6.53744">
        <ele>2124</ele>
        <time>2021-02-21T05:51:49Z</time>
      </trkpt>
      <trkpt lat="44.46241" lon="6.53739">
        <ele>2129</ele>
        <time>2021-02-21T05:51:50Z</time>
      </trkpt>
      <trkpt lat="44.46241" lon="6.53738">
        <ele>2130</ele>
        <time>2021-02-21T05:51:51Z</time>
      </trkpt>
      <trkpt lat="44.4624" lon="6.53736">
        <ele>2131</ele>
        <time>2021-02-21T05:51:52Z</time>
      </trkpt>
      <trkpt lat="44.46239" lon="6.53735">
        <ele>2132</ele>
        <time>2021-02-21T05:51:53Z</time>
      </trkpt>
      <trkpt lat="44.46238" lon="6.53734">
        <ele>2133</ele>
        <time>2021-02-21T05:51:54Z</time>
      </trkpt>
      <trkpt lat="44.46238" lon="6.53732">
        <ele>2133</ele>
        <time>2021-02-21T05:51:55Z</time>
      </trkpt>
      <trkpt lat="44.46238" lon="6.53731">
        <ele>2133</ele>
        <time>2021-02-21T05:51:56Z</time>
      </trkpt>
      <trkpt lat="44.46238" lon="6.5373">
        <ele>2133</ele>
        <time>2021-02-21T05:51:57Z</time>
      </trkpt>
      <trkpt lat="44.46237" lon="6.53728">
        <ele>2134</ele>
        <time>2021-02-21T05:51:58Z</time>
      </trkpt>
      <trkpt lat="44.46236" lon="6.53726">
        <ele>2134</ele>
        <time>2021-02-21T05:51:59Z</time>
      </trkpt>
      <trkpt lat="44.46236" lon="6.53725">
        <ele>2134</ele>
        <time>2021-02-21T05:52:00Z</time>
      </trkpt>
      <trkpt lat="44.46235" lon="6.53723">
        <ele>2135</ele>
        <time>2021-02-21T05:52:01Z</time>
      </trkpt>
      <trkpt lat="44.46235" lon="6.53723">
        <ele>2135</ele>
        <time>2021-02-21T05:52:02Z</time>
      </trkpt>
      <trkpt lat="44.46234" lon="6.53722">
        <ele>2135</ele>
        <time>2021-02-21T05:52:03Z</time>
      </trkpt>
      <trkpt lat="44.46234" lon="6.53722">
        <ele>2135</ele>
        <time>2021-02-21T05:52:04Z</time>
      </trkpt>
      <trkpt lat="44.46233" lon="6.53721">
        <ele>2135</ele>
        <time>2021-02-21T05:52:05Z</time>
      </trkpt>
      <trkpt lat="44.46234" lon="6.5372">
        <ele>2136</ele>
        <time>2021-02-21T05:52:06Z</time>
      </trkpt>
      <trkpt lat="44.46234" lon="6.5372">
        <ele>2136</ele>
        <time>2021-02-21T05:52:07Z</time>
      </trkpt>
      <trkpt lat="44.46233" lon="6.5372">
        <ele>2136</ele>
        <time>2021-02-21T05:52:08Z</time>
      </trkpt>
      <trkpt lat="44.46232" lon="6.53721">
        <ele>2136</ele>
        <time>2021-02-21T05:52:09Z</time>
      </trkpt>
      <trkpt lat="44.46231" lon="6.53721">
        <ele>2136</ele>
        <time>2021-02-21T05:52:10Z</time>
      </trkpt>
      <trkpt lat="44.4623" lon="6.53721">
        <ele>2136</ele>
        <time>2021-02-21T05:52:11Z</time>
      </trkpt>
      <trkpt lat="44.46229" lon="6.5372">
        <ele>2136</ele>
        <time>2021-02-21T05:52:12Z</time>
      </trkpt>
      <trkpt lat="44.46228" lon="6.53721">
        <ele>2136</ele>
        <time>2021-02-21T05:52:13Z</time>
      </trkpt>
      <trkpt lat="44.46228" lon="6.53721">
        <ele>2136</ele>
        <time>2021-02-21T05:52:14Z</time>
      </trkpt>
      <trkpt lat="44.46226" lon="6.53722">
        <ele>2136</ele>
        <time>2021-02-21T05:52:15Z</time>
      </trkpt>
      <trkpt lat="44.46226" lon="6.53722">
        <ele>2136</ele>
        <time>2021-02-21T05:52:16Z</time>
      </trkpt>
      <trkpt lat="44.46225" lon="6.53722">
        <ele>2136</ele>
        <time>2021-02-21T05:52:17Z</time>
      </trkpt>
      <trkpt lat="44.46224" lon="6.53722">
        <ele>2136</ele>
        <time>2021-02-21T05:52:18Z</time>
      </trkpt>
      <trkpt lat="44.46223" lon="6.53722">
        <ele>2136</ele>
        <time>2021-02-21T05:52:19Z</time>
      </trkpt>
      <trkpt lat="44.46222" lon="6.53723">
        <ele>2136</ele>
        <time>2021-02-21T05:52:20Z</time>
      </trkpt>
      <trkpt lat="44.46222" lon="6.53723">
        <ele>2136</ele>
        <time>2021-02-21T05:52:21Z</time>
      </trkpt>
      <trkpt lat="44.46221" lon="6.53724">
        <ele>2136</ele>
        <time>2021-02-21T05:52:22Z</time>
      </trkpt>
      <trkpt lat="44.4622" lon="6.53724">
        <ele>2136</ele>
        <time>2021-02-21T05:52:23Z</time>
      </trkpt>
      <trkpt lat="44.46219" lon="6.53725">
        <ele>2137</ele>
        <time>2021-02-21T05:52:24Z</time>
      </trkpt>
      <trkpt lat="44.46218" lon="6.53725">
        <ele>2137</ele>
        <time>2021-02-21T05:52:25Z</time>
      </trkpt>
      <trkpt lat="44.46217" lon="6.53726">
        <ele>2137</ele>
        <time>2021-02-21T05:52:26Z</time>
      </trkpt>
      <trkpt lat="44.46217" lon="6.53726">
        <ele>2137</ele>
        <time>2021-02-21T05:52:27Z</time>
      </trkpt>
      <trkpt lat="44.46216" lon="6.53726">
        <ele>2137</ele>
        <time>2021-02-21T05:52:28Z</time>
      </trkpt>
      <trkpt lat="44.46215" lon="6.53727">
        <ele>2138</ele>
        <time>2021-02-21T05:52:29Z</time>
      </trkpt>
      <trkpt lat="44.46215" lon="6.53727">
        <ele>2138</ele>
        <time>2021-02-21T05:52:30Z</time>
      </trkpt>
      <trkpt lat="44.46215" lon="6.53727">
        <ele>2138</ele>
        <time>2021-02-21T05:52:31Z</time>
      </trkpt>
      <trkpt lat="44.46214" lon="6.53727">
        <ele>2138</ele>
        <time>2021-02-21T05:52:32Z</time>
      </trkpt>
      <trkpt lat="44.46213" lon="6.53727">
        <ele>2138</ele>
        <time>2021-02-21T05:52:33Z</time>
      </trkpt>
      <trkpt lat="44.46213" lon="6.53727">
        <ele>2138</ele>
        <time>2021-02-21T05:52:34Z</time>
      </trkpt>
      <trkpt lat="44.46213" lon="6.53728">
        <ele>2138</ele>
        <time>2021-02-21T05:52:35Z</time>
      </trkpt>
      <trkpt lat="44.46213" lon="6.53728">
        <ele>2139</ele>
        <time>2021-02-21T05:52:36Z</time>
      </trkpt>
      <trkpt lat="44.46212" lon="6.53727">
        <ele>2139</ele>
        <time>2021-02-21T05:52:37Z</time>
      </trkpt>
      <trkpt lat="44.46212" lon="6.53727">
        <ele>2139</ele>
        <time>2021-02-21T05:52:38Z</time>
      </trkpt>
      <trkpt lat="44.46209" lon="6.53724">
        <ele>2142</ele>
        <time>2021-02-21T05:52:39Z</time>
      </trkpt>
      <trkpt lat="44.46208" lon="6.53723">
        <ele>2143</ele>
        <time>2021-02-21T05:52:40Z</time>
      </trkpt>
      <trkpt lat="44.46208" lon="6.53722">
        <ele>2143</ele>
        <time>2021-02-21T05:52:41Z</time>
      </trkpt>
      <trkpt lat="44.46207" lon="6.5372">
        <ele>2144</ele>
        <time>2021-02-21T05:52:42Z</time>
      </trkpt>
      <trkpt lat="44.46206" lon="6.53718">
        <ele>2144</ele>
        <time>2021-02-21T05:52:43Z</time>
      </trkpt>
      <trkpt lat="44.46205" lon="6.53717">
        <ele>2144</ele>
        <time>2021-02-21T05:52:44Z</time>
      </trkpt>
      <trkpt lat="44.46205" lon="6.53715">
        <ele>2145</ele>
        <time>2021-02-21T05:52:45Z</time>
      </trkpt>
      <trkpt lat="44.46205" lon="6.53714">
        <ele>2145</ele>
        <time>2021-02-21T05:52:46Z</time>
      </trkpt>
      <trkpt lat="44.46204" lon="6.53713">
        <ele>2145</ele>
        <time>2021-02-21T05:52:47Z</time>
      </trkpt>
      <trkpt lat="44.46204" lon="6.53711">
        <ele>2145</ele>
        <time>2021-02-21T05:52:48Z</time>
      </trkpt>
      <trkpt lat="44.46204" lon="6.5371">
        <ele>2146</ele>
        <time>2021-02-21T05:52:49Z</time>
      </trkpt>
      <trkpt lat="44.46203" lon="6.53709">
        <ele>2146</ele>
        <time>2021-02-21T05:52:50Z</time>
      </trkpt>
      <trkpt lat="44.46203" lon="6.53707">
        <ele>2146</ele>
        <time>2021-02-21T05:52:51Z</time>
      </trkpt>
      <trkpt lat="44.46202" lon="6.53706">
        <ele>2146</ele>
        <time>2021-02-21T05:52:52Z</time>
      </trkpt>
      <trkpt lat="44.46202" lon="6.53704">
        <ele>2146</ele>
        <time>2021-02-21T05:52:53Z</time>
      </trkpt>
      <trkpt lat="44.46202" lon="6.53702">
        <ele>2147</ele>
        <time>2021-02-21T05:52:54Z</time>
      </trkpt>
      <trkpt lat="44.46201" lon="6.53701">
        <ele>2147</ele>
        <time>2021-02-21T05:52:55Z</time>
      </trkpt>
      <trkpt lat="44.46201" lon="6.53699">
        <ele>2147</ele>
        <time>2021-02-21T05:52:56Z</time>
      </trkpt>
      <trkpt lat="44.46201" lon="6.53698">
        <ele>2147</ele>
        <time>2021-02-21T05:52:57Z</time>
      </trkpt>
      <trkpt lat="44.462" lon="6.53696">
        <ele>2147</ele>
        <time>2021-02-21T05:52:58Z</time>
      </trkpt>
      <trkpt lat="44.462" lon="6.53696">
        <ele>2148</ele>
        <time>2021-02-21T05:52:59Z</time>
      </trkpt>
      <trkpt lat="44.46199" lon="6.53694">
        <ele>2148</ele>
        <time>2021-02-21T05:53:00Z</time>
      </trkpt>
      <trkpt lat="44.462" lon="6.53693">
        <ele>2148</ele>
        <time>2021-02-21T05:53:01Z</time>
      </trkpt>
      <trkpt lat="44.462" lon="6.53691">
        <ele>2148</ele>
        <time>2021-02-21T05:53:02Z</time>
      </trkpt>
      <trkpt lat="44.462" lon="6.5369">
        <ele>2148</ele>
        <time>2021-02-21T05:53:03Z</time>
      </trkpt>
      <trkpt lat="44.46199" lon="6.53689">
        <ele>2148</ele>
        <time>2021-02-21T05:53:04Z</time>
      </trkpt>
      <trkpt lat="44.462" lon="6.53687">
        <ele>2149</ele>
        <time>2021-02-21T05:53:05Z</time>
      </trkpt>
      <trkpt lat="44.46199" lon="6.53685">
        <ele>2149</ele>
        <time>2021-02-21T05:53:06Z</time>
      </trkpt>
      <trkpt lat="44.46199" lon="6.53684">
        <ele>2149</ele>
        <time>2021-02-21T05:53:07Z</time>
      </trkpt>
      <trkpt lat="44.46199" lon="6.53682">
        <ele>2149</ele>
        <time>2021-02-21T05:53:08Z</time>
      </trkpt>
      <trkpt lat="44.46199" lon="6.5368">
        <ele>2149</ele>
        <time>2021-02-21T05:53:09Z</time>
      </trkpt>
      <trkpt lat="44.46199" lon="6.53678">
        <ele>2149</ele>
        <time>2021-02-21T05:53:10Z</time>
      </trkpt>
      <trkpt lat="44.46199" lon="6.53676">
        <ele>2150</ele>
        <time>2021-02-21T05:53:11Z</time>
      </trkpt>
      <trkpt lat="44.46199" lon="6.53675">
        <ele>2150</ele>
        <time>2021-02-21T05:53:12Z</time>
      </trkpt>
      <trkpt lat="44.46199" lon="6.53673">
        <ele>2150</ele>
        <time>2021-02-21T05:53:13Z</time>
      </trkpt>
      <trkpt lat="44.46199" lon="6.53672">
        <ele>2151</ele>
        <time>2021-02-21T05:53:14Z</time>
      </trkpt>
      <trkpt lat="44.46199" lon="6.53671">
        <ele>2151</ele>
        <time>2021-02-21T05:53:15Z</time>
      </trkpt>
      <trkpt lat="44.46199" lon="6.53669">
        <ele>2151</ele>
        <time>2021-02-21T05:53:16Z</time>
      </trkpt>
      <trkpt lat="44.46199" lon="6.53668">
        <ele>2151</ele>
        <time>2021-02-21T05:53:17Z</time>
      </trkpt>
      <trkpt lat="44.46199" lon="6.53666">
        <ele>2151</ele>
        <time>2021-02-21T05:53:18Z</time>
      </trkpt>
      <trkpt lat="44.46199" lon="6.53665">
        <ele>2151</ele>
        <time>2021-02-21T05:53:19Z</time>
      </trkpt>
      <trkpt lat="44.46199" lon="6.53663">
        <ele>2152</ele>
        <time>2021-02-21T05:53:20Z</time>
      </trkpt>
      <trkpt lat="44.46199" lon="6.53661">
        <ele>2152</ele>
        <time>2021-02-21T05:53:21Z</time>
      </trkpt>
      <trkpt lat="44.462" lon="6.5366">
        <ele>2152</ele>
        <time>2021-02-21T05:53:22Z</time>
      </trkpt>
      <trkpt lat="44.46199" lon="6.53658">
        <ele>2152</ele>
        <time>2021-02-21T05:53:23Z</time>
      </trkpt>
      <trkpt lat="44.462" lon="6.53656">
        <ele>2152</ele>
        <time>2021-02-21T05:53:24Z</time>
      </trkpt>
      <trkpt lat="44.462" lon="6.53655">
        <ele>2152</ele>
        <time>2021-02-21T05:53:25Z</time>
      </trkpt>
      <trkpt lat="44.462" lon="6.53653">
        <ele>2152</ele>
        <time>2021-02-21T05:53:26Z</time>
      </trkpt>
      <trkpt lat="44.462" lon="6.53651">
        <ele>2152</ele>
        <time>2021-02-21T05:53:27Z</time>
      </trkpt>
      <trkpt lat="44.462" lon="6.53649">
        <ele>2151</ele>
        <time>2021-02-21T05:53:28Z</time>
      </trkpt>
      <trkpt lat="44.462" lon="6.53648">
        <ele>2151</ele>
        <time>2021-02-21T05:53:29Z</time>
      </trkpt>
      <trkpt lat="44.462" lon="6.53648">
        <ele>2151</ele>
        <time>2021-02-21T05:53:30Z</time>
      </trkpt>
      <trkpt lat="44.462" lon="6.53647">
        <ele>2151</ele>
        <time>2021-02-21T05:53:31Z</time>
      </trkpt>
      <trkpt lat="44.462" lon="6.53647">
        <ele>2151</ele>
        <time>2021-02-21T05:53:32Z</time>
      </trkpt>
      <trkpt lat="44.462" lon="6.53647">
        <ele>2151</ele>
        <time>2021-02-21T05:53:33Z</time>
      </trkpt>
      <trkpt lat="44.46199" lon="6.53647">
        <ele>2151</ele>
        <time>2021-02-21T05:53:34Z</time>
      </trkpt>
      <trkpt lat="44.46199" lon="6.53647">
        <ele>2151</ele>
        <time>2021-02-21T05:53:35Z</time>
      </trkpt>
      <trkpt lat="44.46199" lon="6.53647">
        <ele>2151</ele>
        <time>2021-02-21T05:53:36Z</time>
      </trkpt>
      <trkpt lat="44.46199" lon="6.53647">
        <ele>2151</ele>
        <time>2021-02-21T05:53:37Z</time>
      </trkpt>
      <trkpt lat="44.46199" lon="6.53647">
        <ele>2151</ele>
        <time>2021-02-21T05:53:38Z</time>
      </trkpt>
      <trkpt lat="44.46199" lon="6.53647">
        <ele>2151</ele>
        <time>2021-02-21T05:53:39Z</time>
      </trkpt>
      <trkpt lat="44.46199" lon="6.53647">
        <ele>2151</ele>
        <time>2021-02-21T05:53:40Z</time>
      </trkpt>
      <trkpt lat="44.46199" lon="6.53644">
        <ele>2151</ele>
        <time>2021-02-21T05:53:41Z</time>
      </trkpt>
      <trkpt lat="44.46199" lon="6.53643">
        <ele>2151</ele>
        <time>2021-02-21T05:53:42Z</time>
      </trkpt>
      <trkpt lat="44.46199" lon="6.53642">
        <ele>2151</ele>
        <time>2021-02-21T05:53:43Z</time>
      </trkpt>
      <trkpt lat="44.46199" lon="6.53641">
        <ele>2151</ele>
        <time>2021-02-21T05:53:44Z</time>
      </trkpt>
      <trkpt lat="44.46199" lon="6.53641">
        <ele>2151</ele>
        <time>2021-02-21T05:53:45Z</time>
      </trkpt>
      <trkpt lat="44.46199" lon="6.53641">
        <ele>2151</ele>
        <time>2021-02-21T05:53:46Z</time>
      </trkpt>
      <trkpt lat="44.46199" lon="6.53642">
        <ele>2151</ele>
        <time>2021-02-21T05:53:47Z</time>
      </trkpt>
      <trkpt lat="44.46199" lon="6.53643">
        <ele>2151</ele>
        <time>2021-02-21T05:53:48Z</time>
      </trkpt>
      <trkpt lat="44.462" lon="6.53643">
        <ele>2151</ele>
        <time>2021-02-21T05:53:49Z</time>
      </trkpt>
      <trkpt lat="44.462" lon="6.53643">
        <ele>2151</ele>
        <time>2021-02-21T05:53:50Z</time>
      </trkpt>
      <trkpt lat="44.46201" lon="6.53644">
        <ele>2151</ele>
        <time>2021-02-21T05:53:51Z</time>
      </trkpt>
      <trkpt lat="44.46201" lon="6.53643">
        <ele>2151</ele>
        <time>2021-02-21T05:53:52Z</time>
      </trkpt>
      <trkpt lat="44.46201" lon="6.53643">
        <ele>2151</ele>
        <time>2021-02-21T05:53:53Z</time>
      </trkpt>
      <trkpt lat="44.46201" lon="6.53643">
        <ele>2151</ele>
        <time>2021-02-21T05:53:54Z</time>
      </trkpt>
      <trkpt lat="44.46201" lon="6.53643">
        <ele>2151</ele>
        <time>2021-02-21T05:53:55Z</time>
      </trkpt>
      <trkpt lat="44.46201" lon="6.53643">
        <ele>2151</ele>
        <time>2021-02-21T05:53:56Z</time>
      </trkpt>
      <trkpt lat="44.46201" lon="6.53643">
        <ele>2151</ele>
        <time>2021-02-21T05:53:57Z</time>
      </trkpt>
      <trkpt lat="44.46201" lon="6.53643">
        <ele>2151</ele>
        <time>2021-02-21T05:53:58Z</time>
      </trkpt>
      <trkpt lat="44.46201" lon="6.53643">
        <ele>2151</ele>
        <time>2021-02-21T05:53:59Z</time>
      </trkpt>
      <trkpt lat="44.46201" lon="6.53643">
        <ele>2151</ele>
        <time>2021-02-21T05:54:00Z</time>
      </trkpt>
      <trkpt lat="44.46201" lon="6.53643">
        <ele>2151</ele>
        <time>2021-02-21T05:54:01Z</time>
      </trkpt>
      <trkpt lat="44.46201" lon="6.53643">
        <ele>2150</ele>
        <time>2021-02-21T05:54:02Z</time>
      </trkpt>
      <trkpt lat="44.46201" lon="6.53643">
        <ele>2150</ele>
        <time>2021-02-21T05:54:03Z</time>
      </trkpt>
      <trkpt lat="44.46197" lon="6.5364">
        <ele>2150</ele>
        <time>2021-02-21T05:54:04Z</time>
      </trkpt>
      <trkpt lat="44.46196" lon="6.53639">
        <ele>2150</ele>
        <time>2021-02-21T05:54:05Z</time>
      </trkpt>
      <trkpt lat="44.46196" lon="6.53638">
        <ele>2150</ele>
        <time>2021-02-21T05:54:06Z</time>
      </trkpt>
      <trkpt lat="44.46196" lon="6.53638">
        <ele>2150</ele>
        <time>2021-02-21T05:54:07Z</time>
      </trkpt>
      <trkpt lat="44.46196" lon="6.53638">
        <ele>2150</ele>
        <time>2021-02-21T05:54:08Z</time>
      </trkpt>
      <trkpt lat="44.46196" lon="6.53638">
        <ele>2150</ele>
        <time>2021-02-21T05:54:09Z</time>
      </trkpt>
      <trkpt lat="44.46196" lon="6.53637">
        <ele>2150</ele>
        <time>2021-02-21T05:54:10Z</time>
      </trkpt>
      <trkpt lat="44.46196" lon="6.53637">
        <ele>2150</ele>
        <time>2021-02-21T05:54:11Z</time>
      </trkpt>
      <trkpt lat="44.46196" lon="6.53636">
        <ele>2150</ele>
        <time>2021-02-21T05:54:12Z</time>
      </trkpt>
      <trkpt lat="44.46197" lon="6.53634">
        <ele>2150</ele>
        <time>2021-02-21T05:54:13Z</time>
      </trkpt>
      <trkpt lat="44.46197" lon="6.53632">
        <ele>2149</ele>
        <time>2021-02-21T05:54:14Z</time>
      </trkpt>
      <trkpt lat="44.46197" lon="6.53629">
        <ele>2149</ele>
        <time>2021-02-21T05:54:15Z</time>
      </trkpt>
      <trkpt lat="44.46197" lon="6.53627">
        <ele>2149</ele>
        <time>2021-02-21T05:54:16Z</time>
      </trkpt>
      <trkpt lat="44.46197" lon="6.53625">
        <ele>2148</ele>
        <time>2021-02-21T05:54:17Z</time>
      </trkpt>
      <trkpt lat="44.46198" lon="6.53623">
        <ele>2148</ele>
        <time>2021-02-21T05:54:18Z</time>
      </trkpt>
      <trkpt lat="44.46197" lon="6.53621">
        <ele>2148</ele>
        <time>2021-02-21T05:54:19Z</time>
      </trkpt>
      <trkpt lat="44.46197" lon="6.53619">
        <ele>2148</ele>
        <time>2021-02-21T05:54:20Z</time>
      </trkpt>
      <trkpt lat="44.46196" lon="6.53618">
        <ele>2148</ele>
        <time>2021-02-21T05:54:21Z</time>
      </trkpt>
      <trkpt lat="44.46196" lon="6.53616">
        <ele>2148</ele>
        <time>2021-02-21T05:54:22Z</time>
      </trkpt>
      <trkpt lat="44.46196" lon="6.53614">
        <ele>2147</ele>
        <time>2021-02-21T05:54:23Z</time>
      </trkpt>
      <trkpt lat="44.46196" lon="6.53612">
        <ele>2147</ele>
        <time>2021-02-21T05:54:24Z</time>
      </trkpt>
      <trkpt lat="44.46196" lon="6.5361">
        <ele>2147</ele>
        <time>2021-02-21T05:54:25Z</time>
      </trkpt>
      <trkpt lat="44.46196" lon="6.53608">
        <ele>2148</ele>
        <time>2021-02-21T05:54:26Z</time>
      </trkpt>
      <trkpt lat="44.46197" lon="6.53606">
        <ele>2148</ele>
        <time>2021-02-21T05:54:27Z</time>
      </trkpt>
      <trkpt lat="44.46196" lon="6.53605">
        <ele>2148</ele>
        <time>2021-02-21T05:54:28Z</time>
      </trkpt>
      <trkpt lat="44.46196" lon="6.53603">
        <ele>2148</ele>
        <time>2021-02-21T05:54:29Z</time>
      </trkpt>
      <trkpt lat="44.46196" lon="6.53602">
        <ele>2148</ele>
        <time>2021-02-21T05:54:30Z</time>
      </trkpt>
      <trkpt lat="44.46196" lon="6.536">
        <ele>2148</ele>
        <time>2021-02-21T05:54:31Z</time>
      </trkpt>
      <trkpt lat="44.46196" lon="6.53599">
        <ele>2148</ele>
        <time>2021-02-21T05:54:32Z</time>
      </trkpt>
      <trkpt lat="44.46197" lon="6.53597">
        <ele>2148</ele>
        <time>2021-02-21T05:54:33Z</time>
      </trkpt>
      <trkpt lat="44.46198" lon="6.53596">
        <ele>2148</ele>
        <time>2021-02-21T05:54:34Z</time>
      </trkpt>
      <trkpt lat="44.46198" lon="6.53595">
        <ele>2148</ele>
        <time>2021-02-21T05:54:35Z</time>
      </trkpt>
      <trkpt lat="44.46198" lon="6.53593">
        <ele>2148</ele>
        <time>2021-02-21T05:54:36Z</time>
      </trkpt>
      <trkpt lat="44.46198" lon="6.53591">
        <ele>2148</ele>
        <time>2021-02-21T05:54:37Z</time>
      </trkpt>
      <trkpt lat="44.46198" lon="6.5359">
        <ele>2148</ele>
        <time>2021-02-21T05:54:38Z</time>
      </trkpt>
      <trkpt lat="44.46198" lon="6.53589">
        <ele>2148</ele>
        <time>2021-02-21T05:54:39Z</time>
      </trkpt>
      <trkpt lat="44.46198" lon="6.53587">
        <ele>2148</ele>
        <time>2021-02-21T05:54:40Z</time>
      </trkpt>
      <trkpt lat="44.46198" lon="6.53586">
        <ele>2149</ele>
        <time>2021-02-21T05:54:41Z</time>
      </trkpt>
      <trkpt lat="44.46199" lon="6.53584">
        <ele>2149</ele>
        <time>2021-02-21T05:54:42Z</time>
      </trkpt>
      <trkpt lat="44.46199" lon="6.53583">
        <ele>2149</ele>
        <time>2021-02-21T05:54:43Z</time>
      </trkpt>
      <trkpt lat="44.46199" lon="6.53581">
        <ele>2149</ele>
        <time>2021-02-21T05:54:44Z</time>
      </trkpt>
      <trkpt lat="44.46199" lon="6.5358">
        <ele>2149</ele>
        <time>2021-02-21T05:54:45Z</time>
      </trkpt>
      <trkpt lat="44.46199" lon="6.53578">
        <ele>2149</ele>
        <time>2021-02-21T05:54:46Z</time>
      </trkpt>
      <trkpt lat="44.46199" lon="6.53577">
        <ele>2150</ele>
        <time>2021-02-21T05:54:47Z</time>
      </trkpt>
      <trkpt lat="44.46198" lon="6.53575">
        <ele>2150</ele>
        <time>2021-02-21T05:54:48Z</time>
      </trkpt>
      <trkpt lat="44.46198" lon="6.53574">
        <ele>2150</ele>
        <time>2021-02-21T05:54:49Z</time>
      </trkpt>
      <trkpt lat="44.46199" lon="6.53573">
        <ele>2150</ele>
        <time>2021-02-21T05:54:50Z</time>
      </trkpt>
      <trkpt lat="44.46198" lon="6.53571">
        <ele>2150</ele>
        <time>2021-02-21T05:54:51Z</time>
      </trkpt>
      <trkpt lat="44.46198" lon="6.5357">
        <ele>2150</ele>
        <time>2021-02-21T05:54:52Z</time>
      </trkpt>
      <trkpt lat="44.46198" lon="6.53568">
        <ele>2151</ele>
        <time>2021-02-21T05:54:53Z</time>
      </trkpt>
      <trkpt lat="44.46198" lon="6.53566">
        <ele>2151</ele>
        <time>2021-02-21T05:54:54Z</time>
      </trkpt>
      <trkpt lat="44.46199" lon="6.53565">
        <ele>2151</ele>
        <time>2021-02-21T05:54:55Z</time>
      </trkpt>
      <trkpt lat="44.46199" lon="6.53564">
        <ele>2151</ele>
        <time>2021-02-21T05:54:56Z</time>
      </trkpt>
      <trkpt lat="44.46199" lon="6.53563">
        <ele>2151</ele>
        <time>2021-02-21T05:54:57Z</time>
      </trkpt>
      <trkpt lat="44.46198" lon="6.53562">
        <ele>2152</ele>
        <time>2021-02-21T05:54:58Z</time>
      </trkpt>
      <trkpt lat="44.46198" lon="6.53561">
        <ele>2152</ele>
        <time>2021-02-21T05:54:59Z</time>
      </trkpt>
      <trkpt lat="44.46199" lon="6.5356">
        <ele>2152</ele>
        <time>2021-02-21T05:55:00Z</time>
      </trkpt>
      <trkpt lat="44.46199" lon="6.53559">
        <ele>2153</ele>
        <time>2021-02-21T05:55:01Z</time>
      </trkpt>
      <trkpt lat="44.46199" lon="6.53558">
        <ele>2153</ele>
        <time>2021-02-21T05:55:02Z</time>
      </trkpt>
      <trkpt lat="44.46199" lon="6.53556">
        <ele>2153</ele>
        <time>2021-02-21T05:55:03Z</time>
      </trkpt>
      <trkpt lat="44.46199" lon="6.53555">
        <ele>2154</ele>
        <time>2021-02-21T05:55:04Z</time>
      </trkpt>
      <trkpt lat="44.46199" lon="6.53554">
        <ele>2154</ele>
        <time>2021-02-21T05:55:05Z</time>
      </trkpt>
      <trkpt lat="44.46199" lon="6.53553">
        <ele>2154</ele>
        <time>2021-02-21T05:55:06Z</time>
      </trkpt>
      <trkpt lat="44.46199" lon="6.53551">
        <ele>2154</ele>
        <time>2021-02-21T05:55:07Z</time>
      </trkpt>
      <trkpt lat="44.46199" lon="6.5355">
        <ele>2155</ele>
        <time>2021-02-21T05:55:08Z</time>
      </trkpt>
      <trkpt lat="44.46199" lon="6.53549">
        <ele>2155</ele>
        <time>2021-02-21T05:55:09Z</time>
      </trkpt>
      <trkpt lat="44.46198" lon="6.53548">
        <ele>2155</ele>
        <time>2021-02-21T05:55:10Z</time>
      </trkpt>
      <trkpt lat="44.46199" lon="6.53547">
        <ele>2156</ele>
        <time>2021-02-21T05:55:11Z</time>
      </trkpt>
      <trkpt lat="44.46198" lon="6.53546">
        <ele>2156</ele>
        <time>2021-02-21T05:55:12Z</time>
      </trkpt>
      <trkpt lat="44.46199" lon="6.53545">
        <ele>2156</ele>
        <time>2021-02-21T05:55:13Z</time>
      </trkpt>
      <trkpt lat="44.46199" lon="6.53544">
        <ele>2156</ele>
        <time>2021-02-21T05:55:14Z</time>
      </trkpt>
      <trkpt lat="44.46199" lon="6.53542">
        <ele>2156</ele>
        <time>2021-02-21T05:55:15Z</time>
      </trkpt>
      <trkpt lat="44.46199" lon="6.53541">
        <ele>2156</ele>
        <time>2021-02-21T05:55:16Z</time>
      </trkpt>
      <trkpt lat="44.46199" lon="6.53539">
        <ele>2156</ele>
        <time>2021-02-21T05:55:17Z</time>
      </trkpt>
      <trkpt lat="44.46199" lon="6.53538">
        <ele>2156</ele>
        <time>2021-02-21T05:55:18Z</time>
      </trkpt>
      <trkpt lat="44.46199" lon="6.53536">
        <ele>2156</ele>
        <time>2021-02-21T05:55:19Z</time>
      </trkpt>
      <trkpt lat="44.46199" lon="6.53534">
        <ele>2156</ele>
        <time>2021-02-21T05:55:20Z</time>
      </trkpt>
      <trkpt lat="44.46198" lon="6.53533">
        <ele>2157</ele>
        <time>2021-02-21T05:55:21Z</time>
      </trkpt>
      <trkpt lat="44.46198" lon="6.53532">
        <ele>2157</ele>
        <time>2021-02-21T05:55:22Z</time>
      </trkpt>
      <trkpt lat="44.46197" lon="6.53531">
        <ele>2157</ele>
        <time>2021-02-21T05:55:23Z</time>
      </trkpt>
      <trkpt lat="44.46196" lon="6.53529">
        <ele>2157</ele>
        <time>2021-02-21T05:55:24Z</time>
      </trkpt>
      <trkpt lat="44.46196" lon="6.53528">
        <ele>2157</ele>
        <time>2021-02-21T05:55:25Z</time>
      </trkpt>
      <trkpt lat="44.46196" lon="6.53527">
        <ele>2157</ele>
        <time>2021-02-21T05:55:26Z</time>
      </trkpt>
      <trkpt lat="44.46196" lon="6.53526">
        <ele>2157</ele>
        <time>2021-02-21T05:55:27Z</time>
      </trkpt>
      <trkpt lat="44.46197" lon="6.53524">
        <ele>2157</ele>
        <time>2021-02-21T05:55:28Z</time>
      </trkpt>
      <trkpt lat="44.46196" lon="6.53523">
        <ele>2157</ele>
        <time>2021-02-21T05:55:29Z</time>
      </trkpt>
      <trkpt lat="44.46196" lon="6.53522">
        <ele>2157</ele>
        <time>2021-02-21T05:55:30Z</time>
      </trkpt>
      <trkpt lat="44.46196" lon="6.53521">
        <ele>2157</ele>
        <time>2021-02-21T05:55:31Z</time>
      </trkpt>
      <trkpt lat="44.46196" lon="6.5352">
        <ele>2157</ele>
        <time>2021-02-21T05:55:32Z</time>
      </trkpt>
      <trkpt lat="44.46195" lon="6.53519">
        <ele>2157</ele>
        <time>2021-02-21T05:55:33Z</time>
      </trkpt>
      <trkpt lat="44.46195" lon="6.53518">
        <ele>2157</ele>
        <time>2021-02-21T05:55:34Z</time>
      </trkpt>
      <trkpt lat="44.46195" lon="6.53517">
        <ele>2157</ele>
        <time>2021-02-21T05:55:35Z</time>
      </trkpt>
      <trkpt lat="44.46194" lon="6.53517">
        <ele>2157</ele>
        <time>2021-02-21T05:55:36Z</time>
      </trkpt>
      <trkpt lat="44.46193" lon="6.53516">
        <ele>2157</ele>
        <time>2021-02-21T05:55:37Z</time>
      </trkpt>
      <trkpt lat="44.46193" lon="6.53515">
        <ele>2157</ele>
        <time>2021-02-21T05:55:38Z</time>
      </trkpt>
      <trkpt lat="44.46193" lon="6.53513">
        <ele>2157</ele>
        <time>2021-02-21T05:55:39Z</time>
      </trkpt>
      <trkpt lat="44.46192" lon="6.53512">
        <ele>2158</ele>
        <time>2021-02-21T05:55:40Z</time>
      </trkpt>
      <trkpt lat="44.46192" lon="6.53511">
        <ele>2158</ele>
        <time>2021-02-21T05:55:41Z</time>
      </trkpt>
      <trkpt lat="44.46191" lon="6.5351">
        <ele>2158</ele>
        <time>2021-02-21T05:55:42Z</time>
      </trkpt>
      <trkpt lat="44.46191" lon="6.53509">
        <ele>2158</ele>
        <time>2021-02-21T05:55:43Z</time>
      </trkpt>
      <trkpt lat="44.46191" lon="6.53508">
        <ele>2158</ele>
        <time>2021-02-21T05:55:44Z</time>
      </trkpt>
      <trkpt lat="44.4619" lon="6.53507">
        <ele>2158</ele>
        <time>2021-02-21T05:55:45Z</time>
      </trkpt>
      <trkpt lat="44.4619" lon="6.53506">
        <ele>2158</ele>
        <time>2021-02-21T05:55:46Z</time>
      </trkpt>
      <trkpt lat="44.46189" lon="6.53505">
        <ele>2158</ele>
        <time>2021-02-21T05:55:47Z</time>
      </trkpt>
      <trkpt lat="44.46189" lon="6.53504">
        <ele>2158</ele>
        <time>2021-02-21T05:55:48Z</time>
      </trkpt>
      <trkpt lat="44.46188" lon="6.53503">
        <ele>2158</ele>
        <time>2021-02-21T05:55:49Z</time>
      </trkpt>
      <trkpt lat="44.46188" lon="6.53502">
        <ele>2158</ele>
        <time>2021-02-21T05:55:50Z</time>
      </trkpt>
      <trkpt lat="44.46187" lon="6.53501">
        <ele>2158</ele>
        <time>2021-02-21T05:55:51Z</time>
      </trkpt>
      <trkpt lat="44.46187" lon="6.535">
        <ele>2158</ele>
        <time>2021-02-21T05:55:52Z</time>
      </trkpt>
      <trkpt lat="44.46186" lon="6.535">
        <ele>2158</ele>
        <time>2021-02-21T05:55:53Z</time>
      </trkpt>
      <trkpt lat="44.46186" lon="6.53499">
        <ele>2158</ele>
        <time>2021-02-21T05:55:54Z</time>
      </trkpt>
      <trkpt lat="44.46185" lon="6.53499">
        <ele>2158</ele>
        <time>2021-02-21T05:55:55Z</time>
      </trkpt>
      <trkpt lat="44.46185" lon="6.53498">
        <ele>2158</ele>
        <time>2021-02-21T05:55:56Z</time>
      </trkpt>
      <trkpt lat="44.46184" lon="6.53497">
        <ele>2158</ele>
        <time>2021-02-21T05:55:57Z</time>
      </trkpt>
      <trkpt lat="44.46183" lon="6.53496">
        <ele>2158</ele>
        <time>2021-02-21T05:55:58Z</time>
      </trkpt>
      <trkpt lat="44.46183" lon="6.53495">
        <ele>2158</ele>
        <time>2021-02-21T05:55:59Z</time>
      </trkpt>
      <trkpt lat="44.46182" lon="6.53494">
        <ele>2159</ele>
        <time>2021-02-21T05:56:00Z</time>
      </trkpt>
      <trkpt lat="44.46182" lon="6.53493">
        <ele>2159</ele>
        <time>2021-02-21T05:56:01Z</time>
      </trkpt>
      <trkpt lat="44.46182" lon="6.53493">
        <ele>2159</ele>
        <time>2021-02-21T05:56:02Z</time>
      </trkpt>
      <trkpt lat="44.46181" lon="6.53492">
        <ele>2159</ele>
        <time>2021-02-21T05:56:03Z</time>
      </trkpt>
      <trkpt lat="44.46181" lon="6.53492">
        <ele>2159</ele>
        <time>2021-02-21T05:56:04Z</time>
      </trkpt>
      <trkpt lat="44.4618" lon="6.53491">
        <ele>2159</ele>
        <time>2021-02-21T05:56:05Z</time>
      </trkpt>
      <trkpt lat="44.4618" lon="6.5349">
        <ele>2160</ele>
        <time>2021-02-21T05:56:06Z</time>
      </trkpt>
      <trkpt lat="44.46179" lon="6.5349">
        <ele>2160</ele>
        <time>2021-02-21T05:56:07Z</time>
      </trkpt>
      <trkpt lat="44.46178" lon="6.53489">
        <ele>2161</ele>
        <time>2021-02-21T05:56:08Z</time>
      </trkpt>
      <trkpt lat="44.46178" lon="6.53489">
        <ele>2161</ele>
        <time>2021-02-21T05:56:09Z</time>
      </trkpt>
      <trkpt lat="44.46177" lon="6.53488">
        <ele>2161</ele>
        <time>2021-02-21T05:56:10Z</time>
      </trkpt>
      <trkpt lat="44.46177" lon="6.53488">
        <ele>2162</ele>
        <time>2021-02-21T05:56:11Z</time>
      </trkpt>
      <trkpt lat="44.46176" lon="6.53487">
        <ele>2162</ele>
        <time>2021-02-21T05:56:12Z</time>
      </trkpt>
      <trkpt lat="44.46175" lon="6.53486">
        <ele>2162</ele>
        <time>2021-02-21T05:56:13Z</time>
      </trkpt>
      <trkpt lat="44.46175" lon="6.53485">
        <ele>2162</ele>
        <time>2021-02-21T05:56:14Z</time>
      </trkpt>
      <trkpt lat="44.46174" lon="6.53484">
        <ele>2163</ele>
        <time>2021-02-21T05:56:15Z</time>
      </trkpt>
      <trkpt lat="44.46174" lon="6.53483">
        <ele>2163</ele>
        <time>2021-02-21T05:56:16Z</time>
      </trkpt>
      <trkpt lat="44.46173" lon="6.53481">
        <ele>2163</ele>
        <time>2021-02-21T05:56:17Z</time>
      </trkpt>
      <trkpt lat="44.46172" lon="6.5348">
        <ele>2163</ele>
        <time>2021-02-21T05:56:18Z</time>
      </trkpt>
      <trkpt lat="44.46172" lon="6.53478">
        <ele>2163</ele>
        <time>2021-02-21T05:56:19Z</time>
      </trkpt>
      <trkpt lat="44.46172" lon="6.53477">
        <ele>2163</ele>
        <time>2021-02-21T05:56:20Z</time>
      </trkpt>
      <trkpt lat="44.46172" lon="6.53476">
        <ele>2163</ele>
        <time>2021-02-21T05:56:21Z</time>
      </trkpt>
      <trkpt lat="44.46172" lon="6.53475">
        <ele>2164</ele>
        <time>2021-02-21T05:56:22Z</time>
      </trkpt>
      <trkpt lat="44.46172" lon="6.53474">
        <ele>2164</ele>
        <time>2021-02-21T05:56:23Z</time>
      </trkpt>
      <trkpt lat="44.46172" lon="6.53473">
        <ele>2164</ele>
        <time>2021-02-21T05:56:24Z</time>
      </trkpt>
      <trkpt lat="44.46172" lon="6.53472">
        <ele>2164</ele>
        <time>2021-02-21T05:56:25Z</time>
      </trkpt>
      <trkpt lat="44.46172" lon="6.53471">
        <ele>2164</ele>
        <time>2021-02-21T05:56:26Z</time>
      </trkpt>
      <trkpt lat="44.46171" lon="6.5347">
        <ele>2164</ele>
        <time>2021-02-21T05:56:27Z</time>
      </trkpt>
      <trkpt lat="44.46171" lon="6.53468">
        <ele>2165</ele>
        <time>2021-02-21T05:56:28Z</time>
      </trkpt>
      <trkpt lat="44.4617" lon="6.53468">
        <ele>2165</ele>
        <time>2021-02-21T05:56:29Z</time>
      </trkpt>
      <trkpt lat="44.46169" lon="6.53466">
        <ele>2165</ele>
        <time>2021-02-21T05:56:30Z</time>
      </trkpt>
      <trkpt lat="44.46169" lon="6.53465">
        <ele>2165</ele>
        <time>2021-02-21T05:56:31Z</time>
      </trkpt>
      <trkpt lat="44.46168" lon="6.53464">
        <ele>2165</ele>
        <time>2021-02-21T05:56:32Z</time>
      </trkpt>
      <trkpt lat="44.46168" lon="6.53463">
        <ele>2165</ele>
        <time>2021-02-21T05:56:33Z</time>
      </trkpt>
      <trkpt lat="44.46167" lon="6.53463">
        <ele>2165</ele>
        <time>2021-02-21T05:56:34Z</time>
      </trkpt>
      <trkpt lat="44.46167" lon="6.53462">
        <ele>2166</ele>
        <time>2021-02-21T05:56:35Z</time>
      </trkpt>
      <trkpt lat="44.46166" lon="6.5346">
        <ele>2166</ele>
        <time>2021-02-21T05:56:36Z</time>
      </trkpt>
      <trkpt lat="44.46166" lon="6.53459">
        <ele>2166</ele>
        <time>2021-02-21T05:56:37Z</time>
      </trkpt>
      <trkpt lat="44.46165" lon="6.53458">
        <ele>2166</ele>
        <time>2021-02-21T05:56:38Z</time>
      </trkpt>
      <trkpt lat="44.46165" lon="6.53457">
        <ele>2166</ele>
        <time>2021-02-21T05:56:39Z</time>
      </trkpt>
      <trkpt lat="44.46165" lon="6.53456">
        <ele>2167</ele>
        <time>2021-02-21T05:56:40Z</time>
      </trkpt>
      <trkpt lat="44.46164" lon="6.53454">
        <ele>2167</ele>
        <time>2021-02-21T05:56:41Z</time>
      </trkpt>
      <trkpt lat="44.46164" lon="6.53453">
        <ele>2167</ele>
        <time>2021-02-21T05:56:42Z</time>
      </trkpt>
      <trkpt lat="44.46163" lon="6.53453">
        <ele>2167</ele>
        <time>2021-02-21T05:56:43Z</time>
      </trkpt>
      <trkpt lat="44.46163" lon="6.53452">
        <ele>2167</ele>
        <time>2021-02-21T05:56:44Z</time>
      </trkpt>
      <trkpt lat="44.46163" lon="6.5345">
        <ele>2167</ele>
        <time>2021-02-21T05:56:45Z</time>
      </trkpt>
      <trkpt lat="44.46162" lon="6.53449">
        <ele>2168</ele>
        <time>2021-02-21T05:56:46Z</time>
      </trkpt>
      <trkpt lat="44.46162" lon="6.53448">
        <ele>2168</ele>
        <time>2021-02-21T05:56:47Z</time>
      </trkpt>
      <trkpt lat="44.46161" lon="6.53447">
        <ele>2168</ele>
        <time>2021-02-21T05:56:48Z</time>
      </trkpt>
      <trkpt lat="44.46161" lon="6.53445">
        <ele>2168</ele>
        <time>2021-02-21T05:56:49Z</time>
      </trkpt>
      <trkpt lat="44.46161" lon="6.53444">
        <ele>2168</ele>
        <time>2021-02-21T05:56:50Z</time>
      </trkpt>
      <trkpt lat="44.4616" lon="6.53443">
        <ele>2168</ele>
        <time>2021-02-21T05:56:51Z</time>
      </trkpt>
      <trkpt lat="44.4616" lon="6.53441">
        <ele>2168</ele>
        <time>2021-02-21T05:56:52Z</time>
      </trkpt>
      <trkpt lat="44.4616" lon="6.5344">
        <ele>2169</ele>
        <time>2021-02-21T05:56:53Z</time>
      </trkpt>
      <trkpt lat="44.4616" lon="6.53438">
        <ele>2169</ele>
        <time>2021-02-21T05:56:54Z</time>
      </trkpt>
      <trkpt lat="44.4616" lon="6.53437">
        <ele>2169</ele>
        <time>2021-02-21T05:56:55Z</time>
      </trkpt>
      <trkpt lat="44.46159" lon="6.53436">
        <ele>2169</ele>
        <time>2021-02-21T05:56:56Z</time>
      </trkpt>
      <trkpt lat="44.46158" lon="6.53434">
        <ele>2169</ele>
        <time>2021-02-21T05:56:57Z</time>
      </trkpt>
      <trkpt lat="44.46157" lon="6.53432">
        <ele>2169</ele>
        <time>2021-02-21T05:56:58Z</time>
      </trkpt>
      <trkpt lat="44.46156" lon="6.53431">
        <ele>2170</ele>
        <time>2021-02-21T05:56:59Z</time>
      </trkpt>
      <trkpt lat="44.46156" lon="6.53429">
        <ele>2170</ele>
        <time>2021-02-21T05:57:00Z</time>
      </trkpt>
      <trkpt lat="44.46155" lon="6.53428">
        <ele>2170</ele>
        <time>2021-02-21T05:57:01Z</time>
      </trkpt>
      <trkpt lat="44.46154" lon="6.53427">
        <ele>2170</ele>
        <time>2021-02-21T05:57:02Z</time>
      </trkpt>
      <trkpt lat="44.46153" lon="6.53426">
        <ele>2170</ele>
        <time>2021-02-21T05:57:03Z</time>
      </trkpt>
      <trkpt lat="44.46153" lon="6.53424">
        <ele>2170</ele>
        <time>2021-02-21T05:57:04Z</time>
      </trkpt>
      <trkpt lat="44.46152" lon="6.53423">
        <ele>2170</ele>
        <time>2021-02-21T05:57:05Z</time>
      </trkpt>
      <trkpt lat="44.46152" lon="6.53422">
        <ele>2171</ele>
        <time>2021-02-21T05:57:06Z</time>
      </trkpt>
      <trkpt lat="44.46151" lon="6.53422">
        <ele>2171</ele>
        <time>2021-02-21T05:57:07Z</time>
      </trkpt>
      <trkpt lat="44.46151" lon="6.53421">
        <ele>2171</ele>
        <time>2021-02-21T05:57:08Z</time>
      </trkpt>
      <trkpt lat="44.4615" lon="6.5342">
        <ele>2171</ele>
        <time>2021-02-21T05:57:09Z</time>
      </trkpt>
      <trkpt lat="44.46149" lon="6.53419">
        <ele>2171</ele>
        <time>2021-02-21T05:57:10Z</time>
      </trkpt>
      <trkpt lat="44.46148" lon="6.53419">
        <ele>2172</ele>
        <time>2021-02-21T05:57:11Z</time>
      </trkpt>
      <trkpt lat="44.46148" lon="6.53419">
        <ele>2172</ele>
        <time>2021-02-21T05:57:12Z</time>
      </trkpt>
      <trkpt lat="44.46147" lon="6.53419">
        <ele>2172</ele>
        <time>2021-02-21T05:57:13Z</time>
      </trkpt>
      <trkpt lat="44.46147" lon="6.53419">
        <ele>2172</ele>
        <time>2021-02-21T05:57:14Z</time>
      </trkpt>
      <trkpt lat="44.46146" lon="6.53419">
        <ele>2171</ele>
        <time>2021-02-21T05:57:15Z</time>
      </trkpt>
      <trkpt lat="44.46146" lon="6.53418">
        <ele>2171</ele>
        <time>2021-02-21T05:57:16Z</time>
      </trkpt>
      <trkpt lat="44.46146" lon="6.53418">
        <ele>2171</ele>
        <time>2021-02-21T05:57:17Z</time>
      </trkpt>
      <trkpt lat="44.46146" lon="6.53417">
        <ele>2171</ele>
        <time>2021-02-21T05:57:18Z</time>
      </trkpt>
      <trkpt lat="44.46145" lon="6.53417">
        <ele>2171</ele>
        <time>2021-02-21T05:57:19Z</time>
      </trkpt>
      <trkpt lat="44.46145" lon="6.53417">
        <ele>2171</ele>
        <time>2021-02-21T05:57:20Z</time>
      </trkpt>
      <trkpt lat="44.46145" lon="6.53416">
        <ele>2170</ele>
        <time>2021-02-21T05:57:21Z</time>
      </trkpt>
      <trkpt lat="44.46144" lon="6.53414">
        <ele>2170</ele>
        <time>2021-02-21T05:57:22Z</time>
      </trkpt>
      <trkpt lat="44.46143" lon="6.53414">
        <ele>2170</ele>
        <time>2021-02-21T05:57:23Z</time>
      </trkpt>
      <trkpt lat="44.46142" lon="6.53413">
        <ele>2169</ele>
        <time>2021-02-21T05:57:24Z</time>
      </trkpt>
      <trkpt lat="44.46141" lon="6.53413">
        <ele>2169</ele>
        <time>2021-02-21T05:57:25Z</time>
      </trkpt>
      <trkpt lat="44.46141" lon="6.53413">
        <ele>2169</ele>
        <time>2021-02-21T05:57:26Z</time>
      </trkpt>
      <trkpt lat="44.4614" lon="6.53412">
        <ele>2169</ele>
        <time>2021-02-21T05:57:27Z</time>
      </trkpt>
      <trkpt lat="44.46139" lon="6.53412">
        <ele>2168</ele>
        <time>2021-02-21T05:57:28Z</time>
      </trkpt>
      <trkpt lat="44.46139" lon="6.53411">
        <ele>2168</ele>
        <time>2021-02-21T05:57:29Z</time>
      </trkpt>
      <trkpt lat="44.46138" lon="6.5341">
        <ele>2168</ele>
        <time>2021-02-21T05:57:30Z</time>
      </trkpt>
      <trkpt lat="44.46138" lon="6.53409">
        <ele>2167</ele>
        <time>2021-02-21T05:57:31Z</time>
      </trkpt>
      <trkpt lat="44.46137" lon="6.53408">
        <ele>2167</ele>
        <time>2021-02-21T05:57:32Z</time>
      </trkpt>
      <trkpt lat="44.46137" lon="6.53406">
        <ele>2166</ele>
        <time>2021-02-21T05:57:33Z</time>
      </trkpt>
      <trkpt lat="44.46136" lon="6.53404">
        <ele>2166</ele>
        <time>2021-02-21T05:57:34Z</time>
      </trkpt>
      <trkpt lat="44.46135" lon="6.53403">
        <ele>2166</ele>
        <time>2021-02-21T05:57:35Z</time>
      </trkpt>
      <trkpt lat="44.46134" lon="6.53402">
        <ele>2166</ele>
        <time>2021-02-21T05:57:36Z</time>
      </trkpt>
      <trkpt lat="44.46133" lon="6.534">
        <ele>2166</ele>
        <time>2021-02-21T05:57:37Z</time>
      </trkpt>
      <trkpt lat="44.46132" lon="6.53399">
        <ele>2166</ele>
        <time>2021-02-21T05:57:38Z</time>
      </trkpt>
      <trkpt lat="44.4613" lon="6.53398">
        <ele>2167</ele>
        <time>2021-02-21T05:57:39Z</time>
      </trkpt>
      <trkpt lat="44.46129" lon="6.53398">
        <ele>2167</ele>
        <time>2021-02-21T05:57:40Z</time>
      </trkpt>
      <trkpt lat="44.46129" lon="6.53398">
        <ele>2167</ele>
        <time>2021-02-21T05:57:41Z</time>
      </trkpt>
      <trkpt lat="44.46129" lon="6.53397">
        <ele>2167</ele>
        <time>2021-02-21T05:57:42Z</time>
      </trkpt>
      <trkpt lat="44.46128" lon="6.53398">
        <ele>2168</ele>
        <time>2021-02-21T05:57:43Z</time>
      </trkpt>
      <trkpt lat="44.46128" lon="6.53397">
        <ele>2168</ele>
        <time>2021-02-21T05:57:44Z</time>
      </trkpt>
      <trkpt lat="44.46127" lon="6.53395">
        <ele>2168</ele>
        <time>2021-02-21T05:57:45Z</time>
      </trkpt>
      <trkpt lat="44.46127" lon="6.53395">
        <ele>2168</ele>
        <time>2021-02-21T05:57:46Z</time>
      </trkpt>
      <trkpt lat="44.46126" lon="6.53394">
        <ele>2168</ele>
        <time>2021-02-21T05:57:47Z</time>
      </trkpt>
      <trkpt lat="44.46126" lon="6.53392">
        <ele>2168</ele>
        <time>2021-02-21T05:57:48Z</time>
      </trkpt>
      <trkpt lat="44.46126" lon="6.53392">
        <ele>2168</ele>
        <time>2021-02-21T05:57:49Z</time>
      </trkpt>
      <trkpt lat="44.46126" lon="6.5339">
        <ele>2169</ele>
        <time>2021-02-21T05:57:50Z</time>
      </trkpt>
      <trkpt lat="44.46125" lon="6.53389">
        <ele>2169</ele>
        <time>2021-02-21T05:57:51Z</time>
      </trkpt>
      <trkpt lat="44.46125" lon="6.53388">
        <ele>2169</ele>
        <time>2021-02-21T05:57:52Z</time>
      </trkpt>
      <trkpt lat="44.46124" lon="6.53386">
        <ele>2169</ele>
        <time>2021-02-21T05:57:53Z</time>
      </trkpt>
      <trkpt lat="44.46124" lon="6.53386">
        <ele>2169</ele>
        <time>2021-02-21T05:57:54Z</time>
      </trkpt>
      <trkpt lat="44.46124" lon="6.53385">
        <ele>2169</ele>
        <time>2021-02-21T05:57:55Z</time>
      </trkpt>
      <trkpt lat="44.46123" lon="6.53383">
        <ele>2169</ele>
        <time>2021-02-21T05:57:56Z</time>
      </trkpt>
      <trkpt lat="44.46122" lon="6.53382">
        <ele>2169</ele>
        <time>2021-02-21T05:57:57Z</time>
      </trkpt>
      <trkpt lat="44.46121" lon="6.53381">
        <ele>2170</ele>
        <time>2021-02-21T05:57:58Z</time>
      </trkpt>
      <trkpt lat="44.4612" lon="6.5338">
        <ele>2170</ele>
        <time>2021-02-21T05:57:59Z</time>
      </trkpt>
      <trkpt lat="44.46119" lon="6.53378">
        <ele>2171</ele>
        <time>2021-02-21T05:58:00Z</time>
      </trkpt>
      <trkpt lat="44.46118" lon="6.53377">
        <ele>2172</ele>
        <time>2021-02-21T05:58:01Z</time>
      </trkpt>
      <trkpt lat="44.46118" lon="6.53377">
        <ele>2172</ele>
        <time>2021-02-21T05:58:02Z</time>
      </trkpt>
      <trkpt lat="44.46117" lon="6.53377">
        <ele>2172</ele>
        <time>2021-02-21T05:58:03Z</time>
      </trkpt>
      <trkpt lat="44.46116" lon="6.53376">
        <ele>2173</ele>
        <time>2021-02-21T05:58:04Z</time>
      </trkpt>
      <trkpt lat="44.46115" lon="6.53376">
        <ele>2173</ele>
        <time>2021-02-21T05:58:05Z</time>
      </trkpt>
      <trkpt lat="44.46114" lon="6.53376">
        <ele>2174</ele>
        <time>2021-02-21T05:58:06Z</time>
      </trkpt>
      <trkpt lat="44.46114" lon="6.53377">
        <ele>2174</ele>
        <time>2021-02-21T05:58:07Z</time>
      </trkpt>
      <trkpt lat="44.46113" lon="6.53376">
        <ele>2174</ele>
        <time>2021-02-21T05:58:08Z</time>
      </trkpt>
      <trkpt lat="44.46113" lon="6.53376">
        <ele>2174</ele>
        <time>2021-02-21T05:58:09Z</time>
      </trkpt>
      <trkpt lat="44.46113" lon="6.53376">
        <ele>2175</ele>
        <time>2021-02-21T05:58:10Z</time>
      </trkpt>
      <trkpt lat="44.46113" lon="6.53376">
        <ele>2175</ele>
        <time>2021-02-21T05:58:11Z</time>
      </trkpt>
      <trkpt lat="44.46112" lon="6.53377">
        <ele>2175</ele>
        <time>2021-02-21T05:58:12Z</time>
      </trkpt>
      <trkpt lat="44.46112" lon="6.53377">
        <ele>2176</ele>
        <time>2021-02-21T05:58:13Z</time>
      </trkpt>
      <trkpt lat="44.46112" lon="6.53377">
        <ele>2176</ele>
        <time>2021-02-21T05:58:14Z</time>
      </trkpt>
      <trkpt lat="44.46112" lon="6.53377">
        <ele>2176</ele>
        <time>2021-02-21T05:58:15Z</time>
      </trkpt>
      <trkpt lat="44.46111" lon="6.53377">
        <ele>2178</ele>
        <time>2021-02-21T05:58:16Z</time>
      </trkpt>
      <trkpt lat="44.46111" lon="6.53377">
        <ele>2178</ele>
        <time>2021-02-21T05:58:17Z</time>
      </trkpt>
      <trkpt lat="44.46111" lon="6.53377">
        <ele>2178</ele>
        <time>2021-02-21T05:58:18Z</time>
      </trkpt>
      <trkpt lat="44.46109" lon="6.53377">
        <ele>2178</ele>
        <time>2021-02-21T05:58:19Z</time>
      </trkpt>
      <trkpt lat="44.46108" lon="6.53377">
        <ele>2178</ele>
        <time>2021-02-21T05:58:20Z</time>
      </trkpt>
      <trkpt lat="44.46107" lon="6.53377">
        <ele>2178</ele>
        <time>2021-02-21T05:58:21Z</time>
      </trkpt>
      <trkpt lat="44.46106" lon="6.53377">
        <ele>2178</ele>
        <time>2021-02-21T05:58:22Z</time>
      </trkpt>
      <trkpt lat="44.46106" lon="6.53377">
        <ele>2178</ele>
        <time>2021-02-21T05:58:23Z</time>
      </trkpt>
      <trkpt lat="44.46105" lon="6.53377">
        <ele>2178</ele>
        <time>2021-02-21T05:58:24Z</time>
      </trkpt>
      <trkpt lat="44.46104" lon="6.53378">
        <ele>2178</ele>
        <time>2021-02-21T05:58:25Z</time>
      </trkpt>
      <trkpt lat="44.46103" lon="6.53378">
        <ele>2178</ele>
        <time>2021-02-21T05:58:26Z</time>
      </trkpt>
      <trkpt lat="44.46102" lon="6.53378">
        <ele>2178</ele>
        <time>2021-02-21T05:58:27Z</time>
      </trkpt>
      <trkpt lat="44.46101" lon="6.53378">
        <ele>2178</ele>
        <time>2021-02-21T05:58:28Z</time>
      </trkpt>
      <trkpt lat="44.461" lon="6.53379">
        <ele>2178</ele>
        <time>2021-02-21T05:58:29Z</time>
      </trkpt>
      <trkpt lat="44.46098" lon="6.53379">
        <ele>2178</ele>
        <time>2021-02-21T05:58:30Z</time>
      </trkpt>
      <trkpt lat="44.46097" lon="6.53379">
        <ele>2178</ele>
        <time>2021-02-21T05:58:31Z</time>
      </trkpt>
      <trkpt lat="44.46097" lon="6.53379">
        <ele>2178</ele>
        <time>2021-02-21T05:58:32Z</time>
      </trkpt>
      <trkpt lat="44.46096" lon="6.53378">
        <ele>2178</ele>
        <time>2021-02-21T05:58:33Z</time>
      </trkpt>
      <trkpt lat="44.46096" lon="6.53378">
        <ele>2178</ele>
        <time>2021-02-21T05:58:34Z</time>
      </trkpt>
      <trkpt lat="44.46095" lon="6.53378">
        <ele>2178</ele>
        <time>2021-02-21T05:58:35Z</time>
      </trkpt>
      <trkpt lat="44.46095" lon="6.53378">
        <ele>2178</ele>
        <time>2021-02-21T05:58:36Z</time>
      </trkpt>
      <trkpt lat="44.46094" lon="6.53378">
        <ele>2178</ele>
        <time>2021-02-21T05:58:37Z</time>
      </trkpt>
      <trkpt lat="44.46093" lon="6.53378">
        <ele>2178</ele>
        <time>2021-02-21T05:58:38Z</time>
      </trkpt>
      <trkpt lat="44.46092" lon="6.53378">
        <ele>2178</ele>
        <time>2021-02-21T05:58:39Z</time>
      </trkpt>
      <trkpt lat="44.46092" lon="6.53378">
        <ele>2178</ele>
        <time>2021-02-21T05:58:40Z</time>
      </trkpt>
      <trkpt lat="44.46091" lon="6.53378">
        <ele>2178</ele>
        <time>2021-02-21T05:58:41Z</time>
      </trkpt>
      <trkpt lat="44.4609" lon="6.53378">
        <ele>2178</ele>
        <time>2021-02-21T05:58:42Z</time>
      </trkpt>
      <trkpt lat="44.4609" lon="6.53378">
        <ele>2178</ele>
        <time>2021-02-21T05:58:43Z</time>
      </trkpt>
      <trkpt lat="44.4609" lon="6.53379">
        <ele>2178</ele>
        <time>2021-02-21T05:58:44Z</time>
      </trkpt>
      <trkpt lat="44.46089" lon="6.53379">
        <ele>2178</ele>
        <time>2021-02-21T05:58:45Z</time>
      </trkpt>
      <trkpt lat="44.46089" lon="6.53379">
        <ele>2178</ele>
        <time>2021-02-21T05:58:46Z</time>
      </trkpt>
      <trkpt lat="44.46089" lon="6.53379">
        <ele>2178</ele>
        <time>2021-02-21T05:58:47Z</time>
      </trkpt>
      <trkpt lat="44.46088" lon="6.53377">
        <ele>2178</ele>
        <time>2021-02-21T05:58:48Z</time>
      </trkpt>
      <trkpt lat="44.46088" lon="6.53376">
        <ele>2177</ele>
        <time>2021-02-21T05:58:49Z</time>
      </trkpt>
      <trkpt lat="44.46088" lon="6.53375">
        <ele>2177</ele>
        <time>2021-02-21T05:58:50Z</time>
      </trkpt>
      <trkpt lat="44.46088" lon="6.53375">
        <ele>2177</ele>
        <time>2021-02-21T05:58:51Z</time>
      </trkpt>
      <trkpt lat="44.46088" lon="6.53373">
        <ele>2177</ele>
        <time>2021-02-21T05:58:52Z</time>
      </trkpt>
      <trkpt lat="44.46088" lon="6.53373">
        <ele>2177</ele>
        <time>2021-02-21T05:58:53Z</time>
      </trkpt>
      <trkpt lat="44.46087" lon="6.53372">
        <ele>2177</ele>
        <time>2021-02-21T05:58:54Z</time>
      </trkpt>
      <trkpt lat="44.46087" lon="6.5337">
        <ele>2177</ele>
        <time>2021-02-21T05:58:55Z</time>
      </trkpt>
      <trkpt lat="44.46087" lon="6.53369">
        <ele>2177</ele>
        <time>2021-02-21T05:58:56Z</time>
      </trkpt>
      <trkpt lat="44.46087" lon="6.53368">
        <ele>2177</ele>
        <time>2021-02-21T05:58:57Z</time>
      </trkpt>
      <trkpt lat="44.46088" lon="6.53367">
        <ele>2177</ele>
        <time>2021-02-21T05:58:58Z</time>
      </trkpt>
      <trkpt lat="44.46088" lon="6.53366">
        <ele>2177</ele>
        <time>2021-02-21T05:58:59Z</time>
      </trkpt>
      <trkpt lat="44.46088" lon="6.53364">
        <ele>2177</ele>
        <time>2021-02-21T05:59:00Z</time>
      </trkpt>
      <trkpt lat="44.46087" lon="6.53363">
        <ele>2178</ele>
        <time>2021-02-21T05:59:01Z</time>
      </trkpt>
      <trkpt lat="44.46087" lon="6.53361">
        <ele>2178</ele>
        <time>2021-02-21T05:59:02Z</time>
      </trkpt>
      <trkpt lat="44.46087" lon="6.5336">
        <ele>2178</ele>
        <time>2021-02-21T05:59:03Z</time>
      </trkpt>
      <trkpt lat="44.46087" lon="6.53358">
        <ele>2178</ele>
        <time>2021-02-21T05:59:04Z</time>
      </trkpt>
      <trkpt lat="44.46087" lon="6.53357">
        <ele>2178</ele>
        <time>2021-02-21T05:59:05Z</time>
      </trkpt>
      <trkpt lat="44.46087" lon="6.53357">
        <ele>2178</ele>
        <time>2021-02-21T05:59:06Z</time>
      </trkpt>
      <trkpt lat="44.46087" lon="6.53356">
        <ele>2179</ele>
        <time>2021-02-21T05:59:07Z</time>
      </trkpt>
      <trkpt lat="44.46087" lon="6.53357">
        <ele>2179</ele>
        <time>2021-02-21T05:59:08Z</time>
      </trkpt>
      <trkpt lat="44.46086" lon="6.53357">
        <ele>2179</ele>
        <time>2021-02-21T05:59:09Z</time>
      </trkpt>
      <trkpt lat="44.46086" lon="6.53358">
        <ele>2179</ele>
        <time>2021-02-21T05:59:10Z</time>
      </trkpt>
      <trkpt lat="44.46086" lon="6.53358">
        <ele>2179</ele>
        <time>2021-02-21T05:59:11Z</time>
      </trkpt>
      <trkpt lat="44.46086" lon="6.53358">
        <ele>2179</ele>
        <time>2021-02-21T05:59:12Z</time>
      </trkpt>
      <trkpt lat="44.46085" lon="6.53356">
        <ele>2180</ele>
        <time>2021-02-21T05:59:13Z</time>
      </trkpt>
      <trkpt lat="44.46084" lon="6.53355">
        <ele>2180</ele>
        <time>2021-02-21T05:59:14Z</time>
      </trkpt>
      <trkpt lat="44.46084" lon="6.53353">
        <ele>2180</ele>
        <time>2021-02-21T05:59:15Z</time>
      </trkpt>
      <trkpt lat="44.46084" lon="6.53351">
        <ele>2181</ele>
        <time>2021-02-21T05:59:16Z</time>
      </trkpt>
      <trkpt lat="44.46083" lon="6.5335">
        <ele>2181</ele>
        <time>2021-02-21T05:59:17Z</time>
      </trkpt>
      <trkpt lat="44.46083" lon="6.53349">
        <ele>2181</ele>
        <time>2021-02-21T05:59:18Z</time>
      </trkpt>
      <trkpt lat="44.46083" lon="6.53348">
        <ele>2181</ele>
        <time>2021-02-21T05:59:19Z</time>
      </trkpt>
      <trkpt lat="44.46083" lon="6.53347">
        <ele>2181</ele>
        <time>2021-02-21T05:59:20Z</time>
      </trkpt>
      <trkpt lat="44.46082" lon="6.53345">
        <ele>2182</ele>
        <time>2021-02-21T05:59:21Z</time>
      </trkpt>
      <trkpt lat="44.46081" lon="6.53343">
        <ele>2182</ele>
        <time>2021-02-21T05:59:22Z</time>
      </trkpt>
      <trkpt lat="44.4608" lon="6.53342">
        <ele>2183</ele>
        <time>2021-02-21T05:59:23Z</time>
      </trkpt>
      <trkpt lat="44.4608" lon="6.5334">
        <ele>2184</ele>
        <time>2021-02-21T05:59:24Z</time>
      </trkpt>
      <trkpt lat="44.4608" lon="6.53338">
        <ele>2184</ele>
        <time>2021-02-21T05:59:25Z</time>
      </trkpt>
      <trkpt lat="44.4608" lon="6.53337">
        <ele>2184</ele>
        <time>2021-02-21T05:59:26Z</time>
      </trkpt>
      <trkpt lat="44.4608" lon="6.53334">
        <ele>2185</ele>
        <time>2021-02-21T05:59:27Z</time>
      </trkpt>
      <trkpt lat="44.4608" lon="6.53333">
        <ele>2185</ele>
        <time>2021-02-21T05:59:28Z</time>
      </trkpt>
      <trkpt lat="44.4608" lon="6.5333">
        <ele>2185</ele>
        <time>2021-02-21T05:59:29Z</time>
      </trkpt>
      <trkpt lat="44.4608" lon="6.53329">
        <ele>2186</ele>
        <time>2021-02-21T05:59:30Z</time>
      </trkpt>
      <trkpt lat="44.4608" lon="6.53327">
        <ele>2186</ele>
        <time>2021-02-21T05:59:31Z</time>
      </trkpt>
      <trkpt lat="44.4608" lon="6.53325">
        <ele>2186</ele>
        <time>2021-02-21T05:59:32Z</time>
      </trkpt>
      <trkpt lat="44.4608" lon="6.53324">
        <ele>2186</ele>
        <time>2021-02-21T05:59:33Z</time>
      </trkpt>
      <trkpt lat="44.4608" lon="6.53322">
        <ele>2187</ele>
        <time>2021-02-21T05:59:34Z</time>
      </trkpt>
      <trkpt lat="44.4608" lon="6.53321">
        <ele>2187</ele>
        <time>2021-02-21T05:59:35Z</time>
      </trkpt>
      <trkpt lat="44.4608" lon="6.53319">
        <ele>2187</ele>
        <time>2021-02-21T05:59:36Z</time>
      </trkpt>
      <trkpt lat="44.4608" lon="6.53317">
        <ele>2187</ele>
        <time>2021-02-21T05:59:37Z</time>
      </trkpt>
      <trkpt lat="44.46081" lon="6.53316">
        <ele>2187</ele>
        <time>2021-02-21T05:59:38Z</time>
      </trkpt>
      <trkpt lat="44.46081" lon="6.53314">
        <ele>2187</ele>
        <time>2021-02-21T05:59:39Z</time>
      </trkpt>
      <trkpt lat="44.46081" lon="6.53312">
        <ele>2188</ele>
        <time>2021-02-21T05:59:40Z</time>
      </trkpt>
      <trkpt lat="44.46081" lon="6.5331">
        <ele>2188</ele>
        <time>2021-02-21T05:59:41Z</time>
      </trkpt>
      <trkpt lat="44.46081" lon="6.53309">
        <ele>2188</ele>
        <time>2021-02-21T05:59:42Z</time>
      </trkpt>
      <trkpt lat="44.4608" lon="6.53307">
        <ele>2188</ele>
        <time>2021-02-21T05:59:43Z</time>
      </trkpt>
      <trkpt lat="44.46081" lon="6.53306">
        <ele>2188</ele>
        <time>2021-02-21T05:59:44Z</time>
      </trkpt>
      <trkpt lat="44.46081" lon="6.53305">
        <ele>2188</ele>
        <time>2021-02-21T05:59:45Z</time>
      </trkpt>
      <trkpt lat="44.46081" lon="6.53303">
        <ele>2188</ele>
        <time>2021-02-21T05:59:46Z</time>
      </trkpt>
      <trkpt lat="44.46081" lon="6.53302">
        <ele>2189</ele>
        <time>2021-02-21T05:59:47Z</time>
      </trkpt>
      <trkpt lat="44.46081" lon="6.53301">
        <ele>2189</ele>
        <time>2021-02-21T05:59:48Z</time>
      </trkpt>
      <trkpt lat="44.46081" lon="6.533">
        <ele>2189</ele>
        <time>2021-02-21T05:59:49Z</time>
      </trkpt>
      <trkpt lat="44.46081" lon="6.53299">
        <ele>2189</ele>
        <time>2021-02-21T05:59:50Z</time>
      </trkpt>
      <trkpt lat="44.46082" lon="6.53298">
        <ele>2189</ele>
        <time>2021-02-21T05:59:51Z</time>
      </trkpt>
      <trkpt lat="44.46083" lon="6.53296">
        <ele>2190</ele>
        <time>2021-02-21T05:59:52Z</time>
      </trkpt>
      <trkpt lat="44.46083" lon="6.53295">
        <ele>2190</ele>
        <time>2021-02-21T05:59:53Z</time>
      </trkpt>
      <trkpt lat="44.46083" lon="6.53293">
        <ele>2190</ele>
        <time>2021-02-21T05:59:54Z</time>
      </trkpt>
      <trkpt lat="44.46083" lon="6.53292">
        <ele>2191</ele>
        <time>2021-02-21T05:59:55Z</time>
      </trkpt>
      <trkpt lat="44.46083" lon="6.53291">
        <ele>2191</ele>
        <time>2021-02-21T05:59:56Z</time>
      </trkpt>
      <trkpt lat="44.46084" lon="6.53289">
        <ele>2192</ele>
        <time>2021-02-21T05:59:57Z</time>
      </trkpt>
      <trkpt lat="44.46084" lon="6.53288">
        <ele>2192</ele>
        <time>2021-02-21T05:59:58Z</time>
      </trkpt>
      <trkpt lat="44.46085" lon="6.53287">
        <ele>2192</ele>
        <time>2021-02-21T05:59:59Z</time>
      </trkpt>
      <trkpt lat="44.46084" lon="6.53286">
        <ele>2193</ele>
        <time>2021-02-21T06:00:00Z</time>
      </trkpt>
      <trkpt lat="44.46084" lon="6.53284">
        <ele>2193</ele>
        <time>2021-02-21T06:00:01Z</time>
      </trkpt>
      <trkpt lat="44.46084" lon="6.53283">
        <ele>2193</ele>
        <time>2021-02-21T06:00:02Z</time>
      </trkpt>
      <trkpt lat="44.46085" lon="6.53281">
        <ele>2194</ele>
        <time>2021-02-21T06:00:03Z</time>
      </trkpt>
      <trkpt lat="44.46085" lon="6.5328">
        <ele>2194</ele>
        <time>2021-02-21T06:00:04Z</time>
      </trkpt>
      <trkpt lat="44.46086" lon="6.53278">
        <ele>2194</ele>
        <time>2021-02-21T06:00:05Z</time>
      </trkpt>
      <trkpt lat="44.46086" lon="6.53277">
        <ele>2194</ele>
        <time>2021-02-21T06:00:06Z</time>
      </trkpt>
      <trkpt lat="44.46086" lon="6.53275">
        <ele>2195</ele>
        <time>2021-02-21T06:00:07Z</time>
      </trkpt>
      <trkpt lat="44.46087" lon="6.53273">
        <ele>2196</ele>
        <time>2021-02-21T06:00:08Z</time>
      </trkpt>
      <trkpt lat="44.46087" lon="6.53272">
        <ele>2196</ele>
        <time>2021-02-21T06:00:09Z</time>
      </trkpt>
      <trkpt lat="44.46087" lon="6.5327">
        <ele>2196</ele>
        <time>2021-02-21T06:00:10Z</time>
      </trkpt>
      <trkpt lat="44.46087" lon="6.53269">
        <ele>2197</ele>
        <time>2021-02-21T06:00:11Z</time>
      </trkpt>
      <trkpt lat="44.46087" lon="6.53268">
        <ele>2197</ele>
        <time>2021-02-21T06:00:12Z</time>
      </trkpt>
      <trkpt lat="44.46086" lon="6.53266">
        <ele>2197</ele>
        <time>2021-02-21T06:00:13Z</time>
      </trkpt>
      <trkpt lat="44.46086" lon="6.53265">
        <ele>2198</ele>
        <time>2021-02-21T06:00:14Z</time>
      </trkpt>
      <trkpt lat="44.46086" lon="6.53263">
        <ele>2198</ele>
        <time>2021-02-21T06:00:15Z</time>
      </trkpt>
      <trkpt lat="44.46086" lon="6.53262">
        <ele>2198</ele>
        <time>2021-02-21T06:00:16Z</time>
      </trkpt>
      <trkpt lat="44.46086" lon="6.53261">
        <ele>2199</ele>
        <time>2021-02-21T06:00:17Z</time>
      </trkpt>
      <trkpt lat="44.46086" lon="6.5326">
        <ele>2199</ele>
        <time>2021-02-21T06:00:18Z</time>
      </trkpt>
      <trkpt lat="44.46085" lon="6.53259">
        <ele>2199</ele>
        <time>2021-02-21T06:00:19Z</time>
      </trkpt>
      <trkpt lat="44.46085" lon="6.53258">
        <ele>2199</ele>
        <time>2021-02-21T06:00:20Z</time>
      </trkpt>
      <trkpt lat="44.46084" lon="6.53257">
        <ele>2200</ele>
        <time>2021-02-21T06:00:21Z</time>
      </trkpt>
      <trkpt lat="44.46084" lon="6.53257">
        <ele>2200</ele>
        <time>2021-02-21T06:00:22Z</time>
      </trkpt>
      <trkpt lat="44.46084" lon="6.53256">
        <ele>2200</ele>
        <time>2021-02-21T06:00:23Z</time>
      </trkpt>
      <trkpt lat="44.46084" lon="6.53255">
        <ele>2200</ele>
        <time>2021-02-21T06:00:24Z</time>
      </trkpt>
      <trkpt lat="44.46084" lon="6.53254">
        <ele>2200</ele>
        <time>2021-02-21T06:00:25Z</time>
      </trkpt>
      <trkpt lat="44.46083" lon="6.53253">
        <ele>2201</ele>
        <time>2021-02-21T06:00:26Z</time>
      </trkpt>
      <trkpt lat="44.46083" lon="6.53252">
        <ele>2201</ele>
        <time>2021-02-21T06:00:27Z</time>
      </trkpt>
      <trkpt lat="44.46083" lon="6.53251">
        <ele>2201</ele>
        <time>2021-02-21T06:00:28Z</time>
      </trkpt>
      <trkpt lat="44.46083" lon="6.5325">
        <ele>2201</ele>
        <time>2021-02-21T06:00:29Z</time>
      </trkpt>
      <trkpt lat="44.46083" lon="6.53249">
        <ele>2201</ele>
        <time>2021-02-21T06:00:30Z</time>
      </trkpt>
      <trkpt lat="44.46083" lon="6.53248">
        <ele>2202</ele>
        <time>2021-02-21T06:00:31Z</time>
      </trkpt>
      <trkpt lat="44.46083" lon="6.53246">
        <ele>2202</ele>
        <time>2021-02-21T06:00:32Z</time>
      </trkpt>
      <trkpt lat="44.46083" lon="6.53245">
        <ele>2202</ele>
        <time>2021-02-21T06:00:33Z</time>
      </trkpt>
      <trkpt lat="44.46083" lon="6.53244">
        <ele>2202</ele>
        <time>2021-02-21T06:00:34Z</time>
      </trkpt>
      <trkpt lat="44.46082" lon="6.53242">
        <ele>2202</ele>
        <time>2021-02-21T06:00:35Z</time>
      </trkpt>
      <trkpt lat="44.46083" lon="6.53241">
        <ele>2202</ele>
        <time>2021-02-21T06:00:36Z</time>
      </trkpt>
      <trkpt lat="44.46083" lon="6.53241">
        <ele>2202</ele>
        <time>2021-02-21T06:00:37Z</time>
      </trkpt>
      <trkpt lat="44.46082" lon="6.5324">
        <ele>2202</ele>
        <time>2021-02-21T06:00:38Z</time>
      </trkpt>
      <trkpt lat="44.46082" lon="6.53239">
        <ele>2202</ele>
        <time>2021-02-21T06:00:39Z</time>
      </trkpt>
      <trkpt lat="44.46082" lon="6.53238">
        <ele>2202</ele>
        <time>2021-02-21T06:00:40Z</time>
      </trkpt>
      <trkpt lat="44.46082" lon="6.53236">
        <ele>2202</ele>
        <time>2021-02-21T06:00:41Z</time>
      </trkpt>
      <trkpt lat="44.46082" lon="6.53234">
        <ele>2202</ele>
        <time>2021-02-21T06:00:42Z</time>
      </trkpt>
      <trkpt lat="44.46082" lon="6.53233">
        <ele>2202</ele>
        <time>2021-02-21T06:00:43Z</time>
      </trkpt>
      <trkpt lat="44.46082" lon="6.53231">
        <ele>2202</ele>
        <time>2021-02-21T06:00:44Z</time>
      </trkpt>
      <trkpt lat="44.46082" lon="6.5323">
        <ele>2202</ele>
        <time>2021-02-21T06:00:45Z</time>
      </trkpt>
      <trkpt lat="44.46082" lon="6.53229">
        <ele>2202</ele>
        <time>2021-02-21T06:00:46Z</time>
      </trkpt>
      <trkpt lat="44.46082" lon="6.53228">
        <ele>2202</ele>
        <time>2021-02-21T06:00:47Z</time>
      </trkpt>
      <trkpt lat="44.46082" lon="6.53227">
        <ele>2202</ele>
        <time>2021-02-21T06:00:48Z</time>
      </trkpt>
      <trkpt lat="44.46082" lon="6.53226">
        <ele>2202</ele>
        <time>2021-02-21T06:00:49Z</time>
      </trkpt>
      <trkpt lat="44.46082" lon="6.53224">
        <ele>2202</ele>
        <time>2021-02-21T06:00:50Z</time>
      </trkpt>
      <trkpt lat="44.46082" lon="6.53222">
        <ele>2202</ele>
        <time>2021-02-21T06:00:51Z</time>
      </trkpt>
      <trkpt lat="44.46082" lon="6.53221">
        <ele>2202</ele>
        <time>2021-02-21T06:00:52Z</time>
      </trkpt>
      <trkpt lat="44.46082" lon="6.5322">
        <ele>2202</ele>
        <time>2021-02-21T06:00:53Z</time>
      </trkpt>
      <trkpt lat="44.46082" lon="6.53218">
        <ele>2202</ele>
        <time>2021-02-21T06:00:54Z</time>
      </trkpt>
      <trkpt lat="44.46081" lon="6.53216">
        <ele>2202</ele>
        <time>2021-02-21T06:00:55Z</time>
      </trkpt>
      <trkpt lat="44.46081" lon="6.53215">
        <ele>2202</ele>
        <time>2021-02-21T06:00:56Z</time>
      </trkpt>
      <trkpt lat="44.46082" lon="6.53213">
        <ele>2202</ele>
        <time>2021-02-21T06:00:57Z</time>
      </trkpt>
      <trkpt lat="44.46081" lon="6.53213">
        <ele>2202</ele>
        <time>2021-02-21T06:00:58Z</time>
      </trkpt>
      <trkpt lat="44.46081" lon="6.53212">
        <ele>2202</ele>
        <time>2021-02-21T06:00:59Z</time>
      </trkpt>
      <trkpt lat="44.46081" lon="6.53211">
        <ele>2202</ele>
        <time>2021-02-21T06:01:00Z</time>
      </trkpt>
      <trkpt lat="44.46081" lon="6.5321">
        <ele>2202</ele>
        <time>2021-02-21T06:01:01Z</time>
      </trkpt>
      <trkpt lat="44.4608" lon="6.53209">
        <ele>2202</ele>
        <time>2021-02-21T06:01:02Z</time>
      </trkpt>
      <trkpt lat="44.4608" lon="6.53207">
        <ele>2202</ele>
        <time>2021-02-21T06:01:03Z</time>
      </trkpt>
      <trkpt lat="44.46079" lon="6.53205">
        <ele>2202</ele>
        <time>2021-02-21T06:01:04Z</time>
      </trkpt>
      <trkpt lat="44.46078" lon="6.53204">
        <ele>2203</ele>
        <time>2021-02-21T06:01:05Z</time>
      </trkpt>
      <trkpt lat="44.46078" lon="6.53203">
        <ele>2203</ele>
        <time>2021-02-21T06:01:06Z</time>
      </trkpt>
      <trkpt lat="44.46078" lon="6.53202">
        <ele>2203</ele>
        <time>2021-02-21T06:01:07Z</time>
      </trkpt>
      <trkpt lat="44.46077" lon="6.53201">
        <ele>2203</ele>
        <time>2021-02-21T06:01:08Z</time>
      </trkpt>
      <trkpt lat="44.46077" lon="6.532">
        <ele>2203</ele>
        <time>2021-02-21T06:01:09Z</time>
      </trkpt>
      <trkpt lat="44.46077" lon="6.53198">
        <ele>2203</ele>
        <time>2021-02-21T06:01:10Z</time>
      </trkpt>
      <trkpt lat="44.46077" lon="6.53196">
        <ele>2203</ele>
        <time>2021-02-21T06:01:11Z</time>
      </trkpt>
      <trkpt lat="44.46077" lon="6.53195">
        <ele>2203</ele>
        <time>2021-02-21T06:01:12Z</time>
      </trkpt>
      <trkpt lat="44.46076" lon="6.53194">
        <ele>2203</ele>
        <time>2021-02-21T06:01:13Z</time>
      </trkpt>
      <trkpt lat="44.46076" lon="6.53192">
        <ele>2203</ele>
        <time>2021-02-21T06:01:14Z</time>
      </trkpt>
      <trkpt lat="44.46075" lon="6.5319">
        <ele>2203</ele>
        <time>2021-02-21T06:01:15Z</time>
      </trkpt>
      <trkpt lat="44.46076" lon="6.53189">
        <ele>2202</ele>
        <time>2021-02-21T06:01:16Z</time>
      </trkpt>
      <trkpt lat="44.46076" lon="6.53188">
        <ele>2202</ele>
        <time>2021-02-21T06:01:17Z</time>
      </trkpt>
      <trkpt lat="44.46076" lon="6.53188">
        <ele>2202</ele>
        <time>2021-02-21T06:01:18Z</time>
      </trkpt>
      <trkpt lat="44.46076" lon="6.53187">
        <ele>2202</ele>
        <time>2021-02-21T06:01:19Z</time>
      </trkpt>
      <trkpt lat="44.46076" lon="6.53187">
        <ele>2202</ele>
        <time>2021-02-21T06:01:20Z</time>
      </trkpt>
      <trkpt lat="44.46076" lon="6.53187">
        <ele>2202</ele>
        <time>2021-02-21T06:01:21Z</time>
      </trkpt>
      <trkpt lat="44.46076" lon="6.53187">
        <ele>2202</ele>
        <time>2021-02-21T06:01:22Z</time>
      </trkpt>
      <trkpt lat="44.46076" lon="6.53187">
        <ele>2202</ele>
        <time>2021-02-21T06:01:23Z</time>
      </trkpt>
      <trkpt lat="44.46076" lon="6.53187">
        <ele>2201</ele>
        <time>2021-02-21T06:01:24Z</time>
      </trkpt>
      <trkpt lat="44.46076" lon="6.53187">
        <ele>2201</ele>
        <time>2021-02-21T06:01:25Z</time>
      </trkpt>
      <trkpt lat="44.46076" lon="6.53187">
        <ele>2201</ele>
        <time>2021-02-21T06:01:26Z</time>
      </trkpt>
      <trkpt lat="44.46076" lon="6.53187">
        <ele>2201</ele>
        <time>2021-02-21T06:01:27Z</time>
      </trkpt>
      <trkpt lat="44.46076" lon="6.53187">
        <ele>2201</ele>
        <time>2021-02-21T06:01:28Z</time>
      </trkpt>
      <trkpt lat="44.46076" lon="6.53187">
        <ele>2201</ele>
        <time>2021-02-21T06:01:29Z</time>
      </trkpt>
      <trkpt lat="44.46076" lon="6.53187">
        <ele>2201</ele>
        <time>2021-02-21T06:01:30Z</time>
      </trkpt>
      <trkpt lat="44.46076" lon="6.53187">
        <ele>2201</ele>
        <time>2021-02-21T06:01:31Z</time>
      </trkpt>
      <trkpt lat="44.46076" lon="6.53187">
        <ele>2201</ele>
        <time>2021-02-21T06:01:32Z</time>
      </trkpt>
      <trkpt lat="44.46076" lon="6.53187">
        <ele>2201</ele>
        <time>2021-02-21T06:01:33Z</time>
      </trkpt>
      <trkpt lat="44.46073" lon="6.53184">
        <ele>2201</ele>
        <time>2021-02-21T06:01:34Z</time>
      </trkpt>
      <trkpt lat="44.46072" lon="6.53183">
        <ele>2201</ele>
        <time>2021-02-21T06:01:35Z</time>
      </trkpt>
      <trkpt lat="44.46072" lon="6.53182">
        <ele>2200</ele>
        <time>2021-02-21T06:01:36Z</time>
      </trkpt>
      <trkpt lat="44.46071" lon="6.5318">
        <ele>2200</ele>
        <time>2021-02-21T06:01:37Z</time>
      </trkpt>
      <trkpt lat="44.46071" lon="6.53178">
        <ele>2200</ele>
        <time>2021-02-21T06:01:38Z</time>
      </trkpt>
      <trkpt lat="44.46071" lon="6.53177">
        <ele>2199</ele>
        <time>2021-02-21T06:01:39Z</time>
      </trkpt>
      <trkpt lat="44.46071" lon="6.53175">
        <ele>2199</ele>
        <time>2021-02-21T06:01:40Z</time>
      </trkpt>
      <trkpt lat="44.46071" lon="6.53174">
        <ele>2199</ele>
        <time>2021-02-21T06:01:41Z</time>
      </trkpt>
      <trkpt lat="44.4607" lon="6.53173">
        <ele>2198</ele>
        <time>2021-02-21T06:01:42Z</time>
      </trkpt>
      <trkpt lat="44.4607" lon="6.53171">
        <ele>2197</ele>
        <time>2021-02-21T06:01:43Z</time>
      </trkpt>
      <trkpt lat="44.4607" lon="6.5317">
        <ele>2197</ele>
        <time>2021-02-21T06:01:44Z</time>
      </trkpt>
      <trkpt lat="44.46069" lon="6.53168">
        <ele>2196</ele>
        <time>2021-02-21T06:01:45Z</time>
      </trkpt>
      <trkpt lat="44.46069" lon="6.53166">
        <ele>2196</ele>
        <time>2021-02-21T06:01:46Z</time>
      </trkpt>
      <trkpt lat="44.46068" lon="6.53164">
        <ele>2195</ele>
        <time>2021-02-21T06:01:47Z</time>
      </trkpt>
      <trkpt lat="44.46068" lon="6.53163">
        <ele>2195</ele>
        <time>2021-02-21T06:01:48Z</time>
      </trkpt>
      <trkpt lat="44.46068" lon="6.53161">
        <ele>2195</ele>
        <time>2021-02-21T06:01:49Z</time>
      </trkpt>
      <trkpt lat="44.46068" lon="6.53159">
        <ele>2194</ele>
        <time>2021-02-21T06:01:50Z</time>
      </trkpt>
      <trkpt lat="44.46068" lon="6.53158">
        <ele>2194</ele>
        <time>2021-02-21T06:01:51Z</time>
      </trkpt>
      <trkpt lat="44.46068" lon="6.53157">
        <ele>2194</ele>
        <time>2021-02-21T06:01:52Z</time>
      </trkpt>
      <trkpt lat="44.46067" lon="6.53155">
        <ele>2193</ele>
        <time>2021-02-21T06:01:53Z</time>
      </trkpt>
      <trkpt lat="44.46067" lon="6.53153">
        <ele>2193</ele>
        <time>2021-02-21T06:01:54Z</time>
      </trkpt>
      <trkpt lat="44.46066" lon="6.53152">
        <ele>2193</ele>
        <time>2021-02-21T06:01:55Z</time>
      </trkpt>
      <trkpt lat="44.46065" lon="6.53151">
        <ele>2193</ele>
        <time>2021-02-21T06:01:56Z</time>
      </trkpt>
      <trkpt lat="44.46065" lon="6.53148">
        <ele>2193</ele>
        <time>2021-02-21T06:01:57Z</time>
      </trkpt>
      <trkpt lat="44.46065" lon="6.53146">
        <ele>2193</ele>
        <time>2021-02-21T06:01:58Z</time>
      </trkpt>
      <trkpt lat="44.46065" lon="6.53144">
        <ele>2192</ele>
        <time>2021-02-21T06:01:59Z</time>
      </trkpt>
      <trkpt lat="44.46064" lon="6.53142">
        <ele>2192</ele>
        <time>2021-02-21T06:02:00Z</time>
      </trkpt>
      <trkpt lat="44.46064" lon="6.5314">
        <ele>2193</ele>
        <time>2021-02-21T06:02:01Z</time>
      </trkpt>
      <trkpt lat="44.46063" lon="6.53138">
        <ele>2193</ele>
        <time>2021-02-21T06:02:02Z</time>
      </trkpt>
      <trkpt lat="44.46063" lon="6.53137">
        <ele>2193</ele>
        <time>2021-02-21T06:02:03Z</time>
      </trkpt>
      <trkpt lat="44.46062" lon="6.53136">
        <ele>2193</ele>
        <time>2021-02-21T06:02:04Z</time>
      </trkpt>
      <trkpt lat="44.46062" lon="6.53134">
        <ele>2194</ele>
        <time>2021-02-21T06:02:05Z</time>
      </trkpt>
      <trkpt lat="44.46062" lon="6.53133">
        <ele>2194</ele>
        <time>2021-02-21T06:02:06Z</time>
      </trkpt>
      <trkpt lat="44.46061" lon="6.53132">
        <ele>2194</ele>
        <time>2021-02-21T06:02:07Z</time>
      </trkpt>
      <trkpt lat="44.46061" lon="6.53131">
        <ele>2194</ele>
        <time>2021-02-21T06:02:08Z</time>
      </trkpt>
      <trkpt lat="44.46061" lon="6.5313">
        <ele>2194</ele>
        <time>2021-02-21T06:02:09Z</time>
      </trkpt>
      <trkpt lat="44.4606" lon="6.5313">
        <ele>2194</ele>
        <time>2021-02-21T06:02:10Z</time>
      </trkpt>
      <trkpt lat="44.46059" lon="6.53129">
        <ele>2194</ele>
        <time>2021-02-21T06:02:11Z</time>
      </trkpt>
      <trkpt lat="44.46059" lon="6.53129">
        <ele>2194</ele>
        <time>2021-02-21T06:02:12Z</time>
      </trkpt>
      <trkpt lat="44.46059" lon="6.53128">
        <ele>2194</ele>
        <time>2021-02-21T06:02:13Z</time>
      </trkpt>
      <trkpt lat="44.46058" lon="6.53127">
        <ele>2194</ele>
        <time>2021-02-21T06:02:14Z</time>
      </trkpt>
      <trkpt lat="44.46058" lon="6.53126">
        <ele>2194</ele>
        <time>2021-02-21T06:02:15Z</time>
      </trkpt>
      <trkpt lat="44.46057" lon="6.53125">
        <ele>2194</ele>
        <time>2021-02-21T06:02:16Z</time>
      </trkpt>
      <trkpt lat="44.46057" lon="6.53124">
        <ele>2194</ele>
        <time>2021-02-21T06:02:17Z</time>
      </trkpt>
      <trkpt lat="44.46057" lon="6.53122">
        <ele>2194</ele>
        <time>2021-02-21T06:02:18Z</time>
      </trkpt>
      <trkpt lat="44.46057" lon="6.53122">
        <ele>2194</ele>
        <time>2021-02-21T06:02:19Z</time>
      </trkpt>
      <trkpt lat="44.46057" lon="6.53121">
        <ele>2194</ele>
        <time>2021-02-21T06:02:20Z</time>
      </trkpt>
      <trkpt lat="44.46056" lon="6.53119">
        <ele>2194</ele>
        <time>2021-02-21T06:02:21Z</time>
      </trkpt>
      <trkpt lat="44.46056" lon="6.53118">
        <ele>2194</ele>
        <time>2021-02-21T06:02:22Z</time>
      </trkpt>
      <trkpt lat="44.46056" lon="6.53117">
        <ele>2194</ele>
        <time>2021-02-21T06:02:23Z</time>
      </trkpt>
      <trkpt lat="44.46056" lon="6.53116">
        <ele>2194</ele>
        <time>2021-02-21T06:02:24Z</time>
      </trkpt>
      <trkpt lat="44.46055" lon="6.53114">
        <ele>2194</ele>
        <time>2021-02-21T06:02:25Z</time>
      </trkpt>
      <trkpt lat="44.46055" lon="6.53111">
        <ele>2194</ele>
        <time>2021-02-21T06:02:26Z</time>
      </trkpt>
      <trkpt lat="44.46054" lon="6.5311">
        <ele>2195</ele>
        <time>2021-02-21T06:02:27Z</time>
      </trkpt>
      <trkpt lat="44.46054" lon="6.53108">
        <ele>2195</ele>
        <time>2021-02-21T06:02:28Z</time>
      </trkpt>
      <trkpt lat="44.46053" lon="6.53107">
        <ele>2195</ele>
        <time>2021-02-21T06:02:29Z</time>
      </trkpt>
      <trkpt lat="44.46053" lon="6.53105">
        <ele>2195</ele>
        <time>2021-02-21T06:02:30Z</time>
      </trkpt>
      <trkpt lat="44.46053" lon="6.53103">
        <ele>2195</ele>
        <time>2021-02-21T06:02:31Z</time>
      </trkpt>
      <trkpt lat="44.46053" lon="6.53102">
        <ele>2195</ele>
        <time>2021-02-21T06:02:32Z</time>
      </trkpt>
      <trkpt lat="44.46052" lon="6.53101">
        <ele>2196</ele>
        <time>2021-02-21T06:02:33Z</time>
      </trkpt>
      <trkpt lat="44.46052" lon="6.53099">
        <ele>2196</ele>
        <time>2021-02-21T06:02:34Z</time>
      </trkpt>
      <trkpt lat="44.46052" lon="6.53098">
        <ele>2196</ele>
        <time>2021-02-21T06:02:35Z</time>
      </trkpt>
      <trkpt lat="44.46051" lon="6.53097">
        <ele>2196</ele>
        <time>2021-02-21T06:02:36Z</time>
      </trkpt>
      <trkpt lat="44.46051" lon="6.53096">
        <ele>2196</ele>
        <time>2021-02-21T06:02:37Z</time>
      </trkpt>
      <trkpt lat="44.4605" lon="6.53094">
        <ele>2196</ele>
        <time>2021-02-21T06:02:38Z</time>
      </trkpt>
      <trkpt lat="44.46049" lon="6.53093">
        <ele>2197</ele>
        <time>2021-02-21T06:02:39Z</time>
      </trkpt>
      <trkpt lat="44.46049" lon="6.53092">
        <ele>2197</ele>
        <time>2021-02-21T06:02:40Z</time>
      </trkpt>
      <trkpt lat="44.46048" lon="6.53091">
        <ele>2197</ele>
        <time>2021-02-21T06:02:41Z</time>
      </trkpt>
      <trkpt lat="44.46048" lon="6.53089">
        <ele>2197</ele>
        <time>2021-02-21T06:02:42Z</time>
      </trkpt>
      <trkpt lat="44.46047" lon="6.53087">
        <ele>2197</ele>
        <time>2021-02-21T06:02:43Z</time>
      </trkpt>
      <trkpt lat="44.46047" lon="6.53086">
        <ele>2198</ele>
        <time>2021-02-21T06:02:44Z</time>
      </trkpt>
      <trkpt lat="44.46047" lon="6.53085">
        <ele>2198</ele>
        <time>2021-02-21T06:02:45Z</time>
      </trkpt>
      <trkpt lat="44.46046" lon="6.53083">
        <ele>2198</ele>
        <time>2021-02-21T06:02:46Z</time>
      </trkpt>
      <trkpt lat="44.46046" lon="6.53081">
        <ele>2198</ele>
        <time>2021-02-21T06:02:47Z</time>
      </trkpt>
      <trkpt lat="44.46046" lon="6.5308">
        <ele>2198</ele>
        <time>2021-02-21T06:02:48Z</time>
      </trkpt>
      <trkpt lat="44.46046" lon="6.53078">
        <ele>2199</ele>
        <time>2021-02-21T06:02:49Z</time>
      </trkpt>
      <trkpt lat="44.46046" lon="6.53077">
        <ele>2199</ele>
        <time>2021-02-21T06:02:50Z</time>
      </trkpt>
      <trkpt lat="44.46045" lon="6.53076">
        <ele>2199</ele>
        <time>2021-02-21T06:02:51Z</time>
      </trkpt>
      <trkpt lat="44.46045" lon="6.53075">
        <ele>2200</ele>
        <time>2021-02-21T06:02:52Z</time>
      </trkpt>
      <trkpt lat="44.46044" lon="6.53073">
        <ele>2200</ele>
        <time>2021-02-21T06:02:53Z</time>
      </trkpt>
      <trkpt lat="44.46045" lon="6.53072">
        <ele>2200</ele>
        <time>2021-02-21T06:02:54Z</time>
      </trkpt>
      <trkpt lat="44.46044" lon="6.5307">
        <ele>2201</ele>
        <time>2021-02-21T06:02:55Z</time>
      </trkpt>
      <trkpt lat="44.46043" lon="6.53069">
        <ele>2201</ele>
        <time>2021-02-21T06:02:56Z</time>
      </trkpt>
      <trkpt lat="44.46043" lon="6.53068">
        <ele>2202</ele>
        <time>2021-02-21T06:02:57Z</time>
      </trkpt>
      <trkpt lat="44.46042" lon="6.53068">
        <ele>2202</ele>
        <time>2021-02-21T06:02:58Z</time>
      </trkpt>
      <trkpt lat="44.46042" lon="6.53067">
        <ele>2202</ele>
        <time>2021-02-21T06:02:59Z</time>
      </trkpt>
      <trkpt lat="44.46041" lon="6.53066">
        <ele>2203</ele>
        <time>2021-02-21T06:03:00Z</time>
      </trkpt>
      <trkpt lat="44.46041" lon="6.53066">
        <ele>2203</ele>
        <time>2021-02-21T06:03:01Z</time>
      </trkpt>
      <trkpt lat="44.46041" lon="6.53065">
        <ele>2203</ele>
        <time>2021-02-21T06:03:02Z</time>
      </trkpt>
      <trkpt lat="44.4604" lon="6.53064">
        <ele>2203</ele>
        <time>2021-02-21T06:03:03Z</time>
      </trkpt>
      <trkpt lat="44.46041" lon="6.53064">
        <ele>2204</ele>
        <time>2021-02-21T06:03:04Z</time>
      </trkpt>
      <trkpt lat="44.4604" lon="6.53064">
        <ele>2204</ele>
        <time>2021-02-21T06:03:05Z</time>
      </trkpt>
      <trkpt lat="44.4604" lon="6.53063">
        <ele>2204</ele>
        <time>2021-02-21T06:03:06Z</time>
      </trkpt>
      <trkpt lat="44.46039" lon="6.53062">
        <ele>2204</ele>
        <time>2021-02-21T06:03:07Z</time>
      </trkpt>
      <trkpt lat="44.46039" lon="6.53061">
        <ele>2204</ele>
        <time>2021-02-21T06:03:08Z</time>
      </trkpt>
      <trkpt lat="44.46038" lon="6.53059">
        <ele>2204</ele>
        <time>2021-02-21T06:03:09Z</time>
      </trkpt>
      <trkpt lat="44.46038" lon="6.53058">
        <ele>2204</ele>
        <time>2021-02-21T06:03:10Z</time>
      </trkpt>
      <trkpt lat="44.46037" lon="6.53058">
        <ele>2204</ele>
        <time>2021-02-21T06:03:11Z</time>
      </trkpt>
      <trkpt lat="44.46037" lon="6.53057">
        <ele>2204</ele>
        <time>2021-02-21T06:03:12Z</time>
      </trkpt>
      <trkpt lat="44.46036" lon="6.53056">
        <ele>2204</ele>
        <time>2021-02-21T06:03:13Z</time>
      </trkpt>
      <trkpt lat="44.46036" lon="6.53056">
        <ele>2204</ele>
        <time>2021-02-21T06:03:14Z</time>
      </trkpt>
      <trkpt lat="44.46036" lon="6.53055">
        <ele>2204</ele>
        <time>2021-02-21T06:03:15Z</time>
      </trkpt>
      <trkpt lat="44.46036" lon="6.53055">
        <ele>2204</ele>
        <time>2021-02-21T06:03:16Z</time>
      </trkpt>
      <trkpt lat="44.46035" lon="6.53054">
        <ele>2205</ele>
        <time>2021-02-21T06:03:17Z</time>
      </trkpt>
      <trkpt lat="44.46035" lon="6.53053">
        <ele>2205</ele>
        <time>2021-02-21T06:03:18Z</time>
      </trkpt>
      <trkpt lat="44.46035" lon="6.53052">
        <ele>2205</ele>
        <time>2021-02-21T06:03:19Z</time>
      </trkpt>
      <trkpt lat="44.46034" lon="6.5305">
        <ele>2205</ele>
        <time>2021-02-21T06:03:20Z</time>
      </trkpt>
      <trkpt lat="44.46033" lon="6.5305">
        <ele>2205</ele>
        <time>2021-02-21T06:03:21Z</time>
      </trkpt>
      <trkpt lat="44.46033" lon="6.5305">
        <ele>2205</ele>
        <time>2021-02-21T06:03:22Z</time>
      </trkpt>
      <trkpt lat="44.46033" lon="6.5305">
        <ele>2205</ele>
        <time>2021-02-21T06:03:23Z</time>
      </trkpt>
      <trkpt lat="44.46033" lon="6.53049">
        <ele>2205</ele>
        <time>2021-02-21T06:03:24Z</time>
      </trkpt>
      <trkpt lat="44.46033" lon="6.53049">
        <ele>2205</ele>
        <time>2021-02-21T06:03:25Z</time>
      </trkpt>
      <trkpt lat="44.46033" lon="6.53049">
        <ele>2205</ele>
        <time>2021-02-21T06:03:26Z</time>
      </trkpt>
      <trkpt lat="44.46033" lon="6.53048">
        <ele>2205</ele>
        <time>2021-02-21T06:03:27Z</time>
      </trkpt>
      <trkpt lat="44.46032" lon="6.53046">
        <ele>2205</ele>
        <time>2021-02-21T06:03:28Z</time>
      </trkpt>
      <trkpt lat="44.46032" lon="6.53045">
        <ele>2206</ele>
        <time>2021-02-21T06:03:29Z</time>
      </trkpt>
      <trkpt lat="44.46031" lon="6.53044">
        <ele>2206</ele>
        <time>2021-02-21T06:03:30Z</time>
      </trkpt>
      <trkpt lat="44.46031" lon="6.53043">
        <ele>2206</ele>
        <time>2021-02-21T06:03:31Z</time>
      </trkpt>
      <trkpt lat="44.4603" lon="6.53041">
        <ele>2206</ele>
        <time>2021-02-21T06:03:32Z</time>
      </trkpt>
      <trkpt lat="44.4603" lon="6.5304">
        <ele>2206</ele>
        <time>2021-02-21T06:03:33Z</time>
      </trkpt>
      <trkpt lat="44.46029" lon="6.53038">
        <ele>2206</ele>
        <time>2021-02-21T06:03:34Z</time>
      </trkpt>
      <trkpt lat="44.46029" lon="6.53038">
        <ele>2206</ele>
        <time>2021-02-21T06:03:35Z</time>
      </trkpt>
      <trkpt lat="44.46029" lon="6.53038">
        <ele>2207</ele>
        <time>2021-02-21T06:03:36Z</time>
      </trkpt>
      <trkpt lat="44.46029" lon="6.53038">
        <ele>2207</ele>
        <time>2021-02-21T06:03:37Z</time>
      </trkpt>
      <trkpt lat="44.46029" lon="6.53037">
        <ele>2207</ele>
        <time>2021-02-21T06:03:38Z</time>
      </trkpt>
      <trkpt lat="44.46029" lon="6.53037">
        <ele>2207</ele>
        <time>2021-02-21T06:03:39Z</time>
      </trkpt>
      <trkpt lat="44.46029" lon="6.53036">
        <ele>2207</ele>
        <time>2021-02-21T06:03:40Z</time>
      </trkpt>
      <trkpt lat="44.46029" lon="6.53034">
        <ele>2207</ele>
        <time>2021-02-21T06:03:41Z</time>
      </trkpt>
      <trkpt lat="44.46029" lon="6.53033">
        <ele>2206</ele>
        <time>2021-02-21T06:03:42Z</time>
      </trkpt>
      <trkpt lat="44.46029" lon="6.53031">
        <ele>2206</ele>
        <time>2021-02-21T06:03:43Z</time>
      </trkpt>
      <trkpt lat="44.46029" lon="6.53029">
        <ele>2206</ele>
        <time>2021-02-21T06:03:44Z</time>
      </trkpt>
      <trkpt lat="44.46029" lon="6.53027">
        <ele>2206</ele>
        <time>2021-02-21T06:03:45Z</time>
      </trkpt>
      <trkpt lat="44.4603" lon="6.53025">
        <ele>2206</ele>
        <time>2021-02-21T06:03:46Z</time>
      </trkpt>
      <trkpt lat="44.4603" lon="6.53023">
        <ele>2206</ele>
        <time>2021-02-21T06:03:47Z</time>
      </trkpt>
      <trkpt lat="44.4603" lon="6.53022">
        <ele>2206</ele>
        <time>2021-02-21T06:03:48Z</time>
      </trkpt>
      <trkpt lat="44.4603" lon="6.5302">
        <ele>2206</ele>
        <time>2021-02-21T06:03:49Z</time>
      </trkpt>
      <trkpt lat="44.46029" lon="6.53018">
        <ele>2206</ele>
        <time>2021-02-21T06:03:50Z</time>
      </trkpt>
      <trkpt lat="44.46029" lon="6.53017">
        <ele>2206</ele>
        <time>2021-02-21T06:03:51Z</time>
      </trkpt>
      <trkpt lat="44.46029" lon="6.53017">
        <ele>2206</ele>
        <time>2021-02-21T06:03:52Z</time>
      </trkpt>
      <trkpt lat="44.4603" lon="6.53016">
        <ele>2206</ele>
        <time>2021-02-21T06:03:53Z</time>
      </trkpt>
      <trkpt lat="44.4603" lon="6.53015">
        <ele>2206</ele>
        <time>2021-02-21T06:03:54Z</time>
      </trkpt>
      <trkpt lat="44.46029" lon="6.53015">
        <ele>2206</ele>
        <time>2021-02-21T06:03:55Z</time>
      </trkpt>
      <trkpt lat="44.46029" lon="6.53014">
        <ele>2206</ele>
        <time>2021-02-21T06:03:56Z</time>
      </trkpt>
      <trkpt lat="44.46029" lon="6.53013">
        <ele>2206</ele>
        <time>2021-02-21T06:03:57Z</time>
      </trkpt>
      <trkpt lat="44.46028" lon="6.53012">
        <ele>2206</ele>
        <time>2021-02-21T06:03:58Z</time>
      </trkpt>
      <trkpt lat="44.46028" lon="6.53011">
        <ele>2207</ele>
        <time>2021-02-21T06:03:59Z</time>
      </trkpt>
      <trkpt lat="44.46028" lon="6.53009">
        <ele>2207</ele>
        <time>2021-02-21T06:04:00Z</time>
      </trkpt>
      <trkpt lat="44.46027" lon="6.53008">
        <ele>2207</ele>
        <time>2021-02-21T06:04:01Z</time>
      </trkpt>
      <trkpt lat="44.46027" lon="6.53007">
        <ele>2207</ele>
        <time>2021-02-21T06:04:02Z</time>
      </trkpt>
      <trkpt lat="44.46027" lon="6.53006">
        <ele>2207</ele>
        <time>2021-02-21T06:04:03Z</time>
      </trkpt>
      <trkpt lat="44.46027" lon="6.53005">
        <ele>2207</ele>
        <time>2021-02-21T06:04:04Z</time>
      </trkpt>
      <trkpt lat="44.46027" lon="6.53004">
        <ele>2207</ele>
        <time>2021-02-21T06:04:05Z</time>
      </trkpt>
      <trkpt lat="44.46027" lon="6.53003">
        <ele>2207</ele>
        <time>2021-02-21T06:04:06Z</time>
      </trkpt>
      <trkpt lat="44.46026" lon="6.53002">
        <ele>2207</ele>
        <time>2021-02-21T06:04:07Z</time>
      </trkpt>
      <trkpt lat="44.46026" lon="6.53001">
        <ele>2207</ele>
        <time>2021-02-21T06:04:08Z</time>
      </trkpt>
      <trkpt lat="44.46026" lon="6.53">
        <ele>2207</ele>
        <time>2021-02-21T06:04:09Z</time>
      </trkpt>
      <trkpt lat="44.46026" lon="6.52999">
        <ele>2207</ele>
        <time>2021-02-21T06:04:10Z</time>
      </trkpt>
      <trkpt lat="44.46026" lon="6.52998">
        <ele>2207</ele>
        <time>2021-02-21T06:04:11Z</time>
      </trkpt>
      <trkpt lat="44.46026" lon="6.52997">
        <ele>2207</ele>
        <time>2021-02-21T06:04:12Z</time>
      </trkpt>
      <trkpt lat="44.46026" lon="6.52996">
        <ele>2207</ele>
        <time>2021-02-21T06:04:13Z</time>
      </trkpt>
      <trkpt lat="44.46026" lon="6.52995">
        <ele>2207</ele>
        <time>2021-02-21T06:04:14Z</time>
      </trkpt>
      <trkpt lat="44.46025" lon="6.52995">
        <ele>2207</ele>
        <time>2021-02-21T06:04:15Z</time>
      </trkpt>
      <trkpt lat="44.46025" lon="6.52994">
        <ele>2207</ele>
        <time>2021-02-21T06:04:16Z</time>
      </trkpt>
      <trkpt lat="44.46024" lon="6.52993">
        <ele>2207</ele>
        <time>2021-02-21T06:04:17Z</time>
      </trkpt>
      <trkpt lat="44.46024" lon="6.52992">
        <ele>2207</ele>
        <time>2021-02-21T06:04:18Z</time>
      </trkpt>
      <trkpt lat="44.46023" lon="6.52991">
        <ele>2208</ele>
        <time>2021-02-21T06:04:19Z</time>
      </trkpt>
      <trkpt lat="44.46023" lon="6.5299">
        <ele>2208</ele>
        <time>2021-02-21T06:04:20Z</time>
      </trkpt>
      <trkpt lat="44.46022" lon="6.52989">
        <ele>2208</ele>
        <time>2021-02-21T06:04:21Z</time>
      </trkpt>
      <trkpt lat="44.46021" lon="6.52988">
        <ele>2208</ele>
        <time>2021-02-21T06:04:22Z</time>
      </trkpt>
      <trkpt lat="44.4602" lon="6.52986">
        <ele>2208</ele>
        <time>2021-02-21T06:04:23Z</time>
      </trkpt>
      <trkpt lat="44.46019" lon="6.52984">
        <ele>2209</ele>
        <time>2021-02-21T06:04:24Z</time>
      </trkpt>
      <trkpt lat="44.46019" lon="6.52983">
        <ele>2209</ele>
        <time>2021-02-21T06:04:25Z</time>
      </trkpt>
      <trkpt lat="44.46018" lon="6.52981">
        <ele>2209</ele>
        <time>2021-02-21T06:04:26Z</time>
      </trkpt>
      <trkpt lat="44.46017" lon="6.52979">
        <ele>2209</ele>
        <time>2021-02-21T06:04:27Z</time>
      </trkpt>
      <trkpt lat="44.46017" lon="6.52978">
        <ele>2209</ele>
        <time>2021-02-21T06:04:28Z</time>
      </trkpt>
      <trkpt lat="44.46016" lon="6.52977">
        <ele>2209</ele>
        <time>2021-02-21T06:04:29Z</time>
      </trkpt>
      <trkpt lat="44.46015" lon="6.52976">
        <ele>2209</ele>
        <time>2021-02-21T06:04:30Z</time>
      </trkpt>
      <trkpt lat="44.46015" lon="6.52976">
        <ele>2209</ele>
        <time>2021-02-21T06:04:31Z</time>
      </trkpt>
      <trkpt lat="44.46014" lon="6.52974">
        <ele>2209</ele>
        <time>2021-02-21T06:04:32Z</time>
      </trkpt>
      <trkpt lat="44.46014" lon="6.52972">
        <ele>2209</ele>
        <time>2021-02-21T06:04:33Z</time>
      </trkpt>
      <trkpt lat="44.46013" lon="6.52971">
        <ele>2210</ele>
        <time>2021-02-21T06:04:34Z</time>
      </trkpt>
      <trkpt lat="44.46012" lon="6.5297">
        <ele>2210</ele>
        <time>2021-02-21T06:04:35Z</time>
      </trkpt>
      <trkpt lat="44.46011" lon="6.52969">
        <ele>2210</ele>
        <time>2021-02-21T06:04:36Z</time>
      </trkpt>
      <trkpt lat="44.4601" lon="6.52968">
        <ele>2211</ele>
        <time>2021-02-21T06:04:37Z</time>
      </trkpt>
      <trkpt lat="44.46009" lon="6.52968">
        <ele>2211</ele>
        <time>2021-02-21T06:04:38Z</time>
      </trkpt>
      <trkpt lat="44.46009" lon="6.52967">
        <ele>2211</ele>
        <time>2021-02-21T06:04:39Z</time>
      </trkpt>
      <trkpt lat="44.46008" lon="6.52966">
        <ele>2212</ele>
        <time>2021-02-21T06:04:40Z</time>
      </trkpt>
      <trkpt lat="44.46007" lon="6.52966">
        <ele>2212</ele>
        <time>2021-02-21T06:04:41Z</time>
      </trkpt>
      <trkpt lat="44.46006" lon="6.52966">
        <ele>2212</ele>
        <time>2021-02-21T06:04:42Z</time>
      </trkpt>
      <trkpt lat="44.46005" lon="6.52965">
        <ele>2213</ele>
        <time>2021-02-21T06:04:43Z</time>
      </trkpt>
      <trkpt lat="44.46005" lon="6.52964">
        <ele>2213</ele>
        <time>2021-02-21T06:04:44Z</time>
      </trkpt>
      <trkpt lat="44.46005" lon="6.52962">
        <ele>2213</ele>
        <time>2021-02-21T06:04:45Z</time>
      </trkpt>
      <trkpt lat="44.46005" lon="6.52961">
        <ele>2214</ele>
        <time>2021-02-21T06:04:46Z</time>
      </trkpt>
      <trkpt lat="44.46005" lon="6.52959">
        <ele>2214</ele>
        <time>2021-02-21T06:04:47Z</time>
      </trkpt>
      <trkpt lat="44.46006" lon="6.52957">
        <ele>2214</ele>
        <time>2021-02-21T06:04:48Z</time>
      </trkpt>
      <trkpt lat="44.46006" lon="6.52955">
        <ele>2214</ele>
        <time>2021-02-21T06:04:49Z</time>
      </trkpt>
      <trkpt lat="44.46006" lon="6.52954">
        <ele>2215</ele>
        <time>2021-02-21T06:04:50Z</time>
      </trkpt>
      <trkpt lat="44.46007" lon="6.52952">
        <ele>2215</ele>
        <time>2021-02-21T06:04:51Z</time>
      </trkpt>
      <trkpt lat="44.46007" lon="6.52951">
        <ele>2215</ele>
        <time>2021-02-21T06:04:52Z</time>
      </trkpt>
      <trkpt lat="44.46007" lon="6.5295">
        <ele>2215</ele>
        <time>2021-02-21T06:04:53Z</time>
      </trkpt>
      <trkpt lat="44.46006" lon="6.52948">
        <ele>2215</ele>
        <time>2021-02-21T06:04:54Z</time>
      </trkpt>
      <trkpt lat="44.46006" lon="6.52947">
        <ele>2215</ele>
        <time>2021-02-21T06:04:55Z</time>
      </trkpt>
      <trkpt lat="44.46005" lon="6.52947">
        <ele>2215</ele>
        <time>2021-02-21T06:04:56Z</time>
      </trkpt>
      <trkpt lat="44.46004" lon="6.52946">
        <ele>2216</ele>
        <time>2021-02-21T06:04:57Z</time>
      </trkpt>
      <trkpt lat="44.46004" lon="6.52944">
        <ele>2216</ele>
        <time>2021-02-21T06:04:58Z</time>
      </trkpt>
      <trkpt lat="44.46003" lon="6.52943">
        <ele>2216</ele>
        <time>2021-02-21T06:04:59Z</time>
      </trkpt>
      <trkpt lat="44.46003" lon="6.52942">
        <ele>2216</ele>
        <time>2021-02-21T06:05:00Z</time>
      </trkpt>
      <trkpt lat="44.46003" lon="6.52941">
        <ele>2217</ele>
        <time>2021-02-21T06:05:01Z</time>
      </trkpt>
      <trkpt lat="44.46003" lon="6.52939">
        <ele>2217</ele>
        <time>2021-02-21T06:05:02Z</time>
      </trkpt>
      <trkpt lat="44.46002" lon="6.52937">
        <ele>2217</ele>
        <time>2021-02-21T06:05:03Z</time>
      </trkpt>
      <trkpt lat="44.46002" lon="6.52936">
        <ele>2217</ele>
        <time>2021-02-21T06:05:04Z</time>
      </trkpt>
      <trkpt lat="44.46001" lon="6.52935">
        <ele>2218</ele>
        <time>2021-02-21T06:05:05Z</time>
      </trkpt>
      <trkpt lat="44.46" lon="6.52934">
        <ele>2218</ele>
        <time>2021-02-21T06:05:06Z</time>
      </trkpt>
      <trkpt lat="44.46" lon="6.52934">
        <ele>2218</ele>
        <time>2021-02-21T06:05:07Z</time>
      </trkpt>
      <trkpt lat="44.45999" lon="6.52934">
        <ele>2218</ele>
        <time>2021-02-21T06:05:08Z</time>
      </trkpt>
      <trkpt lat="44.45999" lon="6.52933">
        <ele>2219</ele>
        <time>2021-02-21T06:05:09Z</time>
      </trkpt>
      <trkpt lat="44.45999" lon="6.52932">
        <ele>2219</ele>
        <time>2021-02-21T06:05:10Z</time>
      </trkpt>
      <trkpt lat="44.45998" lon="6.52931">
        <ele>2219</ele>
        <time>2021-02-21T06:05:11Z</time>
      </trkpt>
      <trkpt lat="44.45997" lon="6.5293">
        <ele>2219</ele>
        <time>2021-02-21T06:05:12Z</time>
      </trkpt>
      <trkpt lat="44.45997" lon="6.5293">
        <ele>2220</ele>
        <time>2021-02-21T06:05:13Z</time>
      </trkpt>
      <trkpt lat="44.45996" lon="6.52929">
        <ele>2220</ele>
        <time>2021-02-21T06:05:14Z</time>
      </trkpt>
      <trkpt lat="44.45996" lon="6.52928">
        <ele>2220</ele>
        <time>2021-02-21T06:05:15Z</time>
      </trkpt>
      <trkpt lat="44.45996" lon="6.52927">
        <ele>2220</ele>
        <time>2021-02-21T06:05:16Z</time>
      </trkpt>
      <trkpt lat="44.45996" lon="6.52925">
        <ele>2221</ele>
        <time>2021-02-21T06:05:17Z</time>
      </trkpt>
      <trkpt lat="44.45995" lon="6.52924">
        <ele>2221</ele>
        <time>2021-02-21T06:05:18Z</time>
      </trkpt>
      <trkpt lat="44.45994" lon="6.52923">
        <ele>2221</ele>
        <time>2021-02-21T06:05:19Z</time>
      </trkpt>
      <trkpt lat="44.45994" lon="6.52922">
        <ele>2221</ele>
        <time>2021-02-21T06:05:20Z</time>
      </trkpt>
      <trkpt lat="44.45994" lon="6.52921">
        <ele>2221</ele>
        <time>2021-02-21T06:05:21Z</time>
      </trkpt>
      <trkpt lat="44.45993" lon="6.5292">
        <ele>2221</ele>
        <time>2021-02-21T06:05:22Z</time>
      </trkpt>
      <trkpt lat="44.45993" lon="6.52919">
        <ele>2221</ele>
        <time>2021-02-21T06:05:23Z</time>
      </trkpt>
      <trkpt lat="44.45993" lon="6.52917">
        <ele>2221</ele>
        <time>2021-02-21T06:05:24Z</time>
      </trkpt>
      <trkpt lat="44.45993" lon="6.52915">
        <ele>2221</ele>
        <time>2021-02-21T06:05:25Z</time>
      </trkpt>
      <trkpt lat="44.45993" lon="6.52914">
        <ele>2221</ele>
        <time>2021-02-21T06:05:26Z</time>
      </trkpt>
      <trkpt lat="44.45993" lon="6.52912">
        <ele>2221</ele>
        <time>2021-02-21T06:05:27Z</time>
      </trkpt>
      <trkpt lat="44.45992" lon="6.52911">
        <ele>2221</ele>
        <time>2021-02-21T06:05:28Z</time>
      </trkpt>
      <trkpt lat="44.45991" lon="6.5291">
        <ele>2221</ele>
        <time>2021-02-21T06:05:29Z</time>
      </trkpt>
      <trkpt lat="44.45991" lon="6.52908">
        <ele>2221</ele>
        <time>2021-02-21T06:05:30Z</time>
      </trkpt>
      <trkpt lat="44.45991" lon="6.52907">
        <ele>2221</ele>
        <time>2021-02-21T06:05:31Z</time>
      </trkpt>
      <trkpt lat="44.45991" lon="6.52905">
        <ele>2222</ele>
        <time>2021-02-21T06:05:32Z</time>
      </trkpt>
      <trkpt lat="44.45991" lon="6.52905">
        <ele>2222</ele>
        <time>2021-02-21T06:05:33Z</time>
      </trkpt>
      <trkpt lat="44.4599" lon="6.52904">
        <ele>2222</ele>
        <time>2021-02-21T06:05:34Z</time>
      </trkpt>
      <trkpt lat="44.4599" lon="6.52903">
        <ele>2222</ele>
        <time>2021-02-21T06:05:35Z</time>
      </trkpt>
      <trkpt lat="44.45989" lon="6.52903">
        <ele>2222</ele>
        <time>2021-02-21T06:05:36Z</time>
      </trkpt>
      <trkpt lat="44.45989" lon="6.52902">
        <ele>2222</ele>
        <time>2021-02-21T06:05:37Z</time>
      </trkpt>
      <trkpt lat="44.45988" lon="6.529">
        <ele>2222</ele>
        <time>2021-02-21T06:05:38Z</time>
      </trkpt>
      <trkpt lat="44.45988" lon="6.52899">
        <ele>2222</ele>
        <time>2021-02-21T06:05:39Z</time>
      </trkpt>
      <trkpt lat="44.45988" lon="6.52899">
        <ele>2222</ele>
        <time>2021-02-21T06:05:40Z</time>
      </trkpt>
      <trkpt lat="44.45987" lon="6.52898">
        <ele>2222</ele>
        <time>2021-02-21T06:05:41Z</time>
      </trkpt>
      <trkpt lat="44.45987" lon="6.52896">
        <ele>2222</ele>
        <time>2021-02-21T06:05:42Z</time>
      </trkpt>
      <trkpt lat="44.45986" lon="6.52895">
        <ele>2223</ele>
        <time>2021-02-21T06:05:43Z</time>
      </trkpt>
      <trkpt lat="44.45986" lon="6.52893">
        <ele>2223</ele>
        <time>2021-02-21T06:05:44Z</time>
      </trkpt>
      <trkpt lat="44.45985" lon="6.52892">
        <ele>2223</ele>
        <time>2021-02-21T06:05:45Z</time>
      </trkpt>
      <trkpt lat="44.45985" lon="6.5289">
        <ele>2223</ele>
        <time>2021-02-21T06:05:46Z</time>
      </trkpt>
      <trkpt lat="44.45985" lon="6.52889">
        <ele>2223</ele>
        <time>2021-02-21T06:05:47Z</time>
      </trkpt>
      <trkpt lat="44.45984" lon="6.52888">
        <ele>2223</ele>
        <time>2021-02-21T06:05:48Z</time>
      </trkpt>
      <trkpt lat="44.45984" lon="6.52887">
        <ele>2223</ele>
        <time>2021-02-21T06:05:49Z</time>
      </trkpt>
      <trkpt lat="44.45984" lon="6.52886">
        <ele>2223</ele>
        <time>2021-02-21T06:05:50Z</time>
      </trkpt>
      <trkpt lat="44.45983" lon="6.52885">
        <ele>2223</ele>
        <time>2021-02-21T06:05:51Z</time>
      </trkpt>
      <trkpt lat="44.45983" lon="6.52884">
        <ele>2223</ele>
        <time>2021-02-21T06:05:52Z</time>
      </trkpt>
      <trkpt lat="44.45983" lon="6.52882">
        <ele>2223</ele>
        <time>2021-02-21T06:05:53Z</time>
      </trkpt>
      <trkpt lat="44.45982" lon="6.52881">
        <ele>2223</ele>
        <time>2021-02-21T06:05:54Z</time>
      </trkpt>
      <trkpt lat="44.45982" lon="6.5288">
        <ele>2223</ele>
        <time>2021-02-21T06:05:55Z</time>
      </trkpt>
      <trkpt lat="44.45981" lon="6.52879">
        <ele>2224</ele>
        <time>2021-02-21T06:05:56Z</time>
      </trkpt>
      <trkpt lat="44.45981" lon="6.52879">
        <ele>2224</ele>
        <time>2021-02-21T06:05:57Z</time>
      </trkpt>
      <trkpt lat="44.4598" lon="6.52878">
        <ele>2224</ele>
        <time>2021-02-21T06:05:58Z</time>
      </trkpt>
      <trkpt lat="44.45979" lon="6.52877">
        <ele>2224</ele>
        <time>2021-02-21T06:05:59Z</time>
      </trkpt>
      <trkpt lat="44.45979" lon="6.52877">
        <ele>2224</ele>
        <time>2021-02-21T06:06:00Z</time>
      </trkpt>
      <trkpt lat="44.45979" lon="6.52876">
        <ele>2224</ele>
        <time>2021-02-21T06:06:01Z</time>
      </trkpt>
      <trkpt lat="44.45978" lon="6.52875">
        <ele>2224</ele>
        <time>2021-02-21T06:06:02Z</time>
      </trkpt>
      <trkpt lat="44.45978" lon="6.52875">
        <ele>2224</ele>
        <time>2021-02-21T06:06:03Z</time>
      </trkpt>
      <trkpt lat="44.45977" lon="6.52874">
        <ele>2224</ele>
        <time>2021-02-21T06:06:04Z</time>
      </trkpt>
      <trkpt lat="44.45976" lon="6.52872">
        <ele>2224</ele>
        <time>2021-02-21T06:06:05Z</time>
      </trkpt>
      <trkpt lat="44.45975" lon="6.52871">
        <ele>2224</ele>
        <time>2021-02-21T06:06:06Z</time>
      </trkpt>
      <trkpt lat="44.45975" lon="6.5287">
        <ele>2223</ele>
        <time>2021-02-21T06:06:07Z</time>
      </trkpt>
      <trkpt lat="44.45974" lon="6.52868">
        <ele>2223</ele>
        <time>2021-02-21T06:06:08Z</time>
      </trkpt>
      <trkpt lat="44.45974" lon="6.52867">
        <ele>2223</ele>
        <time>2021-02-21T06:06:09Z</time>
      </trkpt>
      <trkpt lat="44.45973" lon="6.52867">
        <ele>2223</ele>
        <time>2021-02-21T06:06:10Z</time>
      </trkpt>
      <trkpt lat="44.45973" lon="6.52866">
        <ele>2223</ele>
        <time>2021-02-21T06:06:11Z</time>
      </trkpt>
      <trkpt lat="44.45973" lon="6.52865">
        <ele>2223</ele>
        <time>2021-02-21T06:06:12Z</time>
      </trkpt>
      <trkpt lat="44.45973" lon="6.52865">
        <ele>2223</ele>
        <time>2021-02-21T06:06:13Z</time>
      </trkpt>
      <trkpt lat="44.45972" lon="6.52863">
        <ele>2223</ele>
        <time>2021-02-21T06:06:14Z</time>
      </trkpt>
      <trkpt lat="44.45972" lon="6.52863">
        <ele>2223</ele>
        <time>2021-02-21T06:06:15Z</time>
      </trkpt>
      <trkpt lat="44.45972" lon="6.52862">
        <ele>2223</ele>
        <time>2021-02-21T06:06:16Z</time>
      </trkpt>
      <trkpt lat="44.45972" lon="6.52861">
        <ele>2223</ele>
        <time>2021-02-21T06:06:17Z</time>
      </trkpt>
      <trkpt lat="44.45971" lon="6.5286">
        <ele>2223</ele>
        <time>2021-02-21T06:06:18Z</time>
      </trkpt>
      <trkpt lat="44.45971" lon="6.52859">
        <ele>2223</ele>
        <time>2021-02-21T06:06:19Z</time>
      </trkpt>
      <trkpt lat="44.4597" lon="6.52858">
        <ele>2223</ele>
        <time>2021-02-21T06:06:20Z</time>
      </trkpt>
      <trkpt lat="44.45971" lon="6.52858">
        <ele>2223</ele>
        <time>2021-02-21T06:06:21Z</time>
      </trkpt>
      <trkpt lat="44.4597" lon="6.52858">
        <ele>2223</ele>
        <time>2021-02-21T06:06:22Z</time>
      </trkpt>
      <trkpt lat="44.4597" lon="6.52856">
        <ele>2223</ele>
        <time>2021-02-21T06:06:23Z</time>
      </trkpt>
      <trkpt lat="44.4597" lon="6.52855">
        <ele>2223</ele>
        <time>2021-02-21T06:06:24Z</time>
      </trkpt>
      <trkpt lat="44.4597" lon="6.52853">
        <ele>2223</ele>
        <time>2021-02-21T06:06:25Z</time>
      </trkpt>
      <trkpt lat="44.45969" lon="6.52851">
        <ele>2222</ele>
        <time>2021-02-21T06:06:26Z</time>
      </trkpt>
      <trkpt lat="44.45969" lon="6.5285">
        <ele>2222</ele>
        <time>2021-02-21T06:06:27Z</time>
      </trkpt>
      <trkpt lat="44.45969" lon="6.52849">
        <ele>2222</ele>
        <time>2021-02-21T06:06:28Z</time>
      </trkpt>
      <trkpt lat="44.45968" lon="6.52849">
        <ele>2222</ele>
        <time>2021-02-21T06:06:29Z</time>
      </trkpt>
      <trkpt lat="44.45967" lon="6.52848">
        <ele>2222</ele>
        <time>2021-02-21T06:06:30Z</time>
      </trkpt>
      <trkpt lat="44.45967" lon="6.52847">
        <ele>2222</ele>
        <time>2021-02-21T06:06:31Z</time>
      </trkpt>
      <trkpt lat="44.45966" lon="6.52845">
        <ele>2222</ele>
        <time>2021-02-21T06:06:32Z</time>
      </trkpt>
      <trkpt lat="44.45966" lon="6.52844">
        <ele>2222</ele>
        <time>2021-02-21T06:06:33Z</time>
      </trkpt>
      <trkpt lat="44.45965" lon="6.52842">
        <ele>2222</ele>
        <time>2021-02-21T06:06:34Z</time>
      </trkpt>
      <trkpt lat="44.45965" lon="6.52841">
        <ele>2222</ele>
        <time>2021-02-21T06:06:35Z</time>
      </trkpt>
      <trkpt lat="44.45965" lon="6.5284">
        <ele>2222</ele>
        <time>2021-02-21T06:06:36Z</time>
      </trkpt>
      <trkpt lat="44.45965" lon="6.52838">
        <ele>2223</ele>
        <time>2021-02-21T06:06:37Z</time>
      </trkpt>
      <trkpt lat="44.45965" lon="6.52837">
        <ele>2223</ele>
        <time>2021-02-21T06:06:38Z</time>
      </trkpt>
      <trkpt lat="44.45965" lon="6.52835">
        <ele>2223</ele>
        <time>2021-02-21T06:06:39Z</time>
      </trkpt>
      <trkpt lat="44.45965" lon="6.52835">
        <ele>2223</ele>
        <time>2021-02-21T06:06:40Z</time>
      </trkpt>
      <trkpt lat="44.45965" lon="6.52834">
        <ele>2223</ele>
        <time>2021-02-21T06:06:41Z</time>
      </trkpt>
      <trkpt lat="44.45964" lon="6.52832">
        <ele>2223</ele>
        <time>2021-02-21T06:06:42Z</time>
      </trkpt>
      <trkpt lat="44.45963" lon="6.52831">
        <ele>2223</ele>
        <time>2021-02-21T06:06:43Z</time>
      </trkpt>
      <trkpt lat="44.45963" lon="6.52831">
        <ele>2223</ele>
        <time>2021-02-21T06:06:44Z</time>
      </trkpt>
      <trkpt lat="44.45962" lon="6.5283">
        <ele>2223</ele>
        <time>2021-02-21T06:06:45Z</time>
      </trkpt>
      <trkpt lat="44.45962" lon="6.52829">
        <ele>2223</ele>
        <time>2021-02-21T06:06:46Z</time>
      </trkpt>
      <trkpt lat="44.45962" lon="6.52829">
        <ele>2223</ele>
        <time>2021-02-21T06:06:47Z</time>
      </trkpt>
      <trkpt lat="44.45961" lon="6.52828">
        <ele>2223</ele>
        <time>2021-02-21T06:06:48Z</time>
      </trkpt>
      <trkpt lat="44.45961" lon="6.52827">
        <ele>2224</ele>
        <time>2021-02-21T06:06:49Z</time>
      </trkpt>
      <trkpt lat="44.4596" lon="6.52826">
        <ele>2224</ele>
        <time>2021-02-21T06:06:50Z</time>
      </trkpt>
      <trkpt lat="44.4596" lon="6.52824">
        <ele>2224</ele>
        <time>2021-02-21T06:06:51Z</time>
      </trkpt>
      <trkpt lat="44.4596" lon="6.52823">
        <ele>2224</ele>
        <time>2021-02-21T06:06:52Z</time>
      </trkpt>
      <trkpt lat="44.4596" lon="6.52822">
        <ele>2225</ele>
        <time>2021-02-21T06:06:53Z</time>
      </trkpt>
      <trkpt lat="44.4596" lon="6.52822">
        <ele>2225</ele>
        <time>2021-02-21T06:06:54Z</time>
      </trkpt>
      <trkpt lat="44.4596" lon="6.52821">
        <ele>2225</ele>
        <time>2021-02-21T06:06:55Z</time>
      </trkpt>
      <trkpt lat="44.45959" lon="6.52819">
        <ele>2225</ele>
        <time>2021-02-21T06:06:56Z</time>
      </trkpt>
      <trkpt lat="44.45959" lon="6.52818">
        <ele>2225</ele>
        <time>2021-02-21T06:06:57Z</time>
      </trkpt>
      <trkpt lat="44.45959" lon="6.52817">
        <ele>2226</ele>
        <time>2021-02-21T06:06:58Z</time>
      </trkpt>
      <trkpt lat="44.45959" lon="6.52816">
        <ele>2226</ele>
        <time>2021-02-21T06:06:59Z</time>
      </trkpt>
      <trkpt lat="44.45958" lon="6.52813">
        <ele>2226</ele>
        <time>2021-02-21T06:07:00Z</time>
      </trkpt>
      <trkpt lat="44.45958" lon="6.52812">
        <ele>2226</ele>
        <time>2021-02-21T06:07:01Z</time>
      </trkpt>
      <trkpt lat="44.45957" lon="6.5281">
        <ele>2227</ele>
        <time>2021-02-21T06:07:02Z</time>
      </trkpt>
      <trkpt lat="44.45957" lon="6.52808">
        <ele>2227</ele>
        <time>2021-02-21T06:07:03Z</time>
      </trkpt>
      <trkpt lat="44.45957" lon="6.52807">
        <ele>2228</ele>
        <time>2021-02-21T06:07:04Z</time>
      </trkpt>
      <trkpt lat="44.45956" lon="6.52806">
        <ele>2229</ele>
        <time>2021-02-21T06:07:05Z</time>
      </trkpt>
      <trkpt lat="44.45956" lon="6.52805">
        <ele>2229</ele>
        <time>2021-02-21T06:07:06Z</time>
      </trkpt>
      <trkpt lat="44.45955" lon="6.52804">
        <ele>2229</ele>
        <time>2021-02-21T06:07:07Z</time>
      </trkpt>
      <trkpt lat="44.45955" lon="6.52804">
        <ele>2230</ele>
        <time>2021-02-21T06:07:08Z</time>
      </trkpt>
      <trkpt lat="44.45954" lon="6.52803">
        <ele>2230</ele>
        <time>2021-02-21T06:07:09Z</time>
      </trkpt>
      <trkpt lat="44.45953" lon="6.52803">
        <ele>2231</ele>
        <time>2021-02-21T06:07:10Z</time>
      </trkpt>
      <trkpt lat="44.45952" lon="6.52802">
        <ele>2231</ele>
        <time>2021-02-21T06:07:11Z</time>
      </trkpt>
      <trkpt lat="44.45952" lon="6.52801">
        <ele>2231</ele>
        <time>2021-02-21T06:07:12Z</time>
      </trkpt>
      <trkpt lat="44.45951" lon="6.52801">
        <ele>2231</ele>
        <time>2021-02-21T06:07:13Z</time>
      </trkpt>
      <trkpt lat="44.45951" lon="6.52799">
        <ele>2232</ele>
        <time>2021-02-21T06:07:14Z</time>
      </trkpt>
      <trkpt lat="44.45951" lon="6.52798">
        <ele>2232</ele>
        <time>2021-02-21T06:07:15Z</time>
      </trkpt>
      <trkpt lat="44.45951" lon="6.52796">
        <ele>2232</ele>
        <time>2021-02-21T06:07:16Z</time>
      </trkpt>
      <trkpt lat="44.4595" lon="6.52794">
        <ele>2233</ele>
        <time>2021-02-21T06:07:17Z</time>
      </trkpt>
      <trkpt lat="44.45949" lon="6.52794">
        <ele>2233</ele>
        <time>2021-02-21T06:07:18Z</time>
      </trkpt>
      <trkpt lat="44.45949" lon="6.52793">
        <ele>2233</ele>
        <time>2021-02-21T06:07:19Z</time>
      </trkpt>
      <trkpt lat="44.45948" lon="6.52791">
        <ele>2234</ele>
        <time>2021-02-21T06:07:20Z</time>
      </trkpt>
      <trkpt lat="44.45948" lon="6.5279">
        <ele>2234</ele>
        <time>2021-02-21T06:07:21Z</time>
      </trkpt>
      <trkpt lat="44.45947" lon="6.52789">
        <ele>2234</ele>
        <time>2021-02-21T06:07:22Z</time>
      </trkpt>
      <trkpt lat="44.45947" lon="6.52787">
        <ele>2234</ele>
        <time>2021-02-21T06:07:23Z</time>
      </trkpt>
      <trkpt lat="44.45947" lon="6.52786">
        <ele>2235</ele>
        <time>2021-02-21T06:07:24Z</time>
      </trkpt>
      <trkpt lat="44.45947" lon="6.52785">
        <ele>2235</ele>
        <time>2021-02-21T06:07:25Z</time>
      </trkpt>
      <trkpt lat="44.45947" lon="6.52785">
        <ele>2235</ele>
        <time>2021-02-21T06:07:26Z</time>
      </trkpt>
      <trkpt lat="44.45947" lon="6.52783">
        <ele>2235</ele>
        <time>2021-02-21T06:07:27Z</time>
      </trkpt>
      <trkpt lat="44.45946" lon="6.52782">
        <ele>2236</ele>
        <time>2021-02-21T06:07:28Z</time>
      </trkpt>
      <trkpt lat="44.45946" lon="6.5278">
        <ele>2236</ele>
        <time>2021-02-21T06:07:29Z</time>
      </trkpt>
      <trkpt lat="44.45945" lon="6.52779">
        <ele>2236</ele>
        <time>2021-02-21T06:07:30Z</time>
      </trkpt>
      <trkpt lat="44.45945" lon="6.52778">
        <ele>2236</ele>
        <time>2021-02-21T06:07:31Z</time>
      </trkpt>
      <trkpt lat="44.45945" lon="6.52777">
        <ele>2236</ele>
        <time>2021-02-21T06:07:32Z</time>
      </trkpt>
      <trkpt lat="44.45945" lon="6.52776">
        <ele>2237</ele>
        <time>2021-02-21T06:07:33Z</time>
      </trkpt>
      <trkpt lat="44.45944" lon="6.52774">
        <ele>2237</ele>
        <time>2021-02-21T06:07:34Z</time>
      </trkpt>
      <trkpt lat="44.45944" lon="6.52774">
        <ele>2237</ele>
        <time>2021-02-21T06:07:35Z</time>
      </trkpt>
      <trkpt lat="44.45943" lon="6.52772">
        <ele>2237</ele>
        <time>2021-02-21T06:07:36Z</time>
      </trkpt>
      <trkpt lat="44.45943" lon="6.52771">
        <ele>2237</ele>
        <time>2021-02-21T06:07:37Z</time>
      </trkpt>
      <trkpt lat="44.45943" lon="6.5277">
        <ele>2238</ele>
        <time>2021-02-21T06:07:38Z</time>
      </trkpt>
      <trkpt lat="44.45942" lon="6.52769">
        <ele>2238</ele>
        <time>2021-02-21T06:07:39Z</time>
      </trkpt>
      <trkpt lat="44.45942" lon="6.52768">
        <ele>2238</ele>
        <time>2021-02-21T06:07:40Z</time>
      </trkpt>
      <trkpt lat="44.45942" lon="6.52767">
        <ele>2238</ele>
        <time>2021-02-21T06:07:41Z</time>
      </trkpt>
      <trkpt lat="44.45941" lon="6.52765">
        <ele>2238</ele>
        <time>2021-02-21T06:07:42Z</time>
      </trkpt>
      <trkpt lat="44.45941" lon="6.52764">
        <ele>2238</ele>
        <time>2021-02-21T06:07:43Z</time>
      </trkpt>
      <trkpt lat="44.45941" lon="6.52763">
        <ele>2238</ele>
        <time>2021-02-21T06:07:44Z</time>
      </trkpt>
      <trkpt lat="44.4594" lon="6.52761">
        <ele>2239</ele>
        <time>2021-02-21T06:07:45Z</time>
      </trkpt>
      <trkpt lat="44.4594" lon="6.5276">
        <ele>2239</ele>
        <time>2021-02-21T06:07:46Z</time>
      </trkpt>
      <trkpt lat="44.45939" lon="6.5276">
        <ele>2239</ele>
        <time>2021-02-21T06:07:47Z</time>
      </trkpt>
      <trkpt lat="44.45939" lon="6.52758">
        <ele>2239</ele>
        <time>2021-02-21T06:07:48Z</time>
      </trkpt>
      <trkpt lat="44.45939" lon="6.52756">
        <ele>2240</ele>
        <time>2021-02-21T06:07:49Z</time>
      </trkpt>
      <trkpt lat="44.45938" lon="6.52754">
        <ele>2240</ele>
        <time>2021-02-21T06:07:50Z</time>
      </trkpt>
      <trkpt lat="44.45938" lon="6.52752">
        <ele>2240</ele>
        <time>2021-02-21T06:07:51Z</time>
      </trkpt>
      <trkpt lat="44.45938" lon="6.5275">
        <ele>2241</ele>
        <time>2021-02-21T06:07:52Z</time>
      </trkpt>
      <trkpt lat="44.45938" lon="6.52749">
        <ele>2241</ele>
        <time>2021-02-21T06:07:53Z</time>
      </trkpt>
      <trkpt lat="44.45938" lon="6.52748">
        <ele>2241</ele>
        <time>2021-02-21T06:07:54Z</time>
      </trkpt>
      <trkpt lat="44.45937" lon="6.52747">
        <ele>2241</ele>
        <time>2021-02-21T06:07:55Z</time>
      </trkpt>
      <trkpt lat="44.45938" lon="6.52746">
        <ele>2241</ele>
        <time>2021-02-21T06:07:56Z</time>
      </trkpt>
      <trkpt lat="44.45937" lon="6.52745">
        <ele>2242</ele>
        <time>2021-02-21T06:07:57Z</time>
      </trkpt>
      <trkpt lat="44.45937" lon="6.52744">
        <ele>2242</ele>
        <time>2021-02-21T06:07:58Z</time>
      </trkpt>
      <trkpt lat="44.45937" lon="6.52743">
        <ele>2242</ele>
        <time>2021-02-21T06:07:59Z</time>
      </trkpt>
      <trkpt lat="44.45937" lon="6.52742">
        <ele>2242</ele>
        <time>2021-02-21T06:08:00Z</time>
      </trkpt>
      <trkpt lat="44.45937" lon="6.52741">
        <ele>2242</ele>
        <time>2021-02-21T06:08:01Z</time>
      </trkpt>
      <trkpt lat="44.45936" lon="6.5274">
        <ele>2242</ele>
        <time>2021-02-21T06:08:02Z</time>
      </trkpt>
      <trkpt lat="44.45936" lon="6.52739">
        <ele>2243</ele>
        <time>2021-02-21T06:08:03Z</time>
      </trkpt>
      <trkpt lat="44.45936" lon="6.52737">
        <ele>2243</ele>
        <time>2021-02-21T06:08:04Z</time>
      </trkpt>
      <trkpt lat="44.45936" lon="6.52736">
        <ele>2243</ele>
        <time>2021-02-21T06:08:05Z</time>
      </trkpt>
      <trkpt lat="44.45936" lon="6.52734">
        <ele>2244</ele>
        <time>2021-02-21T06:08:06Z</time>
      </trkpt>
      <trkpt lat="44.45935" lon="6.52733">
        <ele>2244</ele>
        <time>2021-02-21T06:08:07Z</time>
      </trkpt>
      <trkpt lat="44.45935" lon="6.52732">
        <ele>2245</ele>
        <time>2021-02-21T06:08:08Z</time>
      </trkpt>
      <trkpt lat="44.45934" lon="6.52731">
        <ele>2245</ele>
        <time>2021-02-21T06:08:09Z</time>
      </trkpt>
      <trkpt lat="44.45934" lon="6.52729">
        <ele>2246</ele>
        <time>2021-02-21T06:08:10Z</time>
      </trkpt>
      <trkpt lat="44.45933" lon="6.52728">
        <ele>2247</ele>
        <time>2021-02-21T06:08:11Z</time>
      </trkpt>
      <trkpt lat="44.45933" lon="6.52726">
        <ele>2247</ele>
        <time>2021-02-21T06:08:12Z</time>
      </trkpt>
      <trkpt lat="44.45933" lon="6.52726">
        <ele>2247</ele>
        <time>2021-02-21T06:08:13Z</time>
      </trkpt>
      <trkpt lat="44.45932" lon="6.52724">
        <ele>2248</ele>
        <time>2021-02-21T06:08:14Z</time>
      </trkpt>
      <trkpt lat="44.45932" lon="6.52724">
        <ele>2249</ele>
        <time>2021-02-21T06:08:15Z</time>
      </trkpt>
      <trkpt lat="44.45931" lon="6.52724">
        <ele>2249</ele>
        <time>2021-02-21T06:08:16Z</time>
      </trkpt>
      <trkpt lat="44.4593" lon="6.52723">
        <ele>2249</ele>
        <time>2021-02-21T06:08:17Z</time>
      </trkpt>
      <trkpt lat="44.45929" lon="6.52722">
        <ele>2249</ele>
        <time>2021-02-21T06:08:18Z</time>
      </trkpt>
      <trkpt lat="44.45928" lon="6.52721">
        <ele>2250</ele>
        <time>2021-02-21T06:08:19Z</time>
      </trkpt>
      <trkpt lat="44.45928" lon="6.5272">
        <ele>2250</ele>
        <time>2021-02-21T06:08:20Z</time>
      </trkpt>
      <trkpt lat="44.45927" lon="6.52719">
        <ele>2250</ele>
        <time>2021-02-21T06:08:21Z</time>
      </trkpt>
      <trkpt lat="44.45927" lon="6.52717">
        <ele>2250</ele>
        <time>2021-02-21T06:08:22Z</time>
      </trkpt>
      <trkpt lat="44.45926" lon="6.52716">
        <ele>2251</ele>
        <time>2021-02-21T06:08:23Z</time>
      </trkpt>
      <trkpt lat="44.45926" lon="6.52715">
        <ele>2251</ele>
        <time>2021-02-21T06:08:24Z</time>
      </trkpt>
      <trkpt lat="44.45925" lon="6.52713">
        <ele>2251</ele>
        <time>2021-02-21T06:08:25Z</time>
      </trkpt>
      <trkpt lat="44.45924" lon="6.52712">
        <ele>2252</ele>
        <time>2021-02-21T06:08:26Z</time>
      </trkpt>
      <trkpt lat="44.45923" lon="6.52711">
        <ele>2252</ele>
        <time>2021-02-21T06:08:27Z</time>
      </trkpt>
      <trkpt lat="44.45923" lon="6.5271">
        <ele>2252</ele>
        <time>2021-02-21T06:08:28Z</time>
      </trkpt>
      <trkpt lat="44.45922" lon="6.52709">
        <ele>2252</ele>
        <time>2021-02-21T06:08:29Z</time>
      </trkpt>
      <trkpt lat="44.45922" lon="6.52707">
        <ele>2252</ele>
        <time>2021-02-21T06:08:30Z</time>
      </trkpt>
      <trkpt lat="44.45921" lon="6.52706">
        <ele>2253</ele>
        <time>2021-02-21T06:08:31Z</time>
      </trkpt>
      <trkpt lat="44.45921" lon="6.52705">
        <ele>2253</ele>
        <time>2021-02-21T06:08:32Z</time>
      </trkpt>
      <trkpt lat="44.45921" lon="6.52705">
        <ele>2253</ele>
        <time>2021-02-21T06:08:33Z</time>
      </trkpt>
      <trkpt lat="44.45921" lon="6.52704">
        <ele>2253</ele>
        <time>2021-02-21T06:08:34Z</time>
      </trkpt>
      <trkpt lat="44.4592" lon="6.52703">
        <ele>2253</ele>
        <time>2021-02-21T06:08:35Z</time>
      </trkpt>
      <trkpt lat="44.4592" lon="6.52702">
        <ele>2252</ele>
        <time>2021-02-21T06:08:36Z</time>
      </trkpt>
      <trkpt lat="44.45919" lon="6.52702">
        <ele>2252</ele>
        <time>2021-02-21T06:08:37Z</time>
      </trkpt>
      <trkpt lat="44.45918" lon="6.52701">
        <ele>2252</ele>
        <time>2021-02-21T06:08:38Z</time>
      </trkpt>
      <trkpt lat="44.45917" lon="6.52701">
        <ele>2252</ele>
        <time>2021-02-21T06:08:39Z</time>
      </trkpt>
      <trkpt lat="44.45917" lon="6.527">
        <ele>2252</ele>
        <time>2021-02-21T06:08:40Z</time>
      </trkpt>
      <trkpt lat="44.45916" lon="6.52699">
        <ele>2252</ele>
        <time>2021-02-21T06:08:41Z</time>
      </trkpt>
      <trkpt lat="44.45915" lon="6.52698">
        <ele>2252</ele>
        <time>2021-02-21T06:08:42Z</time>
      </trkpt>
      <trkpt lat="44.45915" lon="6.52697">
        <ele>2252</ele>
        <time>2021-02-21T06:08:43Z</time>
      </trkpt>
      <trkpt lat="44.45913" lon="6.52696">
        <ele>2252</ele>
        <time>2021-02-21T06:08:44Z</time>
      </trkpt>
      <trkpt lat="44.45912" lon="6.52695">
        <ele>2251</ele>
        <time>2021-02-21T06:08:45Z</time>
      </trkpt>
      <trkpt lat="44.45912" lon="6.52694">
        <ele>2251</ele>
        <time>2021-02-21T06:08:46Z</time>
      </trkpt>
      <trkpt lat="44.45911" lon="6.52693">
        <ele>2251</ele>
        <time>2021-02-21T06:08:47Z</time>
      </trkpt>
      <trkpt lat="44.4591" lon="6.52692">
        <ele>2251</ele>
        <time>2021-02-21T06:08:48Z</time>
      </trkpt>
      <trkpt lat="44.4591" lon="6.52692">
        <ele>2251</ele>
        <time>2021-02-21T06:08:49Z</time>
      </trkpt>
      <trkpt lat="44.4591" lon="6.52692">
        <ele>2251</ele>
        <time>2021-02-21T06:08:50Z</time>
      </trkpt>
      <trkpt lat="44.4591" lon="6.5269">
        <ele>2250</ele>
        <time>2021-02-21T06:08:51Z</time>
      </trkpt>
      <trkpt lat="44.45909" lon="6.5269">
        <ele>2250</ele>
        <time>2021-02-21T06:08:52Z</time>
      </trkpt>
      <trkpt lat="44.45908" lon="6.52689">
        <ele>2250</ele>
        <time>2021-02-21T06:08:53Z</time>
      </trkpt>
      <trkpt lat="44.45907" lon="6.52688">
        <ele>2250</ele>
        <time>2021-02-21T06:08:54Z</time>
      </trkpt>
      <trkpt lat="44.45905" lon="6.52687">
        <ele>2250</ele>
        <time>2021-02-21T06:08:55Z</time>
      </trkpt>
      <trkpt lat="44.45905" lon="6.52686">
        <ele>2250</ele>
        <time>2021-02-21T06:08:56Z</time>
      </trkpt>
      <trkpt lat="44.45904" lon="6.52685">
        <ele>2250</ele>
        <time>2021-02-21T06:08:57Z</time>
      </trkpt>
      <trkpt lat="44.45904" lon="6.52684">
        <ele>2249</ele>
        <time>2021-02-21T06:08:58Z</time>
      </trkpt>
      <trkpt lat="44.45903" lon="6.52684">
        <ele>2249</ele>
        <time>2021-02-21T06:08:59Z</time>
      </trkpt>
      <trkpt lat="44.45903" lon="6.52683">
        <ele>2249</ele>
        <time>2021-02-21T06:09:00Z</time>
      </trkpt>
      <trkpt lat="44.45903" lon="6.52682">
        <ele>2249</ele>
        <time>2021-02-21T06:09:01Z</time>
      </trkpt>
      <trkpt lat="44.45902" lon="6.52681">
        <ele>2249</ele>
        <time>2021-02-21T06:09:02Z</time>
      </trkpt>
      <trkpt lat="44.45902" lon="6.52681">
        <ele>2249</ele>
        <time>2021-02-21T06:09:03Z</time>
      </trkpt>
      <trkpt lat="44.45901" lon="6.5268">
        <ele>2249</ele>
        <time>2021-02-21T06:09:04Z</time>
      </trkpt>
      <trkpt lat="44.459" lon="6.52679">
        <ele>2249</ele>
        <time>2021-02-21T06:09:05Z</time>
      </trkpt>
      <trkpt lat="44.459" lon="6.52678">
        <ele>2249</ele>
        <time>2021-02-21T06:09:06Z</time>
      </trkpt>
      <trkpt lat="44.45899" lon="6.52678">
        <ele>2249</ele>
        <time>2021-02-21T06:09:07Z</time>
      </trkpt>
      <trkpt lat="44.45898" lon="6.52676">
        <ele>2249</ele>
        <time>2021-02-21T06:09:08Z</time>
      </trkpt>
      <trkpt lat="44.45897" lon="6.52675">
        <ele>2249</ele>
        <time>2021-02-21T06:09:09Z</time>
      </trkpt>
      <trkpt lat="44.45896" lon="6.52674">
        <ele>2248</ele>
        <time>2021-02-21T06:09:10Z</time>
      </trkpt>
      <trkpt lat="44.45896" lon="6.52674">
        <ele>2248</ele>
        <time>2021-02-21T06:09:11Z</time>
      </trkpt>
      <trkpt lat="44.45896" lon="6.52673">
        <ele>2248</ele>
        <time>2021-02-21T06:09:12Z</time>
      </trkpt>
      <trkpt lat="44.45896" lon="6.52672">
        <ele>2248</ele>
        <time>2021-02-21T06:09:13Z</time>
      </trkpt>
      <trkpt lat="44.45895" lon="6.52672">
        <ele>2248</ele>
        <time>2021-02-21T06:09:14Z</time>
      </trkpt>
      <trkpt lat="44.45895" lon="6.52671">
        <ele>2248</ele>
        <time>2021-02-21T06:09:15Z</time>
      </trkpt>
      <trkpt lat="44.45894" lon="6.52671">
        <ele>2248</ele>
        <time>2021-02-21T06:09:16Z</time>
      </trkpt>
      <trkpt lat="44.45893" lon="6.52671">
        <ele>2248</ele>
        <time>2021-02-21T06:09:17Z</time>
      </trkpt>
      <trkpt lat="44.45893" lon="6.5267">
        <ele>2248</ele>
        <time>2021-02-21T06:09:18Z</time>
      </trkpt>
      <trkpt lat="44.45892" lon="6.52669">
        <ele>2248</ele>
        <time>2021-02-21T06:09:19Z</time>
      </trkpt>
      <trkpt lat="44.45891" lon="6.52668">
        <ele>2248</ele>
        <time>2021-02-21T06:09:20Z</time>
      </trkpt>
      <trkpt lat="44.45891" lon="6.52666">
        <ele>2248</ele>
        <time>2021-02-21T06:09:21Z</time>
      </trkpt>
      <trkpt lat="44.4589" lon="6.52665">
        <ele>2248</ele>
        <time>2021-02-21T06:09:22Z</time>
      </trkpt>
      <trkpt lat="44.4589" lon="6.52664">
        <ele>2248</ele>
        <time>2021-02-21T06:09:23Z</time>
      </trkpt>
      <trkpt lat="44.4589" lon="6.52663">
        <ele>2247</ele>
        <time>2021-02-21T06:09:24Z</time>
      </trkpt>
      <trkpt lat="44.45889" lon="6.52662">
        <ele>2247</ele>
        <time>2021-02-21T06:09:25Z</time>
      </trkpt>
      <trkpt lat="44.45888" lon="6.52661">
        <ele>2247</ele>
        <time>2021-02-21T06:09:26Z</time>
      </trkpt>
      <trkpt lat="44.45888" lon="6.5266">
        <ele>2247</ele>
        <time>2021-02-21T06:09:27Z</time>
      </trkpt>
      <trkpt lat="44.45887" lon="6.52659">
        <ele>2247</ele>
        <time>2021-02-21T06:09:28Z</time>
      </trkpt>
      <trkpt lat="44.45886" lon="6.52658">
        <ele>2247</ele>
        <time>2021-02-21T06:09:29Z</time>
      </trkpt>
      <trkpt lat="44.45886" lon="6.52658">
        <ele>2247</ele>
        <time>2021-02-21T06:09:30Z</time>
      </trkpt>
      <trkpt lat="44.45885" lon="6.52657">
        <ele>2246</ele>
        <time>2021-02-21T06:09:31Z</time>
      </trkpt>
      <trkpt lat="44.45885" lon="6.52656">
        <ele>2246</ele>
        <time>2021-02-21T06:09:32Z</time>
      </trkpt>
      <trkpt lat="44.45884" lon="6.52655">
        <ele>2246</ele>
        <time>2021-02-21T06:09:33Z</time>
      </trkpt>
      <trkpt lat="44.45884" lon="6.52654">
        <ele>2246</ele>
        <time>2021-02-21T06:09:34Z</time>
      </trkpt>
      <trkpt lat="44.45883" lon="6.52653">
        <ele>2246</ele>
        <time>2021-02-21T06:09:35Z</time>
      </trkpt>
      <trkpt lat="44.45883" lon="6.52652">
        <ele>2246</ele>
        <time>2021-02-21T06:09:36Z</time>
      </trkpt>
      <trkpt lat="44.45881" lon="6.52652">
        <ele>2246</ele>
        <time>2021-02-21T06:09:37Z</time>
      </trkpt>
      <trkpt lat="44.45881" lon="6.52651">
        <ele>2247</ele>
        <time>2021-02-21T06:09:38Z</time>
      </trkpt>
      <trkpt lat="44.4588" lon="6.5265">
        <ele>2247</ele>
        <time>2021-02-21T06:09:39Z</time>
      </trkpt>
      <trkpt lat="44.45879" lon="6.52649">
        <ele>2247</ele>
        <time>2021-02-21T06:09:40Z</time>
      </trkpt>
      <trkpt lat="44.45879" lon="6.52649">
        <ele>2247</ele>
        <time>2021-02-21T06:09:41Z</time>
      </trkpt>
      <trkpt lat="44.45878" lon="6.52647">
        <ele>2247</ele>
        <time>2021-02-21T06:09:42Z</time>
      </trkpt>
      <trkpt lat="44.45878" lon="6.52646">
        <ele>2247</ele>
        <time>2021-02-21T06:09:43Z</time>
      </trkpt>
      <trkpt lat="44.45877" lon="6.52644">
        <ele>2248</ele>
        <time>2021-02-21T06:09:44Z</time>
      </trkpt>
      <trkpt lat="44.45877" lon="6.52643">
        <ele>2248</ele>
        <time>2021-02-21T06:09:45Z</time>
      </trkpt>
      <trkpt lat="44.45877" lon="6.52641">
        <ele>2248</ele>
        <time>2021-02-21T06:09:46Z</time>
      </trkpt>
      <trkpt lat="44.45876" lon="6.5264">
        <ele>2249</ele>
        <time>2021-02-21T06:09:47Z</time>
      </trkpt>
      <trkpt lat="44.45876" lon="6.52639">
        <ele>2250</ele>
        <time>2021-02-21T06:09:48Z</time>
      </trkpt>
      <trkpt lat="44.45875" lon="6.52638">
        <ele>2250</ele>
        <time>2021-02-21T06:09:49Z</time>
      </trkpt>
      <trkpt lat="44.45875" lon="6.52637">
        <ele>2250</ele>
        <time>2021-02-21T06:09:50Z</time>
      </trkpt>
      <trkpt lat="44.45875" lon="6.52637">
        <ele>2250</ele>
        <time>2021-02-21T06:09:51Z</time>
      </trkpt>
      <trkpt lat="44.45874" lon="6.52636">
        <ele>2250</ele>
        <time>2021-02-21T06:09:52Z</time>
      </trkpt>
      <trkpt lat="44.45874" lon="6.52636">
        <ele>2251</ele>
        <time>2021-02-21T06:09:53Z</time>
      </trkpt>
      <trkpt lat="44.45873" lon="6.52635">
        <ele>2251</ele>
        <time>2021-02-21T06:09:54Z</time>
      </trkpt>
      <trkpt lat="44.45874" lon="6.52634">
        <ele>2251</ele>
        <time>2021-02-21T06:09:55Z</time>
      </trkpt>
      <trkpt lat="44.45873" lon="6.52633">
        <ele>2252</ele>
        <time>2021-02-21T06:09:56Z</time>
      </trkpt>
      <trkpt lat="44.45873" lon="6.52632">
        <ele>2252</ele>
        <time>2021-02-21T06:09:57Z</time>
      </trkpt>
      <trkpt lat="44.45873" lon="6.52631">
        <ele>2252</ele>
        <time>2021-02-21T06:09:58Z</time>
      </trkpt>
      <trkpt lat="44.45873" lon="6.5263">
        <ele>2252</ele>
        <time>2021-02-21T06:09:59Z</time>
      </trkpt>
      <trkpt lat="44.45872" lon="6.52629">
        <ele>2253</ele>
        <time>2021-02-21T06:10:00Z</time>
      </trkpt>
      <trkpt lat="44.45872" lon="6.52629">
        <ele>2253</ele>
        <time>2021-02-21T06:10:01Z</time>
      </trkpt>
      <trkpt lat="44.45871" lon="6.52628">
        <ele>2253</ele>
        <time>2021-02-21T06:10:02Z</time>
      </trkpt>
      <trkpt lat="44.45871" lon="6.52627">
        <ele>2253</ele>
        <time>2021-02-21T06:10:03Z</time>
      </trkpt>
      <trkpt lat="44.4587" lon="6.52626">
        <ele>2253</ele>
        <time>2021-02-21T06:10:04Z</time>
      </trkpt>
      <trkpt lat="44.4587" lon="6.52625">
        <ele>2253</ele>
        <time>2021-02-21T06:10:05Z</time>
      </trkpt>
      <trkpt lat="44.4587" lon="6.52626">
        <ele>2253</ele>
        <time>2021-02-21T06:10:06Z</time>
      </trkpt>
      <trkpt lat="44.4587" lon="6.52625">
        <ele>2253</ele>
        <time>2021-02-21T06:10:07Z</time>
      </trkpt>
      <trkpt lat="44.45869" lon="6.52625">
        <ele>2253</ele>
        <time>2021-02-21T06:10:08Z</time>
      </trkpt>
      <trkpt lat="44.45869" lon="6.52625">
        <ele>2253</ele>
        <time>2021-02-21T06:10:09Z</time>
      </trkpt>
      <trkpt lat="44.45868" lon="6.52624">
        <ele>2253</ele>
        <time>2021-02-21T06:10:10Z</time>
      </trkpt>
      <trkpt lat="44.45868" lon="6.52623">
        <ele>2254</ele>
        <time>2021-02-21T06:10:11Z</time>
      </trkpt>
      <trkpt lat="44.45869" lon="6.52622">
        <ele>2254</ele>
        <time>2021-02-21T06:10:12Z</time>
      </trkpt>
      <trkpt lat="44.45868" lon="6.52621">
        <ele>2254</ele>
        <time>2021-02-21T06:10:13Z</time>
      </trkpt>
      <trkpt lat="44.45868" lon="6.52621">
        <ele>2254</ele>
        <time>2021-02-21T06:10:14Z</time>
      </trkpt>
      <trkpt lat="44.45867" lon="6.5262">
        <ele>2254</ele>
        <time>2021-02-21T06:10:15Z</time>
      </trkpt>
      <trkpt lat="44.45867" lon="6.52619">
        <ele>2254</ele>
        <time>2021-02-21T06:10:16Z</time>
      </trkpt>
      <trkpt lat="44.45866" lon="6.52618">
        <ele>2254</ele>
        <time>2021-02-21T06:10:17Z</time>
      </trkpt>
      <trkpt lat="44.45865" lon="6.52617">
        <ele>2254</ele>
        <time>2021-02-21T06:10:18Z</time>
      </trkpt>
      <trkpt lat="44.45865" lon="6.52616">
        <ele>2254</ele>
        <time>2021-02-21T06:10:19Z</time>
      </trkpt>
      <trkpt lat="44.45865" lon="6.52615">
        <ele>2254</ele>
        <time>2021-02-21T06:10:20Z</time>
      </trkpt>
      <trkpt lat="44.45864" lon="6.52614">
        <ele>2254</ele>
        <time>2021-02-21T06:10:21Z</time>
      </trkpt>
      <trkpt lat="44.45864" lon="6.52613">
        <ele>2254</ele>
        <time>2021-02-21T06:10:22Z</time>
      </trkpt>
      <trkpt lat="44.45865" lon="6.52613">
        <ele>2254</ele>
        <time>2021-02-21T06:10:23Z</time>
      </trkpt>
      <trkpt lat="44.45864" lon="6.52612">
        <ele>2254</ele>
        <time>2021-02-21T06:10:24Z</time>
      </trkpt>
      <trkpt lat="44.45864" lon="6.52611">
        <ele>2254</ele>
        <time>2021-02-21T06:10:25Z</time>
      </trkpt>
      <trkpt lat="44.45864" lon="6.5261">
        <ele>2254</ele>
        <time>2021-02-21T06:10:26Z</time>
      </trkpt>
      <trkpt lat="44.45863" lon="6.5261">
        <ele>2254</ele>
        <time>2021-02-21T06:10:27Z</time>
      </trkpt>
      <trkpt lat="44.45863" lon="6.52609">
        <ele>2254</ele>
        <time>2021-02-21T06:10:28Z</time>
      </trkpt>
      <trkpt lat="44.45863" lon="6.52608">
        <ele>2254</ele>
        <time>2021-02-21T06:10:29Z</time>
      </trkpt>
      <trkpt lat="44.45863" lon="6.52608">
        <ele>2254</ele>
        <time>2021-02-21T06:10:30Z</time>
      </trkpt>
      <trkpt lat="44.45862" lon="6.52607">
        <ele>2255</ele>
        <time>2021-02-21T06:10:31Z</time>
      </trkpt>
      <trkpt lat="44.45862" lon="6.52606">
        <ele>2255</ele>
        <time>2021-02-21T06:10:32Z</time>
      </trkpt>
      <trkpt lat="44.45862" lon="6.52606">
        <ele>2255</ele>
        <time>2021-02-21T06:10:33Z</time>
      </trkpt>
      <trkpt lat="44.45862" lon="6.52605">
        <ele>2255</ele>
        <time>2021-02-21T06:10:34Z</time>
      </trkpt>
      <trkpt lat="44.45863" lon="6.52604">
        <ele>2255</ele>
        <time>2021-02-21T06:10:35Z</time>
      </trkpt>
      <trkpt lat="44.45862" lon="6.52603">
        <ele>2255</ele>
        <time>2021-02-21T06:10:36Z</time>
      </trkpt>
      <trkpt lat="44.45862" lon="6.52602">
        <ele>2254</ele>
        <time>2021-02-21T06:10:37Z</time>
      </trkpt>
      <trkpt lat="44.45862" lon="6.52601">
        <ele>2254</ele>
        <time>2021-02-21T06:10:38Z</time>
      </trkpt>
      <trkpt lat="44.45862" lon="6.526">
        <ele>2254</ele>
        <time>2021-02-21T06:10:39Z</time>
      </trkpt>
      <trkpt lat="44.45862" lon="6.526">
        <ele>2254</ele>
        <time>2021-02-21T06:10:40Z</time>
      </trkpt>
      <trkpt lat="44.45862" lon="6.526">
        <ele>2254</ele>
        <time>2021-02-21T06:10:41Z</time>
      </trkpt>
      <trkpt lat="44.45861" lon="6.52599">
        <ele>2254</ele>
        <time>2021-02-21T06:10:42Z</time>
      </trkpt>
      <trkpt lat="44.4586" lon="6.52599">
        <ele>2254</ele>
        <time>2021-02-21T06:10:43Z</time>
      </trkpt>
      <trkpt lat="44.45859" lon="6.52599">
        <ele>2254</ele>
        <time>2021-02-21T06:10:44Z</time>
      </trkpt>
      <trkpt lat="44.45858" lon="6.52598">
        <ele>2254</ele>
        <time>2021-02-21T06:10:45Z</time>
      </trkpt>
      <trkpt lat="44.45858" lon="6.52597">
        <ele>2254</ele>
        <time>2021-02-21T06:10:46Z</time>
      </trkpt>
      <trkpt lat="44.45857" lon="6.52597">
        <ele>2254</ele>
        <time>2021-02-21T06:10:47Z</time>
      </trkpt>
      <trkpt lat="44.45857" lon="6.52597">
        <ele>2254</ele>
        <time>2021-02-21T06:10:48Z</time>
      </trkpt>
      <trkpt lat="44.45856" lon="6.52596">
        <ele>2254</ele>
        <time>2021-02-21T06:10:49Z</time>
      </trkpt>
      <trkpt lat="44.45856" lon="6.52595">
        <ele>2255</ele>
        <time>2021-02-21T06:10:50Z</time>
      </trkpt>
      <trkpt lat="44.45855" lon="6.52595">
        <ele>2255</ele>
        <time>2021-02-21T06:10:51Z</time>
      </trkpt>
      <trkpt lat="44.45855" lon="6.52595">
        <ele>2255</ele>
        <time>2021-02-21T06:10:52Z</time>
      </trkpt>
      <trkpt lat="44.45854" lon="6.52595">
        <ele>2255</ele>
        <time>2021-02-21T06:10:53Z</time>
      </trkpt>
      <trkpt lat="44.45853" lon="6.52595">
        <ele>2255</ele>
        <time>2021-02-21T06:10:54Z</time>
      </trkpt>
      <trkpt lat="44.45853" lon="6.52596">
        <ele>2255</ele>
        <time>2021-02-21T06:10:55Z</time>
      </trkpt>
      <trkpt lat="44.45851" lon="6.52596">
        <ele>2256</ele>
        <time>2021-02-21T06:10:56Z</time>
      </trkpt>
      <trkpt lat="44.45851" lon="6.52597">
        <ele>2256</ele>
        <time>2021-02-21T06:10:57Z</time>
      </trkpt>
      <trkpt lat="44.4585" lon="6.52597">
        <ele>2257</ele>
        <time>2021-02-21T06:10:58Z</time>
      </trkpt>
      <trkpt lat="44.45849" lon="6.52598">
        <ele>2257</ele>
        <time>2021-02-21T06:10:59Z</time>
      </trkpt>
      <trkpt lat="44.45849" lon="6.52598">
        <ele>2257</ele>
        <time>2021-02-21T06:11:00Z</time>
      </trkpt>
      <trkpt lat="44.45848" lon="6.52599">
        <ele>2257</ele>
        <time>2021-02-21T06:11:01Z</time>
      </trkpt>
      <trkpt lat="44.45848" lon="6.52599">
        <ele>2258</ele>
        <time>2021-02-21T06:11:02Z</time>
      </trkpt>
      <trkpt lat="44.45848" lon="6.52599">
        <ele>2258</ele>
        <time>2021-02-21T06:11:03Z</time>
      </trkpt>
      <trkpt lat="44.45847" lon="6.526">
        <ele>2259</ele>
        <time>2021-02-21T06:11:04Z</time>
      </trkpt>
      <trkpt lat="44.45846" lon="6.526">
        <ele>2259</ele>
        <time>2021-02-21T06:11:05Z</time>
      </trkpt>
      <trkpt lat="44.45845" lon="6.52601">
        <ele>2259</ele>
        <time>2021-02-21T06:11:06Z</time>
      </trkpt>
      <trkpt lat="44.45845" lon="6.52601">
        <ele>2260</ele>
        <time>2021-02-21T06:11:07Z</time>
      </trkpt>
      <trkpt lat="44.45844" lon="6.52601">
        <ele>2261</ele>
        <time>2021-02-21T06:11:08Z</time>
      </trkpt>
      <trkpt lat="44.45844" lon="6.52601">
        <ele>2261</ele>
        <time>2021-02-21T06:11:09Z</time>
      </trkpt>
      <trkpt lat="44.45843" lon="6.52601">
        <ele>2261</ele>
        <time>2021-02-21T06:11:10Z</time>
      </trkpt>
      <trkpt lat="44.45843" lon="6.52602">
        <ele>2262</ele>
        <time>2021-02-21T06:11:11Z</time>
      </trkpt>
      <trkpt lat="44.45842" lon="6.52602">
        <ele>2262</ele>
        <time>2021-02-21T06:11:12Z</time>
      </trkpt>
      <trkpt lat="44.45842" lon="6.52602">
        <ele>2262</ele>
        <time>2021-02-21T06:11:13Z</time>
      </trkpt>
      <trkpt lat="44.45841" lon="6.52602">
        <ele>2262</ele>
        <time>2021-02-21T06:11:14Z</time>
      </trkpt>
      <trkpt lat="44.45841" lon="6.52602">
        <ele>2262</ele>
        <time>2021-02-21T06:11:15Z</time>
      </trkpt>
      <trkpt lat="44.4584" lon="6.52601">
        <ele>2263</ele>
        <time>2021-02-21T06:11:16Z</time>
      </trkpt>
      <trkpt lat="44.45839" lon="6.52601">
        <ele>2264</ele>
        <time>2021-02-21T06:11:17Z</time>
      </trkpt>
      <trkpt lat="44.45839" lon="6.52599">
        <ele>2264</ele>
        <time>2021-02-21T06:11:18Z</time>
      </trkpt>
      <trkpt lat="44.45838" lon="6.52598">
        <ele>2264</ele>
        <time>2021-02-21T06:11:19Z</time>
      </trkpt>
      <trkpt lat="44.45838" lon="6.52597">
        <ele>2265</ele>
        <time>2021-02-21T06:11:20Z</time>
      </trkpt>
      <trkpt lat="44.45837" lon="6.52596">
        <ele>2265</ele>
        <time>2021-02-21T06:11:21Z</time>
      </trkpt>
      <trkpt lat="44.45837" lon="6.52595">
        <ele>2265</ele>
        <time>2021-02-21T06:11:22Z</time>
      </trkpt>
      <trkpt lat="44.45837" lon="6.52594">
        <ele>2265</ele>
        <time>2021-02-21T06:11:23Z</time>
      </trkpt>
      <trkpt lat="44.45837" lon="6.52593">
        <ele>2265</ele>
        <time>2021-02-21T06:11:24Z</time>
      </trkpt>
      <trkpt lat="44.45837" lon="6.52592">
        <ele>2266</ele>
        <time>2021-02-21T06:11:25Z</time>
      </trkpt>
      <trkpt lat="44.45836" lon="6.52591">
        <ele>2266</ele>
        <time>2021-02-21T06:11:26Z</time>
      </trkpt>
      <trkpt lat="44.45836" lon="6.5259">
        <ele>2266</ele>
        <time>2021-02-21T06:11:27Z</time>
      </trkpt>
      <trkpt lat="44.45836" lon="6.52588">
        <ele>2266</ele>
        <time>2021-02-21T06:11:28Z</time>
      </trkpt>
      <trkpt lat="44.45834" lon="6.52587">
        <ele>2267</ele>
        <time>2021-02-21T06:11:29Z</time>
      </trkpt>
      <trkpt lat="44.45834" lon="6.52586">
        <ele>2267</ele>
        <time>2021-02-21T06:11:30Z</time>
      </trkpt>
      <trkpt lat="44.45833" lon="6.52585">
        <ele>2267</ele>
        <time>2021-02-21T06:11:31Z</time>
      </trkpt>
      <trkpt lat="44.45831" lon="6.52585">
        <ele>2267</ele>
        <time>2021-02-21T06:11:32Z</time>
      </trkpt>
      <trkpt lat="44.4583" lon="6.52584">
        <ele>2267</ele>
        <time>2021-02-21T06:11:33Z</time>
      </trkpt>
      <trkpt lat="44.4583" lon="6.52584">
        <ele>2267</ele>
        <time>2021-02-21T06:11:34Z</time>
      </trkpt>
      <trkpt lat="44.45828" lon="6.52583">
        <ele>2267</ele>
        <time>2021-02-21T06:11:35Z</time>
      </trkpt>
      <trkpt lat="44.45826" lon="6.52582">
        <ele>2267</ele>
        <time>2021-02-21T06:11:36Z</time>
      </trkpt>
      <trkpt lat="44.45825" lon="6.52582">
        <ele>2267</ele>
        <time>2021-02-21T06:11:37Z</time>
      </trkpt>
      <trkpt lat="44.45824" lon="6.52581">
        <ele>2268</ele>
        <time>2021-02-21T06:11:38Z</time>
      </trkpt>
      <trkpt lat="44.45823" lon="6.52581">
        <ele>2268</ele>
        <time>2021-02-21T06:11:39Z</time>
      </trkpt>
      <trkpt lat="44.45822" lon="6.52581">
        <ele>2268</ele>
        <time>2021-02-21T06:11:40Z</time>
      </trkpt>
      <trkpt lat="44.45821" lon="6.5258">
        <ele>2268</ele>
        <time>2021-02-21T06:11:41Z</time>
      </trkpt>
      <trkpt lat="44.45821" lon="6.5258">
        <ele>2268</ele>
        <time>2021-02-21T06:11:42Z</time>
      </trkpt>
      <trkpt lat="44.4582" lon="6.52579">
        <ele>2268</ele>
        <time>2021-02-21T06:11:43Z</time>
      </trkpt>
      <trkpt lat="44.45818" lon="6.52579">
        <ele>2268</ele>
        <time>2021-02-21T06:11:44Z</time>
      </trkpt>
      <trkpt lat="44.45818" lon="6.52578">
        <ele>2268</ele>
        <time>2021-02-21T06:11:45Z</time>
      </trkpt>
      <trkpt lat="44.45816" lon="6.52576">
        <ele>2268</ele>
        <time>2021-02-21T06:11:46Z</time>
      </trkpt>
      <trkpt lat="44.45816" lon="6.52575">
        <ele>2268</ele>
        <time>2021-02-21T06:11:47Z</time>
      </trkpt>
      <trkpt lat="44.45816" lon="6.52574">
        <ele>2268</ele>
        <time>2021-02-21T06:11:48Z</time>
      </trkpt>
      <trkpt lat="44.45814" lon="6.52574">
        <ele>2268</ele>
        <time>2021-02-21T06:11:49Z</time>
      </trkpt>
      <trkpt lat="44.45813" lon="6.52574">
        <ele>2268</ele>
        <time>2021-02-21T06:11:50Z</time>
      </trkpt>
      <trkpt lat="44.45812" lon="6.52573">
        <ele>2269</ele>
        <time>2021-02-21T06:11:51Z</time>
      </trkpt>
      <trkpt lat="44.45811" lon="6.52573">
        <ele>2269</ele>
        <time>2021-02-21T06:11:52Z</time>
      </trkpt>
      <trkpt lat="44.4581" lon="6.52572">
        <ele>2269</ele>
        <time>2021-02-21T06:11:53Z</time>
      </trkpt>
      <trkpt lat="44.45809" lon="6.52571">
        <ele>2269</ele>
        <time>2021-02-21T06:11:54Z</time>
      </trkpt>
      <trkpt lat="44.45809" lon="6.5257">
        <ele>2269</ele>
        <time>2021-02-21T06:11:55Z</time>
      </trkpt>
      <trkpt lat="44.45808" lon="6.5257">
        <ele>2269</ele>
        <time>2021-02-21T06:11:56Z</time>
      </trkpt>
      <trkpt lat="44.45807" lon="6.52569">
        <ele>2269</ele>
        <time>2021-02-21T06:11:57Z</time>
      </trkpt>
      <trkpt lat="44.45807" lon="6.52569">
        <ele>2269</ele>
        <time>2021-02-21T06:11:58Z</time>
      </trkpt>
      <trkpt lat="44.45805" lon="6.52569">
        <ele>2270</ele>
        <time>2021-02-21T06:11:59Z</time>
      </trkpt>
      <trkpt lat="44.45804" lon="6.52568">
        <ele>2270</ele>
        <time>2021-02-21T06:12:00Z</time>
      </trkpt>
      <trkpt lat="44.45804" lon="6.52568">
        <ele>2270</ele>
        <time>2021-02-21T06:12:01Z</time>
      </trkpt>
      <trkpt lat="44.45803" lon="6.52568">
        <ele>2270</ele>
        <time>2021-02-21T06:12:02Z</time>
      </trkpt>
      <trkpt lat="44.45802" lon="6.52567">
        <ele>2270</ele>
        <time>2021-02-21T06:12:03Z</time>
      </trkpt>
      <trkpt lat="44.45801" lon="6.52566">
        <ele>2270</ele>
        <time>2021-02-21T06:12:04Z</time>
      </trkpt>
      <trkpt lat="44.45801" lon="6.52565">
        <ele>2270</ele>
        <time>2021-02-21T06:12:05Z</time>
      </trkpt>
      <trkpt lat="44.45801" lon="6.52564">
        <ele>2270</ele>
        <time>2021-02-21T06:12:06Z</time>
      </trkpt>
      <trkpt lat="44.458" lon="6.52563">
        <ele>2270</ele>
        <time>2021-02-21T06:12:07Z</time>
      </trkpt>
      <trkpt lat="44.45799" lon="6.52562">
        <ele>2269</ele>
        <time>2021-02-21T06:12:08Z</time>
      </trkpt>
      <trkpt lat="44.45799" lon="6.52561">
        <ele>2269</ele>
        <time>2021-02-21T06:12:09Z</time>
      </trkpt>
      <trkpt lat="44.45798" lon="6.52561">
        <ele>2269</ele>
        <time>2021-02-21T06:12:10Z</time>
      </trkpt>
      <trkpt lat="44.45798" lon="6.5256">
        <ele>2269</ele>
        <time>2021-02-21T06:12:11Z</time>
      </trkpt>
      <trkpt lat="44.45798" lon="6.52559">
        <ele>2269</ele>
        <time>2021-02-21T06:12:12Z</time>
      </trkpt>
      <trkpt lat="44.45797" lon="6.52558">
        <ele>2269</ele>
        <time>2021-02-21T06:12:13Z</time>
      </trkpt>
      <trkpt lat="44.45796" lon="6.52557">
        <ele>2269</ele>
        <time>2021-02-21T06:12:14Z</time>
      </trkpt>
      <trkpt lat="44.45796" lon="6.52557">
        <ele>2268</ele>
        <time>2021-02-21T06:12:15Z</time>
      </trkpt>
      <trkpt lat="44.45795" lon="6.52556">
        <ele>2268</ele>
        <time>2021-02-21T06:12:16Z</time>
      </trkpt>
      <trkpt lat="44.45795" lon="6.52555">
        <ele>2268</ele>
        <time>2021-02-21T06:12:17Z</time>
      </trkpt>
      <trkpt lat="44.45794" lon="6.52554">
        <ele>2268</ele>
        <time>2021-02-21T06:12:18Z</time>
      </trkpt>
      <trkpt lat="44.45794" lon="6.52553">
        <ele>2267</ele>
        <time>2021-02-21T06:12:19Z</time>
      </trkpt>
      <trkpt lat="44.45793" lon="6.52553">
        <ele>2267</ele>
        <time>2021-02-21T06:12:20Z</time>
      </trkpt>
      <trkpt lat="44.45793" lon="6.52551">
        <ele>2267</ele>
        <time>2021-02-21T06:12:21Z</time>
      </trkpt>
      <trkpt lat="44.45793" lon="6.52551">
        <ele>2267</ele>
        <time>2021-02-21T06:12:22Z</time>
      </trkpt>
      <trkpt lat="44.45792" lon="6.5255">
        <ele>2267</ele>
        <time>2021-02-21T06:12:23Z</time>
      </trkpt>
      <trkpt lat="44.45791" lon="6.52549">
        <ele>2266</ele>
        <time>2021-02-21T06:12:24Z</time>
      </trkpt>
      <trkpt lat="44.45791" lon="6.52548">
        <ele>2266</ele>
        <time>2021-02-21T06:12:25Z</time>
      </trkpt>
      <trkpt lat="44.4579" lon="6.52548">
        <ele>2266</ele>
        <time>2021-02-21T06:12:26Z</time>
      </trkpt>
      <trkpt lat="44.45789" lon="6.52547">
        <ele>2266</ele>
        <time>2021-02-21T06:12:27Z</time>
      </trkpt>
      <trkpt lat="44.45789" lon="6.52547">
        <ele>2266</ele>
        <time>2021-02-21T06:12:28Z</time>
      </trkpt>
      <trkpt lat="44.45788" lon="6.52547">
        <ele>2265</ele>
        <time>2021-02-21T06:12:29Z</time>
      </trkpt>
      <trkpt lat="44.45787" lon="6.52546">
        <ele>2265</ele>
        <time>2021-02-21T06:12:30Z</time>
      </trkpt>
      <trkpt lat="44.45787" lon="6.52545">
        <ele>2265</ele>
        <time>2021-02-21T06:12:31Z</time>
      </trkpt>
      <trkpt lat="44.45786" lon="6.52543">
        <ele>2265</ele>
        <time>2021-02-21T06:12:32Z</time>
      </trkpt>
      <trkpt lat="44.45786" lon="6.52542">
        <ele>2265</ele>
        <time>2021-02-21T06:12:33Z</time>
      </trkpt>
      <trkpt lat="44.45786" lon="6.52542">
        <ele>2265</ele>
        <time>2021-02-21T06:12:34Z</time>
      </trkpt>
      <trkpt lat="44.45786" lon="6.52541">
        <ele>2265</ele>
        <time>2021-02-21T06:12:35Z</time>
      </trkpt>
      <trkpt lat="44.45785" lon="6.5254">
        <ele>2265</ele>
        <time>2021-02-21T06:12:36Z</time>
      </trkpt>
      <trkpt lat="44.45784" lon="6.52539">
        <ele>2265</ele>
        <time>2021-02-21T06:12:37Z</time>
      </trkpt>
      <trkpt lat="44.45783" lon="6.52538">
        <ele>2265</ele>
        <time>2021-02-21T06:12:38Z</time>
      </trkpt>
      <trkpt lat="44.45783" lon="6.52537">
        <ele>2265</ele>
        <time>2021-02-21T06:12:39Z</time>
      </trkpt>
      <trkpt lat="44.45783" lon="6.52536">
        <ele>2265</ele>
        <time>2021-02-21T06:12:40Z</time>
      </trkpt>
      <trkpt lat="44.45782" lon="6.52535">
        <ele>2265</ele>
        <time>2021-02-21T06:12:41Z</time>
      </trkpt>
      <trkpt lat="44.45782" lon="6.52534">
        <ele>2265</ele>
        <time>2021-02-21T06:12:42Z</time>
      </trkpt>
      <trkpt lat="44.45782" lon="6.52533">
        <ele>2265</ele>
        <time>2021-02-21T06:12:43Z</time>
      </trkpt>
      <trkpt lat="44.45781" lon="6.52533">
        <ele>2265</ele>
        <time>2021-02-21T06:12:44Z</time>
      </trkpt>
      <trkpt lat="44.45781" lon="6.52532">
        <ele>2266</ele>
        <time>2021-02-21T06:12:45Z</time>
      </trkpt>
      <trkpt lat="44.4578" lon="6.52531">
        <ele>2266</ele>
        <time>2021-02-21T06:12:46Z</time>
      </trkpt>
      <trkpt lat="44.4578" lon="6.52531">
        <ele>2266</ele>
        <time>2021-02-21T06:12:47Z</time>
      </trkpt>
      <trkpt lat="44.45779" lon="6.5253">
        <ele>2266</ele>
        <time>2021-02-21T06:12:48Z</time>
      </trkpt>
      <trkpt lat="44.45778" lon="6.52529">
        <ele>2266</ele>
        <time>2021-02-21T06:12:49Z</time>
      </trkpt>
      <trkpt lat="44.45778" lon="6.52528">
        <ele>2267</ele>
        <time>2021-02-21T06:12:50Z</time>
      </trkpt>
      <trkpt lat="44.45778" lon="6.52527">
        <ele>2267</ele>
        <time>2021-02-21T06:12:51Z</time>
      </trkpt>
      <trkpt lat="44.45778" lon="6.52526">
        <ele>2267</ele>
        <time>2021-02-21T06:12:52Z</time>
      </trkpt>
      <trkpt lat="44.45777" lon="6.52525">
        <ele>2267</ele>
        <time>2021-02-21T06:12:53Z</time>
      </trkpt>
      <trkpt lat="44.45777" lon="6.52523">
        <ele>2268</ele>
        <time>2021-02-21T06:12:54Z</time>
      </trkpt>
      <trkpt lat="44.45776" lon="6.52522">
        <ele>2268</ele>
        <time>2021-02-21T06:12:55Z</time>
      </trkpt>
      <trkpt lat="44.45775" lon="6.52521">
        <ele>2269</ele>
        <time>2021-02-21T06:12:56Z</time>
      </trkpt>
      <trkpt lat="44.45775" lon="6.52521">
        <ele>2269</ele>
        <time>2021-02-21T06:12:57Z</time>
      </trkpt>
      <trkpt lat="44.45773" lon="6.5252">
        <ele>2269</ele>
        <time>2021-02-21T06:12:58Z</time>
      </trkpt>
      <trkpt lat="44.45773" lon="6.52519">
        <ele>2271</ele>
        <time>2021-02-21T06:12:59Z</time>
      </trkpt>
      <trkpt lat="44.45773" lon="6.52517">
        <ele>2271</ele>
        <time>2021-02-21T06:13:00Z</time>
      </trkpt>
      <trkpt lat="44.45772" lon="6.52516">
        <ele>2272</ele>
        <time>2021-02-21T06:13:01Z</time>
      </trkpt>
      <trkpt lat="44.45772" lon="6.52514">
        <ele>2272</ele>
        <time>2021-02-21T06:13:02Z</time>
      </trkpt>
      <trkpt lat="44.45772" lon="6.52512">
        <ele>2273</ele>
        <time>2021-02-21T06:13:03Z</time>
      </trkpt>
      <trkpt lat="44.45772" lon="6.52511">
        <ele>2274</ele>
        <time>2021-02-21T06:13:04Z</time>
      </trkpt>
      <trkpt lat="44.45772" lon="6.5251">
        <ele>2274</ele>
        <time>2021-02-21T06:13:05Z</time>
      </trkpt>
      <trkpt lat="44.45771" lon="6.52509">
        <ele>2274</ele>
        <time>2021-02-21T06:13:06Z</time>
      </trkpt>
      <trkpt lat="44.45771" lon="6.52508">
        <ele>2274</ele>
        <time>2021-02-21T06:13:07Z</time>
      </trkpt>
      <trkpt lat="44.4577" lon="6.52508">
        <ele>2275</ele>
        <time>2021-02-21T06:13:08Z</time>
      </trkpt>
      <trkpt lat="44.45769" lon="6.52507">
        <ele>2276</ele>
        <time>2021-02-21T06:13:09Z</time>
      </trkpt>
      <trkpt lat="44.45769" lon="6.52506">
        <ele>2276</ele>
        <time>2021-02-21T06:13:10Z</time>
      </trkpt>
      <trkpt lat="44.45769" lon="6.52506">
        <ele>2276</ele>
        <time>2021-02-21T06:13:11Z</time>
      </trkpt>
      <trkpt lat="44.45768" lon="6.52506">
        <ele>2276</ele>
        <time>2021-02-21T06:13:12Z</time>
      </trkpt>
      <trkpt lat="44.45768" lon="6.52506">
        <ele>2276</ele>
        <time>2021-02-21T06:13:13Z</time>
      </trkpt>
      <trkpt lat="44.45767" lon="6.52505">
        <ele>2277</ele>
        <time>2021-02-21T06:13:14Z</time>
      </trkpt>
      <trkpt lat="44.45767" lon="6.52504">
        <ele>2277</ele>
        <time>2021-02-21T06:13:15Z</time>
      </trkpt>
      <trkpt lat="44.45767" lon="6.52503">
        <ele>2278</ele>
        <time>2021-02-21T06:13:16Z</time>
      </trkpt>
      <trkpt lat="44.45766" lon="6.52502">
        <ele>2278</ele>
        <time>2021-02-21T06:13:17Z</time>
      </trkpt>
      <trkpt lat="44.45766" lon="6.52501">
        <ele>2278</ele>
        <time>2021-02-21T06:13:18Z</time>
      </trkpt>
      <trkpt lat="44.45765" lon="6.525">
        <ele>2279</ele>
        <time>2021-02-21T06:13:19Z</time>
      </trkpt>
      <trkpt lat="44.45765" lon="6.52499">
        <ele>2279</ele>
        <time>2021-02-21T06:13:20Z</time>
      </trkpt>
      <trkpt lat="44.45765" lon="6.52497">
        <ele>2280</ele>
        <time>2021-02-21T06:13:21Z</time>
      </trkpt>
      <trkpt lat="44.45765" lon="6.52496">
        <ele>2280</ele>
        <time>2021-02-21T06:13:22Z</time>
      </trkpt>
      <trkpt lat="44.45765" lon="6.52496">
        <ele>2280</ele>
        <time>2021-02-21T06:13:23Z</time>
      </trkpt>
      <trkpt lat="44.45764" lon="6.52495">
        <ele>2280</ele>
        <time>2021-02-21T06:13:24Z</time>
      </trkpt>
      <trkpt lat="44.45765" lon="6.52493">
        <ele>2280</ele>
        <time>2021-02-21T06:13:25Z</time>
      </trkpt>
      <trkpt lat="44.45765" lon="6.52492">
        <ele>2280</ele>
        <time>2021-02-21T06:13:26Z</time>
      </trkpt>
      <trkpt lat="44.45766" lon="6.5249">
        <ele>2280</ele>
        <time>2021-02-21T06:13:27Z</time>
      </trkpt>
      <trkpt lat="44.45765" lon="6.5249">
        <ele>2280</ele>
        <time>2021-02-21T06:13:28Z</time>
      </trkpt>
      <trkpt lat="44.45764" lon="6.52489">
        <ele>2280</ele>
        <time>2021-02-21T06:13:29Z</time>
      </trkpt>
      <trkpt lat="44.45764" lon="6.52488">
        <ele>2280</ele>
        <time>2021-02-21T06:13:30Z</time>
      </trkpt>
      <trkpt lat="44.45764" lon="6.52487">
        <ele>2280</ele>
        <time>2021-02-21T06:13:31Z</time>
      </trkpt>
      <trkpt lat="44.45764" lon="6.52486">
        <ele>2280</ele>
        <time>2021-02-21T06:13:32Z</time>
      </trkpt>
      <trkpt lat="44.45764" lon="6.52486">
        <ele>2279</ele>
        <time>2021-02-21T06:13:33Z</time>
      </trkpt>
      <trkpt lat="44.45764" lon="6.52485">
        <ele>2279</ele>
        <time>2021-02-21T06:13:34Z</time>
      </trkpt>
      <trkpt lat="44.45765" lon="6.52483">
        <ele>2279</ele>
        <time>2021-02-21T06:13:35Z</time>
      </trkpt>
      <trkpt lat="44.45765" lon="6.52482">
        <ele>2279</ele>
        <time>2021-02-21T06:13:36Z</time>
      </trkpt>
      <trkpt lat="44.45765" lon="6.52481">
        <ele>2279</ele>
        <time>2021-02-21T06:13:37Z</time>
      </trkpt>
      <trkpt lat="44.45765" lon="6.5248">
        <ele>2279</ele>
        <time>2021-02-21T06:13:38Z</time>
      </trkpt>
      <trkpt lat="44.45764" lon="6.52479">
        <ele>2279</ele>
        <time>2021-02-21T06:13:39Z</time>
      </trkpt>
      <trkpt lat="44.45763" lon="6.52479">
        <ele>2279</ele>
        <time>2021-02-21T06:13:40Z</time>
      </trkpt>
      <trkpt lat="44.45762" lon="6.52478">
        <ele>2279</ele>
        <time>2021-02-21T06:13:41Z</time>
      </trkpt>
      <trkpt lat="44.45761" lon="6.52477">
        <ele>2279</ele>
        <time>2021-02-21T06:13:42Z</time>
      </trkpt>
      <trkpt lat="44.45761" lon="6.52476">
        <ele>2279</ele>
        <time>2021-02-21T06:13:43Z</time>
      </trkpt>
      <trkpt lat="44.45761" lon="6.52475">
        <ele>2279</ele>
        <time>2021-02-21T06:13:44Z</time>
      </trkpt>
      <trkpt lat="44.4576" lon="6.52474">
        <ele>2279</ele>
        <time>2021-02-21T06:13:45Z</time>
      </trkpt>
      <trkpt lat="44.4576" lon="6.52473">
        <ele>2279</ele>
        <time>2021-02-21T06:13:46Z</time>
      </trkpt>
      <trkpt lat="44.45759" lon="6.52472">
        <ele>2279</ele>
        <time>2021-02-21T06:13:47Z</time>
      </trkpt>
      <trkpt lat="44.45759" lon="6.52471">
        <ele>2279</ele>
        <time>2021-02-21T06:13:48Z</time>
      </trkpt>
      <trkpt lat="44.45758" lon="6.5247">
        <ele>2279</ele>
        <time>2021-02-21T06:13:49Z</time>
      </trkpt>
      <trkpt lat="44.45758" lon="6.5247">
        <ele>2279</ele>
        <time>2021-02-21T06:13:50Z</time>
      </trkpt>
      <trkpt lat="44.45758" lon="6.52469">
        <ele>2279</ele>
        <time>2021-02-21T06:13:51Z</time>
      </trkpt>
      <trkpt lat="44.45757" lon="6.52468">
        <ele>2279</ele>
        <time>2021-02-21T06:13:52Z</time>
      </trkpt>
      <trkpt lat="44.45757" lon="6.52467">
        <ele>2280</ele>
        <time>2021-02-21T06:13:53Z</time>
      </trkpt>
      <trkpt lat="44.45756" lon="6.52466">
        <ele>2280</ele>
        <time>2021-02-21T06:13:54Z</time>
      </trkpt>
      <trkpt lat="44.45756" lon="6.52465">
        <ele>2280</ele>
        <time>2021-02-21T06:13:55Z</time>
      </trkpt>
      <trkpt lat="44.45755" lon="6.52464">
        <ele>2280</ele>
        <time>2021-02-21T06:13:56Z</time>
      </trkpt>
      <trkpt lat="44.45754" lon="6.52464">
        <ele>2280</ele>
        <time>2021-02-21T06:13:57Z</time>
      </trkpt>
      <trkpt lat="44.45754" lon="6.52464">
        <ele>2281</ele>
        <time>2021-02-21T06:13:58Z</time>
      </trkpt>
      <trkpt lat="44.45753" lon="6.52462">
        <ele>2281</ele>
        <time>2021-02-21T06:13:59Z</time>
      </trkpt>
      <trkpt lat="44.45753" lon="6.52461">
        <ele>2281</ele>
        <time>2021-02-21T06:14:00Z</time>
      </trkpt>
      <trkpt lat="44.45753" lon="6.5246">
        <ele>2281</ele>
        <time>2021-02-21T06:14:01Z</time>
      </trkpt>
      <trkpt lat="44.45752" lon="6.52459">
        <ele>2281</ele>
        <time>2021-02-21T06:14:02Z</time>
      </trkpt>
      <trkpt lat="44.45752" lon="6.52458">
        <ele>2281</ele>
        <time>2021-02-21T06:14:03Z</time>
      </trkpt>
      <trkpt lat="44.45752" lon="6.52457">
        <ele>2281</ele>
        <time>2021-02-21T06:14:04Z</time>
      </trkpt>
      <trkpt lat="44.45751" lon="6.52456">
        <ele>2282</ele>
        <time>2021-02-21T06:14:05Z</time>
      </trkpt>
      <trkpt lat="44.45751" lon="6.52455">
        <ele>2282</ele>
        <time>2021-02-21T06:14:06Z</time>
      </trkpt>
      <trkpt lat="44.45751" lon="6.52454">
        <ele>2282</ele>
        <time>2021-02-21T06:14:07Z</time>
      </trkpt>
      <trkpt lat="44.45751" lon="6.52453">
        <ele>2282</ele>
        <time>2021-02-21T06:14:08Z</time>
      </trkpt>
      <trkpt lat="44.45751" lon="6.52453">
        <ele>2282</ele>
        <time>2021-02-21T06:14:09Z</time>
      </trkpt>
      <trkpt lat="44.4575" lon="6.52451">
        <ele>2283</ele>
        <time>2021-02-21T06:14:10Z</time>
      </trkpt>
      <trkpt lat="44.4575" lon="6.5245">
        <ele>2283</ele>
        <time>2021-02-21T06:14:11Z</time>
      </trkpt>
      <trkpt lat="44.4575" lon="6.5245">
        <ele>2283</ele>
        <time>2021-02-21T06:14:12Z</time>
      </trkpt>
      <trkpt lat="44.4575" lon="6.52449">
        <ele>2283</ele>
        <time>2021-02-21T06:14:13Z</time>
      </trkpt>
      <trkpt lat="44.45751" lon="6.5245">
        <ele>2283</ele>
        <time>2021-02-21T06:14:14Z</time>
      </trkpt>
      <trkpt lat="44.45751" lon="6.52449">
        <ele>2283</ele>
        <time>2021-02-21T06:14:15Z</time>
      </trkpt>
      <trkpt lat="44.45751" lon="6.52449">
        <ele>2283</ele>
        <time>2021-02-21T06:14:16Z</time>
      </trkpt>
      <trkpt lat="44.45751" lon="6.52449">
        <ele>2283</ele>
        <time>2021-02-21T06:14:17Z</time>
      </trkpt>
      <trkpt lat="44.45751" lon="6.52448">
        <ele>2283</ele>
        <time>2021-02-21T06:14:18Z</time>
      </trkpt>
      <trkpt lat="44.45751" lon="6.52447">
        <ele>2283</ele>
        <time>2021-02-21T06:14:19Z</time>
      </trkpt>
      <trkpt lat="44.4575" lon="6.52446">
        <ele>2284</ele>
        <time>2021-02-21T06:14:20Z</time>
      </trkpt>
      <trkpt lat="44.4575" lon="6.52446">
        <ele>2284</ele>
        <time>2021-02-21T06:14:21Z</time>
      </trkpt>
      <trkpt lat="44.45749" lon="6.52444">
        <ele>2284</ele>
        <time>2021-02-21T06:14:22Z</time>
      </trkpt>
      <trkpt lat="44.45749" lon="6.52443">
        <ele>2284</ele>
        <time>2021-02-21T06:14:23Z</time>
      </trkpt>
      <trkpt lat="44.45748" lon="6.52443">
        <ele>2284</ele>
        <time>2021-02-21T06:14:24Z</time>
      </trkpt>
      <trkpt lat="44.45748" lon="6.52442">
        <ele>2284</ele>
        <time>2021-02-21T06:14:25Z</time>
      </trkpt>
      <trkpt lat="44.45748" lon="6.52441">
        <ele>2284</ele>
        <time>2021-02-21T06:14:26Z</time>
      </trkpt>
      <trkpt lat="44.45748" lon="6.5244">
        <ele>2285</ele>
        <time>2021-02-21T06:14:27Z</time>
      </trkpt>
      <trkpt lat="44.45747" lon="6.52438">
        <ele>2285</ele>
        <time>2021-02-21T06:14:28Z</time>
      </trkpt>
      <trkpt lat="44.45747" lon="6.52437">
        <ele>2285</ele>
        <time>2021-02-21T06:14:29Z</time>
      </trkpt>
      <trkpt lat="44.45746" lon="6.52436">
        <ele>2284</ele>
        <time>2021-02-21T06:14:30Z</time>
      </trkpt>
      <trkpt lat="44.45746" lon="6.52435">
        <ele>2284</ele>
        <time>2021-02-21T06:14:31Z</time>
      </trkpt>
      <trkpt lat="44.45746" lon="6.52435">
        <ele>2284</ele>
        <time>2021-02-21T06:14:32Z</time>
      </trkpt>
      <trkpt lat="44.45745" lon="6.52435">
        <ele>2284</ele>
        <time>2021-02-21T06:14:33Z</time>
      </trkpt>
      <trkpt lat="44.45745" lon="6.52434">
        <ele>2284</ele>
        <time>2021-02-21T06:14:34Z</time>
      </trkpt>
      <trkpt lat="44.45745" lon="6.52434">
        <ele>2284</ele>
        <time>2021-02-21T06:14:35Z</time>
      </trkpt>
      <trkpt lat="44.45744" lon="6.52434">
        <ele>2284</ele>
        <time>2021-02-21T06:14:36Z</time>
      </trkpt>
      <trkpt lat="44.45744" lon="6.52435">
        <ele>2284</ele>
        <time>2021-02-21T06:14:37Z</time>
      </trkpt>
      <trkpt lat="44.45744" lon="6.52435">
        <ele>2284</ele>
        <time>2021-02-21T06:14:38Z</time>
      </trkpt>
      <trkpt lat="44.45744" lon="6.52435">
        <ele>2283</ele>
        <time>2021-02-21T06:14:39Z</time>
      </trkpt>
      <trkpt lat="44.45744" lon="6.52434">
        <ele>2283</ele>
        <time>2021-02-21T06:14:40Z</time>
      </trkpt>
      <trkpt lat="44.45744" lon="6.52434">
        <ele>2283</ele>
        <time>2021-02-21T06:14:41Z</time>
      </trkpt>
      <trkpt lat="44.45745" lon="6.52432">
        <ele>2283</ele>
        <time>2021-02-21T06:14:42Z</time>
      </trkpt>
      <trkpt lat="44.45745" lon="6.52431">
        <ele>2283</ele>
        <time>2021-02-21T06:14:43Z</time>
      </trkpt>
      <trkpt lat="44.45745" lon="6.52429">
        <ele>2283</ele>
        <time>2021-02-21T06:14:44Z</time>
      </trkpt>
      <trkpt lat="44.45745" lon="6.52427">
        <ele>2283</ele>
        <time>2021-02-21T06:14:45Z</time>
      </trkpt>
      <trkpt lat="44.45745" lon="6.52426">
        <ele>2283</ele>
        <time>2021-02-21T06:14:46Z</time>
      </trkpt>
      <trkpt lat="44.45745" lon="6.52425">
        <ele>2283</ele>
        <time>2021-02-21T06:14:47Z</time>
      </trkpt>
      <trkpt lat="44.45744" lon="6.52423">
        <ele>2283</ele>
        <time>2021-02-21T06:14:48Z</time>
      </trkpt>
      <trkpt lat="44.45744" lon="6.52422">
        <ele>2283</ele>
        <time>2021-02-21T06:14:49Z</time>
      </trkpt>
      <trkpt lat="44.45744" lon="6.5242">
        <ele>2283</ele>
        <time>2021-02-21T06:14:50Z</time>
      </trkpt>
      <trkpt lat="44.45743" lon="6.52419">
        <ele>2283</ele>
        <time>2021-02-21T06:14:51Z</time>
      </trkpt>
      <trkpt lat="44.45743" lon="6.52418">
        <ele>2283</ele>
        <time>2021-02-21T06:14:52Z</time>
      </trkpt>
      <trkpt lat="44.45742" lon="6.52418">
        <ele>2283</ele>
        <time>2021-02-21T06:14:53Z</time>
      </trkpt>
      <trkpt lat="44.45742" lon="6.52417">
        <ele>2283</ele>
        <time>2021-02-21T06:14:54Z</time>
      </trkpt>
      <trkpt lat="44.45741" lon="6.52417">
        <ele>2283</ele>
        <time>2021-02-21T06:14:55Z</time>
      </trkpt>
      <trkpt lat="44.45741" lon="6.52416">
        <ele>2283</ele>
        <time>2021-02-21T06:14:56Z</time>
      </trkpt>
      <trkpt lat="44.45741" lon="6.52416">
        <ele>2284</ele>
        <time>2021-02-21T06:14:57Z</time>
      </trkpt>
      <trkpt lat="44.4574" lon="6.52416">
        <ele>2284</ele>
        <time>2021-02-21T06:14:58Z</time>
      </trkpt>
      <trkpt lat="44.4574" lon="6.52415">
        <ele>2284</ele>
        <time>2021-02-21T06:14:59Z</time>
      </trkpt>
      <trkpt lat="44.4574" lon="6.52414">
        <ele>2284</ele>
        <time>2021-02-21T06:15:00Z</time>
      </trkpt>
      <trkpt lat="44.4574" lon="6.52413">
        <ele>2285</ele>
        <time>2021-02-21T06:15:01Z</time>
      </trkpt>
      <trkpt lat="44.4574" lon="6.52412">
        <ele>2285</ele>
        <time>2021-02-21T06:15:02Z</time>
      </trkpt>
      <trkpt lat="44.45739" lon="6.52412">
        <ele>2285</ele>
        <time>2021-02-21T06:15:03Z</time>
      </trkpt>
      <trkpt lat="44.45739" lon="6.52413">
        <ele>2285</ele>
        <time>2021-02-21T06:15:04Z</time>
      </trkpt>
      <trkpt lat="44.45739" lon="6.52413">
        <ele>2285</ele>
        <time>2021-02-21T06:15:05Z</time>
      </trkpt>
      <trkpt lat="44.45739" lon="6.52413">
        <ele>2285</ele>
        <time>2021-02-21T06:15:06Z</time>
      </trkpt>
      <trkpt lat="44.45738" lon="6.52414">
        <ele>2285</ele>
        <time>2021-02-21T06:15:07Z</time>
      </trkpt>
      <trkpt lat="44.45738" lon="6.52413">
        <ele>2285</ele>
        <time>2021-02-21T06:15:08Z</time>
      </trkpt>
      <trkpt lat="44.45737" lon="6.52412">
        <ele>2285</ele>
        <time>2021-02-21T06:15:09Z</time>
      </trkpt>
      <trkpt lat="44.45737" lon="6.52412">
        <ele>2285</ele>
        <time>2021-02-21T06:15:10Z</time>
      </trkpt>
      <trkpt lat="44.45737" lon="6.52412">
        <ele>2285</ele>
        <time>2021-02-21T06:15:11Z</time>
      </trkpt>
      <trkpt lat="44.45737" lon="6.52412">
        <ele>2285</ele>
        <time>2021-02-21T06:15:12Z</time>
      </trkpt>
      <trkpt lat="44.45737" lon="6.52411">
        <ele>2285</ele>
        <time>2021-02-21T06:15:13Z</time>
      </trkpt>
      <trkpt lat="44.45737" lon="6.52411">
        <ele>2285</ele>
        <time>2021-02-21T06:15:14Z</time>
      </trkpt>
      <trkpt lat="44.45737" lon="6.52411">
        <ele>2285</ele>
        <time>2021-02-21T06:15:15Z</time>
      </trkpt>
      <trkpt lat="44.45737" lon="6.52411">
        <ele>2285</ele>
        <time>2021-02-21T06:15:16Z</time>
      </trkpt>
      <trkpt lat="44.45737" lon="6.52411">
        <ele>2285</ele>
        <time>2021-02-21T06:15:17Z</time>
      </trkpt>
      <trkpt lat="44.45737" lon="6.52411">
        <ele>2285</ele>
        <time>2021-02-21T06:15:18Z</time>
      </trkpt>
      <trkpt lat="44.45737" lon="6.52411">
        <ele>2285</ele>
        <time>2021-02-21T06:15:19Z</time>
      </trkpt>
      <trkpt lat="44.45737" lon="6.52411">
        <ele>2285</ele>
        <time>2021-02-21T06:15:20Z</time>
      </trkpt>
      <trkpt lat="44.45742" lon="6.52407">
        <ele>2285</ele>
        <time>2021-02-21T06:15:21Z</time>
      </trkpt>
      <trkpt lat="44.45743" lon="6.52406">
        <ele>2285</ele>
        <time>2021-02-21T06:15:22Z</time>
      </trkpt>
      <trkpt lat="44.45742" lon="6.52404">
        <ele>2285</ele>
        <time>2021-02-21T06:15:23Z</time>
      </trkpt>
      <trkpt lat="44.45743" lon="6.52403">
        <ele>2285</ele>
        <time>2021-02-21T06:15:24Z</time>
      </trkpt>
      <trkpt lat="44.45744" lon="6.52401">
        <ele>2285</ele>
        <time>2021-02-21T06:15:25Z</time>
      </trkpt>
      <trkpt lat="44.45743" lon="6.524">
        <ele>2285</ele>
        <time>2021-02-21T06:15:26Z</time>
      </trkpt>
      <trkpt lat="44.45744" lon="6.52399">
        <ele>2285</ele>
        <time>2021-02-21T06:15:27Z</time>
      </trkpt>
      <trkpt lat="44.45744" lon="6.52398">
        <ele>2285</ele>
        <time>2021-02-21T06:15:28Z</time>
      </trkpt>
      <trkpt lat="44.45744" lon="6.52398">
        <ele>2285</ele>
        <time>2021-02-21T06:15:29Z</time>
      </trkpt>
      <trkpt lat="44.45744" lon="6.52398">
        <ele>2285</ele>
        <time>2021-02-21T06:15:30Z</time>
      </trkpt>
      <trkpt lat="44.45742" lon="6.52397">
        <ele>2285</ele>
        <time>2021-02-21T06:15:31Z</time>
      </trkpt>
      <trkpt lat="44.45741" lon="6.52396">
        <ele>2286</ele>
        <time>2021-02-21T06:15:32Z</time>
      </trkpt>
      <trkpt lat="44.45741" lon="6.52396">
        <ele>2286</ele>
        <time>2021-02-21T06:15:33Z</time>
      </trkpt>
      <trkpt lat="44.4574" lon="6.52395">
        <ele>2286</ele>
        <time>2021-02-21T06:15:34Z</time>
      </trkpt>
      <trkpt lat="44.45739" lon="6.52395">
        <ele>2286</ele>
        <time>2021-02-21T06:15:35Z</time>
      </trkpt>
      <trkpt lat="44.45739" lon="6.52394">
        <ele>2287</ele>
        <time>2021-02-21T06:15:36Z</time>
      </trkpt>
      <trkpt lat="44.45739" lon="6.52393">
        <ele>2287</ele>
        <time>2021-02-21T06:15:37Z</time>
      </trkpt>
      <trkpt lat="44.45739" lon="6.52392">
        <ele>2287</ele>
        <time>2021-02-21T06:15:38Z</time>
      </trkpt>
      <trkpt lat="44.45738" lon="6.52392">
        <ele>2288</ele>
        <time>2021-02-21T06:15:39Z</time>
      </trkpt>
      <trkpt lat="44.45738" lon="6.52392">
        <ele>2288</ele>
        <time>2021-02-21T06:15:40Z</time>
      </trkpt>
      <trkpt lat="44.45737" lon="6.52391">
        <ele>2288</ele>
        <time>2021-02-21T06:15:41Z</time>
      </trkpt>
      <trkpt lat="44.45736" lon="6.5239">
        <ele>2288</ele>
        <time>2021-02-21T06:15:42Z</time>
      </trkpt>
      <trkpt lat="44.45736" lon="6.5239">
        <ele>2288</ele>
        <time>2021-02-21T06:15:43Z</time>
      </trkpt>
      <trkpt lat="44.45736" lon="6.52391">
        <ele>2289</ele>
        <time>2021-02-21T06:15:44Z</time>
      </trkpt>
      <trkpt lat="44.45735" lon="6.52391">
        <ele>2289</ele>
        <time>2021-02-21T06:15:45Z</time>
      </trkpt>
      <trkpt lat="44.45734" lon="6.52392">
        <ele>2289</ele>
        <time>2021-02-21T06:15:46Z</time>
      </trkpt>
      <trkpt lat="44.45734" lon="6.52392">
        <ele>2289</ele>
        <time>2021-02-21T06:15:47Z</time>
      </trkpt>
      <trkpt lat="44.45734" lon="6.52392">
        <ele>2289</ele>
        <time>2021-02-21T06:15:48Z</time>
      </trkpt>
      <trkpt lat="44.45734" lon="6.52392">
        <ele>2289</ele>
        <time>2021-02-21T06:15:49Z</time>
      </trkpt>
      <trkpt lat="44.45734" lon="6.52392">
        <ele>2289</ele>
        <time>2021-02-21T06:15:50Z</time>
      </trkpt>
      <trkpt lat="44.45734" lon="6.52392">
        <ele>2289</ele>
        <time>2021-02-21T06:15:51Z</time>
      </trkpt>
      <trkpt lat="44.45734" lon="6.52392">
        <ele>2289</ele>
        <time>2021-02-21T06:15:52Z</time>
      </trkpt>
      <trkpt lat="44.45734" lon="6.52392">
        <ele>2289</ele>
        <time>2021-02-21T06:15:53Z</time>
      </trkpt>
      <trkpt lat="44.45734" lon="6.52392">
        <ele>2289</ele>
        <time>2021-02-21T06:15:54Z</time>
      </trkpt>
      <trkpt lat="44.45734" lon="6.52392">
        <ele>2289</ele>
        <time>2021-02-21T06:15:55Z</time>
      </trkpt>
      <trkpt lat="44.45734" lon="6.52392">
        <ele>2289</ele>
        <time>2021-02-21T06:15:56Z</time>
      </trkpt>
      <trkpt lat="44.45734" lon="6.52392">
        <ele>2289</ele>
        <time>2021-02-21T06:15:57Z</time>
      </trkpt>
      <trkpt lat="44.45734" lon="6.52392">
        <ele>2289</ele>
        <time>2021-02-21T06:15:58Z</time>
      </trkpt>
      <trkpt lat="44.45734" lon="6.52392">
        <ele>2289</ele>
        <time>2021-02-21T06:15:59Z</time>
      </trkpt>
      <trkpt lat="44.45734" lon="6.52392">
        <ele>2289</ele>
        <time>2021-02-21T06:16:00Z</time>
      </trkpt>
      <trkpt lat="44.45734" lon="6.52392">
        <ele>2289</ele>
        <time>2021-02-21T06:16:01Z</time>
      </trkpt>
      <trkpt lat="44.45734" lon="6.52392">
        <ele>2289</ele>
        <time>2021-02-21T06:16:02Z</time>
      </trkpt>
      <trkpt lat="44.45734" lon="6.52392">
        <ele>2289</ele>
        <time>2021-02-21T06:16:03Z</time>
      </trkpt>
      <trkpt lat="44.45734" lon="6.52392">
        <ele>2289</ele>
        <time>2021-02-21T06:16:04Z</time>
      </trkpt>
      <trkpt lat="44.45734" lon="6.52392">
        <ele>2289</ele>
        <time>2021-02-21T06:16:05Z</time>
      </trkpt>
      <trkpt lat="44.45736" lon="6.52393">
        <ele>2288</ele>
        <time>2021-02-21T06:16:06Z</time>
      </trkpt>
      <trkpt lat="44.45736" lon="6.52393">
        <ele>2288</ele>
        <time>2021-02-21T06:16:07Z</time>
      </trkpt>
      <trkpt lat="44.45736" lon="6.52392">
        <ele>2288</ele>
        <time>2021-02-21T06:16:08Z</time>
      </trkpt>
      <trkpt lat="44.45736" lon="6.52392">
        <ele>2288</ele>
        <time>2021-02-21T06:16:09Z</time>
      </trkpt>
      <trkpt lat="44.45736" lon="6.52392">
        <ele>2288</ele>
        <time>2021-02-21T06:16:10Z</time>
      </trkpt>
      <trkpt lat="44.45736" lon="6.52392">
        <ele>2288</ele>
        <time>2021-02-21T06:16:11Z</time>
      </trkpt>
      <trkpt lat="44.45736" lon="6.52392">
        <ele>2288</ele>
        <time>2021-02-21T06:16:12Z</time>
      </trkpt>
      <trkpt lat="44.45736" lon="6.52392">
        <ele>2288</ele>
        <time>2021-02-21T06:16:13Z</time>
      </trkpt>
      <trkpt lat="44.45736" lon="6.52392">
        <ele>2288</ele>
        <time>2021-02-21T06:16:14Z</time>
      </trkpt>
      <trkpt lat="44.45736" lon="6.5239">
        <ele>2288</ele>
        <time>2021-02-21T06:16:15Z</time>
      </trkpt>
      <trkpt lat="44.45736" lon="6.52389">
        <ele>2288</ele>
        <time>2021-02-21T06:16:16Z</time>
      </trkpt>
      <trkpt lat="44.45736" lon="6.52387">
        <ele>2288</ele>
        <time>2021-02-21T06:16:17Z</time>
      </trkpt>
      <trkpt lat="44.45736" lon="6.52385">
        <ele>2288</ele>
        <time>2021-02-21T06:16:18Z</time>
      </trkpt>
      <trkpt lat="44.45736" lon="6.52385">
        <ele>2289</ele>
        <time>2021-02-21T06:16:19Z</time>
      </trkpt>
      <trkpt lat="44.45736" lon="6.52383">
        <ele>2289</ele>
        <time>2021-02-21T06:16:20Z</time>
      </trkpt>
      <trkpt lat="44.45735" lon="6.52383">
        <ele>2289</ele>
        <time>2021-02-21T06:16:21Z</time>
      </trkpt>
      <trkpt lat="44.45734" lon="6.52382">
        <ele>2289</ele>
        <time>2021-02-21T06:16:22Z</time>
      </trkpt>
      <trkpt lat="44.45734" lon="6.52381">
        <ele>2289</ele>
        <time>2021-02-21T06:16:23Z</time>
      </trkpt>
      <trkpt lat="44.45733" lon="6.52381">
        <ele>2289</ele>
        <time>2021-02-21T06:16:24Z</time>
      </trkpt>
      <trkpt lat="44.45732" lon="6.5238">
        <ele>2289</ele>
        <time>2021-02-21T06:16:25Z</time>
      </trkpt>
      <trkpt lat="44.45732" lon="6.5238">
        <ele>2289</ele>
        <time>2021-02-21T06:16:26Z</time>
      </trkpt>
      <trkpt lat="44.45732" lon="6.52378">
        <ele>2289</ele>
        <time>2021-02-21T06:16:27Z</time>
      </trkpt>
      <trkpt lat="44.45732" lon="6.52377">
        <ele>2290</ele>
        <time>2021-02-21T06:16:28Z</time>
      </trkpt>
      <trkpt lat="44.45732" lon="6.52376">
        <ele>2290</ele>
        <time>2021-02-21T06:16:29Z</time>
      </trkpt>
      <trkpt lat="44.45731" lon="6.52376">
        <ele>2290</ele>
        <time>2021-02-21T06:16:30Z</time>
      </trkpt>
      <trkpt lat="44.45731" lon="6.52376">
        <ele>2290</ele>
        <time>2021-02-21T06:16:31Z</time>
      </trkpt>
      <trkpt lat="44.45731" lon="6.52375">
        <ele>2290</ele>
        <time>2021-02-21T06:16:32Z</time>
      </trkpt>
      <trkpt lat="44.4573" lon="6.52374">
        <ele>2290</ele>
        <time>2021-02-21T06:16:33Z</time>
      </trkpt>
      <trkpt lat="44.4573" lon="6.52373">
        <ele>2291</ele>
        <time>2021-02-21T06:16:34Z</time>
      </trkpt>
      <trkpt lat="44.45729" lon="6.52372">
        <ele>2291</ele>
        <time>2021-02-21T06:16:35Z</time>
      </trkpt>
      <trkpt lat="44.45729" lon="6.52371">
        <ele>2291</ele>
        <time>2021-02-21T06:16:36Z</time>
      </trkpt>
      <trkpt lat="44.45729" lon="6.52371">
        <ele>2291</ele>
        <time>2021-02-21T06:16:37Z</time>
      </trkpt>
      <trkpt lat="44.45729" lon="6.5237">
        <ele>2291</ele>
        <time>2021-02-21T06:16:38Z</time>
      </trkpt>
      <trkpt lat="44.45729" lon="6.52369">
        <ele>2291</ele>
        <time>2021-02-21T06:16:39Z</time>
      </trkpt>
      <trkpt lat="44.45729" lon="6.52368">
        <ele>2291</ele>
        <time>2021-02-21T06:16:40Z</time>
      </trkpt>
      <trkpt lat="44.45729" lon="6.52367">
        <ele>2291</ele>
        <time>2021-02-21T06:16:41Z</time>
      </trkpt>
      <trkpt lat="44.45728" lon="6.52367">
        <ele>2291</ele>
        <time>2021-02-21T06:16:42Z</time>
      </trkpt>
      <trkpt lat="44.45727" lon="6.52368">
        <ele>2291</ele>
        <time>2021-02-21T06:16:43Z</time>
      </trkpt>
      <trkpt lat="44.45727" lon="6.52367">
        <ele>2291</ele>
        <time>2021-02-21T06:16:44Z</time>
      </trkpt>
      <trkpt lat="44.45727" lon="6.52366">
        <ele>2291</ele>
        <time>2021-02-21T06:16:45Z</time>
      </trkpt>
      <trkpt lat="44.45727" lon="6.52366">
        <ele>2291</ele>
        <time>2021-02-21T06:16:46Z</time>
      </trkpt>
      <trkpt lat="44.45727" lon="6.52366">
        <ele>2291</ele>
        <time>2021-02-21T06:16:47Z</time>
      </trkpt>
      <trkpt lat="44.45727" lon="6.52366">
        <ele>2291</ele>
        <time>2021-02-21T06:16:48Z</time>
      </trkpt>
      <trkpt lat="44.45727" lon="6.52365">
        <ele>2291</ele>
        <time>2021-02-21T06:16:49Z</time>
      </trkpt>
      <trkpt lat="44.45728" lon="6.52364">
        <ele>2291</ele>
        <time>2021-02-21T06:16:50Z</time>
      </trkpt>
      <trkpt lat="44.45728" lon="6.52363">
        <ele>2291</ele>
        <time>2021-02-21T06:16:51Z</time>
      </trkpt>
      <trkpt lat="44.45728" lon="6.52362">
        <ele>2291</ele>
        <time>2021-02-21T06:16:52Z</time>
      </trkpt>
      <trkpt lat="44.45729" lon="6.52361">
        <ele>2292</ele>
        <time>2021-02-21T06:16:53Z</time>
      </trkpt>
      <trkpt lat="44.45728" lon="6.52361">
        <ele>2292</ele>
        <time>2021-02-21T06:16:54Z</time>
      </trkpt>
      <trkpt lat="44.45728" lon="6.52361">
        <ele>2292</ele>
        <time>2021-02-21T06:16:55Z</time>
      </trkpt>
      <trkpt lat="44.45727" lon="6.52361">
        <ele>2292</ele>
        <time>2021-02-21T06:16:56Z</time>
      </trkpt>
      <trkpt lat="44.45726" lon="6.52361">
        <ele>2292</ele>
        <time>2021-02-21T06:16:57Z</time>
      </trkpt>
      <trkpt lat="44.45727" lon="6.5236">
        <ele>2292</ele>
        <time>2021-02-21T06:16:58Z</time>
      </trkpt>
      <trkpt lat="44.45726" lon="6.52358">
        <ele>2292</ele>
        <time>2021-02-21T06:16:59Z</time>
      </trkpt>
      <trkpt lat="44.45726" lon="6.52357">
        <ele>2292</ele>
        <time>2021-02-21T06:17:00Z</time>
      </trkpt>
      <trkpt lat="44.45726" lon="6.52356">
        <ele>2292</ele>
        <time>2021-02-21T06:17:01Z</time>
      </trkpt>
      <trkpt lat="44.45726" lon="6.52355">
        <ele>2292</ele>
        <time>2021-02-21T06:17:02Z</time>
      </trkpt>
      <trkpt lat="44.45725" lon="6.52354">
        <ele>2293</ele>
        <time>2021-02-21T06:17:03Z</time>
      </trkpt>
      <trkpt lat="44.45725" lon="6.52354">
        <ele>2293</ele>
        <time>2021-02-21T06:17:04Z</time>
      </trkpt>
      <trkpt lat="44.45724" lon="6.52353">
        <ele>2293</ele>
        <time>2021-02-21T06:17:05Z</time>
      </trkpt>
      <trkpt lat="44.45724" lon="6.52352">
        <ele>2293</ele>
        <time>2021-02-21T06:17:06Z</time>
      </trkpt>
      <trkpt lat="44.45724" lon="6.52351">
        <ele>2292</ele>
        <time>2021-02-21T06:17:07Z</time>
      </trkpt>
      <trkpt lat="44.45723" lon="6.52349">
        <ele>2292</ele>
        <time>2021-02-21T06:17:08Z</time>
      </trkpt>
      <trkpt lat="44.45723" lon="6.52349">
        <ele>2292</ele>
        <time>2021-02-21T06:17:09Z</time>
      </trkpt>
      <trkpt lat="44.45724" lon="6.52348">
        <ele>2292</ele>
        <time>2021-02-21T06:17:10Z</time>
      </trkpt>
      <trkpt lat="44.45723" lon="6.52346">
        <ele>2292</ele>
        <time>2021-02-21T06:17:11Z</time>
      </trkpt>
      <trkpt lat="44.45723" lon="6.52345">
        <ele>2292</ele>
        <time>2021-02-21T06:17:12Z</time>
      </trkpt>
      <trkpt lat="44.45723" lon="6.52344">
        <ele>2291</ele>
        <time>2021-02-21T06:17:13Z</time>
      </trkpt>
      <trkpt lat="44.45722" lon="6.52343">
        <ele>2291</ele>
        <time>2021-02-21T06:17:14Z</time>
      </trkpt>
      <trkpt lat="44.45722" lon="6.52343">
        <ele>2291</ele>
        <time>2021-02-21T06:17:15Z</time>
      </trkpt>
      <trkpt lat="44.45722" lon="6.52342">
        <ele>2291</ele>
        <time>2021-02-21T06:17:16Z</time>
      </trkpt>
      <trkpt lat="44.45721" lon="6.52341">
        <ele>2291</ele>
        <time>2021-02-21T06:17:17Z</time>
      </trkpt>
      <trkpt lat="44.4572" lon="6.5234">
        <ele>2291</ele>
        <time>2021-02-21T06:17:18Z</time>
      </trkpt>
      <trkpt lat="44.4572" lon="6.52339">
        <ele>2290</ele>
        <time>2021-02-21T06:17:19Z</time>
      </trkpt>
      <trkpt lat="44.45719" lon="6.52338">
        <ele>2290</ele>
        <time>2021-02-21T06:17:20Z</time>
      </trkpt>
      <trkpt lat="44.45719" lon="6.52337">
        <ele>2289</ele>
        <time>2021-02-21T06:17:21Z</time>
      </trkpt>
      <trkpt lat="44.45719" lon="6.52336">
        <ele>2289</ele>
        <time>2021-02-21T06:17:22Z</time>
      </trkpt>
      <trkpt lat="44.45718" lon="6.52336">
        <ele>2289</ele>
        <time>2021-02-21T06:17:23Z</time>
      </trkpt>
      <trkpt lat="44.45718" lon="6.52335">
        <ele>2289</ele>
        <time>2021-02-21T06:17:24Z</time>
      </trkpt>
      <trkpt lat="44.45718" lon="6.52334">
        <ele>2289</ele>
        <time>2021-02-21T06:17:25Z</time>
      </trkpt>
      <trkpt lat="44.45718" lon="6.52333">
        <ele>2289</ele>
        <time>2021-02-21T06:17:26Z</time>
      </trkpt>
      <trkpt lat="44.45718" lon="6.52331">
        <ele>2288</ele>
        <time>2021-02-21T06:17:27Z</time>
      </trkpt>
      <trkpt lat="44.45718" lon="6.5233">
        <ele>2288</ele>
        <time>2021-02-21T06:17:28Z</time>
      </trkpt>
      <trkpt lat="44.45718" lon="6.5233">
        <ele>2288</ele>
        <time>2021-02-21T06:17:29Z</time>
      </trkpt>
      <trkpt lat="44.45718" lon="6.52329">
        <ele>2288</ele>
        <time>2021-02-21T06:17:30Z</time>
      </trkpt>
      <trkpt lat="44.45718" lon="6.52328">
        <ele>2288</ele>
        <time>2021-02-21T06:17:31Z</time>
      </trkpt>
      <trkpt lat="44.45718" lon="6.52327">
        <ele>2288</ele>
        <time>2021-02-21T06:17:32Z</time>
      </trkpt>
      <trkpt lat="44.45717" lon="6.52326">
        <ele>2287</ele>
        <time>2021-02-21T06:17:33Z</time>
      </trkpt>
      <trkpt lat="44.45717" lon="6.52326">
        <ele>2287</ele>
        <time>2021-02-21T06:17:34Z</time>
      </trkpt>
      <trkpt lat="44.45717" lon="6.52324">
        <ele>2287</ele>
        <time>2021-02-21T06:17:35Z</time>
      </trkpt>
      <trkpt lat="44.45717" lon="6.52324">
        <ele>2287</ele>
        <time>2021-02-21T06:17:36Z</time>
      </trkpt>
      <trkpt lat="44.45717" lon="6.52323">
        <ele>2287</ele>
        <time>2021-02-21T06:17:37Z</time>
      </trkpt>
      <trkpt lat="44.45717" lon="6.52323">
        <ele>2287</ele>
        <time>2021-02-21T06:17:38Z</time>
      </trkpt>
      <trkpt lat="44.45717" lon="6.52322">
        <ele>2287</ele>
        <time>2021-02-21T06:17:39Z</time>
      </trkpt>
      <trkpt lat="44.45717" lon="6.52322">
        <ele>2287</ele>
        <time>2021-02-21T06:17:40Z</time>
      </trkpt>
      <trkpt lat="44.45717" lon="6.52321">
        <ele>2287</ele>
        <time>2021-02-21T06:17:41Z</time>
      </trkpt>
      <trkpt lat="44.45717" lon="6.5232">
        <ele>2286</ele>
        <time>2021-02-21T06:17:42Z</time>
      </trkpt>
      <trkpt lat="44.45717" lon="6.5232">
        <ele>2286</ele>
        <time>2021-02-21T06:17:43Z</time>
      </trkpt>
      <trkpt lat="44.45717" lon="6.52319">
        <ele>2286</ele>
        <time>2021-02-21T06:17:44Z</time>
      </trkpt>
      <trkpt lat="44.45717" lon="6.52318">
        <ele>2286</ele>
        <time>2021-02-21T06:17:45Z</time>
      </trkpt>
      <trkpt lat="44.45716" lon="6.52318">
        <ele>2285</ele>
        <time>2021-02-21T06:17:46Z</time>
      </trkpt>
      <trkpt lat="44.45716" lon="6.52317">
        <ele>2285</ele>
        <time>2021-02-21T06:17:47Z</time>
      </trkpt>
      <trkpt lat="44.45716" lon="6.52317">
        <ele>2285</ele>
        <time>2021-02-21T06:17:48Z</time>
      </trkpt>
      <trkpt lat="44.45715" lon="6.52316">
        <ele>2285</ele>
        <time>2021-02-21T06:17:49Z</time>
      </trkpt>
      <trkpt lat="44.45715" lon="6.52315">
        <ele>2285</ele>
        <time>2021-02-21T06:17:50Z</time>
      </trkpt>
      <trkpt lat="44.45715" lon="6.52314">
        <ele>2285</ele>
        <time>2021-02-21T06:17:51Z</time>
      </trkpt>
      <trkpt lat="44.45711" lon="6.52312">
        <ele>2286</ele>
        <time>2021-02-21T06:17:52Z</time>
      </trkpt>
      <trkpt lat="44.45711" lon="6.52311">
        <ele>2286</ele>
        <time>2021-02-21T06:17:53Z</time>
      </trkpt>
      <trkpt lat="44.45709" lon="6.52308">
        <ele>2287</ele>
        <time>2021-02-21T06:17:54Z</time>
      </trkpt>
      <trkpt lat="44.45708" lon="6.52306">
        <ele>2289</ele>
        <time>2021-02-21T06:17:55Z</time>
      </trkpt>
      <trkpt lat="44.45707" lon="6.52305">
        <ele>2289</ele>
        <time>2021-02-21T06:17:56Z</time>
      </trkpt>
      <trkpt lat="44.45707" lon="6.52304">
        <ele>2289</ele>
        <time>2021-02-21T06:17:57Z</time>
      </trkpt>
      <trkpt lat="44.45707" lon="6.52303">
        <ele>2290</ele>
        <time>2021-02-21T06:17:58Z</time>
      </trkpt>
      <trkpt lat="44.45707" lon="6.52302">
        <ele>2290</ele>
        <time>2021-02-21T06:17:59Z</time>
      </trkpt>
      <trkpt lat="44.45707" lon="6.52302">
        <ele>2290</ele>
        <time>2021-02-21T06:18:00Z</time>
      </trkpt>
      <trkpt lat="44.45706" lon="6.52301">
        <ele>2290</ele>
        <time>2021-02-21T06:18:01Z</time>
      </trkpt>
      <trkpt lat="44.45706" lon="6.523">
        <ele>2290</ele>
        <time>2021-02-21T06:18:02Z</time>
      </trkpt>
      <trkpt lat="44.45706" lon="6.52299">
        <ele>2291</ele>
        <time>2021-02-21T06:18:03Z</time>
      </trkpt>
      <trkpt lat="44.45703" lon="6.52298">
        <ele>2291</ele>
        <time>2021-02-21T06:18:04Z</time>
      </trkpt>
      <trkpt lat="44.45703" lon="6.52297">
        <ele>2292</ele>
        <time>2021-02-21T06:18:05Z</time>
      </trkpt>
      <trkpt lat="44.45702" lon="6.52296">
        <ele>2293</ele>
        <time>2021-02-21T06:18:06Z</time>
      </trkpt>
      <trkpt lat="44.45702" lon="6.52295">
        <ele>2293</ele>
        <time>2021-02-21T06:18:07Z</time>
      </trkpt>
      <trkpt lat="44.45702" lon="6.52294">
        <ele>2294</ele>
        <time>2021-02-21T06:18:08Z</time>
      </trkpt>
      <trkpt lat="44.45701" lon="6.52293">
        <ele>2294</ele>
        <time>2021-02-21T06:18:09Z</time>
      </trkpt>
      <trkpt lat="44.45701" lon="6.52293">
        <ele>2295</ele>
        <time>2021-02-21T06:18:10Z</time>
      </trkpt>
      <trkpt lat="44.457" lon="6.52291">
        <ele>2295</ele>
        <time>2021-02-21T06:18:11Z</time>
      </trkpt>
      <trkpt lat="44.457" lon="6.5229">
        <ele>2295</ele>
        <time>2021-02-21T06:18:12Z</time>
      </trkpt>
      <trkpt lat="44.45699" lon="6.5229">
        <ele>2297</ele>
        <time>2021-02-21T06:18:13Z</time>
      </trkpt>
      <trkpt lat="44.45699" lon="6.52289">
        <ele>2297</ele>
        <time>2021-02-21T06:18:14Z</time>
      </trkpt>
      <trkpt lat="44.45698" lon="6.52288">
        <ele>2298</ele>
        <time>2021-02-21T06:18:15Z</time>
      </trkpt>
      <trkpt lat="44.45698" lon="6.52288">
        <ele>2298</ele>
        <time>2021-02-21T06:18:16Z</time>
      </trkpt>
      <trkpt lat="44.45697" lon="6.52288">
        <ele>2299</ele>
        <time>2021-02-21T06:18:17Z</time>
      </trkpt>
      <trkpt lat="44.45697" lon="6.52288">
        <ele>2299</ele>
        <time>2021-02-21T06:18:18Z</time>
      </trkpt>
      <trkpt lat="44.45697" lon="6.52288">
        <ele>2299</ele>
        <time>2021-02-21T06:18:19Z</time>
      </trkpt>
      <trkpt lat="44.45696" lon="6.52288">
        <ele>2299</ele>
        <time>2021-02-21T06:18:20Z</time>
      </trkpt>
      <trkpt lat="44.45696" lon="6.52287">
        <ele>2300</ele>
        <time>2021-02-21T06:18:21Z</time>
      </trkpt>
      <trkpt lat="44.45695" lon="6.52286">
        <ele>2301</ele>
        <time>2021-02-21T06:18:22Z</time>
      </trkpt>
      <trkpt lat="44.45694" lon="6.52285">
        <ele>2302</ele>
        <time>2021-02-21T06:18:23Z</time>
      </trkpt>
      <trkpt lat="44.45694" lon="6.52284">
        <ele>2302</ele>
        <time>2021-02-21T06:18:24Z</time>
      </trkpt>
      <trkpt lat="44.45693" lon="6.52283">
        <ele>2302</ele>
        <time>2021-02-21T06:18:25Z</time>
      </trkpt>
      <trkpt lat="44.45693" lon="6.52282">
        <ele>2303</ele>
        <time>2021-02-21T06:18:26Z</time>
      </trkpt>
      <trkpt lat="44.45693" lon="6.52282">
        <ele>2303</ele>
        <time>2021-02-21T06:18:27Z</time>
      </trkpt>
      <trkpt lat="44.45693" lon="6.52281">
        <ele>2304</ele>
        <time>2021-02-21T06:18:28Z</time>
      </trkpt>
      <trkpt lat="44.45692" lon="6.5228">
        <ele>2304</ele>
        <time>2021-02-21T06:18:29Z</time>
      </trkpt>
      <trkpt lat="44.45692" lon="6.5228">
        <ele>2304</ele>
        <time>2021-02-21T06:18:30Z</time>
      </trkpt>
      <trkpt lat="44.45692" lon="6.52279">
        <ele>2305</ele>
        <time>2021-02-21T06:18:31Z</time>
      </trkpt>
      <trkpt lat="44.45691" lon="6.52278">
        <ele>2305</ele>
        <time>2021-02-21T06:18:32Z</time>
      </trkpt>
      <trkpt lat="44.4569" lon="6.52278">
        <ele>2305</ele>
        <time>2021-02-21T06:18:33Z</time>
      </trkpt>
      <trkpt lat="44.4569" lon="6.52277">
        <ele>2305</ele>
        <time>2021-02-21T06:18:34Z</time>
      </trkpt>
      <trkpt lat="44.45689" lon="6.52276">
        <ele>2306</ele>
        <time>2021-02-21T06:18:35Z</time>
      </trkpt>
      <trkpt lat="44.45689" lon="6.52276">
        <ele>2306</ele>
        <time>2021-02-21T06:18:36Z</time>
      </trkpt>
      <trkpt lat="44.45689" lon="6.52275">
        <ele>2306</ele>
        <time>2021-02-21T06:18:37Z</time>
      </trkpt>
      <trkpt lat="44.45688" lon="6.52274">
        <ele>2306</ele>
        <time>2021-02-21T06:18:38Z</time>
      </trkpt>
      <trkpt lat="44.45688" lon="6.52273">
        <ele>2307</ele>
        <time>2021-02-21T06:18:39Z</time>
      </trkpt>
      <trkpt lat="44.45688" lon="6.52273">
        <ele>2307</ele>
        <time>2021-02-21T06:18:40Z</time>
      </trkpt>
      <trkpt lat="44.45687" lon="6.52272">
        <ele>2307</ele>
        <time>2021-02-21T06:18:41Z</time>
      </trkpt>
      <trkpt lat="44.45687" lon="6.52272">
        <ele>2308</ele>
        <time>2021-02-21T06:18:42Z</time>
      </trkpt>
      <trkpt lat="44.45687" lon="6.5227">
        <ele>2308</ele>
        <time>2021-02-21T06:18:43Z</time>
      </trkpt>
      <trkpt lat="44.45687" lon="6.52269">
        <ele>2308</ele>
        <time>2021-02-21T06:18:44Z</time>
      </trkpt>
      <trkpt lat="44.45686" lon="6.52269">
        <ele>2309</ele>
        <time>2021-02-21T06:18:45Z</time>
      </trkpt>
      <trkpt lat="44.45686" lon="6.52268">
        <ele>2309</ele>
        <time>2021-02-21T06:18:46Z</time>
      </trkpt>
      <trkpt lat="44.45686" lon="6.52268">
        <ele>2309</ele>
        <time>2021-02-21T06:18:47Z</time>
      </trkpt>
      <trkpt lat="44.45685" lon="6.52267">
        <ele>2309</ele>
        <time>2021-02-21T06:18:48Z</time>
      </trkpt>
      <trkpt lat="44.45685" lon="6.52267">
        <ele>2309</ele>
        <time>2021-02-21T06:18:49Z</time>
      </trkpt>
      <trkpt lat="44.45684" lon="6.52266">
        <ele>2310</ele>
        <time>2021-02-21T06:18:50Z</time>
      </trkpt>
      <trkpt lat="44.45681" lon="6.52265">
        <ele>2311</ele>
        <time>2021-02-21T06:18:51Z</time>
      </trkpt>
      <trkpt lat="44.45679" lon="6.52264">
        <ele>2311</ele>
        <time>2021-02-21T06:18:52Z</time>
      </trkpt>
      <trkpt lat="44.45677" lon="6.52263">
        <ele>2312</ele>
        <time>2021-02-21T06:18:53Z</time>
      </trkpt>
      <trkpt lat="44.45677" lon="6.52262">
        <ele>2312</ele>
        <time>2021-02-21T06:18:54Z</time>
      </trkpt>
      <trkpt lat="44.45677" lon="6.52261">
        <ele>2312</ele>
        <time>2021-02-21T06:18:55Z</time>
      </trkpt>
      <trkpt lat="44.45677" lon="6.52261">
        <ele>2312</ele>
        <time>2021-02-21T06:18:56Z</time>
      </trkpt>
      <trkpt lat="44.45677" lon="6.5226">
        <ele>2313</ele>
        <time>2021-02-21T06:18:57Z</time>
      </trkpt>
      <trkpt lat="44.45677" lon="6.52259">
        <ele>2313</ele>
        <time>2021-02-21T06:18:58Z</time>
      </trkpt>
      <trkpt lat="44.45677" lon="6.52259">
        <ele>2314</ele>
        <time>2021-02-21T06:18:59Z</time>
      </trkpt>
      <trkpt lat="44.45677" lon="6.52258">
        <ele>2314</ele>
        <time>2021-02-21T06:19:00Z</time>
      </trkpt>
      <trkpt lat="44.45678" lon="6.52257">
        <ele>2314</ele>
        <time>2021-02-21T06:19:01Z</time>
      </trkpt>
      <trkpt lat="44.45677" lon="6.52256">
        <ele>2314</ele>
        <time>2021-02-21T06:19:02Z</time>
      </trkpt>
      <trkpt lat="44.45677" lon="6.52254">
        <ele>2315</ele>
        <time>2021-02-21T06:19:03Z</time>
      </trkpt>
      <trkpt lat="44.45677" lon="6.52253">
        <ele>2315</ele>
        <time>2021-02-21T06:19:04Z</time>
      </trkpt>
      <trkpt lat="44.45676" lon="6.52253">
        <ele>2315</ele>
        <time>2021-02-21T06:19:05Z</time>
      </trkpt>
      <trkpt lat="44.45676" lon="6.52252">
        <ele>2316</ele>
        <time>2021-02-21T06:19:06Z</time>
      </trkpt>
      <trkpt lat="44.45675" lon="6.5225">
        <ele>2316</ele>
        <time>2021-02-21T06:19:07Z</time>
      </trkpt>
      <trkpt lat="44.45674" lon="6.52249">
        <ele>2316</ele>
        <time>2021-02-21T06:19:08Z</time>
      </trkpt>
      <trkpt lat="44.45674" lon="6.52249">
        <ele>2316</ele>
        <time>2021-02-21T06:19:09Z</time>
      </trkpt>
      <trkpt lat="44.45673" lon="6.52249">
        <ele>2316</ele>
        <time>2021-02-21T06:19:10Z</time>
      </trkpt>
      <trkpt lat="44.45672" lon="6.52249">
        <ele>2316</ele>
        <time>2021-02-21T06:19:11Z</time>
      </trkpt>
      <trkpt lat="44.45672" lon="6.52247">
        <ele>2317</ele>
        <time>2021-02-21T06:19:12Z</time>
      </trkpt>
      <trkpt lat="44.45671" lon="6.52246">
        <ele>2317</ele>
        <time>2021-02-21T06:19:13Z</time>
      </trkpt>
      <trkpt lat="44.4567" lon="6.52245">
        <ele>2317</ele>
        <time>2021-02-21T06:19:14Z</time>
      </trkpt>
      <trkpt lat="44.45671" lon="6.52244">
        <ele>2317</ele>
        <time>2021-02-21T06:19:15Z</time>
      </trkpt>
      <trkpt lat="44.4567" lon="6.52244">
        <ele>2318</ele>
        <time>2021-02-21T06:19:16Z</time>
      </trkpt>
      <trkpt lat="44.4567" lon="6.52244">
        <ele>2318</ele>
        <time>2021-02-21T06:19:17Z</time>
      </trkpt>
      <trkpt lat="44.4567" lon="6.52243">
        <ele>2318</ele>
        <time>2021-02-21T06:19:18Z</time>
      </trkpt>
      <trkpt lat="44.45669" lon="6.52242">
        <ele>2318</ele>
        <time>2021-02-21T06:19:19Z</time>
      </trkpt>
      <trkpt lat="44.45669" lon="6.52242">
        <ele>2318</ele>
        <time>2021-02-21T06:19:20Z</time>
      </trkpt>
      <trkpt lat="44.45667" lon="6.52242">
        <ele>2319</ele>
        <time>2021-02-21T06:19:21Z</time>
      </trkpt>
      <trkpt lat="44.45667" lon="6.52241">
        <ele>2319</ele>
        <time>2021-02-21T06:19:22Z</time>
      </trkpt>
      <trkpt lat="44.45666" lon="6.52241">
        <ele>2319</ele>
        <time>2021-02-21T06:19:23Z</time>
      </trkpt>
      <trkpt lat="44.45665" lon="6.5224">
        <ele>2319</ele>
        <time>2021-02-21T06:19:24Z</time>
      </trkpt>
      <trkpt lat="44.45663" lon="6.52239">
        <ele>2319</ele>
        <time>2021-02-21T06:19:25Z</time>
      </trkpt>
      <trkpt lat="44.45662" lon="6.52239">
        <ele>2319</ele>
        <time>2021-02-21T06:19:26Z</time>
      </trkpt>
      <trkpt lat="44.45661" lon="6.52239">
        <ele>2319</ele>
        <time>2021-02-21T06:19:27Z</time>
      </trkpt>
      <trkpt lat="44.45661" lon="6.52238">
        <ele>2320</ele>
        <time>2021-02-21T06:19:28Z</time>
      </trkpt>
      <trkpt lat="44.4566" lon="6.52237">
        <ele>2320</ele>
        <time>2021-02-21T06:19:29Z</time>
      </trkpt>
      <trkpt lat="44.45659" lon="6.52236">
        <ele>2320</ele>
        <time>2021-02-21T06:19:30Z</time>
      </trkpt>
      <trkpt lat="44.45659" lon="6.52235">
        <ele>2320</ele>
        <time>2021-02-21T06:19:31Z</time>
      </trkpt>
      <trkpt lat="44.45658" lon="6.52234">
        <ele>2320</ele>
        <time>2021-02-21T06:19:32Z</time>
      </trkpt>
      <trkpt lat="44.45658" lon="6.52234">
        <ele>2320</ele>
        <time>2021-02-21T06:19:33Z</time>
      </trkpt>
      <trkpt lat="44.45657" lon="6.52234">
        <ele>2321</ele>
        <time>2021-02-21T06:19:34Z</time>
      </trkpt>
      <trkpt lat="44.45657" lon="6.52233">
        <ele>2321</ele>
        <time>2021-02-21T06:19:35Z</time>
      </trkpt>
      <trkpt lat="44.45657" lon="6.52232">
        <ele>2321</ele>
        <time>2021-02-21T06:19:36Z</time>
      </trkpt>
      <trkpt lat="44.45657" lon="6.52231">
        <ele>2321</ele>
        <time>2021-02-21T06:19:37Z</time>
      </trkpt>
      <trkpt lat="44.45657" lon="6.5223">
        <ele>2321</ele>
        <time>2021-02-21T06:19:38Z</time>
      </trkpt>
      <trkpt lat="44.45657" lon="6.52229">
        <ele>2321</ele>
        <time>2021-02-21T06:19:39Z</time>
      </trkpt>
      <trkpt lat="44.45658" lon="6.52228">
        <ele>2321</ele>
        <time>2021-02-21T06:19:40Z</time>
      </trkpt>
      <trkpt lat="44.45658" lon="6.52227">
        <ele>2321</ele>
        <time>2021-02-21T06:19:41Z</time>
      </trkpt>
      <trkpt lat="44.45658" lon="6.52225">
        <ele>2320</ele>
        <time>2021-02-21T06:19:42Z</time>
      </trkpt>
      <trkpt lat="44.45657" lon="6.52225">
        <ele>2320</ele>
        <time>2021-02-21T06:19:43Z</time>
      </trkpt>
      <trkpt lat="44.45657" lon="6.52224">
        <ele>2320</ele>
        <time>2021-02-21T06:19:44Z</time>
      </trkpt>
      <trkpt lat="44.45656" lon="6.52222">
        <ele>2320</ele>
        <time>2021-02-21T06:19:45Z</time>
      </trkpt>
      <trkpt lat="44.45656" lon="6.52222">
        <ele>2320</ele>
        <time>2021-02-21T06:19:46Z</time>
      </trkpt>
      <trkpt lat="44.45657" lon="6.52222">
        <ele>2320</ele>
        <time>2021-02-21T06:19:47Z</time>
      </trkpt>
      <trkpt lat="44.45657" lon="6.52221">
        <ele>2319</ele>
        <time>2021-02-21T06:19:48Z</time>
      </trkpt>
      <trkpt lat="44.45657" lon="6.52221">
        <ele>2318</ele>
        <time>2021-02-21T06:19:49Z</time>
      </trkpt>
      <trkpt lat="44.45657" lon="6.5222">
        <ele>2318</ele>
        <time>2021-02-21T06:19:50Z</time>
      </trkpt>
      <trkpt lat="44.45656" lon="6.52219">
        <ele>2318</ele>
        <time>2021-02-21T06:19:51Z</time>
      </trkpt>
      <trkpt lat="44.45656" lon="6.52218">
        <ele>2317</ele>
        <time>2021-02-21T06:19:52Z</time>
      </trkpt>
      <trkpt lat="44.45657" lon="6.52216">
        <ele>2317</ele>
        <time>2021-02-21T06:19:53Z</time>
      </trkpt>
      <trkpt lat="44.45656" lon="6.52214">
        <ele>2316</ele>
        <time>2021-02-21T06:19:54Z</time>
      </trkpt>
      <trkpt lat="44.45656" lon="6.52212">
        <ele>2316</ele>
        <time>2021-02-21T06:19:55Z</time>
      </trkpt>
      <trkpt lat="44.45656" lon="6.52211">
        <ele>2316</ele>
        <time>2021-02-21T06:19:56Z</time>
      </trkpt>
      <trkpt lat="44.45655" lon="6.5221">
        <ele>2316</ele>
        <time>2021-02-21T06:19:57Z</time>
      </trkpt>
      <trkpt lat="44.45655" lon="6.52209">
        <ele>2316</ele>
        <time>2021-02-21T06:19:58Z</time>
      </trkpt>
      <trkpt lat="44.45654" lon="6.52208">
        <ele>2316</ele>
        <time>2021-02-21T06:19:59Z</time>
      </trkpt>
      <trkpt lat="44.45654" lon="6.52207">
        <ele>2315</ele>
        <time>2021-02-21T06:20:00Z</time>
      </trkpt>
      <trkpt lat="44.45655" lon="6.52205">
        <ele>2315</ele>
        <time>2021-02-21T06:20:01Z</time>
      </trkpt>
      <trkpt lat="44.45654" lon="6.52204">
        <ele>2314</ele>
        <time>2021-02-21T06:20:02Z</time>
      </trkpt>
      <trkpt lat="44.45654" lon="6.52203">
        <ele>2314</ele>
        <time>2021-02-21T06:20:03Z</time>
      </trkpt>
      <trkpt lat="44.45654" lon="6.52202">
        <ele>2314</ele>
        <time>2021-02-21T06:20:04Z</time>
      </trkpt>
      <trkpt lat="44.45654" lon="6.52202">
        <ele>2314</ele>
        <time>2021-02-21T06:20:05Z</time>
      </trkpt>
      <trkpt lat="44.45654" lon="6.52201">
        <ele>2314</ele>
        <time>2021-02-21T06:20:06Z</time>
      </trkpt>
      <trkpt lat="44.45654" lon="6.522">
        <ele>2313</ele>
        <time>2021-02-21T06:20:07Z</time>
      </trkpt>
      <trkpt lat="44.45653" lon="6.52199">
        <ele>2313</ele>
        <time>2021-02-21T06:20:08Z</time>
      </trkpt>
      <trkpt lat="44.45653" lon="6.52198">
        <ele>2313</ele>
        <time>2021-02-21T06:20:09Z</time>
      </trkpt>
      <trkpt lat="44.45653" lon="6.52196">
        <ele>2313</ele>
        <time>2021-02-21T06:20:10Z</time>
      </trkpt>
      <trkpt lat="44.45653" lon="6.52195">
        <ele>2314</ele>
        <time>2021-02-21T06:20:11Z</time>
      </trkpt>
      <trkpt lat="44.45653" lon="6.52194">
        <ele>2314</ele>
        <time>2021-02-21T06:20:12Z</time>
      </trkpt>
      <trkpt lat="44.45653" lon="6.52194">
        <ele>2315</ele>
        <time>2021-02-21T06:20:13Z</time>
      </trkpt>
      <trkpt lat="44.45653" lon="6.52195">
        <ele>2316</ele>
        <time>2021-02-21T06:20:14Z</time>
      </trkpt>
      <trkpt lat="44.45654" lon="6.52195">
        <ele>2317</ele>
        <time>2021-02-21T06:20:15Z</time>
      </trkpt>
      <trkpt lat="44.45654" lon="6.52195">
        <ele>2317</ele>
        <time>2021-02-21T06:20:16Z</time>
      </trkpt>
      <trkpt lat="44.45655" lon="6.52194">
        <ele>2317</ele>
        <time>2021-02-21T06:20:17Z</time>
      </trkpt>
      <trkpt lat="44.45655" lon="6.52193">
        <ele>2318</ele>
        <time>2021-02-21T06:20:18Z</time>
      </trkpt>
      <trkpt lat="44.45655" lon="6.52193">
        <ele>2318</ele>
        <time>2021-02-21T06:20:19Z</time>
      </trkpt>
      <trkpt lat="44.45655" lon="6.52193">
        <ele>2318</ele>
        <time>2021-02-21T06:20:20Z</time>
      </trkpt>
      <trkpt lat="44.45655" lon="6.52192">
        <ele>2318</ele>
        <time>2021-02-21T06:20:21Z</time>
      </trkpt>
      <trkpt lat="44.45654" lon="6.52192">
        <ele>2318</ele>
        <time>2021-02-21T06:20:22Z</time>
      </trkpt>
      <trkpt lat="44.45654" lon="6.52192">
        <ele>2318</ele>
        <time>2021-02-21T06:20:23Z</time>
      </trkpt>
      <trkpt lat="44.45654" lon="6.52192">
        <ele>2318</ele>
        <time>2021-02-21T06:20:24Z</time>
      </trkpt>
      <trkpt lat="44.45654" lon="6.52192">
        <ele>2318</ele>
        <time>2021-02-21T06:20:25Z</time>
      </trkpt>
      <trkpt lat="44.45654" lon="6.52191">
        <ele>2319</ele>
        <time>2021-02-21T06:20:26Z</time>
      </trkpt>
      <trkpt lat="44.45655" lon="6.52189">
        <ele>2319</ele>
        <time>2021-02-21T06:20:27Z</time>
      </trkpt>
      <trkpt lat="44.45654" lon="6.52188">
        <ele>2319</ele>
        <time>2021-02-21T06:20:28Z</time>
      </trkpt>
      <trkpt lat="44.45654" lon="6.52187">
        <ele>2319</ele>
        <time>2021-02-21T06:20:29Z</time>
      </trkpt>
      <trkpt lat="44.45654" lon="6.52185">
        <ele>2320</ele>
        <time>2021-02-21T06:20:30Z</time>
      </trkpt>
      <trkpt lat="44.45654" lon="6.52184">
        <ele>2320</ele>
        <time>2021-02-21T06:20:31Z</time>
      </trkpt>
      <trkpt lat="44.45654" lon="6.52184">
        <ele>2320</ele>
        <time>2021-02-21T06:20:32Z</time>
      </trkpt>
      <trkpt lat="44.45654" lon="6.52183">
        <ele>2320</ele>
        <time>2021-02-21T06:20:33Z</time>
      </trkpt>
      <trkpt lat="44.45654" lon="6.52182">
        <ele>2321</ele>
        <time>2021-02-21T06:20:34Z</time>
      </trkpt>
      <trkpt lat="44.45654" lon="6.52182">
        <ele>2321</ele>
        <time>2021-02-21T06:20:35Z</time>
      </trkpt>
      <trkpt lat="44.45653" lon="6.52182">
        <ele>2321</ele>
        <time>2021-02-21T06:20:36Z</time>
      </trkpt>
      <trkpt lat="44.45652" lon="6.52183">
        <ele>2321</ele>
        <time>2021-02-21T06:20:37Z</time>
      </trkpt>
      <trkpt lat="44.45651" lon="6.52185">
        <ele>2321</ele>
        <time>2021-02-21T06:20:38Z</time>
      </trkpt>
      <trkpt lat="44.4565" lon="6.52188">
        <ele>2322</ele>
        <time>2021-02-21T06:20:39Z</time>
      </trkpt>
      <trkpt lat="44.4565" lon="6.52188">
        <ele>2322</ele>
        <time>2021-02-21T06:20:40Z</time>
      </trkpt>
      <trkpt lat="44.4565" lon="6.52188">
        <ele>2325</ele>
        <time>2021-02-21T06:20:41Z</time>
      </trkpt>
      <trkpt lat="44.4565" lon="6.52188">
        <ele>2326</ele>
        <time>2021-02-21T06:20:42Z</time>
      </trkpt>
      <trkpt lat="44.4565" lon="6.52188">
        <ele>2327</ele>
        <time>2021-02-21T06:20:43Z</time>
      </trkpt>
      <trkpt lat="44.4565" lon="6.52189">
        <ele>2327</ele>
        <time>2021-02-21T06:20:44Z</time>
      </trkpt>
      <trkpt lat="44.45651" lon="6.52188">
        <ele>2327</ele>
        <time>2021-02-21T06:20:45Z</time>
      </trkpt>
      <trkpt lat="44.45652" lon="6.52187">
        <ele>2327</ele>
        <time>2021-02-21T06:20:46Z</time>
      </trkpt>
      <trkpt lat="44.45651" lon="6.52187">
        <ele>2328</ele>
        <time>2021-02-21T06:20:47Z</time>
      </trkpt>
      <trkpt lat="44.45651" lon="6.52188">
        <ele>2328</ele>
        <time>2021-02-21T06:20:48Z</time>
      </trkpt>
      <trkpt lat="44.45651" lon="6.52188">
        <ele>2328</ele>
        <time>2021-02-21T06:20:49Z</time>
      </trkpt>
      <trkpt lat="44.45651" lon="6.5219">
        <ele>2329</ele>
        <time>2021-02-21T06:20:50Z</time>
      </trkpt>
      <trkpt lat="44.45651" lon="6.5219">
        <ele>2329</ele>
        <time>2021-02-21T06:20:51Z</time>
      </trkpt>
      <trkpt lat="44.45651" lon="6.5219">
        <ele>2329</ele>
        <time>2021-02-21T06:20:52Z</time>
      </trkpt>
      <trkpt lat="44.45651" lon="6.5219">
        <ele>2329</ele>
        <time>2021-02-21T06:20:53Z</time>
      </trkpt>
      <trkpt lat="44.45651" lon="6.5219">
        <ele>2329</ele>
        <time>2021-02-21T06:20:54Z</time>
      </trkpt>
      <trkpt lat="44.45651" lon="6.5219">
        <ele>2329</ele>
        <time>2021-02-21T06:20:55Z</time>
      </trkpt>
      <trkpt lat="44.45651" lon="6.5219">
        <ele>2330</ele>
        <time>2021-02-21T06:20:56Z</time>
      </trkpt>
      <trkpt lat="44.45651" lon="6.5219">
        <ele>2330</ele>
        <time>2021-02-21T06:20:57Z</time>
      </trkpt>
      <trkpt lat="44.45651" lon="6.5219">
        <ele>2330</ele>
        <time>2021-02-21T06:20:58Z</time>
      </trkpt>
      <trkpt lat="44.45651" lon="6.5219">
        <ele>2330</ele>
        <time>2021-02-21T06:20:59Z</time>
      </trkpt>
      <trkpt lat="44.45651" lon="6.5219">
        <ele>2330</ele>
        <time>2021-02-21T06:21:00Z</time>
      </trkpt>
      <trkpt lat="44.45651" lon="6.5219">
        <ele>2330</ele>
        <time>2021-02-21T06:21:01Z</time>
      </trkpt>
      <trkpt lat="44.45649" lon="6.52198">
        <ele>2332</ele>
        <time>2021-02-21T06:21:02Z</time>
      </trkpt>
      <trkpt lat="44.4565" lon="6.52198">
        <ele>2333</ele>
        <time>2021-02-21T06:21:03Z</time>
      </trkpt>
      <trkpt lat="44.45651" lon="6.52198">
        <ele>2333</ele>
        <time>2021-02-21T06:21:04Z</time>
      </trkpt>
      <trkpt lat="44.45652" lon="6.52197">
        <ele>2333</ele>
        <time>2021-02-21T06:21:05Z</time>
      </trkpt>
      <trkpt lat="44.45653" lon="6.52197">
        <ele>2333</ele>
        <time>2021-02-21T06:21:06Z</time>
      </trkpt>
      <trkpt lat="44.45653" lon="6.52196">
        <ele>2333</ele>
        <time>2021-02-21T06:21:07Z</time>
      </trkpt>
      <trkpt lat="44.45654" lon="6.52195">
        <ele>2333</ele>
        <time>2021-02-21T06:21:08Z</time>
      </trkpt>
      <trkpt lat="44.45654" lon="6.52194">
        <ele>2333</ele>
        <time>2021-02-21T06:21:09Z</time>
      </trkpt>
      <trkpt lat="44.45654" lon="6.52193">
        <ele>2333</ele>
        <time>2021-02-21T06:21:10Z</time>
      </trkpt>
      <trkpt lat="44.45654" lon="6.52193">
        <ele>2334</ele>
        <time>2021-02-21T06:21:11Z</time>
      </trkpt>
      <trkpt lat="44.45654" lon="6.52192">
        <ele>2334</ele>
        <time>2021-02-21T06:21:12Z</time>
      </trkpt>
      <trkpt lat="44.45654" lon="6.52191">
        <ele>2333</ele>
        <time>2021-02-21T06:21:13Z</time>
      </trkpt>
      <trkpt lat="44.45654" lon="6.52191">
        <ele>2333</ele>
        <time>2021-02-21T06:21:14Z</time>
      </trkpt>
      <trkpt lat="44.45654" lon="6.52189">
        <ele>2333</ele>
        <time>2021-02-21T06:21:15Z</time>
      </trkpt>
      <trkpt lat="44.45653" lon="6.52189">
        <ele>2333</ele>
        <time>2021-02-21T06:21:16Z</time>
      </trkpt>
      <trkpt lat="44.45652" lon="6.52189">
        <ele>2333</ele>
        <time>2021-02-21T06:21:17Z</time>
      </trkpt>
      <trkpt lat="44.45652" lon="6.5219">
        <ele>2333</ele>
        <time>2021-02-21T06:21:18Z</time>
      </trkpt>
      <trkpt lat="44.4565" lon="6.52192">
        <ele>2333</ele>
        <time>2021-02-21T06:21:19Z</time>
      </trkpt>
      <trkpt lat="44.45648" lon="6.52192">
        <ele>2335</ele>
        <time>2021-02-21T06:21:20Z</time>
      </trkpt>
      <trkpt lat="44.45646" lon="6.52193">
        <ele>2336</ele>
        <time>2021-02-21T06:21:21Z</time>
      </trkpt>
      <trkpt lat="44.45645" lon="6.52192">
        <ele>2336</ele>
        <time>2021-02-21T06:21:22Z</time>
      </trkpt>
      <trkpt lat="44.45644" lon="6.52193">
        <ele>2337</ele>
        <time>2021-02-21T06:21:23Z</time>
      </trkpt>
      <trkpt lat="44.45643" lon="6.52195">
        <ele>2339</ele>
        <time>2021-02-21T06:21:24Z</time>
      </trkpt>
      <trkpt lat="44.45643" lon="6.52196">
        <ele>2340</ele>
        <time>2021-02-21T06:21:25Z</time>
      </trkpt>
      <trkpt lat="44.45642" lon="6.52197">
        <ele>2340</ele>
        <time>2021-02-21T06:21:26Z</time>
      </trkpt>
      <trkpt lat="44.45642" lon="6.52196">
        <ele>2341</ele>
        <time>2021-02-21T06:21:27Z</time>
      </trkpt>
      <trkpt lat="44.45641" lon="6.52196">
        <ele>2341</ele>
        <time>2021-02-21T06:21:28Z</time>
      </trkpt>
      <trkpt lat="44.45642" lon="6.52193">
        <ele>2341</ele>
        <time>2021-02-21T06:21:29Z</time>
      </trkpt>
      <trkpt lat="44.45642" lon="6.52192">
        <ele>2342</ele>
        <time>2021-02-21T06:21:30Z</time>
      </trkpt>
      <trkpt lat="44.45642" lon="6.52192">
        <ele>2342</ele>
        <time>2021-02-21T06:21:31Z</time>
      </trkpt>
      <trkpt lat="44.45642" lon="6.52191">
        <ele>2342</ele>
        <time>2021-02-21T06:21:32Z</time>
      </trkpt>
      <trkpt lat="44.45643" lon="6.5219">
        <ele>2342</ele>
        <time>2021-02-21T06:21:33Z</time>
      </trkpt>
      <trkpt lat="44.45643" lon="6.52188">
        <ele>2342</ele>
        <time>2021-02-21T06:21:34Z</time>
      </trkpt>
      <trkpt lat="44.45643" lon="6.52187">
        <ele>2343</ele>
        <time>2021-02-21T06:21:35Z</time>
      </trkpt>
      <trkpt lat="44.45643" lon="6.52186">
        <ele>2343</ele>
        <time>2021-02-21T06:21:36Z</time>
      </trkpt>
      <trkpt lat="44.45643" lon="6.52185">
        <ele>2343</ele>
        <time>2021-02-21T06:21:37Z</time>
      </trkpt>
      <trkpt lat="44.45643" lon="6.52184">
        <ele>2343</ele>
        <time>2021-02-21T06:21:38Z</time>
      </trkpt>
      <trkpt lat="44.45643" lon="6.52182">
        <ele>2343</ele>
        <time>2021-02-21T06:21:39Z</time>
      </trkpt>
      <trkpt lat="44.45643" lon="6.5218">
        <ele>2343</ele>
        <time>2021-02-21T06:21:40Z</time>
      </trkpt>
      <trkpt lat="44.45643" lon="6.52179">
        <ele>2343</ele>
        <time>2021-02-21T06:21:41Z</time>
      </trkpt>
      <trkpt lat="44.45644" lon="6.52179">
        <ele>2344</ele>
        <time>2021-02-21T06:21:42Z</time>
      </trkpt>
      <trkpt lat="44.45645" lon="6.52178">
        <ele>2344</ele>
        <time>2021-02-21T06:21:43Z</time>
      </trkpt>
      <trkpt lat="44.45645" lon="6.52177">
        <ele>2344</ele>
        <time>2021-02-21T06:21:44Z</time>
      </trkpt>
      <trkpt lat="44.45645" lon="6.52176">
        <ele>2344</ele>
        <time>2021-02-21T06:21:45Z</time>
      </trkpt>
      <trkpt lat="44.45646" lon="6.52177">
        <ele>2344</ele>
        <time>2021-02-21T06:21:46Z</time>
      </trkpt>
      <trkpt lat="44.45646" lon="6.52177">
        <ele>2344</ele>
        <time>2021-02-21T06:21:47Z</time>
      </trkpt>
      <trkpt lat="44.45646" lon="6.52176">
        <ele>2344</ele>
        <time>2021-02-21T06:21:48Z</time>
      </trkpt>
      <trkpt lat="44.45647" lon="6.52175">
        <ele>2344</ele>
        <time>2021-02-21T06:21:49Z</time>
      </trkpt>
      <trkpt lat="44.45647" lon="6.52175">
        <ele>2344</ele>
        <time>2021-02-21T06:21:50Z</time>
      </trkpt>
      <trkpt lat="44.45647" lon="6.52175">
        <ele>2344</ele>
        <time>2021-02-21T06:21:51Z</time>
      </trkpt>
      <trkpt lat="44.45647" lon="6.52176">
        <ele>2344</ele>
        <time>2021-02-21T06:21:52Z</time>
      </trkpt>
      <trkpt lat="44.45646" lon="6.52176">
        <ele>2344</ele>
        <time>2021-02-21T06:21:53Z</time>
      </trkpt>
      <trkpt lat="44.45646" lon="6.52176">
        <ele>2344</ele>
        <time>2021-02-21T06:21:54Z</time>
      </trkpt>
      <trkpt lat="44.45646" lon="6.52177">
        <ele>2344</ele>
        <time>2021-02-21T06:21:55Z</time>
      </trkpt>
      <trkpt lat="44.45645" lon="6.52176">
        <ele>2345</ele>
        <time>2021-02-21T06:21:56Z</time>
      </trkpt>
      <trkpt lat="44.45645" lon="6.52175">
        <ele>2345</ele>
        <time>2021-02-21T06:21:57Z</time>
      </trkpt>
      <trkpt lat="44.45645" lon="6.52174">
        <ele>2345</ele>
        <time>2021-02-21T06:21:58Z</time>
      </trkpt>
      <trkpt lat="44.45644" lon="6.52173">
        <ele>2345</ele>
        <time>2021-02-21T06:21:59Z</time>
      </trkpt>
      <trkpt lat="44.45644" lon="6.52173">
        <ele>2345</ele>
        <time>2021-02-21T06:22:00Z</time>
      </trkpt>
      <trkpt lat="44.45644" lon="6.5217">
        <ele>2345</ele>
        <time>2021-02-21T06:22:01Z</time>
      </trkpt>
      <trkpt lat="44.45643" lon="6.5217">
        <ele>2345</ele>
        <time>2021-02-21T06:22:02Z</time>
      </trkpt>
      <trkpt lat="44.45643" lon="6.5217">
        <ele>2346</ele>
        <time>2021-02-21T06:22:03Z</time>
      </trkpt>
      <trkpt lat="44.45642" lon="6.5217">
        <ele>2346</ele>
        <time>2021-02-21T06:22:04Z</time>
      </trkpt>
      <trkpt lat="44.45641" lon="6.5217">
        <ele>2346</ele>
        <time>2021-02-21T06:22:05Z</time>
      </trkpt>
      <trkpt lat="44.45641" lon="6.52171">
        <ele>2346</ele>
        <time>2021-02-21T06:22:06Z</time>
      </trkpt>
      <trkpt lat="44.4564" lon="6.52171">
        <ele>2346</ele>
        <time>2021-02-21T06:22:07Z</time>
      </trkpt>
      <trkpt lat="44.45639" lon="6.52171">
        <ele>2347</ele>
        <time>2021-02-21T06:22:08Z</time>
      </trkpt>
      <trkpt lat="44.45638" lon="6.52171">
        <ele>2347</ele>
        <time>2021-02-21T06:22:09Z</time>
      </trkpt>
      <trkpt lat="44.45637" lon="6.52172">
        <ele>2347</ele>
        <time>2021-02-21T06:22:10Z</time>
      </trkpt>
      <trkpt lat="44.45636" lon="6.52173">
        <ele>2348</ele>
        <time>2021-02-21T06:22:11Z</time>
      </trkpt>
      <trkpt lat="44.45635" lon="6.52173">
        <ele>2349</ele>
        <time>2021-02-21T06:22:12Z</time>
      </trkpt>
      <trkpt lat="44.45634" lon="6.52174">
        <ele>2349</ele>
        <time>2021-02-21T06:22:13Z</time>
      </trkpt>
      <trkpt lat="44.45634" lon="6.52175">
        <ele>2349</ele>
        <time>2021-02-21T06:22:14Z</time>
      </trkpt>
      <trkpt lat="44.45634" lon="6.52176">
        <ele>2349</ele>
        <time>2021-02-21T06:22:15Z</time>
      </trkpt>
      <trkpt lat="44.45633" lon="6.52176">
        <ele>2349</ele>
        <time>2021-02-21T06:22:16Z</time>
      </trkpt>
      <trkpt lat="44.45632" lon="6.52176">
        <ele>2350</ele>
        <time>2021-02-21T06:22:17Z</time>
      </trkpt>
      <trkpt lat="44.45632" lon="6.52177">
        <ele>2351</ele>
        <time>2021-02-21T06:22:18Z</time>
      </trkpt>
      <trkpt lat="44.45632" lon="6.52178">
        <ele>2351</ele>
        <time>2021-02-21T06:22:19Z</time>
      </trkpt>
      <trkpt lat="44.45632" lon="6.52178">
        <ele>2351</ele>
        <time>2021-02-21T06:22:20Z</time>
      </trkpt>
      <trkpt lat="44.45631" lon="6.52178">
        <ele>2351</ele>
        <time>2021-02-21T06:22:21Z</time>
      </trkpt>
      <trkpt lat="44.45631" lon="6.52179">
        <ele>2351</ele>
        <time>2021-02-21T06:22:22Z</time>
      </trkpt>
      <trkpt lat="44.4563" lon="6.52179">
        <ele>2351</ele>
        <time>2021-02-21T06:22:23Z</time>
      </trkpt>
      <trkpt lat="44.4563" lon="6.52178">
        <ele>2352</ele>
        <time>2021-02-21T06:22:24Z</time>
      </trkpt>
      <trkpt lat="44.4563" lon="6.52179">
        <ele>2352</ele>
        <time>2021-02-21T06:22:25Z</time>
      </trkpt>
      <trkpt lat="44.4563" lon="6.52179">
        <ele>2352</ele>
        <time>2021-02-21T06:22:26Z</time>
      </trkpt>
      <trkpt lat="44.4563" lon="6.52179">
        <ele>2352</ele>
        <time>2021-02-21T06:22:27Z</time>
      </trkpt>
      <trkpt lat="44.4563" lon="6.52179">
        <ele>2352</ele>
        <time>2021-02-21T06:22:28Z</time>
      </trkpt>
      <trkpt lat="44.4563" lon="6.52179">
        <ele>2352</ele>
        <time>2021-02-21T06:22:29Z</time>
      </trkpt>
      <trkpt lat="44.4563" lon="6.52179">
        <ele>2353</ele>
        <time>2021-02-21T06:22:30Z</time>
      </trkpt>
      <trkpt lat="44.4563" lon="6.52179">
        <ele>2353</ele>
        <time>2021-02-21T06:22:31Z</time>
      </trkpt>
      <trkpt lat="44.4563" lon="6.52179">
        <ele>2353</ele>
        <time>2021-02-21T06:22:32Z</time>
      </trkpt>
      <trkpt lat="44.4563" lon="6.52179">
        <ele>2353</ele>
        <time>2021-02-21T06:22:33Z</time>
      </trkpt>
      <trkpt lat="44.4563" lon="6.52179">
        <ele>2353</ele>
        <time>2021-02-21T06:22:34Z</time>
      </trkpt>
      <trkpt lat="44.4563" lon="6.52179">
        <ele>2353</ele>
        <time>2021-02-21T06:22:35Z</time>
      </trkpt>
      <trkpt lat="44.4563" lon="6.52179">
        <ele>2353</ele>
        <time>2021-02-21T06:22:36Z</time>
      </trkpt>
      <trkpt lat="44.4563" lon="6.52179">
        <ele>2353</ele>
        <time>2021-02-21T06:22:37Z</time>
      </trkpt>
      <trkpt lat="44.4563" lon="6.52179">
        <ele>2353</ele>
        <time>2021-02-21T06:22:38Z</time>
      </trkpt>
      <trkpt lat="44.4563" lon="6.52179">
        <ele>2353</ele>
        <time>2021-02-21T06:22:39Z</time>
      </trkpt>
      <trkpt lat="44.4563" lon="6.52179">
        <ele>2353</ele>
        <time>2021-02-21T06:22:40Z</time>
      </trkpt>
      <trkpt lat="44.45626" lon="6.52177">
        <ele>2353</ele>
        <time>2021-02-21T06:22:41Z</time>
      </trkpt>
      <trkpt lat="44.45626" lon="6.52176">
        <ele>2352</ele>
        <time>2021-02-21T06:22:42Z</time>
      </trkpt>
      <trkpt lat="44.45627" lon="6.52176">
        <ele>2352</ele>
        <time>2021-02-21T06:22:43Z</time>
      </trkpt>
      <trkpt lat="44.45627" lon="6.52175">
        <ele>2352</ele>
        <time>2021-02-21T06:22:44Z</time>
      </trkpt>
      <trkpt lat="44.45627" lon="6.52175">
        <ele>2352</ele>
        <time>2021-02-21T06:22:45Z</time>
      </trkpt>
      <trkpt lat="44.45629" lon="6.52173">
        <ele>2352</ele>
        <time>2021-02-21T06:22:46Z</time>
      </trkpt>
      <trkpt lat="44.45629" lon="6.52171">
        <ele>2352</ele>
        <time>2021-02-21T06:22:47Z</time>
      </trkpt>
      <trkpt lat="44.45629" lon="6.5217">
        <ele>2352</ele>
        <time>2021-02-21T06:22:48Z</time>
      </trkpt>
      <trkpt lat="44.45628" lon="6.52169">
        <ele>2352</ele>
        <time>2021-02-21T06:22:49Z</time>
      </trkpt>
      <trkpt lat="44.45628" lon="6.52169">
        <ele>2352</ele>
        <time>2021-02-21T06:22:50Z</time>
      </trkpt>
      <trkpt lat="44.45629" lon="6.52168">
        <ele>2352</ele>
        <time>2021-02-21T06:22:51Z</time>
      </trkpt>
      <trkpt lat="44.45629" lon="6.52168">
        <ele>2352</ele>
        <time>2021-02-21T06:22:52Z</time>
      </trkpt>
      <trkpt lat="44.4563" lon="6.52167">
        <ele>2351</ele>
        <time>2021-02-21T06:22:53Z</time>
      </trkpt>
      <trkpt lat="44.4563" lon="6.52166">
        <ele>2351</ele>
        <time>2021-02-21T06:22:54Z</time>
      </trkpt>
      <trkpt lat="44.4563" lon="6.52165">
        <ele>2351</ele>
        <time>2021-02-21T06:22:55Z</time>
      </trkpt>
      <trkpt lat="44.45631" lon="6.52165">
        <ele>2351</ele>
        <time>2021-02-21T06:22:56Z</time>
      </trkpt>
      <trkpt lat="44.45631" lon="6.52164">
        <ele>2351</ele>
        <time>2021-02-21T06:22:57Z</time>
      </trkpt>
      <trkpt lat="44.45631" lon="6.52164">
        <ele>2351</ele>
        <time>2021-02-21T06:22:58Z</time>
      </trkpt>
      <trkpt lat="44.45632" lon="6.52164">
        <ele>2351</ele>
        <time>2021-02-21T06:22:59Z</time>
      </trkpt>
      <trkpt lat="44.45632" lon="6.52164">
        <ele>2351</ele>
        <time>2021-02-21T06:23:00Z</time>
      </trkpt>
      <trkpt lat="44.45632" lon="6.52164">
        <ele>2351</ele>
        <time>2021-02-21T06:23:01Z</time>
      </trkpt>
      <trkpt lat="44.45633" lon="6.52164">
        <ele>2351</ele>
        <time>2021-02-21T06:23:02Z</time>
      </trkpt>
      <trkpt lat="44.45632" lon="6.52164">
        <ele>2351</ele>
        <time>2021-02-21T06:23:03Z</time>
      </trkpt>
      <trkpt lat="44.45632" lon="6.52164">
        <ele>2351</ele>
        <time>2021-02-21T06:23:04Z</time>
      </trkpt>
      <trkpt lat="44.45631" lon="6.52164">
        <ele>2351</ele>
        <time>2021-02-21T06:23:05Z</time>
      </trkpt>
      <trkpt lat="44.4563" lon="6.52164">
        <ele>2351</ele>
        <time>2021-02-21T06:23:06Z</time>
      </trkpt>
      <trkpt lat="44.45629" lon="6.52164">
        <ele>2351</ele>
        <time>2021-02-21T06:23:07Z</time>
      </trkpt>
      <trkpt lat="44.45628" lon="6.52164">
        <ele>2351</ele>
        <time>2021-02-21T06:23:08Z</time>
      </trkpt>
      <trkpt lat="44.45628" lon="6.52164">
        <ele>2351</ele>
        <time>2021-02-21T06:23:09Z</time>
      </trkpt>
      <trkpt lat="44.45628" lon="6.52164">
        <ele>2351</ele>
        <time>2021-02-21T06:23:10Z</time>
      </trkpt>
      <trkpt lat="44.45627" lon="6.52164">
        <ele>2351</ele>
        <time>2021-02-21T06:23:11Z</time>
      </trkpt>
      <trkpt lat="44.45627" lon="6.52165">
        <ele>2351</ele>
        <time>2021-02-21T06:23:12Z</time>
      </trkpt>
      <trkpt lat="44.45627" lon="6.52165">
        <ele>2351</ele>
        <time>2021-02-21T06:23:13Z</time>
      </trkpt>
      <trkpt lat="44.45627" lon="6.52165">
        <ele>2351</ele>
        <time>2021-02-21T06:23:14Z</time>
      </trkpt>
      <trkpt lat="44.45626" lon="6.52164">
        <ele>2351</ele>
        <time>2021-02-21T06:23:15Z</time>
      </trkpt>
      <trkpt lat="44.45626" lon="6.52164">
        <ele>2351</ele>
        <time>2021-02-21T06:23:16Z</time>
      </trkpt>
      <trkpt lat="44.45625" lon="6.52164">
        <ele>2351</ele>
        <time>2021-02-21T06:23:17Z</time>
      </trkpt>
      <trkpt lat="44.45625" lon="6.52164">
        <ele>2351</ele>
        <time>2021-02-21T06:23:18Z</time>
      </trkpt>
      <trkpt lat="44.45625" lon="6.52163">
        <ele>2351</ele>
        <time>2021-02-21T06:23:19Z</time>
      </trkpt>
      <trkpt lat="44.45625" lon="6.52162">
        <ele>2351</ele>
        <time>2021-02-21T06:23:20Z</time>
      </trkpt>
      <trkpt lat="44.45625" lon="6.52162">
        <ele>2351</ele>
        <time>2021-02-21T06:23:21Z</time>
      </trkpt>
      <trkpt lat="44.45624" lon="6.52161">
        <ele>2351</ele>
        <time>2021-02-21T06:23:22Z</time>
      </trkpt>
      <trkpt lat="44.45624" lon="6.52161">
        <ele>2351</ele>
        <time>2021-02-21T06:23:23Z</time>
      </trkpt>
      <trkpt lat="44.45623" lon="6.52162">
        <ele>2351</ele>
        <time>2021-02-21T06:23:24Z</time>
      </trkpt>
      <trkpt lat="44.45622" lon="6.5216">
        <ele>2351</ele>
        <time>2021-02-21T06:23:25Z</time>
      </trkpt>
      <trkpt lat="44.45621" lon="6.52158">
        <ele>2350</ele>
        <time>2021-02-21T06:23:26Z</time>
      </trkpt>
      <trkpt lat="44.45621" lon="6.52159">
        <ele>2350</ele>
        <time>2021-02-21T06:23:27Z</time>
      </trkpt>
      <trkpt lat="44.45621" lon="6.52159">
        <ele>2350</ele>
        <time>2021-02-21T06:23:28Z</time>
      </trkpt>
      <trkpt lat="44.45622" lon="6.52164">
        <ele>2350</ele>
        <time>2021-02-21T06:23:29Z</time>
      </trkpt>
      <trkpt lat="44.45623" lon="6.52164">
        <ele>2350</ele>
        <time>2021-02-21T06:23:30Z</time>
      </trkpt>
      <trkpt lat="44.45623" lon="6.52164">
        <ele>2351</ele>
        <time>2021-02-21T06:23:31Z</time>
      </trkpt>
      <trkpt lat="44.45623" lon="6.52163">
        <ele>2351</ele>
        <time>2021-02-21T06:23:32Z</time>
      </trkpt>
      <trkpt lat="44.45624" lon="6.52163">
        <ele>2351</ele>
        <time>2021-02-21T06:23:33Z</time>
      </trkpt>
      <trkpt lat="44.45624" lon="6.52162">
        <ele>2351</ele>
        <time>2021-02-21T06:23:34Z</time>
      </trkpt>
      <trkpt lat="44.45624" lon="6.52163">
        <ele>2351</ele>
        <time>2021-02-21T06:23:35Z</time>
      </trkpt>
      <trkpt lat="44.45623" lon="6.52163">
        <ele>2351</ele>
        <time>2021-02-21T06:23:36Z</time>
      </trkpt>
      <trkpt lat="44.45623" lon="6.52165">
        <ele>2351</ele>
        <time>2021-02-21T06:23:37Z</time>
      </trkpt>
      <trkpt lat="44.45622" lon="6.52165">
        <ele>2351</ele>
        <time>2021-02-21T06:23:38Z</time>
      </trkpt>
      <trkpt lat="44.45622" lon="6.52164">
        <ele>2351</ele>
        <time>2021-02-21T06:23:39Z</time>
      </trkpt>
      <trkpt lat="44.45622" lon="6.52163">
        <ele>2351</ele>
        <time>2021-02-21T06:23:40Z</time>
      </trkpt>
      <trkpt lat="44.45622" lon="6.52162">
        <ele>2351</ele>
        <time>2021-02-21T06:23:41Z</time>
      </trkpt>
      <trkpt lat="44.45623" lon="6.52162">
        <ele>2351</ele>
        <time>2021-02-21T06:23:42Z</time>
      </trkpt>
      <trkpt lat="44.45623" lon="6.52163">
        <ele>2351</ele>
        <time>2021-02-21T06:23:43Z</time>
      </trkpt>
      <trkpt lat="44.45623" lon="6.52163">
        <ele>2351</ele>
        <time>2021-02-21T06:23:44Z</time>
      </trkpt>
      <trkpt lat="44.45623" lon="6.52162">
        <ele>2351</ele>
        <time>2021-02-21T06:23:45Z</time>
      </trkpt>
      <trkpt lat="44.45623" lon="6.52163">
        <ele>2351</ele>
        <time>2021-02-21T06:23:46Z</time>
      </trkpt>
      <trkpt lat="44.45624" lon="6.52163">
        <ele>2351</ele>
        <time>2021-02-21T06:23:47Z</time>
      </trkpt>
      <trkpt lat="44.45624" lon="6.52163">
        <ele>2351</ele>
        <time>2021-02-21T06:23:48Z</time>
      </trkpt>
      <trkpt lat="44.45623" lon="6.52164">
        <ele>2351</ele>
        <time>2021-02-21T06:23:49Z</time>
      </trkpt>
      <trkpt lat="44.45623" lon="6.52165">
        <ele>2351</ele>
        <time>2021-02-21T06:23:50Z</time>
      </trkpt>
      <trkpt lat="44.45624" lon="6.52165">
        <ele>2351</ele>
        <time>2021-02-21T06:23:51Z</time>
      </trkpt>
      <trkpt lat="44.45624" lon="6.52164">
        <ele>2351</ele>
        <time>2021-02-21T06:23:52Z</time>
      </trkpt>
      <trkpt lat="44.45625" lon="6.52163">
        <ele>2350</ele>
        <time>2021-02-21T06:23:53Z</time>
      </trkpt>
      <trkpt lat="44.45624" lon="6.52165">
        <ele>2350</ele>
        <time>2021-02-21T06:23:54Z</time>
      </trkpt>
      <trkpt lat="44.45624" lon="6.52165">
        <ele>2350</ele>
        <time>2021-02-21T06:23:55Z</time>
      </trkpt>
      <trkpt lat="44.45624" lon="6.52166">
        <ele>2350</ele>
        <time>2021-02-21T06:23:56Z</time>
      </trkpt>
      <trkpt lat="44.45625" lon="6.52167">
        <ele>2350</ele>
        <time>2021-02-21T06:23:57Z</time>
      </trkpt>
      <trkpt lat="44.45624" lon="6.52169">
        <ele>2350</ele>
        <time>2021-02-21T06:23:58Z</time>
      </trkpt>
      <trkpt lat="44.45624" lon="6.52169">
        <ele>2350</ele>
        <time>2021-02-21T06:23:59Z</time>
      </trkpt>
      <trkpt lat="44.45625" lon="6.52167">
        <ele>2350</ele>
        <time>2021-02-21T06:24:00Z</time>
      </trkpt>
      <trkpt lat="44.45625" lon="6.52167">
        <ele>2350</ele>
        <time>2021-02-21T06:24:01Z</time>
      </trkpt>
      <trkpt lat="44.45627" lon="6.52165">
        <ele>2350</ele>
        <time>2021-02-21T06:24:02Z</time>
      </trkpt>
      <trkpt lat="44.45627" lon="6.52164">
        <ele>2350</ele>
        <time>2021-02-21T06:24:03Z</time>
      </trkpt>
      <trkpt lat="44.45627" lon="6.52164">
        <ele>2350</ele>
        <time>2021-02-21T06:24:04Z</time>
      </trkpt>
      <trkpt lat="44.45626" lon="6.52165">
        <ele>2350</ele>
        <time>2021-02-21T06:24:05Z</time>
      </trkpt>
      <trkpt lat="44.45626" lon="6.52166">
        <ele>2350</ele>
        <time>2021-02-21T06:24:06Z</time>
      </trkpt>
      <trkpt lat="44.45625" lon="6.52166">
        <ele>2351</ele>
        <time>2021-02-21T06:24:07Z</time>
      </trkpt>
      <trkpt lat="44.45624" lon="6.52166">
        <ele>2351</ele>
        <time>2021-02-21T06:24:08Z</time>
      </trkpt>
      <trkpt lat="44.45624" lon="6.52166">
        <ele>2351</ele>
        <time>2021-02-21T06:24:09Z</time>
      </trkpt>
      <trkpt lat="44.45624" lon="6.52167">
        <ele>2351</ele>
        <time>2021-02-21T06:24:10Z</time>
      </trkpt>
      <trkpt lat="44.45623" lon="6.52168">
        <ele>2356</ele>
        <time>2021-02-21T06:24:11Z</time>
      </trkpt>
      <trkpt lat="44.45623" lon="6.52169">
        <ele>2357</ele>
        <time>2021-02-21T06:24:12Z</time>
      </trkpt>
      <trkpt lat="44.45623" lon="6.52169">
        <ele>2358</ele>
        <time>2021-02-21T06:24:13Z</time>
      </trkpt>
      <trkpt lat="44.45623" lon="6.52169">
        <ele>2359</ele>
        <time>2021-02-21T06:24:14Z</time>
      </trkpt>
      <trkpt lat="44.45623" lon="6.52169">
        <ele>2359</ele>
        <time>2021-02-21T06:24:15Z</time>
      </trkpt>
      <trkpt lat="44.45623" lon="6.52169">
        <ele>2359</ele>
        <time>2021-02-21T06:24:16Z</time>
      </trkpt>
      <trkpt lat="44.4562" lon="6.52169">
        <ele>2360</ele>
        <time>2021-02-21T06:24:17Z</time>
      </trkpt>
      <trkpt lat="44.45619" lon="6.52169">
        <ele>2360</ele>
        <time>2021-02-21T06:24:18Z</time>
      </trkpt>
      <trkpt lat="44.45619" lon="6.52169">
        <ele>2361</ele>
        <time>2021-02-21T06:24:19Z</time>
      </trkpt>
      <trkpt lat="44.45618" lon="6.52169">
        <ele>2361</ele>
        <time>2021-02-21T06:24:20Z</time>
      </trkpt>
      <trkpt lat="44.45617" lon="6.52168">
        <ele>2361</ele>
        <time>2021-02-21T06:24:21Z</time>
      </trkpt>
      <trkpt lat="44.45616" lon="6.52168">
        <ele>2361</ele>
        <time>2021-02-21T06:24:22Z</time>
      </trkpt>
      <trkpt lat="44.45616" lon="6.52167">
        <ele>2362</ele>
        <time>2021-02-21T06:24:23Z</time>
      </trkpt>
      <trkpt lat="44.45615" lon="6.52167">
        <ele>2362</ele>
        <time>2021-02-21T06:24:24Z</time>
      </trkpt>
      <trkpt lat="44.45615" lon="6.52166">
        <ele>2363</ele>
        <time>2021-02-21T06:24:25Z</time>
      </trkpt>
      <trkpt lat="44.45614" lon="6.52166">
        <ele>2363</ele>
        <time>2021-02-21T06:24:26Z</time>
      </trkpt>
      <trkpt lat="44.45613" lon="6.52166">
        <ele>2364</ele>
        <time>2021-02-21T06:24:27Z</time>
      </trkpt>
      <trkpt lat="44.45613" lon="6.52166">
        <ele>2364</ele>
        <time>2021-02-21T06:24:28Z</time>
      </trkpt>
      <trkpt lat="44.45612" lon="6.52165">
        <ele>2364</ele>
        <time>2021-02-21T06:24:29Z</time>
      </trkpt>
      <trkpt lat="44.45612" lon="6.52165">
        <ele>2365</ele>
        <time>2021-02-21T06:24:30Z</time>
      </trkpt>
      <trkpt lat="44.45612" lon="6.52165">
        <ele>2366</ele>
        <time>2021-02-21T06:24:31Z</time>
      </trkpt>
      <trkpt lat="44.45611" lon="6.52165">
        <ele>2366</ele>
        <time>2021-02-21T06:24:32Z</time>
      </trkpt>
      <trkpt lat="44.4561" lon="6.52165">
        <ele>2367</ele>
        <time>2021-02-21T06:24:33Z</time>
      </trkpt>
      <trkpt lat="44.4561" lon="6.52165">
        <ele>2367</ele>
        <time>2021-02-21T06:24:34Z</time>
      </trkpt>
      <trkpt lat="44.4561" lon="6.52165">
        <ele>2367</ele>
        <time>2021-02-21T06:24:35Z</time>
      </trkpt>
      <trkpt lat="44.45609" lon="6.52164">
        <ele>2367</ele>
        <time>2021-02-21T06:24:36Z</time>
      </trkpt>
      <trkpt lat="44.45609" lon="6.52163">
        <ele>2368</ele>
        <time>2021-02-21T06:24:37Z</time>
      </trkpt>
      <trkpt lat="44.45609" lon="6.52163">
        <ele>2368</ele>
        <time>2021-02-21T06:24:38Z</time>
      </trkpt>
      <trkpt lat="44.45608" lon="6.52162">
        <ele>2369</ele>
        <time>2021-02-21T06:24:39Z</time>
      </trkpt>
      <trkpt lat="44.45608" lon="6.52161">
        <ele>2369</ele>
        <time>2021-02-21T06:24:40Z</time>
      </trkpt>
      <trkpt lat="44.45607" lon="6.52161">
        <ele>2369</ele>
        <time>2021-02-21T06:24:41Z</time>
      </trkpt>
      <trkpt lat="44.45607" lon="6.52161">
        <ele>2369</ele>
        <time>2021-02-21T06:24:42Z</time>
      </trkpt>
      <trkpt lat="44.45606" lon="6.52161">
        <ele>2369</ele>
        <time>2021-02-21T06:24:43Z</time>
      </trkpt>
      <trkpt lat="44.45606" lon="6.5216">
        <ele>2369</ele>
        <time>2021-02-21T06:24:44Z</time>
      </trkpt>
      <trkpt lat="44.45606" lon="6.52159">
        <ele>2370</ele>
        <time>2021-02-21T06:24:45Z</time>
      </trkpt>
      <trkpt lat="44.45606" lon="6.52159">
        <ele>2370</ele>
        <time>2021-02-21T06:24:46Z</time>
      </trkpt>
      <trkpt lat="44.45605" lon="6.52158">
        <ele>2371</ele>
        <time>2021-02-21T06:24:47Z</time>
      </trkpt>
      <trkpt lat="44.45605" lon="6.52158">
        <ele>2371</ele>
        <time>2021-02-21T06:24:48Z</time>
      </trkpt>
      <trkpt lat="44.45605" lon="6.52158">
        <ele>2371</ele>
        <time>2021-02-21T06:24:49Z</time>
      </trkpt>
      <trkpt lat="44.45605" lon="6.52158">
        <ele>2371</ele>
        <time>2021-02-21T06:24:50Z</time>
      </trkpt>
      <trkpt lat="44.45604" lon="6.52158">
        <ele>2371</ele>
        <time>2021-02-21T06:24:51Z</time>
      </trkpt>
      <trkpt lat="44.45603" lon="6.52159">
        <ele>2371</ele>
        <time>2021-02-21T06:24:52Z</time>
      </trkpt>
      <trkpt lat="44.45603" lon="6.52159">
        <ele>2371</ele>
        <time>2021-02-21T06:24:53Z</time>
      </trkpt>
      <trkpt lat="44.45602" lon="6.52159">
        <ele>2371</ele>
        <time>2021-02-21T06:24:54Z</time>
      </trkpt>
      <trkpt lat="44.45602" lon="6.52159">
        <ele>2371</ele>
        <time>2021-02-21T06:24:55Z</time>
      </trkpt>
      <trkpt lat="44.45602" lon="6.52158">
        <ele>2371</ele>
        <time>2021-02-21T06:24:56Z</time>
      </trkpt>
      <trkpt lat="44.45601" lon="6.52158">
        <ele>2371</ele>
        <time>2021-02-21T06:24:57Z</time>
      </trkpt>
      <trkpt lat="44.45601" lon="6.52158">
        <ele>2371</ele>
        <time>2021-02-21T06:24:58Z</time>
      </trkpt>
      <trkpt lat="44.45601" lon="6.52157">
        <ele>2371</ele>
        <time>2021-02-21T06:24:59Z</time>
      </trkpt>
      <trkpt lat="44.45601" lon="6.52157">
        <ele>2371</ele>
        <time>2021-02-21T06:25:00Z</time>
      </trkpt>
      <trkpt lat="44.45601" lon="6.52157">
        <ele>2371</ele>
        <time>2021-02-21T06:25:01Z</time>
      </trkpt>
      <trkpt lat="44.45601" lon="6.52157">
        <ele>2371</ele>
        <time>2021-02-21T06:25:02Z</time>
      </trkpt>
      <trkpt lat="44.45601" lon="6.52157">
        <ele>2371</ele>
        <time>2021-02-21T06:25:03Z</time>
      </trkpt>
      <trkpt lat="44.45601" lon="6.52157">
        <ele>2371</ele>
        <time>2021-02-21T06:25:04Z</time>
      </trkpt>
      <trkpt lat="44.45601" lon="6.52157">
        <ele>2371</ele>
        <time>2021-02-21T06:25:05Z</time>
      </trkpt>
      <trkpt lat="44.45601" lon="6.52157">
        <ele>2371</ele>
        <time>2021-02-21T06:25:06Z</time>
      </trkpt>
      <trkpt lat="44.45601" lon="6.52157">
        <ele>2371</ele>
        <time>2021-02-21T06:25:07Z</time>
      </trkpt>
      <trkpt lat="44.45601" lon="6.52157">
        <ele>2371</ele>
        <time>2021-02-21T06:25:08Z</time>
      </trkpt>
      <trkpt lat="44.45601" lon="6.52157">
        <ele>2371</ele>
        <time>2021-02-21T06:25:09Z</time>
      </trkpt>
      <trkpt lat="44.45601" lon="6.52157">
        <ele>2371</ele>
        <time>2021-02-21T06:25:10Z</time>
      </trkpt>
      <trkpt lat="44.45601" lon="6.52157">
        <ele>2371</ele>
        <time>2021-02-21T06:25:11Z</time>
      </trkpt>
      <trkpt lat="44.45601" lon="6.52157">
        <ele>2371</ele>
        <time>2021-02-21T06:25:12Z</time>
      </trkpt>
      <trkpt lat="44.45601" lon="6.52157">
        <ele>2371</ele>
        <time>2021-02-21T06:25:13Z</time>
      </trkpt>
      <trkpt lat="44.45601" lon="6.52157">
        <ele>2371</ele>
        <time>2021-02-21T06:25:14Z</time>
      </trkpt>
      <trkpt lat="44.45601" lon="6.52157">
        <ele>2371</ele>
        <time>2021-02-21T06:25:15Z</time>
      </trkpt>
      <trkpt lat="44.45601" lon="6.52157">
        <ele>2371</ele>
        <time>2021-02-21T06:25:16Z</time>
      </trkpt>
      <trkpt lat="44.45601" lon="6.52157">
        <ele>2371</ele>
        <time>2021-02-21T06:25:17Z</time>
      </trkpt>
      <trkpt lat="44.45601" lon="6.52157">
        <ele>2371</ele>
        <time>2021-02-21T06:25:18Z</time>
      </trkpt>
      <trkpt lat="44.45601" lon="6.52157">
        <ele>2371</ele>
        <time>2021-02-21T06:25:19Z</time>
      </trkpt>
      <trkpt lat="44.45601" lon="6.52157">
        <ele>2371</ele>
        <time>2021-02-21T06:25:20Z</time>
      </trkpt>
      <trkpt lat="44.45601" lon="6.52157">
        <ele>2371</ele>
        <time>2021-02-21T06:25:21Z</time>
      </trkpt>
      <trkpt lat="44.45601" lon="6.52157">
        <ele>2371</ele>
        <time>2021-02-21T06:25:22Z</time>
      </trkpt>
      <trkpt lat="44.45601" lon="6.52157">
        <ele>2371</ele>
        <time>2021-02-21T06:25:23Z</time>
      </trkpt>
      <trkpt lat="44.45601" lon="6.52157">
        <ele>2371</ele>
        <time>2021-02-21T06:25:24Z</time>
      </trkpt>
      <trkpt lat="44.45601" lon="6.52157">
        <ele>2371</ele>
        <time>2021-02-21T06:25:25Z</time>
      </trkpt>
      <trkpt lat="44.45601" lon="6.52157">
        <ele>2371</ele>
        <time>2021-02-21T06:25:26Z</time>
      </trkpt>
      <trkpt lat="44.45601" lon="6.52157">
        <ele>2371</ele>
        <time>2021-02-21T06:25:27Z</time>
      </trkpt>
      <trkpt lat="44.45601" lon="6.52157">
        <ele>2371</ele>
        <time>2021-02-21T06:25:28Z</time>
      </trkpt>
      <trkpt lat="44.45601" lon="6.52157">
        <ele>2371</ele>
        <time>2021-02-21T06:25:29Z</time>
      </trkpt>
      <trkpt lat="44.45601" lon="6.52157">
        <ele>2371</ele>
        <time>2021-02-21T06:25:30Z</time>
      </trkpt>
      <trkpt lat="44.45601" lon="6.52157">
        <ele>2371</ele>
        <time>2021-02-21T06:25:31Z</time>
      </trkpt>
      <trkpt lat="44.45601" lon="6.52157">
        <ele>2371</ele>
        <time>2021-02-21T06:25:32Z</time>
      </trkpt>
      <trkpt lat="44.45601" lon="6.52157">
        <ele>2371</ele>
        <time>2021-02-21T06:25:33Z</time>
      </trkpt>
      <trkpt lat="44.45601" lon="6.52157">
        <ele>2371</ele>
        <time>2021-02-21T06:25:34Z</time>
      </trkpt>
      <trkpt lat="44.45601" lon="6.52157">
        <ele>2371</ele>
        <time>2021-02-21T06:25:35Z</time>
      </trkpt>
      <trkpt lat="44.45601" lon="6.52157">
        <ele>2371</ele>
        <time>2021-02-21T06:25:36Z</time>
      </trkpt>
      <trkpt lat="44.45601" lon="6.52157">
        <ele>2371</ele>
        <time>2021-02-21T06:25:37Z</time>
      </trkpt>
      <trkpt lat="44.45601" lon="6.52157">
        <ele>2371</ele>
        <time>2021-02-21T06:25:38Z</time>
      </trkpt>
      <trkpt lat="44.45601" lon="6.52157">
        <ele>2371</ele>
        <time>2021-02-21T06:25:39Z</time>
      </trkpt>
      <trkpt lat="44.45601" lon="6.52157">
        <ele>2371</ele>
        <time>2021-02-21T06:25:40Z</time>
      </trkpt>
      <trkpt lat="44.45601" lon="6.52157">
        <ele>2371</ele>
        <time>2021-02-21T06:25:41Z</time>
      </trkpt>
      <trkpt lat="44.45601" lon="6.52157">
        <ele>2371</ele>
        <time>2021-02-21T06:25:42Z</time>
      </trkpt>
      <trkpt lat="44.45601" lon="6.52157">
        <ele>2371</ele>
        <time>2021-02-21T06:25:43Z</time>
      </trkpt>
      <trkpt lat="44.45601" lon="6.52157">
        <ele>2371</ele>
        <time>2021-02-21T06:25:44Z</time>
      </trkpt>
      <trkpt lat="44.45601" lon="6.52157">
        <ele>2371</ele>
        <time>2021-02-21T06:25:45Z</time>
      </trkpt>
      <trkpt lat="44.45601" lon="6.52157">
        <ele>2371</ele>
        <time>2021-02-21T06:25:46Z</time>
      </trkpt>
      <trkpt lat="44.45601" lon="6.52157">
        <ele>2371</ele>
        <time>2021-02-21T06:25:47Z</time>
      </trkpt>
      <trkpt lat="44.45601" lon="6.52157">
        <ele>2371</ele>
        <time>2021-02-21T06:25:48Z</time>
      </trkpt>
      <trkpt lat="44.45601" lon="6.52157">
        <ele>2371</ele>
        <time>2021-02-21T06:25:49Z</time>
      </trkpt>
      <trkpt lat="44.45601" lon="6.52157">
        <ele>2371</ele>
        <time>2021-02-21T06:25:50Z</time>
      </trkpt>
      <trkpt lat="44.45601" lon="6.52157">
        <ele>2371</ele>
        <time>2021-02-21T06:25:51Z</time>
      </trkpt>
      <trkpt lat="44.45601" lon="6.52157">
        <ele>2371</ele>
        <time>2021-02-21T06:25:52Z</time>
      </trkpt>
      <trkpt lat="44.45601" lon="6.52157">
        <ele>2371</ele>
        <time>2021-02-21T06:25:53Z</time>
      </trkpt>
      <trkpt lat="44.45601" lon="6.52157">
        <ele>2371</ele>
        <time>2021-02-21T06:25:54Z</time>
      </trkpt>
      <trkpt lat="44.45601" lon="6.52157">
        <ele>2371</ele>
        <time>2021-02-21T06:25:55Z</time>
      </trkpt>
      <trkpt lat="44.45601" lon="6.52157">
        <ele>2371</ele>
        <time>2021-02-21T06:25:56Z</time>
      </trkpt>
      <trkpt lat="44.45601" lon="6.52157">
        <ele>2371</ele>
        <time>2021-02-21T06:25:57Z</time>
      </trkpt>
      <trkpt lat="44.45601" lon="6.52157">
        <ele>2371</ele>
        <time>2021-02-21T06:25:58Z</time>
      </trkpt>
      <trkpt lat="44.45601" lon="6.52157">
        <ele>2371</ele>
        <time>2021-02-21T06:25:59Z</time>
      </trkpt>
      <trkpt lat="44.45601" lon="6.52157">
        <ele>2371</ele>
        <time>2021-02-21T06:26:00Z</time>
      </trkpt>
      <trkpt lat="44.45601" lon="6.52157">
        <ele>2371</ele>
        <time>2021-02-21T06:26:01Z</time>
      </trkpt>
      <trkpt lat="44.45601" lon="6.52157">
        <ele>2371</ele>
        <time>2021-02-21T06:26:02Z</time>
      </trkpt>
      <trkpt lat="44.45601" lon="6.52157">
        <ele>2371</ele>
        <time>2021-02-21T06:26:03Z</time>
      </trkpt>
      <trkpt lat="44.45601" lon="6.52157">
        <ele>2371</ele>
        <time>2021-02-21T06:26:04Z</time>
      </trkpt>
      <trkpt lat="44.45601" lon="6.52157">
        <ele>2371</ele>
        <time>2021-02-21T06:26:05Z</time>
      </trkpt>
      <trkpt lat="44.45601" lon="6.52157">
        <ele>2371</ele>
        <time>2021-02-21T06:26:06Z</time>
      </trkpt>
      <trkpt lat="44.45601" lon="6.52157">
        <ele>2371</ele>
        <time>2021-02-21T06:26:07Z</time>
      </trkpt>
      <trkpt lat="44.45601" lon="6.52157">
        <ele>2371</ele>
        <time>2021-02-21T06:26:08Z</time>
      </trkpt>
      <trkpt lat="44.45601" lon="6.52157">
        <ele>2371</ele>
        <time>2021-02-21T06:26:09Z</time>
      </trkpt>
      <trkpt lat="44.45601" lon="6.52149">
        <ele>2372</ele>
        <time>2021-02-21T06:26:10Z</time>
      </trkpt>
      <trkpt lat="44.45601" lon="6.5215">
        <ele>2372</ele>
        <time>2021-02-21T06:26:11Z</time>
      </trkpt>
      <trkpt lat="44.45601" lon="6.5215">
        <ele>2372</ele>
        <time>2021-02-21T06:26:12Z</time>
      </trkpt>
      <trkpt lat="44.45601" lon="6.5215">
        <ele>2372</ele>
        <time>2021-02-21T06:26:13Z</time>
      </trkpt>
      <trkpt lat="44.45601" lon="6.5215">
        <ele>2372</ele>
        <time>2021-02-21T06:26:14Z</time>
      </trkpt>
      <trkpt lat="44.45601" lon="6.5215">
        <ele>2372</ele>
        <time>2021-02-21T06:26:15Z</time>
      </trkpt>
      <trkpt lat="44.45601" lon="6.5215">
        <ele>2372</ele>
        <time>2021-02-21T06:26:16Z</time>
      </trkpt>
      <trkpt lat="44.45601" lon="6.5215">
        <ele>2372</ele>
        <time>2021-02-21T06:26:17Z</time>
      </trkpt>
      <trkpt lat="44.45601" lon="6.5215">
        <ele>2372</ele>
        <time>2021-02-21T06:26:18Z</time>
      </trkpt>
      <trkpt lat="44.45601" lon="6.5215">
        <ele>2372</ele>
        <time>2021-02-21T06:26:19Z</time>
      </trkpt>
      <trkpt lat="44.45601" lon="6.5215">
        <ele>2372</ele>
        <time>2021-02-21T06:26:20Z</time>
      </trkpt>
      <trkpt lat="44.45601" lon="6.5215">
        <ele>2372</ele>
        <time>2021-02-21T06:26:21Z</time>
      </trkpt>
      <trkpt lat="44.45601" lon="6.5215">
        <ele>2372</ele>
        <time>2021-02-21T06:26:22Z</time>
      </trkpt>
      <trkpt lat="44.45601" lon="6.5215">
        <ele>2372</ele>
        <time>2021-02-21T06:26:23Z</time>
      </trkpt>
      <trkpt lat="44.45601" lon="6.5215">
        <ele>2372</ele>
        <time>2021-02-21T06:26:24Z</time>
      </trkpt>
      <trkpt lat="44.45601" lon="6.5215">
        <ele>2372</ele>
        <time>2021-02-21T06:26:25Z</time>
      </trkpt>
      <trkpt lat="44.45601" lon="6.52151">
        <ele>2372</ele>
        <time>2021-02-21T06:26:26Z</time>
      </trkpt>
      <trkpt lat="44.45601" lon="6.52151">
        <ele>2372</ele>
        <time>2021-02-21T06:26:27Z</time>
      </trkpt>
      <trkpt lat="44.45601" lon="6.52152">
        <ele>2372</ele>
        <time>2021-02-21T06:26:28Z</time>
      </trkpt>
      <trkpt lat="44.45601" lon="6.52152">
        <ele>2372</ele>
        <time>2021-02-21T06:26:29Z</time>
      </trkpt>
      <trkpt lat="44.45601" lon="6.52152">
        <ele>2372</ele>
        <time>2021-02-21T06:26:30Z</time>
      </trkpt>
      <trkpt lat="44.45601" lon="6.52152">
        <ele>2372</ele>
        <time>2021-02-21T06:26:31Z</time>
      </trkpt>
      <trkpt lat="44.45601" lon="6.52152">
        <ele>2372</ele>
        <time>2021-02-21T06:26:32Z</time>
      </trkpt>
      <trkpt lat="44.45601" lon="6.52152">
        <ele>2372</ele>
        <time>2021-02-21T06:26:33Z</time>
      </trkpt>
      <trkpt lat="44.45601" lon="6.52152">
        <ele>2372</ele>
        <time>2021-02-21T06:26:34Z</time>
      </trkpt>
      <trkpt lat="44.45601" lon="6.52152">
        <ele>2373</ele>
        <time>2021-02-21T06:26:35Z</time>
      </trkpt>
      <trkpt lat="44.45601" lon="6.52152">
        <ele>2373</ele>
        <time>2021-02-21T06:26:36Z</time>
      </trkpt>
      <trkpt lat="44.45601" lon="6.52152">
        <ele>2373</ele>
        <time>2021-02-21T06:26:37Z</time>
      </trkpt>
      <trkpt lat="44.45601" lon="6.52152">
        <ele>2373</ele>
        <time>2021-02-21T06:26:38Z</time>
      </trkpt>
      <trkpt lat="44.45601" lon="6.52152">
        <ele>2373</ele>
        <time>2021-02-21T06:26:39Z</time>
      </trkpt>
      <trkpt lat="44.45601" lon="6.52152">
        <ele>2373</ele>
        <time>2021-02-21T06:26:40Z</time>
      </trkpt>
      <trkpt lat="44.45601" lon="6.52152">
        <ele>2373</ele>
        <time>2021-02-21T06:26:41Z</time>
      </trkpt>
      <trkpt lat="44.45601" lon="6.52152">
        <ele>2373</ele>
        <time>2021-02-21T06:26:42Z</time>
      </trkpt>
      <trkpt lat="44.45601" lon="6.52152">
        <ele>2373</ele>
        <time>2021-02-21T06:26:43Z</time>
      </trkpt>
      <trkpt lat="44.45601" lon="6.52152">
        <ele>2373</ele>
        <time>2021-02-21T06:26:44Z</time>
      </trkpt>
      <trkpt lat="44.45601" lon="6.52152">
        <ele>2373</ele>
        <time>2021-02-21T06:26:45Z</time>
      </trkpt>
      <trkpt lat="44.45601" lon="6.52152">
        <ele>2373</ele>
        <time>2021-02-21T06:26:46Z</time>
      </trkpt>
      <trkpt lat="44.45601" lon="6.52152">
        <ele>2373</ele>
        <time>2021-02-21T06:26:47Z</time>
      </trkpt>
      <trkpt lat="44.45601" lon="6.52152">
        <ele>2373</ele>
        <time>2021-02-21T06:26:48Z</time>
      </trkpt>
      <trkpt lat="44.45601" lon="6.52152">
        <ele>2373</ele>
        <time>2021-02-21T06:26:49Z</time>
      </trkpt>
      <trkpt lat="44.45601" lon="6.52152">
        <ele>2373</ele>
        <time>2021-02-21T06:26:50Z</time>
      </trkpt>
      <trkpt lat="44.45601" lon="6.52152">
        <ele>2373</ele>
        <time>2021-02-21T06:26:51Z</time>
      </trkpt>
      <trkpt lat="44.45601" lon="6.52152">
        <ele>2373</ele>
        <time>2021-02-21T06:26:52Z</time>
      </trkpt>
      <trkpt lat="44.45601" lon="6.52152">
        <ele>2373</ele>
        <time>2021-02-21T06:26:53Z</time>
      </trkpt>
      <trkpt lat="44.45601" lon="6.52152">
        <ele>2373</ele>
        <time>2021-02-21T06:26:54Z</time>
      </trkpt>
      <trkpt lat="44.45601" lon="6.52152">
        <ele>2373</ele>
        <time>2021-02-21T06:26:55Z</time>
      </trkpt>
      <trkpt lat="44.45601" lon="6.52152">
        <ele>2373</ele>
        <time>2021-02-21T06:26:56Z</time>
      </trkpt>
      <trkpt lat="44.45601" lon="6.52152">
        <ele>2373</ele>
        <time>2021-02-21T06:26:57Z</time>
      </trkpt>
      <trkpt lat="44.45601" lon="6.52152">
        <ele>2373</ele>
        <time>2021-02-21T06:26:58Z</time>
      </trkpt>
      <trkpt lat="44.45601" lon="6.52152">
        <ele>2373</ele>
        <time>2021-02-21T06:26:59Z</time>
      </trkpt>
      <trkpt lat="44.45601" lon="6.52152">
        <ele>2373</ele>
        <time>2021-02-21T06:27:00Z</time>
      </trkpt>
      <trkpt lat="44.45601" lon="6.52152">
        <ele>2373</ele>
        <time>2021-02-21T06:27:01Z</time>
      </trkpt>
      <trkpt lat="44.45601" lon="6.52152">
        <ele>2373</ele>
        <time>2021-02-21T06:27:02Z</time>
      </trkpt>
      <trkpt lat="44.45601" lon="6.52152">
        <ele>2373</ele>
        <time>2021-02-21T06:27:03Z</time>
      </trkpt>
      <trkpt lat="44.45601" lon="6.52152">
        <ele>2373</ele>
        <time>2021-02-21T06:27:04Z</time>
      </trkpt>
      <trkpt lat="44.45601" lon="6.52152">
        <ele>2373</ele>
        <time>2021-02-21T06:27:05Z</time>
      </trkpt>
      <trkpt lat="44.45601" lon="6.52152">
        <ele>2373</ele>
        <time>2021-02-21T06:27:06Z</time>
      </trkpt>
      <trkpt lat="44.45601" lon="6.52152">
        <ele>2373</ele>
        <time>2021-02-21T06:27:07Z</time>
      </trkpt>
      <trkpt lat="44.45601" lon="6.52152">
        <ele>2373</ele>
        <time>2021-02-21T06:27:08Z</time>
      </trkpt>
      <trkpt lat="44.45601" lon="6.52152">
        <ele>2373</ele>
        <time>2021-02-21T06:27:09Z</time>
      </trkpt>
      <trkpt lat="44.45601" lon="6.52152">
        <ele>2373</ele>
        <time>2021-02-21T06:27:10Z</time>
      </trkpt>
      <trkpt lat="44.45601" lon="6.52151">
        <ele>2373</ele>
        <time>2021-02-21T06:27:11Z</time>
      </trkpt>
      <trkpt lat="44.45601" lon="6.52151">
        <ele>2373</ele>
        <time>2021-02-21T06:27:12Z</time>
      </trkpt>
      <trkpt lat="44.45601" lon="6.5215">
        <ele>2373</ele>
        <time>2021-02-21T06:27:13Z</time>
      </trkpt>
      <trkpt lat="44.45601" lon="6.5215">
        <ele>2373</ele>
        <time>2021-02-21T06:27:14Z</time>
      </trkpt>
      <trkpt lat="44.45601" lon="6.5215">
        <ele>2373</ele>
        <time>2021-02-21T06:27:15Z</time>
      </trkpt>
      <trkpt lat="44.45601" lon="6.5215">
        <ele>2373</ele>
        <time>2021-02-21T06:27:16Z</time>
      </trkpt>
      <trkpt lat="44.45601" lon="6.5215">
        <ele>2373</ele>
        <time>2021-02-21T06:27:17Z</time>
      </trkpt>
      <trkpt lat="44.45601" lon="6.5215">
        <ele>2373</ele>
        <time>2021-02-21T06:27:18Z</time>
      </trkpt>
      <trkpt lat="44.45601" lon="6.5215">
        <ele>2373</ele>
        <time>2021-02-21T06:27:19Z</time>
      </trkpt>
      <trkpt lat="44.45601" lon="6.5215">
        <ele>2373</ele>
        <time>2021-02-21T06:27:20Z</time>
      </trkpt>
      <trkpt lat="44.45601" lon="6.5215">
        <ele>2373</ele>
        <time>2021-02-21T06:27:21Z</time>
      </trkpt>
      <trkpt lat="44.45601" lon="6.5215">
        <ele>2373</ele>
        <time>2021-02-21T06:27:22Z</time>
      </trkpt>
      <trkpt lat="44.45601" lon="6.5215">
        <ele>2373</ele>
        <time>2021-02-21T06:27:23Z</time>
      </trkpt>
      <trkpt lat="44.45601" lon="6.5215">
        <ele>2373</ele>
        <time>2021-02-21T06:27:24Z</time>
      </trkpt>
      <trkpt lat="44.45601" lon="6.5215">
        <ele>2373</ele>
        <time>2021-02-21T06:27:25Z</time>
      </trkpt>
      <trkpt lat="44.45601" lon="6.5215">
        <ele>2373</ele>
        <time>2021-02-21T06:27:26Z</time>
      </trkpt>
      <trkpt lat="44.45601" lon="6.5215">
        <ele>2373</ele>
        <time>2021-02-21T06:27:27Z</time>
      </trkpt>
      <trkpt lat="44.45601" lon="6.5215">
        <ele>2373</ele>
        <time>2021-02-21T06:27:28Z</time>
      </trkpt>
      <trkpt lat="44.45601" lon="6.5215">
        <ele>2373</ele>
        <time>2021-02-21T06:27:29Z</time>
      </trkpt>
      <trkpt lat="44.45601" lon="6.5215">
        <ele>2373</ele>
        <time>2021-02-21T06:27:30Z</time>
      </trkpt>
      <trkpt lat="44.45601" lon="6.5215">
        <ele>2373</ele>
        <time>2021-02-21T06:27:31Z</time>
      </trkpt>
      <trkpt lat="44.45601" lon="6.5215">
        <ele>2373</ele>
        <time>2021-02-21T06:27:32Z</time>
      </trkpt>
      <trkpt lat="44.45601" lon="6.5215">
        <ele>2373</ele>
        <time>2021-02-21T06:27:33Z</time>
      </trkpt>
      <trkpt lat="44.45599" lon="6.52147">
        <ele>2373</ele>
        <time>2021-02-21T06:27:34Z</time>
      </trkpt>
      <trkpt lat="44.45598" lon="6.52146">
        <ele>2372</ele>
        <time>2021-02-21T06:27:35Z</time>
      </trkpt>
      <trkpt lat="44.45598" lon="6.52146">
        <ele>2372</ele>
        <time>2021-02-21T06:27:36Z</time>
      </trkpt>
      <trkpt lat="44.45598" lon="6.52146">
        <ele>2372</ele>
        <time>2021-02-21T06:27:37Z</time>
      </trkpt>
      <trkpt lat="44.45598" lon="6.52146">
        <ele>2372</ele>
        <time>2021-02-21T06:27:38Z</time>
      </trkpt>
      <trkpt lat="44.45598" lon="6.52145">
        <ele>2372</ele>
        <time>2021-02-21T06:27:39Z</time>
      </trkpt>
      <trkpt lat="44.45598" lon="6.52145">
        <ele>2372</ele>
        <time>2021-02-21T06:27:40Z</time>
      </trkpt>
      <trkpt lat="44.45598" lon="6.52145">
        <ele>2372</ele>
        <time>2021-02-21T06:27:41Z</time>
      </trkpt>
      <trkpt lat="44.45598" lon="6.52145">
        <ele>2372</ele>
        <time>2021-02-21T06:27:42Z</time>
      </trkpt>
      <trkpt lat="44.45598" lon="6.52145">
        <ele>2372</ele>
        <time>2021-02-21T06:27:43Z</time>
      </trkpt>
      <trkpt lat="44.45598" lon="6.52145">
        <ele>2372</ele>
        <time>2021-02-21T06:27:44Z</time>
      </trkpt>
      <trkpt lat="44.45598" lon="6.52145">
        <ele>2372</ele>
        <time>2021-02-21T06:27:45Z</time>
      </trkpt>
      <trkpt lat="44.45598" lon="6.52145">
        <ele>2372</ele>
        <time>2021-02-21T06:27:46Z</time>
      </trkpt>
      <trkpt lat="44.45598" lon="6.52145">
        <ele>2372</ele>
        <time>2021-02-21T06:27:47Z</time>
      </trkpt>
      <trkpt lat="44.45598" lon="6.52145">
        <ele>2372</ele>
        <time>2021-02-21T06:27:48Z</time>
      </trkpt>
      <trkpt lat="44.45598" lon="6.52145">
        <ele>2372</ele>
        <time>2021-02-21T06:27:49Z</time>
      </trkpt>
      <trkpt lat="44.45598" lon="6.52145">
        <ele>2372</ele>
        <time>2021-02-21T06:27:50Z</time>
      </trkpt>
      <trkpt lat="44.45598" lon="6.52145">
        <ele>2372</ele>
        <time>2021-02-21T06:27:51Z</time>
      </trkpt>
      <trkpt lat="44.45598" lon="6.52145">
        <ele>2372</ele>
        <time>2021-02-21T06:27:52Z</time>
      </trkpt>
      <trkpt lat="44.45598" lon="6.52145">
        <ele>2372</ele>
        <time>2021-02-21T06:27:53Z</time>
      </trkpt>
      <trkpt lat="44.45598" lon="6.52145">
        <ele>2372</ele>
        <time>2021-02-21T06:27:54Z</time>
      </trkpt>
      <trkpt lat="44.45598" lon="6.52145">
        <ele>2372</ele>
        <time>2021-02-21T06:27:55Z</time>
      </trkpt>
      <trkpt lat="44.45598" lon="6.52145">
        <ele>2372</ele>
        <time>2021-02-21T06:27:56Z</time>
      </trkpt>
      <trkpt lat="44.45598" lon="6.52145">
        <ele>2372</ele>
        <time>2021-02-21T06:27:57Z</time>
      </trkpt>
      <trkpt lat="44.45598" lon="6.52145">
        <ele>2372</ele>
        <time>2021-02-21T06:27:58Z</time>
      </trkpt>
      <trkpt lat="44.45598" lon="6.52145">
        <ele>2372</ele>
        <time>2021-02-21T06:27:59Z</time>
      </trkpt>
      <trkpt lat="44.45598" lon="6.52145">
        <ele>2372</ele>
        <time>2021-02-21T06:28:00Z</time>
      </trkpt>
      <trkpt lat="44.45598" lon="6.52145">
        <ele>2372</ele>
        <time>2021-02-21T06:28:01Z</time>
      </trkpt>
      <trkpt lat="44.45597" lon="6.52145">
        <ele>2372</ele>
        <time>2021-02-21T06:28:02Z</time>
      </trkpt>
      <trkpt lat="44.45597" lon="6.52145">
        <ele>2372</ele>
        <time>2021-02-21T06:28:03Z</time>
      </trkpt>
      <trkpt lat="44.45596" lon="6.52144">
        <ele>2372</ele>
        <time>2021-02-21T06:28:04Z</time>
      </trkpt>
      <trkpt lat="44.45596" lon="6.52144">
        <ele>2372</ele>
        <time>2021-02-21T06:28:05Z</time>
      </trkpt>
      <trkpt lat="44.45596" lon="6.52143">
        <ele>2371</ele>
        <time>2021-02-21T06:28:06Z</time>
      </trkpt>
      <trkpt lat="44.45596" lon="6.52142">
        <ele>2371</ele>
        <time>2021-02-21T06:28:07Z</time>
      </trkpt>
      <trkpt lat="44.45596" lon="6.52142">
        <ele>2371</ele>
        <time>2021-02-21T06:28:08Z</time>
      </trkpt>
      <trkpt lat="44.45596" lon="6.52142">
        <ele>2371</ele>
        <time>2021-02-21T06:28:09Z</time>
      </trkpt>
      <trkpt lat="44.45596" lon="6.52142">
        <ele>2371</ele>
        <time>2021-02-21T06:28:10Z</time>
      </trkpt>
      <trkpt lat="44.45597" lon="6.52141">
        <ele>2371</ele>
        <time>2021-02-21T06:28:11Z</time>
      </trkpt>
      <trkpt lat="44.45597" lon="6.52141">
        <ele>2371</ele>
        <time>2021-02-21T06:28:12Z</time>
      </trkpt>
      <trkpt lat="44.45597" lon="6.5214">
        <ele>2371</ele>
        <time>2021-02-21T06:28:13Z</time>
      </trkpt>
      <trkpt lat="44.45597" lon="6.5214">
        <ele>2371</ele>
        <time>2021-02-21T06:28:14Z</time>
      </trkpt>
      <trkpt lat="44.45597" lon="6.52139">
        <ele>2371</ele>
        <time>2021-02-21T06:28:15Z</time>
      </trkpt>
      <trkpt lat="44.45597" lon="6.52137">
        <ele>2371</ele>
        <time>2021-02-21T06:28:16Z</time>
      </trkpt>
      <trkpt lat="44.45597" lon="6.52136">
        <ele>2370</ele>
        <time>2021-02-21T06:28:17Z</time>
      </trkpt>
      <trkpt lat="44.45596" lon="6.52136">
        <ele>2370</ele>
        <time>2021-02-21T06:28:18Z</time>
      </trkpt>
      <trkpt lat="44.45596" lon="6.52135">
        <ele>2370</ele>
        <time>2021-02-21T06:28:19Z</time>
      </trkpt>
      <trkpt lat="44.45597" lon="6.52134">
        <ele>2370</ele>
        <time>2021-02-21T06:28:20Z</time>
      </trkpt>
      <trkpt lat="44.45597" lon="6.52133">
        <ele>2370</ele>
        <time>2021-02-21T06:28:21Z</time>
      </trkpt>
      <trkpt lat="44.45596" lon="6.52133">
        <ele>2370</ele>
        <time>2021-02-21T06:28:22Z</time>
      </trkpt>
      <trkpt lat="44.45596" lon="6.52132">
        <ele>2370</ele>
        <time>2021-02-21T06:28:23Z</time>
      </trkpt>
      <trkpt lat="44.45596" lon="6.5213">
        <ele>2370</ele>
        <time>2021-02-21T06:28:24Z</time>
      </trkpt>
      <trkpt lat="44.45596" lon="6.52129">
        <ele>2371</ele>
        <time>2021-02-21T06:28:25Z</time>
      </trkpt>
      <trkpt lat="44.45596" lon="6.52129">
        <ele>2371</ele>
        <time>2021-02-21T06:28:26Z</time>
      </trkpt>
      <trkpt lat="44.45595" lon="6.52128">
        <ele>2371</ele>
        <time>2021-02-21T06:28:27Z</time>
      </trkpt>
      <trkpt lat="44.45595" lon="6.52126">
        <ele>2371</ele>
        <time>2021-02-21T06:28:28Z</time>
      </trkpt>
      <trkpt lat="44.45595" lon="6.52126">
        <ele>2371</ele>
        <time>2021-02-21T06:28:29Z</time>
      </trkpt>
      <trkpt lat="44.45595" lon="6.52126">
        <ele>2371</ele>
        <time>2021-02-21T06:28:30Z</time>
      </trkpt>
      <trkpt lat="44.45595" lon="6.52125">
        <ele>2371</ele>
        <time>2021-02-21T06:28:31Z</time>
      </trkpt>
      <trkpt lat="44.45595" lon="6.52124">
        <ele>2371</ele>
        <time>2021-02-21T06:28:32Z</time>
      </trkpt>
      <trkpt lat="44.45594" lon="6.52124">
        <ele>2371</ele>
        <time>2021-02-21T06:28:33Z</time>
      </trkpt>
      <trkpt lat="44.45593" lon="6.52123">
        <ele>2371</ele>
        <time>2021-02-21T06:28:34Z</time>
      </trkpt>
      <trkpt lat="44.45592" lon="6.52123">
        <ele>2371</ele>
        <time>2021-02-21T06:28:35Z</time>
      </trkpt>
      <trkpt lat="44.45592" lon="6.52122">
        <ele>2371</ele>
        <time>2021-02-21T06:28:36Z</time>
      </trkpt>
      <trkpt lat="44.45592" lon="6.52122">
        <ele>2371</ele>
        <time>2021-02-21T06:28:37Z</time>
      </trkpt>
      <trkpt lat="44.45591" lon="6.52122">
        <ele>2371</ele>
        <time>2021-02-21T06:28:38Z</time>
      </trkpt>
      <trkpt lat="44.45592" lon="6.52122">
        <ele>2371</ele>
        <time>2021-02-21T06:28:39Z</time>
      </trkpt>
      <trkpt lat="44.45592" lon="6.52122">
        <ele>2371</ele>
        <time>2021-02-21T06:28:40Z</time>
      </trkpt>
      <trkpt lat="44.45592" lon="6.52123">
        <ele>2371</ele>
        <time>2021-02-21T06:28:41Z</time>
      </trkpt>
      <trkpt lat="44.45592" lon="6.52123">
        <ele>2371</ele>
        <time>2021-02-21T06:28:42Z</time>
      </trkpt>
      <trkpt lat="44.45593" lon="6.52123">
        <ele>2371</ele>
        <time>2021-02-21T06:28:43Z</time>
      </trkpt>
      <trkpt lat="44.45593" lon="6.52123">
        <ele>2371</ele>
        <time>2021-02-21T06:28:44Z</time>
      </trkpt>
      <trkpt lat="44.45593" lon="6.52123">
        <ele>2372</ele>
        <time>2021-02-21T06:28:45Z</time>
      </trkpt>
      <trkpt lat="44.45594" lon="6.52123">
        <ele>2372</ele>
        <time>2021-02-21T06:28:46Z</time>
      </trkpt>
      <trkpt lat="44.45594" lon="6.52124">
        <ele>2372</ele>
        <time>2021-02-21T06:28:47Z</time>
      </trkpt>
      <trkpt lat="44.45595" lon="6.52124">
        <ele>2372</ele>
        <time>2021-02-21T06:28:48Z</time>
      </trkpt>
      <trkpt lat="44.45595" lon="6.52125">
        <ele>2372</ele>
        <time>2021-02-21T06:28:49Z</time>
      </trkpt>
      <trkpt lat="44.45595" lon="6.52125">
        <ele>2372</ele>
        <time>2021-02-21T06:28:50Z</time>
      </trkpt>
      <trkpt lat="44.45595" lon="6.52125">
        <ele>2373</ele>
        <time>2021-02-21T06:28:51Z</time>
      </trkpt>
      <trkpt lat="44.45595" lon="6.52125">
        <ele>2373</ele>
        <time>2021-02-21T06:28:52Z</time>
      </trkpt>
      <trkpt lat="44.45595" lon="6.52125">
        <ele>2373</ele>
        <time>2021-02-21T06:28:53Z</time>
      </trkpt>
      <trkpt lat="44.45594" lon="6.52125">
        <ele>2373</ele>
        <time>2021-02-21T06:28:54Z</time>
      </trkpt>
      <trkpt lat="44.45594" lon="6.52125">
        <ele>2373</ele>
        <time>2021-02-21T06:28:55Z</time>
      </trkpt>
      <trkpt lat="44.45595" lon="6.52124">
        <ele>2373</ele>
        <time>2021-02-21T06:28:56Z</time>
      </trkpt>
      <trkpt lat="44.45595" lon="6.52124">
        <ele>2373</ele>
        <time>2021-02-21T06:28:57Z</time>
      </trkpt>
      <trkpt lat="44.45595" lon="6.52123">
        <ele>2373</ele>
        <time>2021-02-21T06:28:58Z</time>
      </trkpt>
      <trkpt lat="44.45595" lon="6.52123">
        <ele>2373</ele>
        <time>2021-02-21T06:28:59Z</time>
      </trkpt>
      <trkpt lat="44.45595" lon="6.52123">
        <ele>2373</ele>
        <time>2021-02-21T06:29:00Z</time>
      </trkpt>
      <trkpt lat="44.45595" lon="6.52123">
        <ele>2373</ele>
        <time>2021-02-21T06:29:01Z</time>
      </trkpt>
      <trkpt lat="44.45595" lon="6.52123">
        <ele>2373</ele>
        <time>2021-02-21T06:29:02Z</time>
      </trkpt>
      <trkpt lat="44.45595" lon="6.52123">
        <ele>2373</ele>
        <time>2021-02-21T06:29:03Z</time>
      </trkpt>
      <trkpt lat="44.45595" lon="6.52123">
        <ele>2373</ele>
        <time>2021-02-21T06:29:04Z</time>
      </trkpt>
      <trkpt lat="44.45595" lon="6.52123">
        <ele>2373</ele>
        <time>2021-02-21T06:29:05Z</time>
      </trkpt>
      <trkpt lat="44.45595" lon="6.52123">
        <ele>2373</ele>
        <time>2021-02-21T06:29:06Z</time>
      </trkpt>
      <trkpt lat="44.45595" lon="6.52123">
        <ele>2373</ele>
        <time>2021-02-21T06:29:07Z</time>
      </trkpt>
      <trkpt lat="44.45595" lon="6.52123">
        <ele>2373</ele>
        <time>2021-02-21T06:29:08Z</time>
      </trkpt>
      <trkpt lat="44.45595" lon="6.52123">
        <ele>2373</ele>
        <time>2021-02-21T06:29:09Z</time>
      </trkpt>
      <trkpt lat="44.45596" lon="6.52126">
        <ele>2374</ele>
        <time>2021-02-21T06:29:10Z</time>
      </trkpt>
      <trkpt lat="44.45596" lon="6.52126">
        <ele>2374</ele>
        <time>2021-02-21T06:29:11Z</time>
      </trkpt>
      <trkpt lat="44.45596" lon="6.52127">
        <ele>2374</ele>
        <time>2021-02-21T06:29:12Z</time>
      </trkpt>
      <trkpt lat="44.45596" lon="6.52127">
        <ele>2374</ele>
        <time>2021-02-21T06:29:13Z</time>
      </trkpt>
      <trkpt lat="44.45596" lon="6.52127">
        <ele>2374</ele>
        <time>2021-02-21T06:29:14Z</time>
      </trkpt>
      <trkpt lat="44.45596" lon="6.52127">
        <ele>2374</ele>
        <time>2021-02-21T06:29:15Z</time>
      </trkpt>
      <trkpt lat="44.45596" lon="6.52128">
        <ele>2374</ele>
        <time>2021-02-21T06:29:16Z</time>
      </trkpt>
      <trkpt lat="44.45595" lon="6.52127">
        <ele>2374</ele>
        <time>2021-02-21T06:29:17Z</time>
      </trkpt>
      <trkpt lat="44.45596" lon="6.52127">
        <ele>2374</ele>
        <time>2021-02-21T06:29:18Z</time>
      </trkpt>
      <trkpt lat="44.45597" lon="6.52127">
        <ele>2375</ele>
        <time>2021-02-21T06:29:19Z</time>
      </trkpt>
      <trkpt lat="44.45597" lon="6.52126">
        <ele>2375</ele>
        <time>2021-02-21T06:29:20Z</time>
      </trkpt>
      <trkpt lat="44.45597" lon="6.52126">
        <ele>2375</ele>
        <time>2021-02-21T06:29:21Z</time>
      </trkpt>
      <trkpt lat="44.45597" lon="6.52126">
        <ele>2375</ele>
        <time>2021-02-21T06:29:22Z</time>
      </trkpt>
      <trkpt lat="44.45597" lon="6.52125">
        <ele>2375</ele>
        <time>2021-02-21T06:29:23Z</time>
      </trkpt>
      <trkpt lat="44.45597" lon="6.52125">
        <ele>2375</ele>
        <time>2021-02-21T06:29:24Z</time>
      </trkpt>
      <trkpt lat="44.45597" lon="6.52125">
        <ele>2375</ele>
        <time>2021-02-21T06:29:25Z</time>
      </trkpt>
      <trkpt lat="44.45597" lon="6.52125">
        <ele>2375</ele>
        <time>2021-02-21T06:29:26Z</time>
      </trkpt>
      <trkpt lat="44.45597" lon="6.52125">
        <ele>2375</ele>
        <time>2021-02-21T06:29:27Z</time>
      </trkpt>
      <trkpt lat="44.45597" lon="6.52125">
        <ele>2375</ele>
        <time>2021-02-21T06:29:28Z</time>
      </trkpt>
      <trkpt lat="44.45597" lon="6.52125">
        <ele>2375</ele>
        <time>2021-02-21T06:29:29Z</time>
      </trkpt>
      <trkpt lat="44.45597" lon="6.52125">
        <ele>2376</ele>
        <time>2021-02-21T06:29:30Z</time>
      </trkpt>
      <trkpt lat="44.45597" lon="6.52125">
        <ele>2376</ele>
        <time>2021-02-21T06:29:31Z</time>
      </trkpt>
      <trkpt lat="44.45597" lon="6.52125">
        <ele>2376</ele>
        <time>2021-02-21T06:29:32Z</time>
      </trkpt>
      <trkpt lat="44.45601" lon="6.52128">
        <ele>2379</ele>
        <time>2021-02-21T06:29:33Z</time>
      </trkpt>
      <trkpt lat="44.45602" lon="6.52127">
        <ele>2380</ele>
        <time>2021-02-21T06:29:34Z</time>
      </trkpt>
      <trkpt lat="44.45603" lon="6.52126">
        <ele>2380</ele>
        <time>2021-02-21T06:29:35Z</time>
      </trkpt>
      <trkpt lat="44.45603" lon="6.52125">
        <ele>2381</ele>
        <time>2021-02-21T06:29:36Z</time>
      </trkpt>
      <trkpt lat="44.45604" lon="6.52125">
        <ele>2381</ele>
        <time>2021-02-21T06:29:37Z</time>
      </trkpt>
      <trkpt lat="44.45605" lon="6.52124">
        <ele>2382</ele>
        <time>2021-02-21T06:29:38Z</time>
      </trkpt>
      <trkpt lat="44.45605" lon="6.52124">
        <ele>2382</ele>
        <time>2021-02-21T06:29:39Z</time>
      </trkpt>
      <trkpt lat="44.45605" lon="6.52124">
        <ele>2382</ele>
        <time>2021-02-21T06:29:40Z</time>
      </trkpt>
      <trkpt lat="44.45606" lon="6.52124">
        <ele>2382</ele>
        <time>2021-02-21T06:29:41Z</time>
      </trkpt>
      <trkpt lat="44.45606" lon="6.52124">
        <ele>2382</ele>
        <time>2021-02-21T06:29:42Z</time>
      </trkpt>
      <trkpt lat="44.45607" lon="6.52124">
        <ele>2382</ele>
        <time>2021-02-21T06:29:43Z</time>
      </trkpt>
      <trkpt lat="44.45607" lon="6.52124">
        <ele>2382</ele>
        <time>2021-02-21T06:29:44Z</time>
      </trkpt>
      <trkpt lat="44.45607" lon="6.52123">
        <ele>2383</ele>
        <time>2021-02-21T06:29:45Z</time>
      </trkpt>
      <trkpt lat="44.45608" lon="6.52123">
        <ele>2383</ele>
        <time>2021-02-21T06:29:46Z</time>
      </trkpt>
      <trkpt lat="44.45609" lon="6.52123">
        <ele>2383</ele>
        <time>2021-02-21T06:29:47Z</time>
      </trkpt>
      <trkpt lat="44.45609" lon="6.52123">
        <ele>2383</ele>
        <time>2021-02-21T06:29:48Z</time>
      </trkpt>
      <trkpt lat="44.45609" lon="6.52122">
        <ele>2383</ele>
        <time>2021-02-21T06:29:49Z</time>
      </trkpt>
      <trkpt lat="44.45608" lon="6.52121">
        <ele>2383</ele>
        <time>2021-02-21T06:29:50Z</time>
      </trkpt>
      <trkpt lat="44.45608" lon="6.5212">
        <ele>2383</ele>
        <time>2021-02-21T06:29:51Z</time>
      </trkpt>
      <trkpt lat="44.45607" lon="6.5212">
        <ele>2383</ele>
        <time>2021-02-21T06:29:52Z</time>
      </trkpt>
      <trkpt lat="44.45607" lon="6.52119">
        <ele>2383</ele>
        <time>2021-02-21T06:29:53Z</time>
      </trkpt>
      <trkpt lat="44.45607" lon="6.52117">
        <ele>2383</ele>
        <time>2021-02-21T06:29:54Z</time>
      </trkpt>
      <trkpt lat="44.45607" lon="6.52117">
        <ele>2383</ele>
        <time>2021-02-21T06:29:55Z</time>
      </trkpt>
      <trkpt lat="44.45607" lon="6.52115">
        <ele>2383</ele>
        <time>2021-02-21T06:29:56Z</time>
      </trkpt>
      <trkpt lat="44.45606" lon="6.52115">
        <ele>2383</ele>
        <time>2021-02-21T06:29:57Z</time>
      </trkpt>
      <trkpt lat="44.45605" lon="6.52114">
        <ele>2382</ele>
        <time>2021-02-21T06:29:58Z</time>
      </trkpt>
      <trkpt lat="44.45605" lon="6.52113">
        <ele>2382</ele>
        <time>2021-02-21T06:29:59Z</time>
      </trkpt>
      <trkpt lat="44.45605" lon="6.52112">
        <ele>2382</ele>
        <time>2021-02-21T06:30:00Z</time>
      </trkpt>
      <trkpt lat="44.45604" lon="6.52111">
        <ele>2383</ele>
        <time>2021-02-21T06:30:01Z</time>
      </trkpt>
      <trkpt lat="44.45604" lon="6.5211">
        <ele>2383</ele>
        <time>2021-02-21T06:30:02Z</time>
      </trkpt>
      <trkpt lat="44.45604" lon="6.52109">
        <ele>2383</ele>
        <time>2021-02-21T06:30:03Z</time>
      </trkpt>
      <trkpt lat="44.45604" lon="6.52108">
        <ele>2383</ele>
        <time>2021-02-21T06:30:04Z</time>
      </trkpt>
      <trkpt lat="44.45604" lon="6.52107">
        <ele>2383</ele>
        <time>2021-02-21T06:30:05Z</time>
      </trkpt>
      <trkpt lat="44.45604" lon="6.52106">
        <ele>2383</ele>
        <time>2021-02-21T06:30:06Z</time>
      </trkpt>
      <trkpt lat="44.45604" lon="6.52105">
        <ele>2382</ele>
        <time>2021-02-21T06:30:07Z</time>
      </trkpt>
      <trkpt lat="44.45604" lon="6.52104">
        <ele>2382</ele>
        <time>2021-02-21T06:30:08Z</time>
      </trkpt>
      <trkpt lat="44.45604" lon="6.52103">
        <ele>2383</ele>
        <time>2021-02-21T06:30:09Z</time>
      </trkpt>
      <trkpt lat="44.45605" lon="6.52102">
        <ele>2383</ele>
        <time>2021-02-21T06:30:10Z</time>
      </trkpt>
      <trkpt lat="44.45605" lon="6.52101">
        <ele>2383</ele>
        <time>2021-02-21T06:30:11Z</time>
      </trkpt>
      <trkpt lat="44.45605" lon="6.521">
        <ele>2383</ele>
        <time>2021-02-21T06:30:12Z</time>
      </trkpt>
      <trkpt lat="44.45605" lon="6.521">
        <ele>2383</ele>
        <time>2021-02-21T06:30:13Z</time>
      </trkpt>
      <trkpt lat="44.45604" lon="6.521">
        <ele>2383</ele>
        <time>2021-02-21T06:30:14Z</time>
      </trkpt>
      <trkpt lat="44.45604" lon="6.521">
        <ele>2383</ele>
        <time>2021-02-21T06:30:15Z</time>
      </trkpt>
      <trkpt lat="44.45604" lon="6.52102">
        <ele>2383</ele>
        <time>2021-02-21T06:30:16Z</time>
      </trkpt>
      <trkpt lat="44.45604" lon="6.52102">
        <ele>2383</ele>
        <time>2021-02-21T06:30:17Z</time>
      </trkpt>
      <trkpt lat="44.45604" lon="6.52102">
        <ele>2383</ele>
        <time>2021-02-21T06:30:18Z</time>
      </trkpt>
      <trkpt lat="44.45604" lon="6.52102">
        <ele>2383</ele>
        <time>2021-02-21T06:30:19Z</time>
      </trkpt>
      <trkpt lat="44.45605" lon="6.52102">
        <ele>2383</ele>
        <time>2021-02-21T06:30:20Z</time>
      </trkpt>
      <trkpt lat="44.45605" lon="6.52102">
        <ele>2383</ele>
        <time>2021-02-21T06:30:21Z</time>
      </trkpt>
      <trkpt lat="44.45605" lon="6.52102">
        <ele>2383</ele>
        <time>2021-02-21T06:30:22Z</time>
      </trkpt>
      <trkpt lat="44.45605" lon="6.52102">
        <ele>2383</ele>
        <time>2021-02-21T06:30:23Z</time>
      </trkpt>
      <trkpt lat="44.45605" lon="6.52102">
        <ele>2383</ele>
        <time>2021-02-21T06:30:24Z</time>
      </trkpt>
      <trkpt lat="44.45605" lon="6.52102">
        <ele>2383</ele>
        <time>2021-02-21T06:30:25Z</time>
      </trkpt>
      <trkpt lat="44.45605" lon="6.52102">
        <ele>2383</ele>
        <time>2021-02-21T06:30:26Z</time>
      </trkpt>
      <trkpt lat="44.45605" lon="6.52102">
        <ele>2383</ele>
        <time>2021-02-21T06:30:27Z</time>
      </trkpt>
      <trkpt lat="44.45605" lon="6.52102">
        <ele>2383</ele>
        <time>2021-02-21T06:30:28Z</time>
      </trkpt>
      <trkpt lat="44.45607" lon="6.52101">
        <ele>2384</ele>
        <time>2021-02-21T06:30:29Z</time>
      </trkpt>
      <trkpt lat="44.45607" lon="6.52101">
        <ele>2384</ele>
        <time>2021-02-21T06:30:30Z</time>
      </trkpt>
      <trkpt lat="44.45607" lon="6.52102">
        <ele>2384</ele>
        <time>2021-02-21T06:30:31Z</time>
      </trkpt>
      <trkpt lat="44.45607" lon="6.52102">
        <ele>2384</ele>
        <time>2021-02-21T06:30:32Z</time>
      </trkpt>
      <trkpt lat="44.45607" lon="6.52102">
        <ele>2384</ele>
        <time>2021-02-21T06:30:33Z</time>
      </trkpt>
      <trkpt lat="44.45607" lon="6.52102">
        <ele>2384</ele>
        <time>2021-02-21T06:30:34Z</time>
      </trkpt>
      <trkpt lat="44.45607" lon="6.52102">
        <ele>2385</ele>
        <time>2021-02-21T06:30:35Z</time>
      </trkpt>
      <trkpt lat="44.45607" lon="6.52102">
        <ele>2385</ele>
        <time>2021-02-21T06:30:36Z</time>
      </trkpt>
      <trkpt lat="44.45607" lon="6.52102">
        <ele>2385</ele>
        <time>2021-02-21T06:30:37Z</time>
      </trkpt>
      <trkpt lat="44.45607" lon="6.52103">
        <ele>2385</ele>
        <time>2021-02-21T06:30:38Z</time>
      </trkpt>
      <trkpt lat="44.45607" lon="6.52102">
        <ele>2385</ele>
        <time>2021-02-21T06:30:39Z</time>
      </trkpt>
      <trkpt lat="44.45607" lon="6.52102">
        <ele>2385</ele>
        <time>2021-02-21T06:30:40Z</time>
      </trkpt>
      <trkpt lat="44.45606" lon="6.52103">
        <ele>2385</ele>
        <time>2021-02-21T06:30:41Z</time>
      </trkpt>
      <trkpt lat="44.45606" lon="6.52103">
        <ele>2385</ele>
        <time>2021-02-21T06:30:42Z</time>
      </trkpt>
      <trkpt lat="44.45606" lon="6.52103">
        <ele>2385</ele>
        <time>2021-02-21T06:30:43Z</time>
      </trkpt>
      <trkpt lat="44.45606" lon="6.52103">
        <ele>2385</ele>
        <time>2021-02-21T06:30:44Z</time>
      </trkpt>
      <trkpt lat="44.45606" lon="6.52103">
        <ele>2385</ele>
        <time>2021-02-21T06:30:45Z</time>
      </trkpt>
      <trkpt lat="44.45606" lon="6.52103">
        <ele>2385</ele>
        <time>2021-02-21T06:30:46Z</time>
      </trkpt>
      <trkpt lat="44.45606" lon="6.52103">
        <ele>2385</ele>
        <time>2021-02-21T06:30:47Z</time>
      </trkpt>
      <trkpt lat="44.45606" lon="6.52103">
        <ele>2385</ele>
        <time>2021-02-21T06:30:48Z</time>
      </trkpt>
      <trkpt lat="44.45606" lon="6.52103">
        <ele>2385</ele>
        <time>2021-02-21T06:30:49Z</time>
      </trkpt>
      <trkpt lat="44.45606" lon="6.52103">
        <ele>2385</ele>
        <time>2021-02-21T06:30:50Z</time>
      </trkpt>
      <trkpt lat="44.45606" lon="6.52103">
        <ele>2385</ele>
        <time>2021-02-21T06:30:51Z</time>
      </trkpt>
      <trkpt lat="44.45607" lon="6.52104">
        <ele>2385</ele>
        <time>2021-02-21T06:30:52Z</time>
      </trkpt>
      <trkpt lat="44.45606" lon="6.52104">
        <ele>2385</ele>
        <time>2021-02-21T06:30:53Z</time>
      </trkpt>
      <trkpt lat="44.45605" lon="6.52104">
        <ele>2385</ele>
        <time>2021-02-21T06:30:54Z</time>
      </trkpt>
      <trkpt lat="44.45604" lon="6.52104">
        <ele>2385</ele>
        <time>2021-02-21T06:30:55Z</time>
      </trkpt>
      <trkpt lat="44.45604" lon="6.52104">
        <ele>2385</ele>
        <time>2021-02-21T06:30:56Z</time>
      </trkpt>
      <trkpt lat="44.45604" lon="6.52104">
        <ele>2385</ele>
        <time>2021-02-21T06:30:57Z</time>
      </trkpt>
      <trkpt lat="44.45605" lon="6.52105">
        <ele>2385</ele>
        <time>2021-02-21T06:30:58Z</time>
      </trkpt>
      <trkpt lat="44.45606" lon="6.52105">
        <ele>2385</ele>
        <time>2021-02-21T06:30:59Z</time>
      </trkpt>
      <trkpt lat="44.45607" lon="6.52105">
        <ele>2385</ele>
        <time>2021-02-21T06:31:00Z</time>
      </trkpt>
      <trkpt lat="44.45608" lon="6.52104">
        <ele>2385</ele>
        <time>2021-02-21T06:31:01Z</time>
      </trkpt>
      <trkpt lat="44.45608" lon="6.52104">
        <ele>2384</ele>
        <time>2021-02-21T06:31:02Z</time>
      </trkpt>
      <trkpt lat="44.45609" lon="6.52104">
        <ele>2384</ele>
        <time>2021-02-21T06:31:03Z</time>
      </trkpt>
      <trkpt lat="44.4561" lon="6.52103">
        <ele>2384</ele>
        <time>2021-02-21T06:31:04Z</time>
      </trkpt>
      <trkpt lat="44.4561" lon="6.52102">
        <ele>2384</ele>
        <time>2021-02-21T06:31:05Z</time>
      </trkpt>
      <trkpt lat="44.45611" lon="6.52102">
        <ele>2384</ele>
        <time>2021-02-21T06:31:06Z</time>
      </trkpt>
      <trkpt lat="44.45611" lon="6.52102">
        <ele>2384</ele>
        <time>2021-02-21T06:31:07Z</time>
      </trkpt>
      <trkpt lat="44.45611" lon="6.52102">
        <ele>2384</ele>
        <time>2021-02-21T06:31:08Z</time>
      </trkpt>
      <trkpt lat="44.45611" lon="6.52102">
        <ele>2384</ele>
        <time>2021-02-21T06:31:09Z</time>
      </trkpt>
      <trkpt lat="44.45612" lon="6.52102">
        <ele>2384</ele>
        <time>2021-02-21T06:31:10Z</time>
      </trkpt>
      <trkpt lat="44.45613" lon="6.52103">
        <ele>2384</ele>
        <time>2021-02-21T06:31:11Z</time>
      </trkpt>
      <trkpt lat="44.45613" lon="6.52103">
        <ele>2385</ele>
        <time>2021-02-21T06:31:12Z</time>
      </trkpt>
      <trkpt lat="44.45614" lon="6.52104">
        <ele>2385</ele>
        <time>2021-02-21T06:31:13Z</time>
      </trkpt>
      <trkpt lat="44.45615" lon="6.52103">
        <ele>2385</ele>
        <time>2021-02-21T06:31:14Z</time>
      </trkpt>
      <trkpt lat="44.45615" lon="6.52102">
        <ele>2385</ele>
        <time>2021-02-21T06:31:15Z</time>
      </trkpt>
      <trkpt lat="44.45615" lon="6.52101">
        <ele>2385</ele>
        <time>2021-02-21T06:31:16Z</time>
      </trkpt>
      <trkpt lat="44.45615" lon="6.52101">
        <ele>2385</ele>
        <time>2021-02-21T06:31:17Z</time>
      </trkpt>
      <trkpt lat="44.45615" lon="6.52099">
        <ele>2385</ele>
        <time>2021-02-21T06:31:18Z</time>
      </trkpt>
      <trkpt lat="44.45615" lon="6.52099">
        <ele>2385</ele>
        <time>2021-02-21T06:31:19Z</time>
      </trkpt>
      <trkpt lat="44.45615" lon="6.52098">
        <ele>2385</ele>
        <time>2021-02-21T06:31:20Z</time>
      </trkpt>
      <trkpt lat="44.45614" lon="6.52096">
        <ele>2385</ele>
        <time>2021-02-21T06:31:21Z</time>
      </trkpt>
      <trkpt lat="44.45614" lon="6.52095">
        <ele>2386</ele>
        <time>2021-02-21T06:31:22Z</time>
      </trkpt>
      <trkpt lat="44.45614" lon="6.52095">
        <ele>2386</ele>
        <time>2021-02-21T06:31:23Z</time>
      </trkpt>
      <trkpt lat="44.45614" lon="6.52094">
        <ele>2386</ele>
        <time>2021-02-21T06:31:24Z</time>
      </trkpt>
      <trkpt lat="44.45614" lon="6.52093">
        <ele>2386</ele>
        <time>2021-02-21T06:31:25Z</time>
      </trkpt>
      <trkpt lat="44.45615" lon="6.52092">
        <ele>2386</ele>
        <time>2021-02-21T06:31:26Z</time>
      </trkpt>
      <trkpt lat="44.45615" lon="6.52091">
        <ele>2387</ele>
        <time>2021-02-21T06:31:27Z</time>
      </trkpt>
      <trkpt lat="44.45615" lon="6.52091">
        <ele>2387</ele>
        <time>2021-02-21T06:31:28Z</time>
      </trkpt>
      <trkpt lat="44.45615" lon="6.52091">
        <ele>2387</ele>
        <time>2021-02-21T06:31:29Z</time>
      </trkpt>
      <trkpt lat="44.45615" lon="6.52091">
        <ele>2387</ele>
        <time>2021-02-21T06:31:30Z</time>
      </trkpt>
      <trkpt lat="44.45615" lon="6.52091">
        <ele>2388</ele>
        <time>2021-02-21T06:31:31Z</time>
      </trkpt>
      <trkpt lat="44.45615" lon="6.52091">
        <ele>2388</ele>
        <time>2021-02-21T06:31:32Z</time>
      </trkpt>
      <trkpt lat="44.45615" lon="6.5209">
        <ele>2388</ele>
        <time>2021-02-21T06:31:33Z</time>
      </trkpt>
      <trkpt lat="44.45616" lon="6.5209">
        <ele>2388</ele>
        <time>2021-02-21T06:31:34Z</time>
      </trkpt>
      <trkpt lat="44.45616" lon="6.52089">
        <ele>2388</ele>
        <time>2021-02-21T06:31:35Z</time>
      </trkpt>
      <trkpt lat="44.45617" lon="6.52089">
        <ele>2388</ele>
        <time>2021-02-21T06:31:36Z</time>
      </trkpt>
      <trkpt lat="44.45618" lon="6.52088">
        <ele>2388</ele>
        <time>2021-02-21T06:31:37Z</time>
      </trkpt>
      <trkpt lat="44.45619" lon="6.52089">
        <ele>2388</ele>
        <time>2021-02-21T06:31:38Z</time>
      </trkpt>
      <trkpt lat="44.45619" lon="6.52089">
        <ele>2388</ele>
        <time>2021-02-21T06:31:39Z</time>
      </trkpt>
      <trkpt lat="44.45619" lon="6.52089">
        <ele>2388</ele>
        <time>2021-02-21T06:31:40Z</time>
      </trkpt>
      <trkpt lat="44.45619" lon="6.52089">
        <ele>2388</ele>
        <time>2021-02-21T06:31:41Z</time>
      </trkpt>
      <trkpt lat="44.45619" lon="6.52089">
        <ele>2388</ele>
        <time>2021-02-21T06:31:42Z</time>
      </trkpt>
      <trkpt lat="44.45619" lon="6.52089">
        <ele>2388</ele>
        <time>2021-02-21T06:31:43Z</time>
      </trkpt>
      <trkpt lat="44.45618" lon="6.5209">
        <ele>2388</ele>
        <time>2021-02-21T06:31:44Z</time>
      </trkpt>
      <trkpt lat="44.45618" lon="6.5209">
        <ele>2389</ele>
        <time>2021-02-21T06:31:45Z</time>
      </trkpt>
      <trkpt lat="44.45618" lon="6.52091">
        <ele>2389</ele>
        <time>2021-02-21T06:31:46Z</time>
      </trkpt>
      <trkpt lat="44.45618" lon="6.52091">
        <ele>2389</ele>
        <time>2021-02-21T06:31:47Z</time>
      </trkpt>
      <trkpt lat="44.45619" lon="6.5209">
        <ele>2390</ele>
        <time>2021-02-21T06:31:48Z</time>
      </trkpt>
      <trkpt lat="44.45619" lon="6.52091">
        <ele>2390</ele>
        <time>2021-02-21T06:31:49Z</time>
      </trkpt>
      <trkpt lat="44.45619" lon="6.52092">
        <ele>2390</ele>
        <time>2021-02-21T06:31:50Z</time>
      </trkpt>
      <trkpt lat="44.45619" lon="6.52092">
        <ele>2391</ele>
        <time>2021-02-21T06:31:51Z</time>
      </trkpt>
      <trkpt lat="44.4562" lon="6.52093">
        <ele>2391</ele>
        <time>2021-02-21T06:31:52Z</time>
      </trkpt>
      <trkpt lat="44.4562" lon="6.52093">
        <ele>2393</ele>
        <time>2021-02-21T06:31:53Z</time>
      </trkpt>
      <trkpt lat="44.45621" lon="6.52094">
        <ele>2394</ele>
        <time>2021-02-21T06:31:54Z</time>
      </trkpt>
      <trkpt lat="44.4562" lon="6.52093">
        <ele>2394</ele>
        <time>2021-02-21T06:31:55Z</time>
      </trkpt>
      <trkpt lat="44.45619" lon="6.52093">
        <ele>2395</ele>
        <time>2021-02-21T06:31:56Z</time>
      </trkpt>
      <trkpt lat="44.45619" lon="6.52093">
        <ele>2395</ele>
        <time>2021-02-21T06:31:57Z</time>
      </trkpt>
      <trkpt lat="44.45619" lon="6.52093">
        <ele>2395</ele>
        <time>2021-02-21T06:31:58Z</time>
      </trkpt>
      <trkpt lat="44.45619" lon="6.52093">
        <ele>2395</ele>
        <time>2021-02-21T06:31:59Z</time>
      </trkpt>
      <trkpt lat="44.45619" lon="6.52093">
        <ele>2395</ele>
        <time>2021-02-21T06:32:00Z</time>
      </trkpt>
      <trkpt lat="44.45617" lon="6.52092">
        <ele>2395</ele>
        <time>2021-02-21T06:32:01Z</time>
      </trkpt>
      <trkpt lat="44.45616" lon="6.52093">
        <ele>2396</ele>
        <time>2021-02-21T06:32:02Z</time>
      </trkpt>
      <trkpt lat="44.45616" lon="6.52095">
        <ele>2397</ele>
        <time>2021-02-21T06:32:03Z</time>
      </trkpt>
      <trkpt lat="44.45616" lon="6.52095">
        <ele>2397</ele>
        <time>2021-02-21T06:32:04Z</time>
      </trkpt>
      <trkpt lat="44.45616" lon="6.52095">
        <ele>2397</ele>
        <time>2021-02-21T06:32:05Z</time>
      </trkpt>
      <trkpt lat="44.45616" lon="6.52095">
        <ele>2397</ele>
        <time>2021-02-21T06:32:06Z</time>
      </trkpt>
      <trkpt lat="44.45617" lon="6.52096">
        <ele>2397</ele>
        <time>2021-02-21T06:32:07Z</time>
      </trkpt>
      <trkpt lat="44.45618" lon="6.52096">
        <ele>2397</ele>
        <time>2021-02-21T06:32:08Z</time>
      </trkpt>
      <trkpt lat="44.45618" lon="6.52095">
        <ele>2397</ele>
        <time>2021-02-21T06:32:09Z</time>
      </trkpt>
      <trkpt lat="44.45619" lon="6.52095">
        <ele>2398</ele>
        <time>2021-02-21T06:32:10Z</time>
      </trkpt>
      <trkpt lat="44.45619" lon="6.52095">
        <ele>2398</ele>
        <time>2021-02-21T06:32:11Z</time>
      </trkpt>
      <trkpt lat="44.4562" lon="6.52095">
        <ele>2398</ele>
        <time>2021-02-21T06:32:12Z</time>
      </trkpt>
      <trkpt lat="44.45621" lon="6.52095">
        <ele>2399</ele>
        <time>2021-02-21T06:32:13Z</time>
      </trkpt>
      <trkpt lat="44.45622" lon="6.52095">
        <ele>2399</ele>
        <time>2021-02-21T06:32:14Z</time>
      </trkpt>
      <trkpt lat="44.45623" lon="6.52095">
        <ele>2399</ele>
        <time>2021-02-21T06:32:15Z</time>
      </trkpt>
      <trkpt lat="44.45623" lon="6.52094">
        <ele>2399</ele>
        <time>2021-02-21T06:32:16Z</time>
      </trkpt>
      <trkpt lat="44.45624" lon="6.52095">
        <ele>2399</ele>
        <time>2021-02-21T06:32:17Z</time>
      </trkpt>
      <trkpt lat="44.45625" lon="6.52095">
        <ele>2399</ele>
        <time>2021-02-21T06:32:18Z</time>
      </trkpt>
      <trkpt lat="44.45626" lon="6.52095">
        <ele>2399</ele>
        <time>2021-02-21T06:32:19Z</time>
      </trkpt>
      <trkpt lat="44.45626" lon="6.52096">
        <ele>2399</ele>
        <time>2021-02-21T06:32:20Z</time>
      </trkpt>
      <trkpt lat="44.45628" lon="6.52096">
        <ele>2399</ele>
        <time>2021-02-21T06:32:21Z</time>
      </trkpt>
      <trkpt lat="44.45628" lon="6.52096">
        <ele>2399</ele>
        <time>2021-02-21T06:32:22Z</time>
      </trkpt>
      <trkpt lat="44.45629" lon="6.52096">
        <ele>2398</ele>
        <time>2021-02-21T06:32:23Z</time>
      </trkpt>
      <trkpt lat="44.4563" lon="6.52096">
        <ele>2398</ele>
        <time>2021-02-21T06:32:24Z</time>
      </trkpt>
      <trkpt lat="44.4563" lon="6.52096">
        <ele>2398</ele>
        <time>2021-02-21T06:32:25Z</time>
      </trkpt>
      <trkpt lat="44.45631" lon="6.52096">
        <ele>2398</ele>
        <time>2021-02-21T06:32:26Z</time>
      </trkpt>
      <trkpt lat="44.45632" lon="6.52096">
        <ele>2398</ele>
        <time>2021-02-21T06:32:27Z</time>
      </trkpt>
      <trkpt lat="44.45632" lon="6.52097">
        <ele>2398</ele>
        <time>2021-02-21T06:32:28Z</time>
      </trkpt>
      <trkpt lat="44.45633" lon="6.52098">
        <ele>2398</ele>
        <time>2021-02-21T06:32:29Z</time>
      </trkpt>
      <trkpt lat="44.45633" lon="6.52098">
        <ele>2397</ele>
        <time>2021-02-21T06:32:30Z</time>
      </trkpt>
      <trkpt lat="44.45634" lon="6.52098">
        <ele>2397</ele>
        <time>2021-02-21T06:32:31Z</time>
      </trkpt>
      <trkpt lat="44.45634" lon="6.52099">
        <ele>2397</ele>
        <time>2021-02-21T06:32:32Z</time>
      </trkpt>
      <trkpt lat="44.45635" lon="6.52099">
        <ele>2397</ele>
        <time>2021-02-21T06:32:33Z</time>
      </trkpt>
      <trkpt lat="44.45636" lon="6.52099">
        <ele>2397</ele>
        <time>2021-02-21T06:32:34Z</time>
      </trkpt>
      <trkpt lat="44.45635" lon="6.52099">
        <ele>2397</ele>
        <time>2021-02-21T06:32:35Z</time>
      </trkpt>
      <trkpt lat="44.45634" lon="6.52096">
        <ele>2397</ele>
        <time>2021-02-21T06:32:36Z</time>
      </trkpt>
      <trkpt lat="44.45634" lon="6.52095">
        <ele>2397</ele>
        <time>2021-02-21T06:32:37Z</time>
      </trkpt>
      <trkpt lat="44.45634" lon="6.52094">
        <ele>2397</ele>
        <time>2021-02-21T06:32:38Z</time>
      </trkpt>
      <trkpt lat="44.45634" lon="6.52093">
        <ele>2397</ele>
        <time>2021-02-21T06:32:39Z</time>
      </trkpt>
      <trkpt lat="44.45634" lon="6.52092">
        <ele>2396</ele>
        <time>2021-02-21T06:32:40Z</time>
      </trkpt>
      <trkpt lat="44.45634" lon="6.52091">
        <ele>2396</ele>
        <time>2021-02-21T06:32:41Z</time>
      </trkpt>
      <trkpt lat="44.45633" lon="6.5209">
        <ele>2396</ele>
        <time>2021-02-21T06:32:42Z</time>
      </trkpt>
      <trkpt lat="44.45633" lon="6.52089">
        <ele>2395</ele>
        <time>2021-02-21T06:32:43Z</time>
      </trkpt>
      <trkpt lat="44.45633" lon="6.52089">
        <ele>2395</ele>
        <time>2021-02-21T06:32:44Z</time>
      </trkpt>
      <trkpt lat="44.45633" lon="6.52089">
        <ele>2395</ele>
        <time>2021-02-21T06:32:45Z</time>
      </trkpt>
      <trkpt lat="44.45633" lon="6.52087">
        <ele>2395</ele>
        <time>2021-02-21T06:32:46Z</time>
      </trkpt>
      <trkpt lat="44.45632" lon="6.52086">
        <ele>2395</ele>
        <time>2021-02-21T06:32:47Z</time>
      </trkpt>
      <trkpt lat="44.45632" lon="6.52084">
        <ele>2395</ele>
        <time>2021-02-21T06:32:48Z</time>
      </trkpt>
      <trkpt lat="44.45631" lon="6.52084">
        <ele>2394</ele>
        <time>2021-02-21T06:32:49Z</time>
      </trkpt>
      <trkpt lat="44.45631" lon="6.52083">
        <ele>2394</ele>
        <time>2021-02-21T06:32:50Z</time>
      </trkpt>
      <trkpt lat="44.4563" lon="6.52082">
        <ele>2394</ele>
        <time>2021-02-21T06:32:51Z</time>
      </trkpt>
      <trkpt lat="44.4563" lon="6.52082">
        <ele>2394</ele>
        <time>2021-02-21T06:32:52Z</time>
      </trkpt>
      <trkpt lat="44.45629" lon="6.52081">
        <ele>2394</ele>
        <time>2021-02-21T06:32:53Z</time>
      </trkpt>
      <trkpt lat="44.45629" lon="6.5208">
        <ele>2394</ele>
        <time>2021-02-21T06:32:54Z</time>
      </trkpt>
      <trkpt lat="44.45629" lon="6.5208">
        <ele>2394</ele>
        <time>2021-02-21T06:32:55Z</time>
      </trkpt>
      <trkpt lat="44.45629" lon="6.52079">
        <ele>2394</ele>
        <time>2021-02-21T06:32:56Z</time>
      </trkpt>
      <trkpt lat="44.45628" lon="6.52077">
        <ele>2394</ele>
        <time>2021-02-21T06:32:57Z</time>
      </trkpt>
      <trkpt lat="44.45628" lon="6.52077">
        <ele>2394</ele>
        <time>2021-02-21T06:32:58Z</time>
      </trkpt>
      <trkpt lat="44.45628" lon="6.52076">
        <ele>2394</ele>
        <time>2021-02-21T06:32:59Z</time>
      </trkpt>
      <trkpt lat="44.45628" lon="6.52075">
        <ele>2394</ele>
        <time>2021-02-21T06:33:00Z</time>
      </trkpt>
      <trkpt lat="44.45628" lon="6.52074">
        <ele>2394</ele>
        <time>2021-02-21T06:33:01Z</time>
      </trkpt>
      <trkpt lat="44.45628" lon="6.52074">
        <ele>2394</ele>
        <time>2021-02-21T06:33:02Z</time>
      </trkpt>
      <trkpt lat="44.45628" lon="6.52073">
        <ele>2394</ele>
        <time>2021-02-21T06:33:03Z</time>
      </trkpt>
      <trkpt lat="44.45628" lon="6.52072">
        <ele>2395</ele>
        <time>2021-02-21T06:33:04Z</time>
      </trkpt>
      <trkpt lat="44.45629" lon="6.5207">
        <ele>2396</ele>
        <time>2021-02-21T06:33:05Z</time>
      </trkpt>
      <trkpt lat="44.45629" lon="6.52069">
        <ele>2396</ele>
        <time>2021-02-21T06:33:06Z</time>
      </trkpt>
      <trkpt lat="44.45629" lon="6.52067">
        <ele>2396</ele>
        <time>2021-02-21T06:33:07Z</time>
      </trkpt>
      <trkpt lat="44.45629" lon="6.52066">
        <ele>2396</ele>
        <time>2021-02-21T06:33:08Z</time>
      </trkpt>
      <trkpt lat="44.45629" lon="6.52064">
        <ele>2397</ele>
        <time>2021-02-21T06:33:09Z</time>
      </trkpt>
      <trkpt lat="44.45629" lon="6.52064">
        <ele>2398</ele>
        <time>2021-02-21T06:33:10Z</time>
      </trkpt>
      <trkpt lat="44.45629" lon="6.52063">
        <ele>2398</ele>
        <time>2021-02-21T06:33:11Z</time>
      </trkpt>
      <trkpt lat="44.4563" lon="6.52062">
        <ele>2398</ele>
        <time>2021-02-21T06:33:12Z</time>
      </trkpt>
      <trkpt lat="44.45629" lon="6.52061">
        <ele>2398</ele>
        <time>2021-02-21T06:33:13Z</time>
      </trkpt>
      <trkpt lat="44.4563" lon="6.52061">
        <ele>2398</ele>
        <time>2021-02-21T06:33:14Z</time>
      </trkpt>
      <trkpt lat="44.45631" lon="6.52061">
        <ele>2397</ele>
        <time>2021-02-21T06:33:15Z</time>
      </trkpt>
      <trkpt lat="44.45632" lon="6.52062">
        <ele>2397</ele>
        <time>2021-02-21T06:33:16Z</time>
      </trkpt>
      <trkpt lat="44.45633" lon="6.52064">
        <ele>2397</ele>
        <time>2021-02-21T06:33:17Z</time>
      </trkpt>
      <trkpt lat="44.45633" lon="6.52064">
        <ele>2397</ele>
        <time>2021-02-21T06:33:18Z</time>
      </trkpt>
      <trkpt lat="44.45633" lon="6.52065">
        <ele>2397</ele>
        <time>2021-02-21T06:33:19Z</time>
      </trkpt>
      <trkpt lat="44.45633" lon="6.52065">
        <ele>2398</ele>
        <time>2021-02-21T06:33:20Z</time>
      </trkpt>
      <trkpt lat="44.45634" lon="6.52066">
        <ele>2398</ele>
        <time>2021-02-21T06:33:21Z</time>
      </trkpt>
      <trkpt lat="44.45634" lon="6.52068">
        <ele>2399</ele>
        <time>2021-02-21T06:33:22Z</time>
      </trkpt>
      <trkpt lat="44.45635" lon="6.52068">
        <ele>2399</ele>
        <time>2021-02-21T06:33:23Z</time>
      </trkpt>
      <trkpt lat="44.45635" lon="6.5207">
        <ele>2399</ele>
        <time>2021-02-21T06:33:24Z</time>
      </trkpt>
      <trkpt lat="44.45636" lon="6.5207">
        <ele>2400</ele>
        <time>2021-02-21T06:33:25Z</time>
      </trkpt>
      <trkpt lat="44.45636" lon="6.5207">
        <ele>2400</ele>
        <time>2021-02-21T06:33:26Z</time>
      </trkpt>
      <trkpt lat="44.45637" lon="6.5207">
        <ele>2400</ele>
        <time>2021-02-21T06:33:27Z</time>
      </trkpt>
      <trkpt lat="44.45637" lon="6.5207">
        <ele>2401</ele>
        <time>2021-02-21T06:33:28Z</time>
      </trkpt>
      <trkpt lat="44.45637" lon="6.5207">
        <ele>2401</ele>
        <time>2021-02-21T06:33:29Z</time>
      </trkpt>
      <trkpt lat="44.45638" lon="6.5207">
        <ele>2401</ele>
        <time>2021-02-21T06:33:30Z</time>
      </trkpt>
      <trkpt lat="44.45638" lon="6.5207">
        <ele>2401</ele>
        <time>2021-02-21T06:33:31Z</time>
      </trkpt>
      <trkpt lat="44.45639" lon="6.5207">
        <ele>2401</ele>
        <time>2021-02-21T06:33:32Z</time>
      </trkpt>
      <trkpt lat="44.45639" lon="6.5207">
        <ele>2401</ele>
        <time>2021-02-21T06:33:33Z</time>
      </trkpt>
      <trkpt lat="44.45639" lon="6.52069">
        <ele>2401</ele>
        <time>2021-02-21T06:33:34Z</time>
      </trkpt>
      <trkpt lat="44.4564" lon="6.52069">
        <ele>2401</ele>
        <time>2021-02-21T06:33:35Z</time>
      </trkpt>
      <trkpt lat="44.45639" lon="6.52069">
        <ele>2401</ele>
        <time>2021-02-21T06:33:36Z</time>
      </trkpt>
      <trkpt lat="44.45639" lon="6.52069">
        <ele>2401</ele>
        <time>2021-02-21T06:33:37Z</time>
      </trkpt>
      <trkpt lat="44.4564" lon="6.52069">
        <ele>2401</ele>
        <time>2021-02-21T06:33:38Z</time>
      </trkpt>
      <trkpt lat="44.4564" lon="6.52068">
        <ele>2401</ele>
        <time>2021-02-21T06:33:39Z</time>
      </trkpt>
      <trkpt lat="44.4564" lon="6.52068">
        <ele>2401</ele>
        <time>2021-02-21T06:33:40Z</time>
      </trkpt>
      <trkpt lat="44.4564" lon="6.52068">
        <ele>2401</ele>
        <time>2021-02-21T06:33:41Z</time>
      </trkpt>
      <trkpt lat="44.4564" lon="6.52068">
        <ele>2401</ele>
        <time>2021-02-21T06:33:42Z</time>
      </trkpt>
      <trkpt lat="44.4564" lon="6.52068">
        <ele>2401</ele>
        <time>2021-02-21T06:33:43Z</time>
      </trkpt>
      <trkpt lat="44.4564" lon="6.52067">
        <ele>2401</ele>
        <time>2021-02-21T06:33:44Z</time>
      </trkpt>
      <trkpt lat="44.4564" lon="6.52066">
        <ele>2401</ele>
        <time>2021-02-21T06:33:45Z</time>
      </trkpt>
      <trkpt lat="44.45641" lon="6.52065">
        <ele>2401</ele>
        <time>2021-02-21T06:33:46Z</time>
      </trkpt>
      <trkpt lat="44.45641" lon="6.52065">
        <ele>2401</ele>
        <time>2021-02-21T06:33:47Z</time>
      </trkpt>
      <trkpt lat="44.45641" lon="6.52064">
        <ele>2401</ele>
        <time>2021-02-21T06:33:48Z</time>
      </trkpt>
      <trkpt lat="44.45642" lon="6.52063">
        <ele>2401</ele>
        <time>2021-02-21T06:33:49Z</time>
      </trkpt>
      <trkpt lat="44.45642" lon="6.52062">
        <ele>2401</ele>
        <time>2021-02-21T06:33:50Z</time>
      </trkpt>
      <trkpt lat="44.45642" lon="6.52061">
        <ele>2400</ele>
        <time>2021-02-21T06:33:51Z</time>
      </trkpt>
      <trkpt lat="44.45643" lon="6.5206">
        <ele>2401</ele>
        <time>2021-02-21T06:33:52Z</time>
      </trkpt>
      <trkpt lat="44.45643" lon="6.5206">
        <ele>2401</ele>
        <time>2021-02-21T06:33:53Z</time>
      </trkpt>
      <trkpt lat="44.45643" lon="6.52059">
        <ele>2401</ele>
        <time>2021-02-21T06:33:54Z</time>
      </trkpt>
      <trkpt lat="44.45644" lon="6.52059">
        <ele>2401</ele>
        <time>2021-02-21T06:33:55Z</time>
      </trkpt>
      <trkpt lat="44.45644" lon="6.52058">
        <ele>2402</ele>
        <time>2021-02-21T06:33:56Z</time>
      </trkpt>
      <trkpt lat="44.45644" lon="6.52058">
        <ele>2402</ele>
        <time>2021-02-21T06:33:57Z</time>
      </trkpt>
      <trkpt lat="44.45644" lon="6.52057">
        <ele>2402</ele>
        <time>2021-02-21T06:33:58Z</time>
      </trkpt>
      <trkpt lat="44.45643" lon="6.52057">
        <ele>2403</ele>
        <time>2021-02-21T06:33:59Z</time>
      </trkpt>
      <trkpt lat="44.45643" lon="6.52057">
        <ele>2403</ele>
        <time>2021-02-21T06:34:00Z</time>
      </trkpt>
      <trkpt lat="44.45643" lon="6.52057">
        <ele>2403</ele>
        <time>2021-02-21T06:34:01Z</time>
      </trkpt>
      <trkpt lat="44.45642" lon="6.52058">
        <ele>2404</ele>
        <time>2021-02-21T06:34:02Z</time>
      </trkpt>
      <trkpt lat="44.45642" lon="6.52059">
        <ele>2404</ele>
        <time>2021-02-21T06:34:03Z</time>
      </trkpt>
      <trkpt lat="44.45643" lon="6.52061">
        <ele>2404</ele>
        <time>2021-02-21T06:34:04Z</time>
      </trkpt>
      <trkpt lat="44.45643" lon="6.52062">
        <ele>2404</ele>
        <time>2021-02-21T06:34:05Z</time>
      </trkpt>
      <trkpt lat="44.45643" lon="6.52063">
        <ele>2405</ele>
        <time>2021-02-21T06:34:06Z</time>
      </trkpt>
      <trkpt lat="44.45643" lon="6.52065">
        <ele>2405</ele>
        <time>2021-02-21T06:34:07Z</time>
      </trkpt>
      <trkpt lat="44.45644" lon="6.52067">
        <ele>2409</ele>
        <time>2021-02-21T06:34:08Z</time>
      </trkpt>
      <trkpt lat="44.45645" lon="6.52067">
        <ele>2411</ele>
        <time>2021-02-21T06:34:09Z</time>
      </trkpt>
      <trkpt lat="44.45645" lon="6.52067">
        <ele>2412</ele>
        <time>2021-02-21T06:34:10Z</time>
      </trkpt>
      <trkpt lat="44.45645" lon="6.52069">
        <ele>2413</ele>
        <time>2021-02-21T06:34:11Z</time>
      </trkpt>
      <trkpt lat="44.45645" lon="6.5207">
        <ele>2414</ele>
        <time>2021-02-21T06:34:12Z</time>
      </trkpt>
      <trkpt lat="44.45645" lon="6.52071">
        <ele>2414</ele>
        <time>2021-02-21T06:34:13Z</time>
      </trkpt>
      <trkpt lat="44.45645" lon="6.52072">
        <ele>2415</ele>
        <time>2021-02-21T06:34:14Z</time>
      </trkpt>
      <trkpt lat="44.45645" lon="6.52072">
        <ele>2416</ele>
        <time>2021-02-21T06:34:15Z</time>
      </trkpt>
      <trkpt lat="44.45645" lon="6.52072">
        <ele>2417</ele>
        <time>2021-02-21T06:34:16Z</time>
      </trkpt>
      <trkpt lat="44.45646" lon="6.52072">
        <ele>2417</ele>
        <time>2021-02-21T06:34:17Z</time>
      </trkpt>
      <trkpt lat="44.45646" lon="6.52071">
        <ele>2417</ele>
        <time>2021-02-21T06:34:18Z</time>
      </trkpt>
      <trkpt lat="44.45645" lon="6.52071">
        <ele>2418</ele>
        <time>2021-02-21T06:34:19Z</time>
      </trkpt>
      <trkpt lat="44.45645" lon="6.5207">
        <ele>2418</ele>
        <time>2021-02-21T06:34:20Z</time>
      </trkpt>
      <trkpt lat="44.45645" lon="6.5207">
        <ele>2418</ele>
        <time>2021-02-21T06:34:21Z</time>
      </trkpt>
      <trkpt lat="44.45645" lon="6.5207">
        <ele>2418</ele>
        <time>2021-02-21T06:34:22Z</time>
      </trkpt>
      <trkpt lat="44.45644" lon="6.52071">
        <ele>2418</ele>
        <time>2021-02-21T06:34:23Z</time>
      </trkpt>
      <trkpt lat="44.45644" lon="6.52072">
        <ele>2418</ele>
        <time>2021-02-21T06:34:24Z</time>
      </trkpt>
      <trkpt lat="44.45644" lon="6.52072">
        <ele>2419</ele>
        <time>2021-02-21T06:34:25Z</time>
      </trkpt>
      <trkpt lat="44.45644" lon="6.52073">
        <ele>2419</ele>
        <time>2021-02-21T06:34:26Z</time>
      </trkpt>
      <trkpt lat="44.45645" lon="6.52074">
        <ele>2419</ele>
        <time>2021-02-21T06:34:27Z</time>
      </trkpt>
      <trkpt lat="44.45646" lon="6.52074">
        <ele>2419</ele>
        <time>2021-02-21T06:34:28Z</time>
      </trkpt>
      <trkpt lat="44.45646" lon="6.52075">
        <ele>2419</ele>
        <time>2021-02-21T06:34:29Z</time>
      </trkpt>
      <trkpt lat="44.45647" lon="6.52075">
        <ele>2419</ele>
        <time>2021-02-21T06:34:30Z</time>
      </trkpt>
      <trkpt lat="44.45648" lon="6.52075">
        <ele>2419</ele>
        <time>2021-02-21T06:34:31Z</time>
      </trkpt>
      <trkpt lat="44.45648" lon="6.52075">
        <ele>2419</ele>
        <time>2021-02-21T06:34:32Z</time>
      </trkpt>
      <trkpt lat="44.45649" lon="6.52075">
        <ele>2419</ele>
        <time>2021-02-21T06:34:33Z</time>
      </trkpt>
      <trkpt lat="44.45649" lon="6.52074">
        <ele>2419</ele>
        <time>2021-02-21T06:34:34Z</time>
      </trkpt>
      <trkpt lat="44.45649" lon="6.52074">
        <ele>2419</ele>
        <time>2021-02-21T06:34:35Z</time>
      </trkpt>
      <trkpt lat="44.45649" lon="6.52074">
        <ele>2419</ele>
        <time>2021-02-21T06:34:36Z</time>
      </trkpt>
      <trkpt lat="44.45649" lon="6.52074">
        <ele>2420</ele>
        <time>2021-02-21T06:34:37Z</time>
      </trkpt>
      <trkpt lat="44.45649" lon="6.52074">
        <ele>2420</ele>
        <time>2021-02-21T06:34:38Z</time>
      </trkpt>
      <trkpt lat="44.45649" lon="6.52074">
        <ele>2420</ele>
        <time>2021-02-21T06:34:39Z</time>
      </trkpt>
      <trkpt lat="44.45651" lon="6.52074">
        <ele>2420</ele>
        <time>2021-02-21T06:34:40Z</time>
      </trkpt>
      <trkpt lat="44.45652" lon="6.52074">
        <ele>2420</ele>
        <time>2021-02-21T06:34:41Z</time>
      </trkpt>
      <trkpt lat="44.45651" lon="6.52074">
        <ele>2420</ele>
        <time>2021-02-21T06:34:42Z</time>
      </trkpt>
      <trkpt lat="44.45651" lon="6.52074">
        <ele>2420</ele>
        <time>2021-02-21T06:34:43Z</time>
      </trkpt>
      <trkpt lat="44.45651" lon="6.52073">
        <ele>2420</ele>
        <time>2021-02-21T06:34:44Z</time>
      </trkpt>
      <trkpt lat="44.45651" lon="6.52073">
        <ele>2420</ele>
        <time>2021-02-21T06:34:45Z</time>
      </trkpt>
      <trkpt lat="44.45651" lon="6.52072">
        <ele>2420</ele>
        <time>2021-02-21T06:34:46Z</time>
      </trkpt>
      <trkpt lat="44.4565" lon="6.5207">
        <ele>2420</ele>
        <time>2021-02-21T06:34:47Z</time>
      </trkpt>
      <trkpt lat="44.4565" lon="6.5207">
        <ele>2420</ele>
        <time>2021-02-21T06:34:48Z</time>
      </trkpt>
      <trkpt lat="44.4565" lon="6.5207">
        <ele>2420</ele>
        <time>2021-02-21T06:34:49Z</time>
      </trkpt>
      <trkpt lat="44.4565" lon="6.5207">
        <ele>2420</ele>
        <time>2021-02-21T06:34:50Z</time>
      </trkpt>
      <trkpt lat="44.4565" lon="6.5207">
        <ele>2420</ele>
        <time>2021-02-21T06:34:51Z</time>
      </trkpt>
      <trkpt lat="44.4565" lon="6.5207">
        <ele>2420</ele>
        <time>2021-02-21T06:34:52Z</time>
      </trkpt>
      <trkpt lat="44.4565" lon="6.5207">
        <ele>2420</ele>
        <time>2021-02-21T06:34:53Z</time>
      </trkpt>
      <trkpt lat="44.4565" lon="6.5207">
        <ele>2420</ele>
        <time>2021-02-21T06:34:54Z</time>
      </trkpt>
      <trkpt lat="44.4565" lon="6.5207">
        <ele>2420</ele>
        <time>2021-02-21T06:34:55Z</time>
      </trkpt>
      <trkpt lat="44.4565" lon="6.5207">
        <ele>2420</ele>
        <time>2021-02-21T06:34:56Z</time>
      </trkpt>
      <trkpt lat="44.4565" lon="6.5207">
        <ele>2420</ele>
        <time>2021-02-21T06:34:57Z</time>
      </trkpt>
      <trkpt lat="44.4565" lon="6.5207">
        <ele>2420</ele>
        <time>2021-02-21T06:34:58Z</time>
      </trkpt>
      <trkpt lat="44.4565" lon="6.5207">
        <ele>2420</ele>
        <time>2021-02-21T06:34:59Z</time>
      </trkpt>
      <trkpt lat="44.45649" lon="6.5207">
        <ele>2421</ele>
        <time>2021-02-21T06:35:00Z</time>
      </trkpt>
      <trkpt lat="44.4565" lon="6.5207">
        <ele>2421</ele>
        <time>2021-02-21T06:35:01Z</time>
      </trkpt>
      <trkpt lat="44.4565" lon="6.52071">
        <ele>2421</ele>
        <time>2021-02-21T06:35:02Z</time>
      </trkpt>
      <trkpt lat="44.4565" lon="6.52071">
        <ele>2421</ele>
        <time>2021-02-21T06:35:03Z</time>
      </trkpt>
      <trkpt lat="44.4565" lon="6.52071">
        <ele>2421</ele>
        <time>2021-02-21T06:35:04Z</time>
      </trkpt>
      <trkpt lat="44.4565" lon="6.52071">
        <ele>2421</ele>
        <time>2021-02-21T06:35:05Z</time>
      </trkpt>
      <trkpt lat="44.4565" lon="6.52071">
        <ele>2421</ele>
        <time>2021-02-21T06:35:06Z</time>
      </trkpt>
      <trkpt lat="44.45649" lon="6.52069">
        <ele>2421</ele>
        <time>2021-02-21T06:35:07Z</time>
      </trkpt>
      <trkpt lat="44.45649" lon="6.52068">
        <ele>2421</ele>
        <time>2021-02-21T06:35:08Z</time>
      </trkpt>
      <trkpt lat="44.45649" lon="6.52068">
        <ele>2421</ele>
        <time>2021-02-21T06:35:09Z</time>
      </trkpt>
      <trkpt lat="44.45649" lon="6.52067">
        <ele>2421</ele>
        <time>2021-02-21T06:35:10Z</time>
      </trkpt>
      <trkpt lat="44.45649" lon="6.52067">
        <ele>2421</ele>
        <time>2021-02-21T06:35:11Z</time>
      </trkpt>
      <trkpt lat="44.45649" lon="6.52067">
        <ele>2421</ele>
        <time>2021-02-21T06:35:12Z</time>
      </trkpt>
      <trkpt lat="44.45649" lon="6.52067">
        <ele>2421</ele>
        <time>2021-02-21T06:35:13Z</time>
      </trkpt>
      <trkpt lat="44.45649" lon="6.52067">
        <ele>2421</ele>
        <time>2021-02-21T06:35:14Z</time>
      </trkpt>
      <trkpt lat="44.45649" lon="6.52067">
        <ele>2421</ele>
        <time>2021-02-21T06:35:15Z</time>
      </trkpt>
      <trkpt lat="44.45649" lon="6.52067">
        <ele>2421</ele>
        <time>2021-02-21T06:35:16Z</time>
      </trkpt>
      <trkpt lat="44.45649" lon="6.52067">
        <ele>2421</ele>
        <time>2021-02-21T06:35:17Z</time>
      </trkpt>
      <trkpt lat="44.45649" lon="6.52067">
        <ele>2421</ele>
        <time>2021-02-21T06:35:18Z</time>
      </trkpt>
      <trkpt lat="44.45649" lon="6.52067">
        <ele>2421</ele>
        <time>2021-02-21T06:35:19Z</time>
      </trkpt>
      <trkpt lat="44.45649" lon="6.52067">
        <ele>2421</ele>
        <time>2021-02-21T06:35:20Z</time>
      </trkpt>
      <trkpt lat="44.45649" lon="6.52067">
        <ele>2421</ele>
        <time>2021-02-21T06:35:21Z</time>
      </trkpt>
      <trkpt lat="44.45649" lon="6.52067">
        <ele>2421</ele>
        <time>2021-02-21T06:35:22Z</time>
      </trkpt>
      <trkpt lat="44.45649" lon="6.52067">
        <ele>2421</ele>
        <time>2021-02-21T06:35:23Z</time>
      </trkpt>
      <trkpt lat="44.45649" lon="6.52067">
        <ele>2421</ele>
        <time>2021-02-21T06:35:24Z</time>
      </trkpt>
      <trkpt lat="44.45649" lon="6.52067">
        <ele>2421</ele>
        <time>2021-02-21T06:35:25Z</time>
      </trkpt>
      <trkpt lat="44.45649" lon="6.52067">
        <ele>2421</ele>
        <time>2021-02-21T06:35:26Z</time>
      </trkpt>
      <trkpt lat="44.45649" lon="6.52067">
        <ele>2421</ele>
        <time>2021-02-21T06:35:27Z</time>
      </trkpt>
      <trkpt lat="44.45649" lon="6.52067">
        <ele>2421</ele>
        <time>2021-02-21T06:35:28Z</time>
      </trkpt>
      <trkpt lat="44.45649" lon="6.52067">
        <ele>2421</ele>
        <time>2021-02-21T06:35:29Z</time>
      </trkpt>
      <trkpt lat="44.45649" lon="6.52067">
        <ele>2421</ele>
        <time>2021-02-21T06:35:30Z</time>
      </trkpt>
      <trkpt lat="44.45649" lon="6.52067">
        <ele>2421</ele>
        <time>2021-02-21T06:35:31Z</time>
      </trkpt>
      <trkpt lat="44.45649" lon="6.52067">
        <ele>2421</ele>
        <time>2021-02-21T06:35:32Z</time>
      </trkpt>
      <trkpt lat="44.45649" lon="6.52067">
        <ele>2421</ele>
        <time>2021-02-21T06:35:33Z</time>
      </trkpt>
      <trkpt lat="44.45649" lon="6.52067">
        <ele>2421</ele>
        <time>2021-02-21T06:35:34Z</time>
      </trkpt>
      <trkpt lat="44.45649" lon="6.52067">
        <ele>2421</ele>
        <time>2021-02-21T06:35:35Z</time>
      </trkpt>
      <trkpt lat="44.45649" lon="6.52067">
        <ele>2421</ele>
        <time>2021-02-21T06:35:36Z</time>
      </trkpt>
      <trkpt lat="44.45649" lon="6.52067">
        <ele>2421</ele>
        <time>2021-02-21T06:35:37Z</time>
      </trkpt>
      <trkpt lat="44.45649" lon="6.52067">
        <ele>2421</ele>
        <time>2021-02-21T06:35:38Z</time>
      </trkpt>
      <trkpt lat="44.45649" lon="6.52067">
        <ele>2421</ele>
        <time>2021-02-21T06:35:39Z</time>
      </trkpt>
      <trkpt lat="44.45649" lon="6.52067">
        <ele>2421</ele>
        <time>2021-02-21T06:35:40Z</time>
      </trkpt>
      <trkpt lat="44.45649" lon="6.52067">
        <ele>2421</ele>
        <time>2021-02-21T06:35:41Z</time>
      </trkpt>
      <trkpt lat="44.45649" lon="6.52067">
        <ele>2421</ele>
        <time>2021-02-21T06:35:42Z</time>
      </trkpt>
      <trkpt lat="44.45649" lon="6.52067">
        <ele>2421</ele>
        <time>2021-02-21T06:35:43Z</time>
      </trkpt>
      <trkpt lat="44.45649" lon="6.52067">
        <ele>2421</ele>
        <time>2021-02-21T06:35:44Z</time>
      </trkpt>
      <trkpt lat="44.45649" lon="6.52067">
        <ele>2421</ele>
        <time>2021-02-21T06:35:45Z</time>
      </trkpt>
      <trkpt lat="44.45649" lon="6.52067">
        <ele>2421</ele>
        <time>2021-02-21T06:35:46Z</time>
      </trkpt>
      <trkpt lat="44.45649" lon="6.52067">
        <ele>2421</ele>
        <time>2021-02-21T06:35:47Z</time>
      </trkpt>
      <trkpt lat="44.45649" lon="6.52067">
        <ele>2421</ele>
        <time>2021-02-21T06:35:48Z</time>
      </trkpt>
      <trkpt lat="44.45649" lon="6.52067">
        <ele>2421</ele>
        <time>2021-02-21T06:35:49Z</time>
      </trkpt>
      <trkpt lat="44.45649" lon="6.52067">
        <ele>2421</ele>
        <time>2021-02-21T06:35:50Z</time>
      </trkpt>
      <trkpt lat="44.45649" lon="6.52067">
        <ele>2421</ele>
        <time>2021-02-21T06:35:51Z</time>
      </trkpt>
      <trkpt lat="44.45649" lon="6.52067">
        <ele>2421</ele>
        <time>2021-02-21T06:35:52Z</time>
      </trkpt>
      <trkpt lat="44.45649" lon="6.52067">
        <ele>2421</ele>
        <time>2021-02-21T06:35:53Z</time>
      </trkpt>
      <trkpt lat="44.45648" lon="6.52068">
        <ele>2420</ele>
        <time>2021-02-21T06:35:54Z</time>
      </trkpt>
      <trkpt lat="44.45649" lon="6.52068">
        <ele>2420</ele>
        <time>2021-02-21T06:35:55Z</time>
      </trkpt>
      <trkpt lat="44.45649" lon="6.52068">
        <ele>2420</ele>
        <time>2021-02-21T06:35:56Z</time>
      </trkpt>
      <trkpt lat="44.45649" lon="6.52068">
        <ele>2420</ele>
        <time>2021-02-21T06:35:57Z</time>
      </trkpt>
      <trkpt lat="44.45648" lon="6.52068">
        <ele>2420</ele>
        <time>2021-02-21T06:35:58Z</time>
      </trkpt>
      <trkpt lat="44.45647" lon="6.52067">
        <ele>2420</ele>
        <time>2021-02-21T06:35:59Z</time>
      </trkpt>
      <trkpt lat="44.45647" lon="6.52067">
        <ele>2420</ele>
        <time>2021-02-21T06:36:00Z</time>
      </trkpt>
      <trkpt lat="44.45647" lon="6.52067">
        <ele>2420</ele>
        <time>2021-02-21T06:36:01Z</time>
      </trkpt>
      <trkpt lat="44.45647" lon="6.52067">
        <ele>2420</ele>
        <time>2021-02-21T06:36:02Z</time>
      </trkpt>
      <trkpt lat="44.45647" lon="6.52067">
        <ele>2420</ele>
        <time>2021-02-21T06:36:03Z</time>
      </trkpt>
      <trkpt lat="44.45647" lon="6.52067">
        <ele>2420</ele>
        <time>2021-02-21T06:36:04Z</time>
      </trkpt>
      <trkpt lat="44.45647" lon="6.52067">
        <ele>2420</ele>
        <time>2021-02-21T06:36:05Z</time>
      </trkpt>
      <trkpt lat="44.45647" lon="6.52067">
        <ele>2420</ele>
        <time>2021-02-21T06:36:06Z</time>
      </trkpt>
      <trkpt lat="44.45647" lon="6.52067">
        <ele>2420</ele>
        <time>2021-02-21T06:36:07Z</time>
      </trkpt>
      <trkpt lat="44.45647" lon="6.52067">
        <ele>2420</ele>
        <time>2021-02-21T06:36:08Z</time>
      </trkpt>
      <trkpt lat="44.45647" lon="6.52067">
        <ele>2420</ele>
        <time>2021-02-21T06:36:09Z</time>
      </trkpt>
      <trkpt lat="44.45647" lon="6.52067">
        <ele>2420</ele>
        <time>2021-02-21T06:36:10Z</time>
      </trkpt>
      <trkpt lat="44.45647" lon="6.52067">
        <ele>2420</ele>
        <time>2021-02-21T06:36:11Z</time>
      </trkpt>
      <trkpt lat="44.45647" lon="6.52067">
        <ele>2420</ele>
        <time>2021-02-21T06:36:12Z</time>
      </trkpt>
      <trkpt lat="44.45647" lon="6.52067">
        <ele>2420</ele>
        <time>2021-02-21T06:36:13Z</time>
      </trkpt>
      <trkpt lat="44.45647" lon="6.52067">
        <ele>2420</ele>
        <time>2021-02-21T06:36:14Z</time>
      </trkpt>
      <trkpt lat="44.45647" lon="6.52067">
        <ele>2420</ele>
        <time>2021-02-21T06:36:15Z</time>
      </trkpt>
      <trkpt lat="44.45647" lon="6.52067">
        <ele>2420</ele>
        <time>2021-02-21T06:36:16Z</time>
      </trkpt>
      <trkpt lat="44.45647" lon="6.52067">
        <ele>2420</ele>
        <time>2021-02-21T06:36:17Z</time>
      </trkpt>
      <trkpt lat="44.45647" lon="6.52067">
        <ele>2420</ele>
        <time>2021-02-21T06:36:18Z</time>
      </trkpt>
      <trkpt lat="44.45647" lon="6.52067">
        <ele>2420</ele>
        <time>2021-02-21T06:36:19Z</time>
      </trkpt>
      <trkpt lat="44.45647" lon="6.52067">
        <ele>2420</ele>
        <time>2021-02-21T06:36:20Z</time>
      </trkpt>
      <trkpt lat="44.45647" lon="6.52067">
        <ele>2420</ele>
        <time>2021-02-21T06:36:21Z</time>
      </trkpt>
      <trkpt lat="44.45647" lon="6.52067">
        <ele>2420</ele>
        <time>2021-02-21T06:36:22Z</time>
      </trkpt>
      <trkpt lat="44.45647" lon="6.52067">
        <ele>2420</ele>
        <time>2021-02-21T06:36:23Z</time>
      </trkpt>
      <trkpt lat="44.45647" lon="6.52067">
        <ele>2420</ele>
        <time>2021-02-21T06:36:24Z</time>
      </trkpt>
      <trkpt lat="44.45647" lon="6.52067">
        <ele>2420</ele>
        <time>2021-02-21T06:36:25Z</time>
      </trkpt>
      <trkpt lat="44.45647" lon="6.52067">
        <ele>2420</ele>
        <time>2021-02-21T06:36:26Z</time>
      </trkpt>
      <trkpt lat="44.45645" lon="6.52066">
        <ele>2418</ele>
        <time>2021-02-21T06:36:27Z</time>
      </trkpt>
      <trkpt lat="44.45645" lon="6.52066">
        <ele>2418</ele>
        <time>2021-02-21T06:36:28Z</time>
      </trkpt>
      <trkpt lat="44.45645" lon="6.52065">
        <ele>2417</ele>
        <time>2021-02-21T06:36:29Z</time>
      </trkpt>
      <trkpt lat="44.45645" lon="6.52065">
        <ele>2417</ele>
        <time>2021-02-21T06:36:30Z</time>
      </trkpt>
      <trkpt lat="44.45645" lon="6.52065">
        <ele>2417</ele>
        <time>2021-02-21T06:36:31Z</time>
      </trkpt>
      <trkpt lat="44.45645" lon="6.52065">
        <ele>2417</ele>
        <time>2021-02-21T06:36:32Z</time>
      </trkpt>
      <trkpt lat="44.45645" lon="6.52065">
        <ele>2416</ele>
        <time>2021-02-21T06:36:33Z</time>
      </trkpt>
      <trkpt lat="44.45646" lon="6.52066">
        <ele>2416</ele>
        <time>2021-02-21T06:36:34Z</time>
      </trkpt>
      <trkpt lat="44.45645" lon="6.52066">
        <ele>2416</ele>
        <time>2021-02-21T06:36:35Z</time>
      </trkpt>
      <trkpt lat="44.45645" lon="6.52066">
        <ele>2416</ele>
        <time>2021-02-21T06:36:36Z</time>
      </trkpt>
      <trkpt lat="44.45645" lon="6.52065">
        <ele>2416</ele>
        <time>2021-02-21T06:36:37Z</time>
      </trkpt>
      <trkpt lat="44.45645" lon="6.52065">
        <ele>2416</ele>
        <time>2021-02-21T06:36:38Z</time>
      </trkpt>
      <trkpt lat="44.45645" lon="6.52065">
        <ele>2416</ele>
        <time>2021-02-21T06:36:39Z</time>
      </trkpt>
      <trkpt lat="44.45645" lon="6.52065">
        <ele>2416</ele>
        <time>2021-02-21T06:36:40Z</time>
      </trkpt>
      <trkpt lat="44.45645" lon="6.52065">
        <ele>2416</ele>
        <time>2021-02-21T06:36:41Z</time>
      </trkpt>
      <trkpt lat="44.45645" lon="6.52065">
        <ele>2416</ele>
        <time>2021-02-21T06:36:42Z</time>
      </trkpt>
      <trkpt lat="44.45645" lon="6.52065">
        <ele>2416</ele>
        <time>2021-02-21T06:36:43Z</time>
      </trkpt>
      <trkpt lat="44.45645" lon="6.52065">
        <ele>2416</ele>
        <time>2021-02-21T06:36:44Z</time>
      </trkpt>
      <trkpt lat="44.45645" lon="6.52065">
        <ele>2416</ele>
        <time>2021-02-21T06:36:45Z</time>
      </trkpt>
      <trkpt lat="44.45645" lon="6.52065">
        <ele>2416</ele>
        <time>2021-02-21T06:36:46Z</time>
      </trkpt>
      <trkpt lat="44.45645" lon="6.52065">
        <ele>2416</ele>
        <time>2021-02-21T06:36:47Z</time>
      </trkpt>
      <trkpt lat="44.45645" lon="6.52065">
        <ele>2416</ele>
        <time>2021-02-21T06:36:48Z</time>
      </trkpt>
      <trkpt lat="44.45645" lon="6.52065">
        <ele>2416</ele>
        <time>2021-02-21T06:36:49Z</time>
      </trkpt>
      <trkpt lat="44.45645" lon="6.52065">
        <ele>2416</ele>
        <time>2021-02-21T06:36:50Z</time>
      </trkpt>
      <trkpt lat="44.45645" lon="6.52065">
        <ele>2416</ele>
        <time>2021-02-21T06:36:51Z</time>
      </trkpt>
      <trkpt lat="44.45645" lon="6.52065">
        <ele>2416</ele>
        <time>2021-02-21T06:36:52Z</time>
      </trkpt>
      <trkpt lat="44.45645" lon="6.52065">
        <ele>2416</ele>
        <time>2021-02-21T06:36:53Z</time>
      </trkpt>
      <trkpt lat="44.45645" lon="6.52065">
        <ele>2416</ele>
        <time>2021-02-21T06:36:54Z</time>
      </trkpt>
      <trkpt lat="44.45645" lon="6.52065">
        <ele>2416</ele>
        <time>2021-02-21T06:36:55Z</time>
      </trkpt>
      <trkpt lat="44.45645" lon="6.52065">
        <ele>2416</ele>
        <time>2021-02-21T06:36:56Z</time>
      </trkpt>
      <trkpt lat="44.45645" lon="6.52065">
        <ele>2416</ele>
        <time>2021-02-21T06:36:57Z</time>
      </trkpt>
      <trkpt lat="44.45645" lon="6.52065">
        <ele>2416</ele>
        <time>2021-02-21T06:36:58Z</time>
      </trkpt>
      <trkpt lat="44.45645" lon="6.52065">
        <ele>2416</ele>
        <time>2021-02-21T06:36:59Z</time>
      </trkpt>
      <trkpt lat="44.45645" lon="6.52065">
        <ele>2416</ele>
        <time>2021-02-21T06:37:00Z</time>
      </trkpt>
      <trkpt lat="44.45645" lon="6.52065">
        <ele>2416</ele>
        <time>2021-02-21T06:37:01Z</time>
      </trkpt>
      <trkpt lat="44.45645" lon="6.52065">
        <ele>2416</ele>
        <time>2021-02-21T06:37:02Z</time>
      </trkpt>
      <trkpt lat="44.45645" lon="6.52065">
        <ele>2416</ele>
        <time>2021-02-21T06:37:03Z</time>
      </trkpt>
      <trkpt lat="44.45645" lon="6.52065">
        <ele>2416</ele>
        <time>2021-02-21T06:37:04Z</time>
      </trkpt>
      <trkpt lat="44.45645" lon="6.52065">
        <ele>2416</ele>
        <time>2021-02-21T06:37:05Z</time>
      </trkpt>
      <trkpt lat="44.45645" lon="6.52065">
        <ele>2416</ele>
        <time>2021-02-21T06:37:06Z</time>
      </trkpt>
      <trkpt lat="44.45645" lon="6.52065">
        <ele>2416</ele>
        <time>2021-02-21T06:37:07Z</time>
      </trkpt>
      <trkpt lat="44.45645" lon="6.52065">
        <ele>2416</ele>
        <time>2021-02-21T06:37:08Z</time>
      </trkpt>
      <trkpt lat="44.45645" lon="6.52065">
        <ele>2416</ele>
        <time>2021-02-21T06:37:09Z</time>
      </trkpt>
      <trkpt lat="44.45645" lon="6.52065">
        <ele>2416</ele>
        <time>2021-02-21T06:37:10Z</time>
      </trkpt>
      <trkpt lat="44.45645" lon="6.52065">
        <ele>2416</ele>
        <time>2021-02-21T06:37:11Z</time>
      </trkpt>
      <trkpt lat="44.45645" lon="6.52065">
        <ele>2416</ele>
        <time>2021-02-21T06:37:12Z</time>
      </trkpt>
      <trkpt lat="44.45645" lon="6.52065">
        <ele>2416</ele>
        <time>2021-02-21T06:37:13Z</time>
      </trkpt>
      <trkpt lat="44.45645" lon="6.52065">
        <ele>2416</ele>
        <time>2021-02-21T06:37:14Z</time>
      </trkpt>
      <trkpt lat="44.45645" lon="6.52065">
        <ele>2416</ele>
        <time>2021-02-21T06:37:15Z</time>
      </trkpt>
      <trkpt lat="44.45645" lon="6.52065">
        <ele>2416</ele>
        <time>2021-02-21T06:37:16Z</time>
      </trkpt>
      <trkpt lat="44.45645" lon="6.52065">
        <ele>2416</ele>
        <time>2021-02-21T06:37:17Z</time>
      </trkpt>
      <trkpt lat="44.45645" lon="6.52065">
        <ele>2416</ele>
        <time>2021-02-21T06:37:18Z</time>
      </trkpt>
      <trkpt lat="44.45645" lon="6.52065">
        <ele>2416</ele>
        <time>2021-02-21T06:37:19Z</time>
      </trkpt>
      <trkpt lat="44.45645" lon="6.52065">
        <ele>2416</ele>
        <time>2021-02-21T06:37:20Z</time>
      </trkpt>
      <trkpt lat="44.45645" lon="6.52065">
        <ele>2416</ele>
        <time>2021-02-21T06:37:21Z</time>
      </trkpt>
      <trkpt lat="44.45645" lon="6.52065">
        <ele>2416</ele>
        <time>2021-02-21T06:37:22Z</time>
      </trkpt>
      <trkpt lat="44.45645" lon="6.52065">
        <ele>2416</ele>
        <time>2021-02-21T06:37:23Z</time>
      </trkpt>
      <trkpt lat="44.45645" lon="6.52065">
        <ele>2416</ele>
        <time>2021-02-21T06:37:24Z</time>
      </trkpt>
      <trkpt lat="44.45645" lon="6.52065">
        <ele>2416</ele>
        <time>2021-02-21T06:37:25Z</time>
      </trkpt>
      <trkpt lat="44.45645" lon="6.52065">
        <ele>2416</ele>
        <time>2021-02-21T06:37:26Z</time>
      </trkpt>
      <trkpt lat="44.45645" lon="6.52065">
        <ele>2416</ele>
        <time>2021-02-21T06:37:27Z</time>
      </trkpt>
      <trkpt lat="44.45645" lon="6.52065">
        <ele>2416</ele>
        <time>2021-02-21T06:37:28Z</time>
      </trkpt>
      <trkpt lat="44.45645" lon="6.52065">
        <ele>2416</ele>
        <time>2021-02-21T06:37:29Z</time>
      </trkpt>
      <trkpt lat="44.45645" lon="6.52065">
        <ele>2416</ele>
        <time>2021-02-21T06:37:30Z</time>
      </trkpt>
      <trkpt lat="44.45645" lon="6.52065">
        <ele>2416</ele>
        <time>2021-02-21T06:37:31Z</time>
      </trkpt>
      <trkpt lat="44.45645" lon="6.52065">
        <ele>2416</ele>
        <time>2021-02-21T06:37:32Z</time>
      </trkpt>
      <trkpt lat="44.45645" lon="6.52065">
        <ele>2416</ele>
        <time>2021-02-21T06:37:33Z</time>
      </trkpt>
      <trkpt lat="44.45645" lon="6.52065">
        <ele>2416</ele>
        <time>2021-02-21T06:37:34Z</time>
      </trkpt>
      <trkpt lat="44.45645" lon="6.52065">
        <ele>2416</ele>
        <time>2021-02-21T06:37:35Z</time>
      </trkpt>
      <trkpt lat="44.45645" lon="6.52065">
        <ele>2416</ele>
        <time>2021-02-21T06:37:36Z</time>
      </trkpt>
      <trkpt lat="44.45645" lon="6.52065">
        <ele>2416</ele>
        <time>2021-02-21T06:37:37Z</time>
      </trkpt>
      <trkpt lat="44.45645" lon="6.52065">
        <ele>2416</ele>
        <time>2021-02-21T06:37:38Z</time>
      </trkpt>
      <trkpt lat="44.45645" lon="6.52065">
        <ele>2416</ele>
        <time>2021-02-21T06:37:39Z</time>
      </trkpt>
      <trkpt lat="44.45645" lon="6.52065">
        <ele>2416</ele>
        <time>2021-02-21T06:37:40Z</time>
      </trkpt>
      <trkpt lat="44.45645" lon="6.52065">
        <ele>2416</ele>
        <time>2021-02-21T06:37:41Z</time>
      </trkpt>
      <trkpt lat="44.45645" lon="6.52065">
        <ele>2416</ele>
        <time>2021-02-21T06:37:42Z</time>
      </trkpt>
      <trkpt lat="44.45648" lon="6.5207">
        <ele>2416</ele>
        <time>2021-02-21T06:37:43Z</time>
      </trkpt>
      <trkpt lat="44.45648" lon="6.5207">
        <ele>2416</ele>
        <time>2021-02-21T06:37:44Z</time>
      </trkpt>
      <trkpt lat="44.45648" lon="6.52071">
        <ele>2416</ele>
        <time>2021-02-21T06:37:45Z</time>
      </trkpt>
      <trkpt lat="44.45648" lon="6.52071">
        <ele>2416</ele>
        <time>2021-02-21T06:37:46Z</time>
      </trkpt>
      <trkpt lat="44.45648" lon="6.52071">
        <ele>2416</ele>
        <time>2021-02-21T06:37:47Z</time>
      </trkpt>
      <trkpt lat="44.45648" lon="6.52072">
        <ele>2416</ele>
        <time>2021-02-21T06:37:48Z</time>
      </trkpt>
      <trkpt lat="44.45648" lon="6.52072">
        <ele>2416</ele>
        <time>2021-02-21T06:37:49Z</time>
      </trkpt>
      <trkpt lat="44.45648" lon="6.52072">
        <ele>2416</ele>
        <time>2021-02-21T06:37:50Z</time>
      </trkpt>
      <trkpt lat="44.45648" lon="6.52072">
        <ele>2416</ele>
        <time>2021-02-21T06:37:51Z</time>
      </trkpt>
      <trkpt lat="44.45648" lon="6.52072">
        <ele>2416</ele>
        <time>2021-02-21T06:37:52Z</time>
      </trkpt>
      <trkpt lat="44.45648" lon="6.52072">
        <ele>2416</ele>
        <time>2021-02-21T06:37:53Z</time>
      </trkpt>
      <trkpt lat="44.45648" lon="6.52072">
        <ele>2416</ele>
        <time>2021-02-21T06:37:54Z</time>
      </trkpt>
      <trkpt lat="44.45651" lon="6.52073">
        <ele>2416</ele>
        <time>2021-02-21T06:37:55Z</time>
      </trkpt>
      <trkpt lat="44.4565" lon="6.52073">
        <ele>2416</ele>
        <time>2021-02-21T06:37:56Z</time>
      </trkpt>
      <trkpt lat="44.4565" lon="6.52073">
        <ele>2416</ele>
        <time>2021-02-21T06:37:57Z</time>
      </trkpt>
      <trkpt lat="44.45651" lon="6.52074">
        <ele>2416</ele>
        <time>2021-02-21T06:37:58Z</time>
      </trkpt>
      <trkpt lat="44.45651" lon="6.52074">
        <ele>2416</ele>
        <time>2021-02-21T06:37:59Z</time>
      </trkpt>
      <trkpt lat="44.45651" lon="6.52074">
        <ele>2416</ele>
        <time>2021-02-21T06:38:00Z</time>
      </trkpt>
      <trkpt lat="44.45651" lon="6.52074">
        <ele>2416</ele>
        <time>2021-02-21T06:38:01Z</time>
      </trkpt>
      <trkpt lat="44.45651" lon="6.52074">
        <ele>2416</ele>
        <time>2021-02-21T06:38:02Z</time>
      </trkpt>
      <trkpt lat="44.45651" lon="6.52074">
        <ele>2416</ele>
        <time>2021-02-21T06:38:03Z</time>
      </trkpt>
      <trkpt lat="44.45651" lon="6.52074">
        <ele>2416</ele>
        <time>2021-02-21T06:38:04Z</time>
      </trkpt>
      <trkpt lat="44.45651" lon="6.52074">
        <ele>2416</ele>
        <time>2021-02-21T06:38:05Z</time>
      </trkpt>
      <trkpt lat="44.45651" lon="6.52074">
        <ele>2416</ele>
        <time>2021-02-21T06:38:06Z</time>
      </trkpt>
      <trkpt lat="44.45651" lon="6.52075">
        <ele>2416</ele>
        <time>2021-02-21T06:38:07Z</time>
      </trkpt>
      <trkpt lat="44.45651" lon="6.52075">
        <ele>2416</ele>
        <time>2021-02-21T06:38:08Z</time>
      </trkpt>
      <trkpt lat="44.45651" lon="6.52075">
        <ele>2416</ele>
        <time>2021-02-21T06:38:09Z</time>
      </trkpt>
      <trkpt lat="44.4565" lon="6.52075">
        <ele>2416</ele>
        <time>2021-02-21T06:38:10Z</time>
      </trkpt>
      <trkpt lat="44.4565" lon="6.52076">
        <ele>2416</ele>
        <time>2021-02-21T06:38:11Z</time>
      </trkpt>
      <trkpt lat="44.4565" lon="6.52076">
        <ele>2416</ele>
        <time>2021-02-21T06:38:12Z</time>
      </trkpt>
      <trkpt lat="44.4565" lon="6.52076">
        <ele>2416</ele>
        <time>2021-02-21T06:38:13Z</time>
      </trkpt>
      <trkpt lat="44.45648" lon="6.52075">
        <ele>2416</ele>
        <time>2021-02-21T06:38:14Z</time>
      </trkpt>
      <trkpt lat="44.45648" lon="6.52075">
        <ele>2415</ele>
        <time>2021-02-21T06:38:15Z</time>
      </trkpt>
      <trkpt lat="44.45647" lon="6.52074">
        <ele>2415</ele>
        <time>2021-02-21T06:38:16Z</time>
      </trkpt>
      <trkpt lat="44.45647" lon="6.52073">
        <ele>2415</ele>
        <time>2021-02-21T06:38:17Z</time>
      </trkpt>
      <trkpt lat="44.45647" lon="6.52073">
        <ele>2415</ele>
        <time>2021-02-21T06:38:18Z</time>
      </trkpt>
      <trkpt lat="44.45647" lon="6.52073">
        <ele>2415</ele>
        <time>2021-02-21T06:38:19Z</time>
      </trkpt>
      <trkpt lat="44.45647" lon="6.52073">
        <ele>2415</ele>
        <time>2021-02-21T06:38:20Z</time>
      </trkpt>
      <trkpt lat="44.45647" lon="6.52073">
        <ele>2415</ele>
        <time>2021-02-21T06:38:21Z</time>
      </trkpt>
      <trkpt lat="44.45648" lon="6.52075">
        <ele>2415</ele>
        <time>2021-02-21T06:38:22Z</time>
      </trkpt>
      <trkpt lat="44.45648" lon="6.52075">
        <ele>2415</ele>
        <time>2021-02-21T06:38:23Z</time>
      </trkpt>
      <trkpt lat="44.45649" lon="6.52074">
        <ele>2415</ele>
        <time>2021-02-21T06:38:24Z</time>
      </trkpt>
      <trkpt lat="44.4565" lon="6.52074">
        <ele>2415</ele>
        <time>2021-02-21T06:38:25Z</time>
      </trkpt>
      <trkpt lat="44.45651" lon="6.52073">
        <ele>2415</ele>
        <time>2021-02-21T06:38:26Z</time>
      </trkpt>
      <trkpt lat="44.45652" lon="6.52073">
        <ele>2415</ele>
        <time>2021-02-21T06:38:27Z</time>
      </trkpt>
      <trkpt lat="44.45652" lon="6.52073">
        <ele>2415</ele>
        <time>2021-02-21T06:38:28Z</time>
      </trkpt>
      <trkpt lat="44.45653" lon="6.52072">
        <ele>2415</ele>
        <time>2021-02-21T06:38:29Z</time>
      </trkpt>
      <trkpt lat="44.45653" lon="6.52072">
        <ele>2415</ele>
        <time>2021-02-21T06:38:30Z</time>
      </trkpt>
      <trkpt lat="44.45652" lon="6.52071">
        <ele>2415</ele>
        <time>2021-02-21T06:38:31Z</time>
      </trkpt>
      <trkpt lat="44.45651" lon="6.52072">
        <ele>2415</ele>
        <time>2021-02-21T06:38:32Z</time>
      </trkpt>
      <trkpt lat="44.45651" lon="6.52072">
        <ele>2415</ele>
        <time>2021-02-21T06:38:33Z</time>
      </trkpt>
      <trkpt lat="44.4565" lon="6.52072">
        <ele>2415</ele>
        <time>2021-02-21T06:38:34Z</time>
      </trkpt>
      <trkpt lat="44.45649" lon="6.52072">
        <ele>2415</ele>
        <time>2021-02-21T06:38:35Z</time>
      </trkpt>
      <trkpt lat="44.45648" lon="6.52072">
        <ele>2415</ele>
        <time>2021-02-21T06:38:36Z</time>
      </trkpt>
      <trkpt lat="44.45648" lon="6.52071">
        <ele>2415</ele>
        <time>2021-02-21T06:38:37Z</time>
      </trkpt>
      <trkpt lat="44.45648" lon="6.52072">
        <ele>2415</ele>
        <time>2021-02-21T06:38:38Z</time>
      </trkpt>
      <trkpt lat="44.45648" lon="6.52071">
        <ele>2416</ele>
        <time>2021-02-21T06:38:39Z</time>
      </trkpt>
      <trkpt lat="44.45648" lon="6.52071">
        <ele>2416</ele>
        <time>2021-02-21T06:38:40Z</time>
      </trkpt>
      <trkpt lat="44.45648" lon="6.52071">
        <ele>2416</ele>
        <time>2021-02-21T06:38:41Z</time>
      </trkpt>
      <trkpt lat="44.45649" lon="6.52071">
        <ele>2416</ele>
        <time>2021-02-21T06:38:42Z</time>
      </trkpt>
      <trkpt lat="44.45649" lon="6.5207">
        <ele>2415</ele>
        <time>2021-02-21T06:38:43Z</time>
      </trkpt>
      <trkpt lat="44.45649" lon="6.52069">
        <ele>2415</ele>
        <time>2021-02-21T06:38:44Z</time>
      </trkpt>
      <trkpt lat="44.45649" lon="6.5207">
        <ele>2415</ele>
        <time>2021-02-21T06:38:45Z</time>
      </trkpt>
      <trkpt lat="44.45649" lon="6.5207">
        <ele>2414</ele>
        <time>2021-02-21T06:38:46Z</time>
      </trkpt>
      <trkpt lat="44.45649" lon="6.5207">
        <ele>2414</ele>
        <time>2021-02-21T06:38:47Z</time>
      </trkpt>
      <trkpt lat="44.45648" lon="6.52069">
        <ele>2414</ele>
        <time>2021-02-21T06:38:48Z</time>
      </trkpt>
      <trkpt lat="44.45648" lon="6.52069">
        <ele>2414</ele>
        <time>2021-02-21T06:38:49Z</time>
      </trkpt>
      <trkpt lat="44.45649" lon="6.52069">
        <ele>2414</ele>
        <time>2021-02-21T06:38:50Z</time>
      </trkpt>
      <trkpt lat="44.45648" lon="6.52069">
        <ele>2414</ele>
        <time>2021-02-21T06:38:51Z</time>
      </trkpt>
      <trkpt lat="44.45649" lon="6.52069">
        <ele>2414</ele>
        <time>2021-02-21T06:38:52Z</time>
      </trkpt>
      <trkpt lat="44.45648" lon="6.52069">
        <ele>2414</ele>
        <time>2021-02-21T06:38:53Z</time>
      </trkpt>
      <trkpt lat="44.45648" lon="6.52069">
        <ele>2414</ele>
        <time>2021-02-21T06:38:54Z</time>
      </trkpt>
      <trkpt lat="44.45648" lon="6.52069">
        <ele>2414</ele>
        <time>2021-02-21T06:38:55Z</time>
      </trkpt>
      <trkpt lat="44.45648" lon="6.52069">
        <ele>2414</ele>
        <time>2021-02-21T06:38:56Z</time>
      </trkpt>
      <trkpt lat="44.45648" lon="6.52069">
        <ele>2413</ele>
        <time>2021-02-21T06:38:57Z</time>
      </trkpt>
      <trkpt lat="44.45648" lon="6.52069">
        <ele>2413</ele>
        <time>2021-02-21T06:38:58Z</time>
      </trkpt>
      <trkpt lat="44.45648" lon="6.52069">
        <ele>2413</ele>
        <time>2021-02-21T06:38:59Z</time>
      </trkpt>
      <trkpt lat="44.45648" lon="6.52069">
        <ele>2413</ele>
        <time>2021-02-21T06:39:00Z</time>
      </trkpt>
      <trkpt lat="44.45648" lon="6.52069">
        <ele>2413</ele>
        <time>2021-02-21T06:39:01Z</time>
      </trkpt>
      <trkpt lat="44.45648" lon="6.52069">
        <ele>2413</ele>
        <time>2021-02-21T06:39:02Z</time>
      </trkpt>
      <trkpt lat="44.45648" lon="6.52069">
        <ele>2413</ele>
        <time>2021-02-21T06:39:03Z</time>
      </trkpt>
      <trkpt lat="44.45648" lon="6.52069">
        <ele>2413</ele>
        <time>2021-02-21T06:39:04Z</time>
      </trkpt>
      <trkpt lat="44.45648" lon="6.52069">
        <ele>2413</ele>
        <time>2021-02-21T06:39:05Z</time>
      </trkpt>
      <trkpt lat="44.45648" lon="6.52069">
        <ele>2413</ele>
        <time>2021-02-21T06:39:06Z</time>
      </trkpt>
      <trkpt lat="44.45648" lon="6.52069">
        <ele>2413</ele>
        <time>2021-02-21T06:39:07Z</time>
      </trkpt>
      <trkpt lat="44.45646" lon="6.52064">
        <ele>2413</ele>
        <time>2021-02-21T06:39:08Z</time>
      </trkpt>
      <trkpt lat="44.45646" lon="6.52064">
        <ele>2413</ele>
        <time>2021-02-21T06:39:09Z</time>
      </trkpt>
      <trkpt lat="44.45647" lon="6.52064">
        <ele>2413</ele>
        <time>2021-02-21T06:39:10Z</time>
      </trkpt>
      <trkpt lat="44.45646" lon="6.52064">
        <ele>2413</ele>
        <time>2021-02-21T06:39:11Z</time>
      </trkpt>
      <trkpt lat="44.45647" lon="6.52064">
        <ele>2413</ele>
        <time>2021-02-21T06:39:12Z</time>
      </trkpt>
      <trkpt lat="44.45647" lon="6.52064">
        <ele>2413</ele>
        <time>2021-02-21T06:39:13Z</time>
      </trkpt>
      <trkpt lat="44.45647" lon="6.52064">
        <ele>2413</ele>
        <time>2021-02-21T06:39:14Z</time>
      </trkpt>
      <trkpt lat="44.45648" lon="6.52064">
        <ele>2413</ele>
        <time>2021-02-21T06:39:15Z</time>
      </trkpt>
      <trkpt lat="44.45648" lon="6.52064">
        <ele>2413</ele>
        <time>2021-02-21T06:39:16Z</time>
      </trkpt>
      <trkpt lat="44.45649" lon="6.52064">
        <ele>2413</ele>
        <time>2021-02-21T06:39:17Z</time>
      </trkpt>
      <trkpt lat="44.45649" lon="6.52064">
        <ele>2413</ele>
        <time>2021-02-21T06:39:18Z</time>
      </trkpt>
      <trkpt lat="44.45649" lon="6.52063">
        <ele>2413</ele>
        <time>2021-02-21T06:39:19Z</time>
      </trkpt>
      <trkpt lat="44.45649" lon="6.52064">
        <ele>2413</ele>
        <time>2021-02-21T06:39:20Z</time>
      </trkpt>
      <trkpt lat="44.45649" lon="6.52064">
        <ele>2413</ele>
        <time>2021-02-21T06:39:21Z</time>
      </trkpt>
      <trkpt lat="44.45649" lon="6.52064">
        <ele>2413</ele>
        <time>2021-02-21T06:39:22Z</time>
      </trkpt>
      <trkpt lat="44.45649" lon="6.52063">
        <ele>2413</ele>
        <time>2021-02-21T06:39:23Z</time>
      </trkpt>
      <trkpt lat="44.45649" lon="6.52063">
        <ele>2413</ele>
        <time>2021-02-21T06:39:24Z</time>
      </trkpt>
      <trkpt lat="44.45649" lon="6.52063">
        <ele>2413</ele>
        <time>2021-02-21T06:39:25Z</time>
      </trkpt>
      <trkpt lat="44.45649" lon="6.52063">
        <ele>2413</ele>
        <time>2021-02-21T06:39:26Z</time>
      </trkpt>
      <trkpt lat="44.45649" lon="6.52063">
        <ele>2413</ele>
        <time>2021-02-21T06:39:27Z</time>
      </trkpt>
      <trkpt lat="44.45649" lon="6.52063">
        <ele>2413</ele>
        <time>2021-02-21T06:39:28Z</time>
      </trkpt>
      <trkpt lat="44.45649" lon="6.52063">
        <ele>2413</ele>
        <time>2021-02-21T06:39:29Z</time>
      </trkpt>
      <trkpt lat="44.45649" lon="6.52063">
        <ele>2413</ele>
        <time>2021-02-21T06:39:30Z</time>
      </trkpt>
      <trkpt lat="44.45649" lon="6.52063">
        <ele>2413</ele>
        <time>2021-02-21T06:39:31Z</time>
      </trkpt>
      <trkpt lat="44.45649" lon="6.52063">
        <ele>2413</ele>
        <time>2021-02-21T06:39:32Z</time>
      </trkpt>
      <trkpt lat="44.45649" lon="6.52063">
        <ele>2413</ele>
        <time>2021-02-21T06:39:33Z</time>
      </trkpt>
      <trkpt lat="44.45649" lon="6.52063">
        <ele>2413</ele>
        <time>2021-02-21T06:39:34Z</time>
      </trkpt>
      <trkpt lat="44.45649" lon="6.52063">
        <ele>2413</ele>
        <time>2021-02-21T06:39:35Z</time>
      </trkpt>
      <trkpt lat="44.45649" lon="6.52063">
        <ele>2413</ele>
        <time>2021-02-21T06:39:36Z</time>
      </trkpt>
      <trkpt lat="44.45649" lon="6.52063">
        <ele>2413</ele>
        <time>2021-02-21T06:39:37Z</time>
      </trkpt>
      <trkpt lat="44.45649" lon="6.52063">
        <ele>2412</ele>
        <time>2021-02-21T06:39:38Z</time>
      </trkpt>
      <trkpt lat="44.45649" lon="6.52063">
        <ele>2412</ele>
        <time>2021-02-21T06:39:39Z</time>
      </trkpt>
      <trkpt lat="44.45649" lon="6.52063">
        <ele>2412</ele>
        <time>2021-02-21T06:39:40Z</time>
      </trkpt>
      <trkpt lat="44.45649" lon="6.52063">
        <ele>2412</ele>
        <time>2021-02-21T06:39:41Z</time>
      </trkpt>
      <trkpt lat="44.45649" lon="6.52063">
        <ele>2412</ele>
        <time>2021-02-21T06:39:42Z</time>
      </trkpt>
      <trkpt lat="44.45649" lon="6.52063">
        <ele>2412</ele>
        <time>2021-02-21T06:39:43Z</time>
      </trkpt>
      <trkpt lat="44.45649" lon="6.52063">
        <ele>2412</ele>
        <time>2021-02-21T06:39:44Z</time>
      </trkpt>
      <trkpt lat="44.45649" lon="6.52063">
        <ele>2412</ele>
        <time>2021-02-21T06:39:45Z</time>
      </trkpt>
      <trkpt lat="44.45649" lon="6.52063">
        <ele>2412</ele>
        <time>2021-02-21T06:39:46Z</time>
      </trkpt>
      <trkpt lat="44.45649" lon="6.52063">
        <ele>2412</ele>
        <time>2021-02-21T06:39:47Z</time>
      </trkpt>
      <trkpt lat="44.45649" lon="6.52063">
        <ele>2412</ele>
        <time>2021-02-21T06:39:48Z</time>
      </trkpt>
      <trkpt lat="44.45649" lon="6.52063">
        <ele>2412</ele>
        <time>2021-02-21T06:39:49Z</time>
      </trkpt>
      <trkpt lat="44.45649" lon="6.52063">
        <ele>2412</ele>
        <time>2021-02-21T06:39:50Z</time>
      </trkpt>
      <trkpt lat="44.45649" lon="6.52063">
        <ele>2412</ele>
        <time>2021-02-21T06:39:51Z</time>
      </trkpt>
      <trkpt lat="44.45649" lon="6.52063">
        <ele>2412</ele>
        <time>2021-02-21T06:39:52Z</time>
      </trkpt>
      <trkpt lat="44.45649" lon="6.52063">
        <ele>2412</ele>
        <time>2021-02-21T06:39:53Z</time>
      </trkpt>
      <trkpt lat="44.45649" lon="6.52063">
        <ele>2412</ele>
        <time>2021-02-21T06:39:54Z</time>
      </trkpt>
      <trkpt lat="44.45649" lon="6.52063">
        <ele>2412</ele>
        <time>2021-02-21T06:39:55Z</time>
      </trkpt>
      <trkpt lat="44.45649" lon="6.52063">
        <ele>2412</ele>
        <time>2021-02-21T06:39:56Z</time>
      </trkpt>
      <trkpt lat="44.45649" lon="6.52063">
        <ele>2412</ele>
        <time>2021-02-21T06:39:57Z</time>
      </trkpt>
      <trkpt lat="44.45643" lon="6.52069">
        <ele>2412</ele>
        <time>2021-02-21T06:39:58Z</time>
      </trkpt>
      <trkpt lat="44.45643" lon="6.52069">
        <ele>2412</ele>
        <time>2021-02-21T06:39:59Z</time>
      </trkpt>
      <trkpt lat="44.45643" lon="6.52069">
        <ele>2412</ele>
        <time>2021-02-21T06:40:00Z</time>
      </trkpt>
      <trkpt lat="44.45643" lon="6.52069">
        <ele>2412</ele>
        <time>2021-02-21T06:40:01Z</time>
      </trkpt>
      <trkpt lat="44.45643" lon="6.52068">
        <ele>2412</ele>
        <time>2021-02-21T06:40:02Z</time>
      </trkpt>
      <trkpt lat="44.45643" lon="6.52068">
        <ele>2412</ele>
        <time>2021-02-21T06:40:03Z</time>
      </trkpt>
      <trkpt lat="44.45643" lon="6.52068">
        <ele>2412</ele>
        <time>2021-02-21T06:40:04Z</time>
      </trkpt>
      <trkpt lat="44.45643" lon="6.52068">
        <ele>2412</ele>
        <time>2021-02-21T06:40:05Z</time>
      </trkpt>
      <trkpt lat="44.45643" lon="6.52068">
        <ele>2412</ele>
        <time>2021-02-21T06:40:06Z</time>
      </trkpt>
      <trkpt lat="44.45643" lon="6.52068">
        <ele>2412</ele>
        <time>2021-02-21T06:40:07Z</time>
      </trkpt>
      <trkpt lat="44.45643" lon="6.52068">
        <ele>2412</ele>
        <time>2021-02-21T06:40:08Z</time>
      </trkpt>
      <trkpt lat="44.45643" lon="6.52068">
        <ele>2412</ele>
        <time>2021-02-21T06:40:09Z</time>
      </trkpt>
      <trkpt lat="44.45643" lon="6.52068">
        <ele>2412</ele>
        <time>2021-02-21T06:40:10Z</time>
      </trkpt>
      <trkpt lat="44.45643" lon="6.52068">
        <ele>2412</ele>
        <time>2021-02-21T06:40:11Z</time>
      </trkpt>
      <trkpt lat="44.45643" lon="6.52068">
        <ele>2412</ele>
        <time>2021-02-21T06:40:12Z</time>
      </trkpt>
      <trkpt lat="44.45643" lon="6.52068">
        <ele>2412</ele>
        <time>2021-02-21T06:40:13Z</time>
      </trkpt>
      <trkpt lat="44.45643" lon="6.52068">
        <ele>2412</ele>
        <time>2021-02-21T06:40:14Z</time>
      </trkpt>
      <trkpt lat="44.45643" lon="6.52068">
        <ele>2412</ele>
        <time>2021-02-21T06:40:15Z</time>
      </trkpt>
      <trkpt lat="44.45643" lon="6.52068">
        <ele>2412</ele>
        <time>2021-02-21T06:40:16Z</time>
      </trkpt>
      <trkpt lat="44.45643" lon="6.52068">
        <ele>2412</ele>
        <time>2021-02-21T06:40:17Z</time>
      </trkpt>
      <trkpt lat="44.45643" lon="6.52068">
        <ele>2412</ele>
        <time>2021-02-21T06:40:18Z</time>
      </trkpt>
      <trkpt lat="44.45643" lon="6.52068">
        <ele>2412</ele>
        <time>2021-02-21T06:40:19Z</time>
      </trkpt>
      <trkpt lat="44.45646" lon="6.52067">
        <ele>2412</ele>
        <time>2021-02-21T06:40:20Z</time>
      </trkpt>
      <trkpt lat="44.45646" lon="6.52067">
        <ele>2412</ele>
        <time>2021-02-21T06:40:21Z</time>
      </trkpt>
      <trkpt lat="44.45646" lon="6.52067">
        <ele>2412</ele>
        <time>2021-02-21T06:40:22Z</time>
      </trkpt>
      <trkpt lat="44.45647" lon="6.52067">
        <ele>2412</ele>
        <time>2021-02-21T06:40:23Z</time>
      </trkpt>
      <trkpt lat="44.45648" lon="6.52068">
        <ele>2412</ele>
        <time>2021-02-21T06:40:24Z</time>
      </trkpt>
      <trkpt lat="44.45648" lon="6.52068">
        <ele>2413</ele>
        <time>2021-02-21T06:40:25Z</time>
      </trkpt>
      <trkpt lat="44.45648" lon="6.52068">
        <ele>2413</ele>
        <time>2021-02-21T06:40:26Z</time>
      </trkpt>
      <trkpt lat="44.45648" lon="6.52068">
        <ele>2413</ele>
        <time>2021-02-21T06:40:27Z</time>
      </trkpt>
      <trkpt lat="44.45648" lon="6.52068">
        <ele>2413</ele>
        <time>2021-02-21T06:40:28Z</time>
      </trkpt>
      <trkpt lat="44.45648" lon="6.52068">
        <ele>2413</ele>
        <time>2021-02-21T06:40:29Z</time>
      </trkpt>
      <trkpt lat="44.45648" lon="6.52068">
        <ele>2413</ele>
        <time>2021-02-21T06:40:30Z</time>
      </trkpt>
      <trkpt lat="44.45649" lon="6.52067">
        <ele>2413</ele>
        <time>2021-02-21T06:40:31Z</time>
      </trkpt>
      <trkpt lat="44.45649" lon="6.52067">
        <ele>2413</ele>
        <time>2021-02-21T06:40:32Z</time>
      </trkpt>
      <trkpt lat="44.45649" lon="6.52068">
        <ele>2413</ele>
        <time>2021-02-21T06:40:33Z</time>
      </trkpt>
      <trkpt lat="44.4565" lon="6.52068">
        <ele>2413</ele>
        <time>2021-02-21T06:40:34Z</time>
      </trkpt>
      <trkpt lat="44.45651" lon="6.52068">
        <ele>2413</ele>
        <time>2021-02-21T06:40:35Z</time>
      </trkpt>
      <trkpt lat="44.45651" lon="6.52068">
        <ele>2413</ele>
        <time>2021-02-21T06:40:36Z</time>
      </trkpt>
      <trkpt lat="44.45651" lon="6.52068">
        <ele>2413</ele>
        <time>2021-02-21T06:40:37Z</time>
      </trkpt>
      <trkpt lat="44.45651" lon="6.52068">
        <ele>2413</ele>
        <time>2021-02-21T06:40:38Z</time>
      </trkpt>
      <trkpt lat="44.45651" lon="6.52068">
        <ele>2413</ele>
        <time>2021-02-21T06:40:39Z</time>
      </trkpt>
      <trkpt lat="44.45651" lon="6.52069">
        <ele>2413</ele>
        <time>2021-02-21T06:40:40Z</time>
      </trkpt>
      <trkpt lat="44.45651" lon="6.5207">
        <ele>2412</ele>
        <time>2021-02-21T06:40:41Z</time>
      </trkpt>
      <trkpt lat="44.45652" lon="6.5207">
        <ele>2412</ele>
        <time>2021-02-21T06:40:42Z</time>
      </trkpt>
      <trkpt lat="44.45652" lon="6.5207">
        <ele>2412</ele>
        <time>2021-02-21T06:40:43Z</time>
      </trkpt>
      <trkpt lat="44.45653" lon="6.5207">
        <ele>2412</ele>
        <time>2021-02-21T06:40:44Z</time>
      </trkpt>
      <trkpt lat="44.45654" lon="6.52071">
        <ele>2411</ele>
        <time>2021-02-21T06:40:45Z</time>
      </trkpt>
      <trkpt lat="44.45655" lon="6.52072">
        <ele>2411</ele>
        <time>2021-02-21T06:40:46Z</time>
      </trkpt>
      <trkpt lat="44.45655" lon="6.52074">
        <ele>2411</ele>
        <time>2021-02-21T06:40:47Z</time>
      </trkpt>
      <trkpt lat="44.45655" lon="6.52075">
        <ele>2411</ele>
        <time>2021-02-21T06:40:48Z</time>
      </trkpt>
      <trkpt lat="44.45655" lon="6.52076">
        <ele>2411</ele>
        <time>2021-02-21T06:40:49Z</time>
      </trkpt>
      <trkpt lat="44.45655" lon="6.52076">
        <ele>2411</ele>
        <time>2021-02-21T06:40:50Z</time>
      </trkpt>
      <trkpt lat="44.45655" lon="6.52076">
        <ele>2411</ele>
        <time>2021-02-21T06:40:51Z</time>
      </trkpt>
      <trkpt lat="44.45656" lon="6.52076">
        <ele>2411</ele>
        <time>2021-02-21T06:40:52Z</time>
      </trkpt>
      <trkpt lat="44.45656" lon="6.52076">
        <ele>2411</ele>
        <time>2021-02-21T06:40:53Z</time>
      </trkpt>
      <trkpt lat="44.45655" lon="6.52075">
        <ele>2411</ele>
        <time>2021-02-21T06:40:54Z</time>
      </trkpt>
      <trkpt lat="44.45655" lon="6.52075">
        <ele>2411</ele>
        <time>2021-02-21T06:40:55Z</time>
      </trkpt>
      <trkpt lat="44.45655" lon="6.52074">
        <ele>2411</ele>
        <time>2021-02-21T06:40:56Z</time>
      </trkpt>
      <trkpt lat="44.45655" lon="6.52074">
        <ele>2411</ele>
        <time>2021-02-21T06:40:57Z</time>
      </trkpt>
      <trkpt lat="44.45655" lon="6.52074">
        <ele>2411</ele>
        <time>2021-02-21T06:40:58Z</time>
      </trkpt>
      <trkpt lat="44.45655" lon="6.52073">
        <ele>2411</ele>
        <time>2021-02-21T06:40:59Z</time>
      </trkpt>
      <trkpt lat="44.45655" lon="6.52073">
        <ele>2411</ele>
        <time>2021-02-21T06:41:00Z</time>
      </trkpt>
      <trkpt lat="44.45656" lon="6.52073">
        <ele>2411</ele>
        <time>2021-02-21T06:41:01Z</time>
      </trkpt>
      <trkpt lat="44.45657" lon="6.52073">
        <ele>2411</ele>
        <time>2021-02-21T06:41:02Z</time>
      </trkpt>
      <trkpt lat="44.45657" lon="6.52072">
        <ele>2411</ele>
        <time>2021-02-21T06:41:03Z</time>
      </trkpt>
      <trkpt lat="44.45657" lon="6.52071">
        <ele>2411</ele>
        <time>2021-02-21T06:41:04Z</time>
      </trkpt>
      <trkpt lat="44.45657" lon="6.5207">
        <ele>2411</ele>
        <time>2021-02-21T06:41:05Z</time>
      </trkpt>
      <trkpt lat="44.45657" lon="6.52068">
        <ele>2411</ele>
        <time>2021-02-21T06:41:06Z</time>
      </trkpt>
      <trkpt lat="44.45655" lon="6.52067">
        <ele>2411</ele>
        <time>2021-02-21T06:41:07Z</time>
      </trkpt>
      <trkpt lat="44.45654" lon="6.52067">
        <ele>2411</ele>
        <time>2021-02-21T06:41:08Z</time>
      </trkpt>
      <trkpt lat="44.45653" lon="6.52067">
        <ele>2410</ele>
        <time>2021-02-21T06:41:09Z</time>
      </trkpt>
      <trkpt lat="44.45652" lon="6.52066">
        <ele>2410</ele>
        <time>2021-02-21T06:41:10Z</time>
      </trkpt>
      <trkpt lat="44.45653" lon="6.52065">
        <ele>2410</ele>
        <time>2021-02-21T06:41:11Z</time>
      </trkpt>
      <trkpt lat="44.45654" lon="6.52065">
        <ele>2410</ele>
        <time>2021-02-21T06:41:12Z</time>
      </trkpt>
      <trkpt lat="44.45654" lon="6.52064">
        <ele>2405</ele>
        <time>2021-02-21T06:41:13Z</time>
      </trkpt>
      <trkpt lat="44.45654" lon="6.52064">
        <ele>2404</ele>
        <time>2021-02-21T06:41:14Z</time>
      </trkpt>
      <trkpt lat="44.45654" lon="6.52064">
        <ele>2403</ele>
        <time>2021-02-21T06:41:15Z</time>
      </trkpt>
      <trkpt lat="44.45654" lon="6.52064">
        <ele>2402</ele>
        <time>2021-02-21T06:41:16Z</time>
      </trkpt>
      <trkpt lat="44.45654" lon="6.52065">
        <ele>2402</ele>
        <time>2021-02-21T06:41:17Z</time>
      </trkpt>
      <trkpt lat="44.45655" lon="6.52064">
        <ele>2401</ele>
        <time>2021-02-21T06:41:18Z</time>
      </trkpt>
      <trkpt lat="44.45655" lon="6.52063">
        <ele>2401</ele>
        <time>2021-02-21T06:41:19Z</time>
      </trkpt>
      <trkpt lat="44.45655" lon="6.52063">
        <ele>2401</ele>
        <time>2021-02-21T06:41:20Z</time>
      </trkpt>
      <trkpt lat="44.45656" lon="6.52064">
        <ele>2401</ele>
        <time>2021-02-21T06:41:21Z</time>
      </trkpt>
      <trkpt lat="44.45655" lon="6.52065">
        <ele>2400</ele>
        <time>2021-02-21T06:41:22Z</time>
      </trkpt>
      <trkpt lat="44.45655" lon="6.52065">
        <ele>2400</ele>
        <time>2021-02-21T06:41:23Z</time>
      </trkpt>
      <trkpt lat="44.45655" lon="6.52065">
        <ele>2400</ele>
        <time>2021-02-21T06:41:24Z</time>
      </trkpt>
      <trkpt lat="44.45654" lon="6.52066">
        <ele>2400</ele>
        <time>2021-02-21T06:41:25Z</time>
      </trkpt>
      <trkpt lat="44.45654" lon="6.52066">
        <ele>2401</ele>
        <time>2021-02-21T06:41:26Z</time>
      </trkpt>
      <trkpt lat="44.45654" lon="6.52067">
        <ele>2401</ele>
        <time>2021-02-21T06:41:27Z</time>
      </trkpt>
      <trkpt lat="44.45654" lon="6.52067">
        <ele>2401</ele>
        <time>2021-02-21T06:41:28Z</time>
      </trkpt>
      <trkpt lat="44.45655" lon="6.52067">
        <ele>2401</ele>
        <time>2021-02-21T06:41:29Z</time>
      </trkpt>
      <trkpt lat="44.45656" lon="6.52067">
        <ele>2401</ele>
        <time>2021-02-21T06:41:30Z</time>
      </trkpt>
      <trkpt lat="44.45656" lon="6.52068">
        <ele>2401</ele>
        <time>2021-02-21T06:41:31Z</time>
      </trkpt>
      <trkpt lat="44.45654" lon="6.52068">
        <ele>2401</ele>
        <time>2021-02-21T06:41:32Z</time>
      </trkpt>
      <trkpt lat="44.45654" lon="6.52068">
        <ele>2401</ele>
        <time>2021-02-21T06:41:33Z</time>
      </trkpt>
      <trkpt lat="44.45654" lon="6.52069">
        <ele>2402</ele>
        <time>2021-02-21T06:41:34Z</time>
      </trkpt>
      <trkpt lat="44.45654" lon="6.52069">
        <ele>2402</ele>
        <time>2021-02-21T06:41:35Z</time>
      </trkpt>
      <trkpt lat="44.45655" lon="6.52069">
        <ele>2402</ele>
        <time>2021-02-21T06:41:36Z</time>
      </trkpt>
      <trkpt lat="44.45654" lon="6.52069">
        <ele>2403</ele>
        <time>2021-02-21T06:41:37Z</time>
      </trkpt>
      <trkpt lat="44.45654" lon="6.5207">
        <ele>2404</ele>
        <time>2021-02-21T06:41:38Z</time>
      </trkpt>
      <trkpt lat="44.45654" lon="6.5207">
        <ele>2404</ele>
        <time>2021-02-21T06:41:39Z</time>
      </trkpt>
      <trkpt lat="44.45654" lon="6.5207">
        <ele>2404</ele>
        <time>2021-02-21T06:41:40Z</time>
      </trkpt>
      <trkpt lat="44.45654" lon="6.5207">
        <ele>2405</ele>
        <time>2021-02-21T06:41:41Z</time>
      </trkpt>
      <trkpt lat="44.45654" lon="6.5207">
        <ele>2405</ele>
        <time>2021-02-21T06:41:42Z</time>
      </trkpt>
      <trkpt lat="44.45654" lon="6.5207">
        <ele>2405</ele>
        <time>2021-02-21T06:41:43Z</time>
      </trkpt>
      <trkpt lat="44.45654" lon="6.5207">
        <ele>2405</ele>
        <time>2021-02-21T06:41:44Z</time>
      </trkpt>
      <trkpt lat="44.45654" lon="6.5207">
        <ele>2405</ele>
        <time>2021-02-21T06:41:45Z</time>
      </trkpt>
      <trkpt lat="44.45655" lon="6.52071">
        <ele>2405</ele>
        <time>2021-02-21T06:41:46Z</time>
      </trkpt>
      <trkpt lat="44.45655" lon="6.52071">
        <ele>2405</ele>
        <time>2021-02-21T06:41:47Z</time>
      </trkpt>
      <trkpt lat="44.45655" lon="6.5207">
        <ele>2405</ele>
        <time>2021-02-21T06:41:48Z</time>
      </trkpt>
      <trkpt lat="44.45654" lon="6.5207">
        <ele>2405</ele>
        <time>2021-02-21T06:41:49Z</time>
      </trkpt>
      <trkpt lat="44.45655" lon="6.5207">
        <ele>2405</ele>
        <time>2021-02-21T06:41:50Z</time>
      </trkpt>
      <trkpt lat="44.45655" lon="6.5207">
        <ele>2405</ele>
        <time>2021-02-21T06:41:51Z</time>
      </trkpt>
      <trkpt lat="44.45655" lon="6.5207">
        <ele>2405</ele>
        <time>2021-02-21T06:41:52Z</time>
      </trkpt>
      <trkpt lat="44.45655" lon="6.5207">
        <ele>2406</ele>
        <time>2021-02-21T06:41:53Z</time>
      </trkpt>
      <trkpt lat="44.45654" lon="6.52071">
        <ele>2406</ele>
        <time>2021-02-21T06:41:54Z</time>
      </trkpt>
      <trkpt lat="44.45655" lon="6.52072">
        <ele>2406</ele>
        <time>2021-02-21T06:41:55Z</time>
      </trkpt>
      <trkpt lat="44.45655" lon="6.52074">
        <ele>2406</ele>
        <time>2021-02-21T06:41:56Z</time>
      </trkpt>
      <trkpt lat="44.45653" lon="6.52074">
        <ele>2406</ele>
        <time>2021-02-21T06:41:57Z</time>
      </trkpt>
      <trkpt lat="44.4565" lon="6.52073">
        <ele>2406</ele>
        <time>2021-02-21T06:41:58Z</time>
      </trkpt>
      <trkpt lat="44.45649" lon="6.52073">
        <ele>2406</ele>
        <time>2021-02-21T06:41:59Z</time>
      </trkpt>
      <trkpt lat="44.45649" lon="6.52072">
        <ele>2406</ele>
        <time>2021-02-21T06:42:00Z</time>
      </trkpt>
      <trkpt lat="44.45648" lon="6.52073">
        <ele>2406</ele>
        <time>2021-02-21T06:42:01Z</time>
      </trkpt>
      <trkpt lat="44.45646" lon="6.52071">
        <ele>2407</ele>
        <time>2021-02-21T06:42:02Z</time>
      </trkpt>
      <trkpt lat="44.45644" lon="6.52069">
        <ele>2407</ele>
        <time>2021-02-21T06:42:03Z</time>
      </trkpt>
      <trkpt lat="44.45643" lon="6.52066">
        <ele>2407</ele>
        <time>2021-02-21T06:42:04Z</time>
      </trkpt>
      <trkpt lat="44.45641" lon="6.52063">
        <ele>2407</ele>
        <time>2021-02-21T06:42:05Z</time>
      </trkpt>
      <trkpt lat="44.45639" lon="6.5206">
        <ele>2408</ele>
        <time>2021-02-21T06:42:06Z</time>
      </trkpt>
      <trkpt lat="44.45637" lon="6.52056">
        <ele>2408</ele>
        <time>2021-02-21T06:42:07Z</time>
      </trkpt>
      <trkpt lat="44.45635" lon="6.52055">
        <ele>2408</ele>
        <time>2021-02-21T06:42:08Z</time>
      </trkpt>
      <trkpt lat="44.45637" lon="6.52056">
        <ele>2408</ele>
        <time>2021-02-21T06:42:09Z</time>
      </trkpt>
      <trkpt lat="44.45637" lon="6.52056">
        <ele>2408</ele>
        <time>2021-02-21T06:42:10Z</time>
      </trkpt>
      <trkpt lat="44.45637" lon="6.52055">
        <ele>2408</ele>
        <time>2021-02-21T06:42:11Z</time>
      </trkpt>
      <trkpt lat="44.45637" lon="6.52054">
        <ele>2408</ele>
        <time>2021-02-21T06:42:12Z</time>
      </trkpt>
      <trkpt lat="44.45639" lon="6.52055">
        <ele>2408</ele>
        <time>2021-02-21T06:42:13Z</time>
      </trkpt>
      <trkpt lat="44.45637" lon="6.52056">
        <ele>2408</ele>
        <time>2021-02-21T06:42:14Z</time>
      </trkpt>
      <trkpt lat="44.45637" lon="6.52058">
        <ele>2408</ele>
        <time>2021-02-21T06:42:15Z</time>
      </trkpt>
      <trkpt lat="44.45638" lon="6.5206">
        <ele>2409</ele>
        <time>2021-02-21T06:42:16Z</time>
      </trkpt>
      <trkpt lat="44.45639" lon="6.52062">
        <ele>2409</ele>
        <time>2021-02-21T06:42:17Z</time>
      </trkpt>
      <trkpt lat="44.4564" lon="6.52062">
        <ele>2409</ele>
        <time>2021-02-21T06:42:18Z</time>
      </trkpt>
      <trkpt lat="44.4564" lon="6.5206">
        <ele>2409</ele>
        <time>2021-02-21T06:42:19Z</time>
      </trkpt>
      <trkpt lat="44.45639" lon="6.52058">
        <ele>2409</ele>
        <time>2021-02-21T06:42:20Z</time>
      </trkpt>
      <trkpt lat="44.45638" lon="6.52057">
        <ele>2409</ele>
        <time>2021-02-21T06:42:21Z</time>
      </trkpt>
      <trkpt lat="44.45638" lon="6.52058">
        <ele>2409</ele>
        <time>2021-02-21T06:42:22Z</time>
      </trkpt>
      <trkpt lat="44.45639" lon="6.52059">
        <ele>2409</ele>
        <time>2021-02-21T06:42:23Z</time>
      </trkpt>
      <trkpt lat="44.4564" lon="6.5206">
        <ele>2409</ele>
        <time>2021-02-21T06:42:24Z</time>
      </trkpt>
      <trkpt lat="44.45641" lon="6.52059">
        <ele>2409</ele>
        <time>2021-02-21T06:42:25Z</time>
      </trkpt>
      <trkpt lat="44.45641" lon="6.52059">
        <ele>2409</ele>
        <time>2021-02-21T06:42:26Z</time>
      </trkpt>
      <trkpt lat="44.45642" lon="6.5206">
        <ele>2409</ele>
        <time>2021-02-21T06:42:27Z</time>
      </trkpt>
      <trkpt lat="44.45644" lon="6.52058">
        <ele>2409</ele>
        <time>2021-02-21T06:42:28Z</time>
      </trkpt>
      <trkpt lat="44.45644" lon="6.52056">
        <ele>2409</ele>
        <time>2021-02-21T06:42:29Z</time>
      </trkpt>
      <trkpt lat="44.45644" lon="6.52055">
        <ele>2409</ele>
        <time>2021-02-21T06:42:30Z</time>
      </trkpt>
      <trkpt lat="44.45645" lon="6.52056">
        <ele>2409</ele>
        <time>2021-02-21T06:42:31Z</time>
      </trkpt>
      <trkpt lat="44.45654" lon="6.52055">
        <ele>2409</ele>
        <time>2021-02-21T06:42:32Z</time>
      </trkpt>
      <trkpt lat="44.45654" lon="6.5205">
        <ele>2408</ele>
        <time>2021-02-21T06:42:33Z</time>
      </trkpt>
      <trkpt lat="44.45655" lon="6.52053">
        <ele>2407</ele>
        <time>2021-02-21T06:42:34Z</time>
      </trkpt>
      <trkpt lat="44.45657" lon="6.52057">
        <ele>2407</ele>
        <time>2021-02-21T06:42:35Z</time>
      </trkpt>
      <trkpt lat="44.45657" lon="6.52057">
        <ele>2407</ele>
        <time>2021-02-21T06:42:36Z</time>
      </trkpt>
      <trkpt lat="44.45658" lon="6.52058">
        <ele>2407</ele>
        <time>2021-02-21T06:42:37Z</time>
      </trkpt>
      <trkpt lat="44.45659" lon="6.52058">
        <ele>2407</ele>
        <time>2021-02-21T06:42:38Z</time>
      </trkpt>
      <trkpt lat="44.45659" lon="6.52059">
        <ele>2407</ele>
        <time>2021-02-21T06:42:39Z</time>
      </trkpt>
      <trkpt lat="44.45659" lon="6.52059">
        <ele>2407</ele>
        <time>2021-02-21T06:42:40Z</time>
      </trkpt>
      <trkpt lat="44.45659" lon="6.5206">
        <ele>2407</ele>
        <time>2021-02-21T06:42:41Z</time>
      </trkpt>
      <trkpt lat="44.4566" lon="6.52059">
        <ele>2407</ele>
        <time>2021-02-21T06:42:42Z</time>
      </trkpt>
      <trkpt lat="44.4566" lon="6.52059">
        <ele>2407</ele>
        <time>2021-02-21T06:42:43Z</time>
      </trkpt>
      <trkpt lat="44.45659" lon="6.52059">
        <ele>2407</ele>
        <time>2021-02-21T06:42:44Z</time>
      </trkpt>
      <trkpt lat="44.4566" lon="6.52059">
        <ele>2407</ele>
        <time>2021-02-21T06:42:45Z</time>
      </trkpt>
      <trkpt lat="44.4566" lon="6.52059">
        <ele>2407</ele>
        <time>2021-02-21T06:42:46Z</time>
      </trkpt>
      <trkpt lat="44.4566" lon="6.52059">
        <ele>2407</ele>
        <time>2021-02-21T06:42:47Z</time>
      </trkpt>
      <trkpt lat="44.4566" lon="6.52059">
        <ele>2407</ele>
        <time>2021-02-21T06:42:48Z</time>
      </trkpt>
      <trkpt lat="44.4566" lon="6.52059">
        <ele>2407</ele>
        <time>2021-02-21T06:42:49Z</time>
      </trkpt>
      <trkpt lat="44.4566" lon="6.52059">
        <ele>2407</ele>
        <time>2021-02-21T06:42:50Z</time>
      </trkpt>
      <trkpt lat="44.4566" lon="6.52059">
        <ele>2407</ele>
        <time>2021-02-21T06:42:51Z</time>
      </trkpt>
      <trkpt lat="44.4566" lon="6.52059">
        <ele>2407</ele>
        <time>2021-02-21T06:42:52Z</time>
      </trkpt>
      <trkpt lat="44.4566" lon="6.52059">
        <ele>2407</ele>
        <time>2021-02-21T06:42:53Z</time>
      </trkpt>
      <trkpt lat="44.4566" lon="6.52059">
        <ele>2407</ele>
        <time>2021-02-21T06:42:54Z</time>
      </trkpt>
      <trkpt lat="44.4566" lon="6.52059">
        <ele>2407</ele>
        <time>2021-02-21T06:42:55Z</time>
      </trkpt>
      <trkpt lat="44.4566" lon="6.52059">
        <ele>2407</ele>
        <time>2021-02-21T06:42:56Z</time>
      </trkpt>
      <trkpt lat="44.4566" lon="6.52059">
        <ele>2407</ele>
        <time>2021-02-21T06:42:57Z</time>
      </trkpt>
      <trkpt lat="44.4566" lon="6.52059">
        <ele>2407</ele>
        <time>2021-02-21T06:42:58Z</time>
      </trkpt>
      <trkpt lat="44.4566" lon="6.52059">
        <ele>2407</ele>
        <time>2021-02-21T06:42:59Z</time>
      </trkpt>
      <trkpt lat="44.4566" lon="6.52059">
        <ele>2407</ele>
        <time>2021-02-21T06:43:00Z</time>
      </trkpt>
      <trkpt lat="44.4566" lon="6.52059">
        <ele>2407</ele>
        <time>2021-02-21T06:43:01Z</time>
      </trkpt>
      <trkpt lat="44.45654" lon="6.52061">
        <ele>2407</ele>
        <time>2021-02-21T06:43:02Z</time>
      </trkpt>
      <trkpt lat="44.45654" lon="6.52061">
        <ele>2407</ele>
        <time>2021-02-21T06:43:03Z</time>
      </trkpt>
      <trkpt lat="44.45653" lon="6.52061">
        <ele>2407</ele>
        <time>2021-02-21T06:43:04Z</time>
      </trkpt>
      <trkpt lat="44.45653" lon="6.52061">
        <ele>2408</ele>
        <time>2021-02-21T06:43:05Z</time>
      </trkpt>
      <trkpt lat="44.45653" lon="6.5206">
        <ele>2408</ele>
        <time>2021-02-21T06:43:06Z</time>
      </trkpt>
      <trkpt lat="44.45653" lon="6.5206">
        <ele>2407</ele>
        <time>2021-02-21T06:43:07Z</time>
      </trkpt>
      <trkpt lat="44.45653" lon="6.5206">
        <ele>2407</ele>
        <time>2021-02-21T06:43:08Z</time>
      </trkpt>
      <trkpt lat="44.45653" lon="6.52059">
        <ele>2407</ele>
        <time>2021-02-21T06:43:09Z</time>
      </trkpt>
      <trkpt lat="44.45653" lon="6.52059">
        <ele>2407</ele>
        <time>2021-02-21T06:43:10Z</time>
      </trkpt>
      <trkpt lat="44.45653" lon="6.52058">
        <ele>2407</ele>
        <time>2021-02-21T06:43:11Z</time>
      </trkpt>
      <trkpt lat="44.45653" lon="6.52057">
        <ele>2407</ele>
        <time>2021-02-21T06:43:12Z</time>
      </trkpt>
      <trkpt lat="44.45653" lon="6.52057">
        <ele>2407</ele>
        <time>2021-02-21T06:43:13Z</time>
      </trkpt>
      <trkpt lat="44.45653" lon="6.52058">
        <ele>2407</ele>
        <time>2021-02-21T06:43:14Z</time>
      </trkpt>
      <trkpt lat="44.45653" lon="6.52058">
        <ele>2406</ele>
        <time>2021-02-21T06:43:15Z</time>
      </trkpt>
      <trkpt lat="44.45653" lon="6.52058">
        <ele>2406</ele>
        <time>2021-02-21T06:43:16Z</time>
      </trkpt>
      <trkpt lat="44.45653" lon="6.52058">
        <ele>2406</ele>
        <time>2021-02-21T06:43:17Z</time>
      </trkpt>
      <trkpt lat="44.45653" lon="6.52058">
        <ele>2406</ele>
        <time>2021-02-21T06:43:18Z</time>
      </trkpt>
      <trkpt lat="44.45653" lon="6.52058">
        <ele>2406</ele>
        <time>2021-02-21T06:43:19Z</time>
      </trkpt>
      <trkpt lat="44.45652" lon="6.52059">
        <ele>2406</ele>
        <time>2021-02-21T06:43:20Z</time>
      </trkpt>
      <trkpt lat="44.45652" lon="6.5206">
        <ele>2406</ele>
        <time>2021-02-21T06:43:21Z</time>
      </trkpt>
      <trkpt lat="44.45652" lon="6.5206">
        <ele>2406</ele>
        <time>2021-02-21T06:43:22Z</time>
      </trkpt>
      <trkpt lat="44.45652" lon="6.52061">
        <ele>2406</ele>
        <time>2021-02-21T06:43:23Z</time>
      </trkpt>
      <trkpt lat="44.45652" lon="6.52061">
        <ele>2406</ele>
        <time>2021-02-21T06:43:24Z</time>
      </trkpt>
      <trkpt lat="44.45652" lon="6.52061">
        <ele>2406</ele>
        <time>2021-02-21T06:43:25Z</time>
      </trkpt>
      <trkpt lat="44.45652" lon="6.52061">
        <ele>2406</ele>
        <time>2021-02-21T06:43:26Z</time>
      </trkpt>
      <trkpt lat="44.45652" lon="6.52061">
        <ele>2406</ele>
        <time>2021-02-21T06:43:27Z</time>
      </trkpt>
      <trkpt lat="44.45652" lon="6.52061">
        <ele>2406</ele>
        <time>2021-02-21T06:43:28Z</time>
      </trkpt>
      <trkpt lat="44.45652" lon="6.52061">
        <ele>2406</ele>
        <time>2021-02-21T06:43:29Z</time>
      </trkpt>
      <trkpt lat="44.45652" lon="6.52061">
        <ele>2406</ele>
        <time>2021-02-21T06:43:30Z</time>
      </trkpt>
      <trkpt lat="44.45652" lon="6.52061">
        <ele>2406</ele>
        <time>2021-02-21T06:43:31Z</time>
      </trkpt>
      <trkpt lat="44.45652" lon="6.52061">
        <ele>2406</ele>
        <time>2021-02-21T06:43:32Z</time>
      </trkpt>
      <trkpt lat="44.45652" lon="6.52061">
        <ele>2405</ele>
        <time>2021-02-21T06:43:33Z</time>
      </trkpt>
      <trkpt lat="44.45652" lon="6.52061">
        <ele>2405</ele>
        <time>2021-02-21T06:43:34Z</time>
      </trkpt>
      <trkpt lat="44.45652" lon="6.52061">
        <ele>2405</ele>
        <time>2021-02-21T06:43:35Z</time>
      </trkpt>
      <trkpt lat="44.45652" lon="6.52061">
        <ele>2405</ele>
        <time>2021-02-21T06:43:36Z</time>
      </trkpt>
      <trkpt lat="44.45652" lon="6.52061">
        <ele>2405</ele>
        <time>2021-02-21T06:43:37Z</time>
      </trkpt>
      <trkpt lat="44.45652" lon="6.52061">
        <ele>2405</ele>
        <time>2021-02-21T06:43:38Z</time>
      </trkpt>
      <trkpt lat="44.45652" lon="6.52061">
        <ele>2405</ele>
        <time>2021-02-21T06:43:39Z</time>
      </trkpt>
      <trkpt lat="44.45652" lon="6.52061">
        <ele>2405</ele>
        <time>2021-02-21T06:43:40Z</time>
      </trkpt>
      <trkpt lat="44.45649" lon="6.52067">
        <ele>2407</ele>
        <time>2021-02-21T06:43:41Z</time>
      </trkpt>
      <trkpt lat="44.45649" lon="6.52067">
        <ele>2407</ele>
        <time>2021-02-21T06:43:42Z</time>
      </trkpt>
      <trkpt lat="44.45648" lon="6.52067">
        <ele>2408</ele>
        <time>2021-02-21T06:43:43Z</time>
      </trkpt>
      <trkpt lat="44.45647" lon="6.52067">
        <ele>2408</ele>
        <time>2021-02-21T06:43:44Z</time>
      </trkpt>
      <trkpt lat="44.45647" lon="6.52068">
        <ele>2408</ele>
        <time>2021-02-21T06:43:45Z</time>
      </trkpt>
      <trkpt lat="44.45647" lon="6.52068">
        <ele>2408</ele>
        <time>2021-02-21T06:43:46Z</time>
      </trkpt>
      <trkpt lat="44.45647" lon="6.52068">
        <ele>2408</ele>
        <time>2021-02-21T06:43:47Z</time>
      </trkpt>
      <trkpt lat="44.45647" lon="6.52068">
        <ele>2408</ele>
        <time>2021-02-21T06:43:48Z</time>
      </trkpt>
      <trkpt lat="44.45647" lon="6.52068">
        <ele>2408</ele>
        <time>2021-02-21T06:43:49Z</time>
      </trkpt>
      <trkpt lat="44.45647" lon="6.52069">
        <ele>2408</ele>
        <time>2021-02-21T06:43:50Z</time>
      </trkpt>
      <trkpt lat="44.45647" lon="6.52069">
        <ele>2408</ele>
        <time>2021-02-21T06:43:51Z</time>
      </trkpt>
      <trkpt lat="44.45647" lon="6.52068">
        <ele>2408</ele>
        <time>2021-02-21T06:43:52Z</time>
      </trkpt>
      <trkpt lat="44.45647" lon="6.52068">
        <ele>2408</ele>
        <time>2021-02-21T06:43:53Z</time>
      </trkpt>
      <trkpt lat="44.45647" lon="6.52068">
        <ele>2409</ele>
        <time>2021-02-21T06:43:54Z</time>
      </trkpt>
      <trkpt lat="44.45648" lon="6.52068">
        <ele>2409</ele>
        <time>2021-02-21T06:43:55Z</time>
      </trkpt>
      <trkpt lat="44.45648" lon="6.52068">
        <ele>2409</ele>
        <time>2021-02-21T06:43:56Z</time>
      </trkpt>
      <trkpt lat="44.45648" lon="6.52068">
        <ele>2409</ele>
        <time>2021-02-21T06:43:57Z</time>
      </trkpt>
      <trkpt lat="44.45648" lon="6.52068">
        <ele>2409</ele>
        <time>2021-02-21T06:43:58Z</time>
      </trkpt>
      <trkpt lat="44.45648" lon="6.52068">
        <ele>2409</ele>
        <time>2021-02-21T06:43:59Z</time>
      </trkpt>
      <trkpt lat="44.45648" lon="6.52068">
        <ele>2409</ele>
        <time>2021-02-21T06:44:00Z</time>
      </trkpt>
      <trkpt lat="44.45648" lon="6.52068">
        <ele>2409</ele>
        <time>2021-02-21T06:44:01Z</time>
      </trkpt>
      <trkpt lat="44.45648" lon="6.52068">
        <ele>2409</ele>
        <time>2021-02-21T06:44:02Z</time>
      </trkpt>
      <trkpt lat="44.45648" lon="6.52068">
        <ele>2409</ele>
        <time>2021-02-21T06:44:03Z</time>
      </trkpt>
      <trkpt lat="44.45651" lon="6.52067">
        <ele>2409</ele>
        <time>2021-02-21T06:44:04Z</time>
      </trkpt>
      <trkpt lat="44.45652" lon="6.52067">
        <ele>2409</ele>
        <time>2021-02-21T06:44:05Z</time>
      </trkpt>
      <trkpt lat="44.45652" lon="6.52067">
        <ele>2409</ele>
        <time>2021-02-21T06:44:06Z</time>
      </trkpt>
      <trkpt lat="44.45652" lon="6.52067">
        <ele>2409</ele>
        <time>2021-02-21T06:44:07Z</time>
      </trkpt>
      <trkpt lat="44.45652" lon="6.52067">
        <ele>2409</ele>
        <time>2021-02-21T06:44:08Z</time>
      </trkpt>
      <trkpt lat="44.45652" lon="6.52067">
        <ele>2409</ele>
        <time>2021-02-21T06:44:09Z</time>
      </trkpt>
      <trkpt lat="44.45652" lon="6.52067">
        <ele>2409</ele>
        <time>2021-02-21T06:44:10Z</time>
      </trkpt>
      <trkpt lat="44.45652" lon="6.52067">
        <ele>2409</ele>
        <time>2021-02-21T06:44:11Z</time>
      </trkpt>
      <trkpt lat="44.45652" lon="6.52067">
        <ele>2409</ele>
        <time>2021-02-21T06:44:12Z</time>
      </trkpt>
      <trkpt lat="44.45652" lon="6.52068">
        <ele>2409</ele>
        <time>2021-02-21T06:44:13Z</time>
      </trkpt>
      <trkpt lat="44.45651" lon="6.52067">
        <ele>2409</ele>
        <time>2021-02-21T06:44:14Z</time>
      </trkpt>
      <trkpt lat="44.45651" lon="6.52067">
        <ele>2409</ele>
        <time>2021-02-21T06:44:15Z</time>
      </trkpt>
      <trkpt lat="44.45651" lon="6.52067">
        <ele>2409</ele>
        <time>2021-02-21T06:44:16Z</time>
      </trkpt>
      <trkpt lat="44.45651" lon="6.52067">
        <ele>2409</ele>
        <time>2021-02-21T06:44:17Z</time>
      </trkpt>
      <trkpt lat="44.4565" lon="6.52064">
        <ele>2409</ele>
        <time>2021-02-21T06:44:18Z</time>
      </trkpt>
      <trkpt lat="44.4565" lon="6.52064">
        <ele>2409</ele>
        <time>2021-02-21T06:44:19Z</time>
      </trkpt>
      <trkpt lat="44.4565" lon="6.52064">
        <ele>2409</ele>
        <time>2021-02-21T06:44:20Z</time>
      </trkpt>
      <trkpt lat="44.4565" lon="6.52064">
        <ele>2409</ele>
        <time>2021-02-21T06:44:21Z</time>
      </trkpt>
      <trkpt lat="44.4565" lon="6.52064">
        <ele>2409</ele>
        <time>2021-02-21T06:44:22Z</time>
      </trkpt>
      <trkpt lat="44.4565" lon="6.52064">
        <ele>2408</ele>
        <time>2021-02-21T06:44:23Z</time>
      </trkpt>
      <trkpt lat="44.4565" lon="6.52064">
        <ele>2408</ele>
        <time>2021-02-21T06:44:24Z</time>
      </trkpt>
      <trkpt lat="44.4565" lon="6.52064">
        <ele>2408</ele>
        <time>2021-02-21T06:44:25Z</time>
      </trkpt>
      <trkpt lat="44.4565" lon="6.52064">
        <ele>2408</ele>
        <time>2021-02-21T06:44:26Z</time>
      </trkpt>
      <trkpt lat="44.4565" lon="6.52064">
        <ele>2408</ele>
        <time>2021-02-21T06:44:27Z</time>
      </trkpt>
      <trkpt lat="44.4565" lon="6.52064">
        <ele>2408</ele>
        <time>2021-02-21T06:44:28Z</time>
      </trkpt>
      <trkpt lat="44.4565" lon="6.52064">
        <ele>2408</ele>
        <time>2021-02-21T06:44:29Z</time>
      </trkpt>
      <trkpt lat="44.4565" lon="6.52064">
        <ele>2408</ele>
        <time>2021-02-21T06:44:30Z</time>
      </trkpt>
      <trkpt lat="44.4565" lon="6.52064">
        <ele>2408</ele>
        <time>2021-02-21T06:44:31Z</time>
      </trkpt>
      <trkpt lat="44.4565" lon="6.52064">
        <ele>2408</ele>
        <time>2021-02-21T06:44:32Z</time>
      </trkpt>
      <trkpt lat="44.4565" lon="6.52064">
        <ele>2408</ele>
        <time>2021-02-21T06:44:33Z</time>
      </trkpt>
      <trkpt lat="44.4565" lon="6.52064">
        <ele>2408</ele>
        <time>2021-02-21T06:44:34Z</time>
      </trkpt>
      <trkpt lat="44.4565" lon="6.52064">
        <ele>2408</ele>
        <time>2021-02-21T06:44:35Z</time>
      </trkpt>
      <trkpt lat="44.4565" lon="6.52064">
        <ele>2408</ele>
        <time>2021-02-21T06:44:36Z</time>
      </trkpt>
      <trkpt lat="44.4565" lon="6.52064">
        <ele>2408</ele>
        <time>2021-02-21T06:44:37Z</time>
      </trkpt>
      <trkpt lat="44.4565" lon="6.52064">
        <ele>2408</ele>
        <time>2021-02-21T06:44:38Z</time>
      </trkpt>
      <trkpt lat="44.4565" lon="6.52064">
        <ele>2408</ele>
        <time>2021-02-21T06:44:39Z</time>
      </trkpt>
      <trkpt lat="44.4565" lon="6.52064">
        <ele>2408</ele>
        <time>2021-02-21T06:44:40Z</time>
      </trkpt>
      <trkpt lat="44.4565" lon="6.52064">
        <ele>2408</ele>
        <time>2021-02-21T06:44:41Z</time>
      </trkpt>
      <trkpt lat="44.4565" lon="6.52064">
        <ele>2408</ele>
        <time>2021-02-21T06:44:42Z</time>
      </trkpt>
      <trkpt lat="44.4565" lon="6.52064">
        <ele>2408</ele>
        <time>2021-02-21T06:44:43Z</time>
      </trkpt>
      <trkpt lat="44.4565" lon="6.52064">
        <ele>2408</ele>
        <time>2021-02-21T06:44:44Z</time>
      </trkpt>
      <trkpt lat="44.4565" lon="6.52064">
        <ele>2408</ele>
        <time>2021-02-21T06:44:45Z</time>
      </trkpt>
      <trkpt lat="44.4565" lon="6.52064">
        <ele>2408</ele>
        <time>2021-02-21T06:44:46Z</time>
      </trkpt>
      <trkpt lat="44.4565" lon="6.52064">
        <ele>2408</ele>
        <time>2021-02-21T06:44:47Z</time>
      </trkpt>
      <trkpt lat="44.4565" lon="6.52064">
        <ele>2407</ele>
        <time>2021-02-21T06:44:48Z</time>
      </trkpt>
      <trkpt lat="44.4565" lon="6.52064">
        <ele>2407</ele>
        <time>2021-02-21T06:44:49Z</time>
      </trkpt>
      <trkpt lat="44.4565" lon="6.52064">
        <ele>2407</ele>
        <time>2021-02-21T06:44:50Z</time>
      </trkpt>
      <trkpt lat="44.4565" lon="6.52064">
        <ele>2407</ele>
        <time>2021-02-21T06:44:51Z</time>
      </trkpt>
      <trkpt lat="44.4565" lon="6.52064">
        <ele>2407</ele>
        <time>2021-02-21T06:44:52Z</time>
      </trkpt>
      <trkpt lat="44.4565" lon="6.52064">
        <ele>2407</ele>
        <time>2021-02-21T06:44:53Z</time>
      </trkpt>
      <trkpt lat="44.4565" lon="6.52064">
        <ele>2406</ele>
        <time>2021-02-21T06:44:54Z</time>
      </trkpt>
      <trkpt lat="44.4565" lon="6.52064">
        <ele>2406</ele>
        <time>2021-02-21T06:44:55Z</time>
      </trkpt>
      <trkpt lat="44.4565" lon="6.52064">
        <ele>2406</ele>
        <time>2021-02-21T06:44:56Z</time>
      </trkpt>
      <trkpt lat="44.4565" lon="6.52064">
        <ele>2406</ele>
        <time>2021-02-21T06:44:57Z</time>
      </trkpt>
      <trkpt lat="44.4565" lon="6.52064">
        <ele>2406</ele>
        <time>2021-02-21T06:44:58Z</time>
      </trkpt>
      <trkpt lat="44.4565" lon="6.52064">
        <ele>2406</ele>
        <time>2021-02-21T06:44:59Z</time>
      </trkpt>
      <trkpt lat="44.4565" lon="6.52064">
        <ele>2406</ele>
        <time>2021-02-21T06:45:00Z</time>
      </trkpt>
      <trkpt lat="44.4565" lon="6.52064">
        <ele>2406</ele>
        <time>2021-02-21T06:45:01Z</time>
      </trkpt>
      <trkpt lat="44.4565" lon="6.52064">
        <ele>2406</ele>
        <time>2021-02-21T06:45:02Z</time>
      </trkpt>
      <trkpt lat="44.4565" lon="6.52064">
        <ele>2406</ele>
        <time>2021-02-21T06:45:03Z</time>
      </trkpt>
      <trkpt lat="44.4565" lon="6.52064">
        <ele>2406</ele>
        <time>2021-02-21T06:45:04Z</time>
      </trkpt>
      <trkpt lat="44.4565" lon="6.52064">
        <ele>2406</ele>
        <time>2021-02-21T06:45:05Z</time>
      </trkpt>
      <trkpt lat="44.4565" lon="6.52064">
        <ele>2406</ele>
        <time>2021-02-21T06:45:06Z</time>
      </trkpt>
      <trkpt lat="44.4565" lon="6.52064">
        <ele>2406</ele>
        <time>2021-02-21T06:45:07Z</time>
      </trkpt>
      <trkpt lat="44.4565" lon="6.52064">
        <ele>2406</ele>
        <time>2021-02-21T06:45:08Z</time>
      </trkpt>
      <trkpt lat="44.4565" lon="6.52064">
        <ele>2406</ele>
        <time>2021-02-21T06:45:09Z</time>
      </trkpt>
      <trkpt lat="44.4565" lon="6.52064">
        <ele>2406</ele>
        <time>2021-02-21T06:45:10Z</time>
      </trkpt>
      <trkpt lat="44.4565" lon="6.52064">
        <ele>2406</ele>
        <time>2021-02-21T06:45:11Z</time>
      </trkpt>
      <trkpt lat="44.4565" lon="6.52064">
        <ele>2406</ele>
        <time>2021-02-21T06:45:12Z</time>
      </trkpt>
      <trkpt lat="44.4565" lon="6.52064">
        <ele>2406</ele>
        <time>2021-02-21T06:45:13Z</time>
      </trkpt>
      <trkpt lat="44.4565" lon="6.52064">
        <ele>2406</ele>
        <time>2021-02-21T06:45:14Z</time>
      </trkpt>
      <trkpt lat="44.4565" lon="6.52064">
        <ele>2406</ele>
        <time>2021-02-21T06:45:15Z</time>
      </trkpt>
      <trkpt lat="44.4565" lon="6.52064">
        <ele>2406</ele>
        <time>2021-02-21T06:45:16Z</time>
      </trkpt>
      <trkpt lat="44.4565" lon="6.52064">
        <ele>2406</ele>
        <time>2021-02-21T06:45:17Z</time>
      </trkpt>
      <trkpt lat="44.4565" lon="6.52064">
        <ele>2406</ele>
        <time>2021-02-21T06:45:18Z</time>
      </trkpt>
      <trkpt lat="44.4565" lon="6.52064">
        <ele>2406</ele>
        <time>2021-02-21T06:45:19Z</time>
      </trkpt>
      <trkpt lat="44.4565" lon="6.52064">
        <ele>2406</ele>
        <time>2021-02-21T06:45:20Z</time>
      </trkpt>
      <trkpt lat="44.4565" lon="6.52064">
        <ele>2406</ele>
        <time>2021-02-21T06:45:21Z</time>
      </trkpt>
      <trkpt lat="44.4565" lon="6.52064">
        <ele>2406</ele>
        <time>2021-02-21T06:45:22Z</time>
      </trkpt>
      <trkpt lat="44.4565" lon="6.52064">
        <ele>2406</ele>
        <time>2021-02-21T06:45:23Z</time>
      </trkpt>
      <trkpt lat="44.4565" lon="6.52064">
        <ele>2406</ele>
        <time>2021-02-21T06:45:24Z</time>
      </trkpt>
      <trkpt lat="44.4565" lon="6.52064">
        <ele>2406</ele>
        <time>2021-02-21T06:45:25Z</time>
      </trkpt>
      <trkpt lat="44.4565" lon="6.52064">
        <ele>2406</ele>
        <time>2021-02-21T06:45:26Z</time>
      </trkpt>
      <trkpt lat="44.4565" lon="6.52064">
        <ele>2406</ele>
        <time>2021-02-21T06:45:27Z</time>
      </trkpt>
      <trkpt lat="44.4565" lon="6.52064">
        <ele>2406</ele>
        <time>2021-02-21T06:45:28Z</time>
      </trkpt>
      <trkpt lat="44.4565" lon="6.52064">
        <ele>2406</ele>
        <time>2021-02-21T06:45:29Z</time>
      </trkpt>
      <trkpt lat="44.4565" lon="6.52064">
        <ele>2406</ele>
        <time>2021-02-21T06:45:30Z</time>
      </trkpt>
      <trkpt lat="44.4565" lon="6.52064">
        <ele>2406</ele>
        <time>2021-02-21T06:45:31Z</time>
      </trkpt>
      <trkpt lat="44.4565" lon="6.52064">
        <ele>2406</ele>
        <time>2021-02-21T06:45:32Z</time>
      </trkpt>
      <trkpt lat="44.4565" lon="6.52064">
        <ele>2406</ele>
        <time>2021-02-21T06:45:33Z</time>
      </trkpt>
      <trkpt lat="44.4565" lon="6.52064">
        <ele>2406</ele>
        <time>2021-02-21T06:45:34Z</time>
      </trkpt>
      <trkpt lat="44.4565" lon="6.52064">
        <ele>2406</ele>
        <time>2021-02-21T06:45:35Z</time>
      </trkpt>
      <trkpt lat="44.4565" lon="6.52064">
        <ele>2406</ele>
        <time>2021-02-21T06:45:36Z</time>
      </trkpt>
      <trkpt lat="44.4565" lon="6.52064">
        <ele>2406</ele>
        <time>2021-02-21T06:45:37Z</time>
      </trkpt>
      <trkpt lat="44.4565" lon="6.52064">
        <ele>2406</ele>
        <time>2021-02-21T06:45:38Z</time>
      </trkpt>
      <trkpt lat="44.4565" lon="6.52064">
        <ele>2406</ele>
        <time>2021-02-21T06:45:39Z</time>
      </trkpt>
      <trkpt lat="44.4565" lon="6.52064">
        <ele>2406</ele>
        <time>2021-02-21T06:45:40Z</time>
      </trkpt>
      <trkpt lat="44.4565" lon="6.52064">
        <ele>2406</ele>
        <time>2021-02-21T06:45:41Z</time>
      </trkpt>
      <trkpt lat="44.4565" lon="6.52064">
        <ele>2406</ele>
        <time>2021-02-21T06:45:42Z</time>
      </trkpt>
      <trkpt lat="44.4565" lon="6.52064">
        <ele>2406</ele>
        <time>2021-02-21T06:45:43Z</time>
      </trkpt>
      <trkpt lat="44.4565" lon="6.52064">
        <ele>2406</ele>
        <time>2021-02-21T06:45:44Z</time>
      </trkpt>
      <trkpt lat="44.4565" lon="6.52064">
        <ele>2406</ele>
        <time>2021-02-21T06:45:45Z</time>
      </trkpt>
      <trkpt lat="44.4565" lon="6.52064">
        <ele>2406</ele>
        <time>2021-02-21T06:45:46Z</time>
      </trkpt>
      <trkpt lat="44.4565" lon="6.52064">
        <ele>2406</ele>
        <time>2021-02-21T06:45:47Z</time>
      </trkpt>
      <trkpt lat="44.4565" lon="6.52064">
        <ele>2406</ele>
        <time>2021-02-21T06:45:48Z</time>
      </trkpt>
      <trkpt lat="44.4565" lon="6.52064">
        <ele>2406</ele>
        <time>2021-02-21T06:45:49Z</time>
      </trkpt>
      <trkpt lat="44.4565" lon="6.52064">
        <ele>2406</ele>
        <time>2021-02-21T06:45:50Z</time>
      </trkpt>
      <trkpt lat="44.4565" lon="6.52064">
        <ele>2406</ele>
        <time>2021-02-21T06:45:51Z</time>
      </trkpt>
      <trkpt lat="44.4565" lon="6.52064">
        <ele>2406</ele>
        <time>2021-02-21T06:45:52Z</time>
      </trkpt>
      <trkpt lat="44.4565" lon="6.52064">
        <ele>2406</ele>
        <time>2021-02-21T06:45:53Z</time>
      </trkpt>
      <trkpt lat="44.4565" lon="6.52064">
        <ele>2406</ele>
        <time>2021-02-21T06:45:54Z</time>
      </trkpt>
      <trkpt lat="44.4565" lon="6.52064">
        <ele>2406</ele>
        <time>2021-02-21T06:45:55Z</time>
      </trkpt>
      <trkpt lat="44.4565" lon="6.52064">
        <ele>2406</ele>
        <time>2021-02-21T06:45:56Z</time>
      </trkpt>
      <trkpt lat="44.4565" lon="6.52064">
        <ele>2406</ele>
        <time>2021-02-21T06:45:57Z</time>
      </trkpt>
      <trkpt lat="44.4565" lon="6.52064">
        <ele>2406</ele>
        <time>2021-02-21T06:45:58Z</time>
      </trkpt>
      <trkpt lat="44.4565" lon="6.52064">
        <ele>2406</ele>
        <time>2021-02-21T06:45:59Z</time>
      </trkpt>
      <trkpt lat="44.4565" lon="6.52064">
        <ele>2406</ele>
        <time>2021-02-21T06:46:00Z</time>
      </trkpt>
      <trkpt lat="44.4565" lon="6.52064">
        <ele>2406</ele>
        <time>2021-02-21T06:46:01Z</time>
      </trkpt>
      <trkpt lat="44.4565" lon="6.52064">
        <ele>2406</ele>
        <time>2021-02-21T06:46:02Z</time>
      </trkpt>
      <trkpt lat="44.4565" lon="6.52064">
        <ele>2406</ele>
        <time>2021-02-21T06:46:03Z</time>
      </trkpt>
      <trkpt lat="44.4565" lon="6.52064">
        <ele>2406</ele>
        <time>2021-02-21T06:46:04Z</time>
      </trkpt>
      <trkpt lat="44.4565" lon="6.52064">
        <ele>2406</ele>
        <time>2021-02-21T06:46:05Z</time>
      </trkpt>
      <trkpt lat="44.4565" lon="6.52064">
        <ele>2406</ele>
        <time>2021-02-21T06:46:06Z</time>
      </trkpt>
      <trkpt lat="44.4565" lon="6.52064">
        <ele>2406</ele>
        <time>2021-02-21T06:46:07Z</time>
      </trkpt>
      <trkpt lat="44.4565" lon="6.52064">
        <ele>2406</ele>
        <time>2021-02-21T06:46:08Z</time>
      </trkpt>
      <trkpt lat="44.4565" lon="6.52064">
        <ele>2406</ele>
        <time>2021-02-21T06:46:09Z</time>
      </trkpt>
      <trkpt lat="44.4565" lon="6.52064">
        <ele>2406</ele>
        <time>2021-02-21T06:46:10Z</time>
      </trkpt>
      <trkpt lat="44.4565" lon="6.52064">
        <ele>2406</ele>
        <time>2021-02-21T06:46:11Z</time>
      </trkpt>
      <trkpt lat="44.4565" lon="6.52064">
        <ele>2406</ele>
        <time>2021-02-21T06:46:12Z</time>
      </trkpt>
      <trkpt lat="44.4565" lon="6.52064">
        <ele>2406</ele>
        <time>2021-02-21T06:46:13Z</time>
      </trkpt>
      <trkpt lat="44.4565" lon="6.52064">
        <ele>2406</ele>
        <time>2021-02-21T06:46:14Z</time>
      </trkpt>
      <trkpt lat="44.4565" lon="6.52064">
        <ele>2406</ele>
        <time>2021-02-21T06:46:15Z</time>
      </trkpt>
      <trkpt lat="44.4565" lon="6.52064">
        <ele>2406</ele>
        <time>2021-02-21T06:46:16Z</time>
      </trkpt>
      <trkpt lat="44.4565" lon="6.52064">
        <ele>2406</ele>
        <time>2021-02-21T06:46:17Z</time>
      </trkpt>
      <trkpt lat="44.4565" lon="6.52064">
        <ele>2406</ele>
        <time>2021-02-21T06:46:18Z</time>
      </trkpt>
      <trkpt lat="44.4565" lon="6.52064">
        <ele>2406</ele>
        <time>2021-02-21T06:46:19Z</time>
      </trkpt>
      <trkpt lat="44.4565" lon="6.52064">
        <ele>2406</ele>
        <time>2021-02-21T06:46:20Z</time>
      </trkpt>
      <trkpt lat="44.4565" lon="6.52064">
        <ele>2406</ele>
        <time>2021-02-21T06:46:21Z</time>
      </trkpt>
      <trkpt lat="44.4565" lon="6.52064">
        <ele>2406</ele>
        <time>2021-02-21T06:46:22Z</time>
      </trkpt>
      <trkpt lat="44.4565" lon="6.52064">
        <ele>2406</ele>
        <time>2021-02-21T06:46:23Z</time>
      </trkpt>
      <trkpt lat="44.4565" lon="6.52064">
        <ele>2406</ele>
        <time>2021-02-21T06:46:24Z</time>
      </trkpt>
      <trkpt lat="44.4565" lon="6.52064">
        <ele>2406</ele>
        <time>2021-02-21T06:46:25Z</time>
      </trkpt>
      <trkpt lat="44.4565" lon="6.52064">
        <ele>2406</ele>
        <time>2021-02-21T06:46:26Z</time>
      </trkpt>
      <trkpt lat="44.4565" lon="6.52064">
        <ele>2406</ele>
        <time>2021-02-21T06:46:27Z</time>
      </trkpt>
      <trkpt lat="44.4565" lon="6.52064">
        <ele>2406</ele>
        <time>2021-02-21T06:46:28Z</time>
      </trkpt>
      <trkpt lat="44.4565" lon="6.52064">
        <ele>2406</ele>
        <time>2021-02-21T06:46:29Z</time>
      </trkpt>
      <trkpt lat="44.4565" lon="6.52064">
        <ele>2406</ele>
        <time>2021-02-21T06:46:30Z</time>
      </trkpt>
      <trkpt lat="44.4565" lon="6.52064">
        <ele>2406</ele>
        <time>2021-02-21T06:46:31Z</time>
      </trkpt>
      <trkpt lat="44.4565" lon="6.52064">
        <ele>2406</ele>
        <time>2021-02-21T06:46:32Z</time>
      </trkpt>
      <trkpt lat="44.4565" lon="6.52064">
        <ele>2406</ele>
        <time>2021-02-21T06:46:33Z</time>
      </trkpt>
      <trkpt lat="44.4565" lon="6.52064">
        <ele>2406</ele>
        <time>2021-02-21T06:46:34Z</time>
      </trkpt>
      <trkpt lat="44.4565" lon="6.52062">
        <ele>2406</ele>
        <time>2021-02-21T06:46:35Z</time>
      </trkpt>
      <trkpt lat="44.4565" lon="6.52061">
        <ele>2406</ele>
        <time>2021-02-21T06:46:36Z</time>
      </trkpt>
      <trkpt lat="44.45651" lon="6.52061">
        <ele>2406</ele>
        <time>2021-02-21T06:46:37Z</time>
      </trkpt>
      <trkpt lat="44.45651" lon="6.5206">
        <ele>2406</ele>
        <time>2021-02-21T06:46:38Z</time>
      </trkpt>
      <trkpt lat="44.45651" lon="6.5206">
        <ele>2406</ele>
        <time>2021-02-21T06:46:39Z</time>
      </trkpt>
      <trkpt lat="44.45651" lon="6.52059">
        <ele>2406</ele>
        <time>2021-02-21T06:46:40Z</time>
      </trkpt>
      <trkpt lat="44.45652" lon="6.52059">
        <ele>2406</ele>
        <time>2021-02-21T06:46:41Z</time>
      </trkpt>
      <trkpt lat="44.45652" lon="6.52059">
        <ele>2406</ele>
        <time>2021-02-21T06:46:42Z</time>
      </trkpt>
      <trkpt lat="44.45652" lon="6.52059">
        <ele>2405</ele>
        <time>2021-02-21T06:46:43Z</time>
      </trkpt>
      <trkpt lat="44.45652" lon="6.52058">
        <ele>2405</ele>
        <time>2021-02-21T06:46:44Z</time>
      </trkpt>
      <trkpt lat="44.45652" lon="6.52057">
        <ele>2405</ele>
        <time>2021-02-21T06:46:45Z</time>
      </trkpt>
      <trkpt lat="44.45652" lon="6.52056">
        <ele>2405</ele>
        <time>2021-02-21T06:46:46Z</time>
      </trkpt>
      <trkpt lat="44.45652" lon="6.52055">
        <ele>2405</ele>
        <time>2021-02-21T06:46:47Z</time>
      </trkpt>
      <trkpt lat="44.45652" lon="6.52054">
        <ele>2405</ele>
        <time>2021-02-21T06:46:48Z</time>
      </trkpt>
      <trkpt lat="44.45652" lon="6.52054">
        <ele>2405</ele>
        <time>2021-02-21T06:46:49Z</time>
      </trkpt>
      <trkpt lat="44.45653" lon="6.52055">
        <ele>2405</ele>
        <time>2021-02-21T06:46:50Z</time>
      </trkpt>
      <trkpt lat="44.45653" lon="6.52054">
        <ele>2405</ele>
        <time>2021-02-21T06:46:51Z</time>
      </trkpt>
      <trkpt lat="44.45654" lon="6.52054">
        <ele>2405</ele>
        <time>2021-02-21T06:46:52Z</time>
      </trkpt>
      <trkpt lat="44.45653" lon="6.52055">
        <ele>2405</ele>
        <time>2021-02-21T06:46:53Z</time>
      </trkpt>
      <trkpt lat="44.45654" lon="6.52055">
        <ele>2405</ele>
        <time>2021-02-21T06:46:54Z</time>
      </trkpt>
      <trkpt lat="44.45654" lon="6.52054">
        <ele>2405</ele>
        <time>2021-02-21T06:46:55Z</time>
      </trkpt>
      <trkpt lat="44.45655" lon="6.52054">
        <ele>2405</ele>
        <time>2021-02-21T06:46:56Z</time>
      </trkpt>
      <trkpt lat="44.45655" lon="6.52054">
        <ele>2405</ele>
        <time>2021-02-21T06:46:57Z</time>
      </trkpt>
      <trkpt lat="44.45655" lon="6.52054">
        <ele>2405</ele>
        <time>2021-02-21T06:46:58Z</time>
      </trkpt>
      <trkpt lat="44.45656" lon="6.52054">
        <ele>2406</ele>
        <time>2021-02-21T06:46:59Z</time>
      </trkpt>
      <trkpt lat="44.45656" lon="6.52054">
        <ele>2406</ele>
        <time>2021-02-21T06:47:00Z</time>
      </trkpt>
      <trkpt lat="44.45655" lon="6.52053">
        <ele>2405</ele>
        <time>2021-02-21T06:47:01Z</time>
      </trkpt>
      <trkpt lat="44.45656" lon="6.52053">
        <ele>2405</ele>
        <time>2021-02-21T06:47:02Z</time>
      </trkpt>
      <trkpt lat="44.45656" lon="6.52052">
        <ele>2405</ele>
        <time>2021-02-21T06:47:03Z</time>
      </trkpt>
      <trkpt lat="44.45656" lon="6.52052">
        <ele>2405</ele>
        <time>2021-02-21T06:47:04Z</time>
      </trkpt>
      <trkpt lat="44.45656" lon="6.52052">
        <ele>2405</ele>
        <time>2021-02-21T06:47:05Z</time>
      </trkpt>
      <trkpt lat="44.45656" lon="6.52052">
        <ele>2405</ele>
        <time>2021-02-21T06:47:06Z</time>
      </trkpt>
      <trkpt lat="44.45656" lon="6.52052">
        <ele>2405</ele>
        <time>2021-02-21T06:47:07Z</time>
      </trkpt>
      <trkpt lat="44.45656" lon="6.52053">
        <ele>2406</ele>
        <time>2021-02-21T06:47:08Z</time>
      </trkpt>
      <trkpt lat="44.45657" lon="6.52054">
        <ele>2406</ele>
        <time>2021-02-21T06:47:09Z</time>
      </trkpt>
      <trkpt lat="44.45657" lon="6.52055">
        <ele>2406</ele>
        <time>2021-02-21T06:47:10Z</time>
      </trkpt>
      <trkpt lat="44.45658" lon="6.52054">
        <ele>2406</ele>
        <time>2021-02-21T06:47:11Z</time>
      </trkpt>
      <trkpt lat="44.45658" lon="6.52054">
        <ele>2406</ele>
        <time>2021-02-21T06:47:12Z</time>
      </trkpt>
      <trkpt lat="44.45658" lon="6.52055">
        <ele>2406</ele>
        <time>2021-02-21T06:47:13Z</time>
      </trkpt>
      <trkpt lat="44.45659" lon="6.52055">
        <ele>2406</ele>
        <time>2021-02-21T06:47:14Z</time>
      </trkpt>
      <trkpt lat="44.4566" lon="6.52054">
        <ele>2407</ele>
        <time>2021-02-21T06:47:15Z</time>
      </trkpt>
      <trkpt lat="44.4566" lon="6.52054">
        <ele>2408</ele>
        <time>2021-02-21T06:47:16Z</time>
      </trkpt>
      <trkpt lat="44.4566" lon="6.52054">
        <ele>2408</ele>
        <time>2021-02-21T06:47:17Z</time>
      </trkpt>
      <trkpt lat="44.4566" lon="6.52053">
        <ele>2408</ele>
        <time>2021-02-21T06:47:18Z</time>
      </trkpt>
      <trkpt lat="44.4566" lon="6.52053">
        <ele>2408</ele>
        <time>2021-02-21T06:47:19Z</time>
      </trkpt>
      <trkpt lat="44.4566" lon="6.52053">
        <ele>2408</ele>
        <time>2021-02-21T06:47:20Z</time>
      </trkpt>
      <trkpt lat="44.4566" lon="6.52052">
        <ele>2408</ele>
        <time>2021-02-21T06:47:21Z</time>
      </trkpt>
      <trkpt lat="44.4566" lon="6.52052">
        <ele>2408</ele>
        <time>2021-02-21T06:47:22Z</time>
      </trkpt>
      <trkpt lat="44.4566" lon="6.52052">
        <ele>2408</ele>
        <time>2021-02-21T06:47:23Z</time>
      </trkpt>
      <trkpt lat="44.4566" lon="6.52052">
        <ele>2408</ele>
        <time>2021-02-21T06:47:24Z</time>
      </trkpt>
      <trkpt lat="44.4566" lon="6.52051">
        <ele>2408</ele>
        <time>2021-02-21T06:47:25Z</time>
      </trkpt>
      <trkpt lat="44.4566" lon="6.52051">
        <ele>2408</ele>
        <time>2021-02-21T06:47:26Z</time>
      </trkpt>
      <trkpt lat="44.4566" lon="6.52051">
        <ele>2408</ele>
        <time>2021-02-21T06:47:27Z</time>
      </trkpt>
      <trkpt lat="44.45661" lon="6.5205">
        <ele>2408</ele>
        <time>2021-02-21T06:47:28Z</time>
      </trkpt>
      <trkpt lat="44.45661" lon="6.5205">
        <ele>2408</ele>
        <time>2021-02-21T06:47:29Z</time>
      </trkpt>
      <trkpt lat="44.45662" lon="6.5205">
        <ele>2408</ele>
        <time>2021-02-21T06:47:30Z</time>
      </trkpt>
      <trkpt lat="44.45663" lon="6.52049">
        <ele>2409</ele>
        <time>2021-02-21T06:47:31Z</time>
      </trkpt>
      <trkpt lat="44.45662" lon="6.52049">
        <ele>2409</ele>
        <time>2021-02-21T06:47:32Z</time>
      </trkpt>
      <trkpt lat="44.45663" lon="6.52049">
        <ele>2409</ele>
        <time>2021-02-21T06:47:33Z</time>
      </trkpt>
      <trkpt lat="44.45663" lon="6.52048">
        <ele>2409</ele>
        <time>2021-02-21T06:47:34Z</time>
      </trkpt>
      <trkpt lat="44.45663" lon="6.52047">
        <ele>2409</ele>
        <time>2021-02-21T06:47:35Z</time>
      </trkpt>
      <trkpt lat="44.45663" lon="6.52046">
        <ele>2409</ele>
        <time>2021-02-21T06:47:36Z</time>
      </trkpt>
      <trkpt lat="44.45664" lon="6.52045">
        <ele>2409</ele>
        <time>2021-02-21T06:47:37Z</time>
      </trkpt>
      <trkpt lat="44.45664" lon="6.52044">
        <ele>2409</ele>
        <time>2021-02-21T06:47:38Z</time>
      </trkpt>
      <trkpt lat="44.45664" lon="6.52044">
        <ele>2409</ele>
        <time>2021-02-21T06:47:39Z</time>
      </trkpt>
      <trkpt lat="44.45663" lon="6.52043">
        <ele>2409</ele>
        <time>2021-02-21T06:47:40Z</time>
      </trkpt>
      <trkpt lat="44.45663" lon="6.52043">
        <ele>2409</ele>
        <time>2021-02-21T06:47:41Z</time>
      </trkpt>
      <trkpt lat="44.45663" lon="6.52043">
        <ele>2409</ele>
        <time>2021-02-21T06:47:42Z</time>
      </trkpt>
      <trkpt lat="44.45663" lon="6.52043">
        <ele>2409</ele>
        <time>2021-02-21T06:47:43Z</time>
      </trkpt>
      <trkpt lat="44.45662" lon="6.52042">
        <ele>2408</ele>
        <time>2021-02-21T06:47:44Z</time>
      </trkpt>
      <trkpt lat="44.45662" lon="6.52042">
        <ele>2408</ele>
        <time>2021-02-21T06:47:45Z</time>
      </trkpt>
      <trkpt lat="44.45662" lon="6.52041">
        <ele>2408</ele>
        <time>2021-02-21T06:47:46Z</time>
      </trkpt>
      <trkpt lat="44.45662" lon="6.5204">
        <ele>2407</ele>
        <time>2021-02-21T06:47:47Z</time>
      </trkpt>
      <trkpt lat="44.45662" lon="6.52038">
        <ele>2407</ele>
        <time>2021-02-21T06:47:48Z</time>
      </trkpt>
      <trkpt lat="44.45663" lon="6.52037">
        <ele>2407</ele>
        <time>2021-02-21T06:47:49Z</time>
      </trkpt>
      <trkpt lat="44.45663" lon="6.52037">
        <ele>2407</ele>
        <time>2021-02-21T06:47:50Z</time>
      </trkpt>
      <trkpt lat="44.45663" lon="6.52036">
        <ele>2407</ele>
        <time>2021-02-21T06:47:51Z</time>
      </trkpt>
      <trkpt lat="44.45663" lon="6.52035">
        <ele>2407</ele>
        <time>2021-02-21T06:47:52Z</time>
      </trkpt>
      <trkpt lat="44.45663" lon="6.52034">
        <ele>2407</ele>
        <time>2021-02-21T06:47:53Z</time>
      </trkpt>
      <trkpt lat="44.45663" lon="6.52033">
        <ele>2407</ele>
        <time>2021-02-21T06:47:54Z</time>
      </trkpt>
      <trkpt lat="44.45664" lon="6.52033">
        <ele>2407</ele>
        <time>2021-02-21T06:47:55Z</time>
      </trkpt>
      <trkpt lat="44.45664" lon="6.52033">
        <ele>2407</ele>
        <time>2021-02-21T06:47:56Z</time>
      </trkpt>
      <trkpt lat="44.45664" lon="6.52032">
        <ele>2407</ele>
        <time>2021-02-21T06:47:57Z</time>
      </trkpt>
      <trkpt lat="44.45664" lon="6.52032">
        <ele>2407</ele>
        <time>2021-02-21T06:47:58Z</time>
      </trkpt>
      <trkpt lat="44.45665" lon="6.52031">
        <ele>2407</ele>
        <time>2021-02-21T06:47:59Z</time>
      </trkpt>
      <trkpt lat="44.45665" lon="6.52031">
        <ele>2407</ele>
        <time>2021-02-21T06:48:00Z</time>
      </trkpt>
      <trkpt lat="44.45665" lon="6.52032">
        <ele>2406</ele>
        <time>2021-02-21T06:48:01Z</time>
      </trkpt>
      <trkpt lat="44.45666" lon="6.52033">
        <ele>2406</ele>
        <time>2021-02-21T06:48:02Z</time>
      </trkpt>
      <trkpt lat="44.45665" lon="6.52033">
        <ele>2406</ele>
        <time>2021-02-21T06:48:03Z</time>
      </trkpt>
      <trkpt lat="44.45666" lon="6.52033">
        <ele>2406</ele>
        <time>2021-02-21T06:48:04Z</time>
      </trkpt>
      <trkpt lat="44.45666" lon="6.52033">
        <ele>2406</ele>
        <time>2021-02-21T06:48:05Z</time>
      </trkpt>
      <trkpt lat="44.45667" lon="6.52034">
        <ele>2406</ele>
        <time>2021-02-21T06:48:06Z</time>
      </trkpt>
      <trkpt lat="44.45667" lon="6.52033">
        <ele>2406</ele>
        <time>2021-02-21T06:48:07Z</time>
      </trkpt>
      <trkpt lat="44.45667" lon="6.52032">
        <ele>2407</ele>
        <time>2021-02-21T06:48:08Z</time>
      </trkpt>
      <trkpt lat="44.45667" lon="6.52032">
        <ele>2407</ele>
        <time>2021-02-21T06:48:09Z</time>
      </trkpt>
      <trkpt lat="44.45667" lon="6.52031">
        <ele>2407</ele>
        <time>2021-02-21T06:48:10Z</time>
      </trkpt>
      <trkpt lat="44.45667" lon="6.52031">
        <ele>2407</ele>
        <time>2021-02-21T06:48:11Z</time>
      </trkpt>
      <trkpt lat="44.45668" lon="6.52031">
        <ele>2407</ele>
        <time>2021-02-21T06:48:12Z</time>
      </trkpt>
      <trkpt lat="44.45668" lon="6.52031">
        <ele>2407</ele>
        <time>2021-02-21T06:48:13Z</time>
      </trkpt>
      <trkpt lat="44.45668" lon="6.5203">
        <ele>2407</ele>
        <time>2021-02-21T06:48:14Z</time>
      </trkpt>
      <trkpt lat="44.45668" lon="6.52029">
        <ele>2407</ele>
        <time>2021-02-21T06:48:15Z</time>
      </trkpt>
      <trkpt lat="44.45668" lon="6.52028">
        <ele>2407</ele>
        <time>2021-02-21T06:48:16Z</time>
      </trkpt>
      <trkpt lat="44.45668" lon="6.52028">
        <ele>2407</ele>
        <time>2021-02-21T06:48:17Z</time>
      </trkpt>
      <trkpt lat="44.45668" lon="6.52028">
        <ele>2407</ele>
        <time>2021-02-21T06:48:18Z</time>
      </trkpt>
      <trkpt lat="44.45668" lon="6.52028">
        <ele>2408</ele>
        <time>2021-02-21T06:48:19Z</time>
      </trkpt>
      <trkpt lat="44.45667" lon="6.52027">
        <ele>2408</ele>
        <time>2021-02-21T06:48:20Z</time>
      </trkpt>
      <trkpt lat="44.45666" lon="6.52027">
        <ele>2408</ele>
        <time>2021-02-21T06:48:21Z</time>
      </trkpt>
      <trkpt lat="44.45666" lon="6.52027">
        <ele>2408</ele>
        <time>2021-02-21T06:48:22Z</time>
      </trkpt>
      <trkpt lat="44.45666" lon="6.52027">
        <ele>2408</ele>
        <time>2021-02-21T06:48:23Z</time>
      </trkpt>
      <trkpt lat="44.45667" lon="6.52026">
        <ele>2410</ele>
        <time>2021-02-21T06:48:24Z</time>
      </trkpt>
      <trkpt lat="44.45667" lon="6.52026">
        <ele>2410</ele>
        <time>2021-02-21T06:48:25Z</time>
      </trkpt>
      <trkpt lat="44.45667" lon="6.52026">
        <ele>2410</ele>
        <time>2021-02-21T06:48:26Z</time>
      </trkpt>
      <trkpt lat="44.45667" lon="6.52025">
        <ele>2411</ele>
        <time>2021-02-21T06:48:27Z</time>
      </trkpt>
      <trkpt lat="44.45667" lon="6.52025">
        <ele>2411</ele>
        <time>2021-02-21T06:48:28Z</time>
      </trkpt>
      <trkpt lat="44.45667" lon="6.52024">
        <ele>2411</ele>
        <time>2021-02-21T06:48:29Z</time>
      </trkpt>
      <trkpt lat="44.45668" lon="6.52023">
        <ele>2411</ele>
        <time>2021-02-21T06:48:30Z</time>
      </trkpt>
      <trkpt lat="44.45667" lon="6.52022">
        <ele>2411</ele>
        <time>2021-02-21T06:48:31Z</time>
      </trkpt>
      <trkpt lat="44.45667" lon="6.52022">
        <ele>2411</ele>
        <time>2021-02-21T06:48:32Z</time>
      </trkpt>
      <trkpt lat="44.45667" lon="6.5202">
        <ele>2412</ele>
        <time>2021-02-21T06:48:33Z</time>
      </trkpt>
      <trkpt lat="44.45667" lon="6.5202">
        <ele>2412</ele>
        <time>2021-02-21T06:48:34Z</time>
      </trkpt>
      <trkpt lat="44.45667" lon="6.52019">
        <ele>2412</ele>
        <time>2021-02-21T06:48:35Z</time>
      </trkpt>
      <trkpt lat="44.45667" lon="6.52018">
        <ele>2412</ele>
        <time>2021-02-21T06:48:36Z</time>
      </trkpt>
      <trkpt lat="44.45667" lon="6.52018">
        <ele>2412</ele>
        <time>2021-02-21T06:48:37Z</time>
      </trkpt>
      <trkpt lat="44.45667" lon="6.52017">
        <ele>2412</ele>
        <time>2021-02-21T06:48:38Z</time>
      </trkpt>
      <trkpt lat="44.45667" lon="6.52016">
        <ele>2412</ele>
        <time>2021-02-21T06:48:39Z</time>
      </trkpt>
      <trkpt lat="44.45667" lon="6.52016">
        <ele>2412</ele>
        <time>2021-02-21T06:48:41Z</time>
      </trkpt>
      <trkpt lat="44.45667" lon="6.52016">
        <ele>2412</ele>
        <time>2021-02-21T06:48:42Z</time>
      </trkpt>
      <trkpt lat="44.45667" lon="6.52015">
        <ele>2413</ele>
        <time>2021-02-21T06:48:43Z</time>
      </trkpt>
      <trkpt lat="44.45667" lon="6.52014">
        <ele>2413</ele>
        <time>2021-02-21T06:48:44Z</time>
      </trkpt>
      <trkpt lat="44.45666" lon="6.52013">
        <ele>2413</ele>
        <time>2021-02-21T06:48:45Z</time>
      </trkpt>
      <trkpt lat="44.45666" lon="6.52013">
        <ele>2413</ele>
        <time>2021-02-21T06:48:46Z</time>
      </trkpt>
      <trkpt lat="44.45667" lon="6.52013">
        <ele>2413</ele>
        <time>2021-02-21T06:48:47Z</time>
      </trkpt>
      <trkpt lat="44.45667" lon="6.52013">
        <ele>2413</ele>
        <time>2021-02-21T06:48:48Z</time>
      </trkpt>
      <trkpt lat="44.45667" lon="6.52013">
        <ele>2413</ele>
        <time>2021-02-21T06:48:49Z</time>
      </trkpt>
      <trkpt lat="44.45667" lon="6.52013">
        <ele>2413</ele>
        <time>2021-02-21T06:48:50Z</time>
      </trkpt>
      <trkpt lat="44.45667" lon="6.52012">
        <ele>2413</ele>
        <time>2021-02-21T06:48:51Z</time>
      </trkpt>
      <trkpt lat="44.45667" lon="6.52012">
        <ele>2413</ele>
        <time>2021-02-21T06:48:52Z</time>
      </trkpt>
      <trkpt lat="44.45666" lon="6.52012">
        <ele>2413</ele>
        <time>2021-02-21T06:48:53Z</time>
      </trkpt>
      <trkpt lat="44.45667" lon="6.52013">
        <ele>2413</ele>
        <time>2021-02-21T06:48:54Z</time>
      </trkpt>
      <trkpt lat="44.45667" lon="6.52013">
        <ele>2413</ele>
        <time>2021-02-21T06:48:55Z</time>
      </trkpt>
      <trkpt lat="44.45667" lon="6.52013">
        <ele>2413</ele>
        <time>2021-02-21T06:48:56Z</time>
      </trkpt>
      <trkpt lat="44.45667" lon="6.52013">
        <ele>2413</ele>
        <time>2021-02-21T06:48:57Z</time>
      </trkpt>
      <trkpt lat="44.45667" lon="6.52013">
        <ele>2414</ele>
        <time>2021-02-21T06:48:58Z</time>
      </trkpt>
      <trkpt lat="44.45667" lon="6.52013">
        <ele>2414</ele>
        <time>2021-02-21T06:48:59Z</time>
      </trkpt>
      <trkpt lat="44.45667" lon="6.52013">
        <ele>2414</ele>
        <time>2021-02-21T06:49:00Z</time>
      </trkpt>
      <trkpt lat="44.45667" lon="6.52013">
        <ele>2414</ele>
        <time>2021-02-21T06:49:01Z</time>
      </trkpt>
      <trkpt lat="44.45667" lon="6.52013">
        <ele>2414</ele>
        <time>2021-02-21T06:49:02Z</time>
      </trkpt>
      <trkpt lat="44.45667" lon="6.52013">
        <ele>2414</ele>
        <time>2021-02-21T06:49:03Z</time>
      </trkpt>
      <trkpt lat="44.45667" lon="6.52013">
        <ele>2414</ele>
        <time>2021-02-21T06:49:04Z</time>
      </trkpt>
      <trkpt lat="44.45667" lon="6.52013">
        <ele>2414</ele>
        <time>2021-02-21T06:49:05Z</time>
      </trkpt>
      <trkpt lat="44.45667" lon="6.52013">
        <ele>2414</ele>
        <time>2021-02-21T06:49:06Z</time>
      </trkpt>
      <trkpt lat="44.45667" lon="6.52013">
        <ele>2414</ele>
        <time>2021-02-21T06:49:07Z</time>
      </trkpt>
      <trkpt lat="44.45667" lon="6.52013">
        <ele>2414</ele>
        <time>2021-02-21T06:49:08Z</time>
      </trkpt>
      <trkpt lat="44.45667" lon="6.52013">
        <ele>2414</ele>
        <time>2021-02-21T06:49:09Z</time>
      </trkpt>
      <trkpt lat="44.45667" lon="6.52013">
        <ele>2414</ele>
        <time>2021-02-21T06:49:11Z</time>
      </trkpt>
      <trkpt lat="44.45667" lon="6.52013">
        <ele>2414</ele>
        <time>2021-02-21T06:49:12Z</time>
      </trkpt>
      <trkpt lat="44.45667" lon="6.52013">
        <ele>2414</ele>
        <time>2021-02-21T06:49:13Z</time>
      </trkpt>
      <trkpt lat="44.45667" lon="6.52013">
        <ele>2414</ele>
        <time>2021-02-21T06:49:14Z</time>
      </trkpt>
      <trkpt lat="44.45667" lon="6.52013">
        <ele>2414</ele>
        <time>2021-02-21T06:49:15Z</time>
      </trkpt>
      <trkpt lat="44.45667" lon="6.52013">
        <ele>2414</ele>
        <time>2021-02-21T06:49:16Z</time>
      </trkpt>
      <trkpt lat="44.45667" lon="6.52013">
        <ele>2414</ele>
        <time>2021-02-21T06:49:17Z</time>
      </trkpt>
      <trkpt lat="44.45667" lon="6.52013">
        <ele>2414</ele>
        <time>2021-02-21T06:49:19Z</time>
      </trkpt>
      <trkpt lat="44.45667" lon="6.52013">
        <ele>2414</ele>
        <time>2021-02-21T06:49:20Z</time>
      </trkpt>
      <trkpt lat="44.45664" lon="6.52026">
        <ele>2419</ele>
        <time>2021-02-21T06:49:21Z</time>
      </trkpt>
      <trkpt lat="44.4566" lon="6.52051">
        <ele>2422</ele>
        <time>2021-02-21T06:49:22Z</time>
      </trkpt>
      <trkpt lat="44.45639" lon="6.52093">
        <ele>2423</ele>
        <time>2021-02-21T06:49:23Z</time>
      </trkpt>
      <trkpt lat="44.45609" lon="6.52115">
        <ele>2424</ele>
        <time>2021-02-21T06:49:24Z</time>
      </trkpt>
      <trkpt lat="44.45609" lon="6.52115">
        <ele>2424</ele>
        <time>2021-02-21T06:49:25Z</time>
      </trkpt>
      <trkpt lat="44.45603" lon="6.5213">
        <ele>2424</ele>
        <time>2021-02-21T06:49:26Z</time>
      </trkpt>
      <trkpt lat="44.45603" lon="6.52129">
        <ele>2424</ele>
        <time>2021-02-21T06:49:27Z</time>
      </trkpt>
      <trkpt lat="44.45602" lon="6.52129">
        <ele>2424</ele>
        <time>2021-02-21T06:49:28Z</time>
      </trkpt>
      <trkpt lat="44.45602" lon="6.52127">
        <ele>2425</ele>
        <time>2021-02-21T06:49:29Z</time>
      </trkpt>
      <trkpt lat="44.45602" lon="6.52127">
        <ele>2425</ele>
        <time>2021-02-21T06:49:30Z</time>
      </trkpt>
      <trkpt lat="44.45602" lon="6.52127">
        <ele>2425</ele>
        <time>2021-02-21T06:49:31Z</time>
      </trkpt>
      <trkpt lat="44.45603" lon="6.52127">
        <ele>2425</ele>
        <time>2021-02-21T06:49:32Z</time>
      </trkpt>
      <trkpt lat="44.45602" lon="6.52127">
        <ele>2425</ele>
        <time>2021-02-21T06:49:33Z</time>
      </trkpt>
      <trkpt lat="44.45602" lon="6.52127">
        <ele>2425</ele>
        <time>2021-02-21T06:49:34Z</time>
      </trkpt>
      <trkpt lat="44.45602" lon="6.52126">
        <ele>2425</ele>
        <time>2021-02-21T06:49:35Z</time>
      </trkpt>
      <trkpt lat="44.45602" lon="6.52126">
        <ele>2425</ele>
        <time>2021-02-21T06:49:36Z</time>
      </trkpt>
      <trkpt lat="44.45602" lon="6.52126">
        <ele>2425</ele>
        <time>2021-02-21T06:49:37Z</time>
      </trkpt>
      <trkpt lat="44.45603" lon="6.52126">
        <ele>2425</ele>
        <time>2021-02-21T06:49:38Z</time>
      </trkpt>
      <trkpt lat="44.45603" lon="6.52126">
        <ele>2425</ele>
        <time>2021-02-21T06:49:39Z</time>
      </trkpt>
      <trkpt lat="44.45603" lon="6.52126">
        <ele>2425</ele>
        <time>2021-02-21T06:49:40Z</time>
      </trkpt>
      <trkpt lat="44.45603" lon="6.52126">
        <ele>2425</ele>
        <time>2021-02-21T06:49:41Z</time>
      </trkpt>
      <trkpt lat="44.45603" lon="6.52126">
        <ele>2425</ele>
        <time>2021-02-21T06:49:42Z</time>
      </trkpt>
      <trkpt lat="44.45604" lon="6.52124">
        <ele>2425</ele>
        <time>2021-02-21T06:49:43Z</time>
      </trkpt>
      <trkpt lat="44.45604" lon="6.52123">
        <ele>2425</ele>
        <time>2021-02-21T06:49:44Z</time>
      </trkpt>
      <trkpt lat="44.45605" lon="6.52121">
        <ele>2425</ele>
        <time>2021-02-21T06:49:45Z</time>
      </trkpt>
      <trkpt lat="44.45606" lon="6.5212">
        <ele>2425</ele>
        <time>2021-02-21T06:49:46Z</time>
      </trkpt>
      <trkpt lat="44.45606" lon="6.52119">
        <ele>2425</ele>
        <time>2021-02-21T06:49:47Z</time>
      </trkpt>
      <trkpt lat="44.45607" lon="6.52117">
        <ele>2426</ele>
        <time>2021-02-21T06:49:48Z</time>
      </trkpt>
      <trkpt lat="44.45607" lon="6.52116">
        <ele>2426</ele>
        <time>2021-02-21T06:49:49Z</time>
      </trkpt>
      <trkpt lat="44.45608" lon="6.52115">
        <ele>2426</ele>
        <time>2021-02-21T06:49:50Z</time>
      </trkpt>
      <trkpt lat="44.45609" lon="6.52113">
        <ele>2426</ele>
        <time>2021-02-21T06:49:51Z</time>
      </trkpt>
      <trkpt lat="44.4561" lon="6.52112">
        <ele>2427</ele>
        <time>2021-02-21T06:49:52Z</time>
      </trkpt>
      <trkpt lat="44.4561" lon="6.5211">
        <ele>2427</ele>
        <time>2021-02-21T06:49:53Z</time>
      </trkpt>
      <trkpt lat="44.45611" lon="6.52108">
        <ele>2427</ele>
        <time>2021-02-21T06:49:54Z</time>
      </trkpt>
      <trkpt lat="44.45612" lon="6.52107">
        <ele>2427</ele>
        <time>2021-02-21T06:49:55Z</time>
      </trkpt>
      <trkpt lat="44.45614" lon="6.52106">
        <ele>2428</ele>
        <time>2021-02-21T06:49:56Z</time>
      </trkpt>
      <trkpt lat="44.45615" lon="6.52104">
        <ele>2428</ele>
        <time>2021-02-21T06:49:57Z</time>
      </trkpt>
      <trkpt lat="44.45615" lon="6.52104">
        <ele>2428</ele>
        <time>2021-02-21T06:49:58Z</time>
      </trkpt>
      <trkpt lat="44.45615" lon="6.52104">
        <ele>2428</ele>
        <time>2021-02-21T06:49:59Z</time>
      </trkpt>
      <trkpt lat="44.45615" lon="6.52104">
        <ele>2428</ele>
        <time>2021-02-21T06:50:00Z</time>
      </trkpt>
      <trkpt lat="44.45615" lon="6.52104">
        <ele>2428</ele>
        <time>2021-02-21T06:50:01Z</time>
      </trkpt>
      <trkpt lat="44.45615" lon="6.52104">
        <ele>2428</ele>
        <time>2021-02-21T06:50:02Z</time>
      </trkpt>
      <trkpt lat="44.45621" lon="6.52094">
        <ele>2429</ele>
        <time>2021-02-21T06:50:03Z</time>
      </trkpt>
      <trkpt lat="44.45621" lon="6.52093">
        <ele>2429</ele>
        <time>2021-02-21T06:50:04Z</time>
      </trkpt>
      <trkpt lat="44.45622" lon="6.52092">
        <ele>2429</ele>
        <time>2021-02-21T06:50:05Z</time>
      </trkpt>
      <trkpt lat="44.45625" lon="6.52091">
        <ele>2430</ele>
        <time>2021-02-21T06:50:06Z</time>
      </trkpt>
      <trkpt lat="44.45625" lon="6.52091">
        <ele>2430</ele>
        <time>2021-02-21T06:50:07Z</time>
      </trkpt>
      <trkpt lat="44.45625" lon="6.52091">
        <ele>2430</ele>
        <time>2021-02-21T06:50:08Z</time>
      </trkpt>
      <trkpt lat="44.45625" lon="6.52091">
        <ele>2430</ele>
        <time>2021-02-21T06:50:09Z</time>
      </trkpt>
      <trkpt lat="44.45627" lon="6.52087">
        <ele>2431</ele>
        <time>2021-02-21T06:50:10Z</time>
      </trkpt>
      <trkpt lat="44.45627" lon="6.52084">
        <ele>2432</ele>
        <time>2021-02-21T06:50:11Z</time>
      </trkpt>
      <trkpt lat="44.45629" lon="6.52081">
        <ele>2432</ele>
        <time>2021-02-21T06:50:12Z</time>
      </trkpt>
      <trkpt lat="44.4563" lon="6.52079">
        <ele>2432</ele>
        <time>2021-02-21T06:50:13Z</time>
      </trkpt>
      <trkpt lat="44.45631" lon="6.52076">
        <ele>2432</ele>
        <time>2021-02-21T06:50:14Z</time>
      </trkpt>
      <trkpt lat="44.45633" lon="6.52072">
        <ele>2433</ele>
        <time>2021-02-21T06:50:15Z</time>
      </trkpt>
      <trkpt lat="44.45633" lon="6.52072">
        <ele>2433</ele>
        <time>2021-02-21T06:50:16Z</time>
      </trkpt>
      <trkpt lat="44.45633" lon="6.52072">
        <ele>2433</ele>
        <time>2021-02-21T06:50:17Z</time>
      </trkpt>
      <trkpt lat="44.45633" lon="6.52072">
        <ele>2433</ele>
        <time>2021-02-21T06:50:18Z</time>
      </trkpt>
      <trkpt lat="44.45633" lon="6.52072">
        <ele>2433</ele>
        <time>2021-02-21T06:50:19Z</time>
      </trkpt>
      <trkpt lat="44.45634" lon="6.52058">
        <ele>2438</ele>
        <time>2021-02-21T06:50:20Z</time>
      </trkpt>
      <trkpt lat="44.45634" lon="6.52055">
        <ele>2439</ele>
        <time>2021-02-21T06:50:21Z</time>
      </trkpt>
      <trkpt lat="44.45635" lon="6.52052">
        <ele>2440</ele>
        <time>2021-02-21T06:50:22Z</time>
      </trkpt>
      <trkpt lat="44.45635" lon="6.5205">
        <ele>2440</ele>
        <time>2021-02-21T06:50:23Z</time>
      </trkpt>
      <trkpt lat="44.45636" lon="6.52048">
        <ele>2442</ele>
        <time>2021-02-21T06:50:24Z</time>
      </trkpt>
      <trkpt lat="44.45637" lon="6.52047">
        <ele>2442</ele>
        <time>2021-02-21T06:50:25Z</time>
      </trkpt>
      <trkpt lat="44.45637" lon="6.52047">
        <ele>2442</ele>
        <time>2021-02-21T06:50:26Z</time>
      </trkpt>
      <trkpt lat="44.45637" lon="6.52047">
        <ele>2442</ele>
        <time>2021-02-21T06:50:27Z</time>
      </trkpt>
      <trkpt lat="44.45637" lon="6.52047">
        <ele>2442</ele>
        <time>2021-02-21T06:50:28Z</time>
      </trkpt>
      <trkpt lat="44.45637" lon="6.52047">
        <ele>2442</ele>
        <time>2021-02-21T06:50:29Z</time>
      </trkpt>
      <trkpt lat="44.45642" lon="6.52036">
        <ele>2442</ele>
        <time>2021-02-21T06:50:30Z</time>
      </trkpt>
      <trkpt lat="44.45643" lon="6.52035">
        <ele>2442</ele>
        <time>2021-02-21T06:50:31Z</time>
      </trkpt>
      <trkpt lat="44.45643" lon="6.52033">
        <ele>2442</ele>
        <time>2021-02-21T06:50:32Z</time>
      </trkpt>
      <trkpt lat="44.45644" lon="6.52033">
        <ele>2442</ele>
        <time>2021-02-21T06:50:33Z</time>
      </trkpt>
      <trkpt lat="44.45644" lon="6.52033">
        <ele>2442</ele>
        <time>2021-02-21T06:50:34Z</time>
      </trkpt>
      <trkpt lat="44.45644" lon="6.52033">
        <ele>2442</ele>
        <time>2021-02-21T06:50:35Z</time>
      </trkpt>
      <trkpt lat="44.45651" lon="6.52022">
        <ele>2441</ele>
        <time>2021-02-21T06:50:36Z</time>
      </trkpt>
      <trkpt lat="44.45652" lon="6.5202">
        <ele>2441</ele>
        <time>2021-02-21T06:50:37Z</time>
      </trkpt>
      <trkpt lat="44.45654" lon="6.52016">
        <ele>2441</ele>
        <time>2021-02-21T06:50:38Z</time>
      </trkpt>
      <trkpt lat="44.45654" lon="6.52016">
        <ele>2441</ele>
        <time>2021-02-21T06:50:39Z</time>
      </trkpt>
      <trkpt lat="44.45654" lon="6.52016">
        <ele>2441</ele>
        <time>2021-02-21T06:50:40Z</time>
      </trkpt>
      <trkpt lat="44.45654" lon="6.52016">
        <ele>2442</ele>
        <time>2021-02-21T06:50:41Z</time>
      </trkpt>
      <trkpt lat="44.45654" lon="6.52014">
        <ele>2442</ele>
        <time>2021-02-21T06:50:42Z</time>
      </trkpt>
      <trkpt lat="44.45654" lon="6.52013">
        <ele>2442</ele>
        <time>2021-02-21T06:50:43Z</time>
      </trkpt>
      <trkpt lat="44.45654" lon="6.52011">
        <ele>2442</ele>
        <time>2021-02-21T06:50:44Z</time>
      </trkpt>
      <trkpt lat="44.45654" lon="6.52011">
        <ele>2442</ele>
        <time>2021-02-21T06:50:45Z</time>
      </trkpt>
      <trkpt lat="44.45654" lon="6.52009">
        <ele>2442</ele>
        <time>2021-02-21T06:50:46Z</time>
      </trkpt>
      <trkpt lat="44.45655" lon="6.52009">
        <ele>2442</ele>
        <time>2021-02-21T06:50:47Z</time>
      </trkpt>
      <trkpt lat="44.45655" lon="6.52008">
        <ele>2442</ele>
        <time>2021-02-21T06:50:48Z</time>
      </trkpt>
      <trkpt lat="44.45656" lon="6.52008">
        <ele>2442</ele>
        <time>2021-02-21T06:50:49Z</time>
      </trkpt>
      <trkpt lat="44.45656" lon="6.52007">
        <ele>2441</ele>
        <time>2021-02-21T06:50:50Z</time>
      </trkpt>
      <trkpt lat="44.45657" lon="6.52006">
        <ele>2441</ele>
        <time>2021-02-21T06:50:51Z</time>
      </trkpt>
      <trkpt lat="44.45657" lon="6.52005">
        <ele>2441</ele>
        <time>2021-02-21T06:50:52Z</time>
      </trkpt>
      <trkpt lat="44.45657" lon="6.52006">
        <ele>2441</ele>
        <time>2021-02-21T06:50:53Z</time>
      </trkpt>
      <trkpt lat="44.45657" lon="6.52006">
        <ele>2441</ele>
        <time>2021-02-21T06:50:54Z</time>
      </trkpt>
      <trkpt lat="44.45658" lon="6.52005">
        <ele>2441</ele>
        <time>2021-02-21T06:50:55Z</time>
      </trkpt>
      <trkpt lat="44.45658" lon="6.52005">
        <ele>2441</ele>
        <time>2021-02-21T06:50:56Z</time>
      </trkpt>
      <trkpt lat="44.45658" lon="6.52005">
        <ele>2441</ele>
        <time>2021-02-21T06:50:57Z</time>
      </trkpt>
      <trkpt lat="44.45658" lon="6.52003">
        <ele>2441</ele>
        <time>2021-02-21T06:50:58Z</time>
      </trkpt>
      <trkpt lat="44.45658" lon="6.52002">
        <ele>2441</ele>
        <time>2021-02-21T06:50:59Z</time>
      </trkpt>
      <trkpt lat="44.45658" lon="6.52001">
        <ele>2441</ele>
        <time>2021-02-21T06:51:00Z</time>
      </trkpt>
      <trkpt lat="44.45657" lon="6.52">
        <ele>2441</ele>
        <time>2021-02-21T06:51:01Z</time>
      </trkpt>
      <trkpt lat="44.45657" lon="6.52">
        <ele>2441</ele>
        <time>2021-02-21T06:51:02Z</time>
      </trkpt>
      <trkpt lat="44.45657" lon="6.52">
        <ele>2442</ele>
        <time>2021-02-21T06:51:03Z</time>
      </trkpt>
      <trkpt lat="44.45657" lon="6.51997">
        <ele>2441</ele>
        <time>2021-02-21T06:51:04Z</time>
      </trkpt>
      <trkpt lat="44.45658" lon="6.51997">
        <ele>2441</ele>
        <time>2021-02-21T06:51:05Z</time>
      </trkpt>
      <trkpt lat="44.45658" lon="6.51996">
        <ele>2440</ele>
        <time>2021-02-21T06:51:06Z</time>
      </trkpt>
      <trkpt lat="44.45658" lon="6.51996">
        <ele>2439</ele>
        <time>2021-02-21T06:51:07Z</time>
      </trkpt>
      <trkpt lat="44.45658" lon="6.51996">
        <ele>2439</ele>
        <time>2021-02-21T06:51:08Z</time>
      </trkpt>
      <trkpt lat="44.45658" lon="6.51995">
        <ele>2438</ele>
        <time>2021-02-21T06:51:09Z</time>
      </trkpt>
      <trkpt lat="44.45658" lon="6.51995">
        <ele>2438</ele>
        <time>2021-02-21T06:51:10Z</time>
      </trkpt>
      <trkpt lat="44.45658" lon="6.51994">
        <ele>2438</ele>
        <time>2021-02-21T06:51:11Z</time>
      </trkpt>
      <trkpt lat="44.45658" lon="6.51993">
        <ele>2438</ele>
        <time>2021-02-21T06:51:12Z</time>
      </trkpt>
      <trkpt lat="44.45658" lon="6.51993">
        <ele>2438</ele>
        <time>2021-02-21T06:51:13Z</time>
      </trkpt>
      <trkpt lat="44.45658" lon="6.51993">
        <ele>2438</ele>
        <time>2021-02-21T06:51:14Z</time>
      </trkpt>
      <trkpt lat="44.45659" lon="6.51993">
        <ele>2438</ele>
        <time>2021-02-21T06:51:15Z</time>
      </trkpt>
      <trkpt lat="44.45659" lon="6.51993">
        <ele>2437</ele>
        <time>2021-02-21T06:51:16Z</time>
      </trkpt>
      <trkpt lat="44.45659" lon="6.51993">
        <ele>2437</ele>
        <time>2021-02-21T06:51:17Z</time>
      </trkpt>
      <trkpt lat="44.4566" lon="6.51994">
        <ele>2437</ele>
        <time>2021-02-21T06:51:18Z</time>
      </trkpt>
      <trkpt lat="44.4566" lon="6.51994">
        <ele>2437</ele>
        <time>2021-02-21T06:51:19Z</time>
      </trkpt>
      <trkpt lat="44.45661" lon="6.51995">
        <ele>2437</ele>
        <time>2021-02-21T06:51:20Z</time>
      </trkpt>
      <trkpt lat="44.45661" lon="6.51996">
        <ele>2437</ele>
        <time>2021-02-21T06:51:21Z</time>
      </trkpt>
      <trkpt lat="44.45662" lon="6.51996">
        <ele>2437</ele>
        <time>2021-02-21T06:51:22Z</time>
      </trkpt>
      <trkpt lat="44.45662" lon="6.51995">
        <ele>2436</ele>
        <time>2021-02-21T06:51:23Z</time>
      </trkpt>
      <trkpt lat="44.45662" lon="6.51994">
        <ele>2436</ele>
        <time>2021-02-21T06:51:24Z</time>
      </trkpt>
      <trkpt lat="44.45663" lon="6.51994">
        <ele>2436</ele>
        <time>2021-02-21T06:51:25Z</time>
      </trkpt>
      <trkpt lat="44.45663" lon="6.51994">
        <ele>2436</ele>
        <time>2021-02-21T06:51:26Z</time>
      </trkpt>
      <trkpt lat="44.45664" lon="6.51995">
        <ele>2436</ele>
        <time>2021-02-21T06:51:27Z</time>
      </trkpt>
      <trkpt lat="44.45664" lon="6.51995">
        <ele>2436</ele>
        <time>2021-02-21T06:51:28Z</time>
      </trkpt>
      <trkpt lat="44.45664" lon="6.51995">
        <ele>2436</ele>
        <time>2021-02-21T06:51:29Z</time>
      </trkpt>
      <trkpt lat="44.45663" lon="6.51996">
        <ele>2436</ele>
        <time>2021-02-21T06:51:30Z</time>
      </trkpt>
      <trkpt lat="44.45663" lon="6.51996">
        <ele>2436</ele>
        <time>2021-02-21T06:51:31Z</time>
      </trkpt>
      <trkpt lat="44.45664" lon="6.51996">
        <ele>2436</ele>
        <time>2021-02-21T06:51:32Z</time>
      </trkpt>
      <trkpt lat="44.45664" lon="6.51996">
        <ele>2436</ele>
        <time>2021-02-21T06:51:33Z</time>
      </trkpt>
      <trkpt lat="44.45664" lon="6.51996">
        <ele>2436</ele>
        <time>2021-02-21T06:51:34Z</time>
      </trkpt>
      <trkpt lat="44.45664" lon="6.51996">
        <ele>2436</ele>
        <time>2021-02-21T06:51:35Z</time>
      </trkpt>
      <trkpt lat="44.45664" lon="6.51996">
        <ele>2436</ele>
        <time>2021-02-21T06:51:36Z</time>
      </trkpt>
      <trkpt lat="44.45664" lon="6.51996">
        <ele>2436</ele>
        <time>2021-02-21T06:51:37Z</time>
      </trkpt>
      <trkpt lat="44.45664" lon="6.51995">
        <ele>2436</ele>
        <time>2021-02-21T06:51:38Z</time>
      </trkpt>
      <trkpt lat="44.45664" lon="6.51995">
        <ele>2436</ele>
        <time>2021-02-21T06:51:39Z</time>
      </trkpt>
      <trkpt lat="44.45664" lon="6.51994">
        <ele>2436</ele>
        <time>2021-02-21T06:51:40Z</time>
      </trkpt>
      <trkpt lat="44.45664" lon="6.51994">
        <ele>2437</ele>
        <time>2021-02-21T06:51:41Z</time>
      </trkpt>
      <trkpt lat="44.45664" lon="6.51993">
        <ele>2437</ele>
        <time>2021-02-21T06:51:42Z</time>
      </trkpt>
      <trkpt lat="44.45664" lon="6.51993">
        <ele>2437</ele>
        <time>2021-02-21T06:51:43Z</time>
      </trkpt>
      <trkpt lat="44.45664" lon="6.51993">
        <ele>2437</ele>
        <time>2021-02-21T06:51:44Z</time>
      </trkpt>
      <trkpt lat="44.45664" lon="6.51993">
        <ele>2437</ele>
        <time>2021-02-21T06:51:45Z</time>
      </trkpt>
      <trkpt lat="44.45664" lon="6.51993">
        <ele>2437</ele>
        <time>2021-02-21T06:51:46Z</time>
      </trkpt>
      <trkpt lat="44.45664" lon="6.51992">
        <ele>2437</ele>
        <time>2021-02-21T06:51:47Z</time>
      </trkpt>
      <trkpt lat="44.45664" lon="6.51992">
        <ele>2437</ele>
        <time>2021-02-21T06:51:48Z</time>
      </trkpt>
      <trkpt lat="44.45663" lon="6.51992">
        <ele>2437</ele>
        <time>2021-02-21T06:51:49Z</time>
      </trkpt>
      <trkpt lat="44.45662" lon="6.51993">
        <ele>2437</ele>
        <time>2021-02-21T06:51:50Z</time>
      </trkpt>
      <trkpt lat="44.45662" lon="6.51993">
        <ele>2437</ele>
        <time>2021-02-21T06:51:51Z</time>
      </trkpt>
      <trkpt lat="44.45662" lon="6.51994">
        <ele>2437</ele>
        <time>2021-02-21T06:51:52Z</time>
      </trkpt>
      <trkpt lat="44.45661" lon="6.51994">
        <ele>2438</ele>
        <time>2021-02-21T06:51:53Z</time>
      </trkpt>
      <trkpt lat="44.45661" lon="6.51994">
        <ele>2438</ele>
        <time>2021-02-21T06:51:54Z</time>
      </trkpt>
      <trkpt lat="44.45661" lon="6.51994">
        <ele>2438</ele>
        <time>2021-02-21T06:51:55Z</time>
      </trkpt>
      <trkpt lat="44.45661" lon="6.51994">
        <ele>2438</ele>
        <time>2021-02-21T06:51:56Z</time>
      </trkpt>
      <trkpt lat="44.45661" lon="6.51994">
        <ele>2438</ele>
        <time>2021-02-21T06:51:57Z</time>
      </trkpt>
      <trkpt lat="44.45662" lon="6.51994">
        <ele>2438</ele>
        <time>2021-02-21T06:51:58Z</time>
      </trkpt>
      <trkpt lat="44.45662" lon="6.51994">
        <ele>2438</ele>
        <time>2021-02-21T06:51:59Z</time>
      </trkpt>
      <trkpt lat="44.45661" lon="6.51993">
        <ele>2438</ele>
        <time>2021-02-21T06:52:00Z</time>
      </trkpt>
      <trkpt lat="44.45661" lon="6.51993">
        <ele>2438</ele>
        <time>2021-02-21T06:52:01Z</time>
      </trkpt>
      <trkpt lat="44.45661" lon="6.51993">
        <ele>2438</ele>
        <time>2021-02-21T06:52:02Z</time>
      </trkpt>
      <trkpt lat="44.45661" lon="6.51993">
        <ele>2438</ele>
        <time>2021-02-21T06:52:03Z</time>
      </trkpt>
      <trkpt lat="44.45661" lon="6.51993">
        <ele>2438</ele>
        <time>2021-02-21T06:52:04Z</time>
      </trkpt>
      <trkpt lat="44.45659" lon="6.5199">
        <ele>2440</ele>
        <time>2021-02-21T06:52:05Z</time>
      </trkpt>
      <trkpt lat="44.45659" lon="6.51989">
        <ele>2440</ele>
        <time>2021-02-21T06:52:06Z</time>
      </trkpt>
      <trkpt lat="44.45658" lon="6.51989">
        <ele>2441</ele>
        <time>2021-02-21T06:52:07Z</time>
      </trkpt>
      <trkpt lat="44.45658" lon="6.51988">
        <ele>2441</ele>
        <time>2021-02-21T06:52:08Z</time>
      </trkpt>
      <trkpt lat="44.45659" lon="6.51987">
        <ele>2441</ele>
        <time>2021-02-21T06:52:09Z</time>
      </trkpt>
      <trkpt lat="44.45659" lon="6.51988">
        <ele>2441</ele>
        <time>2021-02-21T06:52:10Z</time>
      </trkpt>
      <trkpt lat="44.45659" lon="6.51987">
        <ele>2441</ele>
        <time>2021-02-21T06:52:11Z</time>
      </trkpt>
      <trkpt lat="44.45659" lon="6.51987">
        <ele>2441</ele>
        <time>2021-02-21T06:52:12Z</time>
      </trkpt>
      <trkpt lat="44.45659" lon="6.51988">
        <ele>2441</ele>
        <time>2021-02-21T06:52:13Z</time>
      </trkpt>
      <trkpt lat="44.45659" lon="6.51988">
        <ele>2441</ele>
        <time>2021-02-21T06:52:14Z</time>
      </trkpt>
      <trkpt lat="44.45659" lon="6.51988">
        <ele>2441</ele>
        <time>2021-02-21T06:52:15Z</time>
      </trkpt>
      <trkpt lat="44.45659" lon="6.51988">
        <ele>2441</ele>
        <time>2021-02-21T06:52:16Z</time>
      </trkpt>
      <trkpt lat="44.45659" lon="6.51988">
        <ele>2442</ele>
        <time>2021-02-21T06:52:17Z</time>
      </trkpt>
      <trkpt lat="44.45659" lon="6.51988">
        <ele>2442</ele>
        <time>2021-02-21T06:52:18Z</time>
      </trkpt>
      <trkpt lat="44.45659" lon="6.51987">
        <ele>2442</ele>
        <time>2021-02-21T06:52:19Z</time>
      </trkpt>
      <trkpt lat="44.45659" lon="6.51987">
        <ele>2442</ele>
        <time>2021-02-21T06:52:20Z</time>
      </trkpt>
      <trkpt lat="44.45659" lon="6.51986">
        <ele>2442</ele>
        <time>2021-02-21T06:52:21Z</time>
      </trkpt>
      <trkpt lat="44.45659" lon="6.51985">
        <ele>2442</ele>
        <time>2021-02-21T06:52:22Z</time>
      </trkpt>
      <trkpt lat="44.4566" lon="6.51984">
        <ele>2443</ele>
        <time>2021-02-21T06:52:23Z</time>
      </trkpt>
      <trkpt lat="44.4566" lon="6.51984">
        <ele>2443</ele>
        <time>2021-02-21T06:52:24Z</time>
      </trkpt>
      <trkpt lat="44.4566" lon="6.51982">
        <ele>2443</ele>
        <time>2021-02-21T06:52:25Z</time>
      </trkpt>
      <trkpt lat="44.4566" lon="6.51982">
        <ele>2443</ele>
        <time>2021-02-21T06:52:26Z</time>
      </trkpt>
      <trkpt lat="44.4566" lon="6.51981">
        <ele>2443</ele>
        <time>2021-02-21T06:52:27Z</time>
      </trkpt>
      <trkpt lat="44.4566" lon="6.51981">
        <ele>2443</ele>
        <time>2021-02-21T06:52:28Z</time>
      </trkpt>
      <trkpt lat="44.4566" lon="6.5198">
        <ele>2443</ele>
        <time>2021-02-21T06:52:29Z</time>
      </trkpt>
      <trkpt lat="44.45659" lon="6.5198">
        <ele>2443</ele>
        <time>2021-02-21T06:52:30Z</time>
      </trkpt>
      <trkpt lat="44.45659" lon="6.5198">
        <ele>2443</ele>
        <time>2021-02-21T06:52:31Z</time>
      </trkpt>
      <trkpt lat="44.45659" lon="6.51979">
        <ele>2443</ele>
        <time>2021-02-21T06:52:32Z</time>
      </trkpt>
      <trkpt lat="44.4566" lon="6.51979">
        <ele>2443</ele>
        <time>2021-02-21T06:52:33Z</time>
      </trkpt>
      <trkpt lat="44.4566" lon="6.51979">
        <ele>2443</ele>
        <time>2021-02-21T06:52:34Z</time>
      </trkpt>
      <trkpt lat="44.4566" lon="6.51978">
        <ele>2443</ele>
        <time>2021-02-21T06:52:35Z</time>
      </trkpt>
      <trkpt lat="44.4566" lon="6.51978">
        <ele>2444</ele>
        <time>2021-02-21T06:52:36Z</time>
      </trkpt>
      <trkpt lat="44.4566" lon="6.51978">
        <ele>2444</ele>
        <time>2021-02-21T06:52:37Z</time>
      </trkpt>
      <trkpt lat="44.4566" lon="6.51978">
        <ele>2444</ele>
        <time>2021-02-21T06:52:38Z</time>
      </trkpt>
      <trkpt lat="44.4566" lon="6.51978">
        <ele>2444</ele>
        <time>2021-02-21T06:52:39Z</time>
      </trkpt>
      <trkpt lat="44.4566" lon="6.51978">
        <ele>2444</ele>
        <time>2021-02-21T06:52:40Z</time>
      </trkpt>
      <trkpt lat="44.4566" lon="6.51978">
        <ele>2444</ele>
        <time>2021-02-21T06:52:41Z</time>
      </trkpt>
      <trkpt lat="44.4566" lon="6.51978">
        <ele>2444</ele>
        <time>2021-02-21T06:52:42Z</time>
      </trkpt>
      <trkpt lat="44.4566" lon="6.51978">
        <ele>2444</ele>
        <time>2021-02-21T06:52:43Z</time>
      </trkpt>
      <trkpt lat="44.45661" lon="6.5198">
        <ele>2444</ele>
        <time>2021-02-21T06:52:44Z</time>
      </trkpt>
      <trkpt lat="44.45661" lon="6.51979">
        <ele>2444</ele>
        <time>2021-02-21T06:52:45Z</time>
      </trkpt>
      <trkpt lat="44.45661" lon="6.5198">
        <ele>2444</ele>
        <time>2021-02-21T06:52:46Z</time>
      </trkpt>
      <trkpt lat="44.45661" lon="6.5198">
        <ele>2444</ele>
        <time>2021-02-21T06:52:47Z</time>
      </trkpt>
      <trkpt lat="44.45661" lon="6.5198">
        <ele>2444</ele>
        <time>2021-02-21T06:52:48Z</time>
      </trkpt>
      <trkpt lat="44.45662" lon="6.51979">
        <ele>2444</ele>
        <time>2021-02-21T06:52:49Z</time>
      </trkpt>
      <trkpt lat="44.45662" lon="6.51979">
        <ele>2444</ele>
        <time>2021-02-21T06:52:50Z</time>
      </trkpt>
      <trkpt lat="44.45662" lon="6.51978">
        <ele>2444</ele>
        <time>2021-02-21T06:52:51Z</time>
      </trkpt>
      <trkpt lat="44.45662" lon="6.51978">
        <ele>2444</ele>
        <time>2021-02-21T06:52:52Z</time>
      </trkpt>
      <trkpt lat="44.45662" lon="6.51978">
        <ele>2444</ele>
        <time>2021-02-21T06:52:53Z</time>
      </trkpt>
      <trkpt lat="44.45662" lon="6.51978">
        <ele>2444</ele>
        <time>2021-02-21T06:52:54Z</time>
      </trkpt>
      <trkpt lat="44.45662" lon="6.51978">
        <ele>2444</ele>
        <time>2021-02-21T06:52:55Z</time>
      </trkpt>
      <trkpt lat="44.45662" lon="6.51978">
        <ele>2444</ele>
        <time>2021-02-21T06:52:56Z</time>
      </trkpt>
      <trkpt lat="44.45662" lon="6.51978">
        <ele>2444</ele>
        <time>2021-02-21T06:52:57Z</time>
      </trkpt>
      <trkpt lat="44.45663" lon="6.51975">
        <ele>2444</ele>
        <time>2021-02-21T06:52:58Z</time>
      </trkpt>
      <trkpt lat="44.45662" lon="6.51976">
        <ele>2444</ele>
        <time>2021-02-21T06:52:59Z</time>
      </trkpt>
      <trkpt lat="44.45662" lon="6.51976">
        <ele>2444</ele>
        <time>2021-02-21T06:53:00Z</time>
      </trkpt>
      <trkpt lat="44.45662" lon="6.51976">
        <ele>2444</ele>
        <time>2021-02-21T06:53:01Z</time>
      </trkpt>
      <trkpt lat="44.45662" lon="6.51976">
        <ele>2444</ele>
        <time>2021-02-21T06:53:02Z</time>
      </trkpt>
      <trkpt lat="44.45662" lon="6.51976">
        <ele>2444</ele>
        <time>2021-02-21T06:53:03Z</time>
      </trkpt>
      <trkpt lat="44.45662" lon="6.51976">
        <ele>2444</ele>
        <time>2021-02-21T06:53:04Z</time>
      </trkpt>
      <trkpt lat="44.45662" lon="6.51976">
        <ele>2444</ele>
        <time>2021-02-21T06:53:05Z</time>
      </trkpt>
      <trkpt lat="44.45662" lon="6.51976">
        <ele>2444</ele>
        <time>2021-02-21T06:53:06Z</time>
      </trkpt>
      <trkpt lat="44.45662" lon="6.51976">
        <ele>2444</ele>
        <time>2021-02-21T06:53:07Z</time>
      </trkpt>
      <trkpt lat="44.45662" lon="6.51976">
        <ele>2444</ele>
        <time>2021-02-21T06:53:08Z</time>
      </trkpt>
      <trkpt lat="44.45662" lon="6.51976">
        <ele>2444</ele>
        <time>2021-02-21T06:53:09Z</time>
      </trkpt>
      <trkpt lat="44.45662" lon="6.51976">
        <ele>2444</ele>
        <time>2021-02-21T06:53:10Z</time>
      </trkpt>
      <trkpt lat="44.45662" lon="6.51976">
        <ele>2444</ele>
        <time>2021-02-21T06:53:11Z</time>
      </trkpt>
      <trkpt lat="44.45662" lon="6.51976">
        <ele>2444</ele>
        <time>2021-02-21T06:53:12Z</time>
      </trkpt>
      <trkpt lat="44.45662" lon="6.51976">
        <ele>2444</ele>
        <time>2021-02-21T06:53:13Z</time>
      </trkpt>
      <trkpt lat="44.45662" lon="6.51976">
        <ele>2444</ele>
        <time>2021-02-21T06:53:14Z</time>
      </trkpt>
      <trkpt lat="44.45661" lon="6.51973">
        <ele>2444</ele>
        <time>2021-02-21T06:53:15Z</time>
      </trkpt>
      <trkpt lat="44.45662" lon="6.51972">
        <ele>2445</ele>
        <time>2021-02-21T06:53:16Z</time>
      </trkpt>
      <trkpt lat="44.45661" lon="6.51972">
        <ele>2445</ele>
        <time>2021-02-21T06:53:17Z</time>
      </trkpt>
      <trkpt lat="44.45661" lon="6.51972">
        <ele>2445</ele>
        <time>2021-02-21T06:53:18Z</time>
      </trkpt>
      <trkpt lat="44.45661" lon="6.51972">
        <ele>2446</ele>
        <time>2021-02-21T06:53:19Z</time>
      </trkpt>
      <trkpt lat="44.45661" lon="6.51972">
        <ele>2446</ele>
        <time>2021-02-21T06:53:20Z</time>
      </trkpt>
      <trkpt lat="44.45661" lon="6.51972">
        <ele>2446</ele>
        <time>2021-02-21T06:53:21Z</time>
      </trkpt>
      <trkpt lat="44.45661" lon="6.51972">
        <ele>2446</ele>
        <time>2021-02-21T06:53:22Z</time>
      </trkpt>
      <trkpt lat="44.45661" lon="6.51972">
        <ele>2446</ele>
        <time>2021-02-21T06:53:23Z</time>
      </trkpt>
      <trkpt lat="44.45661" lon="6.51972">
        <ele>2446</ele>
        <time>2021-02-21T06:53:24Z</time>
      </trkpt>
      <trkpt lat="44.45661" lon="6.51969">
        <ele>2446</ele>
        <time>2021-02-21T06:53:25Z</time>
      </trkpt>
      <trkpt lat="44.45661" lon="6.51968">
        <ele>2446</ele>
        <time>2021-02-21T06:53:26Z</time>
      </trkpt>
      <trkpt lat="44.45661" lon="6.51968">
        <ele>2446</ele>
        <time>2021-02-21T06:53:27Z</time>
      </trkpt>
      <trkpt lat="44.45661" lon="6.51967">
        <ele>2446</ele>
        <time>2021-02-21T06:53:28Z</time>
      </trkpt>
      <trkpt lat="44.45661" lon="6.51966">
        <ele>2447</ele>
        <time>2021-02-21T06:53:29Z</time>
      </trkpt>
      <trkpt lat="44.45661" lon="6.51966">
        <ele>2447</ele>
        <time>2021-02-21T06:53:30Z</time>
      </trkpt>
      <trkpt lat="44.45661" lon="6.51966">
        <ele>2447</ele>
        <time>2021-02-21T06:53:31Z</time>
      </trkpt>
      <trkpt lat="44.45661" lon="6.51966">
        <ele>2447</ele>
        <time>2021-02-21T06:53:32Z</time>
      </trkpt>
      <trkpt lat="44.45661" lon="6.51965">
        <ele>2447</ele>
        <time>2021-02-21T06:53:33Z</time>
      </trkpt>
      <trkpt lat="44.45661" lon="6.51965">
        <ele>2447</ele>
        <time>2021-02-21T06:53:34Z</time>
      </trkpt>
      <trkpt lat="44.45661" lon="6.51965">
        <ele>2447</ele>
        <time>2021-02-21T06:53:35Z</time>
      </trkpt>
      <trkpt lat="44.45661" lon="6.51965">
        <ele>2447</ele>
        <time>2021-02-21T06:53:36Z</time>
      </trkpt>
      <trkpt lat="44.45661" lon="6.51965">
        <ele>2447</ele>
        <time>2021-02-21T06:53:37Z</time>
      </trkpt>
      <trkpt lat="44.45661" lon="6.51965">
        <ele>2447</ele>
        <time>2021-02-21T06:53:38Z</time>
      </trkpt>
      <trkpt lat="44.45661" lon="6.51965">
        <ele>2447</ele>
        <time>2021-02-21T06:53:39Z</time>
      </trkpt>
      <trkpt lat="44.45661" lon="6.51965">
        <ele>2447</ele>
        <time>2021-02-21T06:53:40Z</time>
      </trkpt>
      <trkpt lat="44.45661" lon="6.51965">
        <ele>2447</ele>
        <time>2021-02-21T06:53:41Z</time>
      </trkpt>
      <trkpt lat="44.45661" lon="6.51965">
        <ele>2447</ele>
        <time>2021-02-21T06:53:42Z</time>
      </trkpt>
      <trkpt lat="44.45661" lon="6.51965">
        <ele>2447</ele>
        <time>2021-02-21T06:53:43Z</time>
      </trkpt>
      <trkpt lat="44.45661" lon="6.51965">
        <ele>2447</ele>
        <time>2021-02-21T06:53:44Z</time>
      </trkpt>
      <trkpt lat="44.45661" lon="6.51965">
        <ele>2447</ele>
        <time>2021-02-21T06:53:45Z</time>
      </trkpt>
      <trkpt lat="44.45661" lon="6.51965">
        <ele>2447</ele>
        <time>2021-02-21T06:53:46Z</time>
      </trkpt>
      <trkpt lat="44.45661" lon="6.51965">
        <ele>2447</ele>
        <time>2021-02-21T06:53:47Z</time>
      </trkpt>
      <trkpt lat="44.45661" lon="6.51965">
        <ele>2447</ele>
        <time>2021-02-21T06:53:48Z</time>
      </trkpt>
      <trkpt lat="44.45661" lon="6.51965">
        <ele>2447</ele>
        <time>2021-02-21T06:53:49Z</time>
      </trkpt>
      <trkpt lat="44.45661" lon="6.51965">
        <ele>2447</ele>
        <time>2021-02-21T06:53:50Z</time>
      </trkpt>
      <trkpt lat="44.45661" lon="6.51965">
        <ele>2447</ele>
        <time>2021-02-21T06:53:51Z</time>
      </trkpt>
      <trkpt lat="44.45661" lon="6.51965">
        <ele>2447</ele>
        <time>2021-02-21T06:53:52Z</time>
      </trkpt>
      <trkpt lat="44.45661" lon="6.51965">
        <ele>2447</ele>
        <time>2021-02-21T06:53:53Z</time>
      </trkpt>
      <trkpt lat="44.45661" lon="6.51965">
        <ele>2447</ele>
        <time>2021-02-21T06:53:54Z</time>
      </trkpt>
      <trkpt lat="44.45661" lon="6.51965">
        <ele>2447</ele>
        <time>2021-02-21T06:53:55Z</time>
      </trkpt>
      <trkpt lat="44.45664" lon="6.51964">
        <ele>2451</ele>
        <time>2021-02-21T06:53:56Z</time>
      </trkpt>
      <trkpt lat="44.45665" lon="6.51963">
        <ele>2452</ele>
        <time>2021-02-21T06:53:57Z</time>
      </trkpt>
      <trkpt lat="44.45665" lon="6.51963">
        <ele>2452</ele>
        <time>2021-02-21T06:53:58Z</time>
      </trkpt>
      <trkpt lat="44.45665" lon="6.51963">
        <ele>2453</ele>
        <time>2021-02-21T06:53:59Z</time>
      </trkpt>
      <trkpt lat="44.45664" lon="6.51963">
        <ele>2453</ele>
        <time>2021-02-21T06:54:00Z</time>
      </trkpt>
      <trkpt lat="44.45664" lon="6.51963">
        <ele>2453</ele>
        <time>2021-02-21T06:54:01Z</time>
      </trkpt>
      <trkpt lat="44.45664" lon="6.51963">
        <ele>2453</ele>
        <time>2021-02-21T06:54:02Z</time>
      </trkpt>
      <trkpt lat="44.45664" lon="6.51963">
        <ele>2453</ele>
        <time>2021-02-21T06:54:03Z</time>
      </trkpt>
      <trkpt lat="44.45663" lon="6.51963">
        <ele>2454</ele>
        <time>2021-02-21T06:54:04Z</time>
      </trkpt>
      <trkpt lat="44.45663" lon="6.51963">
        <ele>2454</ele>
        <time>2021-02-21T06:54:05Z</time>
      </trkpt>
      <trkpt lat="44.45663" lon="6.51961">
        <ele>2454</ele>
        <time>2021-02-21T06:54:06Z</time>
      </trkpt>
      <trkpt lat="44.45663" lon="6.5196">
        <ele>2454</ele>
        <time>2021-02-21T06:54:07Z</time>
      </trkpt>
      <trkpt lat="44.45663" lon="6.51961">
        <ele>2454</ele>
        <time>2021-02-21T06:54:08Z</time>
      </trkpt>
      <trkpt lat="44.45661" lon="6.51961">
        <ele>2454</ele>
        <time>2021-02-21T06:54:09Z</time>
      </trkpt>
      <trkpt lat="44.4566" lon="6.51964">
        <ele>2458</ele>
        <time>2021-02-21T06:54:10Z</time>
      </trkpt>
      <trkpt lat="44.4566" lon="6.51964">
        <ele>2459</ele>
        <time>2021-02-21T06:54:11Z</time>
      </trkpt>
      <trkpt lat="44.4566" lon="6.51964">
        <ele>2460</ele>
        <time>2021-02-21T06:54:12Z</time>
      </trkpt>
      <trkpt lat="44.4566" lon="6.51963">
        <ele>2460</ele>
        <time>2021-02-21T06:54:13Z</time>
      </trkpt>
      <trkpt lat="44.45659" lon="6.51963">
        <ele>2460</ele>
        <time>2021-02-21T06:54:15Z</time>
      </trkpt>
      <trkpt lat="44.45659" lon="6.51963">
        <ele>2460</ele>
        <time>2021-02-21T06:54:16Z</time>
      </trkpt>
      <trkpt lat="44.45659" lon="6.51963">
        <ele>2460</ele>
        <time>2021-02-21T06:54:17Z</time>
      </trkpt>
      <trkpt lat="44.45659" lon="6.51963">
        <ele>2461</ele>
        <time>2021-02-21T06:54:18Z</time>
      </trkpt>
      <trkpt lat="44.45659" lon="6.51963">
        <ele>2461</ele>
        <time>2021-02-21T06:54:19Z</time>
      </trkpt>
      <trkpt lat="44.45659" lon="6.51963">
        <ele>2461</ele>
        <time>2021-02-21T06:54:20Z</time>
      </trkpt>
      <trkpt lat="44.45659" lon="6.51963">
        <ele>2461</ele>
        <time>2021-02-21T06:54:21Z</time>
      </trkpt>
      <trkpt lat="44.45659" lon="6.51963">
        <ele>2461</ele>
        <time>2021-02-21T06:54:22Z</time>
      </trkpt>
      <trkpt lat="44.45659" lon="6.51963">
        <ele>2461</ele>
        <time>2021-02-21T06:54:23Z</time>
      </trkpt>
      <trkpt lat="44.45659" lon="6.51963">
        <ele>2461</ele>
        <time>2021-02-21T06:54:24Z</time>
      </trkpt>
      <trkpt lat="44.45659" lon="6.51963">
        <ele>2461</ele>
        <time>2021-02-21T06:54:25Z</time>
      </trkpt>
      <trkpt lat="44.45659" lon="6.51963">
        <ele>2461</ele>
        <time>2021-02-21T06:54:26Z</time>
      </trkpt>
      <trkpt lat="44.45659" lon="6.51963">
        <ele>2461</ele>
        <time>2021-02-21T06:54:27Z</time>
      </trkpt>
      <trkpt lat="44.45659" lon="6.51963">
        <ele>2461</ele>
        <time>2021-02-21T06:54:28Z</time>
      </trkpt>
      <trkpt lat="44.45659" lon="6.51963">
        <ele>2461</ele>
        <time>2021-02-21T06:54:29Z</time>
      </trkpt>
      <trkpt lat="44.45659" lon="6.51963">
        <ele>2461</ele>
        <time>2021-02-21T06:54:30Z</time>
      </trkpt>
      <trkpt lat="44.45659" lon="6.51963">
        <ele>2461</ele>
        <time>2021-02-21T06:54:31Z</time>
      </trkpt>
      <trkpt lat="44.45659" lon="6.51963">
        <ele>2461</ele>
        <time>2021-02-21T06:54:32Z</time>
      </trkpt>
      <trkpt lat="44.45659" lon="6.51963">
        <ele>2461</ele>
        <time>2021-02-21T06:54:33Z</time>
      </trkpt>
      <trkpt lat="44.45659" lon="6.51963">
        <ele>2461</ele>
        <time>2021-02-21T06:54:34Z</time>
      </trkpt>
      <trkpt lat="44.45659" lon="6.51963">
        <ele>2461</ele>
        <time>2021-02-21T06:54:35Z</time>
      </trkpt>
      <trkpt lat="44.45659" lon="6.51963">
        <ele>2461</ele>
        <time>2021-02-21T06:54:36Z</time>
      </trkpt>
      <trkpt lat="44.45659" lon="6.51963">
        <ele>2461</ele>
        <time>2021-02-21T06:54:37Z</time>
      </trkpt>
      <trkpt lat="44.45659" lon="6.51963">
        <ele>2461</ele>
        <time>2021-02-21T06:54:38Z</time>
      </trkpt>
      <trkpt lat="44.45659" lon="6.51963">
        <ele>2461</ele>
        <time>2021-02-21T06:54:39Z</time>
      </trkpt>
      <trkpt lat="44.45659" lon="6.51963">
        <ele>2461</ele>
        <time>2021-02-21T06:54:40Z</time>
      </trkpt>
      <trkpt lat="44.45659" lon="6.51963">
        <ele>2461</ele>
        <time>2021-02-21T06:54:41Z</time>
      </trkpt>
      <trkpt lat="44.45659" lon="6.51963">
        <ele>2461</ele>
        <time>2021-02-21T06:54:42Z</time>
      </trkpt>
      <trkpt lat="44.45659" lon="6.51963">
        <ele>2461</ele>
        <time>2021-02-21T06:54:43Z</time>
      </trkpt>
      <trkpt lat="44.45659" lon="6.51963">
        <ele>2461</ele>
        <time>2021-02-21T06:54:44Z</time>
      </trkpt>
      <trkpt lat="44.45659" lon="6.51963">
        <ele>2461</ele>
        <time>2021-02-21T06:54:45Z</time>
      </trkpt>
      <trkpt lat="44.45657" lon="6.51966">
        <ele>2461</ele>
        <time>2021-02-21T06:54:46Z</time>
      </trkpt>
      <trkpt lat="44.45657" lon="6.51966">
        <ele>2462</ele>
        <time>2021-02-21T06:54:47Z</time>
      </trkpt>
      <trkpt lat="44.45657" lon="6.51966">
        <ele>2462</ele>
        <time>2021-02-21T06:54:48Z</time>
      </trkpt>
      <trkpt lat="44.45657" lon="6.51966">
        <ele>2463</ele>
        <time>2021-02-21T06:54:49Z</time>
      </trkpt>
      <trkpt lat="44.45657" lon="6.51966">
        <ele>2463</ele>
        <time>2021-02-21T06:54:50Z</time>
      </trkpt>
      <trkpt lat="44.45657" lon="6.51966">
        <ele>2463</ele>
        <time>2021-02-21T06:54:51Z</time>
      </trkpt>
      <trkpt lat="44.45657" lon="6.51967">
        <ele>2463</ele>
        <time>2021-02-21T06:54:52Z</time>
      </trkpt>
      <trkpt lat="44.45657" lon="6.51967">
        <ele>2464</ele>
        <time>2021-02-21T06:54:53Z</time>
      </trkpt>
      <trkpt lat="44.45657" lon="6.51966">
        <ele>2464</ele>
        <time>2021-02-21T06:54:54Z</time>
      </trkpt>
      <trkpt lat="44.45656" lon="6.51965">
        <ele>2469</ele>
        <time>2021-02-21T06:54:55Z</time>
      </trkpt>
      <trkpt lat="44.45655" lon="6.51963">
        <ele>2471</ele>
        <time>2021-02-21T06:54:56Z</time>
      </trkpt>
      <trkpt lat="44.45655" lon="6.51963">
        <ele>2471</ele>
        <time>2021-02-21T06:54:57Z</time>
      </trkpt>
      <trkpt lat="44.45655" lon="6.51962">
        <ele>2472</ele>
        <time>2021-02-21T06:54:58Z</time>
      </trkpt>
      <trkpt lat="44.45655" lon="6.5196">
        <ele>2472</ele>
        <time>2021-02-21T06:54:59Z</time>
      </trkpt>
      <trkpt lat="44.45655" lon="6.5196">
        <ele>2472</ele>
        <time>2021-02-21T06:55:00Z</time>
      </trkpt>
      <trkpt lat="44.45655" lon="6.51959">
        <ele>2473</ele>
        <time>2021-02-21T06:55:01Z</time>
      </trkpt>
      <trkpt lat="44.45655" lon="6.51958">
        <ele>2473</ele>
        <time>2021-02-21T06:55:02Z</time>
      </trkpt>
      <trkpt lat="44.45656" lon="6.51957">
        <ele>2473</ele>
        <time>2021-02-21T06:55:03Z</time>
      </trkpt>
      <trkpt lat="44.45656" lon="6.51957">
        <ele>2473</ele>
        <time>2021-02-21T06:55:04Z</time>
      </trkpt>
      <trkpt lat="44.45656" lon="6.51956">
        <ele>2473</ele>
        <time>2021-02-21T06:55:05Z</time>
      </trkpt>
      <trkpt lat="44.45656" lon="6.51956">
        <ele>2473</ele>
        <time>2021-02-21T06:55:06Z</time>
      </trkpt>
      <trkpt lat="44.45656" lon="6.51956">
        <ele>2473</ele>
        <time>2021-02-21T06:55:07Z</time>
      </trkpt>
      <trkpt lat="44.45656" lon="6.51954">
        <ele>2473</ele>
        <time>2021-02-21T06:55:08Z</time>
      </trkpt>
      <trkpt lat="44.45655" lon="6.51954">
        <ele>2473</ele>
        <time>2021-02-21T06:55:09Z</time>
      </trkpt>
      <trkpt lat="44.45655" lon="6.51955">
        <ele>2473</ele>
        <time>2021-02-21T06:55:10Z</time>
      </trkpt>
      <trkpt lat="44.45655" lon="6.51955">
        <ele>2473</ele>
        <time>2021-02-21T06:55:11Z</time>
      </trkpt>
      <trkpt lat="44.45655" lon="6.51955">
        <ele>2473</ele>
        <time>2021-02-21T06:55:12Z</time>
      </trkpt>
      <trkpt lat="44.45654" lon="6.51956">
        <ele>2472</ele>
        <time>2021-02-21T06:55:13Z</time>
      </trkpt>
      <trkpt lat="44.45654" lon="6.51956">
        <ele>2472</ele>
        <time>2021-02-21T06:55:14Z</time>
      </trkpt>
      <trkpt lat="44.45654" lon="6.51956">
        <ele>2472</ele>
        <time>2021-02-21T06:55:15Z</time>
      </trkpt>
      <trkpt lat="44.45654" lon="6.51956">
        <ele>2472</ele>
        <time>2021-02-21T06:55:16Z</time>
      </trkpt>
      <trkpt lat="44.45654" lon="6.51956">
        <ele>2472</ele>
        <time>2021-02-21T06:55:17Z</time>
      </trkpt>
      <trkpt lat="44.45654" lon="6.51955">
        <ele>2472</ele>
        <time>2021-02-21T06:55:18Z</time>
      </trkpt>
      <trkpt lat="44.45654" lon="6.51953">
        <ele>2472</ele>
        <time>2021-02-21T06:55:19Z</time>
      </trkpt>
      <trkpt lat="44.45654" lon="6.51953">
        <ele>2472</ele>
        <time>2021-02-21T06:55:20Z</time>
      </trkpt>
      <trkpt lat="44.45654" lon="6.51953">
        <ele>2472</ele>
        <time>2021-02-21T06:55:21Z</time>
      </trkpt>
      <trkpt lat="44.45654" lon="6.51952">
        <ele>2472</ele>
        <time>2021-02-21T06:55:22Z</time>
      </trkpt>
      <trkpt lat="44.45654" lon="6.51952">
        <ele>2472</ele>
        <time>2021-02-21T06:55:23Z</time>
      </trkpt>
      <trkpt lat="44.45654" lon="6.51952">
        <ele>2473</ele>
        <time>2021-02-21T06:55:24Z</time>
      </trkpt>
      <trkpt lat="44.45654" lon="6.51952">
        <ele>2473</ele>
        <time>2021-02-21T06:55:25Z</time>
      </trkpt>
      <trkpt lat="44.45655" lon="6.51952">
        <ele>2473</ele>
        <time>2021-02-21T06:55:26Z</time>
      </trkpt>
      <trkpt lat="44.45655" lon="6.51951">
        <ele>2473</ele>
        <time>2021-02-21T06:55:27Z</time>
      </trkpt>
      <trkpt lat="44.45655" lon="6.51951">
        <ele>2473</ele>
        <time>2021-02-21T06:55:28Z</time>
      </trkpt>
      <trkpt lat="44.45655" lon="6.51951">
        <ele>2473</ele>
        <time>2021-02-21T06:55:29Z</time>
      </trkpt>
      <trkpt lat="44.45655" lon="6.51951">
        <ele>2473</ele>
        <time>2021-02-21T06:55:30Z</time>
      </trkpt>
      <trkpt lat="44.45655" lon="6.51951">
        <ele>2473</ele>
        <time>2021-02-21T06:55:31Z</time>
      </trkpt>
      <trkpt lat="44.45655" lon="6.51951">
        <ele>2473</ele>
        <time>2021-02-21T06:55:32Z</time>
      </trkpt>
      <trkpt lat="44.45655" lon="6.51951">
        <ele>2473</ele>
        <time>2021-02-21T06:55:33Z</time>
      </trkpt>
      <trkpt lat="44.45655" lon="6.51951">
        <ele>2474</ele>
        <time>2021-02-21T06:55:34Z</time>
      </trkpt>
      <trkpt lat="44.45655" lon="6.51951">
        <ele>2474</ele>
        <time>2021-02-21T06:55:35Z</time>
      </trkpt>
      <trkpt lat="44.45655" lon="6.51951">
        <ele>2474</ele>
        <time>2021-02-21T06:55:36Z</time>
      </trkpt>
      <trkpt lat="44.45655" lon="6.51951">
        <ele>2474</ele>
        <time>2021-02-21T06:55:37Z</time>
      </trkpt>
      <trkpt lat="44.45655" lon="6.51951">
        <ele>2474</ele>
        <time>2021-02-21T06:55:38Z</time>
      </trkpt>
      <trkpt lat="44.45655" lon="6.51949">
        <ele>2474</ele>
        <time>2021-02-21T06:55:39Z</time>
      </trkpt>
      <trkpt lat="44.45655" lon="6.51949">
        <ele>2474</ele>
        <time>2021-02-21T06:55:40Z</time>
      </trkpt>
      <trkpt lat="44.45655" lon="6.51949">
        <ele>2474</ele>
        <time>2021-02-21T06:55:41Z</time>
      </trkpt>
      <trkpt lat="44.45656" lon="6.51949">
        <ele>2474</ele>
        <time>2021-02-21T06:55:42Z</time>
      </trkpt>
      <trkpt lat="44.45656" lon="6.51949">
        <ele>2474</ele>
        <time>2021-02-21T06:55:43Z</time>
      </trkpt>
      <trkpt lat="44.45657" lon="6.51949">
        <ele>2474</ele>
        <time>2021-02-21T06:55:44Z</time>
      </trkpt>
      <trkpt lat="44.45657" lon="6.51949">
        <ele>2475</ele>
        <time>2021-02-21T06:55:45Z</time>
      </trkpt>
      <trkpt lat="44.45657" lon="6.51948">
        <ele>2476</ele>
        <time>2021-02-21T06:55:46Z</time>
      </trkpt>
      <trkpt lat="44.45657" lon="6.51948">
        <ele>2476</ele>
        <time>2021-02-21T06:55:47Z</time>
      </trkpt>
      <trkpt lat="44.45658" lon="6.51948">
        <ele>2476</ele>
        <time>2021-02-21T06:55:48Z</time>
      </trkpt>
      <trkpt lat="44.45657" lon="6.51949">
        <ele>2476</ele>
        <time>2021-02-21T06:55:49Z</time>
      </trkpt>
      <trkpt lat="44.45657" lon="6.51948">
        <ele>2476</ele>
        <time>2021-02-21T06:55:50Z</time>
      </trkpt>
      <trkpt lat="44.45658" lon="6.51948">
        <ele>2476</ele>
        <time>2021-02-21T06:55:51Z</time>
      </trkpt>
      <trkpt lat="44.45658" lon="6.51948">
        <ele>2477</ele>
        <time>2021-02-21T06:55:52Z</time>
      </trkpt>
      <trkpt lat="44.45658" lon="6.51948">
        <ele>2477</ele>
        <time>2021-02-21T06:55:53Z</time>
      </trkpt>
      <trkpt lat="44.45658" lon="6.51948">
        <ele>2477</ele>
        <time>2021-02-21T06:55:54Z</time>
      </trkpt>
      <trkpt lat="44.45658" lon="6.51948">
        <ele>2477</ele>
        <time>2021-02-21T06:55:55Z</time>
      </trkpt>
      <trkpt lat="44.45658" lon="6.51947">
        <ele>2477</ele>
        <time>2021-02-21T06:55:56Z</time>
      </trkpt>
      <trkpt lat="44.45657" lon="6.51947">
        <ele>2478</ele>
        <time>2021-02-21T06:55:57Z</time>
      </trkpt>
      <trkpt lat="44.45656" lon="6.51947">
        <ele>2478</ele>
        <time>2021-02-21T06:55:58Z</time>
      </trkpt>
      <trkpt lat="44.45657" lon="6.51946">
        <ele>2478</ele>
        <time>2021-02-21T06:55:59Z</time>
      </trkpt>
      <trkpt lat="44.45657" lon="6.51946">
        <ele>2478</ele>
        <time>2021-02-21T06:56:00Z</time>
      </trkpt>
      <trkpt lat="44.45657" lon="6.51946">
        <ele>2478</ele>
        <time>2021-02-21T06:56:01Z</time>
      </trkpt>
      <trkpt lat="44.45657" lon="6.51946">
        <ele>2478</ele>
        <time>2021-02-21T06:56:02Z</time>
      </trkpt>
      <trkpt lat="44.45657" lon="6.51946">
        <ele>2479</ele>
        <time>2021-02-21T06:56:03Z</time>
      </trkpt>
      <trkpt lat="44.45657" lon="6.51946">
        <ele>2479</ele>
        <time>2021-02-21T06:56:04Z</time>
      </trkpt>
      <trkpt lat="44.45657" lon="6.51946">
        <ele>2479</ele>
        <time>2021-02-21T06:56:05Z</time>
      </trkpt>
      <trkpt lat="44.45657" lon="6.51946">
        <ele>2479</ele>
        <time>2021-02-21T06:56:06Z</time>
      </trkpt>
      <trkpt lat="44.45657" lon="6.51946">
        <ele>2479</ele>
        <time>2021-02-21T06:56:07Z</time>
      </trkpt>
      <trkpt lat="44.45657" lon="6.51946">
        <ele>2479</ele>
        <time>2021-02-21T06:56:08Z</time>
      </trkpt>
      <trkpt lat="44.45657" lon="6.51946">
        <ele>2479</ele>
        <time>2021-02-21T06:56:09Z</time>
      </trkpt>
      <trkpt lat="44.45657" lon="6.51946">
        <ele>2479</ele>
        <time>2021-02-21T06:56:10Z</time>
      </trkpt>
      <trkpt lat="44.45657" lon="6.51946">
        <ele>2479</ele>
        <time>2021-02-21T06:56:11Z</time>
      </trkpt>
      <trkpt lat="44.4566" lon="6.51948">
        <ele>2479</ele>
        <time>2021-02-21T06:56:12Z</time>
      </trkpt>
      <trkpt lat="44.4566" lon="6.51947">
        <ele>2480</ele>
        <time>2021-02-21T06:56:13Z</time>
      </trkpt>
      <trkpt lat="44.4566" lon="6.51947">
        <ele>2480</ele>
        <time>2021-02-21T06:56:14Z</time>
      </trkpt>
      <trkpt lat="44.4566" lon="6.51948">
        <ele>2480</ele>
        <time>2021-02-21T06:56:15Z</time>
      </trkpt>
      <trkpt lat="44.4566" lon="6.51948">
        <ele>2480</ele>
        <time>2021-02-21T06:56:16Z</time>
      </trkpt>
      <trkpt lat="44.4566" lon="6.51948">
        <ele>2480</ele>
        <time>2021-02-21T06:56:17Z</time>
      </trkpt>
      <trkpt lat="44.4566" lon="6.51948">
        <ele>2480</ele>
        <time>2021-02-21T06:56:18Z</time>
      </trkpt>
      <trkpt lat="44.4566" lon="6.51948">
        <ele>2480</ele>
        <time>2021-02-21T06:56:19Z</time>
      </trkpt>
      <trkpt lat="44.4566" lon="6.51948">
        <ele>2480</ele>
        <time>2021-02-21T06:56:20Z</time>
      </trkpt>
      <trkpt lat="44.4566" lon="6.51948">
        <ele>2481</ele>
        <time>2021-02-21T06:56:21Z</time>
      </trkpt>
      <trkpt lat="44.4566" lon="6.51948">
        <ele>2481</ele>
        <time>2021-02-21T06:56:22Z</time>
      </trkpt>
      <trkpt lat="44.4566" lon="6.51948">
        <ele>2481</ele>
        <time>2021-02-21T06:56:23Z</time>
      </trkpt>
      <trkpt lat="44.4566" lon="6.51948">
        <ele>2481</ele>
        <time>2021-02-21T06:56:24Z</time>
      </trkpt>
      <trkpt lat="44.4566" lon="6.51948">
        <ele>2481</ele>
        <time>2021-02-21T06:56:25Z</time>
      </trkpt>
      <trkpt lat="44.4566" lon="6.51948">
        <ele>2481</ele>
        <time>2021-02-21T06:56:26Z</time>
      </trkpt>
      <trkpt lat="44.4566" lon="6.51948">
        <ele>2481</ele>
        <time>2021-02-21T06:56:27Z</time>
      </trkpt>
      <trkpt lat="44.4566" lon="6.51948">
        <ele>2481</ele>
        <time>2021-02-21T06:56:28Z</time>
      </trkpt>
      <trkpt lat="44.45659" lon="6.51947">
        <ele>2481</ele>
        <time>2021-02-21T06:56:29Z</time>
      </trkpt>
      <trkpt lat="44.45658" lon="6.51947">
        <ele>2481</ele>
        <time>2021-02-21T06:56:30Z</time>
      </trkpt>
      <trkpt lat="44.45659" lon="6.51947">
        <ele>2481</ele>
        <time>2021-02-21T06:56:31Z</time>
      </trkpt>
      <trkpt lat="44.45656" lon="6.51946">
        <ele>2481</ele>
        <time>2021-02-21T06:56:32Z</time>
      </trkpt>
      <trkpt lat="44.45657" lon="6.51948">
        <ele>2482</ele>
        <time>2021-02-21T06:56:33Z</time>
      </trkpt>
      <trkpt lat="44.45657" lon="6.51948">
        <ele>2482</ele>
        <time>2021-02-21T06:56:34Z</time>
      </trkpt>
      <trkpt lat="44.45657" lon="6.51948">
        <ele>2482</ele>
        <time>2021-02-21T06:56:35Z</time>
      </trkpt>
      <trkpt lat="44.45657" lon="6.51948">
        <ele>2482</ele>
        <time>2021-02-21T06:56:36Z</time>
      </trkpt>
      <trkpt lat="44.45657" lon="6.51947">
        <ele>2482</ele>
        <time>2021-02-21T06:56:37Z</time>
      </trkpt>
      <trkpt lat="44.45658" lon="6.51947">
        <ele>2482</ele>
        <time>2021-02-21T06:56:38Z</time>
      </trkpt>
      <trkpt lat="44.45659" lon="6.51946">
        <ele>2482</ele>
        <time>2021-02-21T06:56:39Z</time>
      </trkpt>
      <trkpt lat="44.45659" lon="6.51945">
        <ele>2482</ele>
        <time>2021-02-21T06:56:40Z</time>
      </trkpt>
      <trkpt lat="44.45658" lon="6.51945">
        <ele>2482</ele>
        <time>2021-02-21T06:56:41Z</time>
      </trkpt>
      <trkpt lat="44.45658" lon="6.51944">
        <ele>2482</ele>
        <time>2021-02-21T06:56:42Z</time>
      </trkpt>
      <trkpt lat="44.45658" lon="6.51943">
        <ele>2482</ele>
        <time>2021-02-21T06:56:43Z</time>
      </trkpt>
      <trkpt lat="44.45658" lon="6.51942">
        <ele>2484</ele>
        <time>2021-02-21T06:56:44Z</time>
      </trkpt>
      <trkpt lat="44.45658" lon="6.51942">
        <ele>2485</ele>
        <time>2021-02-21T06:56:45Z</time>
      </trkpt>
      <trkpt lat="44.45659" lon="6.51943">
        <ele>2485</ele>
        <time>2021-02-21T06:56:46Z</time>
      </trkpt>
      <trkpt lat="44.45659" lon="6.51944">
        <ele>2485</ele>
        <time>2021-02-21T06:56:47Z</time>
      </trkpt>
      <trkpt lat="44.45658" lon="6.51944">
        <ele>2486</ele>
        <time>2021-02-21T06:56:48Z</time>
      </trkpt>
      <trkpt lat="44.45657" lon="6.51945">
        <ele>2486</ele>
        <time>2021-02-21T06:56:49Z</time>
      </trkpt>
      <trkpt lat="44.45657" lon="6.51945">
        <ele>2486</ele>
        <time>2021-02-21T06:56:50Z</time>
      </trkpt>
      <trkpt lat="44.45657" lon="6.51944">
        <ele>2486</ele>
        <time>2021-02-21T06:56:51Z</time>
      </trkpt>
      <trkpt lat="44.45655" lon="6.51943">
        <ele>2485</ele>
        <time>2021-02-21T06:56:52Z</time>
      </trkpt>
      <trkpt lat="44.45655" lon="6.51943">
        <ele>2485</ele>
        <time>2021-02-21T06:56:53Z</time>
      </trkpt>
      <trkpt lat="44.45655" lon="6.51943">
        <ele>2485</ele>
        <time>2021-02-21T06:56:54Z</time>
      </trkpt>
      <trkpt lat="44.45655" lon="6.51942">
        <ele>2485</ele>
        <time>2021-02-21T06:56:55Z</time>
      </trkpt>
      <trkpt lat="44.45656" lon="6.51941">
        <ele>2485</ele>
        <time>2021-02-21T06:56:56Z</time>
      </trkpt>
      <trkpt lat="44.45656" lon="6.5194">
        <ele>2485</ele>
        <time>2021-02-21T06:56:57Z</time>
      </trkpt>
      <trkpt lat="44.45656" lon="6.51939">
        <ele>2486</ele>
        <time>2021-02-21T06:56:58Z</time>
      </trkpt>
      <trkpt lat="44.45656" lon="6.51938">
        <ele>2486</ele>
        <time>2021-02-21T06:56:59Z</time>
      </trkpt>
      <trkpt lat="44.45656" lon="6.51938">
        <ele>2486</ele>
        <time>2021-02-21T06:57:00Z</time>
      </trkpt>
      <trkpt lat="44.45656" lon="6.51938">
        <ele>2486</ele>
        <time>2021-02-21T06:57:01Z</time>
      </trkpt>
      <trkpt lat="44.45657" lon="6.51939">
        <ele>2486</ele>
        <time>2021-02-21T06:57:02Z</time>
      </trkpt>
      <trkpt lat="44.45656" lon="6.51939">
        <ele>2486</ele>
        <time>2021-02-21T06:57:03Z</time>
      </trkpt>
      <trkpt lat="44.45655" lon="6.51939">
        <ele>2486</ele>
        <time>2021-02-21T06:57:04Z</time>
      </trkpt>
      <trkpt lat="44.45655" lon="6.51938">
        <ele>2486</ele>
        <time>2021-02-21T06:57:05Z</time>
      </trkpt>
      <trkpt lat="44.45655" lon="6.51939">
        <ele>2488</ele>
        <time>2021-02-21T06:57:06Z</time>
      </trkpt>
      <trkpt lat="44.45655" lon="6.51939">
        <ele>2489</ele>
        <time>2021-02-21T06:57:07Z</time>
      </trkpt>
      <trkpt lat="44.45655" lon="6.51938">
        <ele>2489</ele>
        <time>2021-02-21T06:57:08Z</time>
      </trkpt>
      <trkpt lat="44.45655" lon="6.51938">
        <ele>2489</ele>
        <time>2021-02-21T06:57:09Z</time>
      </trkpt>
      <trkpt lat="44.45655" lon="6.51938">
        <ele>2489</ele>
        <time>2021-02-21T06:57:10Z</time>
      </trkpt>
      <trkpt lat="44.45655" lon="6.51938">
        <ele>2489</ele>
        <time>2021-02-21T06:57:11Z</time>
      </trkpt>
      <trkpt lat="44.45655" lon="6.51938">
        <ele>2489</ele>
        <time>2021-02-21T06:57:12Z</time>
      </trkpt>
      <trkpt lat="44.45655" lon="6.51938">
        <ele>2489</ele>
        <time>2021-02-21T06:57:13Z</time>
      </trkpt>
      <trkpt lat="44.45655" lon="6.51938">
        <ele>2489</ele>
        <time>2021-02-21T06:57:14Z</time>
      </trkpt>
      <trkpt lat="44.45655" lon="6.51938">
        <ele>2489</ele>
        <time>2021-02-21T06:57:15Z</time>
      </trkpt>
      <trkpt lat="44.45655" lon="6.51938">
        <ele>2489</ele>
        <time>2021-02-21T06:57:16Z</time>
      </trkpt>
      <trkpt lat="44.45653" lon="6.51935">
        <ele>2489</ele>
        <time>2021-02-21T06:57:17Z</time>
      </trkpt>
      <trkpt lat="44.45652" lon="6.51934">
        <ele>2489</ele>
        <time>2021-02-21T06:57:18Z</time>
      </trkpt>
      <trkpt lat="44.45652" lon="6.51934">
        <ele>2489</ele>
        <time>2021-02-21T06:57:19Z</time>
      </trkpt>
      <trkpt lat="44.45652" lon="6.51933">
        <ele>2489</ele>
        <time>2021-02-21T06:57:20Z</time>
      </trkpt>
      <trkpt lat="44.45652" lon="6.51933">
        <ele>2488</ele>
        <time>2021-02-21T06:57:21Z</time>
      </trkpt>
      <trkpt lat="44.45652" lon="6.51932">
        <ele>2488</ele>
        <time>2021-02-21T06:57:22Z</time>
      </trkpt>
      <trkpt lat="44.45652" lon="6.51932">
        <ele>2488</ele>
        <time>2021-02-21T06:57:23Z</time>
      </trkpt>
      <trkpt lat="44.45652" lon="6.51931">
        <ele>2488</ele>
        <time>2021-02-21T06:57:24Z</time>
      </trkpt>
      <trkpt lat="44.45651" lon="6.51931">
        <ele>2487</ele>
        <time>2021-02-21T06:57:25Z</time>
      </trkpt>
      <trkpt lat="44.45651" lon="6.5193">
        <ele>2487</ele>
        <time>2021-02-21T06:57:26Z</time>
      </trkpt>
      <trkpt lat="44.45651" lon="6.51928">
        <ele>2486</ele>
        <time>2021-02-21T06:57:27Z</time>
      </trkpt>
      <trkpt lat="44.4565" lon="6.51928">
        <ele>2485</ele>
        <time>2021-02-21T06:57:28Z</time>
      </trkpt>
      <trkpt lat="44.4565" lon="6.51927">
        <ele>2485</ele>
        <time>2021-02-21T06:57:29Z</time>
      </trkpt>
      <trkpt lat="44.4565" lon="6.51927">
        <ele>2485</ele>
        <time>2021-02-21T06:57:30Z</time>
      </trkpt>
      <trkpt lat="44.4565" lon="6.51926">
        <ele>2485</ele>
        <time>2021-02-21T06:57:31Z</time>
      </trkpt>
      <trkpt lat="44.4565" lon="6.51927">
        <ele>2485</ele>
        <time>2021-02-21T06:57:32Z</time>
      </trkpt>
      <trkpt lat="44.4565" lon="6.51928">
        <ele>2485</ele>
        <time>2021-02-21T06:57:33Z</time>
      </trkpt>
      <trkpt lat="44.4565" lon="6.51928">
        <ele>2485</ele>
        <time>2021-02-21T06:57:34Z</time>
      </trkpt>
      <trkpt lat="44.4565" lon="6.51928">
        <ele>2486</ele>
        <time>2021-02-21T06:57:35Z</time>
      </trkpt>
      <trkpt lat="44.45651" lon="6.51929">
        <ele>2486</ele>
        <time>2021-02-21T06:57:36Z</time>
      </trkpt>
      <trkpt lat="44.45651" lon="6.51929">
        <ele>2486</ele>
        <time>2021-02-21T06:57:37Z</time>
      </trkpt>
      <trkpt lat="44.45651" lon="6.51929">
        <ele>2486</ele>
        <time>2021-02-21T06:57:38Z</time>
      </trkpt>
      <trkpt lat="44.45651" lon="6.51929">
        <ele>2486</ele>
        <time>2021-02-21T06:57:39Z</time>
      </trkpt>
      <trkpt lat="44.45651" lon="6.51929">
        <ele>2486</ele>
        <time>2021-02-21T06:57:40Z</time>
      </trkpt>
      <trkpt lat="44.45651" lon="6.51929">
        <ele>2486</ele>
        <time>2021-02-21T06:57:41Z</time>
      </trkpt>
      <trkpt lat="44.45651" lon="6.51929">
        <ele>2486</ele>
        <time>2021-02-21T06:57:42Z</time>
      </trkpt>
      <trkpt lat="44.45651" lon="6.51929">
        <ele>2487</ele>
        <time>2021-02-21T06:57:43Z</time>
      </trkpt>
      <trkpt lat="44.45651" lon="6.51929">
        <ele>2487</ele>
        <time>2021-02-21T06:57:44Z</time>
      </trkpt>
      <trkpt lat="44.45651" lon="6.51929">
        <ele>2487</ele>
        <time>2021-02-21T06:57:45Z</time>
      </trkpt>
      <trkpt lat="44.45651" lon="6.51929">
        <ele>2487</ele>
        <time>2021-02-21T06:57:46Z</time>
      </trkpt>
      <trkpt lat="44.45651" lon="6.51929">
        <ele>2487</ele>
        <time>2021-02-21T06:57:47Z</time>
      </trkpt>
      <trkpt lat="44.45651" lon="6.51929">
        <ele>2487</ele>
        <time>2021-02-21T06:57:48Z</time>
      </trkpt>
      <trkpt lat="44.45651" lon="6.51929">
        <ele>2487</ele>
        <time>2021-02-21T06:57:49Z</time>
      </trkpt>
      <trkpt lat="44.45651" lon="6.51929">
        <ele>2487</ele>
        <time>2021-02-21T06:57:50Z</time>
      </trkpt>
      <trkpt lat="44.45651" lon="6.51929">
        <ele>2487</ele>
        <time>2021-02-21T06:57:51Z</time>
      </trkpt>
      <trkpt lat="44.45651" lon="6.51929">
        <ele>2487</ele>
        <time>2021-02-21T06:57:52Z</time>
      </trkpt>
      <trkpt lat="44.45655" lon="6.51932">
        <ele>2490</ele>
        <time>2021-02-21T06:57:53Z</time>
      </trkpt>
      <trkpt lat="44.45655" lon="6.51932">
        <ele>2491</ele>
        <time>2021-02-21T06:57:54Z</time>
      </trkpt>
      <trkpt lat="44.45655" lon="6.51932">
        <ele>2492</ele>
        <time>2021-02-21T06:57:55Z</time>
      </trkpt>
      <trkpt lat="44.45655" lon="6.51932">
        <ele>2492</ele>
        <time>2021-02-21T06:57:56Z</time>
      </trkpt>
      <trkpt lat="44.45655" lon="6.51932">
        <ele>2492</ele>
        <time>2021-02-21T06:57:57Z</time>
      </trkpt>
      <trkpt lat="44.45655" lon="6.51931">
        <ele>2492</ele>
        <time>2021-02-21T06:57:58Z</time>
      </trkpt>
      <trkpt lat="44.45654" lon="6.51931">
        <ele>2492</ele>
        <time>2021-02-21T06:57:59Z</time>
      </trkpt>
      <trkpt lat="44.45654" lon="6.51931">
        <ele>2492</ele>
        <time>2021-02-21T06:58:00Z</time>
      </trkpt>
      <trkpt lat="44.45654" lon="6.5193">
        <ele>2492</ele>
        <time>2021-02-21T06:58:01Z</time>
      </trkpt>
      <trkpt lat="44.45653" lon="6.5193">
        <ele>2492</ele>
        <time>2021-02-21T06:58:02Z</time>
      </trkpt>
      <trkpt lat="44.45652" lon="6.51928">
        <ele>2492</ele>
        <time>2021-02-21T06:58:03Z</time>
      </trkpt>
      <trkpt lat="44.45652" lon="6.51927">
        <ele>2492</ele>
        <time>2021-02-21T06:58:04Z</time>
      </trkpt>
      <trkpt lat="44.45652" lon="6.51927">
        <ele>2492</ele>
        <time>2021-02-21T06:58:05Z</time>
      </trkpt>
      <trkpt lat="44.45652" lon="6.51926">
        <ele>2492</ele>
        <time>2021-02-21T06:58:06Z</time>
      </trkpt>
      <trkpt lat="44.45652" lon="6.51927">
        <ele>2492</ele>
        <time>2021-02-21T06:58:07Z</time>
      </trkpt>
      <trkpt lat="44.45652" lon="6.51927">
        <ele>2492</ele>
        <time>2021-02-21T06:58:08Z</time>
      </trkpt>
      <trkpt lat="44.45652" lon="6.51926">
        <ele>2492</ele>
        <time>2021-02-21T06:58:09Z</time>
      </trkpt>
      <trkpt lat="44.45652" lon="6.51926">
        <ele>2492</ele>
        <time>2021-02-21T06:58:10Z</time>
      </trkpt>
      <trkpt lat="44.45651" lon="6.51925">
        <ele>2492</ele>
        <time>2021-02-21T06:58:11Z</time>
      </trkpt>
      <trkpt lat="44.45651" lon="6.51925">
        <ele>2492</ele>
        <time>2021-02-21T06:58:12Z</time>
      </trkpt>
      <trkpt lat="44.45651" lon="6.51925">
        <ele>2492</ele>
        <time>2021-02-21T06:58:13Z</time>
      </trkpt>
      <trkpt lat="44.45651" lon="6.51925">
        <ele>2492</ele>
        <time>2021-02-21T06:58:14Z</time>
      </trkpt>
      <trkpt lat="44.45652" lon="6.51923">
        <ele>2492</ele>
        <time>2021-02-21T06:58:15Z</time>
      </trkpt>
      <trkpt lat="44.45652" lon="6.51923">
        <ele>2493</ele>
        <time>2021-02-21T06:58:16Z</time>
      </trkpt>
      <trkpt lat="44.45652" lon="6.51923">
        <ele>2493</ele>
        <time>2021-02-21T06:58:17Z</time>
      </trkpt>
      <trkpt lat="44.45652" lon="6.51922">
        <ele>2493</ele>
        <time>2021-02-21T06:58:18Z</time>
      </trkpt>
      <trkpt lat="44.45652" lon="6.51921">
        <ele>2494</ele>
        <time>2021-02-21T06:58:19Z</time>
      </trkpt>
      <trkpt lat="44.45652" lon="6.51921">
        <ele>2494</ele>
        <time>2021-02-21T06:58:20Z</time>
      </trkpt>
      <trkpt lat="44.45652" lon="6.51921">
        <ele>2494</ele>
        <time>2021-02-21T06:58:21Z</time>
      </trkpt>
      <trkpt lat="44.45651" lon="6.51921">
        <ele>2494</ele>
        <time>2021-02-21T06:58:22Z</time>
      </trkpt>
      <trkpt lat="44.45651" lon="6.51921">
        <ele>2494</ele>
        <time>2021-02-21T06:58:23Z</time>
      </trkpt>
      <trkpt lat="44.4565" lon="6.51921">
        <ele>2494</ele>
        <time>2021-02-21T06:58:24Z</time>
      </trkpt>
      <trkpt lat="44.4565" lon="6.51921">
        <ele>2494</ele>
        <time>2021-02-21T06:58:25Z</time>
      </trkpt>
      <trkpt lat="44.45652" lon="6.51919">
        <ele>2494</ele>
        <time>2021-02-21T06:58:26Z</time>
      </trkpt>
      <trkpt lat="44.45652" lon="6.51918">
        <ele>2494</ele>
        <time>2021-02-21T06:58:27Z</time>
      </trkpt>
      <trkpt lat="44.45654" lon="6.51918">
        <ele>2494</ele>
        <time>2021-02-21T06:58:28Z</time>
      </trkpt>
      <trkpt lat="44.45654" lon="6.51917">
        <ele>2494</ele>
        <time>2021-02-21T06:58:29Z</time>
      </trkpt>
      <trkpt lat="44.45653" lon="6.51917">
        <ele>2494</ele>
        <time>2021-02-21T06:58:30Z</time>
      </trkpt>
      <trkpt lat="44.45653" lon="6.51917">
        <ele>2494</ele>
        <time>2021-02-21T06:58:31Z</time>
      </trkpt>
      <trkpt lat="44.45653" lon="6.51917">
        <ele>2495</ele>
        <time>2021-02-21T06:58:32Z</time>
      </trkpt>
      <trkpt lat="44.45653" lon="6.51917">
        <ele>2495</ele>
        <time>2021-02-21T06:58:33Z</time>
      </trkpt>
      <trkpt lat="44.45653" lon="6.51917">
        <ele>2495</ele>
        <time>2021-02-21T06:58:34Z</time>
      </trkpt>
      <trkpt lat="44.45653" lon="6.51916">
        <ele>2495</ele>
        <time>2021-02-21T06:58:35Z</time>
      </trkpt>
      <trkpt lat="44.45653" lon="6.51916">
        <ele>2495</ele>
        <time>2021-02-21T06:58:36Z</time>
      </trkpt>
      <trkpt lat="44.45652" lon="6.51916">
        <ele>2495</ele>
        <time>2021-02-21T06:58:37Z</time>
      </trkpt>
      <trkpt lat="44.45652" lon="6.51916">
        <ele>2495</ele>
        <time>2021-02-21T06:58:38Z</time>
      </trkpt>
      <trkpt lat="44.45652" lon="6.51916">
        <ele>2495</ele>
        <time>2021-02-21T06:58:39Z</time>
      </trkpt>
      <trkpt lat="44.45652" lon="6.51915">
        <ele>2495</ele>
        <time>2021-02-21T06:58:40Z</time>
      </trkpt>
      <trkpt lat="44.45652" lon="6.51915">
        <ele>2495</ele>
        <time>2021-02-21T06:58:41Z</time>
      </trkpt>
      <trkpt lat="44.45652" lon="6.51915">
        <ele>2495</ele>
        <time>2021-02-21T06:58:42Z</time>
      </trkpt>
      <trkpt lat="44.45652" lon="6.51915">
        <ele>2495</ele>
        <time>2021-02-21T06:58:43Z</time>
      </trkpt>
      <trkpt lat="44.45652" lon="6.51914">
        <ele>2495</ele>
        <time>2021-02-21T06:58:44Z</time>
      </trkpt>
      <trkpt lat="44.45652" lon="6.51914">
        <ele>2495</ele>
        <time>2021-02-21T06:58:45Z</time>
      </trkpt>
      <trkpt lat="44.45652" lon="6.51913">
        <ele>2495</ele>
        <time>2021-02-21T06:58:46Z</time>
      </trkpt>
      <trkpt lat="44.45652" lon="6.51913">
        <ele>2495</ele>
        <time>2021-02-21T06:58:47Z</time>
      </trkpt>
      <trkpt lat="44.45652" lon="6.51913">
        <ele>2495</ele>
        <time>2021-02-21T06:58:48Z</time>
      </trkpt>
      <trkpt lat="44.45652" lon="6.51912">
        <ele>2495</ele>
        <time>2021-02-21T06:58:49Z</time>
      </trkpt>
      <trkpt lat="44.45652" lon="6.51911">
        <ele>2495</ele>
        <time>2021-02-21T06:58:50Z</time>
      </trkpt>
      <trkpt lat="44.45653" lon="6.51911">
        <ele>2495</ele>
        <time>2021-02-21T06:58:51Z</time>
      </trkpt>
      <trkpt lat="44.45653" lon="6.5191">
        <ele>2496</ele>
        <time>2021-02-21T06:58:52Z</time>
      </trkpt>
      <trkpt lat="44.45653" lon="6.5191">
        <ele>2496</ele>
        <time>2021-02-21T06:58:53Z</time>
      </trkpt>
      <trkpt lat="44.45653" lon="6.5191">
        <ele>2496</ele>
        <time>2021-02-21T06:58:54Z</time>
      </trkpt>
      <trkpt lat="44.45652" lon="6.51909">
        <ele>2496</ele>
        <time>2021-02-21T06:58:55Z</time>
      </trkpt>
      <trkpt lat="44.45653" lon="6.51909">
        <ele>2496</ele>
        <time>2021-02-21T06:58:56Z</time>
      </trkpt>
      <trkpt lat="44.45652" lon="6.51908">
        <ele>2496</ele>
        <time>2021-02-21T06:58:57Z</time>
      </trkpt>
      <trkpt lat="44.45652" lon="6.51908">
        <ele>2496</ele>
        <time>2021-02-21T06:58:58Z</time>
      </trkpt>
      <trkpt lat="44.45652" lon="6.51908">
        <ele>2496</ele>
        <time>2021-02-21T06:58:59Z</time>
      </trkpt>
      <trkpt lat="44.45651" lon="6.51908">
        <ele>2496</ele>
        <time>2021-02-21T06:59:00Z</time>
      </trkpt>
      <trkpt lat="44.45651" lon="6.51908">
        <ele>2496</ele>
        <time>2021-02-21T06:59:01Z</time>
      </trkpt>
      <trkpt lat="44.45651" lon="6.51908">
        <ele>2496</ele>
        <time>2021-02-21T06:59:02Z</time>
      </trkpt>
      <trkpt lat="44.45651" lon="6.51908">
        <ele>2496</ele>
        <time>2021-02-21T06:59:03Z</time>
      </trkpt>
      <trkpt lat="44.45652" lon="6.51907">
        <ele>2496</ele>
        <time>2021-02-21T06:59:04Z</time>
      </trkpt>
      <trkpt lat="44.45652" lon="6.51908">
        <ele>2496</ele>
        <time>2021-02-21T06:59:05Z</time>
      </trkpt>
      <trkpt lat="44.45652" lon="6.51907">
        <ele>2497</ele>
        <time>2021-02-21T06:59:06Z</time>
      </trkpt>
      <trkpt lat="44.45652" lon="6.51907">
        <ele>2497</ele>
        <time>2021-02-21T06:59:07Z</time>
      </trkpt>
      <trkpt lat="44.45652" lon="6.51906">
        <ele>2497</ele>
        <time>2021-02-21T06:59:08Z</time>
      </trkpt>
      <trkpt lat="44.45653" lon="6.51904">
        <ele>2497</ele>
        <time>2021-02-21T06:59:09Z</time>
      </trkpt>
      <trkpt lat="44.45654" lon="6.51903">
        <ele>2499</ele>
        <time>2021-02-21T06:59:10Z</time>
      </trkpt>
      <trkpt lat="44.45654" lon="6.51902">
        <ele>2500</ele>
        <time>2021-02-21T06:59:11Z</time>
      </trkpt>
      <trkpt lat="44.45654" lon="6.51902">
        <ele>2500</ele>
        <time>2021-02-21T06:59:12Z</time>
      </trkpt>
      <trkpt lat="44.45654" lon="6.51902">
        <ele>2500</ele>
        <time>2021-02-21T06:59:13Z</time>
      </trkpt>
      <trkpt lat="44.45653" lon="6.51904">
        <ele>2501</ele>
        <time>2021-02-21T06:59:14Z</time>
      </trkpt>
      <trkpt lat="44.45652" lon="6.51904">
        <ele>2501</ele>
        <time>2021-02-21T06:59:15Z</time>
      </trkpt>
      <trkpt lat="44.45651" lon="6.51904">
        <ele>2501</ele>
        <time>2021-02-21T06:59:16Z</time>
      </trkpt>
      <trkpt lat="44.45651" lon="6.51903">
        <ele>2502</ele>
        <time>2021-02-21T06:59:17Z</time>
      </trkpt>
      <trkpt lat="44.45651" lon="6.51904">
        <ele>2502</ele>
        <time>2021-02-21T06:59:18Z</time>
      </trkpt>
      <trkpt lat="44.45651" lon="6.51904">
        <ele>2502</ele>
        <time>2021-02-21T06:59:19Z</time>
      </trkpt>
      <trkpt lat="44.45651" lon="6.51904">
        <ele>2502</ele>
        <time>2021-02-21T06:59:20Z</time>
      </trkpt>
      <trkpt lat="44.45651" lon="6.51904">
        <ele>2503</ele>
        <time>2021-02-21T06:59:21Z</time>
      </trkpt>
      <trkpt lat="44.45651" lon="6.51904">
        <ele>2503</ele>
        <time>2021-02-21T06:59:22Z</time>
      </trkpt>
      <trkpt lat="44.45651" lon="6.51904">
        <ele>2503</ele>
        <time>2021-02-21T06:59:23Z</time>
      </trkpt>
      <trkpt lat="44.45651" lon="6.51904">
        <ele>2503</ele>
        <time>2021-02-21T06:59:24Z</time>
      </trkpt>
      <trkpt lat="44.45651" lon="6.51904">
        <ele>2503</ele>
        <time>2021-02-21T06:59:25Z</time>
      </trkpt>
      <trkpt lat="44.45651" lon="6.51904">
        <ele>2503</ele>
        <time>2021-02-21T06:59:26Z</time>
      </trkpt>
      <trkpt lat="44.45651" lon="6.51904">
        <ele>2504</ele>
        <time>2021-02-21T06:59:27Z</time>
      </trkpt>
      <trkpt lat="44.45651" lon="6.51904">
        <ele>2504</ele>
        <time>2021-02-21T06:59:28Z</time>
      </trkpt>
      <trkpt lat="44.45651" lon="6.51904">
        <ele>2504</ele>
        <time>2021-02-21T06:59:29Z</time>
      </trkpt>
      <trkpt lat="44.45651" lon="6.51904">
        <ele>2504</ele>
        <time>2021-02-21T06:59:30Z</time>
      </trkpt>
      <trkpt lat="44.45651" lon="6.51904">
        <ele>2504</ele>
        <time>2021-02-21T06:59:31Z</time>
      </trkpt>
      <trkpt lat="44.45651" lon="6.51904">
        <ele>2504</ele>
        <time>2021-02-21T06:59:32Z</time>
      </trkpt>
      <trkpt lat="44.45651" lon="6.51904">
        <ele>2505</ele>
        <time>2021-02-21T06:59:33Z</time>
      </trkpt>
      <trkpt lat="44.45651" lon="6.51904">
        <ele>2505</ele>
        <time>2021-02-21T06:59:34Z</time>
      </trkpt>
      <trkpt lat="44.45651" lon="6.51904">
        <ele>2506</ele>
        <time>2021-02-21T06:59:35Z</time>
      </trkpt>
      <trkpt lat="44.45651" lon="6.51904">
        <ele>2506</ele>
        <time>2021-02-21T06:59:36Z</time>
      </trkpt>
      <trkpt lat="44.45651" lon="6.51904">
        <ele>2506</ele>
        <time>2021-02-21T06:59:37Z</time>
      </trkpt>
      <trkpt lat="44.45651" lon="6.51904">
        <ele>2506</ele>
        <time>2021-02-21T06:59:38Z</time>
      </trkpt>
      <trkpt lat="44.45651" lon="6.51904">
        <ele>2506</ele>
        <time>2021-02-21T06:59:39Z</time>
      </trkpt>
      <trkpt lat="44.45651" lon="6.51904">
        <ele>2506</ele>
        <time>2021-02-21T06:59:40Z</time>
      </trkpt>
      <trkpt lat="44.45651" lon="6.51904">
        <ele>2506</ele>
        <time>2021-02-21T06:59:41Z</time>
      </trkpt>
      <trkpt lat="44.45651" lon="6.51904">
        <ele>2506</ele>
        <time>2021-02-21T06:59:42Z</time>
      </trkpt>
      <trkpt lat="44.45651" lon="6.51904">
        <ele>2506</ele>
        <time>2021-02-21T06:59:43Z</time>
      </trkpt>
      <trkpt lat="44.45651" lon="6.51904">
        <ele>2506</ele>
        <time>2021-02-21T06:59:44Z</time>
      </trkpt>
      <trkpt lat="44.45651" lon="6.51904">
        <ele>2506</ele>
        <time>2021-02-21T06:59:45Z</time>
      </trkpt>
      <trkpt lat="44.45651" lon="6.51904">
        <ele>2506</ele>
        <time>2021-02-21T06:59:46Z</time>
      </trkpt>
      <trkpt lat="44.45651" lon="6.51904">
        <ele>2506</ele>
        <time>2021-02-21T06:59:47Z</time>
      </trkpt>
      <trkpt lat="44.45651" lon="6.51904">
        <ele>2506</ele>
        <time>2021-02-21T06:59:48Z</time>
      </trkpt>
      <trkpt lat="44.45651" lon="6.51904">
        <ele>2506</ele>
        <time>2021-02-21T06:59:49Z</time>
      </trkpt>
      <trkpt lat="44.45651" lon="6.51904">
        <ele>2506</ele>
        <time>2021-02-21T06:59:50Z</time>
      </trkpt>
      <trkpt lat="44.45651" lon="6.51904">
        <ele>2506</ele>
        <time>2021-02-21T06:59:51Z</time>
      </trkpt>
      <trkpt lat="44.45651" lon="6.51904">
        <ele>2506</ele>
        <time>2021-02-21T06:59:52Z</time>
      </trkpt>
      <trkpt lat="44.45651" lon="6.51904">
        <ele>2506</ele>
        <time>2021-02-21T06:59:53Z</time>
      </trkpt>
      <trkpt lat="44.45651" lon="6.51904">
        <ele>2506</ele>
        <time>2021-02-21T06:59:54Z</time>
      </trkpt>
      <trkpt lat="44.45651" lon="6.51904">
        <ele>2506</ele>
        <time>2021-02-21T06:59:55Z</time>
      </trkpt>
      <trkpt lat="44.45651" lon="6.51904">
        <ele>2506</ele>
        <time>2021-02-21T06:59:56Z</time>
      </trkpt>
      <trkpt lat="44.45651" lon="6.51904">
        <ele>2506</ele>
        <time>2021-02-21T06:59:57Z</time>
      </trkpt>
      <trkpt lat="44.45651" lon="6.51904">
        <ele>2506</ele>
        <time>2021-02-21T06:59:58Z</time>
      </trkpt>
      <trkpt lat="44.45651" lon="6.51904">
        <ele>2506</ele>
        <time>2021-02-21T06:59:59Z</time>
      </trkpt>
      <trkpt lat="44.45651" lon="6.51904">
        <ele>2506</ele>
        <time>2021-02-21T07:00:00Z</time>
      </trkpt>
      <trkpt lat="44.45651" lon="6.51904">
        <ele>2506</ele>
        <time>2021-02-21T07:00:01Z</time>
      </trkpt>
      <trkpt lat="44.45651" lon="6.51904">
        <ele>2506</ele>
        <time>2021-02-21T07:00:02Z</time>
      </trkpt>
      <trkpt lat="44.45651" lon="6.51904">
        <ele>2506</ele>
        <time>2021-02-21T07:00:03Z</time>
      </trkpt>
      <trkpt lat="44.45651" lon="6.51904">
        <ele>2506</ele>
        <time>2021-02-21T07:00:04Z</time>
      </trkpt>
      <trkpt lat="44.45651" lon="6.51904">
        <ele>2506</ele>
        <time>2021-02-21T07:00:05Z</time>
      </trkpt>
      <trkpt lat="44.45651" lon="6.51895">
        <ele>2507</ele>
        <time>2021-02-21T07:00:06Z</time>
      </trkpt>
      <trkpt lat="44.45651" lon="6.51894">
        <ele>2507</ele>
        <time>2021-02-21T07:00:07Z</time>
      </trkpt>
      <trkpt lat="44.45652" lon="6.51894">
        <ele>2508</ele>
        <time>2021-02-21T07:00:08Z</time>
      </trkpt>
      <trkpt lat="44.45652" lon="6.51894">
        <ele>2508</ele>
        <time>2021-02-21T07:00:09Z</time>
      </trkpt>
      <trkpt lat="44.45652" lon="6.51893">
        <ele>2508</ele>
        <time>2021-02-21T07:00:10Z</time>
      </trkpt>
      <trkpt lat="44.45652" lon="6.51893">
        <ele>2508</ele>
        <time>2021-02-21T07:00:11Z</time>
      </trkpt>
      <trkpt lat="44.45652" lon="6.51893">
        <ele>2508</ele>
        <time>2021-02-21T07:00:12Z</time>
      </trkpt>
      <trkpt lat="44.45652" lon="6.51893">
        <ele>2508</ele>
        <time>2021-02-21T07:00:13Z</time>
      </trkpt>
      <trkpt lat="44.45653" lon="6.51893">
        <ele>2508</ele>
        <time>2021-02-21T07:00:14Z</time>
      </trkpt>
      <trkpt lat="44.45653" lon="6.51893">
        <ele>2508</ele>
        <time>2021-02-21T07:00:15Z</time>
      </trkpt>
      <trkpt lat="44.45654" lon="6.51893">
        <ele>2508</ele>
        <time>2021-02-21T07:00:16Z</time>
      </trkpt>
      <trkpt lat="44.45653" lon="6.51893">
        <ele>2509</ele>
        <time>2021-02-21T07:00:17Z</time>
      </trkpt>
      <trkpt lat="44.45653" lon="6.51894">
        <ele>2509</ele>
        <time>2021-02-21T07:00:18Z</time>
      </trkpt>
      <trkpt lat="44.45653" lon="6.51895">
        <ele>2509</ele>
        <time>2021-02-21T07:00:19Z</time>
      </trkpt>
      <trkpt lat="44.45653" lon="6.51895">
        <ele>2509</ele>
        <time>2021-02-21T07:00:20Z</time>
      </trkpt>
      <trkpt lat="44.45652" lon="6.51896">
        <ele>2509</ele>
        <time>2021-02-21T07:00:21Z</time>
      </trkpt>
      <trkpt lat="44.45651" lon="6.51896">
        <ele>2509</ele>
        <time>2021-02-21T07:00:22Z</time>
      </trkpt>
      <trkpt lat="44.45651" lon="6.51896">
        <ele>2509</ele>
        <time>2021-02-21T07:00:23Z</time>
      </trkpt>
      <trkpt lat="44.45651" lon="6.51896">
        <ele>2509</ele>
        <time>2021-02-21T07:00:24Z</time>
      </trkpt>
      <trkpt lat="44.45651" lon="6.51897">
        <ele>2509</ele>
        <time>2021-02-21T07:00:25Z</time>
      </trkpt>
      <trkpt lat="44.45651" lon="6.51897">
        <ele>2509</ele>
        <time>2021-02-21T07:00:26Z</time>
      </trkpt>
      <trkpt lat="44.45651" lon="6.51896">
        <ele>2509</ele>
        <time>2021-02-21T07:00:27Z</time>
      </trkpt>
      <trkpt lat="44.45651" lon="6.51896">
        <ele>2509</ele>
        <time>2021-02-21T07:00:28Z</time>
      </trkpt>
      <trkpt lat="44.45651" lon="6.51896">
        <ele>2509</ele>
        <time>2021-02-21T07:00:29Z</time>
      </trkpt>
      <trkpt lat="44.45651" lon="6.51896">
        <ele>2510</ele>
        <time>2021-02-21T07:00:30Z</time>
      </trkpt>
      <trkpt lat="44.45651" lon="6.51896">
        <ele>2510</ele>
        <time>2021-02-21T07:00:31Z</time>
      </trkpt>
      <trkpt lat="44.45651" lon="6.51896">
        <ele>2510</ele>
        <time>2021-02-21T07:00:32Z</time>
      </trkpt>
      <trkpt lat="44.45651" lon="6.51896">
        <ele>2510</ele>
        <time>2021-02-21T07:00:33Z</time>
      </trkpt>
      <trkpt lat="44.45651" lon="6.51896">
        <ele>2510</ele>
        <time>2021-02-21T07:00:34Z</time>
      </trkpt>
      <trkpt lat="44.45651" lon="6.51896">
        <ele>2510</ele>
        <time>2021-02-21T07:00:35Z</time>
      </trkpt>
      <trkpt lat="44.45651" lon="6.51896">
        <ele>2510</ele>
        <time>2021-02-21T07:00:36Z</time>
      </trkpt>
      <trkpt lat="44.45651" lon="6.51896">
        <ele>2510</ele>
        <time>2021-02-21T07:00:37Z</time>
      </trkpt>
      <trkpt lat="44.45651" lon="6.51896">
        <ele>2510</ele>
        <time>2021-02-21T07:00:38Z</time>
      </trkpt>
      <trkpt lat="44.45651" lon="6.51896">
        <ele>2510</ele>
        <time>2021-02-21T07:00:39Z</time>
      </trkpt>
      <trkpt lat="44.45651" lon="6.51896">
        <ele>2510</ele>
        <time>2021-02-21T07:00:40Z</time>
      </trkpt>
      <trkpt lat="44.45651" lon="6.51896">
        <ele>2510</ele>
        <time>2021-02-21T07:00:41Z</time>
      </trkpt>
      <trkpt lat="44.45651" lon="6.51896">
        <ele>2510</ele>
        <time>2021-02-21T07:00:42Z</time>
      </trkpt>
      <trkpt lat="44.45651" lon="6.51896">
        <ele>2510</ele>
        <time>2021-02-21T07:00:43Z</time>
      </trkpt>
      <trkpt lat="44.45654" lon="6.51894">
        <ele>2510</ele>
        <time>2021-02-21T07:00:44Z</time>
      </trkpt>
      <trkpt lat="44.45653" lon="6.51894">
        <ele>2510</ele>
        <time>2021-02-21T07:00:45Z</time>
      </trkpt>
      <trkpt lat="44.45653" lon="6.51894">
        <ele>2510</ele>
        <time>2021-02-21T07:00:46Z</time>
      </trkpt>
      <trkpt lat="44.45654" lon="6.51894">
        <ele>2510</ele>
        <time>2021-02-21T07:00:47Z</time>
      </trkpt>
      <trkpt lat="44.45654" lon="6.51892">
        <ele>2510</ele>
        <time>2021-02-21T07:00:48Z</time>
      </trkpt>
      <trkpt lat="44.45655" lon="6.51891">
        <ele>2510</ele>
        <time>2021-02-21T07:00:49Z</time>
      </trkpt>
      <trkpt lat="44.45655" lon="6.51891">
        <ele>2510</ele>
        <time>2021-02-21T07:00:50Z</time>
      </trkpt>
      <trkpt lat="44.45655" lon="6.51891">
        <ele>2510</ele>
        <time>2021-02-21T07:00:51Z</time>
      </trkpt>
      <trkpt lat="44.45655" lon="6.51891">
        <ele>2510</ele>
        <time>2021-02-21T07:00:52Z</time>
      </trkpt>
      <trkpt lat="44.45655" lon="6.5189">
        <ele>2510</ele>
        <time>2021-02-21T07:00:53Z</time>
      </trkpt>
      <trkpt lat="44.45655" lon="6.51889">
        <ele>2510</ele>
        <time>2021-02-21T07:00:54Z</time>
      </trkpt>
      <trkpt lat="44.45655" lon="6.51888">
        <ele>2510</ele>
        <time>2021-02-21T07:00:55Z</time>
      </trkpt>
      <trkpt lat="44.45654" lon="6.51887">
        <ele>2510</ele>
        <time>2021-02-21T07:00:56Z</time>
      </trkpt>
      <trkpt lat="44.45654" lon="6.51886">
        <ele>2510</ele>
        <time>2021-02-21T07:00:57Z</time>
      </trkpt>
      <trkpt lat="44.45653" lon="6.51885">
        <ele>2510</ele>
        <time>2021-02-21T07:00:58Z</time>
      </trkpt>
      <trkpt lat="44.45654" lon="6.51884">
        <ele>2510</ele>
        <time>2021-02-21T07:00:59Z</time>
      </trkpt>
      <trkpt lat="44.45655" lon="6.51886">
        <ele>2510</ele>
        <time>2021-02-21T07:01:00Z</time>
      </trkpt>
      <trkpt lat="44.45655" lon="6.51887">
        <ele>2510</ele>
        <time>2021-02-21T07:01:01Z</time>
      </trkpt>
      <trkpt lat="44.45654" lon="6.51887">
        <ele>2510</ele>
        <time>2021-02-21T07:01:02Z</time>
      </trkpt>
      <trkpt lat="44.45654" lon="6.51887">
        <ele>2510</ele>
        <time>2021-02-21T07:01:03Z</time>
      </trkpt>
      <trkpt lat="44.45655" lon="6.51888">
        <ele>2510</ele>
        <time>2021-02-21T07:01:04Z</time>
      </trkpt>
      <trkpt lat="44.45654" lon="6.51888">
        <ele>2510</ele>
        <time>2021-02-21T07:01:05Z</time>
      </trkpt>
      <trkpt lat="44.45655" lon="6.51888">
        <ele>2510</ele>
        <time>2021-02-21T07:01:06Z</time>
      </trkpt>
      <trkpt lat="44.45655" lon="6.51888">
        <ele>2510</ele>
        <time>2021-02-21T07:01:07Z</time>
      </trkpt>
      <trkpt lat="44.45655" lon="6.51888">
        <ele>2510</ele>
        <time>2021-02-21T07:01:08Z</time>
      </trkpt>
      <trkpt lat="44.45655" lon="6.51888">
        <ele>2510</ele>
        <time>2021-02-21T07:01:09Z</time>
      </trkpt>
      <trkpt lat="44.45655" lon="6.51888">
        <ele>2510</ele>
        <time>2021-02-21T07:01:10Z</time>
      </trkpt>
      <trkpt lat="44.45655" lon="6.51888">
        <ele>2510</ele>
        <time>2021-02-21T07:01:11Z</time>
      </trkpt>
      <trkpt lat="44.45655" lon="6.51888">
        <ele>2510</ele>
        <time>2021-02-21T07:01:12Z</time>
      </trkpt>
      <trkpt lat="44.45655" lon="6.51888">
        <ele>2510</ele>
        <time>2021-02-21T07:01:13Z</time>
      </trkpt>
      <trkpt lat="44.45655" lon="6.51888">
        <ele>2510</ele>
        <time>2021-02-21T07:01:14Z</time>
      </trkpt>
      <trkpt lat="44.45655" lon="6.51888">
        <ele>2510</ele>
        <time>2021-02-21T07:01:15Z</time>
      </trkpt>
      <trkpt lat="44.45655" lon="6.51888">
        <ele>2510</ele>
        <time>2021-02-21T07:01:16Z</time>
      </trkpt>
      <trkpt lat="44.45655" lon="6.51888">
        <ele>2510</ele>
        <time>2021-02-21T07:01:17Z</time>
      </trkpt>
      <trkpt lat="44.45655" lon="6.51888">
        <ele>2510</ele>
        <time>2021-02-21T07:01:18Z</time>
      </trkpt>
      <trkpt lat="44.45655" lon="6.51888">
        <ele>2510</ele>
        <time>2021-02-21T07:01:19Z</time>
      </trkpt>
      <trkpt lat="44.45655" lon="6.5189">
        <ele>2510</ele>
        <time>2021-02-21T07:01:20Z</time>
      </trkpt>
      <trkpt lat="44.45655" lon="6.5189">
        <ele>2510</ele>
        <time>2021-02-21T07:01:21Z</time>
      </trkpt>
      <trkpt lat="44.45656" lon="6.51889">
        <ele>2510</ele>
        <time>2021-02-21T07:01:22Z</time>
      </trkpt>
      <trkpt lat="44.45656" lon="6.51889">
        <ele>2510</ele>
        <time>2021-02-21T07:01:23Z</time>
      </trkpt>
      <trkpt lat="44.45656" lon="6.51889">
        <ele>2511</ele>
        <time>2021-02-21T07:01:24Z</time>
      </trkpt>
      <trkpt lat="44.45656" lon="6.51889">
        <ele>2511</ele>
        <time>2021-02-21T07:01:25Z</time>
      </trkpt>
      <trkpt lat="44.45656" lon="6.51889">
        <ele>2511</ele>
        <time>2021-02-21T07:01:26Z</time>
      </trkpt>
      <trkpt lat="44.45656" lon="6.51889">
        <ele>2511</ele>
        <time>2021-02-21T07:01:27Z</time>
      </trkpt>
      <trkpt lat="44.45656" lon="6.51889">
        <ele>2511</ele>
        <time>2021-02-21T07:01:28Z</time>
      </trkpt>
      <trkpt lat="44.45656" lon="6.51889">
        <ele>2511</ele>
        <time>2021-02-21T07:01:29Z</time>
      </trkpt>
      <trkpt lat="44.45656" lon="6.51889">
        <ele>2511</ele>
        <time>2021-02-21T07:01:30Z</time>
      </trkpt>
      <trkpt lat="44.45656" lon="6.51889">
        <ele>2511</ele>
        <time>2021-02-21T07:01:31Z</time>
      </trkpt>
      <trkpt lat="44.45656" lon="6.51889">
        <ele>2511</ele>
        <time>2021-02-21T07:01:32Z</time>
      </trkpt>
      <trkpt lat="44.45656" lon="6.51889">
        <ele>2511</ele>
        <time>2021-02-21T07:01:33Z</time>
      </trkpt>
      <trkpt lat="44.45656" lon="6.51889">
        <ele>2511</ele>
        <time>2021-02-21T07:01:34Z</time>
      </trkpt>
      <trkpt lat="44.45656" lon="6.51889">
        <ele>2511</ele>
        <time>2021-02-21T07:01:35Z</time>
      </trkpt>
      <trkpt lat="44.45656" lon="6.51889">
        <ele>2511</ele>
        <time>2021-02-21T07:01:36Z</time>
      </trkpt>
      <trkpt lat="44.45656" lon="6.51889">
        <ele>2511</ele>
        <time>2021-02-21T07:01:37Z</time>
      </trkpt>
      <trkpt lat="44.45656" lon="6.51889">
        <ele>2511</ele>
        <time>2021-02-21T07:01:38Z</time>
      </trkpt>
      <trkpt lat="44.45656" lon="6.51889">
        <ele>2511</ele>
        <time>2021-02-21T07:01:39Z</time>
      </trkpt>
      <trkpt lat="44.45656" lon="6.51889">
        <ele>2511</ele>
        <time>2021-02-21T07:01:40Z</time>
      </trkpt>
      <trkpt lat="44.45656" lon="6.51889">
        <ele>2511</ele>
        <time>2021-02-21T07:01:41Z</time>
      </trkpt>
      <trkpt lat="44.45656" lon="6.51889">
        <ele>2511</ele>
        <time>2021-02-21T07:01:42Z</time>
      </trkpt>
      <trkpt lat="44.45656" lon="6.51889">
        <ele>2511</ele>
        <time>2021-02-21T07:01:43Z</time>
      </trkpt>
      <trkpt lat="44.45656" lon="6.51889">
        <ele>2511</ele>
        <time>2021-02-21T07:01:44Z</time>
      </trkpt>
      <trkpt lat="44.45656" lon="6.51889">
        <ele>2511</ele>
        <time>2021-02-21T07:01:45Z</time>
      </trkpt>
      <trkpt lat="44.45656" lon="6.51889">
        <ele>2511</ele>
        <time>2021-02-21T07:01:46Z</time>
      </trkpt>
      <trkpt lat="44.45656" lon="6.51889">
        <ele>2511</ele>
        <time>2021-02-21T07:01:47Z</time>
      </trkpt>
      <trkpt lat="44.45656" lon="6.51889">
        <ele>2511</ele>
        <time>2021-02-21T07:01:48Z</time>
      </trkpt>
      <trkpt lat="44.45656" lon="6.51889">
        <ele>2511</ele>
        <time>2021-02-21T07:01:49Z</time>
      </trkpt>
      <trkpt lat="44.45656" lon="6.51889">
        <ele>2511</ele>
        <time>2021-02-21T07:01:50Z</time>
      </trkpt>
      <trkpt lat="44.45656" lon="6.51889">
        <ele>2512</ele>
        <time>2021-02-21T07:01:51Z</time>
      </trkpt>
      <trkpt lat="44.45656" lon="6.51889">
        <ele>2512</ele>
        <time>2021-02-21T07:01:52Z</time>
      </trkpt>
      <trkpt lat="44.45656" lon="6.51889">
        <ele>2512</ele>
        <time>2021-02-21T07:01:53Z</time>
      </trkpt>
      <trkpt lat="44.45656" lon="6.51889">
        <ele>2512</ele>
        <time>2021-02-21T07:01:54Z</time>
      </trkpt>
      <trkpt lat="44.45656" lon="6.51889">
        <ele>2512</ele>
        <time>2021-02-21T07:01:55Z</time>
      </trkpt>
      <trkpt lat="44.45656" lon="6.51889">
        <ele>2512</ele>
        <time>2021-02-21T07:01:56Z</time>
      </trkpt>
      <trkpt lat="44.45656" lon="6.51889">
        <ele>2512</ele>
        <time>2021-02-21T07:01:57Z</time>
      </trkpt>
      <trkpt lat="44.45656" lon="6.51889">
        <ele>2512</ele>
        <time>2021-02-21T07:01:58Z</time>
      </trkpt>
      <trkpt lat="44.45656" lon="6.51889">
        <ele>2512</ele>
        <time>2021-02-21T07:01:59Z</time>
      </trkpt>
      <trkpt lat="44.45656" lon="6.51889">
        <ele>2512</ele>
        <time>2021-02-21T07:02:00Z</time>
      </trkpt>
      <trkpt lat="44.45656" lon="6.51889">
        <ele>2512</ele>
        <time>2021-02-21T07:02:01Z</time>
      </trkpt>
      <trkpt lat="44.45656" lon="6.51889">
        <ele>2512</ele>
        <time>2021-02-21T07:02:02Z</time>
      </trkpt>
      <trkpt lat="44.45656" lon="6.51889">
        <ele>2512</ele>
        <time>2021-02-21T07:02:03Z</time>
      </trkpt>
      <trkpt lat="44.45656" lon="6.51889">
        <ele>2512</ele>
        <time>2021-02-21T07:02:04Z</time>
      </trkpt>
      <trkpt lat="44.45656" lon="6.51889">
        <ele>2512</ele>
        <time>2021-02-21T07:02:05Z</time>
      </trkpt>
      <trkpt lat="44.45656" lon="6.51889">
        <ele>2512</ele>
        <time>2021-02-21T07:02:06Z</time>
      </trkpt>
      <trkpt lat="44.45656" lon="6.51889">
        <ele>2512</ele>
        <time>2021-02-21T07:02:07Z</time>
      </trkpt>
      <trkpt lat="44.45656" lon="6.51889">
        <ele>2512</ele>
        <time>2021-02-21T07:02:08Z</time>
      </trkpt>
      <trkpt lat="44.45656" lon="6.51889">
        <ele>2512</ele>
        <time>2021-02-21T07:02:09Z</time>
      </trkpt>
      <trkpt lat="44.45656" lon="6.51889">
        <ele>2512</ele>
        <time>2021-02-21T07:02:10Z</time>
      </trkpt>
      <trkpt lat="44.45656" lon="6.51889">
        <ele>2512</ele>
        <time>2021-02-21T07:02:11Z</time>
      </trkpt>
      <trkpt lat="44.45656" lon="6.51889">
        <ele>2512</ele>
        <time>2021-02-21T07:02:12Z</time>
      </trkpt>
      <trkpt lat="44.45656" lon="6.51889">
        <ele>2512</ele>
        <time>2021-02-21T07:02:13Z</time>
      </trkpt>
      <trkpt lat="44.45656" lon="6.51889">
        <ele>2512</ele>
        <time>2021-02-21T07:02:14Z</time>
      </trkpt>
      <trkpt lat="44.45656" lon="6.51889">
        <ele>2512</ele>
        <time>2021-02-21T07:02:15Z</time>
      </trkpt>
      <trkpt lat="44.45656" lon="6.51889">
        <ele>2512</ele>
        <time>2021-02-21T07:02:16Z</time>
      </trkpt>
      <trkpt lat="44.45656" lon="6.51889">
        <ele>2512</ele>
        <time>2021-02-21T07:02:17Z</time>
      </trkpt>
      <trkpt lat="44.45656" lon="6.51889">
        <ele>2512</ele>
        <time>2021-02-21T07:02:18Z</time>
      </trkpt>
      <trkpt lat="44.45656" lon="6.51889">
        <ele>2512</ele>
        <time>2021-02-21T07:02:19Z</time>
      </trkpt>
      <trkpt lat="44.45656" lon="6.51889">
        <ele>2512</ele>
        <time>2021-02-21T07:02:20Z</time>
      </trkpt>
      <trkpt lat="44.45659" lon="6.51888">
        <ele>2513</ele>
        <time>2021-02-21T07:02:21Z</time>
      </trkpt>
      <trkpt lat="44.45659" lon="6.51888">
        <ele>2513</ele>
        <time>2021-02-21T07:02:22Z</time>
      </trkpt>
      <trkpt lat="44.4566" lon="6.51888">
        <ele>2514</ele>
        <time>2021-02-21T07:02:23Z</time>
      </trkpt>
      <trkpt lat="44.45661" lon="6.51889">
        <ele>2514</ele>
        <time>2021-02-21T07:02:24Z</time>
      </trkpt>
      <trkpt lat="44.45661" lon="6.51888">
        <ele>2514</ele>
        <time>2021-02-21T07:02:25Z</time>
      </trkpt>
      <trkpt lat="44.45661" lon="6.51888">
        <ele>2514</ele>
        <time>2021-02-21T07:02:26Z</time>
      </trkpt>
      <trkpt lat="44.45661" lon="6.51888">
        <ele>2514</ele>
        <time>2021-02-21T07:02:27Z</time>
      </trkpt>
      <trkpt lat="44.45661" lon="6.51888">
        <ele>2514</ele>
        <time>2021-02-21T07:02:28Z</time>
      </trkpt>
      <trkpt lat="44.45661" lon="6.51888">
        <ele>2514</ele>
        <time>2021-02-21T07:02:29Z</time>
      </trkpt>
      <trkpt lat="44.45661" lon="6.51888">
        <ele>2514</ele>
        <time>2021-02-21T07:02:30Z</time>
      </trkpt>
      <trkpt lat="44.45661" lon="6.51888">
        <ele>2514</ele>
        <time>2021-02-21T07:02:31Z</time>
      </trkpt>
      <trkpt lat="44.45661" lon="6.51888">
        <ele>2514</ele>
        <time>2021-02-21T07:02:32Z</time>
      </trkpt>
      <trkpt lat="44.4566" lon="6.51888">
        <ele>2514</ele>
        <time>2021-02-21T07:02:33Z</time>
      </trkpt>
      <trkpt lat="44.4566" lon="6.51888">
        <ele>2514</ele>
        <time>2021-02-21T07:02:34Z</time>
      </trkpt>
      <trkpt lat="44.45659" lon="6.51888">
        <ele>2514</ele>
        <time>2021-02-21T07:02:35Z</time>
      </trkpt>
      <trkpt lat="44.45659" lon="6.51888">
        <ele>2514</ele>
        <time>2021-02-21T07:02:36Z</time>
      </trkpt>
      <trkpt lat="44.45659" lon="6.51888">
        <ele>2514</ele>
        <time>2021-02-21T07:02:37Z</time>
      </trkpt>
      <trkpt lat="44.45659" lon="6.51888">
        <ele>2514</ele>
        <time>2021-02-21T07:02:38Z</time>
      </trkpt>
      <trkpt lat="44.45659" lon="6.51888">
        <ele>2514</ele>
        <time>2021-02-21T07:02:39Z</time>
      </trkpt>
      <trkpt lat="44.45659" lon="6.51888">
        <ele>2514</ele>
        <time>2021-02-21T07:02:40Z</time>
      </trkpt>
      <trkpt lat="44.45659" lon="6.51888">
        <ele>2514</ele>
        <time>2021-02-21T07:02:41Z</time>
      </trkpt>
      <trkpt lat="44.45659" lon="6.51888">
        <ele>2514</ele>
        <time>2021-02-21T07:02:42Z</time>
      </trkpt>
      <trkpt lat="44.45659" lon="6.51888">
        <ele>2514</ele>
        <time>2021-02-21T07:02:43Z</time>
      </trkpt>
      <trkpt lat="44.45658" lon="6.51888">
        <ele>2514</ele>
        <time>2021-02-21T07:02:44Z</time>
      </trkpt>
      <trkpt lat="44.45657" lon="6.51888">
        <ele>2515</ele>
        <time>2021-02-21T07:02:45Z</time>
      </trkpt>
      <trkpt lat="44.45657" lon="6.51888">
        <ele>2515</ele>
        <time>2021-02-21T07:02:46Z</time>
      </trkpt>
      <trkpt lat="44.45649" lon="6.51888">
        <ele>2517</ele>
        <time>2021-02-21T07:02:47Z</time>
      </trkpt>
      <trkpt lat="44.45648" lon="6.51888">
        <ele>2517</ele>
        <time>2021-02-21T07:02:48Z</time>
      </trkpt>
      <trkpt lat="44.45647" lon="6.5189">
        <ele>2518</ele>
        <time>2021-02-21T07:02:49Z</time>
      </trkpt>
      <trkpt lat="44.45647" lon="6.51891">
        <ele>2520</ele>
        <time>2021-02-21T07:02:50Z</time>
      </trkpt>
      <trkpt lat="44.45647" lon="6.51892">
        <ele>2521</ele>
        <time>2021-02-21T07:02:51Z</time>
      </trkpt>
      <trkpt lat="44.45647" lon="6.51893">
        <ele>2521</ele>
        <time>2021-02-21T07:02:52Z</time>
      </trkpt>
      <trkpt lat="44.45647" lon="6.51894">
        <ele>2521</ele>
        <time>2021-02-21T07:02:53Z</time>
      </trkpt>
      <trkpt lat="44.45647" lon="6.51893">
        <ele>2521</ele>
        <time>2021-02-21T07:02:54Z</time>
      </trkpt>
      <trkpt lat="44.45647" lon="6.51893">
        <ele>2522</ele>
        <time>2021-02-21T07:02:55Z</time>
      </trkpt>
      <trkpt lat="44.45647" lon="6.51892">
        <ele>2522</ele>
        <time>2021-02-21T07:02:56Z</time>
      </trkpt>
      <trkpt lat="44.45646" lon="6.51892">
        <ele>2522</ele>
        <time>2021-02-21T07:02:57Z</time>
      </trkpt>
      <trkpt lat="44.45646" lon="6.51892">
        <ele>2522</ele>
        <time>2021-02-21T07:02:58Z</time>
      </trkpt>
      <trkpt lat="44.45647" lon="6.51891">
        <ele>2522</ele>
        <time>2021-02-21T07:02:59Z</time>
      </trkpt>
      <trkpt lat="44.45647" lon="6.51891">
        <ele>2522</ele>
        <time>2021-02-21T07:03:00Z</time>
      </trkpt>
      <trkpt lat="44.45647" lon="6.51891">
        <ele>2522</ele>
        <time>2021-02-21T07:03:01Z</time>
      </trkpt>
      <trkpt lat="44.45647" lon="6.51891">
        <ele>2522</ele>
        <time>2021-02-21T07:03:02Z</time>
      </trkpt>
      <trkpt lat="44.45647" lon="6.51891">
        <ele>2523</ele>
        <time>2021-02-21T07:03:03Z</time>
      </trkpt>
      <trkpt lat="44.45647" lon="6.51891">
        <ele>2523</ele>
        <time>2021-02-21T07:03:04Z</time>
      </trkpt>
      <trkpt lat="44.45647" lon="6.51891">
        <ele>2523</ele>
        <time>2021-02-21T07:03:05Z</time>
      </trkpt>
      <trkpt lat="44.45647" lon="6.51891">
        <ele>2523</ele>
        <time>2021-02-21T07:03:06Z</time>
      </trkpt>
      <trkpt lat="44.45647" lon="6.51891">
        <ele>2523</ele>
        <time>2021-02-21T07:03:07Z</time>
      </trkpt>
      <trkpt lat="44.45647" lon="6.51891">
        <ele>2523</ele>
        <time>2021-02-21T07:03:08Z</time>
      </trkpt>
      <trkpt lat="44.45647" lon="6.51891">
        <ele>2523</ele>
        <time>2021-02-21T07:03:09Z</time>
      </trkpt>
      <trkpt lat="44.45647" lon="6.51891">
        <ele>2523</ele>
        <time>2021-02-21T07:03:10Z</time>
      </trkpt>
      <trkpt lat="44.45647" lon="6.51891">
        <ele>2523</ele>
        <time>2021-02-21T07:03:11Z</time>
      </trkpt>
      <trkpt lat="44.45647" lon="6.51891">
        <ele>2523</ele>
        <time>2021-02-21T07:03:12Z</time>
      </trkpt>
      <trkpt lat="44.45647" lon="6.51891">
        <ele>2523</ele>
        <time>2021-02-21T07:03:13Z</time>
      </trkpt>
      <trkpt lat="44.45647" lon="6.51891">
        <ele>2523</ele>
        <time>2021-02-21T07:03:14Z</time>
      </trkpt>
      <trkpt lat="44.45647" lon="6.51891">
        <ele>2523</ele>
        <time>2021-02-21T07:03:15Z</time>
      </trkpt>
      <trkpt lat="44.45647" lon="6.51891">
        <ele>2523</ele>
        <time>2021-02-21T07:03:16Z</time>
      </trkpt>
      <trkpt lat="44.45647" lon="6.51891">
        <ele>2523</ele>
        <time>2021-02-21T07:03:17Z</time>
      </trkpt>
      <trkpt lat="44.45647" lon="6.51891">
        <ele>2523</ele>
        <time>2021-02-21T07:03:18Z</time>
      </trkpt>
      <trkpt lat="44.45647" lon="6.51891">
        <ele>2523</ele>
        <time>2021-02-21T07:03:19Z</time>
      </trkpt>
      <trkpt lat="44.45647" lon="6.51891">
        <ele>2523</ele>
        <time>2021-02-21T07:03:20Z</time>
      </trkpt>
      <trkpt lat="44.45647" lon="6.51891">
        <ele>2523</ele>
        <time>2021-02-21T07:03:21Z</time>
      </trkpt>
      <trkpt lat="44.45647" lon="6.51891">
        <ele>2523</ele>
        <time>2021-02-21T07:03:22Z</time>
      </trkpt>
      <trkpt lat="44.45649" lon="6.51883">
        <ele>2524</ele>
        <time>2021-02-21T07:03:23Z</time>
      </trkpt>
      <trkpt lat="44.45649" lon="6.51883">
        <ele>2524</ele>
        <time>2021-02-21T07:03:24Z</time>
      </trkpt>
      <trkpt lat="44.45649" lon="6.51883">
        <ele>2524</ele>
        <time>2021-02-21T07:03:25Z</time>
      </trkpt>
      <trkpt lat="44.4565" lon="6.51883">
        <ele>2525</ele>
        <time>2021-02-21T07:03:26Z</time>
      </trkpt>
      <trkpt lat="44.4565" lon="6.51883">
        <ele>2525</ele>
        <time>2021-02-21T07:03:27Z</time>
      </trkpt>
      <trkpt lat="44.4565" lon="6.51883">
        <ele>2525</ele>
        <time>2021-02-21T07:03:28Z</time>
      </trkpt>
      <trkpt lat="44.4565" lon="6.51883">
        <ele>2525</ele>
        <time>2021-02-21T07:03:29Z</time>
      </trkpt>
      <trkpt lat="44.4565" lon="6.51883">
        <ele>2525</ele>
        <time>2021-02-21T07:03:30Z</time>
      </trkpt>
      <trkpt lat="44.4565" lon="6.51883">
        <ele>2525</ele>
        <time>2021-02-21T07:03:31Z</time>
      </trkpt>
      <trkpt lat="44.4565" lon="6.51883">
        <ele>2525</ele>
        <time>2021-02-21T07:03:32Z</time>
      </trkpt>
      <trkpt lat="44.4565" lon="6.51883">
        <ele>2525</ele>
        <time>2021-02-21T07:03:33Z</time>
      </trkpt>
      <trkpt lat="44.4565" lon="6.51883">
        <ele>2525</ele>
        <time>2021-02-21T07:03:34Z</time>
      </trkpt>
      <trkpt lat="44.4565" lon="6.51883">
        <ele>2525</ele>
        <time>2021-02-21T07:03:35Z</time>
      </trkpt>
      <trkpt lat="44.4565" lon="6.51883">
        <ele>2525</ele>
        <time>2021-02-21T07:03:36Z</time>
      </trkpt>
      <trkpt lat="44.4565" lon="6.51883">
        <ele>2525</ele>
        <time>2021-02-21T07:03:37Z</time>
      </trkpt>
      <trkpt lat="44.4565" lon="6.51883">
        <ele>2525</ele>
        <time>2021-02-21T07:03:38Z</time>
      </trkpt>
      <trkpt lat="44.4565" lon="6.51883">
        <ele>2525</ele>
        <time>2021-02-21T07:03:39Z</time>
      </trkpt>
      <trkpt lat="44.4565" lon="6.51883">
        <ele>2525</ele>
        <time>2021-02-21T07:03:40Z</time>
      </trkpt>
      <trkpt lat="44.4565" lon="6.51883">
        <ele>2525</ele>
        <time>2021-02-21T07:03:41Z</time>
      </trkpt>
      <trkpt lat="44.4565" lon="6.51883">
        <ele>2525</ele>
        <time>2021-02-21T07:03:42Z</time>
      </trkpt>
      <trkpt lat="44.4565" lon="6.51883">
        <ele>2525</ele>
        <time>2021-02-21T07:03:43Z</time>
      </trkpt>
      <trkpt lat="44.4565" lon="6.51883">
        <ele>2525</ele>
        <time>2021-02-21T07:03:44Z</time>
      </trkpt>
      <trkpt lat="44.4565" lon="6.51883">
        <ele>2525</ele>
        <time>2021-02-21T07:03:45Z</time>
      </trkpt>
      <trkpt lat="44.4565" lon="6.51883">
        <ele>2525</ele>
        <time>2021-02-21T07:03:46Z</time>
      </trkpt>
      <trkpt lat="44.4565" lon="6.51883">
        <ele>2525</ele>
        <time>2021-02-21T07:03:47Z</time>
      </trkpt>
      <trkpt lat="44.4565" lon="6.51883">
        <ele>2525</ele>
        <time>2021-02-21T07:03:48Z</time>
      </trkpt>
      <trkpt lat="44.4565" lon="6.51883">
        <ele>2525</ele>
        <time>2021-02-21T07:03:49Z</time>
      </trkpt>
      <trkpt lat="44.4565" lon="6.51883">
        <ele>2525</ele>
        <time>2021-02-21T07:03:50Z</time>
      </trkpt>
      <trkpt lat="44.4565" lon="6.51883">
        <ele>2525</ele>
        <time>2021-02-21T07:03:51Z</time>
      </trkpt>
      <trkpt lat="44.4565" lon="6.51883">
        <ele>2525</ele>
        <time>2021-02-21T07:03:52Z</time>
      </trkpt>
      <trkpt lat="44.4565" lon="6.51883">
        <ele>2525</ele>
        <time>2021-02-21T07:03:53Z</time>
      </trkpt>
      <trkpt lat="44.4565" lon="6.51883">
        <ele>2525</ele>
        <time>2021-02-21T07:03:54Z</time>
      </trkpt>
      <trkpt lat="44.4565" lon="6.51883">
        <ele>2525</ele>
        <time>2021-02-21T07:03:55Z</time>
      </trkpt>
      <trkpt lat="44.4565" lon="6.51883">
        <ele>2525</ele>
        <time>2021-02-21T07:03:56Z</time>
      </trkpt>
      <trkpt lat="44.4565" lon="6.51883">
        <ele>2525</ele>
        <time>2021-02-21T07:03:57Z</time>
      </trkpt>
      <trkpt lat="44.4565" lon="6.51883">
        <ele>2525</ele>
        <time>2021-02-21T07:03:58Z</time>
      </trkpt>
      <trkpt lat="44.4565" lon="6.51883">
        <ele>2525</ele>
        <time>2021-02-21T07:03:59Z</time>
      </trkpt>
      <trkpt lat="44.4565" lon="6.51883">
        <ele>2525</ele>
        <time>2021-02-21T07:04:00Z</time>
      </trkpt>
      <trkpt lat="44.4565" lon="6.51883">
        <ele>2525</ele>
        <time>2021-02-21T07:04:01Z</time>
      </trkpt>
      <trkpt lat="44.4565" lon="6.51883">
        <ele>2525</ele>
        <time>2021-02-21T07:04:02Z</time>
      </trkpt>
      <trkpt lat="44.4565" lon="6.51883">
        <ele>2525</ele>
        <time>2021-02-21T07:04:03Z</time>
      </trkpt>
      <trkpt lat="44.4565" lon="6.51883">
        <ele>2525</ele>
        <time>2021-02-21T07:04:04Z</time>
      </trkpt>
      <trkpt lat="44.4565" lon="6.51883">
        <ele>2525</ele>
        <time>2021-02-21T07:04:05Z</time>
      </trkpt>
      <trkpt lat="44.4565" lon="6.51883">
        <ele>2525</ele>
        <time>2021-02-21T07:04:06Z</time>
      </trkpt>
      <trkpt lat="44.4565" lon="6.51883">
        <ele>2525</ele>
        <time>2021-02-21T07:04:07Z</time>
      </trkpt>
      <trkpt lat="44.4565" lon="6.51883">
        <ele>2525</ele>
        <time>2021-02-21T07:04:08Z</time>
      </trkpt>
      <trkpt lat="44.4565" lon="6.51883">
        <ele>2525</ele>
        <time>2021-02-21T07:04:09Z</time>
      </trkpt>
      <trkpt lat="44.4565" lon="6.51883">
        <ele>2525</ele>
        <time>2021-02-21T07:04:10Z</time>
      </trkpt>
      <trkpt lat="44.4565" lon="6.51883">
        <ele>2525</ele>
        <time>2021-02-21T07:04:11Z</time>
      </trkpt>
      <trkpt lat="44.4565" lon="6.51883">
        <ele>2525</ele>
        <time>2021-02-21T07:04:12Z</time>
      </trkpt>
      <trkpt lat="44.4565" lon="6.51883">
        <ele>2525</ele>
        <time>2021-02-21T07:04:13Z</time>
      </trkpt>
      <trkpt lat="44.4565" lon="6.51883">
        <ele>2525</ele>
        <time>2021-02-21T07:04:14Z</time>
      </trkpt>
      <trkpt lat="44.4565" lon="6.51883">
        <ele>2525</ele>
        <time>2021-02-21T07:04:15Z</time>
      </trkpt>
      <trkpt lat="44.4565" lon="6.51883">
        <ele>2525</ele>
        <time>2021-02-21T07:04:16Z</time>
      </trkpt>
      <trkpt lat="44.4565" lon="6.51883">
        <ele>2525</ele>
        <time>2021-02-21T07:04:17Z</time>
      </trkpt>
      <trkpt lat="44.4565" lon="6.51883">
        <ele>2525</ele>
        <time>2021-02-21T07:04:18Z</time>
      </trkpt>
      <trkpt lat="44.4565" lon="6.51883">
        <ele>2525</ele>
        <time>2021-02-21T07:04:19Z</time>
      </trkpt>
      <trkpt lat="44.4565" lon="6.51883">
        <ele>2525</ele>
        <time>2021-02-21T07:04:20Z</time>
      </trkpt>
      <trkpt lat="44.4565" lon="6.51883">
        <ele>2525</ele>
        <time>2021-02-21T07:04:21Z</time>
      </trkpt>
      <trkpt lat="44.45652" lon="6.51888">
        <ele>2524</ele>
        <time>2021-02-21T07:04:22Z</time>
      </trkpt>
      <trkpt lat="44.45651" lon="6.51888">
        <ele>2524</ele>
        <time>2021-02-21T07:04:23Z</time>
      </trkpt>
      <trkpt lat="44.45651" lon="6.51888">
        <ele>2524</ele>
        <time>2021-02-21T07:04:24Z</time>
      </trkpt>
      <trkpt lat="44.45651" lon="6.51889">
        <ele>2523</ele>
        <time>2021-02-21T07:04:25Z</time>
      </trkpt>
      <trkpt lat="44.45651" lon="6.51889">
        <ele>2523</ele>
        <time>2021-02-21T07:04:26Z</time>
      </trkpt>
      <trkpt lat="44.4565" lon="6.51889">
        <ele>2523</ele>
        <time>2021-02-21T07:04:27Z</time>
      </trkpt>
      <trkpt lat="44.4565" lon="6.51889">
        <ele>2523</ele>
        <time>2021-02-21T07:04:28Z</time>
      </trkpt>
      <trkpt lat="44.4565" lon="6.51889">
        <ele>2523</ele>
        <time>2021-02-21T07:04:29Z</time>
      </trkpt>
      <trkpt lat="44.4565" lon="6.51889">
        <ele>2523</ele>
        <time>2021-02-21T07:04:30Z</time>
      </trkpt>
      <trkpt lat="44.4565" lon="6.51889">
        <ele>2523</ele>
        <time>2021-02-21T07:04:31Z</time>
      </trkpt>
      <trkpt lat="44.4565" lon="6.51889">
        <ele>2523</ele>
        <time>2021-02-21T07:04:32Z</time>
      </trkpt>
      <trkpt lat="44.4565" lon="6.51889">
        <ele>2523</ele>
        <time>2021-02-21T07:04:33Z</time>
      </trkpt>
      <trkpt lat="44.4565" lon="6.51889">
        <ele>2523</ele>
        <time>2021-02-21T07:04:34Z</time>
      </trkpt>
      <trkpt lat="44.4565" lon="6.51889">
        <ele>2523</ele>
        <time>2021-02-21T07:04:35Z</time>
      </trkpt>
      <trkpt lat="44.4565" lon="6.51889">
        <ele>2523</ele>
        <time>2021-02-21T07:04:36Z</time>
      </trkpt>
      <trkpt lat="44.4565" lon="6.51889">
        <ele>2523</ele>
        <time>2021-02-21T07:04:37Z</time>
      </trkpt>
      <trkpt lat="44.4565" lon="6.51889">
        <ele>2523</ele>
        <time>2021-02-21T07:04:38Z</time>
      </trkpt>
      <trkpt lat="44.4565" lon="6.51889">
        <ele>2523</ele>
        <time>2021-02-21T07:04:39Z</time>
      </trkpt>
      <trkpt lat="44.45645" lon="6.51883">
        <ele>2523</ele>
        <time>2021-02-21T07:04:40Z</time>
      </trkpt>
      <trkpt lat="44.45645" lon="6.51883">
        <ele>2523</ele>
        <time>2021-02-21T07:04:41Z</time>
      </trkpt>
      <trkpt lat="44.45645" lon="6.51882">
        <ele>2523</ele>
        <time>2021-02-21T07:04:42Z</time>
      </trkpt>
      <trkpt lat="44.45644" lon="6.51881">
        <ele>2523</ele>
        <time>2021-02-21T07:04:43Z</time>
      </trkpt>
      <trkpt lat="44.45644" lon="6.51881">
        <ele>2523</ele>
        <time>2021-02-21T07:04:44Z</time>
      </trkpt>
      <trkpt lat="44.45644" lon="6.51881">
        <ele>2523</ele>
        <time>2021-02-21T07:04:45Z</time>
      </trkpt>
      <trkpt lat="44.45644" lon="6.51881">
        <ele>2523</ele>
        <time>2021-02-21T07:04:46Z</time>
      </trkpt>
      <trkpt lat="44.45644" lon="6.51881">
        <ele>2523</ele>
        <time>2021-02-21T07:04:47Z</time>
      </trkpt>
      <trkpt lat="44.45644" lon="6.51881">
        <ele>2523</ele>
        <time>2021-02-21T07:04:48Z</time>
      </trkpt>
      <trkpt lat="44.45644" lon="6.51881">
        <ele>2522</ele>
        <time>2021-02-21T07:04:49Z</time>
      </trkpt>
      <trkpt lat="44.45644" lon="6.51881">
        <ele>2522</ele>
        <time>2021-02-21T07:04:50Z</time>
      </trkpt>
      <trkpt lat="44.45644" lon="6.51881">
        <ele>2522</ele>
        <time>2021-02-21T07:04:51Z</time>
      </trkpt>
      <trkpt lat="44.45644" lon="6.51881">
        <ele>2522</ele>
        <time>2021-02-21T07:04:52Z</time>
      </trkpt>
      <trkpt lat="44.45644" lon="6.51881">
        <ele>2522</ele>
        <time>2021-02-21T07:04:53Z</time>
      </trkpt>
      <trkpt lat="44.45644" lon="6.51881">
        <ele>2522</ele>
        <time>2021-02-21T07:04:54Z</time>
      </trkpt>
      <trkpt lat="44.45644" lon="6.51881">
        <ele>2522</ele>
        <time>2021-02-21T07:04:55Z</time>
      </trkpt>
      <trkpt lat="44.45644" lon="6.51881">
        <ele>2522</ele>
        <time>2021-02-21T07:04:56Z</time>
      </trkpt>
      <trkpt lat="44.45644" lon="6.51881">
        <ele>2522</ele>
        <time>2021-02-21T07:04:57Z</time>
      </trkpt>
      <trkpt lat="44.45644" lon="6.51881">
        <ele>2522</ele>
        <time>2021-02-21T07:04:58Z</time>
      </trkpt>
      <trkpt lat="44.45644" lon="6.51881">
        <ele>2522</ele>
        <time>2021-02-21T07:04:59Z</time>
      </trkpt>
      <trkpt lat="44.45644" lon="6.51881">
        <ele>2522</ele>
        <time>2021-02-21T07:05:00Z</time>
      </trkpt>
      <trkpt lat="44.45644" lon="6.51881">
        <ele>2522</ele>
        <time>2021-02-21T07:05:01Z</time>
      </trkpt>
      <trkpt lat="44.45644" lon="6.51881">
        <ele>2522</ele>
        <time>2021-02-21T07:05:02Z</time>
      </trkpt>
      <trkpt lat="44.45644" lon="6.51881">
        <ele>2522</ele>
        <time>2021-02-21T07:05:03Z</time>
      </trkpt>
      <trkpt lat="44.45644" lon="6.51881">
        <ele>2522</ele>
        <time>2021-02-21T07:05:04Z</time>
      </trkpt>
      <trkpt lat="44.45644" lon="6.51881">
        <ele>2522</ele>
        <time>2021-02-21T07:05:05Z</time>
      </trkpt>
      <trkpt lat="44.45644" lon="6.51881">
        <ele>2522</ele>
        <time>2021-02-21T07:05:06Z</time>
      </trkpt>
      <trkpt lat="44.45644" lon="6.51881">
        <ele>2522</ele>
        <time>2021-02-21T07:05:07Z</time>
      </trkpt>
      <trkpt lat="44.45644" lon="6.51881">
        <ele>2522</ele>
        <time>2021-02-21T07:05:08Z</time>
      </trkpt>
      <trkpt lat="44.45644" lon="6.51881">
        <ele>2522</ele>
        <time>2021-02-21T07:05:09Z</time>
      </trkpt>
      <trkpt lat="44.45644" lon="6.51881">
        <ele>2522</ele>
        <time>2021-02-21T07:05:10Z</time>
      </trkpt>
      <trkpt lat="44.45644" lon="6.51881">
        <ele>2522</ele>
        <time>2021-02-21T07:05:11Z</time>
      </trkpt>
      <trkpt lat="44.45644" lon="6.51881">
        <ele>2522</ele>
        <time>2021-02-21T07:05:12Z</time>
      </trkpt>
      <trkpt lat="44.45644" lon="6.51881">
        <ele>2522</ele>
        <time>2021-02-21T07:05:13Z</time>
      </trkpt>
      <trkpt lat="44.45642" lon="6.51873">
        <ele>2524</ele>
        <time>2021-02-21T07:05:14Z</time>
      </trkpt>
      <trkpt lat="44.45642" lon="6.51872">
        <ele>2524</ele>
        <time>2021-02-21T07:05:15Z</time>
      </trkpt>
      <trkpt lat="44.45642" lon="6.51872">
        <ele>2525</ele>
        <time>2021-02-21T07:05:16Z</time>
      </trkpt>
      <trkpt lat="44.45641" lon="6.51871">
        <ele>2525</ele>
        <time>2021-02-21T07:05:17Z</time>
      </trkpt>
      <trkpt lat="44.45641" lon="6.51871">
        <ele>2525</ele>
        <time>2021-02-21T07:05:18Z</time>
      </trkpt>
      <trkpt lat="44.45641" lon="6.51871">
        <ele>2525</ele>
        <time>2021-02-21T07:05:19Z</time>
      </trkpt>
      <trkpt lat="44.45641" lon="6.51871">
        <ele>2525</ele>
        <time>2021-02-21T07:05:20Z</time>
      </trkpt>
      <trkpt lat="44.45641" lon="6.51871">
        <ele>2525</ele>
        <time>2021-02-21T07:05:21Z</time>
      </trkpt>
      <trkpt lat="44.45641" lon="6.51871">
        <ele>2525</ele>
        <time>2021-02-21T07:05:22Z</time>
      </trkpt>
      <trkpt lat="44.45641" lon="6.51871">
        <ele>2525</ele>
        <time>2021-02-21T07:05:23Z</time>
      </trkpt>
      <trkpt lat="44.45641" lon="6.51871">
        <ele>2525</ele>
        <time>2021-02-21T07:05:24Z</time>
      </trkpt>
      <trkpt lat="44.45641" lon="6.51871">
        <ele>2525</ele>
        <time>2021-02-21T07:05:25Z</time>
      </trkpt>
      <trkpt lat="44.45641" lon="6.51871">
        <ele>2525</ele>
        <time>2021-02-21T07:05:26Z</time>
      </trkpt>
      <trkpt lat="44.45641" lon="6.51871">
        <ele>2525</ele>
        <time>2021-02-21T07:05:27Z</time>
      </trkpt>
      <trkpt lat="44.45641" lon="6.51871">
        <ele>2525</ele>
        <time>2021-02-21T07:05:28Z</time>
      </trkpt>
      <trkpt lat="44.45641" lon="6.51871">
        <ele>2525</ele>
        <time>2021-02-21T07:05:29Z</time>
      </trkpt>
      <trkpt lat="44.45641" lon="6.51871">
        <ele>2525</ele>
        <time>2021-02-21T07:05:30Z</time>
      </trkpt>
      <trkpt lat="44.45638" lon="6.5187">
        <ele>2525</ele>
        <time>2021-02-21T07:05:31Z</time>
      </trkpt>
      <trkpt lat="44.45639" lon="6.51869">
        <ele>2525</ele>
        <time>2021-02-21T07:05:32Z</time>
      </trkpt>
      <trkpt lat="44.45638" lon="6.51869">
        <ele>2525</ele>
        <time>2021-02-21T07:05:33Z</time>
      </trkpt>
      <trkpt lat="44.45639" lon="6.51869">
        <ele>2525</ele>
        <time>2021-02-21T07:05:34Z</time>
      </trkpt>
      <trkpt lat="44.45639" lon="6.51869">
        <ele>2525</ele>
        <time>2021-02-21T07:05:35Z</time>
      </trkpt>
      <trkpt lat="44.45639" lon="6.51869">
        <ele>2525</ele>
        <time>2021-02-21T07:05:36Z</time>
      </trkpt>
      <trkpt lat="44.45639" lon="6.51869">
        <ele>2525</ele>
        <time>2021-02-21T07:05:37Z</time>
      </trkpt>
      <trkpt lat="44.45639" lon="6.51869">
        <ele>2525</ele>
        <time>2021-02-21T07:05:38Z</time>
      </trkpt>
      <trkpt lat="44.45639" lon="6.51869">
        <ele>2525</ele>
        <time>2021-02-21T07:05:39Z</time>
      </trkpt>
      <trkpt lat="44.45639" lon="6.51869">
        <ele>2525</ele>
        <time>2021-02-21T07:05:40Z</time>
      </trkpt>
      <trkpt lat="44.45639" lon="6.51869">
        <ele>2525</ele>
        <time>2021-02-21T07:05:41Z</time>
      </trkpt>
      <trkpt lat="44.45639" lon="6.51869">
        <ele>2525</ele>
        <time>2021-02-21T07:05:42Z</time>
      </trkpt>
      <trkpt lat="44.45639" lon="6.51869">
        <ele>2525</ele>
        <time>2021-02-21T07:05:43Z</time>
      </trkpt>
      <trkpt lat="44.45639" lon="6.51869">
        <ele>2525</ele>
        <time>2021-02-21T07:05:44Z</time>
      </trkpt>
      <trkpt lat="44.4564" lon="6.51865">
        <ele>2525</ele>
        <time>2021-02-21T07:05:45Z</time>
      </trkpt>
      <trkpt lat="44.45641" lon="6.51864">
        <ele>2526</ele>
        <time>2021-02-21T07:05:46Z</time>
      </trkpt>
      <trkpt lat="44.45641" lon="6.51863">
        <ele>2526</ele>
        <time>2021-02-21T07:05:47Z</time>
      </trkpt>
      <trkpt lat="44.45641" lon="6.51863">
        <ele>2526</ele>
        <time>2021-02-21T07:05:48Z</time>
      </trkpt>
      <trkpt lat="44.45641" lon="6.51863">
        <ele>2526</ele>
        <time>2021-02-21T07:05:49Z</time>
      </trkpt>
      <trkpt lat="44.45641" lon="6.51863">
        <ele>2526</ele>
        <time>2021-02-21T07:05:50Z</time>
      </trkpt>
      <trkpt lat="44.45641" lon="6.51863">
        <ele>2526</ele>
        <time>2021-02-21T07:05:51Z</time>
      </trkpt>
      <trkpt lat="44.45641" lon="6.51863">
        <ele>2526</ele>
        <time>2021-02-21T07:05:52Z</time>
      </trkpt>
      <trkpt lat="44.45641" lon="6.51863">
        <ele>2526</ele>
        <time>2021-02-21T07:05:53Z</time>
      </trkpt>
      <trkpt lat="44.45641" lon="6.51863">
        <ele>2526</ele>
        <time>2021-02-21T07:05:54Z</time>
      </trkpt>
      <trkpt lat="44.45641" lon="6.51863">
        <ele>2526</ele>
        <time>2021-02-21T07:05:55Z</time>
      </trkpt>
      <trkpt lat="44.45641" lon="6.51861">
        <ele>2526</ele>
        <time>2021-02-21T07:05:56Z</time>
      </trkpt>
      <trkpt lat="44.45641" lon="6.51861">
        <ele>2526</ele>
        <time>2021-02-21T07:05:57Z</time>
      </trkpt>
      <trkpt lat="44.4564" lon="6.51861">
        <ele>2527</ele>
        <time>2021-02-21T07:05:58Z</time>
      </trkpt>
      <trkpt lat="44.4564" lon="6.51862">
        <ele>2527</ele>
        <time>2021-02-21T07:05:59Z</time>
      </trkpt>
      <trkpt lat="44.4564" lon="6.51862">
        <ele>2527</ele>
        <time>2021-02-21T07:06:00Z</time>
      </trkpt>
      <trkpt lat="44.4564" lon="6.51862">
        <ele>2527</ele>
        <time>2021-02-21T07:06:01Z</time>
      </trkpt>
      <trkpt lat="44.4564" lon="6.51862">
        <ele>2527</ele>
        <time>2021-02-21T07:06:02Z</time>
      </trkpt>
      <trkpt lat="44.4564" lon="6.51862">
        <ele>2527</ele>
        <time>2021-02-21T07:06:03Z</time>
      </trkpt>
      <trkpt lat="44.4564" lon="6.51862">
        <ele>2527</ele>
        <time>2021-02-21T07:06:04Z</time>
      </trkpt>
      <trkpt lat="44.4564" lon="6.51862">
        <ele>2527</ele>
        <time>2021-02-21T07:06:05Z</time>
      </trkpt>
      <trkpt lat="44.4564" lon="6.51862">
        <ele>2527</ele>
        <time>2021-02-21T07:06:06Z</time>
      </trkpt>
      <trkpt lat="44.4564" lon="6.51862">
        <ele>2527</ele>
        <time>2021-02-21T07:06:07Z</time>
      </trkpt>
      <trkpt lat="44.4564" lon="6.51862">
        <ele>2527</ele>
        <time>2021-02-21T07:06:08Z</time>
      </trkpt>
      <trkpt lat="44.4564" lon="6.51862">
        <ele>2528</ele>
        <time>2021-02-21T07:06:09Z</time>
      </trkpt>
      <trkpt lat="44.4564" lon="6.51862">
        <ele>2528</ele>
        <time>2021-02-21T07:06:10Z</time>
      </trkpt>
      <trkpt lat="44.4564" lon="6.51862">
        <ele>2528</ele>
        <time>2021-02-21T07:06:11Z</time>
      </trkpt>
      <trkpt lat="44.4564" lon="6.51862">
        <ele>2528</ele>
        <time>2021-02-21T07:06:12Z</time>
      </trkpt>
      <trkpt lat="44.4564" lon="6.51862">
        <ele>2528</ele>
        <time>2021-02-21T07:06:13Z</time>
      </trkpt>
      <trkpt lat="44.4564" lon="6.51862">
        <ele>2528</ele>
        <time>2021-02-21T07:06:14Z</time>
      </trkpt>
      <trkpt lat="44.4564" lon="6.51862">
        <ele>2528</ele>
        <time>2021-02-21T07:06:15Z</time>
      </trkpt>
      <trkpt lat="44.4564" lon="6.51862">
        <ele>2528</ele>
        <time>2021-02-21T07:06:16Z</time>
      </trkpt>
      <trkpt lat="44.4564" lon="6.51862">
        <ele>2529</ele>
        <time>2021-02-21T07:06:17Z</time>
      </trkpt>
      <trkpt lat="44.4564" lon="6.51862">
        <ele>2529</ele>
        <time>2021-02-21T07:06:18Z</time>
      </trkpt>
      <trkpt lat="44.4564" lon="6.51862">
        <ele>2529</ele>
        <time>2021-02-21T07:06:19Z</time>
      </trkpt>
      <trkpt lat="44.4564" lon="6.51862">
        <ele>2529</ele>
        <time>2021-02-21T07:06:20Z</time>
      </trkpt>
      <trkpt lat="44.4564" lon="6.51862">
        <ele>2529</ele>
        <time>2021-02-21T07:06:21Z</time>
      </trkpt>
      <trkpt lat="44.4564" lon="6.51862">
        <ele>2529</ele>
        <time>2021-02-21T07:06:22Z</time>
      </trkpt>
      <trkpt lat="44.4564" lon="6.51862">
        <ele>2529</ele>
        <time>2021-02-21T07:06:23Z</time>
      </trkpt>
      <trkpt lat="44.4564" lon="6.51862">
        <ele>2529</ele>
        <time>2021-02-21T07:06:24Z</time>
      </trkpt>
      <trkpt lat="44.4564" lon="6.51862">
        <ele>2529</ele>
        <time>2021-02-21T07:06:25Z</time>
      </trkpt>
      <trkpt lat="44.4564" lon="6.51862">
        <ele>2529</ele>
        <time>2021-02-21T07:06:26Z</time>
      </trkpt>
      <trkpt lat="44.4564" lon="6.51862">
        <ele>2529</ele>
        <time>2021-02-21T07:06:27Z</time>
      </trkpt>
      <trkpt lat="44.45635" lon="6.51862">
        <ele>2530</ele>
        <time>2021-02-21T07:06:28Z</time>
      </trkpt>
      <trkpt lat="44.45636" lon="6.51862">
        <ele>2530</ele>
        <time>2021-02-21T07:06:29Z</time>
      </trkpt>
      <trkpt lat="44.45635" lon="6.51861">
        <ele>2531</ele>
        <time>2021-02-21T07:06:30Z</time>
      </trkpt>
      <trkpt lat="44.45635" lon="6.51861">
        <ele>2531</ele>
        <time>2021-02-21T07:06:31Z</time>
      </trkpt>
      <trkpt lat="44.45635" lon="6.51861">
        <ele>2531</ele>
        <time>2021-02-21T07:06:32Z</time>
      </trkpt>
      <trkpt lat="44.45635" lon="6.51861">
        <ele>2531</ele>
        <time>2021-02-21T07:06:33Z</time>
      </trkpt>
      <trkpt lat="44.45635" lon="6.51861">
        <ele>2531</ele>
        <time>2021-02-21T07:06:34Z</time>
      </trkpt>
      <trkpt lat="44.45635" lon="6.51861">
        <ele>2531</ele>
        <time>2021-02-21T07:06:35Z</time>
      </trkpt>
      <trkpt lat="44.45635" lon="6.51861">
        <ele>2531</ele>
        <time>2021-02-21T07:06:36Z</time>
      </trkpt>
      <trkpt lat="44.45635" lon="6.51861">
        <ele>2531</ele>
        <time>2021-02-21T07:06:37Z</time>
      </trkpt>
      <trkpt lat="44.45635" lon="6.51861">
        <ele>2531</ele>
        <time>2021-02-21T07:06:38Z</time>
      </trkpt>
      <trkpt lat="44.45635" lon="6.51861">
        <ele>2531</ele>
        <time>2021-02-21T07:06:39Z</time>
      </trkpt>
      <trkpt lat="44.45635" lon="6.51861">
        <ele>2531</ele>
        <time>2021-02-21T07:06:40Z</time>
      </trkpt>
      <trkpt lat="44.45635" lon="6.51861">
        <ele>2531</ele>
        <time>2021-02-21T07:06:41Z</time>
      </trkpt>
      <trkpt lat="44.45635" lon="6.51861">
        <ele>2531</ele>
        <time>2021-02-21T07:06:42Z</time>
      </trkpt>
      <trkpt lat="44.45635" lon="6.51861">
        <ele>2531</ele>
        <time>2021-02-21T07:06:43Z</time>
      </trkpt>
      <trkpt lat="44.45635" lon="6.51861">
        <ele>2531</ele>
        <time>2021-02-21T07:06:44Z</time>
      </trkpt>
      <trkpt lat="44.45635" lon="6.51861">
        <ele>2531</ele>
        <time>2021-02-21T07:06:45Z</time>
      </trkpt>
      <trkpt lat="44.45635" lon="6.51861">
        <ele>2531</ele>
        <time>2021-02-21T07:06:46Z</time>
      </trkpt>
      <trkpt lat="44.45635" lon="6.51861">
        <ele>2531</ele>
        <time>2021-02-21T07:06:47Z</time>
      </trkpt>
      <trkpt lat="44.45635" lon="6.51861">
        <ele>2531</ele>
        <time>2021-02-21T07:06:48Z</time>
      </trkpt>
      <trkpt lat="44.45635" lon="6.51861">
        <ele>2531</ele>
        <time>2021-02-21T07:06:49Z</time>
      </trkpt>
      <trkpt lat="44.45635" lon="6.51861">
        <ele>2531</ele>
        <time>2021-02-21T07:06:50Z</time>
      </trkpt>
      <trkpt lat="44.45635" lon="6.51861">
        <ele>2531</ele>
        <time>2021-02-21T07:06:51Z</time>
      </trkpt>
      <trkpt lat="44.45635" lon="6.51861">
        <ele>2531</ele>
        <time>2021-02-21T07:06:52Z</time>
      </trkpt>
      <trkpt lat="44.45635" lon="6.51861">
        <ele>2531</ele>
        <time>2021-02-21T07:06:53Z</time>
      </trkpt>
      <trkpt lat="44.45635" lon="6.51861">
        <ele>2531</ele>
        <time>2021-02-21T07:06:54Z</time>
      </trkpt>
      <trkpt lat="44.45635" lon="6.51861">
        <ele>2531</ele>
        <time>2021-02-21T07:06:55Z</time>
      </trkpt>
      <trkpt lat="44.45635" lon="6.51861">
        <ele>2531</ele>
        <time>2021-02-21T07:06:56Z</time>
      </trkpt>
      <trkpt lat="44.45635" lon="6.51861">
        <ele>2531</ele>
        <time>2021-02-21T07:06:57Z</time>
      </trkpt>
      <trkpt lat="44.45635" lon="6.51861">
        <ele>2531</ele>
        <time>2021-02-21T07:06:58Z</time>
      </trkpt>
      <trkpt lat="44.45635" lon="6.51861">
        <ele>2531</ele>
        <time>2021-02-21T07:06:59Z</time>
      </trkpt>
      <trkpt lat="44.45635" lon="6.51861">
        <ele>2531</ele>
        <time>2021-02-21T07:07:00Z</time>
      </trkpt>
      <trkpt lat="44.45635" lon="6.51861">
        <ele>2531</ele>
        <time>2021-02-21T07:07:01Z</time>
      </trkpt>
      <trkpt lat="44.45635" lon="6.51861">
        <ele>2531</ele>
        <time>2021-02-21T07:07:02Z</time>
      </trkpt>
      <trkpt lat="44.45637" lon="6.51853">
        <ele>2532</ele>
        <time>2021-02-21T07:07:03Z</time>
      </trkpt>
      <trkpt lat="44.45636" lon="6.51853">
        <ele>2533</ele>
        <time>2021-02-21T07:07:04Z</time>
      </trkpt>
      <trkpt lat="44.45637" lon="6.51852">
        <ele>2533</ele>
        <time>2021-02-21T07:07:05Z</time>
      </trkpt>
      <trkpt lat="44.45637" lon="6.51852">
        <ele>2533</ele>
        <time>2021-02-21T07:07:06Z</time>
      </trkpt>
      <trkpt lat="44.45637" lon="6.51852">
        <ele>2533</ele>
        <time>2021-02-21T07:07:07Z</time>
      </trkpt>
      <trkpt lat="44.45637" lon="6.51852">
        <ele>2533</ele>
        <time>2021-02-21T07:07:08Z</time>
      </trkpt>
      <trkpt lat="44.45637" lon="6.51852">
        <ele>2533</ele>
        <time>2021-02-21T07:07:09Z</time>
      </trkpt>
      <trkpt lat="44.45637" lon="6.51851">
        <ele>2534</ele>
        <time>2021-02-21T07:07:10Z</time>
      </trkpt>
      <trkpt lat="44.45637" lon="6.5185">
        <ele>2534</ele>
        <time>2021-02-21T07:07:11Z</time>
      </trkpt>
      <trkpt lat="44.45637" lon="6.5185">
        <ele>2534</ele>
        <time>2021-02-21T07:07:12Z</time>
      </trkpt>
      <trkpt lat="44.45637" lon="6.5185">
        <ele>2534</ele>
        <time>2021-02-21T07:07:13Z</time>
      </trkpt>
      <trkpt lat="44.45637" lon="6.51851">
        <ele>2534</ele>
        <time>2021-02-21T07:07:14Z</time>
      </trkpt>
      <trkpt lat="44.45637" lon="6.5185">
        <ele>2534</ele>
        <time>2021-02-21T07:07:15Z</time>
      </trkpt>
      <trkpt lat="44.45637" lon="6.5185">
        <ele>2534</ele>
        <time>2021-02-21T07:07:16Z</time>
      </trkpt>
      <trkpt lat="44.45637" lon="6.5185">
        <ele>2534</ele>
        <time>2021-02-21T07:07:17Z</time>
      </trkpt>
      <trkpt lat="44.45637" lon="6.5185">
        <ele>2534</ele>
        <time>2021-02-21T07:07:18Z</time>
      </trkpt>
      <trkpt lat="44.45637" lon="6.5185">
        <ele>2534</ele>
        <time>2021-02-21T07:07:19Z</time>
      </trkpt>
      <trkpt lat="44.45637" lon="6.5185">
        <ele>2534</ele>
        <time>2021-02-21T07:07:20Z</time>
      </trkpt>
      <trkpt lat="44.45637" lon="6.5185">
        <ele>2534</ele>
        <time>2021-02-21T07:07:21Z</time>
      </trkpt>
      <trkpt lat="44.45637" lon="6.5185">
        <ele>2534</ele>
        <time>2021-02-21T07:07:22Z</time>
      </trkpt>
      <trkpt lat="44.45637" lon="6.5185">
        <ele>2534</ele>
        <time>2021-02-21T07:07:23Z</time>
      </trkpt>
      <trkpt lat="44.45637" lon="6.5185">
        <ele>2534</ele>
        <time>2021-02-21T07:07:24Z</time>
      </trkpt>
      <trkpt lat="44.45637" lon="6.5185">
        <ele>2534</ele>
        <time>2021-02-21T07:07:25Z</time>
      </trkpt>
      <trkpt lat="44.45637" lon="6.5185">
        <ele>2534</ele>
        <time>2021-02-21T07:07:26Z</time>
      </trkpt>
      <trkpt lat="44.45637" lon="6.5185">
        <ele>2534</ele>
        <time>2021-02-21T07:07:27Z</time>
      </trkpt>
      <trkpt lat="44.45637" lon="6.5185">
        <ele>2534</ele>
        <time>2021-02-21T07:07:28Z</time>
      </trkpt>
      <trkpt lat="44.45637" lon="6.5185">
        <ele>2535</ele>
        <time>2021-02-21T07:07:29Z</time>
      </trkpt>
      <trkpt lat="44.45637" lon="6.5185">
        <ele>2535</ele>
        <time>2021-02-21T07:07:30Z</time>
      </trkpt>
      <trkpt lat="44.45634" lon="6.5185">
        <ele>2535</ele>
        <time>2021-02-21T07:07:31Z</time>
      </trkpt>
      <trkpt lat="44.45634" lon="6.5185">
        <ele>2536</ele>
        <time>2021-02-21T07:07:32Z</time>
      </trkpt>
      <trkpt lat="44.45634" lon="6.5185">
        <ele>2536</ele>
        <time>2021-02-21T07:07:33Z</time>
      </trkpt>
      <trkpt lat="44.45634" lon="6.51849">
        <ele>2536</ele>
        <time>2021-02-21T07:07:34Z</time>
      </trkpt>
      <trkpt lat="44.45634" lon="6.51849">
        <ele>2536</ele>
        <time>2021-02-21T07:07:35Z</time>
      </trkpt>
      <trkpt lat="44.45634" lon="6.51849">
        <ele>2536</ele>
        <time>2021-02-21T07:07:36Z</time>
      </trkpt>
      <trkpt lat="44.45634" lon="6.51849">
        <ele>2536</ele>
        <time>2021-02-21T07:07:37Z</time>
      </trkpt>
      <trkpt lat="44.45634" lon="6.51849">
        <ele>2536</ele>
        <time>2021-02-21T07:07:38Z</time>
      </trkpt>
      <trkpt lat="44.45634" lon="6.51849">
        <ele>2536</ele>
        <time>2021-02-21T07:07:39Z</time>
      </trkpt>
      <trkpt lat="44.45634" lon="6.51849">
        <ele>2536</ele>
        <time>2021-02-21T07:07:40Z</time>
      </trkpt>
      <trkpt lat="44.45634" lon="6.51849">
        <ele>2536</ele>
        <time>2021-02-21T07:07:41Z</time>
      </trkpt>
      <trkpt lat="44.45634" lon="6.51849">
        <ele>2536</ele>
        <time>2021-02-21T07:07:42Z</time>
      </trkpt>
      <trkpt lat="44.45634" lon="6.51849">
        <ele>2536</ele>
        <time>2021-02-21T07:07:43Z</time>
      </trkpt>
      <trkpt lat="44.45634" lon="6.51849">
        <ele>2536</ele>
        <time>2021-02-21T07:07:44Z</time>
      </trkpt>
      <trkpt lat="44.45634" lon="6.51849">
        <ele>2536</ele>
        <time>2021-02-21T07:07:45Z</time>
      </trkpt>
      <trkpt lat="44.45634" lon="6.51849">
        <ele>2536</ele>
        <time>2021-02-21T07:07:46Z</time>
      </trkpt>
      <trkpt lat="44.45634" lon="6.51849">
        <ele>2536</ele>
        <time>2021-02-21T07:07:47Z</time>
      </trkpt>
      <trkpt lat="44.45634" lon="6.51849">
        <ele>2536</ele>
        <time>2021-02-21T07:07:48Z</time>
      </trkpt>
      <trkpt lat="44.45634" lon="6.51849">
        <ele>2536</ele>
        <time>2021-02-21T07:07:49Z</time>
      </trkpt>
      <trkpt lat="44.45634" lon="6.51849">
        <ele>2536</ele>
        <time>2021-02-21T07:07:50Z</time>
      </trkpt>
      <trkpt lat="44.45634" lon="6.51849">
        <ele>2536</ele>
        <time>2021-02-21T07:07:51Z</time>
      </trkpt>
      <trkpt lat="44.45634" lon="6.51849">
        <ele>2536</ele>
        <time>2021-02-21T07:07:52Z</time>
      </trkpt>
      <trkpt lat="44.45634" lon="6.51849">
        <ele>2536</ele>
        <time>2021-02-21T07:07:53Z</time>
      </trkpt>
      <trkpt lat="44.45634" lon="6.51849">
        <ele>2536</ele>
        <time>2021-02-21T07:07:54Z</time>
      </trkpt>
      <trkpt lat="44.45634" lon="6.51849">
        <ele>2536</ele>
        <time>2021-02-21T07:07:55Z</time>
      </trkpt>
      <trkpt lat="44.45634" lon="6.51849">
        <ele>2536</ele>
        <time>2021-02-21T07:07:56Z</time>
      </trkpt>
      <trkpt lat="44.45634" lon="6.51849">
        <ele>2536</ele>
        <time>2021-02-21T07:07:57Z</time>
      </trkpt>
      <trkpt lat="44.45634" lon="6.51849">
        <ele>2536</ele>
        <time>2021-02-21T07:07:58Z</time>
      </trkpt>
      <trkpt lat="44.45634" lon="6.51849">
        <ele>2536</ele>
        <time>2021-02-21T07:07:59Z</time>
      </trkpt>
      <trkpt lat="44.45634" lon="6.51849">
        <ele>2536</ele>
        <time>2021-02-21T07:08:00Z</time>
      </trkpt>
      <trkpt lat="44.45634" lon="6.51849">
        <ele>2536</ele>
        <time>2021-02-21T07:08:01Z</time>
      </trkpt>
      <trkpt lat="44.45634" lon="6.51849">
        <ele>2536</ele>
        <time>2021-02-21T07:08:02Z</time>
      </trkpt>
      <trkpt lat="44.45634" lon="6.51849">
        <ele>2536</ele>
        <time>2021-02-21T07:08:03Z</time>
      </trkpt>
      <trkpt lat="44.45634" lon="6.51849">
        <ele>2536</ele>
        <time>2021-02-21T07:08:04Z</time>
      </trkpt>
      <trkpt lat="44.45634" lon="6.51849">
        <ele>2536</ele>
        <time>2021-02-21T07:08:05Z</time>
      </trkpt>
      <trkpt lat="44.45634" lon="6.51849">
        <ele>2536</ele>
        <time>2021-02-21T07:08:06Z</time>
      </trkpt>
      <trkpt lat="44.45634" lon="6.51849">
        <ele>2536</ele>
        <time>2021-02-21T07:08:07Z</time>
      </trkpt>
      <trkpt lat="44.45634" lon="6.51849">
        <ele>2536</ele>
        <time>2021-02-21T07:08:08Z</time>
      </trkpt>
      <trkpt lat="44.45634" lon="6.51849">
        <ele>2536</ele>
        <time>2021-02-21T07:08:09Z</time>
      </trkpt>
      <trkpt lat="44.45634" lon="6.51849">
        <ele>2536</ele>
        <time>2021-02-21T07:08:10Z</time>
      </trkpt>
      <trkpt lat="44.45634" lon="6.51849">
        <ele>2536</ele>
        <time>2021-02-21T07:08:11Z</time>
      </trkpt>
      <trkpt lat="44.45634" lon="6.51849">
        <ele>2536</ele>
        <time>2021-02-21T07:08:12Z</time>
      </trkpt>
      <trkpt lat="44.45634" lon="6.51849">
        <ele>2536</ele>
        <time>2021-02-21T07:08:13Z</time>
      </trkpt>
      <trkpt lat="44.45634" lon="6.51849">
        <ele>2536</ele>
        <time>2021-02-21T07:08:14Z</time>
      </trkpt>
      <trkpt lat="44.45634" lon="6.51849">
        <ele>2536</ele>
        <time>2021-02-21T07:08:15Z</time>
      </trkpt>
      <trkpt lat="44.45634" lon="6.51849">
        <ele>2536</ele>
        <time>2021-02-21T07:08:16Z</time>
      </trkpt>
      <trkpt lat="44.45634" lon="6.51849">
        <ele>2536</ele>
        <time>2021-02-21T07:08:17Z</time>
      </trkpt>
      <trkpt lat="44.45634" lon="6.51849">
        <ele>2536</ele>
        <time>2021-02-21T07:08:18Z</time>
      </trkpt>
      <trkpt lat="44.45634" lon="6.51849">
        <ele>2536</ele>
        <time>2021-02-21T07:08:19Z</time>
      </trkpt>
      <trkpt lat="44.45634" lon="6.51849">
        <ele>2536</ele>
        <time>2021-02-21T07:08:20Z</time>
      </trkpt>
      <trkpt lat="44.45634" lon="6.51849">
        <ele>2536</ele>
        <time>2021-02-21T07:08:21Z</time>
      </trkpt>
      <trkpt lat="44.45634" lon="6.51849">
        <ele>2536</ele>
        <time>2021-02-21T07:08:22Z</time>
      </trkpt>
      <trkpt lat="44.45634" lon="6.51849">
        <ele>2536</ele>
        <time>2021-02-21T07:08:23Z</time>
      </trkpt>
      <trkpt lat="44.45634" lon="6.51849">
        <ele>2536</ele>
        <time>2021-02-21T07:08:24Z</time>
      </trkpt>
      <trkpt lat="44.45634" lon="6.51849">
        <ele>2536</ele>
        <time>2021-02-21T07:08:25Z</time>
      </trkpt>
      <trkpt lat="44.45634" lon="6.51849">
        <ele>2536</ele>
        <time>2021-02-21T07:08:26Z</time>
      </trkpt>
      <trkpt lat="44.45634" lon="6.51849">
        <ele>2536</ele>
        <time>2021-02-21T07:08:27Z</time>
      </trkpt>
      <trkpt lat="44.45634" lon="6.51849">
        <ele>2536</ele>
        <time>2021-02-21T07:08:28Z</time>
      </trkpt>
      <trkpt lat="44.45634" lon="6.51849">
        <ele>2536</ele>
        <time>2021-02-21T07:08:29Z</time>
      </trkpt>
      <trkpt lat="44.45634" lon="6.51849">
        <ele>2536</ele>
        <time>2021-02-21T07:08:30Z</time>
      </trkpt>
      <trkpt lat="44.45634" lon="6.51849">
        <ele>2536</ele>
        <time>2021-02-21T07:08:31Z</time>
      </trkpt>
      <trkpt lat="44.45634" lon="6.51849">
        <ele>2536</ele>
        <time>2021-02-21T07:08:32Z</time>
      </trkpt>
      <trkpt lat="44.45634" lon="6.51849">
        <ele>2536</ele>
        <time>2021-02-21T07:08:33Z</time>
      </trkpt>
      <trkpt lat="44.45634" lon="6.51849">
        <ele>2536</ele>
        <time>2021-02-21T07:08:34Z</time>
      </trkpt>
      <trkpt lat="44.45634" lon="6.51849">
        <ele>2536</ele>
        <time>2021-02-21T07:08:35Z</time>
      </trkpt>
      <trkpt lat="44.45634" lon="6.51849">
        <ele>2536</ele>
        <time>2021-02-21T07:08:36Z</time>
      </trkpt>
      <trkpt lat="44.45634" lon="6.51849">
        <ele>2536</ele>
        <time>2021-02-21T07:08:37Z</time>
      </trkpt>
      <trkpt lat="44.45634" lon="6.51849">
        <ele>2536</ele>
        <time>2021-02-21T07:08:38Z</time>
      </trkpt>
      <trkpt lat="44.45634" lon="6.51849">
        <ele>2536</ele>
        <time>2021-02-21T07:08:39Z</time>
      </trkpt>
      <trkpt lat="44.45634" lon="6.51849">
        <ele>2536</ele>
        <time>2021-02-21T07:08:40Z</time>
      </trkpt>
      <trkpt lat="44.45634" lon="6.51849">
        <ele>2536</ele>
        <time>2021-02-21T07:08:41Z</time>
      </trkpt>
      <trkpt lat="44.45634" lon="6.51849">
        <ele>2536</ele>
        <time>2021-02-21T07:08:42Z</time>
      </trkpt>
      <trkpt lat="44.45634" lon="6.51849">
        <ele>2536</ele>
        <time>2021-02-21T07:08:43Z</time>
      </trkpt>
      <trkpt lat="44.45634" lon="6.51849">
        <ele>2536</ele>
        <time>2021-02-21T07:08:44Z</time>
      </trkpt>
      <trkpt lat="44.45634" lon="6.51849">
        <ele>2536</ele>
        <time>2021-02-21T07:08:45Z</time>
      </trkpt>
      <trkpt lat="44.45634" lon="6.51849">
        <ele>2536</ele>
        <time>2021-02-21T07:08:46Z</time>
      </trkpt>
      <trkpt lat="44.45634" lon="6.51849">
        <ele>2536</ele>
        <time>2021-02-21T07:08:47Z</time>
      </trkpt>
      <trkpt lat="44.45634" lon="6.51849">
        <ele>2536</ele>
        <time>2021-02-21T07:08:48Z</time>
      </trkpt>
      <trkpt lat="44.45634" lon="6.51849">
        <ele>2536</ele>
        <time>2021-02-21T07:08:49Z</time>
      </trkpt>
      <trkpt lat="44.45635" lon="6.51841">
        <ele>2540</ele>
        <time>2021-02-21T07:08:50Z</time>
      </trkpt>
      <trkpt lat="44.45635" lon="6.5184">
        <ele>2541</ele>
        <time>2021-02-21T07:08:51Z</time>
      </trkpt>
      <trkpt lat="44.45634" lon="6.5184">
        <ele>2541</ele>
        <time>2021-02-21T07:08:52Z</time>
      </trkpt>
      <trkpt lat="44.45634" lon="6.51841">
        <ele>2542</ele>
        <time>2021-02-21T07:08:53Z</time>
      </trkpt>
      <trkpt lat="44.45634" lon="6.51841">
        <ele>2542</ele>
        <time>2021-02-21T07:08:54Z</time>
      </trkpt>
      <trkpt lat="44.45634" lon="6.51841">
        <ele>2542</ele>
        <time>2021-02-21T07:08:55Z</time>
      </trkpt>
      <trkpt lat="44.45634" lon="6.51841">
        <ele>2542</ele>
        <time>2021-02-21T07:08:56Z</time>
      </trkpt>
      <trkpt lat="44.45634" lon="6.51841">
        <ele>2542</ele>
        <time>2021-02-21T07:08:57Z</time>
      </trkpt>
      <trkpt lat="44.45634" lon="6.51841">
        <ele>2542</ele>
        <time>2021-02-21T07:08:58Z</time>
      </trkpt>
      <trkpt lat="44.45634" lon="6.51841">
        <ele>2542</ele>
        <time>2021-02-21T07:08:59Z</time>
      </trkpt>
      <trkpt lat="44.45634" lon="6.51841">
        <ele>2542</ele>
        <time>2021-02-21T07:09:00Z</time>
      </trkpt>
      <trkpt lat="44.45634" lon="6.51841">
        <ele>2543</ele>
        <time>2021-02-21T07:09:01Z</time>
      </trkpt>
      <trkpt lat="44.45634" lon="6.51841">
        <ele>2543</ele>
        <time>2021-02-21T07:09:02Z</time>
      </trkpt>
      <trkpt lat="44.45634" lon="6.51841">
        <ele>2543</ele>
        <time>2021-02-21T07:09:03Z</time>
      </trkpt>
      <trkpt lat="44.45634" lon="6.51841">
        <ele>2543</ele>
        <time>2021-02-21T07:09:04Z</time>
      </trkpt>
      <trkpt lat="44.45634" lon="6.51841">
        <ele>2543</ele>
        <time>2021-02-21T07:09:05Z</time>
      </trkpt>
      <trkpt lat="44.45634" lon="6.51841">
        <ele>2543</ele>
        <time>2021-02-21T07:09:06Z</time>
      </trkpt>
      <trkpt lat="44.45634" lon="6.51841">
        <ele>2543</ele>
        <time>2021-02-21T07:09:07Z</time>
      </trkpt>
      <trkpt lat="44.45634" lon="6.51841">
        <ele>2543</ele>
        <time>2021-02-21T07:09:08Z</time>
      </trkpt>
      <trkpt lat="44.45634" lon="6.51841">
        <ele>2543</ele>
        <time>2021-02-21T07:09:09Z</time>
      </trkpt>
      <trkpt lat="44.45634" lon="6.51841">
        <ele>2543</ele>
        <time>2021-02-21T07:09:10Z</time>
      </trkpt>
      <trkpt lat="44.45634" lon="6.51841">
        <ele>2543</ele>
        <time>2021-02-21T07:09:11Z</time>
      </trkpt>
      <trkpt lat="44.45634" lon="6.51841">
        <ele>2543</ele>
        <time>2021-02-21T07:09:12Z</time>
      </trkpt>
      <trkpt lat="44.45634" lon="6.51841">
        <ele>2543</ele>
        <time>2021-02-21T07:09:13Z</time>
      </trkpt>
      <trkpt lat="44.45634" lon="6.51841">
        <ele>2543</ele>
        <time>2021-02-21T07:09:14Z</time>
      </trkpt>
      <trkpt lat="44.45634" lon="6.51841">
        <ele>2543</ele>
        <time>2021-02-21T07:09:15Z</time>
      </trkpt>
      <trkpt lat="44.45634" lon="6.51841">
        <ele>2543</ele>
        <time>2021-02-21T07:09:16Z</time>
      </trkpt>
      <trkpt lat="44.45634" lon="6.51839">
        <ele>2543</ele>
        <time>2021-02-21T07:09:17Z</time>
      </trkpt>
      <trkpt lat="44.45635" lon="6.51839">
        <ele>2543</ele>
        <time>2021-02-21T07:09:18Z</time>
      </trkpt>
      <trkpt lat="44.45635" lon="6.51838">
        <ele>2543</ele>
        <time>2021-02-21T07:09:19Z</time>
      </trkpt>
      <trkpt lat="44.45635" lon="6.51838">
        <ele>2543</ele>
        <time>2021-02-21T07:09:20Z</time>
      </trkpt>
      <trkpt lat="44.45635" lon="6.51838">
        <ele>2543</ele>
        <time>2021-02-21T07:09:21Z</time>
      </trkpt>
      <trkpt lat="44.45635" lon="6.51838">
        <ele>2543</ele>
        <time>2021-02-21T07:09:22Z</time>
      </trkpt>
      <trkpt lat="44.45635" lon="6.51838">
        <ele>2543</ele>
        <time>2021-02-21T07:09:23Z</time>
      </trkpt>
      <trkpt lat="44.45635" lon="6.51838">
        <ele>2543</ele>
        <time>2021-02-21T07:09:24Z</time>
      </trkpt>
      <trkpt lat="44.45635" lon="6.51838">
        <ele>2544</ele>
        <time>2021-02-21T07:09:25Z</time>
      </trkpt>
      <trkpt lat="44.45635" lon="6.51838">
        <ele>2545</ele>
        <time>2021-02-21T07:09:26Z</time>
      </trkpt>
      <trkpt lat="44.45635" lon="6.51838">
        <ele>2545</ele>
        <time>2021-02-21T07:09:27Z</time>
      </trkpt>
      <trkpt lat="44.45635" lon="6.51838">
        <ele>2545</ele>
        <time>2021-02-21T07:09:28Z</time>
      </trkpt>
      <trkpt lat="44.45635" lon="6.51838">
        <ele>2545</ele>
        <time>2021-02-21T07:09:29Z</time>
      </trkpt>
      <trkpt lat="44.45635" lon="6.51839">
        <ele>2546</ele>
        <time>2021-02-21T07:09:30Z</time>
      </trkpt>
      <trkpt lat="44.45634" lon="6.51839">
        <ele>2546</ele>
        <time>2021-02-21T07:09:31Z</time>
      </trkpt>
      <trkpt lat="44.45634" lon="6.51839">
        <ele>2546</ele>
        <time>2021-02-21T07:09:32Z</time>
      </trkpt>
      <trkpt lat="44.45634" lon="6.51839">
        <ele>2546</ele>
        <time>2021-02-21T07:09:33Z</time>
      </trkpt>
      <trkpt lat="44.45634" lon="6.51839">
        <ele>2546</ele>
        <time>2021-02-21T07:09:34Z</time>
      </trkpt>
      <trkpt lat="44.45634" lon="6.51839">
        <ele>2546</ele>
        <time>2021-02-21T07:09:35Z</time>
      </trkpt>
      <trkpt lat="44.45634" lon="6.51839">
        <ele>2546</ele>
        <time>2021-02-21T07:09:36Z</time>
      </trkpt>
      <trkpt lat="44.45634" lon="6.51839">
        <ele>2546</ele>
        <time>2021-02-21T07:09:37Z</time>
      </trkpt>
      <trkpt lat="44.45634" lon="6.51839">
        <ele>2546</ele>
        <time>2021-02-21T07:09:38Z</time>
      </trkpt>
      <trkpt lat="44.45634" lon="6.51839">
        <ele>2546</ele>
        <time>2021-02-21T07:09:39Z</time>
      </trkpt>
      <trkpt lat="44.45634" lon="6.51839">
        <ele>2546</ele>
        <time>2021-02-21T07:09:40Z</time>
      </trkpt>
      <trkpt lat="44.45634" lon="6.51839">
        <ele>2546</ele>
        <time>2021-02-21T07:09:41Z</time>
      </trkpt>
      <trkpt lat="44.45634" lon="6.51839">
        <ele>2546</ele>
        <time>2021-02-21T07:09:42Z</time>
      </trkpt>
      <trkpt lat="44.45634" lon="6.51839">
        <ele>2546</ele>
        <time>2021-02-21T07:09:43Z</time>
      </trkpt>
      <trkpt lat="44.45634" lon="6.51839">
        <ele>2546</ele>
        <time>2021-02-21T07:09:44Z</time>
      </trkpt>
      <trkpt lat="44.45634" lon="6.51839">
        <ele>2546</ele>
        <time>2021-02-21T07:09:45Z</time>
      </trkpt>
      <trkpt lat="44.45634" lon="6.51839">
        <ele>2546</ele>
        <time>2021-02-21T07:09:46Z</time>
      </trkpt>
      <trkpt lat="44.45634" lon="6.51839">
        <ele>2546</ele>
        <time>2021-02-21T07:09:47Z</time>
      </trkpt>
      <trkpt lat="44.45634" lon="6.51839">
        <ele>2546</ele>
        <time>2021-02-21T07:09:48Z</time>
      </trkpt>
      <trkpt lat="44.45634" lon="6.51839">
        <ele>2546</ele>
        <time>2021-02-21T07:09:49Z</time>
      </trkpt>
      <trkpt lat="44.45634" lon="6.51839">
        <ele>2546</ele>
        <time>2021-02-21T07:09:50Z</time>
      </trkpt>
      <trkpt lat="44.45636" lon="6.51835">
        <ele>2546</ele>
        <time>2021-02-21T07:09:51Z</time>
      </trkpt>
      <trkpt lat="44.45637" lon="6.51834">
        <ele>2546</ele>
        <time>2021-02-21T07:09:52Z</time>
      </trkpt>
      <trkpt lat="44.45637" lon="6.51834">
        <ele>2547</ele>
        <time>2021-02-21T07:09:53Z</time>
      </trkpt>
      <trkpt lat="44.45637" lon="6.51834">
        <ele>2547</ele>
        <time>2021-02-21T07:09:54Z</time>
      </trkpt>
      <trkpt lat="44.45637" lon="6.51834">
        <ele>2547</ele>
        <time>2021-02-21T07:09:55Z</time>
      </trkpt>
      <trkpt lat="44.45637" lon="6.51834">
        <ele>2547</ele>
        <time>2021-02-21T07:09:56Z</time>
      </trkpt>
      <trkpt lat="44.45637" lon="6.51834">
        <ele>2547</ele>
        <time>2021-02-21T07:09:57Z</time>
      </trkpt>
      <trkpt lat="44.45637" lon="6.51834">
        <ele>2548</ele>
        <time>2021-02-21T07:09:58Z</time>
      </trkpt>
      <trkpt lat="44.45637" lon="6.51834">
        <ele>2548</ele>
        <time>2021-02-21T07:09:59Z</time>
      </trkpt>
      <trkpt lat="44.45637" lon="6.51834">
        <ele>2548</ele>
        <time>2021-02-21T07:10:00Z</time>
      </trkpt>
      <trkpt lat="44.45637" lon="6.51834">
        <ele>2548</ele>
        <time>2021-02-21T07:10:01Z</time>
      </trkpt>
      <trkpt lat="44.45637" lon="6.51834">
        <ele>2548</ele>
        <time>2021-02-21T07:10:02Z</time>
      </trkpt>
      <trkpt lat="44.45637" lon="6.51834">
        <ele>2548</ele>
        <time>2021-02-21T07:10:03Z</time>
      </trkpt>
      <trkpt lat="44.45637" lon="6.51834">
        <ele>2548</ele>
        <time>2021-02-21T07:10:04Z</time>
      </trkpt>
      <trkpt lat="44.45637" lon="6.51834">
        <ele>2548</ele>
        <time>2021-02-21T07:10:05Z</time>
      </trkpt>
      <trkpt lat="44.45639" lon="6.5183">
        <ele>2548</ele>
        <time>2021-02-21T07:10:06Z</time>
      </trkpt>
      <trkpt lat="44.45639" lon="6.5183">
        <ele>2548</ele>
        <time>2021-02-21T07:10:07Z</time>
      </trkpt>
      <trkpt lat="44.45639" lon="6.5183">
        <ele>2549</ele>
        <time>2021-02-21T07:10:08Z</time>
      </trkpt>
      <trkpt lat="44.45639" lon="6.51829">
        <ele>2549</ele>
        <time>2021-02-21T07:10:09Z</time>
      </trkpt>
      <trkpt lat="44.45639" lon="6.51829">
        <ele>2549</ele>
        <time>2021-02-21T07:10:10Z</time>
      </trkpt>
      <trkpt lat="44.45639" lon="6.51829">
        <ele>2549</ele>
        <time>2021-02-21T07:10:11Z</time>
      </trkpt>
      <trkpt lat="44.45639" lon="6.51829">
        <ele>2550</ele>
        <time>2021-02-21T07:10:12Z</time>
      </trkpt>
      <trkpt lat="44.45639" lon="6.51829">
        <ele>2550</ele>
        <time>2021-02-21T07:10:13Z</time>
      </trkpt>
      <trkpt lat="44.45639" lon="6.51829">
        <ele>2550</ele>
        <time>2021-02-21T07:10:14Z</time>
      </trkpt>
      <trkpt lat="44.45639" lon="6.51829">
        <ele>2550</ele>
        <time>2021-02-21T07:10:15Z</time>
      </trkpt>
      <trkpt lat="44.45639" lon="6.51829">
        <ele>2550</ele>
        <time>2021-02-21T07:10:16Z</time>
      </trkpt>
      <trkpt lat="44.45639" lon="6.51829">
        <ele>2550</ele>
        <time>2021-02-21T07:10:17Z</time>
      </trkpt>
      <trkpt lat="44.45639" lon="6.51829">
        <ele>2550</ele>
        <time>2021-02-21T07:10:18Z</time>
      </trkpt>
      <trkpt lat="44.45639" lon="6.51829">
        <ele>2550</ele>
        <time>2021-02-21T07:10:19Z</time>
      </trkpt>
      <trkpt lat="44.45639" lon="6.51829">
        <ele>2550</ele>
        <time>2021-02-21T07:10:20Z</time>
      </trkpt>
      <trkpt lat="44.45639" lon="6.51829">
        <ele>2550</ele>
        <time>2021-02-21T07:10:21Z</time>
      </trkpt>
      <trkpt lat="44.45639" lon="6.51829">
        <ele>2550</ele>
        <time>2021-02-21T07:10:22Z</time>
      </trkpt>
      <trkpt lat="44.45639" lon="6.51829">
        <ele>2550</ele>
        <time>2021-02-21T07:10:23Z</time>
      </trkpt>
      <trkpt lat="44.45639" lon="6.51829">
        <ele>2550</ele>
        <time>2021-02-21T07:10:24Z</time>
      </trkpt>
      <trkpt lat="44.45639" lon="6.51829">
        <ele>2550</ele>
        <time>2021-02-21T07:10:25Z</time>
      </trkpt>
      <trkpt lat="44.45639" lon="6.51829">
        <ele>2550</ele>
        <time>2021-02-21T07:10:26Z</time>
      </trkpt>
      <trkpt lat="44.45639" lon="6.51829">
        <ele>2550</ele>
        <time>2021-02-21T07:10:27Z</time>
      </trkpt>
      <trkpt lat="44.4564" lon="6.51829">
        <ele>2550</ele>
        <time>2021-02-21T07:10:28Z</time>
      </trkpt>
      <trkpt lat="44.4564" lon="6.51829">
        <ele>2550</ele>
        <time>2021-02-21T07:10:29Z</time>
      </trkpt>
      <trkpt lat="44.4564" lon="6.51829">
        <ele>2550</ele>
        <time>2021-02-21T07:10:30Z</time>
      </trkpt>
      <trkpt lat="44.4564" lon="6.51829">
        <ele>2550</ele>
        <time>2021-02-21T07:10:31Z</time>
      </trkpt>
      <trkpt lat="44.4564" lon="6.51829">
        <ele>2550</ele>
        <time>2021-02-21T07:10:32Z</time>
      </trkpt>
      <trkpt lat="44.4564" lon="6.51829">
        <ele>2551</ele>
        <time>2021-02-21T07:10:33Z</time>
      </trkpt>
      <trkpt lat="44.4564" lon="6.51829">
        <ele>2551</ele>
        <time>2021-02-21T07:10:34Z</time>
      </trkpt>
      <trkpt lat="44.4564" lon="6.51829">
        <ele>2551</ele>
        <time>2021-02-21T07:10:35Z</time>
      </trkpt>
      <trkpt lat="44.4564" lon="6.51829">
        <ele>2551</ele>
        <time>2021-02-21T07:10:36Z</time>
      </trkpt>
      <trkpt lat="44.4564" lon="6.51829">
        <ele>2551</ele>
        <time>2021-02-21T07:10:37Z</time>
      </trkpt>
      <trkpt lat="44.4564" lon="6.51829">
        <ele>2551</ele>
        <time>2021-02-21T07:10:38Z</time>
      </trkpt>
      <trkpt lat="44.4564" lon="6.51829">
        <ele>2551</ele>
        <time>2021-02-21T07:10:39Z</time>
      </trkpt>
      <trkpt lat="44.4564" lon="6.51829">
        <ele>2551</ele>
        <time>2021-02-21T07:10:40Z</time>
      </trkpt>
      <trkpt lat="44.4564" lon="6.51829">
        <ele>2551</ele>
        <time>2021-02-21T07:10:41Z</time>
      </trkpt>
      <trkpt lat="44.4564" lon="6.51829">
        <ele>2551</ele>
        <time>2021-02-21T07:10:42Z</time>
      </trkpt>
      <trkpt lat="44.4564" lon="6.51829">
        <ele>2551</ele>
        <time>2021-02-21T07:10:43Z</time>
      </trkpt>
      <trkpt lat="44.4564" lon="6.51829">
        <ele>2551</ele>
        <time>2021-02-21T07:10:44Z</time>
      </trkpt>
      <trkpt lat="44.4564" lon="6.51829">
        <ele>2551</ele>
        <time>2021-02-21T07:10:45Z</time>
      </trkpt>
      <trkpt lat="44.4564" lon="6.51829">
        <ele>2551</ele>
        <time>2021-02-21T07:10:46Z</time>
      </trkpt>
      <trkpt lat="44.4564" lon="6.51829">
        <ele>2551</ele>
        <time>2021-02-21T07:10:47Z</time>
      </trkpt>
      <trkpt lat="44.4564" lon="6.51829">
        <ele>2551</ele>
        <time>2021-02-21T07:10:48Z</time>
      </trkpt>
      <trkpt lat="44.4564" lon="6.51829">
        <ele>2551</ele>
        <time>2021-02-21T07:10:49Z</time>
      </trkpt>
      <trkpt lat="44.4564" lon="6.51829">
        <ele>2551</ele>
        <time>2021-02-21T07:10:50Z</time>
      </trkpt>
      <trkpt lat="44.4564" lon="6.51829">
        <ele>2551</ele>
        <time>2021-02-21T07:10:51Z</time>
      </trkpt>
      <trkpt lat="44.4564" lon="6.51829">
        <ele>2551</ele>
        <time>2021-02-21T07:10:52Z</time>
      </trkpt>
      <trkpt lat="44.45638" lon="6.51828">
        <ele>2551</ele>
        <time>2021-02-21T07:10:53Z</time>
      </trkpt>
      <trkpt lat="44.45638" lon="6.51827">
        <ele>2551</ele>
        <time>2021-02-21T07:10:54Z</time>
      </trkpt>
      <trkpt lat="44.45638" lon="6.51826">
        <ele>2552</ele>
        <time>2021-02-21T07:10:55Z</time>
      </trkpt>
      <trkpt lat="44.45638" lon="6.51825">
        <ele>2552</ele>
        <time>2021-02-21T07:10:56Z</time>
      </trkpt>
      <trkpt lat="44.45639" lon="6.51824">
        <ele>2553</ele>
        <time>2021-02-21T07:10:57Z</time>
      </trkpt>
      <trkpt lat="44.45639" lon="6.51824">
        <ele>2554</ele>
        <time>2021-02-21T07:10:58Z</time>
      </trkpt>
      <trkpt lat="44.45639" lon="6.51824">
        <ele>2554</ele>
        <time>2021-02-21T07:10:59Z</time>
      </trkpt>
      <trkpt lat="44.45639" lon="6.51824">
        <ele>2554</ele>
        <time>2021-02-21T07:11:00Z</time>
      </trkpt>
      <trkpt lat="44.45639" lon="6.51824">
        <ele>2554</ele>
        <time>2021-02-21T07:11:01Z</time>
      </trkpt>
      <trkpt lat="44.45639" lon="6.51824">
        <ele>2554</ele>
        <time>2021-02-21T07:11:02Z</time>
      </trkpt>
      <trkpt lat="44.45639" lon="6.51824">
        <ele>2554</ele>
        <time>2021-02-21T07:11:03Z</time>
      </trkpt>
      <trkpt lat="44.45639" lon="6.51824">
        <ele>2554</ele>
        <time>2021-02-21T07:11:04Z</time>
      </trkpt>
      <trkpt lat="44.45639" lon="6.51824">
        <ele>2554</ele>
        <time>2021-02-21T07:11:05Z</time>
      </trkpt>
      <trkpt lat="44.45639" lon="6.51824">
        <ele>2554</ele>
        <time>2021-02-21T07:11:06Z</time>
      </trkpt>
      <trkpt lat="44.4564" lon="6.51822">
        <ele>2554</ele>
        <time>2021-02-21T07:11:07Z</time>
      </trkpt>
      <trkpt lat="44.4564" lon="6.51822">
        <ele>2554</ele>
        <time>2021-02-21T07:11:08Z</time>
      </trkpt>
      <trkpt lat="44.4564" lon="6.51822">
        <ele>2554</ele>
        <time>2021-02-21T07:11:09Z</time>
      </trkpt>
      <trkpt lat="44.4564" lon="6.51823">
        <ele>2554</ele>
        <time>2021-02-21T07:11:10Z</time>
      </trkpt>
      <trkpt lat="44.4564" lon="6.51823">
        <ele>2554</ele>
        <time>2021-02-21T07:11:11Z</time>
      </trkpt>
      <trkpt lat="44.4564" lon="6.51823">
        <ele>2554</ele>
        <time>2021-02-21T07:11:12Z</time>
      </trkpt>
      <trkpt lat="44.4564" lon="6.51823">
        <ele>2554</ele>
        <time>2021-02-21T07:11:13Z</time>
      </trkpt>
      <trkpt lat="44.4564" lon="6.51823">
        <ele>2554</ele>
        <time>2021-02-21T07:11:14Z</time>
      </trkpt>
      <trkpt lat="44.4564" lon="6.51823">
        <ele>2554</ele>
        <time>2021-02-21T07:11:15Z</time>
      </trkpt>
      <trkpt lat="44.4564" lon="6.51823">
        <ele>2554</ele>
        <time>2021-02-21T07:11:16Z</time>
      </trkpt>
      <trkpt lat="44.4564" lon="6.51823">
        <ele>2554</ele>
        <time>2021-02-21T07:11:17Z</time>
      </trkpt>
      <trkpt lat="44.4564" lon="6.51823">
        <ele>2554</ele>
        <time>2021-02-21T07:11:18Z</time>
      </trkpt>
      <trkpt lat="44.4564" lon="6.51823">
        <ele>2554</ele>
        <time>2021-02-21T07:11:19Z</time>
      </trkpt>
      <trkpt lat="44.4564" lon="6.51823">
        <ele>2554</ele>
        <time>2021-02-21T07:11:20Z</time>
      </trkpt>
      <trkpt lat="44.4564" lon="6.51823">
        <ele>2554</ele>
        <time>2021-02-21T07:11:21Z</time>
      </trkpt>
      <trkpt lat="44.4564" lon="6.51823">
        <ele>2554</ele>
        <time>2021-02-21T07:11:22Z</time>
      </trkpt>
      <trkpt lat="44.4564" lon="6.51823">
        <ele>2554</ele>
        <time>2021-02-21T07:11:23Z</time>
      </trkpt>
      <trkpt lat="44.4564" lon="6.51823">
        <ele>2554</ele>
        <time>2021-02-21T07:11:24Z</time>
      </trkpt>
      <trkpt lat="44.45641" lon="6.51822">
        <ele>2554</ele>
        <time>2021-02-21T07:11:25Z</time>
      </trkpt>
      <trkpt lat="44.45641" lon="6.51822">
        <ele>2554</ele>
        <time>2021-02-21T07:11:26Z</time>
      </trkpt>
      <trkpt lat="44.45642" lon="6.51823">
        <ele>2554</ele>
        <time>2021-02-21T07:11:27Z</time>
      </trkpt>
      <trkpt lat="44.45642" lon="6.51823">
        <ele>2555</ele>
        <time>2021-02-21T07:11:28Z</time>
      </trkpt>
      <trkpt lat="44.45642" lon="6.51823">
        <ele>2556</ele>
        <time>2021-02-21T07:11:29Z</time>
      </trkpt>
      <trkpt lat="44.45642" lon="6.51823">
        <ele>2556</ele>
        <time>2021-02-21T07:11:30Z</time>
      </trkpt>
      <trkpt lat="44.45642" lon="6.51823">
        <ele>2556</ele>
        <time>2021-02-21T07:11:31Z</time>
      </trkpt>
      <trkpt lat="44.45642" lon="6.51823">
        <ele>2556</ele>
        <time>2021-02-21T07:11:32Z</time>
      </trkpt>
      <trkpt lat="44.45642" lon="6.51823">
        <ele>2556</ele>
        <time>2021-02-21T07:11:33Z</time>
      </trkpt>
      <trkpt lat="44.45642" lon="6.51822">
        <ele>2556</ele>
        <time>2021-02-21T07:11:34Z</time>
      </trkpt>
      <trkpt lat="44.45642" lon="6.51821">
        <ele>2556</ele>
        <time>2021-02-21T07:11:35Z</time>
      </trkpt>
      <trkpt lat="44.45642" lon="6.51821">
        <ele>2556</ele>
        <time>2021-02-21T07:11:36Z</time>
      </trkpt>
      <trkpt lat="44.45642" lon="6.51821">
        <ele>2556</ele>
        <time>2021-02-21T07:11:37Z</time>
      </trkpt>
      <trkpt lat="44.45642" lon="6.5182">
        <ele>2557</ele>
        <time>2021-02-21T07:11:38Z</time>
      </trkpt>
      <trkpt lat="44.45642" lon="6.5182">
        <ele>2557</ele>
        <time>2021-02-21T07:11:39Z</time>
      </trkpt>
      <trkpt lat="44.45642" lon="6.5182">
        <ele>2557</ele>
        <time>2021-02-21T07:11:40Z</time>
      </trkpt>
      <trkpt lat="44.45642" lon="6.5182">
        <ele>2557</ele>
        <time>2021-02-21T07:11:41Z</time>
      </trkpt>
      <trkpt lat="44.45642" lon="6.5182">
        <ele>2557</ele>
        <time>2021-02-21T07:11:42Z</time>
      </trkpt>
      <trkpt lat="44.45642" lon="6.5182">
        <ele>2557</ele>
        <time>2021-02-21T07:11:43Z</time>
      </trkpt>
      <trkpt lat="44.45642" lon="6.5182">
        <ele>2557</ele>
        <time>2021-02-21T07:11:44Z</time>
      </trkpt>
      <trkpt lat="44.45642" lon="6.5182">
        <ele>2557</ele>
        <time>2021-02-21T07:11:45Z</time>
      </trkpt>
      <trkpt lat="44.45642" lon="6.5182">
        <ele>2557</ele>
        <time>2021-02-21T07:11:46Z</time>
      </trkpt>
      <trkpt lat="44.45642" lon="6.5182">
        <ele>2557</ele>
        <time>2021-02-21T07:11:47Z</time>
      </trkpt>
      <trkpt lat="44.45642" lon="6.5182">
        <ele>2557</ele>
        <time>2021-02-21T07:11:48Z</time>
      </trkpt>
      <trkpt lat="44.45642" lon="6.5182">
        <ele>2557</ele>
        <time>2021-02-21T07:11:49Z</time>
      </trkpt>
      <trkpt lat="44.45642" lon="6.5182">
        <ele>2557</ele>
        <time>2021-02-21T07:11:50Z</time>
      </trkpt>
      <trkpt lat="44.45642" lon="6.5182">
        <ele>2557</ele>
        <time>2021-02-21T07:11:51Z</time>
      </trkpt>
      <trkpt lat="44.45642" lon="6.5182">
        <ele>2557</ele>
        <time>2021-02-21T07:11:52Z</time>
      </trkpt>
      <trkpt lat="44.45642" lon="6.5182">
        <ele>2557</ele>
        <time>2021-02-21T07:11:53Z</time>
      </trkpt>
      <trkpt lat="44.45642" lon="6.5182">
        <ele>2557</ele>
        <time>2021-02-21T07:11:54Z</time>
      </trkpt>
      <trkpt lat="44.45642" lon="6.5182">
        <ele>2557</ele>
        <time>2021-02-21T07:11:55Z</time>
      </trkpt>
      <trkpt lat="44.45642" lon="6.5182">
        <ele>2557</ele>
        <time>2021-02-21T07:11:56Z</time>
      </trkpt>
      <trkpt lat="44.45642" lon="6.5182">
        <ele>2557</ele>
        <time>2021-02-21T07:11:57Z</time>
      </trkpt>
      <trkpt lat="44.45644" lon="6.51816">
        <ele>2559</ele>
        <time>2021-02-21T07:11:58Z</time>
      </trkpt>
      <trkpt lat="44.45644" lon="6.51816">
        <ele>2560</ele>
        <time>2021-02-21T07:11:59Z</time>
      </trkpt>
      <trkpt lat="44.45644" lon="6.51816">
        <ele>2561</ele>
        <time>2021-02-21T07:12:00Z</time>
      </trkpt>
      <trkpt lat="44.45644" lon="6.51816">
        <ele>2561</ele>
        <time>2021-02-21T07:12:01Z</time>
      </trkpt>
      <trkpt lat="44.45644" lon="6.51816">
        <ele>2561</ele>
        <time>2021-02-21T07:12:02Z</time>
      </trkpt>
      <trkpt lat="44.45644" lon="6.51816">
        <ele>2562</ele>
        <time>2021-02-21T07:12:03Z</time>
      </trkpt>
      <trkpt lat="44.45644" lon="6.51816">
        <ele>2562</ele>
        <time>2021-02-21T07:12:04Z</time>
      </trkpt>
      <trkpt lat="44.45644" lon="6.51816">
        <ele>2562</ele>
        <time>2021-02-21T07:12:05Z</time>
      </trkpt>
      <trkpt lat="44.45645" lon="6.51814">
        <ele>2562</ele>
        <time>2021-02-21T07:12:06Z</time>
      </trkpt>
      <trkpt lat="44.45645" lon="6.51814">
        <ele>2562</ele>
        <time>2021-02-21T07:12:07Z</time>
      </trkpt>
      <trkpt lat="44.45645" lon="6.51814">
        <ele>2563</ele>
        <time>2021-02-21T07:12:08Z</time>
      </trkpt>
      <trkpt lat="44.45645" lon="6.51814">
        <ele>2563</ele>
        <time>2021-02-21T07:12:09Z</time>
      </trkpt>
      <trkpt lat="44.45645" lon="6.51813">
        <ele>2563</ele>
        <time>2021-02-21T07:12:10Z</time>
      </trkpt>
      <trkpt lat="44.45646" lon="6.51813">
        <ele>2563</ele>
        <time>2021-02-21T07:12:11Z</time>
      </trkpt>
      <trkpt lat="44.45646" lon="6.51812">
        <ele>2563</ele>
        <time>2021-02-21T07:12:12Z</time>
      </trkpt>
      <trkpt lat="44.45646" lon="6.51812">
        <ele>2563</ele>
        <time>2021-02-21T07:12:13Z</time>
      </trkpt>
      <trkpt lat="44.45647" lon="6.51812">
        <ele>2565</ele>
        <time>2021-02-21T07:12:14Z</time>
      </trkpt>
      <trkpt lat="44.45647" lon="6.51812">
        <ele>2565</ele>
        <time>2021-02-21T07:12:15Z</time>
      </trkpt>
      <trkpt lat="44.45647" lon="6.51812">
        <ele>2565</ele>
        <time>2021-02-21T07:12:16Z</time>
      </trkpt>
      <trkpt lat="44.45647" lon="6.51812">
        <ele>2565</ele>
        <time>2021-02-21T07:12:17Z</time>
      </trkpt>
      <trkpt lat="44.45647" lon="6.51812">
        <ele>2566</ele>
        <time>2021-02-21T07:12:18Z</time>
      </trkpt>
      <trkpt lat="44.45647" lon="6.51812">
        <ele>2566</ele>
        <time>2021-02-21T07:12:19Z</time>
      </trkpt>
      <trkpt lat="44.45647" lon="6.51812">
        <ele>2566</ele>
        <time>2021-02-21T07:12:20Z</time>
      </trkpt>
      <trkpt lat="44.45647" lon="6.51812">
        <ele>2566</ele>
        <time>2021-02-21T07:12:21Z</time>
      </trkpt>
      <trkpt lat="44.45647" lon="6.51812">
        <ele>2566</ele>
        <time>2021-02-21T07:12:22Z</time>
      </trkpt>
      <trkpt lat="44.45647" lon="6.51812">
        <ele>2566</ele>
        <time>2021-02-21T07:12:23Z</time>
      </trkpt>
      <trkpt lat="44.45647" lon="6.51812">
        <ele>2566</ele>
        <time>2021-02-21T07:12:24Z</time>
      </trkpt>
      <trkpt lat="44.45647" lon="6.51812">
        <ele>2566</ele>
        <time>2021-02-21T07:12:25Z</time>
      </trkpt>
      <trkpt lat="44.45647" lon="6.51812">
        <ele>2566</ele>
        <time>2021-02-21T07:12:26Z</time>
      </trkpt>
      <trkpt lat="44.45647" lon="6.51812">
        <ele>2566</ele>
        <time>2021-02-21T07:12:27Z</time>
      </trkpt>
      <trkpt lat="44.45647" lon="6.51812">
        <ele>2566</ele>
        <time>2021-02-21T07:12:28Z</time>
      </trkpt>
      <trkpt lat="44.45647" lon="6.51812">
        <ele>2566</ele>
        <time>2021-02-21T07:12:29Z</time>
      </trkpt>
      <trkpt lat="44.45647" lon="6.51812">
        <ele>2566</ele>
        <time>2021-02-21T07:12:30Z</time>
      </trkpt>
      <trkpt lat="44.45647" lon="6.51812">
        <ele>2566</ele>
        <time>2021-02-21T07:12:31Z</time>
      </trkpt>
      <trkpt lat="44.45647" lon="6.51812">
        <ele>2566</ele>
        <time>2021-02-21T07:12:32Z</time>
      </trkpt>
      <trkpt lat="44.45647" lon="6.51812">
        <ele>2566</ele>
        <time>2021-02-21T07:12:33Z</time>
      </trkpt>
      <trkpt lat="44.45647" lon="6.51812">
        <ele>2566</ele>
        <time>2021-02-21T07:12:34Z</time>
      </trkpt>
      <trkpt lat="44.45647" lon="6.51812">
        <ele>2566</ele>
        <time>2021-02-21T07:12:35Z</time>
      </trkpt>
      <trkpt lat="44.45646" lon="6.51809">
        <ele>2566</ele>
        <time>2021-02-21T07:12:36Z</time>
      </trkpt>
      <trkpt lat="44.45646" lon="6.51809">
        <ele>2566</ele>
        <time>2021-02-21T07:12:37Z</time>
      </trkpt>
      <trkpt lat="44.45646" lon="6.51808">
        <ele>2566</ele>
        <time>2021-02-21T07:12:38Z</time>
      </trkpt>
      <trkpt lat="44.45645" lon="6.51808">
        <ele>2566</ele>
        <time>2021-02-21T07:12:39Z</time>
      </trkpt>
      <trkpt lat="44.45645" lon="6.51809">
        <ele>2566</ele>
        <time>2021-02-21T07:12:40Z</time>
      </trkpt>
      <trkpt lat="44.45645" lon="6.5181">
        <ele>2566</ele>
        <time>2021-02-21T07:12:41Z</time>
      </trkpt>
      <trkpt lat="44.45645" lon="6.51811">
        <ele>2566</ele>
        <time>2021-02-21T07:12:42Z</time>
      </trkpt>
      <trkpt lat="44.45644" lon="6.51813">
        <ele>2566</ele>
        <time>2021-02-21T07:12:43Z</time>
      </trkpt>
      <trkpt lat="44.45643" lon="6.51814">
        <ele>2570</ele>
        <time>2021-02-21T07:12:44Z</time>
      </trkpt>
      <trkpt lat="44.45643" lon="6.51814">
        <ele>2571</ele>
        <time>2021-02-21T07:12:45Z</time>
      </trkpt>
      <trkpt lat="44.45644" lon="6.51816">
        <ele>2573</ele>
        <time>2021-02-21T07:12:46Z</time>
      </trkpt>
      <trkpt lat="44.45643" lon="6.51816">
        <ele>2574</ele>
        <time>2021-02-21T07:12:47Z</time>
      </trkpt>
      <trkpt lat="44.45643" lon="6.51816">
        <ele>2574</ele>
        <time>2021-02-21T07:12:48Z</time>
      </trkpt>
      <trkpt lat="44.45643" lon="6.51816">
        <ele>2575</ele>
        <time>2021-02-21T07:12:49Z</time>
      </trkpt>
      <trkpt lat="44.45643" lon="6.51816">
        <ele>2575</ele>
        <time>2021-02-21T07:12:50Z</time>
      </trkpt>
      <trkpt lat="44.45643" lon="6.51816">
        <ele>2575</ele>
        <time>2021-02-21T07:12:51Z</time>
      </trkpt>
      <trkpt lat="44.45643" lon="6.51816">
        <ele>2576</ele>
        <time>2021-02-21T07:12:52Z</time>
      </trkpt>
      <trkpt lat="44.45643" lon="6.51816">
        <ele>2576</ele>
        <time>2021-02-21T07:12:53Z</time>
      </trkpt>
      <trkpt lat="44.45643" lon="6.51816">
        <ele>2576</ele>
        <time>2021-02-21T07:12:54Z</time>
      </trkpt>
      <trkpt lat="44.45643" lon="6.51816">
        <ele>2577</ele>
        <time>2021-02-21T07:12:55Z</time>
      </trkpt>
      <trkpt lat="44.45643" lon="6.51816">
        <ele>2577</ele>
        <time>2021-02-21T07:12:56Z</time>
      </trkpt>
      <trkpt lat="44.45643" lon="6.51816">
        <ele>2577</ele>
        <time>2021-02-21T07:12:57Z</time>
      </trkpt>
      <trkpt lat="44.45643" lon="6.51816">
        <ele>2577</ele>
        <time>2021-02-21T07:12:58Z</time>
      </trkpt>
      <trkpt lat="44.45643" lon="6.51816">
        <ele>2577</ele>
        <time>2021-02-21T07:12:59Z</time>
      </trkpt>
      <trkpt lat="44.45643" lon="6.51816">
        <ele>2577</ele>
        <time>2021-02-21T07:13:00Z</time>
      </trkpt>
      <trkpt lat="44.45643" lon="6.51816">
        <ele>2577</ele>
        <time>2021-02-21T07:13:01Z</time>
      </trkpt>
      <trkpt lat="44.45643" lon="6.51816">
        <ele>2577</ele>
        <time>2021-02-21T07:13:02Z</time>
      </trkpt>
      <trkpt lat="44.45643" lon="6.51816">
        <ele>2577</ele>
        <time>2021-02-21T07:13:03Z</time>
      </trkpt>
      <trkpt lat="44.45643" lon="6.51816">
        <ele>2577</ele>
        <time>2021-02-21T07:13:04Z</time>
      </trkpt>
      <trkpt lat="44.45643" lon="6.51816">
        <ele>2577</ele>
        <time>2021-02-21T07:13:05Z</time>
      </trkpt>
      <trkpt lat="44.45642" lon="6.51819">
        <ele>2577</ele>
        <time>2021-02-21T07:13:06Z</time>
      </trkpt>
      <trkpt lat="44.45641" lon="6.51819">
        <ele>2577</ele>
        <time>2021-02-21T07:13:07Z</time>
      </trkpt>
      <trkpt lat="44.45641" lon="6.51819">
        <ele>2577</ele>
        <time>2021-02-21T07:13:08Z</time>
      </trkpt>
      <trkpt lat="44.45641" lon="6.51819">
        <ele>2577</ele>
        <time>2021-02-21T07:13:09Z</time>
      </trkpt>
      <trkpt lat="44.45641" lon="6.5182">
        <ele>2576</ele>
        <time>2021-02-21T07:13:10Z</time>
      </trkpt>
      <trkpt lat="44.45642" lon="6.51819">
        <ele>2576</ele>
        <time>2021-02-21T07:13:11Z</time>
      </trkpt>
      <trkpt lat="44.45642" lon="6.5182">
        <ele>2576</ele>
        <time>2021-02-21T07:13:12Z</time>
      </trkpt>
      <trkpt lat="44.45642" lon="6.51821">
        <ele>2576</ele>
        <time>2021-02-21T07:13:13Z</time>
      </trkpt>
      <trkpt lat="44.45642" lon="6.51822">
        <ele>2576</ele>
        <time>2021-02-21T07:13:14Z</time>
      </trkpt>
      <trkpt lat="44.45642" lon="6.51822">
        <ele>2576</ele>
        <time>2021-02-21T07:13:15Z</time>
      </trkpt>
      <trkpt lat="44.45642" lon="6.51822">
        <ele>2575</ele>
        <time>2021-02-21T07:13:16Z</time>
      </trkpt>
      <trkpt lat="44.45643" lon="6.51821">
        <ele>2575</ele>
        <time>2021-02-21T07:13:17Z</time>
      </trkpt>
      <trkpt lat="44.45642" lon="6.51821">
        <ele>2575</ele>
        <time>2021-02-21T07:13:18Z</time>
      </trkpt>
      <trkpt lat="44.45643" lon="6.5182">
        <ele>2575</ele>
        <time>2021-02-21T07:13:19Z</time>
      </trkpt>
      <trkpt lat="44.45643" lon="6.5182">
        <ele>2575</ele>
        <time>2021-02-21T07:13:20Z</time>
      </trkpt>
      <trkpt lat="44.45643" lon="6.51819">
        <ele>2575</ele>
        <time>2021-02-21T07:13:21Z</time>
      </trkpt>
      <trkpt lat="44.45643" lon="6.51819">
        <ele>2575</ele>
        <time>2021-02-21T07:13:22Z</time>
      </trkpt>
      <trkpt lat="44.45643" lon="6.51819">
        <ele>2575</ele>
        <time>2021-02-21T07:13:23Z</time>
      </trkpt>
      <trkpt lat="44.45643" lon="6.51819">
        <ele>2575</ele>
        <time>2021-02-21T07:13:24Z</time>
      </trkpt>
      <trkpt lat="44.45643" lon="6.51819">
        <ele>2575</ele>
        <time>2021-02-21T07:13:25Z</time>
      </trkpt>
      <trkpt lat="44.45643" lon="6.51819">
        <ele>2574</ele>
        <time>2021-02-21T07:13:26Z</time>
      </trkpt>
      <trkpt lat="44.45643" lon="6.51819">
        <ele>2574</ele>
        <time>2021-02-21T07:13:27Z</time>
      </trkpt>
      <trkpt lat="44.45643" lon="6.51819">
        <ele>2574</ele>
        <time>2021-02-21T07:13:28Z</time>
      </trkpt>
      <trkpt lat="44.45643" lon="6.51819">
        <ele>2574</ele>
        <time>2021-02-21T07:13:29Z</time>
      </trkpt>
      <trkpt lat="44.45643" lon="6.51819">
        <ele>2574</ele>
        <time>2021-02-21T07:13:30Z</time>
      </trkpt>
      <trkpt lat="44.45643" lon="6.51819">
        <ele>2574</ele>
        <time>2021-02-21T07:13:31Z</time>
      </trkpt>
      <trkpt lat="44.45643" lon="6.51819">
        <ele>2574</ele>
        <time>2021-02-21T07:13:32Z</time>
      </trkpt>
      <trkpt lat="44.45643" lon="6.51819">
        <ele>2574</ele>
        <time>2021-02-21T07:13:33Z</time>
      </trkpt>
      <trkpt lat="44.45643" lon="6.51819">
        <ele>2574</ele>
        <time>2021-02-21T07:13:34Z</time>
      </trkpt>
      <trkpt lat="44.45643" lon="6.51819">
        <ele>2574</ele>
        <time>2021-02-21T07:13:35Z</time>
      </trkpt>
      <trkpt lat="44.45643" lon="6.51819">
        <ele>2574</ele>
        <time>2021-02-21T07:13:36Z</time>
      </trkpt>
      <trkpt lat="44.45647" lon="6.51813">
        <ele>2573</ele>
        <time>2021-02-21T07:13:37Z</time>
      </trkpt>
      <trkpt lat="44.45646" lon="6.51812">
        <ele>2572</ele>
        <time>2021-02-21T07:13:38Z</time>
      </trkpt>
      <trkpt lat="44.45646" lon="6.51811">
        <ele>2572</ele>
        <time>2021-02-21T07:13:39Z</time>
      </trkpt>
      <trkpt lat="44.45646" lon="6.51809">
        <ele>2572</ele>
        <time>2021-02-21T07:13:40Z</time>
      </trkpt>
      <trkpt lat="44.45647" lon="6.51809">
        <ele>2572</ele>
        <time>2021-02-21T07:13:41Z</time>
      </trkpt>
      <trkpt lat="44.45647" lon="6.51808">
        <ele>2572</ele>
        <time>2021-02-21T07:13:42Z</time>
      </trkpt>
      <trkpt lat="44.45647" lon="6.51807">
        <ele>2572</ele>
        <time>2021-02-21T07:13:43Z</time>
      </trkpt>
      <trkpt lat="44.45647" lon="6.51807">
        <ele>2571</ele>
        <time>2021-02-21T07:13:44Z</time>
      </trkpt>
      <trkpt lat="44.45647" lon="6.51807">
        <ele>2571</ele>
        <time>2021-02-21T07:13:45Z</time>
      </trkpt>
      <trkpt lat="44.45647" lon="6.51807">
        <ele>2571</ele>
        <time>2021-02-21T07:13:46Z</time>
      </trkpt>
      <trkpt lat="44.45647" lon="6.51807">
        <ele>2571</ele>
        <time>2021-02-21T07:13:47Z</time>
      </trkpt>
      <trkpt lat="44.45646" lon="6.51807">
        <ele>2571</ele>
        <time>2021-02-21T07:13:48Z</time>
      </trkpt>
      <trkpt lat="44.45646" lon="6.51807">
        <ele>2572</ele>
        <time>2021-02-21T07:13:49Z</time>
      </trkpt>
      <trkpt lat="44.45646" lon="6.51807">
        <ele>2572</ele>
        <time>2021-02-21T07:13:50Z</time>
      </trkpt>
      <trkpt lat="44.45646" lon="6.51806">
        <ele>2572</ele>
        <time>2021-02-21T07:13:51Z</time>
      </trkpt>
      <trkpt lat="44.45646" lon="6.51806">
        <ele>2572</ele>
        <time>2021-02-21T07:13:52Z</time>
      </trkpt>
      <trkpt lat="44.45645" lon="6.51805">
        <ele>2572</ele>
        <time>2021-02-21T07:13:53Z</time>
      </trkpt>
      <trkpt lat="44.45645" lon="6.51805">
        <ele>2572</ele>
        <time>2021-02-21T07:13:54Z</time>
      </trkpt>
      <trkpt lat="44.45645" lon="6.51804">
        <ele>2572</ele>
        <time>2021-02-21T07:13:55Z</time>
      </trkpt>
      <trkpt lat="44.45646" lon="6.51805">
        <ele>2572</ele>
        <time>2021-02-21T07:13:56Z</time>
      </trkpt>
      <trkpt lat="44.45646" lon="6.51804">
        <ele>2572</ele>
        <time>2021-02-21T07:13:57Z</time>
      </trkpt>
      <trkpt lat="44.45647" lon="6.51805">
        <ele>2572</ele>
        <time>2021-02-21T07:13:58Z</time>
      </trkpt>
      <trkpt lat="44.45648" lon="6.51804">
        <ele>2572</ele>
        <time>2021-02-21T07:13:59Z</time>
      </trkpt>
      <trkpt lat="44.45648" lon="6.51804">
        <ele>2572</ele>
        <time>2021-02-21T07:14:00Z</time>
      </trkpt>
      <trkpt lat="44.45649" lon="6.51804">
        <ele>2572</ele>
        <time>2021-02-21T07:14:01Z</time>
      </trkpt>
      <trkpt lat="44.45649" lon="6.51804">
        <ele>2572</ele>
        <time>2021-02-21T07:14:02Z</time>
      </trkpt>
      <trkpt lat="44.45648" lon="6.51803">
        <ele>2572</ele>
        <time>2021-02-21T07:14:03Z</time>
      </trkpt>
      <trkpt lat="44.45648" lon="6.51802">
        <ele>2572</ele>
        <time>2021-02-21T07:14:04Z</time>
      </trkpt>
      <trkpt lat="44.45648" lon="6.51802">
        <ele>2572</ele>
        <time>2021-02-21T07:14:05Z</time>
      </trkpt>
      <trkpt lat="44.45648" lon="6.51802">
        <ele>2572</ele>
        <time>2021-02-21T07:14:06Z</time>
      </trkpt>
      <trkpt lat="44.45648" lon="6.51801">
        <ele>2572</ele>
        <time>2021-02-21T07:14:07Z</time>
      </trkpt>
      <trkpt lat="44.45648" lon="6.51801">
        <ele>2573</ele>
        <time>2021-02-21T07:14:08Z</time>
      </trkpt>
      <trkpt lat="44.45648" lon="6.518">
        <ele>2574</ele>
        <time>2021-02-21T07:14:09Z</time>
      </trkpt>
      <trkpt lat="44.45648" lon="6.51799">
        <ele>2574</ele>
        <time>2021-02-21T07:14:10Z</time>
      </trkpt>
      <trkpt lat="44.45648" lon="6.51799">
        <ele>2574</ele>
        <time>2021-02-21T07:14:11Z</time>
      </trkpt>
      <trkpt lat="44.45648" lon="6.51799">
        <ele>2574</ele>
        <time>2021-02-21T07:14:12Z</time>
      </trkpt>
      <trkpt lat="44.45648" lon="6.51799">
        <ele>2574</ele>
        <time>2021-02-21T07:14:13Z</time>
      </trkpt>
      <trkpt lat="44.45648" lon="6.518">
        <ele>2574</ele>
        <time>2021-02-21T07:14:14Z</time>
      </trkpt>
      <trkpt lat="44.45648" lon="6.518">
        <ele>2574</ele>
        <time>2021-02-21T07:14:15Z</time>
      </trkpt>
      <trkpt lat="44.45647" lon="6.518">
        <ele>2574</ele>
        <time>2021-02-21T07:14:16Z</time>
      </trkpt>
      <trkpt lat="44.45648" lon="6.518">
        <ele>2574</ele>
        <time>2021-02-21T07:14:17Z</time>
      </trkpt>
      <trkpt lat="44.45648" lon="6.51801">
        <ele>2574</ele>
        <time>2021-02-21T07:14:18Z</time>
      </trkpt>
      <trkpt lat="44.45648" lon="6.51801">
        <ele>2574</ele>
        <time>2021-02-21T07:14:19Z</time>
      </trkpt>
      <trkpt lat="44.45647" lon="6.518">
        <ele>2574</ele>
        <time>2021-02-21T07:14:20Z</time>
      </trkpt>
      <trkpt lat="44.45647" lon="6.518">
        <ele>2575</ele>
        <time>2021-02-21T07:14:21Z</time>
      </trkpt>
      <trkpt lat="44.45647" lon="6.518">
        <ele>2575</ele>
        <time>2021-02-21T07:14:22Z</time>
      </trkpt>
      <trkpt lat="44.45647" lon="6.518">
        <ele>2575</ele>
        <time>2021-02-21T07:14:23Z</time>
      </trkpt>
      <trkpt lat="44.45646" lon="6.51799">
        <ele>2575</ele>
        <time>2021-02-21T07:14:24Z</time>
      </trkpt>
      <trkpt lat="44.45646" lon="6.51799">
        <ele>2575</ele>
        <time>2021-02-21T07:14:25Z</time>
      </trkpt>
      <trkpt lat="44.45646" lon="6.51799">
        <ele>2575</ele>
        <time>2021-02-21T07:14:26Z</time>
      </trkpt>
      <trkpt lat="44.45646" lon="6.51799">
        <ele>2575</ele>
        <time>2021-02-21T07:14:27Z</time>
      </trkpt>
      <trkpt lat="44.45646" lon="6.51799">
        <ele>2575</ele>
        <time>2021-02-21T07:14:28Z</time>
      </trkpt>
      <trkpt lat="44.45646" lon="6.51799">
        <ele>2575</ele>
        <time>2021-02-21T07:14:29Z</time>
      </trkpt>
      <trkpt lat="44.45646" lon="6.51799">
        <ele>2575</ele>
        <time>2021-02-21T07:14:30Z</time>
      </trkpt>
      <trkpt lat="44.45646" lon="6.51799">
        <ele>2575</ele>
        <time>2021-02-21T07:14:31Z</time>
      </trkpt>
      <trkpt lat="44.45646" lon="6.51799">
        <ele>2575</ele>
        <time>2021-02-21T07:14:32Z</time>
      </trkpt>
      <trkpt lat="44.45646" lon="6.51799">
        <ele>2575</ele>
        <time>2021-02-21T07:14:33Z</time>
      </trkpt>
      <trkpt lat="44.45646" lon="6.51799">
        <ele>2575</ele>
        <time>2021-02-21T07:14:34Z</time>
      </trkpt>
      <trkpt lat="44.45648" lon="6.51799">
        <ele>2575</ele>
        <time>2021-02-21T07:14:35Z</time>
      </trkpt>
      <trkpt lat="44.45648" lon="6.518">
        <ele>2575</ele>
        <time>2021-02-21T07:14:36Z</time>
      </trkpt>
      <trkpt lat="44.45648" lon="6.518">
        <ele>2576</ele>
        <time>2021-02-21T07:14:37Z</time>
      </trkpt>
      <trkpt lat="44.45648" lon="6.518">
        <ele>2576</ele>
        <time>2021-02-21T07:14:38Z</time>
      </trkpt>
      <trkpt lat="44.45648" lon="6.518">
        <ele>2576</ele>
        <time>2021-02-21T07:14:39Z</time>
      </trkpt>
      <trkpt lat="44.45648" lon="6.518">
        <ele>2576</ele>
        <time>2021-02-21T07:14:40Z</time>
      </trkpt>
      <trkpt lat="44.45648" lon="6.518">
        <ele>2576</ele>
        <time>2021-02-21T07:14:41Z</time>
      </trkpt>
      <trkpt lat="44.45648" lon="6.518">
        <ele>2576</ele>
        <time>2021-02-21T07:14:42Z</time>
      </trkpt>
      <trkpt lat="44.45648" lon="6.518">
        <ele>2576</ele>
        <time>2021-02-21T07:14:43Z</time>
      </trkpt>
      <trkpt lat="44.45648" lon="6.518">
        <ele>2576</ele>
        <time>2021-02-21T07:14:44Z</time>
      </trkpt>
      <trkpt lat="44.45648" lon="6.518">
        <ele>2576</ele>
        <time>2021-02-21T07:14:45Z</time>
      </trkpt>
      <trkpt lat="44.45648" lon="6.518">
        <ele>2576</ele>
        <time>2021-02-21T07:14:46Z</time>
      </trkpt>
      <trkpt lat="44.45648" lon="6.518">
        <ele>2576</ele>
        <time>2021-02-21T07:14:47Z</time>
      </trkpt>
      <trkpt lat="44.45648" lon="6.51799">
        <ele>2576</ele>
        <time>2021-02-21T07:14:48Z</time>
      </trkpt>
      <trkpt lat="44.45648" lon="6.51798">
        <ele>2576</ele>
        <time>2021-02-21T07:14:49Z</time>
      </trkpt>
      <trkpt lat="44.45649" lon="6.51798">
        <ele>2577</ele>
        <time>2021-02-21T07:14:50Z</time>
      </trkpt>
      <trkpt lat="44.45649" lon="6.51799">
        <ele>2577</ele>
        <time>2021-02-21T07:14:51Z</time>
      </trkpt>
      <trkpt lat="44.45649" lon="6.51799">
        <ele>2577</ele>
        <time>2021-02-21T07:14:52Z</time>
      </trkpt>
      <trkpt lat="44.45649" lon="6.51799">
        <ele>2577</ele>
        <time>2021-02-21T07:14:53Z</time>
      </trkpt>
      <trkpt lat="44.45649" lon="6.51799">
        <ele>2577</ele>
        <time>2021-02-21T07:14:54Z</time>
      </trkpt>
      <trkpt lat="44.45649" lon="6.51799">
        <ele>2577</ele>
        <time>2021-02-21T07:14:55Z</time>
      </trkpt>
      <trkpt lat="44.45649" lon="6.51799">
        <ele>2577</ele>
        <time>2021-02-21T07:14:56Z</time>
      </trkpt>
      <trkpt lat="44.45649" lon="6.51799">
        <ele>2577</ele>
        <time>2021-02-21T07:14:57Z</time>
      </trkpt>
      <trkpt lat="44.45649" lon="6.51799">
        <ele>2577</ele>
        <time>2021-02-21T07:14:58Z</time>
      </trkpt>
      <trkpt lat="44.45649" lon="6.51799">
        <ele>2577</ele>
        <time>2021-02-21T07:14:59Z</time>
      </trkpt>
      <trkpt lat="44.45653" lon="6.51798">
        <ele>2579</ele>
        <time>2021-02-21T07:15:00Z</time>
      </trkpt>
      <trkpt lat="44.45653" lon="6.51797">
        <ele>2579</ele>
        <time>2021-02-21T07:15:01Z</time>
      </trkpt>
      <trkpt lat="44.45653" lon="6.51795">
        <ele>2580</ele>
        <time>2021-02-21T07:15:02Z</time>
      </trkpt>
      <trkpt lat="44.45653" lon="6.51793">
        <ele>2580</ele>
        <time>2021-02-21T07:15:03Z</time>
      </trkpt>
      <trkpt lat="44.45653" lon="6.51792">
        <ele>2580</ele>
        <time>2021-02-21T07:15:04Z</time>
      </trkpt>
      <trkpt lat="44.45653" lon="6.51792">
        <ele>2580</ele>
        <time>2021-02-21T07:15:05Z</time>
      </trkpt>
      <trkpt lat="44.45653" lon="6.5179">
        <ele>2581</ele>
        <time>2021-02-21T07:15:06Z</time>
      </trkpt>
      <trkpt lat="44.45652" lon="6.51791">
        <ele>2581</ele>
        <time>2021-02-21T07:15:07Z</time>
      </trkpt>
      <trkpt lat="44.45652" lon="6.51792">
        <ele>2581</ele>
        <time>2021-02-21T07:15:08Z</time>
      </trkpt>
      <trkpt lat="44.45652" lon="6.51791">
        <ele>2581</ele>
        <time>2021-02-21T07:15:09Z</time>
      </trkpt>
      <trkpt lat="44.45652" lon="6.51789">
        <ele>2581</ele>
        <time>2021-02-21T07:15:10Z</time>
      </trkpt>
      <trkpt lat="44.45652" lon="6.51788">
        <ele>2581</ele>
        <time>2021-02-21T07:15:11Z</time>
      </trkpt>
      <trkpt lat="44.45652" lon="6.51788">
        <ele>2581</ele>
        <time>2021-02-21T07:15:12Z</time>
      </trkpt>
      <trkpt lat="44.45652" lon="6.51788">
        <ele>2581</ele>
        <time>2021-02-21T07:15:13Z</time>
      </trkpt>
      <trkpt lat="44.45652" lon="6.51787">
        <ele>2581</ele>
        <time>2021-02-21T07:15:14Z</time>
      </trkpt>
      <trkpt lat="44.45653" lon="6.51787">
        <ele>2581</ele>
        <time>2021-02-21T07:15:15Z</time>
      </trkpt>
      <trkpt lat="44.45654" lon="6.51787">
        <ele>2581</ele>
        <time>2021-02-21T07:15:16Z</time>
      </trkpt>
      <trkpt lat="44.45654" lon="6.51788">
        <ele>2581</ele>
        <time>2021-02-21T07:15:17Z</time>
      </trkpt>
      <trkpt lat="44.45654" lon="6.51788">
        <ele>2581</ele>
        <time>2021-02-21T07:15:18Z</time>
      </trkpt>
      <trkpt lat="44.45654" lon="6.5179">
        <ele>2581</ele>
        <time>2021-02-21T07:15:19Z</time>
      </trkpt>
      <trkpt lat="44.45654" lon="6.51791">
        <ele>2581</ele>
        <time>2021-02-21T07:15:20Z</time>
      </trkpt>
      <trkpt lat="44.45655" lon="6.51792">
        <ele>2581</ele>
        <time>2021-02-21T07:15:21Z</time>
      </trkpt>
      <trkpt lat="44.45655" lon="6.51793">
        <ele>2581</ele>
        <time>2021-02-21T07:15:22Z</time>
      </trkpt>
      <trkpt lat="44.45655" lon="6.51792">
        <ele>2581</ele>
        <time>2021-02-21T07:15:23Z</time>
      </trkpt>
      <trkpt lat="44.45655" lon="6.51791">
        <ele>2581</ele>
        <time>2021-02-21T07:15:24Z</time>
      </trkpt>
      <trkpt lat="44.45655" lon="6.51791">
        <ele>2581</ele>
        <time>2021-02-21T07:15:25Z</time>
      </trkpt>
      <trkpt lat="44.45655" lon="6.51791">
        <ele>2581</ele>
        <time>2021-02-21T07:15:26Z</time>
      </trkpt>
      <trkpt lat="44.45655" lon="6.51792">
        <ele>2581</ele>
        <time>2021-02-21T07:15:27Z</time>
      </trkpt>
      <trkpt lat="44.45655" lon="6.51794">
        <ele>2581</ele>
        <time>2021-02-21T07:15:28Z</time>
      </trkpt>
      <trkpt lat="44.45655" lon="6.51795">
        <ele>2582</ele>
        <time>2021-02-21T07:15:29Z</time>
      </trkpt>
      <trkpt lat="44.45654" lon="6.51794">
        <ele>2582</ele>
        <time>2021-02-21T07:15:30Z</time>
      </trkpt>
      <trkpt lat="44.45654" lon="6.51794">
        <ele>2583</ele>
        <time>2021-02-21T07:15:31Z</time>
      </trkpt>
      <trkpt lat="44.45653" lon="6.51793">
        <ele>2584</ele>
        <time>2021-02-21T07:15:32Z</time>
      </trkpt>
      <trkpt lat="44.45654" lon="6.51792">
        <ele>2584</ele>
        <time>2021-02-21T07:15:33Z</time>
      </trkpt>
      <trkpt lat="44.45653" lon="6.51791">
        <ele>2585</ele>
        <time>2021-02-21T07:15:34Z</time>
      </trkpt>
      <trkpt lat="44.45652" lon="6.51791">
        <ele>2585</ele>
        <time>2021-02-21T07:15:35Z</time>
      </trkpt>
      <trkpt lat="44.45652" lon="6.51792">
        <ele>2586</ele>
        <time>2021-02-21T07:15:36Z</time>
      </trkpt>
      <trkpt lat="44.45651" lon="6.51793">
        <ele>2586</ele>
        <time>2021-02-21T07:15:37Z</time>
      </trkpt>
      <trkpt lat="44.45651" lon="6.51793">
        <ele>2587</ele>
        <time>2021-02-21T07:15:38Z</time>
      </trkpt>
      <trkpt lat="44.45651" lon="6.51793">
        <ele>2588</ele>
        <time>2021-02-21T07:15:39Z</time>
      </trkpt>
      <trkpt lat="44.4565" lon="6.51794">
        <ele>2588</ele>
        <time>2021-02-21T07:15:40Z</time>
      </trkpt>
      <trkpt lat="44.4565" lon="6.51794">
        <ele>2589</ele>
        <time>2021-02-21T07:15:41Z</time>
      </trkpt>
      <trkpt lat="44.45651" lon="6.51794">
        <ele>2589</ele>
        <time>2021-02-21T07:15:42Z</time>
      </trkpt>
      <trkpt lat="44.4565" lon="6.51794">
        <ele>2590</ele>
        <time>2021-02-21T07:15:43Z</time>
      </trkpt>
      <trkpt lat="44.4565" lon="6.51795">
        <ele>2595</ele>
        <time>2021-02-21T07:15:44Z</time>
      </trkpt>
      <trkpt lat="44.45649" lon="6.51796">
        <ele>2597</ele>
        <time>2021-02-21T07:15:45Z</time>
      </trkpt>
      <trkpt lat="44.45649" lon="6.51796">
        <ele>2598</ele>
        <time>2021-02-21T07:15:46Z</time>
      </trkpt>
      <trkpt lat="44.45649" lon="6.51796">
        <ele>2599</ele>
        <time>2021-02-21T07:15:47Z</time>
      </trkpt>
      <trkpt lat="44.45649" lon="6.51796">
        <ele>2600</ele>
        <time>2021-02-21T07:15:48Z</time>
      </trkpt>
      <trkpt lat="44.45649" lon="6.51796">
        <ele>2600</ele>
        <time>2021-02-21T07:15:49Z</time>
      </trkpt>
      <trkpt lat="44.45648" lon="6.51797">
        <ele>2601</ele>
        <time>2021-02-21T07:15:50Z</time>
      </trkpt>
      <trkpt lat="44.45649" lon="6.51797">
        <ele>2601</ele>
        <time>2021-02-21T07:15:51Z</time>
      </trkpt>
      <trkpt lat="44.45649" lon="6.51797">
        <ele>2601</ele>
        <time>2021-02-21T07:15:52Z</time>
      </trkpt>
      <trkpt lat="44.45648" lon="6.51798">
        <ele>2601</ele>
        <time>2021-02-21T07:15:53Z</time>
      </trkpt>
      <trkpt lat="44.45648" lon="6.51798">
        <ele>2601</ele>
        <time>2021-02-21T07:15:54Z</time>
      </trkpt>
      <trkpt lat="44.45649" lon="6.51799">
        <ele>2602</ele>
        <time>2021-02-21T07:15:55Z</time>
      </trkpt>
      <trkpt lat="44.45648" lon="6.51799">
        <ele>2602</ele>
        <time>2021-02-21T07:15:56Z</time>
      </trkpt>
      <trkpt lat="44.45648" lon="6.518">
        <ele>2602</ele>
        <time>2021-02-21T07:15:57Z</time>
      </trkpt>
      <trkpt lat="44.45649" lon="6.518">
        <ele>2602</ele>
        <time>2021-02-21T07:15:58Z</time>
      </trkpt>
      <trkpt lat="44.45649" lon="6.51799">
        <ele>2602</ele>
        <time>2021-02-21T07:15:59Z</time>
      </trkpt>
      <trkpt lat="44.45649" lon="6.51799">
        <ele>2602</ele>
        <time>2021-02-21T07:16:00Z</time>
      </trkpt>
      <trkpt lat="44.4565" lon="6.51799">
        <ele>2603</ele>
        <time>2021-02-21T07:16:01Z</time>
      </trkpt>
      <trkpt lat="44.4565" lon="6.51798">
        <ele>2603</ele>
        <time>2021-02-21T07:16:02Z</time>
      </trkpt>
      <trkpt lat="44.4565" lon="6.51799">
        <ele>2603</ele>
        <time>2021-02-21T07:16:03Z</time>
      </trkpt>
      <trkpt lat="44.4565" lon="6.51798">
        <ele>2603</ele>
        <time>2021-02-21T07:16:04Z</time>
      </trkpt>
      <trkpt lat="44.4565" lon="6.51797">
        <ele>2603</ele>
        <time>2021-02-21T07:16:05Z</time>
      </trkpt>
      <trkpt lat="44.4565" lon="6.51796">
        <ele>2603</ele>
        <time>2021-02-21T07:16:06Z</time>
      </trkpt>
      <trkpt lat="44.4565" lon="6.51796">
        <ele>2603</ele>
        <time>2021-02-21T07:16:07Z</time>
      </trkpt>
      <trkpt lat="44.45651" lon="6.51796">
        <ele>2603</ele>
        <time>2021-02-21T07:16:08Z</time>
      </trkpt>
      <trkpt lat="44.45651" lon="6.51795">
        <ele>2603</ele>
        <time>2021-02-21T07:16:09Z</time>
      </trkpt>
      <trkpt lat="44.45651" lon="6.51794">
        <ele>2603</ele>
        <time>2021-02-21T07:16:10Z</time>
      </trkpt>
      <trkpt lat="44.45652" lon="6.51791">
        <ele>2603</ele>
        <time>2021-02-21T07:16:11Z</time>
      </trkpt>
      <trkpt lat="44.45652" lon="6.5179">
        <ele>2603</ele>
        <time>2021-02-21T07:16:12Z</time>
      </trkpt>
      <trkpt lat="44.45652" lon="6.5179">
        <ele>2603</ele>
        <time>2021-02-21T07:16:13Z</time>
      </trkpt>
      <trkpt lat="44.45652" lon="6.51791">
        <ele>2602</ele>
        <time>2021-02-21T07:16:14Z</time>
      </trkpt>
      <trkpt lat="44.45652" lon="6.51789">
        <ele>2602</ele>
        <time>2021-02-21T07:16:15Z</time>
      </trkpt>
      <trkpt lat="44.45651" lon="6.51789">
        <ele>2599</ele>
        <time>2021-02-21T07:16:16Z</time>
      </trkpt>
      <trkpt lat="44.45651" lon="6.51788">
        <ele>2597</ele>
        <time>2021-02-21T07:16:17Z</time>
      </trkpt>
      <trkpt lat="44.45651" lon="6.51788">
        <ele>2596</ele>
        <time>2021-02-21T07:16:18Z</time>
      </trkpt>
      <trkpt lat="44.45651" lon="6.51787">
        <ele>2596</ele>
        <time>2021-02-21T07:16:19Z</time>
      </trkpt>
      <trkpt lat="44.45651" lon="6.51787">
        <ele>2595</ele>
        <time>2021-02-21T07:16:20Z</time>
      </trkpt>
      <trkpt lat="44.45651" lon="6.51787">
        <ele>2595</ele>
        <time>2021-02-21T07:16:21Z</time>
      </trkpt>
      <trkpt lat="44.4565" lon="6.51787">
        <ele>2594</ele>
        <time>2021-02-21T07:16:22Z</time>
      </trkpt>
      <trkpt lat="44.4565" lon="6.51787">
        <ele>2594</ele>
        <time>2021-02-21T07:16:23Z</time>
      </trkpt>
      <trkpt lat="44.45651" lon="6.51787">
        <ele>2594</ele>
        <time>2021-02-21T07:16:24Z</time>
      </trkpt>
      <trkpt lat="44.45651" lon="6.51787">
        <ele>2593</ele>
        <time>2021-02-21T07:16:25Z</time>
      </trkpt>
      <trkpt lat="44.45651" lon="6.51787">
        <ele>2593</ele>
        <time>2021-02-21T07:16:26Z</time>
      </trkpt>
      <trkpt lat="44.45651" lon="6.51787">
        <ele>2592</ele>
        <time>2021-02-21T07:16:27Z</time>
      </trkpt>
      <trkpt lat="44.45651" lon="6.51786">
        <ele>2592</ele>
        <time>2021-02-21T07:16:28Z</time>
      </trkpt>
      <trkpt lat="44.45652" lon="6.51786">
        <ele>2592</ele>
        <time>2021-02-21T07:16:29Z</time>
      </trkpt>
      <trkpt lat="44.45652" lon="6.51786">
        <ele>2591</ele>
        <time>2021-02-21T07:16:30Z</time>
      </trkpt>
      <trkpt lat="44.45652" lon="6.51786">
        <ele>2591</ele>
        <time>2021-02-21T07:16:31Z</time>
      </trkpt>
      <trkpt lat="44.45652" lon="6.51786">
        <ele>2591</ele>
        <time>2021-02-21T07:16:32Z</time>
      </trkpt>
      <trkpt lat="44.45652" lon="6.51786">
        <ele>2591</ele>
        <time>2021-02-21T07:16:33Z</time>
      </trkpt>
      <trkpt lat="44.45653" lon="6.51786">
        <ele>2591</ele>
        <time>2021-02-21T07:16:34Z</time>
      </trkpt>
      <trkpt lat="44.45653" lon="6.51785">
        <ele>2590</ele>
        <time>2021-02-21T07:16:35Z</time>
      </trkpt>
      <trkpt lat="44.45653" lon="6.51785">
        <ele>2590</ele>
        <time>2021-02-21T07:16:36Z</time>
      </trkpt>
      <trkpt lat="44.45653" lon="6.51785">
        <ele>2590</ele>
        <time>2021-02-21T07:16:37Z</time>
      </trkpt>
      <trkpt lat="44.45653" lon="6.51785">
        <ele>2590</ele>
        <time>2021-02-21T07:16:38Z</time>
      </trkpt>
      <trkpt lat="44.45652" lon="6.51784">
        <ele>2590</ele>
        <time>2021-02-21T07:16:39Z</time>
      </trkpt>
      <trkpt lat="44.45652" lon="6.51784">
        <ele>2589</ele>
        <time>2021-02-21T07:16:40Z</time>
      </trkpt>
      <trkpt lat="44.45652" lon="6.51783">
        <ele>2589</ele>
        <time>2021-02-21T07:16:41Z</time>
      </trkpt>
      <trkpt lat="44.45652" lon="6.51783">
        <ele>2589</ele>
        <time>2021-02-21T07:16:42Z</time>
      </trkpt>
      <trkpt lat="44.45652" lon="6.51783">
        <ele>2589</ele>
        <time>2021-02-21T07:16:43Z</time>
      </trkpt>
      <trkpt lat="44.45652" lon="6.51783">
        <ele>2589</ele>
        <time>2021-02-21T07:16:44Z</time>
      </trkpt>
      <trkpt lat="44.45652" lon="6.51783">
        <ele>2589</ele>
        <time>2021-02-21T07:16:45Z</time>
      </trkpt>
      <trkpt lat="44.45652" lon="6.51783">
        <ele>2589</ele>
        <time>2021-02-21T07:16:46Z</time>
      </trkpt>
      <trkpt lat="44.45653" lon="6.51782">
        <ele>2587</ele>
        <time>2021-02-21T07:16:47Z</time>
      </trkpt>
      <trkpt lat="44.45653" lon="6.51782">
        <ele>2586</ele>
        <time>2021-02-21T07:16:48Z</time>
      </trkpt>
      <trkpt lat="44.45653" lon="6.51782">
        <ele>2586</ele>
        <time>2021-02-21T07:16:49Z</time>
      </trkpt>
      <trkpt lat="44.45651" lon="6.51778">
        <ele>2586</ele>
        <time>2021-02-21T07:16:50Z</time>
      </trkpt>
      <trkpt lat="44.45651" lon="6.51777">
        <ele>2585</ele>
        <time>2021-02-21T07:16:51Z</time>
      </trkpt>
      <trkpt lat="44.45651" lon="6.51777">
        <ele>2585</ele>
        <time>2021-02-21T07:16:52Z</time>
      </trkpt>
      <trkpt lat="44.45651" lon="6.51776">
        <ele>2585</ele>
        <time>2021-02-21T07:16:53Z</time>
      </trkpt>
      <trkpt lat="44.45651" lon="6.51775">
        <ele>2585</ele>
        <time>2021-02-21T07:16:54Z</time>
      </trkpt>
      <trkpt lat="44.45652" lon="6.51774">
        <ele>2585</ele>
        <time>2021-02-21T07:16:55Z</time>
      </trkpt>
      <trkpt lat="44.45652" lon="6.51774">
        <ele>2585</ele>
        <time>2021-02-21T07:16:56Z</time>
      </trkpt>
      <trkpt lat="44.45652" lon="6.51773">
        <ele>2585</ele>
        <time>2021-02-21T07:16:57Z</time>
      </trkpt>
      <trkpt lat="44.45652" lon="6.51773">
        <ele>2585</ele>
        <time>2021-02-21T07:16:58Z</time>
      </trkpt>
      <trkpt lat="44.45652" lon="6.51774">
        <ele>2585</ele>
        <time>2021-02-21T07:16:59Z</time>
      </trkpt>
      <trkpt lat="44.45652" lon="6.51774">
        <ele>2585</ele>
        <time>2021-02-21T07:17:00Z</time>
      </trkpt>
      <trkpt lat="44.45652" lon="6.51774">
        <ele>2585</ele>
        <time>2021-02-21T07:17:01Z</time>
      </trkpt>
      <trkpt lat="44.45652" lon="6.51774">
        <ele>2585</ele>
        <time>2021-02-21T07:17:02Z</time>
      </trkpt>
      <trkpt lat="44.45653" lon="6.51775">
        <ele>2585</ele>
        <time>2021-02-21T07:17:03Z</time>
      </trkpt>
      <trkpt lat="44.45654" lon="6.51775">
        <ele>2586</ele>
        <time>2021-02-21T07:17:04Z</time>
      </trkpt>
      <trkpt lat="44.45654" lon="6.51776">
        <ele>2586</ele>
        <time>2021-02-21T07:17:05Z</time>
      </trkpt>
      <trkpt lat="44.45655" lon="6.51776">
        <ele>2586</ele>
        <time>2021-02-21T07:17:06Z</time>
      </trkpt>
      <trkpt lat="44.45654" lon="6.51777">
        <ele>2586</ele>
        <time>2021-02-21T07:17:07Z</time>
      </trkpt>
      <trkpt lat="44.45654" lon="6.51777">
        <ele>2586</ele>
        <time>2021-02-21T07:17:08Z</time>
      </trkpt>
      <trkpt lat="44.45654" lon="6.51777">
        <ele>2586</ele>
        <time>2021-02-21T07:17:09Z</time>
      </trkpt>
      <trkpt lat="44.45654" lon="6.51777">
        <ele>2586</ele>
        <time>2021-02-21T07:17:10Z</time>
      </trkpt>
      <trkpt lat="44.45653" lon="6.51777">
        <ele>2586</ele>
        <time>2021-02-21T07:17:11Z</time>
      </trkpt>
      <trkpt lat="44.45654" lon="6.51777">
        <ele>2586</ele>
        <time>2021-02-21T07:17:12Z</time>
      </trkpt>
      <trkpt lat="44.45653" lon="6.51776">
        <ele>2586</ele>
        <time>2021-02-21T07:17:13Z</time>
      </trkpt>
      <trkpt lat="44.45652" lon="6.51776">
        <ele>2586</ele>
        <time>2021-02-21T07:17:14Z</time>
      </trkpt>
      <trkpt lat="44.45653" lon="6.51775">
        <ele>2586</ele>
        <time>2021-02-21T07:17:15Z</time>
      </trkpt>
      <trkpt lat="44.45653" lon="6.51776">
        <ele>2586</ele>
        <time>2021-02-21T07:17:16Z</time>
      </trkpt>
      <trkpt lat="44.45653" lon="6.51776">
        <ele>2586</ele>
        <time>2021-02-21T07:17:17Z</time>
      </trkpt>
      <trkpt lat="44.45654" lon="6.51776">
        <ele>2586</ele>
        <time>2021-02-21T07:17:18Z</time>
      </trkpt>
      <trkpt lat="44.45655" lon="6.51777">
        <ele>2586</ele>
        <time>2021-02-21T07:17:19Z</time>
      </trkpt>
      <trkpt lat="44.45655" lon="6.51777">
        <ele>2586</ele>
        <time>2021-02-21T07:17:20Z</time>
      </trkpt>
      <trkpt lat="44.45655" lon="6.51776">
        <ele>2586</ele>
        <time>2021-02-21T07:17:21Z</time>
      </trkpt>
      <trkpt lat="44.45655" lon="6.51776">
        <ele>2586</ele>
        <time>2021-02-21T07:17:22Z</time>
      </trkpt>
      <trkpt lat="44.45656" lon="6.51776">
        <ele>2586</ele>
        <time>2021-02-21T07:17:23Z</time>
      </trkpt>
      <trkpt lat="44.45656" lon="6.51776">
        <ele>2586</ele>
        <time>2021-02-21T07:17:24Z</time>
      </trkpt>
      <trkpt lat="44.45657" lon="6.51777">
        <ele>2587</ele>
        <time>2021-02-21T07:17:25Z</time>
      </trkpt>
      <trkpt lat="44.45657" lon="6.51775">
        <ele>2587</ele>
        <time>2021-02-21T07:17:26Z</time>
      </trkpt>
      <trkpt lat="44.45657" lon="6.51775">
        <ele>2588</ele>
        <time>2021-02-21T07:17:27Z</time>
      </trkpt>
      <trkpt lat="44.45657" lon="6.51775">
        <ele>2588</ele>
        <time>2021-02-21T07:17:28Z</time>
      </trkpt>
      <trkpt lat="44.45657" lon="6.51776">
        <ele>2588</ele>
        <time>2021-02-21T07:17:29Z</time>
      </trkpt>
      <trkpt lat="44.45657" lon="6.51775">
        <ele>2588</ele>
        <time>2021-02-21T07:17:30Z</time>
      </trkpt>
      <trkpt lat="44.45656" lon="6.51775">
        <ele>2589</ele>
        <time>2021-02-21T07:17:31Z</time>
      </trkpt>
      <trkpt lat="44.45656" lon="6.51775">
        <ele>2589</ele>
        <time>2021-02-21T07:17:32Z</time>
      </trkpt>
      <trkpt lat="44.45656" lon="6.51776">
        <ele>2589</ele>
        <time>2021-02-21T07:17:33Z</time>
      </trkpt>
      <trkpt lat="44.45656" lon="6.51776">
        <ele>2589</ele>
        <time>2021-02-21T07:17:34Z</time>
      </trkpt>
      <trkpt lat="44.45656" lon="6.51775">
        <ele>2589</ele>
        <time>2021-02-21T07:17:35Z</time>
      </trkpt>
      <trkpt lat="44.45655" lon="6.51779">
        <ele>2589</ele>
        <time>2021-02-21T07:17:36Z</time>
      </trkpt>
      <trkpt lat="44.45654" lon="6.5178">
        <ele>2589</ele>
        <time>2021-02-21T07:17:37Z</time>
      </trkpt>
      <trkpt lat="44.45653" lon="6.51782">
        <ele>2589</ele>
        <time>2021-02-21T07:17:38Z</time>
      </trkpt>
      <trkpt lat="44.45653" lon="6.51784">
        <ele>2592</ele>
        <time>2021-02-21T07:17:39Z</time>
      </trkpt>
      <trkpt lat="44.45652" lon="6.51784">
        <ele>2593</ele>
        <time>2021-02-21T07:17:40Z</time>
      </trkpt>
      <trkpt lat="44.45652" lon="6.51783">
        <ele>2594</ele>
        <time>2021-02-21T07:17:41Z</time>
      </trkpt>
      <trkpt lat="44.45652" lon="6.51782">
        <ele>2594</ele>
        <time>2021-02-21T07:17:42Z</time>
      </trkpt>
      <trkpt lat="44.45652" lon="6.5178">
        <ele>2594</ele>
        <time>2021-02-21T07:17:43Z</time>
      </trkpt>
      <trkpt lat="44.45652" lon="6.51782">
        <ele>2595</ele>
        <time>2021-02-21T07:17:44Z</time>
      </trkpt>
      <trkpt lat="44.45653" lon="6.51782">
        <ele>2595</ele>
        <time>2021-02-21T07:17:45Z</time>
      </trkpt>
      <trkpt lat="44.4565" lon="6.5178">
        <ele>2595</ele>
        <time>2021-02-21T07:17:46Z</time>
      </trkpt>
      <trkpt lat="44.4565" lon="6.5178">
        <ele>2595</ele>
        <time>2021-02-21T07:17:47Z</time>
      </trkpt>
      <trkpt lat="44.45651" lon="6.5178">
        <ele>2595</ele>
        <time>2021-02-21T07:17:48Z</time>
      </trkpt>
      <trkpt lat="44.45652" lon="6.51781">
        <ele>2595</ele>
        <time>2021-02-21T07:17:49Z</time>
      </trkpt>
      <trkpt lat="44.45652" lon="6.5178">
        <ele>2596</ele>
        <time>2021-02-21T07:17:50Z</time>
      </trkpt>
      <trkpt lat="44.45652" lon="6.5178">
        <ele>2596</ele>
        <time>2021-02-21T07:17:51Z</time>
      </trkpt>
      <trkpt lat="44.45653" lon="6.51779">
        <ele>2596</ele>
        <time>2021-02-21T07:17:52Z</time>
      </trkpt>
      <trkpt lat="44.45654" lon="6.51779">
        <ele>2596</ele>
        <time>2021-02-21T07:17:53Z</time>
      </trkpt>
      <trkpt lat="44.45655" lon="6.51778">
        <ele>2596</ele>
        <time>2021-02-21T07:17:54Z</time>
      </trkpt>
      <trkpt lat="44.45655" lon="6.51778">
        <ele>2596</ele>
        <time>2021-02-21T07:17:55Z</time>
      </trkpt>
      <trkpt lat="44.45655" lon="6.51777">
        <ele>2596</ele>
        <time>2021-02-21T07:17:56Z</time>
      </trkpt>
      <trkpt lat="44.45655" lon="6.51777">
        <ele>2596</ele>
        <time>2021-02-21T07:17:57Z</time>
      </trkpt>
      <trkpt lat="44.45656" lon="6.51775">
        <ele>2597</ele>
        <time>2021-02-21T07:17:58Z</time>
      </trkpt>
      <trkpt lat="44.45657" lon="6.51774">
        <ele>2598</ele>
        <time>2021-02-21T07:17:59Z</time>
      </trkpt>
      <trkpt lat="44.45655" lon="6.51774">
        <ele>2598</ele>
        <time>2021-02-21T07:18:00Z</time>
      </trkpt>
      <trkpt lat="44.45654" lon="6.51774">
        <ele>2598</ele>
        <time>2021-02-21T07:18:01Z</time>
      </trkpt>
      <trkpt lat="44.45654" lon="6.51773">
        <ele>2598</ele>
        <time>2021-02-21T07:18:02Z</time>
      </trkpt>
      <trkpt lat="44.45653" lon="6.51773">
        <ele>2598</ele>
        <time>2021-02-21T07:18:03Z</time>
      </trkpt>
      <trkpt lat="44.45653" lon="6.51774">
        <ele>2598</ele>
        <time>2021-02-21T07:18:04Z</time>
      </trkpt>
      <trkpt lat="44.45652" lon="6.51775">
        <ele>2599</ele>
        <time>2021-02-21T07:18:05Z</time>
      </trkpt>
      <trkpt lat="44.45651" lon="6.51776">
        <ele>2600</ele>
        <time>2021-02-21T07:18:06Z</time>
      </trkpt>
      <trkpt lat="44.45651" lon="6.51776">
        <ele>2600</ele>
        <time>2021-02-21T07:18:07Z</time>
      </trkpt>
      <trkpt lat="44.45651" lon="6.51777">
        <ele>2601</ele>
        <time>2021-02-21T07:18:08Z</time>
      </trkpt>
      <trkpt lat="44.45651" lon="6.51777">
        <ele>2601</ele>
        <time>2021-02-21T07:18:09Z</time>
      </trkpt>
      <trkpt lat="44.45651" lon="6.51779">
        <ele>2601</ele>
        <time>2021-02-21T07:18:10Z</time>
      </trkpt>
      <trkpt lat="44.45652" lon="6.51779">
        <ele>2601</ele>
        <time>2021-02-21T07:18:11Z</time>
      </trkpt>
      <trkpt lat="44.45652" lon="6.51779">
        <ele>2601</ele>
        <time>2021-02-21T07:18:12Z</time>
      </trkpt>
      <trkpt lat="44.45652" lon="6.51779">
        <ele>2601</ele>
        <time>2021-02-21T07:18:13Z</time>
      </trkpt>
      <trkpt lat="44.45652" lon="6.5178">
        <ele>2601</ele>
        <time>2021-02-21T07:18:14Z</time>
      </trkpt>
      <trkpt lat="44.45652" lon="6.51781">
        <ele>2602</ele>
        <time>2021-02-21T07:18:15Z</time>
      </trkpt>
      <trkpt lat="44.45652" lon="6.51782">
        <ele>2602</ele>
        <time>2021-02-21T07:18:16Z</time>
      </trkpt>
      <trkpt lat="44.45652" lon="6.51782">
        <ele>2602</ele>
        <time>2021-02-21T07:18:17Z</time>
      </trkpt>
      <trkpt lat="44.45652" lon="6.51782">
        <ele>2602</ele>
        <time>2021-02-21T07:18:18Z</time>
      </trkpt>
      <trkpt lat="44.45652" lon="6.51781">
        <ele>2602</ele>
        <time>2021-02-21T07:18:19Z</time>
      </trkpt>
      <trkpt lat="44.45652" lon="6.51782">
        <ele>2602</ele>
        <time>2021-02-21T07:18:20Z</time>
      </trkpt>
      <trkpt lat="44.45652" lon="6.51783">
        <ele>2602</ele>
        <time>2021-02-21T07:18:21Z</time>
      </trkpt>
      <trkpt lat="44.45652" lon="6.51783">
        <ele>2602</ele>
        <time>2021-02-21T07:18:22Z</time>
      </trkpt>
      <trkpt lat="44.45652" lon="6.51784">
        <ele>2602</ele>
        <time>2021-02-21T07:18:23Z</time>
      </trkpt>
      <trkpt lat="44.45651" lon="6.51782">
        <ele>2602</ele>
        <time>2021-02-21T07:18:24Z</time>
      </trkpt>
      <trkpt lat="44.45652" lon="6.51781">
        <ele>2602</ele>
        <time>2021-02-21T07:18:25Z</time>
      </trkpt>
      <trkpt lat="44.45652" lon="6.51781">
        <ele>2602</ele>
        <time>2021-02-21T07:18:26Z</time>
      </trkpt>
      <trkpt lat="44.45653" lon="6.5178">
        <ele>2602</ele>
        <time>2021-02-21T07:18:27Z</time>
      </trkpt>
      <trkpt lat="44.45654" lon="6.51778">
        <ele>2602</ele>
        <time>2021-02-21T07:18:28Z</time>
      </trkpt>
      <trkpt lat="44.45653" lon="6.51777">
        <ele>2601</ele>
        <time>2021-02-21T07:18:29Z</time>
      </trkpt>
      <trkpt lat="44.45653" lon="6.51777">
        <ele>2601</ele>
        <time>2021-02-21T07:18:30Z</time>
      </trkpt>
      <trkpt lat="44.45653" lon="6.51776">
        <ele>2601</ele>
        <time>2021-02-21T07:18:31Z</time>
      </trkpt>
      <trkpt lat="44.45654" lon="6.51776">
        <ele>2601</ele>
        <time>2021-02-21T07:18:32Z</time>
      </trkpt>
      <trkpt lat="44.45654" lon="6.51775">
        <ele>2601</ele>
        <time>2021-02-21T07:18:33Z</time>
      </trkpt>
      <trkpt lat="44.45654" lon="6.51775">
        <ele>2601</ele>
        <time>2021-02-21T07:18:34Z</time>
      </trkpt>
      <trkpt lat="44.45655" lon="6.51775">
        <ele>2601</ele>
        <time>2021-02-21T07:18:35Z</time>
      </trkpt>
      <trkpt lat="44.45655" lon="6.51774">
        <ele>2601</ele>
        <time>2021-02-21T07:18:36Z</time>
      </trkpt>
      <trkpt lat="44.45655" lon="6.51776">
        <ele>2600</ele>
        <time>2021-02-21T07:18:37Z</time>
      </trkpt>
      <trkpt lat="44.45653" lon="6.51775">
        <ele>2600</ele>
        <time>2021-02-21T07:18:38Z</time>
      </trkpt>
      <trkpt lat="44.45654" lon="6.51776">
        <ele>2600</ele>
        <time>2021-02-21T07:18:39Z</time>
      </trkpt>
      <trkpt lat="44.45654" lon="6.51776">
        <ele>2600</ele>
        <time>2021-02-21T07:18:40Z</time>
      </trkpt>
      <trkpt lat="44.45654" lon="6.51776">
        <ele>2600</ele>
        <time>2021-02-21T07:18:41Z</time>
      </trkpt>
      <trkpt lat="44.45656" lon="6.51774">
        <ele>2599</ele>
        <time>2021-02-21T07:18:42Z</time>
      </trkpt>
      <trkpt lat="44.45656" lon="6.51773">
        <ele>2599</ele>
        <time>2021-02-21T07:18:43Z</time>
      </trkpt>
      <trkpt lat="44.45657" lon="6.51773">
        <ele>2600</ele>
        <time>2021-02-21T07:18:44Z</time>
      </trkpt>
      <trkpt lat="44.45657" lon="6.51772">
        <ele>2600</ele>
        <time>2021-02-21T07:18:45Z</time>
      </trkpt>
      <trkpt lat="44.45657" lon="6.51771">
        <ele>2600</ele>
        <time>2021-02-21T07:18:46Z</time>
      </trkpt>
      <trkpt lat="44.45657" lon="6.51771">
        <ele>2600</ele>
        <time>2021-02-21T07:18:47Z</time>
      </trkpt>
      <trkpt lat="44.45657" lon="6.51771">
        <ele>2600</ele>
        <time>2021-02-21T07:18:48Z</time>
      </trkpt>
      <trkpt lat="44.45656" lon="6.5177">
        <ele>2600</ele>
        <time>2021-02-21T07:18:49Z</time>
      </trkpt>
      <trkpt lat="44.45658" lon="6.51772">
        <ele>2600</ele>
        <time>2021-02-21T07:18:50Z</time>
      </trkpt>
      <trkpt lat="44.45657" lon="6.51771">
        <ele>2600</ele>
        <time>2021-02-21T07:18:51Z</time>
      </trkpt>
      <trkpt lat="44.45657" lon="6.5177">
        <ele>2600</ele>
        <time>2021-02-21T07:18:52Z</time>
      </trkpt>
      <trkpt lat="44.45656" lon="6.51769">
        <ele>2599</ele>
        <time>2021-02-21T07:18:53Z</time>
      </trkpt>
      <trkpt lat="44.45656" lon="6.51769">
        <ele>2599</ele>
        <time>2021-02-21T07:18:54Z</time>
      </trkpt>
      <trkpt lat="44.45655" lon="6.51769">
        <ele>2599</ele>
        <time>2021-02-21T07:18:55Z</time>
      </trkpt>
      <trkpt lat="44.45657" lon="6.51767">
        <ele>2599</ele>
        <time>2021-02-21T07:18:56Z</time>
      </trkpt>
      <trkpt lat="44.45658" lon="6.51767">
        <ele>2599</ele>
        <time>2021-02-21T07:18:57Z</time>
      </trkpt>
      <trkpt lat="44.45658" lon="6.51767">
        <ele>2599</ele>
        <time>2021-02-21T07:18:58Z</time>
      </trkpt>
      <trkpt lat="44.45658" lon="6.51766">
        <ele>2598</ele>
        <time>2021-02-21T07:18:59Z</time>
      </trkpt>
      <trkpt lat="44.45658" lon="6.51766">
        <ele>2598</ele>
        <time>2021-02-21T07:19:00Z</time>
      </trkpt>
      <trkpt lat="44.45657" lon="6.51765">
        <ele>2598</ele>
        <time>2021-02-21T07:19:01Z</time>
      </trkpt>
      <trkpt lat="44.45656" lon="6.51765">
        <ele>2598</ele>
        <time>2021-02-21T07:19:02Z</time>
      </trkpt>
      <trkpt lat="44.45656" lon="6.51766">
        <ele>2598</ele>
        <time>2021-02-21T07:19:03Z</time>
      </trkpt>
      <trkpt lat="44.45656" lon="6.51766">
        <ele>2597</ele>
        <time>2021-02-21T07:19:04Z</time>
      </trkpt>
      <trkpt lat="44.45657" lon="6.51765">
        <ele>2598</ele>
        <time>2021-02-21T07:19:05Z</time>
      </trkpt>
      <trkpt lat="44.45656" lon="6.51764">
        <ele>2598</ele>
        <time>2021-02-21T07:19:06Z</time>
      </trkpt>
      <trkpt lat="44.45656" lon="6.51764">
        <ele>2598</ele>
        <time>2021-02-21T07:19:07Z</time>
      </trkpt>
      <trkpt lat="44.45657" lon="6.51763">
        <ele>2598</ele>
        <time>2021-02-21T07:19:08Z</time>
      </trkpt>
      <trkpt lat="44.45657" lon="6.51762">
        <ele>2598</ele>
        <time>2021-02-21T07:19:09Z</time>
      </trkpt>
      <trkpt lat="44.45657" lon="6.51762">
        <ele>2598</ele>
        <time>2021-02-21T07:19:10Z</time>
      </trkpt>
      <trkpt lat="44.45657" lon="6.51762">
        <ele>2598</ele>
        <time>2021-02-21T07:19:11Z</time>
      </trkpt>
      <trkpt lat="44.45657" lon="6.51762">
        <ele>2598</ele>
        <time>2021-02-21T07:19:12Z</time>
      </trkpt>
      <trkpt lat="44.45659" lon="6.51761">
        <ele>2598</ele>
        <time>2021-02-21T07:19:13Z</time>
      </trkpt>
      <trkpt lat="44.45659" lon="6.5176">
        <ele>2598</ele>
        <time>2021-02-21T07:19:14Z</time>
      </trkpt>
      <trkpt lat="44.45658" lon="6.51759">
        <ele>2598</ele>
        <time>2021-02-21T07:19:15Z</time>
      </trkpt>
      <trkpt lat="44.45658" lon="6.51759">
        <ele>2598</ele>
        <time>2021-02-21T07:19:16Z</time>
      </trkpt>
      <trkpt lat="44.45658" lon="6.51758">
        <ele>2598</ele>
        <time>2021-02-21T07:19:17Z</time>
      </trkpt>
      <trkpt lat="44.45658" lon="6.51757">
        <ele>2598</ele>
        <time>2021-02-21T07:19:18Z</time>
      </trkpt>
      <trkpt lat="44.45657" lon="6.51756">
        <ele>2597</ele>
        <time>2021-02-21T07:19:19Z</time>
      </trkpt>
      <trkpt lat="44.45657" lon="6.51755">
        <ele>2597</ele>
        <time>2021-02-21T07:19:20Z</time>
      </trkpt>
      <trkpt lat="44.45657" lon="6.51757">
        <ele>2597</ele>
        <time>2021-02-21T07:19:21Z</time>
      </trkpt>
      <trkpt lat="44.45656" lon="6.51756">
        <ele>2597</ele>
        <time>2021-02-21T07:19:22Z</time>
      </trkpt>
      <trkpt lat="44.45655" lon="6.51757">
        <ele>2597</ele>
        <time>2021-02-21T07:19:23Z</time>
      </trkpt>
      <trkpt lat="44.45654" lon="6.51757">
        <ele>2597</ele>
        <time>2021-02-21T07:19:24Z</time>
      </trkpt>
      <trkpt lat="44.45654" lon="6.51757">
        <ele>2597</ele>
        <time>2021-02-21T07:19:25Z</time>
      </trkpt>
      <trkpt lat="44.45654" lon="6.51757">
        <ele>2597</ele>
        <time>2021-02-21T07:19:26Z</time>
      </trkpt>
      <trkpt lat="44.45653" lon="6.51757">
        <ele>2597</ele>
        <time>2021-02-21T07:19:27Z</time>
      </trkpt>
      <trkpt lat="44.45653" lon="6.51757">
        <ele>2597</ele>
        <time>2021-02-21T07:19:28Z</time>
      </trkpt>
      <trkpt lat="44.45651" lon="6.51756">
        <ele>2597</ele>
        <time>2021-02-21T07:19:29Z</time>
      </trkpt>
      <trkpt lat="44.45651" lon="6.51756">
        <ele>2597</ele>
        <time>2021-02-21T07:19:30Z</time>
      </trkpt>
      <trkpt lat="44.4565" lon="6.51757">
        <ele>2598</ele>
        <time>2021-02-21T07:19:31Z</time>
      </trkpt>
      <trkpt lat="44.45648" lon="6.51757">
        <ele>2598</ele>
        <time>2021-02-21T07:19:32Z</time>
      </trkpt>
      <trkpt lat="44.45648" lon="6.51757">
        <ele>2598</ele>
        <time>2021-02-21T07:19:33Z</time>
      </trkpt>
      <trkpt lat="44.45648" lon="6.51755">
        <ele>2598</ele>
        <time>2021-02-21T07:19:34Z</time>
      </trkpt>
      <trkpt lat="44.45649" lon="6.51755">
        <ele>2598</ele>
        <time>2021-02-21T07:19:35Z</time>
      </trkpt>
      <trkpt lat="44.45649" lon="6.51756">
        <ele>2598</ele>
        <time>2021-02-21T07:19:36Z</time>
      </trkpt>
      <trkpt lat="44.4565" lon="6.51755">
        <ele>2598</ele>
        <time>2021-02-21T07:19:37Z</time>
      </trkpt>
      <trkpt lat="44.45649" lon="6.51754">
        <ele>2599</ele>
        <time>2021-02-21T07:19:38Z</time>
      </trkpt>
      <trkpt lat="44.45648" lon="6.51753">
        <ele>2599</ele>
        <time>2021-02-21T07:19:39Z</time>
      </trkpt>
      <trkpt lat="44.45648" lon="6.51751">
        <ele>2599</ele>
        <time>2021-02-21T07:19:40Z</time>
      </trkpt>
      <trkpt lat="44.45647" lon="6.5175">
        <ele>2599</ele>
        <time>2021-02-21T07:19:41Z</time>
      </trkpt>
      <trkpt lat="44.45648" lon="6.5175">
        <ele>2599</ele>
        <time>2021-02-21T07:19:42Z</time>
      </trkpt>
      <trkpt lat="44.45649" lon="6.51751">
        <ele>2599</ele>
        <time>2021-02-21T07:19:43Z</time>
      </trkpt>
      <trkpt lat="44.45649" lon="6.51751">
        <ele>2599</ele>
        <time>2021-02-21T07:19:44Z</time>
      </trkpt>
      <trkpt lat="44.4565" lon="6.51751">
        <ele>2599</ele>
        <time>2021-02-21T07:19:45Z</time>
      </trkpt>
      <trkpt lat="44.4565" lon="6.51751">
        <ele>2599</ele>
        <time>2021-02-21T07:19:46Z</time>
      </trkpt>
      <trkpt lat="44.4565" lon="6.5175">
        <ele>2599</ele>
        <time>2021-02-21T07:19:47Z</time>
      </trkpt>
      <trkpt lat="44.4565" lon="6.5175">
        <ele>2599</ele>
        <time>2021-02-21T07:19:48Z</time>
      </trkpt>
      <trkpt lat="44.4565" lon="6.51748">
        <ele>2599</ele>
        <time>2021-02-21T07:19:49Z</time>
      </trkpt>
      <trkpt lat="44.4565" lon="6.51748">
        <ele>2599</ele>
        <time>2021-02-21T07:19:50Z</time>
      </trkpt>
      <trkpt lat="44.4565" lon="6.51748">
        <ele>2599</ele>
        <time>2021-02-21T07:19:51Z</time>
      </trkpt>
      <trkpt lat="44.45652" lon="6.5175">
        <ele>2599</ele>
        <time>2021-02-21T07:19:52Z</time>
      </trkpt>
      <trkpt lat="44.45653" lon="6.5175">
        <ele>2599</ele>
        <time>2021-02-21T07:19:53Z</time>
      </trkpt>
      <trkpt lat="44.45653" lon="6.51751">
        <ele>2599</ele>
        <time>2021-02-21T07:19:54Z</time>
      </trkpt>
      <trkpt lat="44.45654" lon="6.51751">
        <ele>2599</ele>
        <time>2021-02-21T07:19:55Z</time>
      </trkpt>
      <trkpt lat="44.45654" lon="6.5175">
        <ele>2599</ele>
        <time>2021-02-21T07:19:56Z</time>
      </trkpt>
      <trkpt lat="44.45654" lon="6.5175">
        <ele>2599</ele>
        <time>2021-02-21T07:19:57Z</time>
      </trkpt>
      <trkpt lat="44.45654" lon="6.5175">
        <ele>2599</ele>
        <time>2021-02-21T07:19:58Z</time>
      </trkpt>
      <trkpt lat="44.45655" lon="6.5175">
        <ele>2600</ele>
        <time>2021-02-21T07:19:59Z</time>
      </trkpt>
      <trkpt lat="44.45655" lon="6.5175">
        <ele>2600</ele>
        <time>2021-02-21T07:20:00Z</time>
      </trkpt>
      <trkpt lat="44.45655" lon="6.5175">
        <ele>2600</ele>
        <time>2021-02-21T07:20:01Z</time>
      </trkpt>
      <trkpt lat="44.45655" lon="6.5175">
        <ele>2600</ele>
        <time>2021-02-21T07:20:02Z</time>
      </trkpt>
      <trkpt lat="44.45655" lon="6.5175">
        <ele>2600</ele>
        <time>2021-02-21T07:20:03Z</time>
      </trkpt>
      <trkpt lat="44.45655" lon="6.51751">
        <ele>2600</ele>
        <time>2021-02-21T07:20:04Z</time>
      </trkpt>
      <trkpt lat="44.45655" lon="6.51751">
        <ele>2600</ele>
        <time>2021-02-21T07:20:05Z</time>
      </trkpt>
      <trkpt lat="44.45654" lon="6.51751">
        <ele>2600</ele>
        <time>2021-02-21T07:20:06Z</time>
      </trkpt>
      <trkpt lat="44.45654" lon="6.51752">
        <ele>2600</ele>
        <time>2021-02-21T07:20:07Z</time>
      </trkpt>
      <trkpt lat="44.45654" lon="6.51751">
        <ele>2600</ele>
        <time>2021-02-21T07:20:08Z</time>
      </trkpt>
      <trkpt lat="44.45654" lon="6.51751">
        <ele>2600</ele>
        <time>2021-02-21T07:20:09Z</time>
      </trkpt>
      <trkpt lat="44.45654" lon="6.51748">
        <ele>2600</ele>
        <time>2021-02-21T07:20:10Z</time>
      </trkpt>
      <trkpt lat="44.45654" lon="6.51748">
        <ele>2600</ele>
        <time>2021-02-21T07:20:11Z</time>
      </trkpt>
      <trkpt lat="44.45654" lon="6.51748">
        <ele>2600</ele>
        <time>2021-02-21T07:20:12Z</time>
      </trkpt>
      <trkpt lat="44.45654" lon="6.51748">
        <ele>2600</ele>
        <time>2021-02-21T07:20:13Z</time>
      </trkpt>
      <trkpt lat="44.45654" lon="6.51746">
        <ele>2600</ele>
        <time>2021-02-21T07:20:14Z</time>
      </trkpt>
      <trkpt lat="44.45654" lon="6.51745">
        <ele>2600</ele>
        <time>2021-02-21T07:20:15Z</time>
      </trkpt>
      <trkpt lat="44.45654" lon="6.51745">
        <ele>2600</ele>
        <time>2021-02-21T07:20:16Z</time>
      </trkpt>
      <trkpt lat="44.45653" lon="6.51744">
        <ele>2600</ele>
        <time>2021-02-21T07:20:17Z</time>
      </trkpt>
      <trkpt lat="44.45653" lon="6.51744">
        <ele>2600</ele>
        <time>2021-02-21T07:20:18Z</time>
      </trkpt>
      <trkpt lat="44.45653" lon="6.51742">
        <ele>2600</ele>
        <time>2021-02-21T07:20:19Z</time>
      </trkpt>
      <trkpt lat="44.45653" lon="6.51741">
        <ele>2600</ele>
        <time>2021-02-21T07:20:20Z</time>
      </trkpt>
      <trkpt lat="44.45653" lon="6.5174">
        <ele>2600</ele>
        <time>2021-02-21T07:20:21Z</time>
      </trkpt>
      <trkpt lat="44.45654" lon="6.51739">
        <ele>2600</ele>
        <time>2021-02-21T07:20:22Z</time>
      </trkpt>
      <trkpt lat="44.45654" lon="6.51741">
        <ele>2600</ele>
        <time>2021-02-21T07:20:23Z</time>
      </trkpt>
      <trkpt lat="44.45654" lon="6.51741">
        <ele>2600</ele>
        <time>2021-02-21T07:20:24Z</time>
      </trkpt>
      <trkpt lat="44.45654" lon="6.51741">
        <ele>2600</ele>
        <time>2021-02-21T07:20:25Z</time>
      </trkpt>
      <trkpt lat="44.45655" lon="6.51742">
        <ele>2600</ele>
        <time>2021-02-21T07:20:26Z</time>
      </trkpt>
      <trkpt lat="44.45655" lon="6.51742">
        <ele>2600</ele>
        <time>2021-02-21T07:20:27Z</time>
      </trkpt>
      <trkpt lat="44.45655" lon="6.51743">
        <ele>2600</ele>
        <time>2021-02-21T07:20:28Z</time>
      </trkpt>
      <trkpt lat="44.45656" lon="6.51743">
        <ele>2600</ele>
        <time>2021-02-21T07:20:29Z</time>
      </trkpt>
      <trkpt lat="44.45657" lon="6.51744">
        <ele>2601</ele>
        <time>2021-02-21T07:20:30Z</time>
      </trkpt>
      <trkpt lat="44.45657" lon="6.51744">
        <ele>2601</ele>
        <time>2021-02-21T07:20:31Z</time>
      </trkpt>
      <trkpt lat="44.45657" lon="6.51743">
        <ele>2602</ele>
        <time>2021-02-21T07:20:32Z</time>
      </trkpt>
      <trkpt lat="44.45657" lon="6.51743">
        <ele>2602</ele>
        <time>2021-02-21T07:20:33Z</time>
      </trkpt>
      <trkpt lat="44.45657" lon="6.51743">
        <ele>2602</ele>
        <time>2021-02-21T07:20:34Z</time>
      </trkpt>
      <trkpt lat="44.45658" lon="6.51742">
        <ele>2602</ele>
        <time>2021-02-21T07:20:35Z</time>
      </trkpt>
      <trkpt lat="44.45658" lon="6.51742">
        <ele>2603</ele>
        <time>2021-02-21T07:20:36Z</time>
      </trkpt>
      <trkpt lat="44.45658" lon="6.51742">
        <ele>2603</ele>
        <time>2021-02-21T07:20:37Z</time>
      </trkpt>
      <trkpt lat="44.45658" lon="6.51742">
        <ele>2603</ele>
        <time>2021-02-21T07:20:38Z</time>
      </trkpt>
      <trkpt lat="44.45658" lon="6.51742">
        <ele>2603</ele>
        <time>2021-02-21T07:20:39Z</time>
      </trkpt>
      <trkpt lat="44.45657" lon="6.51742">
        <ele>2603</ele>
        <time>2021-02-21T07:20:40Z</time>
      </trkpt>
      <trkpt lat="44.45657" lon="6.51743">
        <ele>2603</ele>
        <time>2021-02-21T07:20:41Z</time>
      </trkpt>
      <trkpt lat="44.45657" lon="6.51743">
        <ele>2603</ele>
        <time>2021-02-21T07:20:42Z</time>
      </trkpt>
      <trkpt lat="44.45657" lon="6.51743">
        <ele>2603</ele>
        <time>2021-02-21T07:20:43Z</time>
      </trkpt>
      <trkpt lat="44.45656" lon="6.51742">
        <ele>2603</ele>
        <time>2021-02-21T07:20:44Z</time>
      </trkpt>
      <trkpt lat="44.45656" lon="6.51743">
        <ele>2603</ele>
        <time>2021-02-21T07:20:45Z</time>
      </trkpt>
      <trkpt lat="44.45656" lon="6.51742">
        <ele>2603</ele>
        <time>2021-02-21T07:20:46Z</time>
      </trkpt>
      <trkpt lat="44.45656" lon="6.51742">
        <ele>2603</ele>
        <time>2021-02-21T07:20:47Z</time>
      </trkpt>
      <trkpt lat="44.45655" lon="6.51742">
        <ele>2603</ele>
        <time>2021-02-21T07:20:48Z</time>
      </trkpt>
      <trkpt lat="44.45654" lon="6.51745">
        <ele>2604</ele>
        <time>2021-02-21T07:20:49Z</time>
      </trkpt>
      <trkpt lat="44.45652" lon="6.51747">
        <ele>2607</ele>
        <time>2021-02-21T07:20:50Z</time>
      </trkpt>
      <trkpt lat="44.45651" lon="6.51748">
        <ele>2609</ele>
        <time>2021-02-21T07:20:51Z</time>
      </trkpt>
      <trkpt lat="44.45651" lon="6.51747">
        <ele>2610</ele>
        <time>2021-02-21T07:20:52Z</time>
      </trkpt>
      <trkpt lat="44.45651" lon="6.51747">
        <ele>2611</ele>
        <time>2021-02-21T07:20:53Z</time>
      </trkpt>
      <trkpt lat="44.4565" lon="6.51746">
        <ele>2611</ele>
        <time>2021-02-21T07:20:54Z</time>
      </trkpt>
      <trkpt lat="44.4565" lon="6.51746">
        <ele>2611</ele>
        <time>2021-02-21T07:20:55Z</time>
      </trkpt>
      <trkpt lat="44.4565" lon="6.51746">
        <ele>2612</ele>
        <time>2021-02-21T07:20:56Z</time>
      </trkpt>
      <trkpt lat="44.45649" lon="6.51749">
        <ele>2612</ele>
        <time>2021-02-21T07:20:57Z</time>
      </trkpt>
      <trkpt lat="44.45649" lon="6.51749">
        <ele>2613</ele>
        <time>2021-02-21T07:20:58Z</time>
      </trkpt>
      <trkpt lat="44.4565" lon="6.51749">
        <ele>2614</ele>
        <time>2021-02-21T07:20:59Z</time>
      </trkpt>
      <trkpt lat="44.4565" lon="6.51748">
        <ele>2614</ele>
        <time>2021-02-21T07:21:00Z</time>
      </trkpt>
      <trkpt lat="44.4565" lon="6.51748">
        <ele>2615</ele>
        <time>2021-02-21T07:21:01Z</time>
      </trkpt>
      <trkpt lat="44.4565" lon="6.51748">
        <ele>2615</ele>
        <time>2021-02-21T07:21:02Z</time>
      </trkpt>
      <trkpt lat="44.4565" lon="6.51748">
        <ele>2615</ele>
        <time>2021-02-21T07:21:03Z</time>
      </trkpt>
      <trkpt lat="44.45649" lon="6.51748">
        <ele>2616</ele>
        <time>2021-02-21T07:21:04Z</time>
      </trkpt>
      <trkpt lat="44.45649" lon="6.51747">
        <ele>2616</ele>
        <time>2021-02-21T07:21:05Z</time>
      </trkpt>
      <trkpt lat="44.45649" lon="6.51746">
        <ele>2616</ele>
        <time>2021-02-21T07:21:06Z</time>
      </trkpt>
      <trkpt lat="44.4565" lon="6.51747">
        <ele>2616</ele>
        <time>2021-02-21T07:21:07Z</time>
      </trkpt>
      <trkpt lat="44.4565" lon="6.51745">
        <ele>2616</ele>
        <time>2021-02-21T07:21:08Z</time>
      </trkpt>
      <trkpt lat="44.45649" lon="6.51744">
        <ele>2618</ele>
        <time>2021-02-21T07:21:09Z</time>
      </trkpt>
      <trkpt lat="44.45648" lon="6.51743">
        <ele>2618</ele>
        <time>2021-02-21T07:21:10Z</time>
      </trkpt>
      <trkpt lat="44.45648" lon="6.51742">
        <ele>2619</ele>
        <time>2021-02-21T07:21:11Z</time>
      </trkpt>
      <trkpt lat="44.45648" lon="6.51742">
        <ele>2619</ele>
        <time>2021-02-21T07:21:12Z</time>
      </trkpt>
      <trkpt lat="44.45649" lon="6.51743">
        <ele>2619</ele>
        <time>2021-02-21T07:21:13Z</time>
      </trkpt>
      <trkpt lat="44.45649" lon="6.51743">
        <ele>2619</ele>
        <time>2021-02-21T07:21:14Z</time>
      </trkpt>
      <trkpt lat="44.45649" lon="6.51743">
        <ele>2619</ele>
        <time>2021-02-21T07:21:15Z</time>
      </trkpt>
      <trkpt lat="44.45649" lon="6.51743">
        <ele>2619</ele>
        <time>2021-02-21T07:21:16Z</time>
      </trkpt>
      <trkpt lat="44.45649" lon="6.51743">
        <ele>2619</ele>
        <time>2021-02-21T07:21:17Z</time>
      </trkpt>
      <trkpt lat="44.45649" lon="6.51743">
        <ele>2619</ele>
        <time>2021-02-21T07:21:18Z</time>
      </trkpt>
      <trkpt lat="44.45649" lon="6.51743">
        <ele>2619</ele>
        <time>2021-02-21T07:21:19Z</time>
      </trkpt>
      <trkpt lat="44.45649" lon="6.51743">
        <ele>2619</ele>
        <time>2021-02-21T07:21:20Z</time>
      </trkpt>
      <trkpt lat="44.45649" lon="6.51743">
        <ele>2619</ele>
        <time>2021-02-21T07:21:21Z</time>
      </trkpt>
      <trkpt lat="44.45649" lon="6.51743">
        <ele>2619</ele>
        <time>2021-02-21T07:21:22Z</time>
      </trkpt>
      <trkpt lat="44.45649" lon="6.51743">
        <ele>2619</ele>
        <time>2021-02-21T07:21:23Z</time>
      </trkpt>
      <trkpt lat="44.45649" lon="6.51743">
        <ele>2619</ele>
        <time>2021-02-21T07:21:24Z</time>
      </trkpt>
      <trkpt lat="44.45649" lon="6.51743">
        <ele>2619</ele>
        <time>2021-02-21T07:21:25Z</time>
      </trkpt>
      <trkpt lat="44.45649" lon="6.51743">
        <ele>2619</ele>
        <time>2021-02-21T07:21:26Z</time>
      </trkpt>
      <trkpt lat="44.45649" lon="6.51743">
        <ele>2619</ele>
        <time>2021-02-21T07:21:27Z</time>
      </trkpt>
      <trkpt lat="44.45649" lon="6.51743">
        <ele>2619</ele>
        <time>2021-02-21T07:21:28Z</time>
      </trkpt>
      <trkpt lat="44.45649" lon="6.51743">
        <ele>2619</ele>
        <time>2021-02-21T07:21:29Z</time>
      </trkpt>
      <trkpt lat="44.45649" lon="6.51743">
        <ele>2618</ele>
        <time>2021-02-21T07:21:30Z</time>
      </trkpt>
      <trkpt lat="44.45649" lon="6.51743">
        <ele>2618</ele>
        <time>2021-02-21T07:21:31Z</time>
      </trkpt>
      <trkpt lat="44.4565" lon="6.51744">
        <ele>2618</ele>
        <time>2021-02-21T07:21:32Z</time>
      </trkpt>
      <trkpt lat="44.45651" lon="6.51744">
        <ele>2618</ele>
        <time>2021-02-21T07:21:33Z</time>
      </trkpt>
      <trkpt lat="44.45651" lon="6.51744">
        <ele>2618</ele>
        <time>2021-02-21T07:21:34Z</time>
      </trkpt>
      <trkpt lat="44.45651" lon="6.51743">
        <ele>2618</ele>
        <time>2021-02-21T07:21:35Z</time>
      </trkpt>
      <trkpt lat="44.45651" lon="6.51743">
        <ele>2618</ele>
        <time>2021-02-21T07:21:36Z</time>
      </trkpt>
      <trkpt lat="44.4565" lon="6.51743">
        <ele>2618</ele>
        <time>2021-02-21T07:21:37Z</time>
      </trkpt>
      <trkpt lat="44.4565" lon="6.51742">
        <ele>2618</ele>
        <time>2021-02-21T07:21:38Z</time>
      </trkpt>
      <trkpt lat="44.4565" lon="6.51742">
        <ele>2618</ele>
        <time>2021-02-21T07:21:39Z</time>
      </trkpt>
      <trkpt lat="44.4565" lon="6.51743">
        <ele>2618</ele>
        <time>2021-02-21T07:21:40Z</time>
      </trkpt>
      <trkpt lat="44.4565" lon="6.51744">
        <ele>2618</ele>
        <time>2021-02-21T07:21:41Z</time>
      </trkpt>
      <trkpt lat="44.4565" lon="6.51744">
        <ele>2618</ele>
        <time>2021-02-21T07:21:42Z</time>
      </trkpt>
      <trkpt lat="44.4565" lon="6.51744">
        <ele>2618</ele>
        <time>2021-02-21T07:21:43Z</time>
      </trkpt>
      <trkpt lat="44.45649" lon="6.51744">
        <ele>2618</ele>
        <time>2021-02-21T07:21:44Z</time>
      </trkpt>
      <trkpt lat="44.4565" lon="6.51744">
        <ele>2618</ele>
        <time>2021-02-21T07:21:45Z</time>
      </trkpt>
      <trkpt lat="44.45649" lon="6.51744">
        <ele>2618</ele>
        <time>2021-02-21T07:21:46Z</time>
      </trkpt>
      <trkpt lat="44.45649" lon="6.51744">
        <ele>2618</ele>
        <time>2021-02-21T07:21:47Z</time>
      </trkpt>
      <trkpt lat="44.45649" lon="6.51744">
        <ele>2619</ele>
        <time>2021-02-21T07:21:48Z</time>
      </trkpt>
      <trkpt lat="44.4565" lon="6.51744">
        <ele>2619</ele>
        <time>2021-02-21T07:21:49Z</time>
      </trkpt>
      <trkpt lat="44.45649" lon="6.51745">
        <ele>2619</ele>
        <time>2021-02-21T07:21:50Z</time>
      </trkpt>
      <trkpt lat="44.45649" lon="6.51746">
        <ele>2619</ele>
        <time>2021-02-21T07:21:51Z</time>
      </trkpt>
      <trkpt lat="44.45649" lon="6.51747">
        <ele>2619</ele>
        <time>2021-02-21T07:21:52Z</time>
      </trkpt>
      <trkpt lat="44.45649" lon="6.51747">
        <ele>2619</ele>
        <time>2021-02-21T07:21:53Z</time>
      </trkpt>
      <trkpt lat="44.45649" lon="6.51747">
        <ele>2619</ele>
        <time>2021-02-21T07:21:54Z</time>
      </trkpt>
      <trkpt lat="44.45649" lon="6.51747">
        <ele>2619</ele>
        <time>2021-02-21T07:21:55Z</time>
      </trkpt>
      <trkpt lat="44.45649" lon="6.51747">
        <ele>2619</ele>
        <time>2021-02-21T07:21:56Z</time>
      </trkpt>
      <trkpt lat="44.45649" lon="6.51747">
        <ele>2619</ele>
        <time>2021-02-21T07:21:57Z</time>
      </trkpt>
      <trkpt lat="44.45649" lon="6.51746">
        <ele>2619</ele>
        <time>2021-02-21T07:21:58Z</time>
      </trkpt>
      <trkpt lat="44.4565" lon="6.51746">
        <ele>2619</ele>
        <time>2021-02-21T07:21:59Z</time>
      </trkpt>
      <trkpt lat="44.4565" lon="6.51747">
        <ele>2619</ele>
        <time>2021-02-21T07:22:00Z</time>
      </trkpt>
      <trkpt lat="44.4565" lon="6.51747">
        <ele>2619</ele>
        <time>2021-02-21T07:22:01Z</time>
      </trkpt>
      <trkpt lat="44.4565" lon="6.51746">
        <ele>2619</ele>
        <time>2021-02-21T07:22:02Z</time>
      </trkpt>
      <trkpt lat="44.45651" lon="6.51746">
        <ele>2619</ele>
        <time>2021-02-21T07:22:03Z</time>
      </trkpt>
      <trkpt lat="44.45651" lon="6.51746">
        <ele>2618</ele>
        <time>2021-02-21T07:22:04Z</time>
      </trkpt>
      <trkpt lat="44.45653" lon="6.51747">
        <ele>2618</ele>
        <time>2021-02-21T07:22:05Z</time>
      </trkpt>
      <trkpt lat="44.45652" lon="6.51745">
        <ele>2618</ele>
        <time>2021-02-21T07:22:06Z</time>
      </trkpt>
      <trkpt lat="44.45652" lon="6.51744">
        <ele>2618</ele>
        <time>2021-02-21T07:22:07Z</time>
      </trkpt>
      <trkpt lat="44.45652" lon="6.51743">
        <ele>2618</ele>
        <time>2021-02-21T07:22:08Z</time>
      </trkpt>
      <trkpt lat="44.45653" lon="6.51743">
        <ele>2618</ele>
        <time>2021-02-21T07:22:09Z</time>
      </trkpt>
      <trkpt lat="44.45654" lon="6.51743">
        <ele>2618</ele>
        <time>2021-02-21T07:22:10Z</time>
      </trkpt>
      <trkpt lat="44.45655" lon="6.51742">
        <ele>2619</ele>
        <time>2021-02-21T07:22:11Z</time>
      </trkpt>
      <trkpt lat="44.45655" lon="6.51743">
        <ele>2619</ele>
        <time>2021-02-21T07:22:12Z</time>
      </trkpt>
      <trkpt lat="44.45655" lon="6.51745">
        <ele>2619</ele>
        <time>2021-02-21T07:22:13Z</time>
      </trkpt>
      <trkpt lat="44.45655" lon="6.51745">
        <ele>2619</ele>
        <time>2021-02-21T07:22:14Z</time>
      </trkpt>
      <trkpt lat="44.45656" lon="6.51744">
        <ele>2619</ele>
        <time>2021-02-21T07:22:15Z</time>
      </trkpt>
      <trkpt lat="44.45655" lon="6.51743">
        <ele>2619</ele>
        <time>2021-02-21T07:22:16Z</time>
      </trkpt>
      <trkpt lat="44.45655" lon="6.51742">
        <ele>2619</ele>
        <time>2021-02-21T07:22:17Z</time>
      </trkpt>
      <trkpt lat="44.45654" lon="6.5174">
        <ele>2619</ele>
        <time>2021-02-21T07:22:18Z</time>
      </trkpt>
      <trkpt lat="44.45653" lon="6.51739">
        <ele>2619</ele>
        <time>2021-02-21T07:22:19Z</time>
      </trkpt>
      <trkpt lat="44.45653" lon="6.51738">
        <ele>2619</ele>
        <time>2021-02-21T07:22:20Z</time>
      </trkpt>
      <trkpt lat="44.45653" lon="6.51737">
        <ele>2619</ele>
        <time>2021-02-21T07:22:21Z</time>
      </trkpt>
      <trkpt lat="44.45653" lon="6.51736">
        <ele>2619</ele>
        <time>2021-02-21T07:22:22Z</time>
      </trkpt>
      <trkpt lat="44.45653" lon="6.51736">
        <ele>2619</ele>
        <time>2021-02-21T07:22:23Z</time>
      </trkpt>
      <trkpt lat="44.45652" lon="6.51736">
        <ele>2620</ele>
        <time>2021-02-21T07:22:24Z</time>
      </trkpt>
      <trkpt lat="44.45652" lon="6.51735">
        <ele>2620</ele>
        <time>2021-02-21T07:22:25Z</time>
      </trkpt>
      <trkpt lat="44.45652" lon="6.51735">
        <ele>2620</ele>
        <time>2021-02-21T07:22:26Z</time>
      </trkpt>
      <trkpt lat="44.45652" lon="6.51735">
        <ele>2621</ele>
        <time>2021-02-21T07:22:27Z</time>
      </trkpt>
      <trkpt lat="44.45651" lon="6.51735">
        <ele>2621</ele>
        <time>2021-02-21T07:22:28Z</time>
      </trkpt>
      <trkpt lat="44.45651" lon="6.51735">
        <ele>2621</ele>
        <time>2021-02-21T07:22:29Z</time>
      </trkpt>
      <trkpt lat="44.45651" lon="6.51734">
        <ele>2621</ele>
        <time>2021-02-21T07:22:30Z</time>
      </trkpt>
      <trkpt lat="44.45651" lon="6.51733">
        <ele>2621</ele>
        <time>2021-02-21T07:22:31Z</time>
      </trkpt>
      <trkpt lat="44.45651" lon="6.51733">
        <ele>2621</ele>
        <time>2021-02-21T07:22:32Z</time>
      </trkpt>
      <trkpt lat="44.45652" lon="6.51732">
        <ele>2621</ele>
        <time>2021-02-21T07:22:33Z</time>
      </trkpt>
      <trkpt lat="44.45652" lon="6.51731">
        <ele>2621</ele>
        <time>2021-02-21T07:22:34Z</time>
      </trkpt>
      <trkpt lat="44.45652" lon="6.51731">
        <ele>2621</ele>
        <time>2021-02-21T07:22:35Z</time>
      </trkpt>
      <trkpt lat="44.45652" lon="6.5173">
        <ele>2621</ele>
        <time>2021-02-21T07:22:36Z</time>
      </trkpt>
      <trkpt lat="44.45652" lon="6.51729">
        <ele>2622</ele>
        <time>2021-02-21T07:22:37Z</time>
      </trkpt>
      <trkpt lat="44.45652" lon="6.51729">
        <ele>2622</ele>
        <time>2021-02-21T07:22:38Z</time>
      </trkpt>
      <trkpt lat="44.45653" lon="6.51729">
        <ele>2622</ele>
        <time>2021-02-21T07:22:39Z</time>
      </trkpt>
      <trkpt lat="44.45653" lon="6.51729">
        <ele>2622</ele>
        <time>2021-02-21T07:22:40Z</time>
      </trkpt>
      <trkpt lat="44.45653" lon="6.51729">
        <ele>2622</ele>
        <time>2021-02-21T07:22:41Z</time>
      </trkpt>
      <trkpt lat="44.45653" lon="6.51729">
        <ele>2622</ele>
        <time>2021-02-21T07:22:42Z</time>
      </trkpt>
      <trkpt lat="44.45653" lon="6.51729">
        <ele>2622</ele>
        <time>2021-02-21T07:22:43Z</time>
      </trkpt>
      <trkpt lat="44.45654" lon="6.5173">
        <ele>2622</ele>
        <time>2021-02-21T07:22:44Z</time>
      </trkpt>
      <trkpt lat="44.45654" lon="6.51731">
        <ele>2622</ele>
        <time>2021-02-21T07:22:45Z</time>
      </trkpt>
      <trkpt lat="44.45653" lon="6.51731">
        <ele>2622</ele>
        <time>2021-02-21T07:22:46Z</time>
      </trkpt>
      <trkpt lat="44.45653" lon="6.51732">
        <ele>2623</ele>
        <time>2021-02-21T07:22:47Z</time>
      </trkpt>
      <trkpt lat="44.45652" lon="6.51731">
        <ele>2623</ele>
        <time>2021-02-21T07:22:48Z</time>
      </trkpt>
      <trkpt lat="44.45651" lon="6.51731">
        <ele>2623</ele>
        <time>2021-02-21T07:22:49Z</time>
      </trkpt>
      <trkpt lat="44.45651" lon="6.5173">
        <ele>2623</ele>
        <time>2021-02-21T07:22:50Z</time>
      </trkpt>
      <trkpt lat="44.45652" lon="6.51729">
        <ele>2623</ele>
        <time>2021-02-21T07:22:51Z</time>
      </trkpt>
      <trkpt lat="44.45652" lon="6.51729">
        <ele>2623</ele>
        <time>2021-02-21T07:22:52Z</time>
      </trkpt>
      <trkpt lat="44.45652" lon="6.51729">
        <ele>2623</ele>
        <time>2021-02-21T07:22:53Z</time>
      </trkpt>
      <trkpt lat="44.45652" lon="6.51729">
        <ele>2623</ele>
        <time>2021-02-21T07:22:54Z</time>
      </trkpt>
      <trkpt lat="44.45652" lon="6.51728">
        <ele>2623</ele>
        <time>2021-02-21T07:22:55Z</time>
      </trkpt>
      <trkpt lat="44.45651" lon="6.51725">
        <ele>2623</ele>
        <time>2021-02-21T07:22:56Z</time>
      </trkpt>
      <trkpt lat="44.45651" lon="6.51725">
        <ele>2623</ele>
        <time>2021-02-21T07:22:57Z</time>
      </trkpt>
      <trkpt lat="44.45651" lon="6.51724">
        <ele>2623</ele>
        <time>2021-02-21T07:22:58Z</time>
      </trkpt>
      <trkpt lat="44.45652" lon="6.51723">
        <ele>2623</ele>
        <time>2021-02-21T07:22:59Z</time>
      </trkpt>
      <trkpt lat="44.45652" lon="6.51723">
        <ele>2623</ele>
        <time>2021-02-21T07:23:00Z</time>
      </trkpt>
      <trkpt lat="44.45652" lon="6.51723">
        <ele>2624</ele>
        <time>2021-02-21T07:23:01Z</time>
      </trkpt>
      <trkpt lat="44.45652" lon="6.51723">
        <ele>2624</ele>
        <time>2021-02-21T07:23:02Z</time>
      </trkpt>
      <trkpt lat="44.45652" lon="6.51723">
        <ele>2624</ele>
        <time>2021-02-21T07:23:03Z</time>
      </trkpt>
      <trkpt lat="44.45651" lon="6.51724">
        <ele>2624</ele>
        <time>2021-02-21T07:23:04Z</time>
      </trkpt>
      <trkpt lat="44.45651" lon="6.51725">
        <ele>2624</ele>
        <time>2021-02-21T07:23:05Z</time>
      </trkpt>
      <trkpt lat="44.45651" lon="6.51725">
        <ele>2624</ele>
        <time>2021-02-21T07:23:06Z</time>
      </trkpt>
      <trkpt lat="44.45651" lon="6.51726">
        <ele>2624</ele>
        <time>2021-02-21T07:23:07Z</time>
      </trkpt>
      <trkpt lat="44.45651" lon="6.51727">
        <ele>2624</ele>
        <time>2021-02-21T07:23:08Z</time>
      </trkpt>
      <trkpt lat="44.45652" lon="6.51728">
        <ele>2624</ele>
        <time>2021-02-21T07:23:09Z</time>
      </trkpt>
      <trkpt lat="44.45651" lon="6.51728">
        <ele>2624</ele>
        <time>2021-02-21T07:23:10Z</time>
      </trkpt>
      <trkpt lat="44.45651" lon="6.51727">
        <ele>2624</ele>
        <time>2021-02-21T07:23:11Z</time>
      </trkpt>
      <trkpt lat="44.45651" lon="6.51727">
        <ele>2625</ele>
        <time>2021-02-21T07:23:12Z</time>
      </trkpt>
      <trkpt lat="44.45651" lon="6.51727">
        <ele>2625</ele>
        <time>2021-02-21T07:23:13Z</time>
      </trkpt>
      <trkpt lat="44.45651" lon="6.51726">
        <ele>2625</ele>
        <time>2021-02-21T07:23:14Z</time>
      </trkpt>
      <trkpt lat="44.45651" lon="6.51726">
        <ele>2625</ele>
        <time>2021-02-21T07:23:15Z</time>
      </trkpt>
      <trkpt lat="44.45651" lon="6.51725">
        <ele>2625</ele>
        <time>2021-02-21T07:23:16Z</time>
      </trkpt>
      <trkpt lat="44.45652" lon="6.51725">
        <ele>2625</ele>
        <time>2021-02-21T07:23:17Z</time>
      </trkpt>
      <trkpt lat="44.45652" lon="6.51726">
        <ele>2625</ele>
        <time>2021-02-21T07:23:18Z</time>
      </trkpt>
      <trkpt lat="44.45651" lon="6.51726">
        <ele>2625</ele>
        <time>2021-02-21T07:23:19Z</time>
      </trkpt>
      <trkpt lat="44.45651" lon="6.51726">
        <ele>2625</ele>
        <time>2021-02-21T07:23:20Z</time>
      </trkpt>
      <trkpt lat="44.45651" lon="6.51726">
        <ele>2626</ele>
        <time>2021-02-21T07:23:21Z</time>
      </trkpt>
      <trkpt lat="44.45651" lon="6.51725">
        <ele>2626</ele>
        <time>2021-02-21T07:23:22Z</time>
      </trkpt>
      <trkpt lat="44.45651" lon="6.51724">
        <ele>2626</ele>
        <time>2021-02-21T07:23:23Z</time>
      </trkpt>
      <trkpt lat="44.45652" lon="6.51723">
        <ele>2626</ele>
        <time>2021-02-21T07:23:24Z</time>
      </trkpt>
      <trkpt lat="44.45652" lon="6.51723">
        <ele>2626</ele>
        <time>2021-02-21T07:23:25Z</time>
      </trkpt>
      <trkpt lat="44.45652" lon="6.51722">
        <ele>2626</ele>
        <time>2021-02-21T07:23:26Z</time>
      </trkpt>
      <trkpt lat="44.45652" lon="6.51721">
        <ele>2628</ele>
        <time>2021-02-21T07:23:27Z</time>
      </trkpt>
      <trkpt lat="44.45652" lon="6.5172">
        <ele>2629</ele>
        <time>2021-02-21T07:23:28Z</time>
      </trkpt>
      <trkpt lat="44.45652" lon="6.5172">
        <ele>2629</ele>
        <time>2021-02-21T07:23:29Z</time>
      </trkpt>
      <trkpt lat="44.45652" lon="6.5172">
        <ele>2629</ele>
        <time>2021-02-21T07:23:30Z</time>
      </trkpt>
      <trkpt lat="44.45653" lon="6.51721">
        <ele>2629</ele>
        <time>2021-02-21T07:23:31Z</time>
      </trkpt>
      <trkpt lat="44.45653" lon="6.5172">
        <ele>2630</ele>
        <time>2021-02-21T07:23:32Z</time>
      </trkpt>
      <trkpt lat="44.45654" lon="6.5172">
        <ele>2630</ele>
        <time>2021-02-21T07:23:33Z</time>
      </trkpt>
      <trkpt lat="44.45654" lon="6.5172">
        <ele>2630</ele>
        <time>2021-02-21T07:23:34Z</time>
      </trkpt>
      <trkpt lat="44.45655" lon="6.5172">
        <ele>2630</ele>
        <time>2021-02-21T07:23:35Z</time>
      </trkpt>
      <trkpt lat="44.45654" lon="6.5172">
        <ele>2630</ele>
        <time>2021-02-21T07:23:36Z</time>
      </trkpt>
      <trkpt lat="44.45654" lon="6.5172">
        <ele>2630</ele>
        <time>2021-02-21T07:23:37Z</time>
      </trkpt>
      <trkpt lat="44.45654" lon="6.51719">
        <ele>2630</ele>
        <time>2021-02-21T07:23:38Z</time>
      </trkpt>
      <trkpt lat="44.45654" lon="6.51719">
        <ele>2630</ele>
        <time>2021-02-21T07:23:39Z</time>
      </trkpt>
      <trkpt lat="44.45654" lon="6.51718">
        <ele>2630</ele>
        <time>2021-02-21T07:23:40Z</time>
      </trkpt>
      <trkpt lat="44.45654" lon="6.51719">
        <ele>2631</ele>
        <time>2021-02-21T07:23:41Z</time>
      </trkpt>
      <trkpt lat="44.45654" lon="6.5172">
        <ele>2631</ele>
        <time>2021-02-21T07:23:42Z</time>
      </trkpt>
      <trkpt lat="44.45654" lon="6.5172">
        <ele>2631</ele>
        <time>2021-02-21T07:23:43Z</time>
      </trkpt>
      <trkpt lat="44.45653" lon="6.51721">
        <ele>2631</ele>
        <time>2021-02-21T07:23:44Z</time>
      </trkpt>
      <trkpt lat="44.45653" lon="6.51721">
        <ele>2631</ele>
        <time>2021-02-21T07:23:45Z</time>
      </trkpt>
      <trkpt lat="44.45652" lon="6.51723">
        <ele>2631</ele>
        <time>2021-02-21T07:23:46Z</time>
      </trkpt>
      <trkpt lat="44.45651" lon="6.51724">
        <ele>2631</ele>
        <time>2021-02-21T07:23:47Z</time>
      </trkpt>
      <trkpt lat="44.4565" lon="6.51724">
        <ele>2631</ele>
        <time>2021-02-21T07:23:48Z</time>
      </trkpt>
      <trkpt lat="44.4565" lon="6.51723">
        <ele>2631</ele>
        <time>2021-02-21T07:23:49Z</time>
      </trkpt>
      <trkpt lat="44.45649" lon="6.51723">
        <ele>2632</ele>
        <time>2021-02-21T07:23:50Z</time>
      </trkpt>
      <trkpt lat="44.45649" lon="6.51722">
        <ele>2632</ele>
        <time>2021-02-21T07:23:51Z</time>
      </trkpt>
      <trkpt lat="44.4565" lon="6.5172">
        <ele>2632</ele>
        <time>2021-02-21T07:23:52Z</time>
      </trkpt>
      <trkpt lat="44.4565" lon="6.5172">
        <ele>2631</ele>
        <time>2021-02-21T07:23:53Z</time>
      </trkpt>
      <trkpt lat="44.4565" lon="6.5172">
        <ele>2631</ele>
        <time>2021-02-21T07:23:54Z</time>
      </trkpt>
      <trkpt lat="44.4565" lon="6.51719">
        <ele>2631</ele>
        <time>2021-02-21T07:23:55Z</time>
      </trkpt>
      <trkpt lat="44.4565" lon="6.51719">
        <ele>2631</ele>
        <time>2021-02-21T07:23:56Z</time>
      </trkpt>
      <trkpt lat="44.45651" lon="6.51719">
        <ele>2631</ele>
        <time>2021-02-21T07:23:57Z</time>
      </trkpt>
      <trkpt lat="44.45651" lon="6.51719">
        <ele>2631</ele>
        <time>2021-02-21T07:23:58Z</time>
      </trkpt>
      <trkpt lat="44.45652" lon="6.51718">
        <ele>2631</ele>
        <time>2021-02-21T07:23:59Z</time>
      </trkpt>
      <trkpt lat="44.45652" lon="6.51718">
        <ele>2631</ele>
        <time>2021-02-21T07:24:00Z</time>
      </trkpt>
      <trkpt lat="44.45652" lon="6.51716">
        <ele>2631</ele>
        <time>2021-02-21T07:24:01Z</time>
      </trkpt>
      <trkpt lat="44.45652" lon="6.51716">
        <ele>2631</ele>
        <time>2021-02-21T07:24:02Z</time>
      </trkpt>
      <trkpt lat="44.45652" lon="6.51716">
        <ele>2631</ele>
        <time>2021-02-21T07:24:03Z</time>
      </trkpt>
      <trkpt lat="44.45651" lon="6.51716">
        <ele>2631</ele>
        <time>2021-02-21T07:24:04Z</time>
      </trkpt>
      <trkpt lat="44.45651" lon="6.51717">
        <ele>2631</ele>
        <time>2021-02-21T07:24:05Z</time>
      </trkpt>
      <trkpt lat="44.45651" lon="6.51717">
        <ele>2631</ele>
        <time>2021-02-21T07:24:06Z</time>
      </trkpt>
      <trkpt lat="44.45651" lon="6.51719">
        <ele>2631</ele>
        <time>2021-02-21T07:24:07Z</time>
      </trkpt>
      <trkpt lat="44.45651" lon="6.5172">
        <ele>2631</ele>
        <time>2021-02-21T07:24:08Z</time>
      </trkpt>
      <trkpt lat="44.45652" lon="6.51721">
        <ele>2631</ele>
        <time>2021-02-21T07:24:09Z</time>
      </trkpt>
      <trkpt lat="44.45652" lon="6.5172">
        <ele>2631</ele>
        <time>2021-02-21T07:24:10Z</time>
      </trkpt>
      <trkpt lat="44.45652" lon="6.5172">
        <ele>2631</ele>
        <time>2021-02-21T07:24:11Z</time>
      </trkpt>
      <trkpt lat="44.45652" lon="6.5172">
        <ele>2631</ele>
        <time>2021-02-21T07:24:12Z</time>
      </trkpt>
      <trkpt lat="44.45652" lon="6.51719">
        <ele>2631</ele>
        <time>2021-02-21T07:24:13Z</time>
      </trkpt>
      <trkpt lat="44.45652" lon="6.51719">
        <ele>2631</ele>
        <time>2021-02-21T07:24:14Z</time>
      </trkpt>
      <trkpt lat="44.45652" lon="6.51719">
        <ele>2631</ele>
        <time>2021-02-21T07:24:15Z</time>
      </trkpt>
      <trkpt lat="44.45652" lon="6.51719">
        <ele>2632</ele>
        <time>2021-02-21T07:24:16Z</time>
      </trkpt>
      <trkpt lat="44.45652" lon="6.51719">
        <ele>2632</ele>
        <time>2021-02-21T07:24:17Z</time>
      </trkpt>
      <trkpt lat="44.45652" lon="6.51719">
        <ele>2632</ele>
        <time>2021-02-21T07:24:18Z</time>
      </trkpt>
      <trkpt lat="44.45653" lon="6.51716">
        <ele>2632</ele>
        <time>2021-02-21T07:24:19Z</time>
      </trkpt>
      <trkpt lat="44.45653" lon="6.51716">
        <ele>2632</ele>
        <time>2021-02-21T07:24:20Z</time>
      </trkpt>
      <trkpt lat="44.45653" lon="6.51715">
        <ele>2633</ele>
        <time>2021-02-21T07:24:21Z</time>
      </trkpt>
      <trkpt lat="44.45651" lon="6.51716">
        <ele>2633</ele>
        <time>2021-02-21T07:24:22Z</time>
      </trkpt>
      <trkpt lat="44.45651" lon="6.51715">
        <ele>2633</ele>
        <time>2021-02-21T07:24:23Z</time>
      </trkpt>
      <trkpt lat="44.45651" lon="6.51715">
        <ele>2633</ele>
        <time>2021-02-21T07:24:24Z</time>
      </trkpt>
      <trkpt lat="44.45651" lon="6.51715">
        <ele>2633</ele>
        <time>2021-02-21T07:24:25Z</time>
      </trkpt>
      <trkpt lat="44.45651" lon="6.51714">
        <ele>2633</ele>
        <time>2021-02-21T07:24:26Z</time>
      </trkpt>
      <trkpt lat="44.4565" lon="6.51714">
        <ele>2633</ele>
        <time>2021-02-21T07:24:27Z</time>
      </trkpt>
      <trkpt lat="44.4565" lon="6.51715">
        <ele>2632</ele>
        <time>2021-02-21T07:24:28Z</time>
      </trkpt>
      <trkpt lat="44.4565" lon="6.51714">
        <ele>2632</ele>
        <time>2021-02-21T07:24:29Z</time>
      </trkpt>
      <trkpt lat="44.4565" lon="6.51713">
        <ele>2632</ele>
        <time>2021-02-21T07:24:30Z</time>
      </trkpt>
      <trkpt lat="44.45649" lon="6.51713">
        <ele>2632</ele>
        <time>2021-02-21T07:24:31Z</time>
      </trkpt>
      <trkpt lat="44.45649" lon="6.51713">
        <ele>2631</ele>
        <time>2021-02-21T07:24:32Z</time>
      </trkpt>
      <trkpt lat="44.45649" lon="6.51712">
        <ele>2630</ele>
        <time>2021-02-21T07:24:33Z</time>
      </trkpt>
      <trkpt lat="44.45648" lon="6.51711">
        <ele>2630</ele>
        <time>2021-02-21T07:24:34Z</time>
      </trkpt>
      <trkpt lat="44.45648" lon="6.5171">
        <ele>2630</ele>
        <time>2021-02-21T07:24:35Z</time>
      </trkpt>
      <trkpt lat="44.45648" lon="6.5171">
        <ele>2629</ele>
        <time>2021-02-21T07:24:36Z</time>
      </trkpt>
      <trkpt lat="44.45649" lon="6.5171">
        <ele>2629</ele>
        <time>2021-02-21T07:24:37Z</time>
      </trkpt>
      <trkpt lat="44.45649" lon="6.51711">
        <ele>2629</ele>
        <time>2021-02-21T07:24:38Z</time>
      </trkpt>
      <trkpt lat="44.45649" lon="6.51711">
        <ele>2629</ele>
        <time>2021-02-21T07:24:39Z</time>
      </trkpt>
      <trkpt lat="44.45649" lon="6.51711">
        <ele>2629</ele>
        <time>2021-02-21T07:24:40Z</time>
      </trkpt>
      <trkpt lat="44.4565" lon="6.5171">
        <ele>2629</ele>
        <time>2021-02-21T07:24:41Z</time>
      </trkpt>
      <trkpt lat="44.45651" lon="6.51712">
        <ele>2629</ele>
        <time>2021-02-21T07:24:42Z</time>
      </trkpt>
      <trkpt lat="44.4565" lon="6.51714">
        <ele>2629</ele>
        <time>2021-02-21T07:24:43Z</time>
      </trkpt>
      <trkpt lat="44.4565" lon="6.51713">
        <ele>2629</ele>
        <time>2021-02-21T07:24:44Z</time>
      </trkpt>
      <trkpt lat="44.45651" lon="6.51713">
        <ele>2629</ele>
        <time>2021-02-21T07:24:45Z</time>
      </trkpt>
      <trkpt lat="44.45651" lon="6.51713">
        <ele>2629</ele>
        <time>2021-02-21T07:24:46Z</time>
      </trkpt>
      <trkpt lat="44.45651" lon="6.51713">
        <ele>2629</ele>
        <time>2021-02-21T07:24:47Z</time>
      </trkpt>
      <trkpt lat="44.4565" lon="6.51712">
        <ele>2629</ele>
        <time>2021-02-21T07:24:48Z</time>
      </trkpt>
      <trkpt lat="44.45651" lon="6.51713">
        <ele>2629</ele>
        <time>2021-02-21T07:24:49Z</time>
      </trkpt>
      <trkpt lat="44.4565" lon="6.51713">
        <ele>2629</ele>
        <time>2021-02-21T07:24:50Z</time>
      </trkpt>
      <trkpt lat="44.45649" lon="6.51713">
        <ele>2629</ele>
        <time>2021-02-21T07:24:51Z</time>
      </trkpt>
      <trkpt lat="44.45649" lon="6.51714">
        <ele>2629</ele>
        <time>2021-02-21T07:24:52Z</time>
      </trkpt>
      <trkpt lat="44.45649" lon="6.51714">
        <ele>2629</ele>
        <time>2021-02-21T07:24:53Z</time>
      </trkpt>
      <trkpt lat="44.45649" lon="6.51713">
        <ele>2630</ele>
        <time>2021-02-21T07:24:54Z</time>
      </trkpt>
      <trkpt lat="44.45649" lon="6.51713">
        <ele>2630</ele>
        <time>2021-02-21T07:24:55Z</time>
      </trkpt>
      <trkpt lat="44.45649" lon="6.51713">
        <ele>2630</ele>
        <time>2021-02-21T07:24:56Z</time>
      </trkpt>
      <trkpt lat="44.45649" lon="6.51713">
        <ele>2630</ele>
        <time>2021-02-21T07:24:57Z</time>
      </trkpt>
      <trkpt lat="44.45649" lon="6.51713">
        <ele>2630</ele>
        <time>2021-02-21T07:24:58Z</time>
      </trkpt>
      <trkpt lat="44.45649" lon="6.51713">
        <ele>2630</ele>
        <time>2021-02-21T07:24:59Z</time>
      </trkpt>
      <trkpt lat="44.45649" lon="6.51713">
        <ele>2630</ele>
        <time>2021-02-21T07:25:00Z</time>
      </trkpt>
      <trkpt lat="44.45649" lon="6.51713">
        <ele>2630</ele>
        <time>2021-02-21T07:25:01Z</time>
      </trkpt>
      <trkpt lat="44.45649" lon="6.51713">
        <ele>2631</ele>
        <time>2021-02-21T07:25:02Z</time>
      </trkpt>
      <trkpt lat="44.45649" lon="6.51713">
        <ele>2631</ele>
        <time>2021-02-21T07:25:03Z</time>
      </trkpt>
      <trkpt lat="44.45649" lon="6.51713">
        <ele>2631</ele>
        <time>2021-02-21T07:25:04Z</time>
      </trkpt>
      <trkpt lat="44.45649" lon="6.51713">
        <ele>2631</ele>
        <time>2021-02-21T07:25:05Z</time>
      </trkpt>
      <trkpt lat="44.45649" lon="6.51713">
        <ele>2631</ele>
        <time>2021-02-21T07:25:06Z</time>
      </trkpt>
      <trkpt lat="44.45649" lon="6.51713">
        <ele>2631</ele>
        <time>2021-02-21T07:25:07Z</time>
      </trkpt>
      <trkpt lat="44.45649" lon="6.51713">
        <ele>2631</ele>
        <time>2021-02-21T07:25:08Z</time>
      </trkpt>
      <trkpt lat="44.45649" lon="6.51713">
        <ele>2631</ele>
        <time>2021-02-21T07:25:09Z</time>
      </trkpt>
      <trkpt lat="44.45649" lon="6.51713">
        <ele>2631</ele>
        <time>2021-02-21T07:25:10Z</time>
      </trkpt>
      <trkpt lat="44.45649" lon="6.51713">
        <ele>2631</ele>
        <time>2021-02-21T07:25:11Z</time>
      </trkpt>
      <trkpt lat="44.45649" lon="6.51713">
        <ele>2631</ele>
        <time>2021-02-21T07:25:12Z</time>
      </trkpt>
      <trkpt lat="44.45649" lon="6.51713">
        <ele>2631</ele>
        <time>2021-02-21T07:25:13Z</time>
      </trkpt>
      <trkpt lat="44.45649" lon="6.51713">
        <ele>2631</ele>
        <time>2021-02-21T07:25:14Z</time>
      </trkpt>
      <trkpt lat="44.45649" lon="6.51713">
        <ele>2631</ele>
        <time>2021-02-21T07:25:15Z</time>
      </trkpt>
      <trkpt lat="44.45648" lon="6.51713">
        <ele>2632</ele>
        <time>2021-02-21T07:25:16Z</time>
      </trkpt>
      <trkpt lat="44.45648" lon="6.51713">
        <ele>2632</ele>
        <time>2021-02-21T07:25:17Z</time>
      </trkpt>
      <trkpt lat="44.45648" lon="6.51714">
        <ele>2632</ele>
        <time>2021-02-21T07:25:18Z</time>
      </trkpt>
      <trkpt lat="44.45648" lon="6.51714">
        <ele>2632</ele>
        <time>2021-02-21T07:25:19Z</time>
      </trkpt>
      <trkpt lat="44.45648" lon="6.51714">
        <ele>2632</ele>
        <time>2021-02-21T07:25:20Z</time>
      </trkpt>
      <trkpt lat="44.45648" lon="6.51714">
        <ele>2632</ele>
        <time>2021-02-21T07:25:21Z</time>
      </trkpt>
      <trkpt lat="44.45648" lon="6.51714">
        <ele>2632</ele>
        <time>2021-02-21T07:25:22Z</time>
      </trkpt>
      <trkpt lat="44.45648" lon="6.51714">
        <ele>2632</ele>
        <time>2021-02-21T07:25:23Z</time>
      </trkpt>
      <trkpt lat="44.45648" lon="6.51714">
        <ele>2632</ele>
        <time>2021-02-21T07:25:24Z</time>
      </trkpt>
      <trkpt lat="44.45648" lon="6.51714">
        <ele>2632</ele>
        <time>2021-02-21T07:25:25Z</time>
      </trkpt>
      <trkpt lat="44.45648" lon="6.51714">
        <ele>2633</ele>
        <time>2021-02-21T07:25:26Z</time>
      </trkpt>
      <trkpt lat="44.45648" lon="6.51714">
        <ele>2633</ele>
        <time>2021-02-21T07:25:27Z</time>
      </trkpt>
      <trkpt lat="44.45648" lon="6.51714">
        <ele>2633</ele>
        <time>2021-02-21T07:25:28Z</time>
      </trkpt>
      <trkpt lat="44.45648" lon="6.51714">
        <ele>2635</ele>
        <time>2021-02-21T07:25:29Z</time>
      </trkpt>
      <trkpt lat="44.45648" lon="6.51714">
        <ele>2636</ele>
        <time>2021-02-21T07:25:30Z</time>
      </trkpt>
      <trkpt lat="44.45648" lon="6.51714">
        <ele>2636</ele>
        <time>2021-02-21T07:25:31Z</time>
      </trkpt>
      <trkpt lat="44.45648" lon="6.51714">
        <ele>2636</ele>
        <time>2021-02-21T07:25:32Z</time>
      </trkpt>
      <trkpt lat="44.45648" lon="6.51714">
        <ele>2637</ele>
        <time>2021-02-21T07:25:33Z</time>
      </trkpt>
      <trkpt lat="44.45648" lon="6.51714">
        <ele>2637</ele>
        <time>2021-02-21T07:25:34Z</time>
      </trkpt>
      <trkpt lat="44.45648" lon="6.51714">
        <ele>2637</ele>
        <time>2021-02-21T07:25:35Z</time>
      </trkpt>
      <trkpt lat="44.45648" lon="6.51714">
        <ele>2637</ele>
        <time>2021-02-21T07:25:36Z</time>
      </trkpt>
      <trkpt lat="44.45648" lon="6.51714">
        <ele>2637</ele>
        <time>2021-02-21T07:25:37Z</time>
      </trkpt>
      <trkpt lat="44.45648" lon="6.51714">
        <ele>2637</ele>
        <time>2021-02-21T07:25:38Z</time>
      </trkpt>
      <trkpt lat="44.45648" lon="6.51714">
        <ele>2637</ele>
        <time>2021-02-21T07:25:39Z</time>
      </trkpt>
      <trkpt lat="44.45649" lon="6.51711">
        <ele>2638</ele>
        <time>2021-02-21T07:25:40Z</time>
      </trkpt>
      <trkpt lat="44.45649" lon="6.51711">
        <ele>2638</ele>
        <time>2021-02-21T07:25:41Z</time>
      </trkpt>
      <trkpt lat="44.45649" lon="6.51712">
        <ele>2638</ele>
        <time>2021-02-21T07:25:42Z</time>
      </trkpt>
      <trkpt lat="44.45648" lon="6.51712">
        <ele>2638</ele>
        <time>2021-02-21T07:25:43Z</time>
      </trkpt>
      <trkpt lat="44.45648" lon="6.51712">
        <ele>2639</ele>
        <time>2021-02-21T07:25:44Z</time>
      </trkpt>
      <trkpt lat="44.45648" lon="6.51712">
        <ele>2639</ele>
        <time>2021-02-21T07:25:45Z</time>
      </trkpt>
      <trkpt lat="44.45648" lon="6.51712">
        <ele>2639</ele>
        <time>2021-02-21T07:25:46Z</time>
      </trkpt>
      <trkpt lat="44.45648" lon="6.51712">
        <ele>2639</ele>
        <time>2021-02-21T07:25:47Z</time>
      </trkpt>
      <trkpt lat="44.45648" lon="6.51712">
        <ele>2639</ele>
        <time>2021-02-21T07:25:48Z</time>
      </trkpt>
      <trkpt lat="44.45648" lon="6.51712">
        <ele>2639</ele>
        <time>2021-02-21T07:25:49Z</time>
      </trkpt>
      <trkpt lat="44.45648" lon="6.51712">
        <ele>2639</ele>
        <time>2021-02-21T07:25:50Z</time>
      </trkpt>
      <trkpt lat="44.45648" lon="6.51712">
        <ele>2639</ele>
        <time>2021-02-21T07:25:51Z</time>
      </trkpt>
      <trkpt lat="44.45648" lon="6.51712">
        <ele>2639</ele>
        <time>2021-02-21T07:25:52Z</time>
      </trkpt>
      <trkpt lat="44.45648" lon="6.51712">
        <ele>2639</ele>
        <time>2021-02-21T07:25:53Z</time>
      </trkpt>
      <trkpt lat="44.45648" lon="6.51712">
        <ele>2639</ele>
        <time>2021-02-21T07:25:54Z</time>
      </trkpt>
      <trkpt lat="44.45648" lon="6.51712">
        <ele>2639</ele>
        <time>2021-02-21T07:25:55Z</time>
      </trkpt>
      <trkpt lat="44.45648" lon="6.51712">
        <ele>2639</ele>
        <time>2021-02-21T07:25:56Z</time>
      </trkpt>
      <trkpt lat="44.45648" lon="6.51712">
        <ele>2639</ele>
        <time>2021-02-21T07:25:57Z</time>
      </trkpt>
      <trkpt lat="44.45648" lon="6.51712">
        <ele>2639</ele>
        <time>2021-02-21T07:25:58Z</time>
      </trkpt>
      <trkpt lat="44.45648" lon="6.51712">
        <ele>2639</ele>
        <time>2021-02-21T07:25:59Z</time>
      </trkpt>
      <trkpt lat="44.45648" lon="6.51712">
        <ele>2639</ele>
        <time>2021-02-21T07:26:00Z</time>
      </trkpt>
      <trkpt lat="44.45648" lon="6.51712">
        <ele>2639</ele>
        <time>2021-02-21T07:26:01Z</time>
      </trkpt>
      <trkpt lat="44.45648" lon="6.51712">
        <ele>2639</ele>
        <time>2021-02-21T07:26:02Z</time>
      </trkpt>
      <trkpt lat="44.45648" lon="6.51712">
        <ele>2639</ele>
        <time>2021-02-21T07:26:03Z</time>
      </trkpt>
      <trkpt lat="44.45648" lon="6.51712">
        <ele>2639</ele>
        <time>2021-02-21T07:26:04Z</time>
      </trkpt>
      <trkpt lat="44.45647" lon="6.51712">
        <ele>2639</ele>
        <time>2021-02-21T07:26:05Z</time>
      </trkpt>
      <trkpt lat="44.45648" lon="6.51711">
        <ele>2639</ele>
        <time>2021-02-21T07:26:06Z</time>
      </trkpt>
      <trkpt lat="44.45648" lon="6.51709">
        <ele>2639</ele>
        <time>2021-02-21T07:26:07Z</time>
      </trkpt>
      <trkpt lat="44.45647" lon="6.51708">
        <ele>2639</ele>
        <time>2021-02-21T07:26:08Z</time>
      </trkpt>
      <trkpt lat="44.45647" lon="6.51707">
        <ele>2639</ele>
        <time>2021-02-21T07:26:09Z</time>
      </trkpt>
      <trkpt lat="44.45647" lon="6.51705">
        <ele>2639</ele>
        <time>2021-02-21T07:26:10Z</time>
      </trkpt>
      <trkpt lat="44.45647" lon="6.51704">
        <ele>2639</ele>
        <time>2021-02-21T07:26:11Z</time>
      </trkpt>
      <trkpt lat="44.45647" lon="6.51704">
        <ele>2639</ele>
        <time>2021-02-21T07:26:12Z</time>
      </trkpt>
      <trkpt lat="44.45648" lon="6.51704">
        <ele>2639</ele>
        <time>2021-02-21T07:26:13Z</time>
      </trkpt>
      <trkpt lat="44.45648" lon="6.51704">
        <ele>2639</ele>
        <time>2021-02-21T07:26:14Z</time>
      </trkpt>
      <trkpt lat="44.45649" lon="6.51704">
        <ele>2639</ele>
        <time>2021-02-21T07:26:15Z</time>
      </trkpt>
      <trkpt lat="44.45649" lon="6.51704">
        <ele>2639</ele>
        <time>2021-02-21T07:26:16Z</time>
      </trkpt>
      <trkpt lat="44.45649" lon="6.51704">
        <ele>2639</ele>
        <time>2021-02-21T07:26:17Z</time>
      </trkpt>
      <trkpt lat="44.45649" lon="6.51704">
        <ele>2639</ele>
        <time>2021-02-21T07:26:18Z</time>
      </trkpt>
      <trkpt lat="44.45649" lon="6.51704">
        <ele>2639</ele>
        <time>2021-02-21T07:26:19Z</time>
      </trkpt>
      <trkpt lat="44.45649" lon="6.51704">
        <ele>2639</ele>
        <time>2021-02-21T07:26:20Z</time>
      </trkpt>
      <trkpt lat="44.45648" lon="6.51704">
        <ele>2639</ele>
        <time>2021-02-21T07:26:21Z</time>
      </trkpt>
      <trkpt lat="44.45648" lon="6.51705">
        <ele>2639</ele>
        <time>2021-02-21T07:26:22Z</time>
      </trkpt>
      <trkpt lat="44.45648" lon="6.51704">
        <ele>2639</ele>
        <time>2021-02-21T07:26:23Z</time>
      </trkpt>
      <trkpt lat="44.45647" lon="6.51704">
        <ele>2640</ele>
        <time>2021-02-21T07:26:24Z</time>
      </trkpt>
      <trkpt lat="44.45647" lon="6.51703">
        <ele>2640</ele>
        <time>2021-02-21T07:26:25Z</time>
      </trkpt>
      <trkpt lat="44.45646" lon="6.51703">
        <ele>2640</ele>
        <time>2021-02-21T07:26:26Z</time>
      </trkpt>
      <trkpt lat="44.45646" lon="6.51702">
        <ele>2640</ele>
        <time>2021-02-21T07:26:27Z</time>
      </trkpt>
      <trkpt lat="44.45646" lon="6.51702">
        <ele>2640</ele>
        <time>2021-02-21T07:26:28Z</time>
      </trkpt>
      <trkpt lat="44.45646" lon="6.51703">
        <ele>2640</ele>
        <time>2021-02-21T07:26:29Z</time>
      </trkpt>
      <trkpt lat="44.45646" lon="6.51703">
        <ele>2640</ele>
        <time>2021-02-21T07:26:30Z</time>
      </trkpt>
      <trkpt lat="44.45646" lon="6.51703">
        <ele>2640</ele>
        <time>2021-02-21T07:26:31Z</time>
      </trkpt>
      <trkpt lat="44.45646" lon="6.51704">
        <ele>2640</ele>
        <time>2021-02-21T07:26:32Z</time>
      </trkpt>
      <trkpt lat="44.45646" lon="6.51704">
        <ele>2640</ele>
        <time>2021-02-21T07:26:33Z</time>
      </trkpt>
      <trkpt lat="44.45646" lon="6.51705">
        <ele>2640</ele>
        <time>2021-02-21T07:26:34Z</time>
      </trkpt>
      <trkpt lat="44.45647" lon="6.51705">
        <ele>2640</ele>
        <time>2021-02-21T07:26:35Z</time>
      </trkpt>
      <trkpt lat="44.45647" lon="6.51705">
        <ele>2640</ele>
        <time>2021-02-21T07:26:36Z</time>
      </trkpt>
      <trkpt lat="44.45647" lon="6.51705">
        <ele>2640</ele>
        <time>2021-02-21T07:26:37Z</time>
      </trkpt>
      <trkpt lat="44.45647" lon="6.51705">
        <ele>2640</ele>
        <time>2021-02-21T07:26:38Z</time>
      </trkpt>
      <trkpt lat="44.45647" lon="6.51705">
        <ele>2639</ele>
        <time>2021-02-21T07:26:39Z</time>
      </trkpt>
      <trkpt lat="44.45647" lon="6.51705">
        <ele>2639</ele>
        <time>2021-02-21T07:26:40Z</time>
      </trkpt>
      <trkpt lat="44.45647" lon="6.51705">
        <ele>2639</ele>
        <time>2021-02-21T07:26:41Z</time>
      </trkpt>
      <trkpt lat="44.45647" lon="6.51705">
        <ele>2639</ele>
        <time>2021-02-21T07:26:42Z</time>
      </trkpt>
      <trkpt lat="44.45647" lon="6.51705">
        <ele>2639</ele>
        <time>2021-02-21T07:26:43Z</time>
      </trkpt>
      <trkpt lat="44.45647" lon="6.51705">
        <ele>2639</ele>
        <time>2021-02-21T07:26:44Z</time>
      </trkpt>
      <trkpt lat="44.45647" lon="6.51705">
        <ele>2639</ele>
        <time>2021-02-21T07:26:45Z</time>
      </trkpt>
      <trkpt lat="44.45647" lon="6.51705">
        <ele>2639</ele>
        <time>2021-02-21T07:26:46Z</time>
      </trkpt>
      <trkpt lat="44.45647" lon="6.51705">
        <ele>2639</ele>
        <time>2021-02-21T07:26:47Z</time>
      </trkpt>
      <trkpt lat="44.45647" lon="6.51705">
        <ele>2639</ele>
        <time>2021-02-21T07:26:48Z</time>
      </trkpt>
      <trkpt lat="44.45647" lon="6.51705">
        <ele>2639</ele>
        <time>2021-02-21T07:26:49Z</time>
      </trkpt>
      <trkpt lat="44.45647" lon="6.51705">
        <ele>2639</ele>
        <time>2021-02-21T07:26:50Z</time>
      </trkpt>
      <trkpt lat="44.45647" lon="6.51705">
        <ele>2639</ele>
        <time>2021-02-21T07:26:51Z</time>
      </trkpt>
      <trkpt lat="44.45647" lon="6.51705">
        <ele>2639</ele>
        <time>2021-02-21T07:26:52Z</time>
      </trkpt>
      <trkpt lat="44.45647" lon="6.51705">
        <ele>2639</ele>
        <time>2021-02-21T07:26:53Z</time>
      </trkpt>
      <trkpt lat="44.45647" lon="6.51705">
        <ele>2639</ele>
        <time>2021-02-21T07:26:54Z</time>
      </trkpt>
      <trkpt lat="44.45647" lon="6.51705">
        <ele>2639</ele>
        <time>2021-02-21T07:26:55Z</time>
      </trkpt>
      <trkpt lat="44.45647" lon="6.51705">
        <ele>2639</ele>
        <time>2021-02-21T07:26:56Z</time>
      </trkpt>
      <trkpt lat="44.45647" lon="6.51705">
        <ele>2639</ele>
        <time>2021-02-21T07:26:57Z</time>
      </trkpt>
      <trkpt lat="44.45647" lon="6.51705">
        <ele>2639</ele>
        <time>2021-02-21T07:26:58Z</time>
      </trkpt>
      <trkpt lat="44.45647" lon="6.51705">
        <ele>2639</ele>
        <time>2021-02-21T07:26:59Z</time>
      </trkpt>
      <trkpt lat="44.45647" lon="6.51705">
        <ele>2639</ele>
        <time>2021-02-21T07:27:00Z</time>
      </trkpt>
      <trkpt lat="44.45647" lon="6.51705">
        <ele>2639</ele>
        <time>2021-02-21T07:27:01Z</time>
      </trkpt>
      <trkpt lat="44.45643" lon="6.51699">
        <ele>2639</ele>
        <time>2021-02-21T07:27:02Z</time>
      </trkpt>
      <trkpt lat="44.45643" lon="6.51699">
        <ele>2639</ele>
        <time>2021-02-21T07:27:03Z</time>
      </trkpt>
      <trkpt lat="44.45642" lon="6.51699">
        <ele>2639</ele>
        <time>2021-02-21T07:27:04Z</time>
      </trkpt>
      <trkpt lat="44.45642" lon="6.51698">
        <ele>2639</ele>
        <time>2021-02-21T07:27:05Z</time>
      </trkpt>
      <trkpt lat="44.45642" lon="6.51698">
        <ele>2639</ele>
        <time>2021-02-21T07:27:06Z</time>
      </trkpt>
      <trkpt lat="44.45642" lon="6.51697">
        <ele>2639</ele>
        <time>2021-02-21T07:27:07Z</time>
      </trkpt>
      <trkpt lat="44.45642" lon="6.51696">
        <ele>2639</ele>
        <time>2021-02-21T07:27:08Z</time>
      </trkpt>
      <trkpt lat="44.45642" lon="6.51695">
        <ele>2639</ele>
        <time>2021-02-21T07:27:09Z</time>
      </trkpt>
      <trkpt lat="44.45642" lon="6.51695">
        <ele>2639</ele>
        <time>2021-02-21T07:27:10Z</time>
      </trkpt>
      <trkpt lat="44.45643" lon="6.51695">
        <ele>2639</ele>
        <time>2021-02-21T07:27:11Z</time>
      </trkpt>
      <trkpt lat="44.45643" lon="6.51695">
        <ele>2640</ele>
        <time>2021-02-21T07:27:12Z</time>
      </trkpt>
      <trkpt lat="44.45643" lon="6.51695">
        <ele>2640</ele>
        <time>2021-02-21T07:27:13Z</time>
      </trkpt>
      <trkpt lat="44.45643" lon="6.51695">
        <ele>2640</ele>
        <time>2021-02-21T07:27:14Z</time>
      </trkpt>
      <trkpt lat="44.45643" lon="6.51695">
        <ele>2640</ele>
        <time>2021-02-21T07:27:15Z</time>
      </trkpt>
      <trkpt lat="44.45643" lon="6.51695">
        <ele>2640</ele>
        <time>2021-02-21T07:27:16Z</time>
      </trkpt>
      <trkpt lat="44.45643" lon="6.51695">
        <ele>2640</ele>
        <time>2021-02-21T07:27:17Z</time>
      </trkpt>
      <trkpt lat="44.45643" lon="6.51695">
        <ele>2640</ele>
        <time>2021-02-21T07:27:18Z</time>
      </trkpt>
      <trkpt lat="44.45643" lon="6.51695">
        <ele>2640</ele>
        <time>2021-02-21T07:27:19Z</time>
      </trkpt>
      <trkpt lat="44.45643" lon="6.51695">
        <ele>2640</ele>
        <time>2021-02-21T07:27:20Z</time>
      </trkpt>
      <trkpt lat="44.45643" lon="6.51695">
        <ele>2640</ele>
        <time>2021-02-21T07:27:21Z</time>
      </trkpt>
      <trkpt lat="44.45643" lon="6.51695">
        <ele>2640</ele>
        <time>2021-02-21T07:27:22Z</time>
      </trkpt>
      <trkpt lat="44.45643" lon="6.51695">
        <ele>2640</ele>
        <time>2021-02-21T07:27:23Z</time>
      </trkpt>
      <trkpt lat="44.45643" lon="6.51695">
        <ele>2640</ele>
        <time>2021-02-21T07:27:24Z</time>
      </trkpt>
      <trkpt lat="44.45643" lon="6.51695">
        <ele>2640</ele>
        <time>2021-02-21T07:27:25Z</time>
      </trkpt>
      <trkpt lat="44.45643" lon="6.51695">
        <ele>2640</ele>
        <time>2021-02-21T07:27:26Z</time>
      </trkpt>
      <trkpt lat="44.45643" lon="6.51695">
        <ele>2640</ele>
        <time>2021-02-21T07:27:27Z</time>
      </trkpt>
      <trkpt lat="44.45643" lon="6.51695">
        <ele>2640</ele>
        <time>2021-02-21T07:27:28Z</time>
      </trkpt>
      <trkpt lat="44.45643" lon="6.51695">
        <ele>2640</ele>
        <time>2021-02-21T07:27:29Z</time>
      </trkpt>
      <trkpt lat="44.45643" lon="6.51695">
        <ele>2640</ele>
        <time>2021-02-21T07:27:30Z</time>
      </trkpt>
      <trkpt lat="44.45643" lon="6.51695">
        <ele>2640</ele>
        <time>2021-02-21T07:27:31Z</time>
      </trkpt>
      <trkpt lat="44.45643" lon="6.51695">
        <ele>2640</ele>
        <time>2021-02-21T07:27:32Z</time>
      </trkpt>
      <trkpt lat="44.45643" lon="6.51695">
        <ele>2640</ele>
        <time>2021-02-21T07:27:33Z</time>
      </trkpt>
      <trkpt lat="44.45643" lon="6.51695">
        <ele>2640</ele>
        <time>2021-02-21T07:27:34Z</time>
      </trkpt>
      <trkpt lat="44.45643" lon="6.51695">
        <ele>2640</ele>
        <time>2021-02-21T07:27:35Z</time>
      </trkpt>
      <trkpt lat="44.45643" lon="6.51695">
        <ele>2640</ele>
        <time>2021-02-21T07:27:36Z</time>
      </trkpt>
      <trkpt lat="44.45643" lon="6.51695">
        <ele>2640</ele>
        <time>2021-02-21T07:27:37Z</time>
      </trkpt>
      <trkpt lat="44.45643" lon="6.51695">
        <ele>2640</ele>
        <time>2021-02-21T07:27:38Z</time>
      </trkpt>
      <trkpt lat="44.45643" lon="6.51695">
        <ele>2640</ele>
        <time>2021-02-21T07:27:39Z</time>
      </trkpt>
      <trkpt lat="44.45643" lon="6.51695">
        <ele>2640</ele>
        <time>2021-02-21T07:27:40Z</time>
      </trkpt>
      <trkpt lat="44.45643" lon="6.51695">
        <ele>2640</ele>
        <time>2021-02-21T07:27:41Z</time>
      </trkpt>
      <trkpt lat="44.45643" lon="6.51695">
        <ele>2640</ele>
        <time>2021-02-21T07:27:42Z</time>
      </trkpt>
      <trkpt lat="44.45642" lon="6.51697">
        <ele>2640</ele>
        <time>2021-02-21T07:27:43Z</time>
      </trkpt>
      <trkpt lat="44.45642" lon="6.51697">
        <ele>2640</ele>
        <time>2021-02-21T07:27:44Z</time>
      </trkpt>
      <trkpt lat="44.45642" lon="6.51697">
        <ele>2641</ele>
        <time>2021-02-21T07:27:45Z</time>
      </trkpt>
      <trkpt lat="44.45641" lon="6.51699">
        <ele>2641</ele>
        <time>2021-02-21T07:27:46Z</time>
      </trkpt>
      <trkpt lat="44.45642" lon="6.517">
        <ele>2641</ele>
        <time>2021-02-21T07:27:47Z</time>
      </trkpt>
      <trkpt lat="44.45642" lon="6.517">
        <ele>2641</ele>
        <time>2021-02-21T07:27:48Z</time>
      </trkpt>
      <trkpt lat="44.45642" lon="6.51699">
        <ele>2641</ele>
        <time>2021-02-21T07:27:49Z</time>
      </trkpt>
      <trkpt lat="44.45642" lon="6.51699">
        <ele>2641</ele>
        <time>2021-02-21T07:27:50Z</time>
      </trkpt>
      <trkpt lat="44.45642" lon="6.51699">
        <ele>2641</ele>
        <time>2021-02-21T07:27:51Z</time>
      </trkpt>
      <trkpt lat="44.45642" lon="6.51699">
        <ele>2641</ele>
        <time>2021-02-21T07:27:52Z</time>
      </trkpt>
      <trkpt lat="44.45642" lon="6.51699">
        <ele>2641</ele>
        <time>2021-02-21T07:27:53Z</time>
      </trkpt>
      <trkpt lat="44.45642" lon="6.51699">
        <ele>2641</ele>
        <time>2021-02-21T07:27:54Z</time>
      </trkpt>
      <trkpt lat="44.45642" lon="6.51699">
        <ele>2641</ele>
        <time>2021-02-21T07:27:55Z</time>
      </trkpt>
      <trkpt lat="44.45642" lon="6.51699">
        <ele>2641</ele>
        <time>2021-02-21T07:27:56Z</time>
      </trkpt>
      <trkpt lat="44.45642" lon="6.51699">
        <ele>2641</ele>
        <time>2021-02-21T07:27:57Z</time>
      </trkpt>
      <trkpt lat="44.45642" lon="6.51699">
        <ele>2641</ele>
        <time>2021-02-21T07:27:58Z</time>
      </trkpt>
      <trkpt lat="44.45642" lon="6.51699">
        <ele>2641</ele>
        <time>2021-02-21T07:27:59Z</time>
      </trkpt>
      <trkpt lat="44.45642" lon="6.51699">
        <ele>2641</ele>
        <time>2021-02-21T07:28:00Z</time>
      </trkpt>
      <trkpt lat="44.4564" lon="6.51699">
        <ele>2641</ele>
        <time>2021-02-21T07:28:01Z</time>
      </trkpt>
      <trkpt lat="44.4564" lon="6.51699">
        <ele>2641</ele>
        <time>2021-02-21T07:28:02Z</time>
      </trkpt>
      <trkpt lat="44.4564" lon="6.51699">
        <ele>2641</ele>
        <time>2021-02-21T07:28:03Z</time>
      </trkpt>
      <trkpt lat="44.45641" lon="6.51698">
        <ele>2641</ele>
        <time>2021-02-21T07:28:04Z</time>
      </trkpt>
      <trkpt lat="44.4564" lon="6.51697">
        <ele>2641</ele>
        <time>2021-02-21T07:28:05Z</time>
      </trkpt>
      <trkpt lat="44.4564" lon="6.51697">
        <ele>2641</ele>
        <time>2021-02-21T07:28:06Z</time>
      </trkpt>
      <trkpt lat="44.4564" lon="6.51696">
        <ele>2641</ele>
        <time>2021-02-21T07:28:07Z</time>
      </trkpt>
      <trkpt lat="44.4564" lon="6.51696">
        <ele>2644</ele>
        <time>2021-02-21T07:28:08Z</time>
      </trkpt>
      <trkpt lat="44.4564" lon="6.51696">
        <ele>2645</ele>
        <time>2021-02-21T07:28:09Z</time>
      </trkpt>
      <trkpt lat="44.4564" lon="6.51696">
        <ele>2646</ele>
        <time>2021-02-21T07:28:10Z</time>
      </trkpt>
      <trkpt lat="44.4564" lon="6.51696">
        <ele>2646</ele>
        <time>2021-02-21T07:28:11Z</time>
      </trkpt>
      <trkpt lat="44.4564" lon="6.51696">
        <ele>2646</ele>
        <time>2021-02-21T07:28:12Z</time>
      </trkpt>
      <trkpt lat="44.4564" lon="6.51696">
        <ele>2646</ele>
        <time>2021-02-21T07:28:13Z</time>
      </trkpt>
      <trkpt lat="44.4564" lon="6.51696">
        <ele>2646</ele>
        <time>2021-02-21T07:28:14Z</time>
      </trkpt>
      <trkpt lat="44.4564" lon="6.51696">
        <ele>2647</ele>
        <time>2021-02-21T07:28:15Z</time>
      </trkpt>
      <trkpt lat="44.4564" lon="6.51697">
        <ele>2647</ele>
        <time>2021-02-21T07:28:16Z</time>
      </trkpt>
      <trkpt lat="44.45641" lon="6.51698">
        <ele>2647</ele>
        <time>2021-02-21T07:28:17Z</time>
      </trkpt>
      <trkpt lat="44.45641" lon="6.51698">
        <ele>2647</ele>
        <time>2021-02-21T07:28:18Z</time>
      </trkpt>
      <trkpt lat="44.45641" lon="6.51698">
        <ele>2648</ele>
        <time>2021-02-21T07:28:19Z</time>
      </trkpt>
      <trkpt lat="44.45641" lon="6.51698">
        <ele>2648</ele>
        <time>2021-02-21T07:28:20Z</time>
      </trkpt>
      <trkpt lat="44.45641" lon="6.51699">
        <ele>2648</ele>
        <time>2021-02-21T07:28:21Z</time>
      </trkpt>
      <trkpt lat="44.45641" lon="6.51699">
        <ele>2648</ele>
        <time>2021-02-21T07:28:22Z</time>
      </trkpt>
      <trkpt lat="44.45641" lon="6.51699">
        <ele>2649</ele>
        <time>2021-02-21T07:28:23Z</time>
      </trkpt>
      <trkpt lat="44.45641" lon="6.51699">
        <ele>2649</ele>
        <time>2021-02-21T07:28:24Z</time>
      </trkpt>
      <trkpt lat="44.45641" lon="6.51699">
        <ele>2649</ele>
        <time>2021-02-21T07:28:25Z</time>
      </trkpt>
      <trkpt lat="44.4564" lon="6.51698">
        <ele>2649</ele>
        <time>2021-02-21T07:28:26Z</time>
      </trkpt>
      <trkpt lat="44.4564" lon="6.51698">
        <ele>2650</ele>
        <time>2021-02-21T07:28:27Z</time>
      </trkpt>
      <trkpt lat="44.4564" lon="6.51697">
        <ele>2650</ele>
        <time>2021-02-21T07:28:28Z</time>
      </trkpt>
      <trkpt lat="44.4564" lon="6.51696">
        <ele>2650</ele>
        <time>2021-02-21T07:28:29Z</time>
      </trkpt>
      <trkpt lat="44.4564" lon="6.51696">
        <ele>2650</ele>
        <time>2021-02-21T07:28:30Z</time>
      </trkpt>
      <trkpt lat="44.4564" lon="6.51696">
        <ele>2650</ele>
        <time>2021-02-21T07:28:31Z</time>
      </trkpt>
      <trkpt lat="44.4564" lon="6.51697">
        <ele>2651</ele>
        <time>2021-02-21T07:28:32Z</time>
      </trkpt>
      <trkpt lat="44.4564" lon="6.51697">
        <ele>2651</ele>
        <time>2021-02-21T07:28:33Z</time>
      </trkpt>
      <trkpt lat="44.4564" lon="6.51696">
        <ele>2651</ele>
        <time>2021-02-21T07:28:34Z</time>
      </trkpt>
      <trkpt lat="44.45639" lon="6.51696">
        <ele>2651</ele>
        <time>2021-02-21T07:28:35Z</time>
      </trkpt>
      <trkpt lat="44.45639" lon="6.51697">
        <ele>2651</ele>
        <time>2021-02-21T07:28:36Z</time>
      </trkpt>
      <trkpt lat="44.45639" lon="6.51697">
        <ele>2651</ele>
        <time>2021-02-21T07:28:37Z</time>
      </trkpt>
      <trkpt lat="44.45639" lon="6.51697">
        <ele>2652</ele>
        <time>2021-02-21T07:28:38Z</time>
      </trkpt>
      <trkpt lat="44.45639" lon="6.51697">
        <ele>2652</ele>
        <time>2021-02-21T07:28:39Z</time>
      </trkpt>
      <trkpt lat="44.45639" lon="6.51697">
        <ele>2652</ele>
        <time>2021-02-21T07:28:40Z</time>
      </trkpt>
      <trkpt lat="44.45639" lon="6.51697">
        <ele>2652</ele>
        <time>2021-02-21T07:28:41Z</time>
      </trkpt>
      <trkpt lat="44.45639" lon="6.51697">
        <ele>2652</ele>
        <time>2021-02-21T07:28:42Z</time>
      </trkpt>
      <trkpt lat="44.45639" lon="6.51697">
        <ele>2652</ele>
        <time>2021-02-21T07:28:43Z</time>
      </trkpt>
      <trkpt lat="44.45639" lon="6.51697">
        <ele>2652</ele>
        <time>2021-02-21T07:28:44Z</time>
      </trkpt>
      <trkpt lat="44.45639" lon="6.51697">
        <ele>2652</ele>
        <time>2021-02-21T07:28:45Z</time>
      </trkpt>
      <trkpt lat="44.45639" lon="6.51697">
        <ele>2652</ele>
        <time>2021-02-21T07:28:46Z</time>
      </trkpt>
      <trkpt lat="44.45639" lon="6.51697">
        <ele>2652</ele>
        <time>2021-02-21T07:28:47Z</time>
      </trkpt>
      <trkpt lat="44.45639" lon="6.51697">
        <ele>2653</ele>
        <time>2021-02-21T07:28:48Z</time>
      </trkpt>
      <trkpt lat="44.45639" lon="6.51697">
        <ele>2653</ele>
        <time>2021-02-21T07:28:49Z</time>
      </trkpt>
      <trkpt lat="44.45639" lon="6.51697">
        <ele>2653</ele>
        <time>2021-02-21T07:28:50Z</time>
      </trkpt>
      <trkpt lat="44.45639" lon="6.51697">
        <ele>2653</ele>
        <time>2021-02-21T07:28:51Z</time>
      </trkpt>
      <trkpt lat="44.45639" lon="6.51697">
        <ele>2653</ele>
        <time>2021-02-21T07:28:52Z</time>
      </trkpt>
      <trkpt lat="44.45639" lon="6.51697">
        <ele>2653</ele>
        <time>2021-02-21T07:28:53Z</time>
      </trkpt>
      <trkpt lat="44.45639" lon="6.51697">
        <ele>2653</ele>
        <time>2021-02-21T07:28:54Z</time>
      </trkpt>
      <trkpt lat="44.45639" lon="6.51697">
        <ele>2653</ele>
        <time>2021-02-21T07:28:55Z</time>
      </trkpt>
      <trkpt lat="44.45639" lon="6.51697">
        <ele>2653</ele>
        <time>2021-02-21T07:28:56Z</time>
      </trkpt>
      <trkpt lat="44.45637" lon="6.51694">
        <ele>2653</ele>
        <time>2021-02-21T07:28:57Z</time>
      </trkpt>
      <trkpt lat="44.45637" lon="6.51695">
        <ele>2653</ele>
        <time>2021-02-21T07:28:58Z</time>
      </trkpt>
      <trkpt lat="44.45636" lon="6.51695">
        <ele>2653</ele>
        <time>2021-02-21T07:28:59Z</time>
      </trkpt>
      <trkpt lat="44.45635" lon="6.51695">
        <ele>2654</ele>
        <time>2021-02-21T07:29:00Z</time>
      </trkpt>
      <trkpt lat="44.45635" lon="6.51694">
        <ele>2654</ele>
        <time>2021-02-21T07:29:01Z</time>
      </trkpt>
      <trkpt lat="44.45635" lon="6.51693">
        <ele>2655</ele>
        <time>2021-02-21T07:29:02Z</time>
      </trkpt>
      <trkpt lat="44.45635" lon="6.51692">
        <ele>2655</ele>
        <time>2021-02-21T07:29:03Z</time>
      </trkpt>
      <trkpt lat="44.45635" lon="6.51691">
        <ele>2655</ele>
        <time>2021-02-21T07:29:04Z</time>
      </trkpt>
      <trkpt lat="44.45635" lon="6.51691">
        <ele>2655</ele>
        <time>2021-02-21T07:29:05Z</time>
      </trkpt>
      <trkpt lat="44.45635" lon="6.5169">
        <ele>2655</ele>
        <time>2021-02-21T07:29:06Z</time>
      </trkpt>
      <trkpt lat="44.45635" lon="6.51689">
        <ele>2655</ele>
        <time>2021-02-21T07:29:07Z</time>
      </trkpt>
      <trkpt lat="44.45635" lon="6.51688">
        <ele>2656</ele>
        <time>2021-02-21T07:29:08Z</time>
      </trkpt>
      <trkpt lat="44.45635" lon="6.51688">
        <ele>2656</ele>
        <time>2021-02-21T07:29:09Z</time>
      </trkpt>
      <trkpt lat="44.45635" lon="6.51687">
        <ele>2656</ele>
        <time>2021-02-21T07:29:10Z</time>
      </trkpt>
      <trkpt lat="44.45635" lon="6.51687">
        <ele>2656</ele>
        <time>2021-02-21T07:29:11Z</time>
      </trkpt>
      <trkpt lat="44.45635" lon="6.51687">
        <ele>2656</ele>
        <time>2021-02-21T07:29:12Z</time>
      </trkpt>
      <trkpt lat="44.45635" lon="6.51687">
        <ele>2656</ele>
        <time>2021-02-21T07:29:13Z</time>
      </trkpt>
      <trkpt lat="44.45635" lon="6.51687">
        <ele>2656</ele>
        <time>2021-02-21T07:29:14Z</time>
      </trkpt>
      <trkpt lat="44.45635" lon="6.51687">
        <ele>2656</ele>
        <time>2021-02-21T07:29:15Z</time>
      </trkpt>
      <trkpt lat="44.45635" lon="6.51687">
        <ele>2656</ele>
        <time>2021-02-21T07:29:16Z</time>
      </trkpt>
      <trkpt lat="44.45635" lon="6.51687">
        <ele>2656</ele>
        <time>2021-02-21T07:29:17Z</time>
      </trkpt>
      <trkpt lat="44.45635" lon="6.51687">
        <ele>2656</ele>
        <time>2021-02-21T07:29:18Z</time>
      </trkpt>
      <trkpt lat="44.45635" lon="6.51687">
        <ele>2656</ele>
        <time>2021-02-21T07:29:19Z</time>
      </trkpt>
      <trkpt lat="44.45635" lon="6.51687">
        <ele>2656</ele>
        <time>2021-02-21T07:29:20Z</time>
      </trkpt>
      <trkpt lat="44.45635" lon="6.51687">
        <ele>2656</ele>
        <time>2021-02-21T07:29:21Z</time>
      </trkpt>
      <trkpt lat="44.45635" lon="6.51687">
        <ele>2656</ele>
        <time>2021-02-21T07:29:22Z</time>
      </trkpt>
      <trkpt lat="44.45635" lon="6.51687">
        <ele>2656</ele>
        <time>2021-02-21T07:29:23Z</time>
      </trkpt>
      <trkpt lat="44.45635" lon="6.51687">
        <ele>2656</ele>
        <time>2021-02-21T07:29:24Z</time>
      </trkpt>
      <trkpt lat="44.45635" lon="6.51687">
        <ele>2656</ele>
        <time>2021-02-21T07:29:25Z</time>
      </trkpt>
      <trkpt lat="44.45635" lon="6.51687">
        <ele>2656</ele>
        <time>2021-02-21T07:29:26Z</time>
      </trkpt>
      <trkpt lat="44.45635" lon="6.51687">
        <ele>2656</ele>
        <time>2021-02-21T07:29:27Z</time>
      </trkpt>
      <trkpt lat="44.45635" lon="6.51686">
        <ele>2656</ele>
        <time>2021-02-21T07:29:28Z</time>
      </trkpt>
      <trkpt lat="44.45635" lon="6.51685">
        <ele>2656</ele>
        <time>2021-02-21T07:29:29Z</time>
      </trkpt>
      <trkpt lat="44.45635" lon="6.51684">
        <ele>2656</ele>
        <time>2021-02-21T07:29:30Z</time>
      </trkpt>
      <trkpt lat="44.45635" lon="6.51683">
        <ele>2656</ele>
        <time>2021-02-21T07:29:31Z</time>
      </trkpt>
      <trkpt lat="44.45635" lon="6.51683">
        <ele>2656</ele>
        <time>2021-02-21T07:29:32Z</time>
      </trkpt>
      <trkpt lat="44.45635" lon="6.51683">
        <ele>2657</ele>
        <time>2021-02-21T07:29:33Z</time>
      </trkpt>
      <trkpt lat="44.45635" lon="6.51682">
        <ele>2658</ele>
        <time>2021-02-21T07:29:34Z</time>
      </trkpt>
      <trkpt lat="44.45636" lon="6.51682">
        <ele>2659</ele>
        <time>2021-02-21T07:29:35Z</time>
      </trkpt>
      <trkpt lat="44.45636" lon="6.51682">
        <ele>2659</ele>
        <time>2021-02-21T07:29:36Z</time>
      </trkpt>
      <trkpt lat="44.45636" lon="6.51682">
        <ele>2659</ele>
        <time>2021-02-21T07:29:37Z</time>
      </trkpt>
      <trkpt lat="44.45636" lon="6.51682">
        <ele>2659</ele>
        <time>2021-02-21T07:29:38Z</time>
      </trkpt>
      <trkpt lat="44.45636" lon="6.51683">
        <ele>2659</ele>
        <time>2021-02-21T07:29:39Z</time>
      </trkpt>
      <trkpt lat="44.45636" lon="6.51683">
        <ele>2659</ele>
        <time>2021-02-21T07:29:40Z</time>
      </trkpt>
      <trkpt lat="44.45636" lon="6.51683">
        <ele>2659</ele>
        <time>2021-02-21T07:29:41Z</time>
      </trkpt>
      <trkpt lat="44.45636" lon="6.51683">
        <ele>2659</ele>
        <time>2021-02-21T07:29:42Z</time>
      </trkpt>
      <trkpt lat="44.45636" lon="6.51683">
        <ele>2659</ele>
        <time>2021-02-21T07:29:43Z</time>
      </trkpt>
      <trkpt lat="44.45636" lon="6.51683">
        <ele>2659</ele>
        <time>2021-02-21T07:29:44Z</time>
      </trkpt>
      <trkpt lat="44.45636" lon="6.51682">
        <ele>2660</ele>
        <time>2021-02-21T07:29:45Z</time>
      </trkpt>
      <trkpt lat="44.45635" lon="6.51682">
        <ele>2660</ele>
        <time>2021-02-21T07:29:46Z</time>
      </trkpt>
      <trkpt lat="44.45635" lon="6.51682">
        <ele>2660</ele>
        <time>2021-02-21T07:29:47Z</time>
      </trkpt>
      <trkpt lat="44.45635" lon="6.51682">
        <ele>2660</ele>
        <time>2021-02-21T07:29:48Z</time>
      </trkpt>
      <trkpt lat="44.45634" lon="6.51683">
        <ele>2660</ele>
        <time>2021-02-21T07:29:49Z</time>
      </trkpt>
      <trkpt lat="44.45634" lon="6.51683">
        <ele>2660</ele>
        <time>2021-02-21T07:29:50Z</time>
      </trkpt>
      <trkpt lat="44.45633" lon="6.51684">
        <ele>2660</ele>
        <time>2021-02-21T07:29:51Z</time>
      </trkpt>
      <trkpt lat="44.45632" lon="6.51685">
        <ele>2660</ele>
        <time>2021-02-21T07:29:52Z</time>
      </trkpt>
      <trkpt lat="44.45631" lon="6.51685">
        <ele>2660</ele>
        <time>2021-02-21T07:29:53Z</time>
      </trkpt>
      <trkpt lat="44.45631" lon="6.51685">
        <ele>2660</ele>
        <time>2021-02-21T07:29:54Z</time>
      </trkpt>
      <trkpt lat="44.45632" lon="6.51684">
        <ele>2660</ele>
        <time>2021-02-21T07:29:55Z</time>
      </trkpt>
      <trkpt lat="44.45632" lon="6.51683">
        <ele>2660</ele>
        <time>2021-02-21T07:29:56Z</time>
      </trkpt>
      <trkpt lat="44.45633" lon="6.51683">
        <ele>2660</ele>
        <time>2021-02-21T07:29:57Z</time>
      </trkpt>
      <trkpt lat="44.45634" lon="6.51683">
        <ele>2660</ele>
        <time>2021-02-21T07:29:58Z</time>
      </trkpt>
      <trkpt lat="44.45634" lon="6.51683">
        <ele>2660</ele>
        <time>2021-02-21T07:29:59Z</time>
      </trkpt>
      <trkpt lat="44.45635" lon="6.51683">
        <ele>2660</ele>
        <time>2021-02-21T07:30:00Z</time>
      </trkpt>
      <trkpt lat="44.45635" lon="6.51683">
        <ele>2660</ele>
        <time>2021-02-21T07:30:01Z</time>
      </trkpt>
      <trkpt lat="44.45636" lon="6.51683">
        <ele>2661</ele>
        <time>2021-02-21T07:30:02Z</time>
      </trkpt>
      <trkpt lat="44.45635" lon="6.51683">
        <ele>2661</ele>
        <time>2021-02-21T07:30:03Z</time>
      </trkpt>
      <trkpt lat="44.45635" lon="6.51683">
        <ele>2661</ele>
        <time>2021-02-21T07:30:04Z</time>
      </trkpt>
      <trkpt lat="44.45635" lon="6.51683">
        <ele>2661</ele>
        <time>2021-02-21T07:30:05Z</time>
      </trkpt>
      <trkpt lat="44.45635" lon="6.51683">
        <ele>2661</ele>
        <time>2021-02-21T07:30:06Z</time>
      </trkpt>
      <trkpt lat="44.45635" lon="6.51684">
        <ele>2662</ele>
        <time>2021-02-21T07:30:07Z</time>
      </trkpt>
      <trkpt lat="44.45634" lon="6.51685">
        <ele>2662</ele>
        <time>2021-02-21T07:30:08Z</time>
      </trkpt>
      <trkpt lat="44.45635" lon="6.51685">
        <ele>2662</ele>
        <time>2021-02-21T07:30:09Z</time>
      </trkpt>
      <trkpt lat="44.45635" lon="6.51685">
        <ele>2662</ele>
        <time>2021-02-21T07:30:10Z</time>
      </trkpt>
      <trkpt lat="44.45635" lon="6.51685">
        <ele>2662</ele>
        <time>2021-02-21T07:30:11Z</time>
      </trkpt>
      <trkpt lat="44.45635" lon="6.51685">
        <ele>2662</ele>
        <time>2021-02-21T07:30:12Z</time>
      </trkpt>
      <trkpt lat="44.45635" lon="6.51685">
        <ele>2662</ele>
        <time>2021-02-21T07:30:13Z</time>
      </trkpt>
      <trkpt lat="44.45635" lon="6.51684">
        <ele>2662</ele>
        <time>2021-02-21T07:30:14Z</time>
      </trkpt>
      <trkpt lat="44.45635" lon="6.51684">
        <ele>2662</ele>
        <time>2021-02-21T07:30:15Z</time>
      </trkpt>
      <trkpt lat="44.45635" lon="6.51683">
        <ele>2662</ele>
        <time>2021-02-21T07:30:16Z</time>
      </trkpt>
      <trkpt lat="44.45636" lon="6.51682">
        <ele>2663</ele>
        <time>2021-02-21T07:30:17Z</time>
      </trkpt>
      <trkpt lat="44.45636" lon="6.51681">
        <ele>2663</ele>
        <time>2021-02-21T07:30:18Z</time>
      </trkpt>
      <trkpt lat="44.45634" lon="6.5168">
        <ele>2663</ele>
        <time>2021-02-21T07:30:19Z</time>
      </trkpt>
      <trkpt lat="44.45633" lon="6.5168">
        <ele>2663</ele>
        <time>2021-02-21T07:30:20Z</time>
      </trkpt>
      <trkpt lat="44.45633" lon="6.5168">
        <ele>2663</ele>
        <time>2021-02-21T07:30:21Z</time>
      </trkpt>
      <trkpt lat="44.45632" lon="6.5168">
        <ele>2663</ele>
        <time>2021-02-21T07:30:22Z</time>
      </trkpt>
      <trkpt lat="44.45632" lon="6.5168">
        <ele>2663</ele>
        <time>2021-02-21T07:30:23Z</time>
      </trkpt>
      <trkpt lat="44.45632" lon="6.51681">
        <ele>2663</ele>
        <time>2021-02-21T07:30:24Z</time>
      </trkpt>
      <trkpt lat="44.45632" lon="6.51682">
        <ele>2663</ele>
        <time>2021-02-21T07:30:25Z</time>
      </trkpt>
      <trkpt lat="44.45631" lon="6.51683">
        <ele>2663</ele>
        <time>2021-02-21T07:30:26Z</time>
      </trkpt>
      <trkpt lat="44.45631" lon="6.51683">
        <ele>2663</ele>
        <time>2021-02-21T07:30:27Z</time>
      </trkpt>
      <trkpt lat="44.45631" lon="6.51682">
        <ele>2663</ele>
        <time>2021-02-21T07:30:28Z</time>
      </trkpt>
      <trkpt lat="44.45631" lon="6.51683">
        <ele>2664</ele>
        <time>2021-02-21T07:30:29Z</time>
      </trkpt>
      <trkpt lat="44.45631" lon="6.51684">
        <ele>2664</ele>
        <time>2021-02-21T07:30:30Z</time>
      </trkpt>
      <trkpt lat="44.45631" lon="6.51683">
        <ele>2664</ele>
        <time>2021-02-21T07:30:31Z</time>
      </trkpt>
      <trkpt lat="44.4563" lon="6.51683">
        <ele>2664</ele>
        <time>2021-02-21T07:30:32Z</time>
      </trkpt>
      <trkpt lat="44.4563" lon="6.51683">
        <ele>2664</ele>
        <time>2021-02-21T07:30:33Z</time>
      </trkpt>
      <trkpt lat="44.4563" lon="6.51682">
        <ele>2664</ele>
        <time>2021-02-21T07:30:34Z</time>
      </trkpt>
      <trkpt lat="44.4563" lon="6.51682">
        <ele>2664</ele>
        <time>2021-02-21T07:30:35Z</time>
      </trkpt>
      <trkpt lat="44.4563" lon="6.51682">
        <ele>2664</ele>
        <time>2021-02-21T07:30:36Z</time>
      </trkpt>
      <trkpt lat="44.4563" lon="6.51682">
        <ele>2664</ele>
        <time>2021-02-21T07:30:37Z</time>
      </trkpt>
      <trkpt lat="44.4563" lon="6.51682">
        <ele>2664</ele>
        <time>2021-02-21T07:30:38Z</time>
      </trkpt>
      <trkpt lat="44.4563" lon="6.51681">
        <ele>2664</ele>
        <time>2021-02-21T07:30:39Z</time>
      </trkpt>
      <trkpt lat="44.4563" lon="6.51681">
        <ele>2664</ele>
        <time>2021-02-21T07:30:40Z</time>
      </trkpt>
      <trkpt lat="44.4563" lon="6.51681">
        <ele>2664</ele>
        <time>2021-02-21T07:30:41Z</time>
      </trkpt>
      <trkpt lat="44.4563" lon="6.51681">
        <ele>2664</ele>
        <time>2021-02-21T07:30:42Z</time>
      </trkpt>
      <trkpt lat="44.4563" lon="6.51681">
        <ele>2664</ele>
        <time>2021-02-21T07:30:43Z</time>
      </trkpt>
      <trkpt lat="44.45632" lon="6.5168">
        <ele>2664</ele>
        <time>2021-02-21T07:30:44Z</time>
      </trkpt>
      <trkpt lat="44.45632" lon="6.5168">
        <ele>2664</ele>
        <time>2021-02-21T07:30:45Z</time>
      </trkpt>
      <trkpt lat="44.45632" lon="6.5168">
        <ele>2664</ele>
        <time>2021-02-21T07:30:46Z</time>
      </trkpt>
      <trkpt lat="44.45632" lon="6.5168">
        <ele>2664</ele>
        <time>2021-02-21T07:30:47Z</time>
      </trkpt>
      <trkpt lat="44.45632" lon="6.51681">
        <ele>2664</ele>
        <time>2021-02-21T07:30:48Z</time>
      </trkpt>
      <trkpt lat="44.45632" lon="6.51681">
        <ele>2664</ele>
        <time>2021-02-21T07:30:49Z</time>
      </trkpt>
      <trkpt lat="44.45632" lon="6.51681">
        <ele>2664</ele>
        <time>2021-02-21T07:30:50Z</time>
      </trkpt>
      <trkpt lat="44.45632" lon="6.51681">
        <ele>2664</ele>
        <time>2021-02-21T07:30:51Z</time>
      </trkpt>
      <trkpt lat="44.45632" lon="6.51681">
        <ele>2664</ele>
        <time>2021-02-21T07:30:52Z</time>
      </trkpt>
      <trkpt lat="44.45632" lon="6.51681">
        <ele>2664</ele>
        <time>2021-02-21T07:30:53Z</time>
      </trkpt>
      <trkpt lat="44.45632" lon="6.51681">
        <ele>2664</ele>
        <time>2021-02-21T07:30:54Z</time>
      </trkpt>
      <trkpt lat="44.45632" lon="6.51681">
        <ele>2664</ele>
        <time>2021-02-21T07:30:55Z</time>
      </trkpt>
      <trkpt lat="44.45631" lon="6.5168">
        <ele>2664</ele>
        <time>2021-02-21T07:30:56Z</time>
      </trkpt>
      <trkpt lat="44.45631" lon="6.51679">
        <ele>2664</ele>
        <time>2021-02-21T07:30:57Z</time>
      </trkpt>
      <trkpt lat="44.45631" lon="6.51679">
        <ele>2664</ele>
        <time>2021-02-21T07:30:58Z</time>
      </trkpt>
      <trkpt lat="44.45631" lon="6.51678">
        <ele>2664</ele>
        <time>2021-02-21T07:30:59Z</time>
      </trkpt>
      <trkpt lat="44.45631" lon="6.51678">
        <ele>2664</ele>
        <time>2021-02-21T07:31:00Z</time>
      </trkpt>
      <trkpt lat="44.4563" lon="6.51678">
        <ele>2664</ele>
        <time>2021-02-21T07:31:01Z</time>
      </trkpt>
      <trkpt lat="44.4563" lon="6.51678">
        <ele>2665</ele>
        <time>2021-02-21T07:31:02Z</time>
      </trkpt>
      <trkpt lat="44.4563" lon="6.51677">
        <ele>2665</ele>
        <time>2021-02-21T07:31:03Z</time>
      </trkpt>
      <trkpt lat="44.4563" lon="6.51678">
        <ele>2665</ele>
        <time>2021-02-21T07:31:04Z</time>
      </trkpt>
      <trkpt lat="44.4563" lon="6.51678">
        <ele>2665</ele>
        <time>2021-02-21T07:31:05Z</time>
      </trkpt>
      <trkpt lat="44.4563" lon="6.51677">
        <ele>2665</ele>
        <time>2021-02-21T07:31:06Z</time>
      </trkpt>
      <trkpt lat="44.4563" lon="6.51678">
        <ele>2665</ele>
        <time>2021-02-21T07:31:07Z</time>
      </trkpt>
      <trkpt lat="44.4563" lon="6.51678">
        <ele>2665</ele>
        <time>2021-02-21T07:31:08Z</time>
      </trkpt>
      <trkpt lat="44.4563" lon="6.51678">
        <ele>2665</ele>
        <time>2021-02-21T07:31:09Z</time>
      </trkpt>
      <trkpt lat="44.4563" lon="6.51678">
        <ele>2665</ele>
        <time>2021-02-21T07:31:10Z</time>
      </trkpt>
      <trkpt lat="44.4563" lon="6.51678">
        <ele>2665</ele>
        <time>2021-02-21T07:31:11Z</time>
      </trkpt>
      <trkpt lat="44.4563" lon="6.51678">
        <ele>2665</ele>
        <time>2021-02-21T07:31:12Z</time>
      </trkpt>
      <trkpt lat="44.4563" lon="6.51678">
        <ele>2665</ele>
        <time>2021-02-21T07:31:13Z</time>
      </trkpt>
      <trkpt lat="44.4563" lon="6.51678">
        <ele>2665</ele>
        <time>2021-02-21T07:31:14Z</time>
      </trkpt>
      <trkpt lat="44.4563" lon="6.51678">
        <ele>2665</ele>
        <time>2021-02-21T07:31:15Z</time>
      </trkpt>
      <trkpt lat="44.45629" lon="6.51674">
        <ele>2667</ele>
        <time>2021-02-21T07:31:16Z</time>
      </trkpt>
      <trkpt lat="44.45629" lon="6.51673">
        <ele>2668</ele>
        <time>2021-02-21T07:31:17Z</time>
      </trkpt>
      <trkpt lat="44.4563" lon="6.51673">
        <ele>2668</ele>
        <time>2021-02-21T07:31:18Z</time>
      </trkpt>
      <trkpt lat="44.45629" lon="6.51673">
        <ele>2668</ele>
        <time>2021-02-21T07:31:19Z</time>
      </trkpt>
      <trkpt lat="44.4563" lon="6.51673">
        <ele>2669</ele>
        <time>2021-02-21T07:31:20Z</time>
      </trkpt>
      <trkpt lat="44.4563" lon="6.51672">
        <ele>2669</ele>
        <time>2021-02-21T07:31:21Z</time>
      </trkpt>
      <trkpt lat="44.45631" lon="6.51672">
        <ele>2669</ele>
        <time>2021-02-21T07:31:22Z</time>
      </trkpt>
      <trkpt lat="44.45631" lon="6.51673">
        <ele>2669</ele>
        <time>2021-02-21T07:31:23Z</time>
      </trkpt>
      <trkpt lat="44.45632" lon="6.51673">
        <ele>2669</ele>
        <time>2021-02-21T07:31:24Z</time>
      </trkpt>
      <trkpt lat="44.45632" lon="6.51673">
        <ele>2669</ele>
        <time>2021-02-21T07:31:25Z</time>
      </trkpt>
      <trkpt lat="44.45632" lon="6.51673">
        <ele>2669</ele>
        <time>2021-02-21T07:31:26Z</time>
      </trkpt>
      <trkpt lat="44.45631" lon="6.51673">
        <ele>2669</ele>
        <time>2021-02-21T07:31:27Z</time>
      </trkpt>
      <trkpt lat="44.45632" lon="6.51673">
        <ele>2669</ele>
        <time>2021-02-21T07:31:28Z</time>
      </trkpt>
      <trkpt lat="44.45632" lon="6.51673">
        <ele>2670</ele>
        <time>2021-02-21T07:31:29Z</time>
      </trkpt>
      <trkpt lat="44.45632" lon="6.51673">
        <ele>2670</ele>
        <time>2021-02-21T07:31:30Z</time>
      </trkpt>
      <trkpt lat="44.45632" lon="6.51673">
        <ele>2670</ele>
        <time>2021-02-21T07:31:31Z</time>
      </trkpt>
      <trkpt lat="44.45632" lon="6.51673">
        <ele>2670</ele>
        <time>2021-02-21T07:31:32Z</time>
      </trkpt>
      <trkpt lat="44.45632" lon="6.51673">
        <ele>2670</ele>
        <time>2021-02-21T07:31:33Z</time>
      </trkpt>
      <trkpt lat="44.45632" lon="6.51673">
        <ele>2670</ele>
        <time>2021-02-21T07:31:34Z</time>
      </trkpt>
      <trkpt lat="44.45632" lon="6.51673">
        <ele>2670</ele>
        <time>2021-02-21T07:31:35Z</time>
      </trkpt>
      <trkpt lat="44.45632" lon="6.51673">
        <ele>2670</ele>
        <time>2021-02-21T07:31:36Z</time>
      </trkpt>
      <trkpt lat="44.45632" lon="6.51673">
        <ele>2670</ele>
        <time>2021-02-21T07:31:37Z</time>
      </trkpt>
      <trkpt lat="44.45632" lon="6.51673">
        <ele>2670</ele>
        <time>2021-02-21T07:31:38Z</time>
      </trkpt>
      <trkpt lat="44.45632" lon="6.51673">
        <ele>2670</ele>
        <time>2021-02-21T07:31:39Z</time>
      </trkpt>
      <trkpt lat="44.45632" lon="6.51673">
        <ele>2670</ele>
        <time>2021-02-21T07:31:40Z</time>
      </trkpt>
      <trkpt lat="44.45632" lon="6.51673">
        <ele>2670</ele>
        <time>2021-02-21T07:31:41Z</time>
      </trkpt>
      <trkpt lat="44.45632" lon="6.51673">
        <ele>2670</ele>
        <time>2021-02-21T07:31:42Z</time>
      </trkpt>
      <trkpt lat="44.45632" lon="6.51673">
        <ele>2670</ele>
        <time>2021-02-21T07:31:43Z</time>
      </trkpt>
      <trkpt lat="44.45632" lon="6.51673">
        <ele>2670</ele>
        <time>2021-02-21T07:31:44Z</time>
      </trkpt>
      <trkpt lat="44.45632" lon="6.51669">
        <ele>2671</ele>
        <time>2021-02-21T07:31:45Z</time>
      </trkpt>
      <trkpt lat="44.45632" lon="6.51669">
        <ele>2672</ele>
        <time>2021-02-21T07:31:46Z</time>
      </trkpt>
      <trkpt lat="44.45632" lon="6.51668">
        <ele>2672</ele>
        <time>2021-02-21T07:31:47Z</time>
      </trkpt>
      <trkpt lat="44.45632" lon="6.51668">
        <ele>2672</ele>
        <time>2021-02-21T07:31:48Z</time>
      </trkpt>
      <trkpt lat="44.45631" lon="6.51667">
        <ele>2672</ele>
        <time>2021-02-21T07:31:49Z</time>
      </trkpt>
      <trkpt lat="44.45631" lon="6.51667">
        <ele>2672</ele>
        <time>2021-02-21T07:31:50Z</time>
      </trkpt>
      <trkpt lat="44.45631" lon="6.51666">
        <ele>2672</ele>
        <time>2021-02-21T07:31:51Z</time>
      </trkpt>
      <trkpt lat="44.45631" lon="6.51666">
        <ele>2671</ele>
        <time>2021-02-21T07:31:52Z</time>
      </trkpt>
      <trkpt lat="44.45631" lon="6.51667">
        <ele>2671</ele>
        <time>2021-02-21T07:31:53Z</time>
      </trkpt>
      <trkpt lat="44.45631" lon="6.51667">
        <ele>2671</ele>
        <time>2021-02-21T07:31:54Z</time>
      </trkpt>
      <trkpt lat="44.45631" lon="6.51667">
        <ele>2671</ele>
        <time>2021-02-21T07:31:55Z</time>
      </trkpt>
      <trkpt lat="44.45631" lon="6.51667">
        <ele>2671</ele>
        <time>2021-02-21T07:31:56Z</time>
      </trkpt>
      <trkpt lat="44.45631" lon="6.51667">
        <ele>2671</ele>
        <time>2021-02-21T07:31:57Z</time>
      </trkpt>
      <trkpt lat="44.45631" lon="6.51667">
        <ele>2671</ele>
        <time>2021-02-21T07:31:58Z</time>
      </trkpt>
      <trkpt lat="44.45631" lon="6.51667">
        <ele>2671</ele>
        <time>2021-02-21T07:31:59Z</time>
      </trkpt>
      <trkpt lat="44.45631" lon="6.51667">
        <ele>2671</ele>
        <time>2021-02-21T07:32:00Z</time>
      </trkpt>
      <trkpt lat="44.45631" lon="6.51667">
        <ele>2671</ele>
        <time>2021-02-21T07:32:01Z</time>
      </trkpt>
      <trkpt lat="44.45631" lon="6.51667">
        <ele>2671</ele>
        <time>2021-02-21T07:32:02Z</time>
      </trkpt>
      <trkpt lat="44.45631" lon="6.51667">
        <ele>2671</ele>
        <time>2021-02-21T07:32:03Z</time>
      </trkpt>
      <trkpt lat="44.45631" lon="6.51667">
        <ele>2671</ele>
        <time>2021-02-21T07:32:04Z</time>
      </trkpt>
      <trkpt lat="44.45631" lon="6.51667">
        <ele>2671</ele>
        <time>2021-02-21T07:32:05Z</time>
      </trkpt>
      <trkpt lat="44.45631" lon="6.51667">
        <ele>2671</ele>
        <time>2021-02-21T07:32:06Z</time>
      </trkpt>
      <trkpt lat="44.45631" lon="6.51667">
        <ele>2671</ele>
        <time>2021-02-21T07:32:07Z</time>
      </trkpt>
      <trkpt lat="44.45631" lon="6.51667">
        <ele>2671</ele>
        <time>2021-02-21T07:32:08Z</time>
      </trkpt>
      <trkpt lat="44.45631" lon="6.51667">
        <ele>2671</ele>
        <time>2021-02-21T07:32:09Z</time>
      </trkpt>
      <trkpt lat="44.45631" lon="6.51667">
        <ele>2671</ele>
        <time>2021-02-21T07:32:10Z</time>
      </trkpt>
      <trkpt lat="44.45631" lon="6.51667">
        <ele>2671</ele>
        <time>2021-02-21T07:32:11Z</time>
      </trkpt>
      <trkpt lat="44.45631" lon="6.51667">
        <ele>2671</ele>
        <time>2021-02-21T07:32:12Z</time>
      </trkpt>
      <trkpt lat="44.45631" lon="6.51667">
        <ele>2671</ele>
        <time>2021-02-21T07:32:13Z</time>
      </trkpt>
      <trkpt lat="44.45631" lon="6.51667">
        <ele>2671</ele>
        <time>2021-02-21T07:32:14Z</time>
      </trkpt>
      <trkpt lat="44.45631" lon="6.51667">
        <ele>2671</ele>
        <time>2021-02-21T07:32:15Z</time>
      </trkpt>
      <trkpt lat="44.45631" lon="6.51667">
        <ele>2671</ele>
        <time>2021-02-21T07:32:16Z</time>
      </trkpt>
      <trkpt lat="44.45631" lon="6.51667">
        <ele>2671</ele>
        <time>2021-02-21T07:32:17Z</time>
      </trkpt>
      <trkpt lat="44.45631" lon="6.51667">
        <ele>2671</ele>
        <time>2021-02-21T07:32:18Z</time>
      </trkpt>
      <trkpt lat="44.45631" lon="6.51667">
        <ele>2671</ele>
        <time>2021-02-21T07:32:19Z</time>
      </trkpt>
      <trkpt lat="44.45631" lon="6.51667">
        <ele>2671</ele>
        <time>2021-02-21T07:32:20Z</time>
      </trkpt>
      <trkpt lat="44.45631" lon="6.51667">
        <ele>2671</ele>
        <time>2021-02-21T07:32:21Z</time>
      </trkpt>
      <trkpt lat="44.45628" lon="6.51665">
        <ele>2672</ele>
        <time>2021-02-21T07:32:22Z</time>
      </trkpt>
      <trkpt lat="44.45629" lon="6.51665">
        <ele>2672</ele>
        <time>2021-02-21T07:32:23Z</time>
      </trkpt>
      <trkpt lat="44.45628" lon="6.51665">
        <ele>2672</ele>
        <time>2021-02-21T07:32:24Z</time>
      </trkpt>
      <trkpt lat="44.45628" lon="6.51666">
        <ele>2672</ele>
        <time>2021-02-21T07:32:25Z</time>
      </trkpt>
      <trkpt lat="44.45628" lon="6.51666">
        <ele>2672</ele>
        <time>2021-02-21T07:32:26Z</time>
      </trkpt>
      <trkpt lat="44.45629" lon="6.51666">
        <ele>2672</ele>
        <time>2021-02-21T07:32:27Z</time>
      </trkpt>
      <trkpt lat="44.45629" lon="6.51666">
        <ele>2672</ele>
        <time>2021-02-21T07:32:28Z</time>
      </trkpt>
      <trkpt lat="44.45629" lon="6.51666">
        <ele>2673</ele>
        <time>2021-02-21T07:32:29Z</time>
      </trkpt>
      <trkpt lat="44.45629" lon="6.51666">
        <ele>2673</ele>
        <time>2021-02-21T07:32:30Z</time>
      </trkpt>
      <trkpt lat="44.45629" lon="6.51666">
        <ele>2673</ele>
        <time>2021-02-21T07:32:31Z</time>
      </trkpt>
      <trkpt lat="44.45629" lon="6.51666">
        <ele>2673</ele>
        <time>2021-02-21T07:32:32Z</time>
      </trkpt>
      <trkpt lat="44.45629" lon="6.51666">
        <ele>2673</ele>
        <time>2021-02-21T07:32:33Z</time>
      </trkpt>
      <trkpt lat="44.45629" lon="6.51666">
        <ele>2673</ele>
        <time>2021-02-21T07:32:34Z</time>
      </trkpt>
      <trkpt lat="44.45629" lon="6.51666">
        <ele>2673</ele>
        <time>2021-02-21T07:32:35Z</time>
      </trkpt>
      <trkpt lat="44.45629" lon="6.51666">
        <ele>2673</ele>
        <time>2021-02-21T07:32:36Z</time>
      </trkpt>
      <trkpt lat="44.45629" lon="6.51666">
        <ele>2673</ele>
        <time>2021-02-21T07:32:37Z</time>
      </trkpt>
      <trkpt lat="44.45629" lon="6.51664">
        <ele>2673</ele>
        <time>2021-02-21T07:32:38Z</time>
      </trkpt>
      <trkpt lat="44.45629" lon="6.51664">
        <ele>2673</ele>
        <time>2021-02-21T07:32:39Z</time>
      </trkpt>
      <trkpt lat="44.45629" lon="6.51664">
        <ele>2673</ele>
        <time>2021-02-21T07:32:40Z</time>
      </trkpt>
      <trkpt lat="44.45629" lon="6.51664">
        <ele>2673</ele>
        <time>2021-02-21T07:32:41Z</time>
      </trkpt>
      <trkpt lat="44.45629" lon="6.51664">
        <ele>2673</ele>
        <time>2021-02-21T07:32:42Z</time>
      </trkpt>
      <trkpt lat="44.45629" lon="6.51664">
        <ele>2673</ele>
        <time>2021-02-21T07:32:43Z</time>
      </trkpt>
      <trkpt lat="44.45629" lon="6.51664">
        <ele>2673</ele>
        <time>2021-02-21T07:32:44Z</time>
      </trkpt>
      <trkpt lat="44.45629" lon="6.51664">
        <ele>2673</ele>
        <time>2021-02-21T07:32:45Z</time>
      </trkpt>
      <trkpt lat="44.45629" lon="6.51664">
        <ele>2673</ele>
        <time>2021-02-21T07:32:46Z</time>
      </trkpt>
      <trkpt lat="44.45629" lon="6.51664">
        <ele>2673</ele>
        <time>2021-02-21T07:32:47Z</time>
      </trkpt>
      <trkpt lat="44.45629" lon="6.51664">
        <ele>2673</ele>
        <time>2021-02-21T07:32:48Z</time>
      </trkpt>
      <trkpt lat="44.45629" lon="6.51664">
        <ele>2673</ele>
        <time>2021-02-21T07:32:49Z</time>
      </trkpt>
      <trkpt lat="44.45629" lon="6.51664">
        <ele>2673</ele>
        <time>2021-02-21T07:32:50Z</time>
      </trkpt>
      <trkpt lat="44.45629" lon="6.51664">
        <ele>2673</ele>
        <time>2021-02-21T07:32:51Z</time>
      </trkpt>
      <trkpt lat="44.45629" lon="6.51664">
        <ele>2673</ele>
        <time>2021-02-21T07:32:52Z</time>
      </trkpt>
      <trkpt lat="44.45629" lon="6.51664">
        <ele>2673</ele>
        <time>2021-02-21T07:32:53Z</time>
      </trkpt>
      <trkpt lat="44.45629" lon="6.51664">
        <ele>2673</ele>
        <time>2021-02-21T07:32:54Z</time>
      </trkpt>
      <trkpt lat="44.4563" lon="6.51665">
        <ele>2673</ele>
        <time>2021-02-21T07:32:55Z</time>
      </trkpt>
      <trkpt lat="44.4563" lon="6.51665">
        <ele>2673</ele>
        <time>2021-02-21T07:32:56Z</time>
      </trkpt>
      <trkpt lat="44.4563" lon="6.51666">
        <ele>2674</ele>
        <time>2021-02-21T07:32:57Z</time>
      </trkpt>
      <trkpt lat="44.45631" lon="6.51666">
        <ele>2674</ele>
        <time>2021-02-21T07:32:58Z</time>
      </trkpt>
      <trkpt lat="44.45631" lon="6.51666">
        <ele>2674</ele>
        <time>2021-02-21T07:32:59Z</time>
      </trkpt>
      <trkpt lat="44.45631" lon="6.51666">
        <ele>2674</ele>
        <time>2021-02-21T07:33:00Z</time>
      </trkpt>
      <trkpt lat="44.45631" lon="6.51666">
        <ele>2674</ele>
        <time>2021-02-21T07:33:01Z</time>
      </trkpt>
      <trkpt lat="44.45631" lon="6.51666">
        <ele>2674</ele>
        <time>2021-02-21T07:33:02Z</time>
      </trkpt>
      <trkpt lat="44.45631" lon="6.51666">
        <ele>2674</ele>
        <time>2021-02-21T07:33:03Z</time>
      </trkpt>
      <trkpt lat="44.45631" lon="6.51666">
        <ele>2674</ele>
        <time>2021-02-21T07:33:04Z</time>
      </trkpt>
      <trkpt lat="44.45631" lon="6.51666">
        <ele>2674</ele>
        <time>2021-02-21T07:33:05Z</time>
      </trkpt>
      <trkpt lat="44.45631" lon="6.51666">
        <ele>2674</ele>
        <time>2021-02-21T07:33:06Z</time>
      </trkpt>
      <trkpt lat="44.45631" lon="6.51666">
        <ele>2674</ele>
        <time>2021-02-21T07:33:07Z</time>
      </trkpt>
      <trkpt lat="44.45631" lon="6.51666">
        <ele>2674</ele>
        <time>2021-02-21T07:33:08Z</time>
      </trkpt>
      <trkpt lat="44.45631" lon="6.51666">
        <ele>2674</ele>
        <time>2021-02-21T07:33:09Z</time>
      </trkpt>
      <trkpt lat="44.45631" lon="6.51666">
        <ele>2675</ele>
        <time>2021-02-21T07:33:10Z</time>
      </trkpt>
      <trkpt lat="44.45631" lon="6.51666">
        <ele>2676</ele>
        <time>2021-02-21T07:33:11Z</time>
      </trkpt>
      <trkpt lat="44.45631" lon="6.51666">
        <ele>2676</ele>
        <time>2021-02-21T07:33:12Z</time>
      </trkpt>
      <trkpt lat="44.45631" lon="6.51666">
        <ele>2676</ele>
        <time>2021-02-21T07:33:13Z</time>
      </trkpt>
      <trkpt lat="44.45631" lon="6.51666">
        <ele>2676</ele>
        <time>2021-02-21T07:33:14Z</time>
      </trkpt>
      <trkpt lat="44.45631" lon="6.51666">
        <ele>2676</ele>
        <time>2021-02-21T07:33:15Z</time>
      </trkpt>
      <trkpt lat="44.45631" lon="6.51666">
        <ele>2676</ele>
        <time>2021-02-21T07:33:16Z</time>
      </trkpt>
      <trkpt lat="44.45631" lon="6.51666">
        <ele>2676</ele>
        <time>2021-02-21T07:33:17Z</time>
      </trkpt>
      <trkpt lat="44.45631" lon="6.51666">
        <ele>2676</ele>
        <time>2021-02-21T07:33:18Z</time>
      </trkpt>
      <trkpt lat="44.45631" lon="6.51666">
        <ele>2676</ele>
        <time>2021-02-21T07:33:19Z</time>
      </trkpt>
      <trkpt lat="44.45631" lon="6.51666">
        <ele>2676</ele>
        <time>2021-02-21T07:33:20Z</time>
      </trkpt>
      <trkpt lat="44.45631" lon="6.51666">
        <ele>2676</ele>
        <time>2021-02-21T07:33:21Z</time>
      </trkpt>
      <trkpt lat="44.45631" lon="6.51666">
        <ele>2676</ele>
        <time>2021-02-21T07:33:22Z</time>
      </trkpt>
      <trkpt lat="44.45631" lon="6.51666">
        <ele>2676</ele>
        <time>2021-02-21T07:33:23Z</time>
      </trkpt>
      <trkpt lat="44.45631" lon="6.51666">
        <ele>2676</ele>
        <time>2021-02-21T07:33:24Z</time>
      </trkpt>
      <trkpt lat="44.45631" lon="6.51666">
        <ele>2676</ele>
        <time>2021-02-21T07:33:25Z</time>
      </trkpt>
      <trkpt lat="44.45631" lon="6.51666">
        <ele>2676</ele>
        <time>2021-02-21T07:33:26Z</time>
      </trkpt>
      <trkpt lat="44.45631" lon="6.51666">
        <ele>2676</ele>
        <time>2021-02-21T07:33:27Z</time>
      </trkpt>
      <trkpt lat="44.45631" lon="6.51666">
        <ele>2676</ele>
        <time>2021-02-21T07:33:28Z</time>
      </trkpt>
      <trkpt lat="44.45631" lon="6.51666">
        <ele>2676</ele>
        <time>2021-02-21T07:33:29Z</time>
      </trkpt>
      <trkpt lat="44.45631" lon="6.51666">
        <ele>2676</ele>
        <time>2021-02-21T07:33:30Z</time>
      </trkpt>
      <trkpt lat="44.45631" lon="6.51666">
        <ele>2676</ele>
        <time>2021-02-21T07:33:31Z</time>
      </trkpt>
      <trkpt lat="44.45631" lon="6.51666">
        <ele>2676</ele>
        <time>2021-02-21T07:33:32Z</time>
      </trkpt>
      <trkpt lat="44.45631" lon="6.51666">
        <ele>2676</ele>
        <time>2021-02-21T07:33:33Z</time>
      </trkpt>
      <trkpt lat="44.45631" lon="6.51666">
        <ele>2676</ele>
        <time>2021-02-21T07:33:34Z</time>
      </trkpt>
      <trkpt lat="44.45631" lon="6.51666">
        <ele>2676</ele>
        <time>2021-02-21T07:33:35Z</time>
      </trkpt>
      <trkpt lat="44.45631" lon="6.51666">
        <ele>2676</ele>
        <time>2021-02-21T07:33:36Z</time>
      </trkpt>
      <trkpt lat="44.45631" lon="6.51666">
        <ele>2676</ele>
        <time>2021-02-21T07:33:37Z</time>
      </trkpt>
      <trkpt lat="44.45631" lon="6.51666">
        <ele>2676</ele>
        <time>2021-02-21T07:33:38Z</time>
      </trkpt>
      <trkpt lat="44.45631" lon="6.51666">
        <ele>2676</ele>
        <time>2021-02-21T07:33:39Z</time>
      </trkpt>
      <trkpt lat="44.45631" lon="6.51666">
        <ele>2676</ele>
        <time>2021-02-21T07:33:40Z</time>
      </trkpt>
      <trkpt lat="44.4563" lon="6.51661">
        <ele>2677</ele>
        <time>2021-02-21T07:33:41Z</time>
      </trkpt>
      <trkpt lat="44.45629" lon="6.51661">
        <ele>2678</ele>
        <time>2021-02-21T07:33:42Z</time>
      </trkpt>
      <trkpt lat="44.45629" lon="6.51661">
        <ele>2678</ele>
        <time>2021-02-21T07:33:43Z</time>
      </trkpt>
      <trkpt lat="44.45629" lon="6.51661">
        <ele>2678</ele>
        <time>2021-02-21T07:33:44Z</time>
      </trkpt>
      <trkpt lat="44.45629" lon="6.5166">
        <ele>2678</ele>
        <time>2021-02-21T07:33:45Z</time>
      </trkpt>
      <trkpt lat="44.45629" lon="6.5166">
        <ele>2678</ele>
        <time>2021-02-21T07:33:46Z</time>
      </trkpt>
      <trkpt lat="44.45629" lon="6.5166">
        <ele>2678</ele>
        <time>2021-02-21T07:33:47Z</time>
      </trkpt>
      <trkpt lat="44.45629" lon="6.5166">
        <ele>2679</ele>
        <time>2021-02-21T07:33:48Z</time>
      </trkpt>
      <trkpt lat="44.45629" lon="6.5166">
        <ele>2679</ele>
        <time>2021-02-21T07:33:49Z</time>
      </trkpt>
      <trkpt lat="44.45629" lon="6.5166">
        <ele>2679</ele>
        <time>2021-02-21T07:33:50Z</time>
      </trkpt>
      <trkpt lat="44.45629" lon="6.5166">
        <ele>2679</ele>
        <time>2021-02-21T07:33:51Z</time>
      </trkpt>
      <trkpt lat="44.45629" lon="6.5166">
        <ele>2679</ele>
        <time>2021-02-21T07:33:52Z</time>
      </trkpt>
      <trkpt lat="44.45629" lon="6.5166">
        <ele>2679</ele>
        <time>2021-02-21T07:33:53Z</time>
      </trkpt>
      <trkpt lat="44.45629" lon="6.5166">
        <ele>2679</ele>
        <time>2021-02-21T07:33:54Z</time>
      </trkpt>
      <trkpt lat="44.45629" lon="6.5166">
        <ele>2679</ele>
        <time>2021-02-21T07:33:55Z</time>
      </trkpt>
      <trkpt lat="44.45629" lon="6.5166">
        <ele>2679</ele>
        <time>2021-02-21T07:33:56Z</time>
      </trkpt>
      <trkpt lat="44.45629" lon="6.5166">
        <ele>2679</ele>
        <time>2021-02-21T07:33:57Z</time>
      </trkpt>
      <trkpt lat="44.45629" lon="6.5166">
        <ele>2679</ele>
        <time>2021-02-21T07:33:58Z</time>
      </trkpt>
      <trkpt lat="44.45629" lon="6.5166">
        <ele>2679</ele>
        <time>2021-02-21T07:33:59Z</time>
      </trkpt>
      <trkpt lat="44.45629" lon="6.5166">
        <ele>2679</ele>
        <time>2021-02-21T07:34:00Z</time>
      </trkpt>
      <trkpt lat="44.45629" lon="6.5166">
        <ele>2679</ele>
        <time>2021-02-21T07:34:01Z</time>
      </trkpt>
      <trkpt lat="44.45629" lon="6.5166">
        <ele>2679</ele>
        <time>2021-02-21T07:34:02Z</time>
      </trkpt>
      <trkpt lat="44.4563" lon="6.51658">
        <ele>2679</ele>
        <time>2021-02-21T07:34:03Z</time>
      </trkpt>
      <trkpt lat="44.4563" lon="6.51658">
        <ele>2679</ele>
        <time>2021-02-21T07:34:04Z</time>
      </trkpt>
      <trkpt lat="44.4563" lon="6.51657">
        <ele>2679</ele>
        <time>2021-02-21T07:34:05Z</time>
      </trkpt>
      <trkpt lat="44.4563" lon="6.51657">
        <ele>2679</ele>
        <time>2021-02-21T07:34:06Z</time>
      </trkpt>
      <trkpt lat="44.4563" lon="6.51657">
        <ele>2679</ele>
        <time>2021-02-21T07:34:07Z</time>
      </trkpt>
      <trkpt lat="44.4563" lon="6.51657">
        <ele>2679</ele>
        <time>2021-02-21T07:34:08Z</time>
      </trkpt>
      <trkpt lat="44.4563" lon="6.51657">
        <ele>2679</ele>
        <time>2021-02-21T07:34:09Z</time>
      </trkpt>
      <trkpt lat="44.4563" lon="6.51657">
        <ele>2680</ele>
        <time>2021-02-21T07:34:10Z</time>
      </trkpt>
      <trkpt lat="44.4563" lon="6.51657">
        <ele>2680</ele>
        <time>2021-02-21T07:34:11Z</time>
      </trkpt>
      <trkpt lat="44.4563" lon="6.51657">
        <ele>2680</ele>
        <time>2021-02-21T07:34:12Z</time>
      </trkpt>
      <trkpt lat="44.4563" lon="6.51657">
        <ele>2680</ele>
        <time>2021-02-21T07:34:13Z</time>
      </trkpt>
      <trkpt lat="44.4563" lon="6.51657">
        <ele>2680</ele>
        <time>2021-02-21T07:34:14Z</time>
      </trkpt>
      <trkpt lat="44.4563" lon="6.51657">
        <ele>2680</ele>
        <time>2021-02-21T07:34:15Z</time>
      </trkpt>
      <trkpt lat="44.4563" lon="6.51657">
        <ele>2680</ele>
        <time>2021-02-21T07:34:16Z</time>
      </trkpt>
      <trkpt lat="44.4563" lon="6.51657">
        <ele>2680</ele>
        <time>2021-02-21T07:34:17Z</time>
      </trkpt>
      <trkpt lat="44.4563" lon="6.51657">
        <ele>2682</ele>
        <time>2021-02-21T07:34:18Z</time>
      </trkpt>
      <trkpt lat="44.4563" lon="6.51657">
        <ele>2682</ele>
        <time>2021-02-21T07:34:19Z</time>
      </trkpt>
      <trkpt lat="44.4563" lon="6.51657">
        <ele>2682</ele>
        <time>2021-02-21T07:34:20Z</time>
      </trkpt>
      <trkpt lat="44.4563" lon="6.51657">
        <ele>2682</ele>
        <time>2021-02-21T07:34:21Z</time>
      </trkpt>
      <trkpt lat="44.4563" lon="6.51657">
        <ele>2682</ele>
        <time>2021-02-21T07:34:22Z</time>
      </trkpt>
      <trkpt lat="44.4563" lon="6.51657">
        <ele>2682</ele>
        <time>2021-02-21T07:34:23Z</time>
      </trkpt>
      <trkpt lat="44.4563" lon="6.51657">
        <ele>2682</ele>
        <time>2021-02-21T07:34:24Z</time>
      </trkpt>
      <trkpt lat="44.4563" lon="6.51657">
        <ele>2682</ele>
        <time>2021-02-21T07:34:25Z</time>
      </trkpt>
      <trkpt lat="44.4563" lon="6.51657">
        <ele>2682</ele>
        <time>2021-02-21T07:34:26Z</time>
      </trkpt>
      <trkpt lat="44.4563" lon="6.51657">
        <ele>2682</ele>
        <time>2021-02-21T07:34:27Z</time>
      </trkpt>
      <trkpt lat="44.4563" lon="6.51657">
        <ele>2682</ele>
        <time>2021-02-21T07:34:28Z</time>
      </trkpt>
      <trkpt lat="44.4563" lon="6.51657">
        <ele>2682</ele>
        <time>2021-02-21T07:34:29Z</time>
      </trkpt>
      <trkpt lat="44.4563" lon="6.51657">
        <ele>2682</ele>
        <time>2021-02-21T07:34:30Z</time>
      </trkpt>
      <trkpt lat="44.4563" lon="6.51657">
        <ele>2682</ele>
        <time>2021-02-21T07:34:31Z</time>
      </trkpt>
      <trkpt lat="44.4563" lon="6.51657">
        <ele>2682</ele>
        <time>2021-02-21T07:34:32Z</time>
      </trkpt>
      <trkpt lat="44.4563" lon="6.51657">
        <ele>2682</ele>
        <time>2021-02-21T07:34:33Z</time>
      </trkpt>
      <trkpt lat="44.4563" lon="6.51657">
        <ele>2682</ele>
        <time>2021-02-21T07:34:34Z</time>
      </trkpt>
      <trkpt lat="44.4563" lon="6.51657">
        <ele>2682</ele>
        <time>2021-02-21T07:34:35Z</time>
      </trkpt>
      <trkpt lat="44.4563" lon="6.51657">
        <ele>2683</ele>
        <time>2021-02-21T07:34:36Z</time>
      </trkpt>
      <trkpt lat="44.4563" lon="6.51657">
        <ele>2683</ele>
        <time>2021-02-21T07:34:37Z</time>
      </trkpt>
      <trkpt lat="44.4563" lon="6.51657">
        <ele>2683</ele>
        <time>2021-02-21T07:34:38Z</time>
      </trkpt>
      <trkpt lat="44.4563" lon="6.51657">
        <ele>2683</ele>
        <time>2021-02-21T07:34:39Z</time>
      </trkpt>
      <trkpt lat="44.4563" lon="6.51657">
        <ele>2683</ele>
        <time>2021-02-21T07:34:40Z</time>
      </trkpt>
      <trkpt lat="44.4563" lon="6.51657">
        <ele>2683</ele>
        <time>2021-02-21T07:34:41Z</time>
      </trkpt>
      <trkpt lat="44.4563" lon="6.51657">
        <ele>2683</ele>
        <time>2021-02-21T07:34:42Z</time>
      </trkpt>
      <trkpt lat="44.4563" lon="6.51657">
        <ele>2683</ele>
        <time>2021-02-21T07:34:43Z</time>
      </trkpt>
      <trkpt lat="44.4563" lon="6.51657">
        <ele>2683</ele>
        <time>2021-02-21T07:34:44Z</time>
      </trkpt>
      <trkpt lat="44.4563" lon="6.51657">
        <ele>2683</ele>
        <time>2021-02-21T07:34:45Z</time>
      </trkpt>
      <trkpt lat="44.4563" lon="6.51657">
        <ele>2683</ele>
        <time>2021-02-21T07:34:46Z</time>
      </trkpt>
      <trkpt lat="44.4563" lon="6.51657">
        <ele>2683</ele>
        <time>2021-02-21T07:34:47Z</time>
      </trkpt>
      <trkpt lat="44.4563" lon="6.51657">
        <ele>2683</ele>
        <time>2021-02-21T07:34:48Z</time>
      </trkpt>
      <trkpt lat="44.4563" lon="6.51657">
        <ele>2683</ele>
        <time>2021-02-21T07:34:49Z</time>
      </trkpt>
      <trkpt lat="44.4563" lon="6.51657">
        <ele>2683</ele>
        <time>2021-02-21T07:34:50Z</time>
      </trkpt>
      <trkpt lat="44.45629" lon="6.5166">
        <ele>2683</ele>
        <time>2021-02-21T07:34:51Z</time>
      </trkpt>
      <trkpt lat="44.45629" lon="6.5166">
        <ele>2684</ele>
        <time>2021-02-21T07:34:52Z</time>
      </trkpt>
      <trkpt lat="44.45629" lon="6.51661">
        <ele>2685</ele>
        <time>2021-02-21T07:34:53Z</time>
      </trkpt>
      <trkpt lat="44.45629" lon="6.51661">
        <ele>2685</ele>
        <time>2021-02-21T07:34:54Z</time>
      </trkpt>
      <trkpt lat="44.45629" lon="6.51661">
        <ele>2685</ele>
        <time>2021-02-21T07:34:55Z</time>
      </trkpt>
      <trkpt lat="44.45629" lon="6.51661">
        <ele>2685</ele>
        <time>2021-02-21T07:34:56Z</time>
      </trkpt>
      <trkpt lat="44.45629" lon="6.51661">
        <ele>2685</ele>
        <time>2021-02-21T07:34:57Z</time>
      </trkpt>
      <trkpt lat="44.45629" lon="6.51661">
        <ele>2685</ele>
        <time>2021-02-21T07:34:58Z</time>
      </trkpt>
      <trkpt lat="44.45629" lon="6.51661">
        <ele>2686</ele>
        <time>2021-02-21T07:34:59Z</time>
      </trkpt>
      <trkpt lat="44.45629" lon="6.51661">
        <ele>2686</ele>
        <time>2021-02-21T07:35:00Z</time>
      </trkpt>
      <trkpt lat="44.45629" lon="6.51661">
        <ele>2686</ele>
        <time>2021-02-21T07:35:01Z</time>
      </trkpt>
      <trkpt lat="44.45629" lon="6.51661">
        <ele>2686</ele>
        <time>2021-02-21T07:35:02Z</time>
      </trkpt>
      <trkpt lat="44.45629" lon="6.51661">
        <ele>2686</ele>
        <time>2021-02-21T07:35:03Z</time>
      </trkpt>
      <trkpt lat="44.45629" lon="6.51661">
        <ele>2686</ele>
        <time>2021-02-21T07:35:04Z</time>
      </trkpt>
      <trkpt lat="44.45629" lon="6.51661">
        <ele>2686</ele>
        <time>2021-02-21T07:35:05Z</time>
      </trkpt>
      <trkpt lat="44.45629" lon="6.51661">
        <ele>2686</ele>
        <time>2021-02-21T07:35:06Z</time>
      </trkpt>
      <trkpt lat="44.45629" lon="6.51661">
        <ele>2686</ele>
        <time>2021-02-21T07:35:07Z</time>
      </trkpt>
      <trkpt lat="44.45628" lon="6.5166">
        <ele>2686</ele>
        <time>2021-02-21T07:35:08Z</time>
      </trkpt>
      <trkpt lat="44.45628" lon="6.5166">
        <ele>2686</ele>
        <time>2021-02-21T07:35:09Z</time>
      </trkpt>
      <trkpt lat="44.45628" lon="6.5166">
        <ele>2686</ele>
        <time>2021-02-21T07:35:10Z</time>
      </trkpt>
      <trkpt lat="44.45628" lon="6.5166">
        <ele>2686</ele>
        <time>2021-02-21T07:35:11Z</time>
      </trkpt>
      <trkpt lat="44.45628" lon="6.5166">
        <ele>2686</ele>
        <time>2021-02-21T07:35:12Z</time>
      </trkpt>
      <trkpt lat="44.45628" lon="6.5166">
        <ele>2686</ele>
        <time>2021-02-21T07:35:13Z</time>
      </trkpt>
      <trkpt lat="44.45628" lon="6.5166">
        <ele>2686</ele>
        <time>2021-02-21T07:35:14Z</time>
      </trkpt>
      <trkpt lat="44.45628" lon="6.5166">
        <ele>2686</ele>
        <time>2021-02-21T07:35:15Z</time>
      </trkpt>
      <trkpt lat="44.45628" lon="6.5166">
        <ele>2686</ele>
        <time>2021-02-21T07:35:16Z</time>
      </trkpt>
      <trkpt lat="44.45628" lon="6.5166">
        <ele>2686</ele>
        <time>2021-02-21T07:35:17Z</time>
      </trkpt>
      <trkpt lat="44.45628" lon="6.5166">
        <ele>2686</ele>
        <time>2021-02-21T07:35:18Z</time>
      </trkpt>
      <trkpt lat="44.45628" lon="6.5166">
        <ele>2686</ele>
        <time>2021-02-21T07:35:19Z</time>
      </trkpt>
      <trkpt lat="44.45628" lon="6.5166">
        <ele>2686</ele>
        <time>2021-02-21T07:35:20Z</time>
      </trkpt>
      <trkpt lat="44.45631" lon="6.51661">
        <ele>2686</ele>
        <time>2021-02-21T07:35:21Z</time>
      </trkpt>
      <trkpt lat="44.45632" lon="6.51661">
        <ele>2686</ele>
        <time>2021-02-21T07:35:22Z</time>
      </trkpt>
      <trkpt lat="44.45633" lon="6.51661">
        <ele>2686</ele>
        <time>2021-02-21T07:35:23Z</time>
      </trkpt>
      <trkpt lat="44.45633" lon="6.51661">
        <ele>2686</ele>
        <time>2021-02-21T07:35:24Z</time>
      </trkpt>
      <trkpt lat="44.45633" lon="6.51661">
        <ele>2686</ele>
        <time>2021-02-21T07:35:25Z</time>
      </trkpt>
      <trkpt lat="44.45633" lon="6.51661">
        <ele>2686</ele>
        <time>2021-02-21T07:35:26Z</time>
      </trkpt>
      <trkpt lat="44.45633" lon="6.51661">
        <ele>2686</ele>
        <time>2021-02-21T07:35:27Z</time>
      </trkpt>
      <trkpt lat="44.45633" lon="6.51661">
        <ele>2686</ele>
        <time>2021-02-21T07:35:28Z</time>
      </trkpt>
      <trkpt lat="44.45633" lon="6.51661">
        <ele>2686</ele>
        <time>2021-02-21T07:35:29Z</time>
      </trkpt>
      <trkpt lat="44.45633" lon="6.51661">
        <ele>2686</ele>
        <time>2021-02-21T07:35:30Z</time>
      </trkpt>
      <trkpt lat="44.45633" lon="6.51661">
        <ele>2686</ele>
        <time>2021-02-21T07:35:31Z</time>
      </trkpt>
      <trkpt lat="44.45633" lon="6.51661">
        <ele>2686</ele>
        <time>2021-02-21T07:35:32Z</time>
      </trkpt>
      <trkpt lat="44.45633" lon="6.51659">
        <ele>2686</ele>
        <time>2021-02-21T07:35:33Z</time>
      </trkpt>
      <trkpt lat="44.45633" lon="6.51659">
        <ele>2686</ele>
        <time>2021-02-21T07:35:34Z</time>
      </trkpt>
      <trkpt lat="44.45633" lon="6.51659">
        <ele>2686</ele>
        <time>2021-02-21T07:35:35Z</time>
      </trkpt>
      <trkpt lat="44.45633" lon="6.51658">
        <ele>2687</ele>
        <time>2021-02-21T07:35:36Z</time>
      </trkpt>
      <trkpt lat="44.45633" lon="6.51658">
        <ele>2687</ele>
        <time>2021-02-21T07:35:37Z</time>
      </trkpt>
      <trkpt lat="44.45633" lon="6.51658">
        <ele>2687</ele>
        <time>2021-02-21T07:35:38Z</time>
      </trkpt>
      <trkpt lat="44.45633" lon="6.51658">
        <ele>2687</ele>
        <time>2021-02-21T07:35:39Z</time>
      </trkpt>
      <trkpt lat="44.45633" lon="6.51658">
        <ele>2687</ele>
        <time>2021-02-21T07:35:40Z</time>
      </trkpt>
      <trkpt lat="44.45633" lon="6.51658">
        <ele>2687</ele>
        <time>2021-02-21T07:35:41Z</time>
      </trkpt>
      <trkpt lat="44.45633" lon="6.51658">
        <ele>2687</ele>
        <time>2021-02-21T07:35:42Z</time>
      </trkpt>
      <trkpt lat="44.45633" lon="6.51658">
        <ele>2687</ele>
        <time>2021-02-21T07:35:43Z</time>
      </trkpt>
      <trkpt lat="44.45633" lon="6.51658">
        <ele>2687</ele>
        <time>2021-02-21T07:35:44Z</time>
      </trkpt>
      <trkpt lat="44.45633" lon="6.51658">
        <ele>2687</ele>
        <time>2021-02-21T07:35:45Z</time>
      </trkpt>
      <trkpt lat="44.45633" lon="6.51658">
        <ele>2687</ele>
        <time>2021-02-21T07:35:46Z</time>
      </trkpt>
      <trkpt lat="44.45633" lon="6.51658">
        <ele>2687</ele>
        <time>2021-02-21T07:35:47Z</time>
      </trkpt>
      <trkpt lat="44.45633" lon="6.51658">
        <ele>2687</ele>
        <time>2021-02-21T07:35:48Z</time>
      </trkpt>
      <trkpt lat="44.45633" lon="6.51658">
        <ele>2687</ele>
        <time>2021-02-21T07:35:49Z</time>
      </trkpt>
      <trkpt lat="44.45633" lon="6.51658">
        <ele>2687</ele>
        <time>2021-02-21T07:35:50Z</time>
      </trkpt>
      <trkpt lat="44.45633" lon="6.51658">
        <ele>2687</ele>
        <time>2021-02-21T07:35:51Z</time>
      </trkpt>
      <trkpt lat="44.45633" lon="6.51658">
        <ele>2687</ele>
        <time>2021-02-21T07:35:52Z</time>
      </trkpt>
      <trkpt lat="44.45633" lon="6.51658">
        <ele>2687</ele>
        <time>2021-02-21T07:35:53Z</time>
      </trkpt>
      <trkpt lat="44.45633" lon="6.51658">
        <ele>2687</ele>
        <time>2021-02-21T07:35:54Z</time>
      </trkpt>
      <trkpt lat="44.45633" lon="6.51658">
        <ele>2687</ele>
        <time>2021-02-21T07:35:55Z</time>
      </trkpt>
      <trkpt lat="44.45631" lon="6.51656">
        <ele>2688</ele>
        <time>2021-02-21T07:35:56Z</time>
      </trkpt>
      <trkpt lat="44.45632" lon="6.51657">
        <ele>2688</ele>
        <time>2021-02-21T07:35:57Z</time>
      </trkpt>
      <trkpt lat="44.45632" lon="6.51657">
        <ele>2688</ele>
        <time>2021-02-21T07:35:58Z</time>
      </trkpt>
      <trkpt lat="44.45633" lon="6.51657">
        <ele>2688</ele>
        <time>2021-02-21T07:35:59Z</time>
      </trkpt>
      <trkpt lat="44.45633" lon="6.51657">
        <ele>2688</ele>
        <time>2021-02-21T07:36:00Z</time>
      </trkpt>
      <trkpt lat="44.45633" lon="6.51657">
        <ele>2688</ele>
        <time>2021-02-21T07:36:01Z</time>
      </trkpt>
      <trkpt lat="44.45633" lon="6.51658">
        <ele>2688</ele>
        <time>2021-02-21T07:36:02Z</time>
      </trkpt>
      <trkpt lat="44.45631" lon="6.51659">
        <ele>2688</ele>
        <time>2021-02-21T07:36:03Z</time>
      </trkpt>
      <trkpt lat="44.45631" lon="6.51658">
        <ele>2689</ele>
        <time>2021-02-21T07:36:04Z</time>
      </trkpt>
      <trkpt lat="44.4563" lon="6.51658">
        <ele>2689</ele>
        <time>2021-02-21T07:36:05Z</time>
      </trkpt>
      <trkpt lat="44.45631" lon="6.51657">
        <ele>2689</ele>
        <time>2021-02-21T07:36:06Z</time>
      </trkpt>
      <trkpt lat="44.4563" lon="6.51657">
        <ele>2689</ele>
        <time>2021-02-21T07:36:07Z</time>
      </trkpt>
      <trkpt lat="44.4563" lon="6.51657">
        <ele>2689</ele>
        <time>2021-02-21T07:36:08Z</time>
      </trkpt>
      <trkpt lat="44.45632" lon="6.51656">
        <ele>2689</ele>
        <time>2021-02-21T07:36:09Z</time>
      </trkpt>
      <trkpt lat="44.45632" lon="6.51655">
        <ele>2689</ele>
        <time>2021-02-21T07:36:10Z</time>
      </trkpt>
      <trkpt lat="44.45632" lon="6.51656">
        <ele>2689</ele>
        <time>2021-02-21T07:36:11Z</time>
      </trkpt>
      <trkpt lat="44.45632" lon="6.51655">
        <ele>2689</ele>
        <time>2021-02-21T07:36:12Z</time>
      </trkpt>
      <trkpt lat="44.45631" lon="6.51655">
        <ele>2689</ele>
        <time>2021-02-21T07:36:13Z</time>
      </trkpt>
      <trkpt lat="44.45631" lon="6.51655">
        <ele>2689</ele>
        <time>2021-02-21T07:36:14Z</time>
      </trkpt>
      <trkpt lat="44.4563" lon="6.51655">
        <ele>2689</ele>
        <time>2021-02-21T07:36:15Z</time>
      </trkpt>
      <trkpt lat="44.4563" lon="6.51655">
        <ele>2689</ele>
        <time>2021-02-21T07:36:16Z</time>
      </trkpt>
      <trkpt lat="44.4563" lon="6.51655">
        <ele>2690</ele>
        <time>2021-02-21T07:36:17Z</time>
      </trkpt>
      <trkpt lat="44.4563" lon="6.51655">
        <ele>2690</ele>
        <time>2021-02-21T07:36:18Z</time>
      </trkpt>
      <trkpt lat="44.4563" lon="6.51655">
        <ele>2690</ele>
        <time>2021-02-21T07:36:19Z</time>
      </trkpt>
      <trkpt lat="44.4563" lon="6.51655">
        <ele>2690</ele>
        <time>2021-02-21T07:36:20Z</time>
      </trkpt>
      <trkpt lat="44.4563" lon="6.51655">
        <ele>2690</ele>
        <time>2021-02-21T07:36:21Z</time>
      </trkpt>
      <trkpt lat="44.4563" lon="6.51655">
        <ele>2690</ele>
        <time>2021-02-21T07:36:22Z</time>
      </trkpt>
      <trkpt lat="44.4563" lon="6.51655">
        <ele>2690</ele>
        <time>2021-02-21T07:36:23Z</time>
      </trkpt>
      <trkpt lat="44.4563" lon="6.51655">
        <ele>2690</ele>
        <time>2021-02-21T07:36:24Z</time>
      </trkpt>
      <trkpt lat="44.4563" lon="6.51655">
        <ele>2690</ele>
        <time>2021-02-21T07:36:25Z</time>
      </trkpt>
      <trkpt lat="44.4563" lon="6.51655">
        <ele>2690</ele>
        <time>2021-02-21T07:36:26Z</time>
      </trkpt>
      <trkpt lat="44.45629" lon="6.51653">
        <ele>2692</ele>
        <time>2021-02-21T07:36:27Z</time>
      </trkpt>
      <trkpt lat="44.4563" lon="6.51652">
        <ele>2693</ele>
        <time>2021-02-21T07:36:28Z</time>
      </trkpt>
      <trkpt lat="44.4563" lon="6.51652">
        <ele>2693</ele>
        <time>2021-02-21T07:36:29Z</time>
      </trkpt>
      <trkpt lat="44.4563" lon="6.51652">
        <ele>2693</ele>
        <time>2021-02-21T07:36:30Z</time>
      </trkpt>
      <trkpt lat="44.4563" lon="6.51652">
        <ele>2693</ele>
        <time>2021-02-21T07:36:31Z</time>
      </trkpt>
      <trkpt lat="44.4563" lon="6.51652">
        <ele>2693</ele>
        <time>2021-02-21T07:36:32Z</time>
      </trkpt>
      <trkpt lat="44.4563" lon="6.51652">
        <ele>2693</ele>
        <time>2021-02-21T07:36:33Z</time>
      </trkpt>
      <trkpt lat="44.4563" lon="6.51652">
        <ele>2693</ele>
        <time>2021-02-21T07:36:34Z</time>
      </trkpt>
      <trkpt lat="44.4563" lon="6.51652">
        <ele>2693</ele>
        <time>2021-02-21T07:36:35Z</time>
      </trkpt>
      <trkpt lat="44.4563" lon="6.51652">
        <ele>2693</ele>
        <time>2021-02-21T07:36:36Z</time>
      </trkpt>
      <trkpt lat="44.4563" lon="6.51652">
        <ele>2693</ele>
        <time>2021-02-21T07:36:37Z</time>
      </trkpt>
      <trkpt lat="44.4563" lon="6.51652">
        <ele>2693</ele>
        <time>2021-02-21T07:36:38Z</time>
      </trkpt>
      <trkpt lat="44.4563" lon="6.51652">
        <ele>2693</ele>
        <time>2021-02-21T07:36:39Z</time>
      </trkpt>
      <trkpt lat="44.4563" lon="6.51652">
        <ele>2693</ele>
        <time>2021-02-21T07:36:40Z</time>
      </trkpt>
      <trkpt lat="44.4563" lon="6.51652">
        <ele>2693</ele>
        <time>2021-02-21T07:36:41Z</time>
      </trkpt>
      <trkpt lat="44.4563" lon="6.51652">
        <ele>2694</ele>
        <time>2021-02-21T07:36:42Z</time>
      </trkpt>
      <trkpt lat="44.4563" lon="6.51652">
        <ele>2694</ele>
        <time>2021-02-21T07:36:43Z</time>
      </trkpt>
      <trkpt lat="44.4563" lon="6.51652">
        <ele>2694</ele>
        <time>2021-02-21T07:36:44Z</time>
      </trkpt>
      <trkpt lat="44.4563" lon="6.51652">
        <ele>2694</ele>
        <time>2021-02-21T07:36:45Z</time>
      </trkpt>
      <trkpt lat="44.4563" lon="6.51652">
        <ele>2694</ele>
        <time>2021-02-21T07:36:46Z</time>
      </trkpt>
      <trkpt lat="44.4563" lon="6.51652">
        <ele>2694</ele>
        <time>2021-02-21T07:36:47Z</time>
      </trkpt>
      <trkpt lat="44.4563" lon="6.51652">
        <ele>2694</ele>
        <time>2021-02-21T07:36:48Z</time>
      </trkpt>
      <trkpt lat="44.4563" lon="6.51652">
        <ele>2694</ele>
        <time>2021-02-21T07:36:49Z</time>
      </trkpt>
      <trkpt lat="44.4563" lon="6.51652">
        <ele>2694</ele>
        <time>2021-02-21T07:36:50Z</time>
      </trkpt>
      <trkpt lat="44.4563" lon="6.51652">
        <ele>2694</ele>
        <time>2021-02-21T07:36:51Z</time>
      </trkpt>
      <trkpt lat="44.4563" lon="6.51652">
        <ele>2694</ele>
        <time>2021-02-21T07:36:52Z</time>
      </trkpt>
      <trkpt lat="44.4563" lon="6.51652">
        <ele>2694</ele>
        <time>2021-02-21T07:36:53Z</time>
      </trkpt>
      <trkpt lat="44.4563" lon="6.51652">
        <ele>2694</ele>
        <time>2021-02-21T07:36:54Z</time>
      </trkpt>
      <trkpt lat="44.4563" lon="6.51652">
        <ele>2694</ele>
        <time>2021-02-21T07:36:55Z</time>
      </trkpt>
      <trkpt lat="44.4563" lon="6.51652">
        <ele>2694</ele>
        <time>2021-02-21T07:36:56Z</time>
      </trkpt>
      <trkpt lat="44.4563" lon="6.51652">
        <ele>2694</ele>
        <time>2021-02-21T07:36:57Z</time>
      </trkpt>
      <trkpt lat="44.4563" lon="6.51652">
        <ele>2694</ele>
        <time>2021-02-21T07:36:58Z</time>
      </trkpt>
      <trkpt lat="44.45632" lon="6.51649">
        <ele>2694</ele>
        <time>2021-02-21T07:36:59Z</time>
      </trkpt>
      <trkpt lat="44.45632" lon="6.51649">
        <ele>2694</ele>
        <time>2021-02-21T07:37:00Z</time>
      </trkpt>
      <trkpt lat="44.45632" lon="6.51649">
        <ele>2695</ele>
        <time>2021-02-21T07:37:01Z</time>
      </trkpt>
      <trkpt lat="44.45632" lon="6.51648">
        <ele>2695</ele>
        <time>2021-02-21T07:37:02Z</time>
      </trkpt>
      <trkpt lat="44.45632" lon="6.51647">
        <ele>2696</ele>
        <time>2021-02-21T07:37:03Z</time>
      </trkpt>
      <trkpt lat="44.45631" lon="6.51648">
        <ele>2696</ele>
        <time>2021-02-21T07:37:04Z</time>
      </trkpt>
      <trkpt lat="44.45631" lon="6.51648">
        <ele>2696</ele>
        <time>2021-02-21T07:37:05Z</time>
      </trkpt>
      <trkpt lat="44.4563" lon="6.51649">
        <ele>2696</ele>
        <time>2021-02-21T07:37:06Z</time>
      </trkpt>
      <trkpt lat="44.4563" lon="6.51648">
        <ele>2696</ele>
        <time>2021-02-21T07:37:07Z</time>
      </trkpt>
      <trkpt lat="44.45631" lon="6.51647">
        <ele>2696</ele>
        <time>2021-02-21T07:37:08Z</time>
      </trkpt>
      <trkpt lat="44.45631" lon="6.51648">
        <ele>2696</ele>
        <time>2021-02-21T07:37:09Z</time>
      </trkpt>
      <trkpt lat="44.45631" lon="6.51647">
        <ele>2696</ele>
        <time>2021-02-21T07:37:10Z</time>
      </trkpt>
      <trkpt lat="44.45631" lon="6.51647">
        <ele>2697</ele>
        <time>2021-02-21T07:37:11Z</time>
      </trkpt>
      <trkpt lat="44.45631" lon="6.51646">
        <ele>2697</ele>
        <time>2021-02-21T07:37:12Z</time>
      </trkpt>
      <trkpt lat="44.45631" lon="6.51647">
        <ele>2697</ele>
        <time>2021-02-21T07:37:13Z</time>
      </trkpt>
      <trkpt lat="44.4563" lon="6.51647">
        <ele>2697</ele>
        <time>2021-02-21T07:37:14Z</time>
      </trkpt>
      <trkpt lat="44.4563" lon="6.51647">
        <ele>2697</ele>
        <time>2021-02-21T07:37:15Z</time>
      </trkpt>
      <trkpt lat="44.4563" lon="6.51647">
        <ele>2697</ele>
        <time>2021-02-21T07:37:16Z</time>
      </trkpt>
      <trkpt lat="44.4563" lon="6.51647">
        <ele>2697</ele>
        <time>2021-02-21T07:37:17Z</time>
      </trkpt>
      <trkpt lat="44.4563" lon="6.51647">
        <ele>2697</ele>
        <time>2021-02-21T07:37:18Z</time>
      </trkpt>
      <trkpt lat="44.4563" lon="6.51647">
        <ele>2697</ele>
        <time>2021-02-21T07:37:19Z</time>
      </trkpt>
      <trkpt lat="44.4563" lon="6.51647">
        <ele>2697</ele>
        <time>2021-02-21T07:37:20Z</time>
      </trkpt>
      <trkpt lat="44.4563" lon="6.51647">
        <ele>2697</ele>
        <time>2021-02-21T07:37:21Z</time>
      </trkpt>
      <trkpt lat="44.4563" lon="6.51647">
        <ele>2697</ele>
        <time>2021-02-21T07:37:22Z</time>
      </trkpt>
      <trkpt lat="44.4563" lon="6.51647">
        <ele>2697</ele>
        <time>2021-02-21T07:37:23Z</time>
      </trkpt>
      <trkpt lat="44.4563" lon="6.51647">
        <ele>2697</ele>
        <time>2021-02-21T07:37:24Z</time>
      </trkpt>
      <trkpt lat="44.4563" lon="6.51647">
        <ele>2697</ele>
        <time>2021-02-21T07:37:25Z</time>
      </trkpt>
      <trkpt lat="44.4563" lon="6.51647">
        <ele>2697</ele>
        <time>2021-02-21T07:37:26Z</time>
      </trkpt>
      <trkpt lat="44.4563" lon="6.51647">
        <ele>2697</ele>
        <time>2021-02-21T07:37:27Z</time>
      </trkpt>
      <trkpt lat="44.4563" lon="6.51647">
        <ele>2697</ele>
        <time>2021-02-21T07:37:28Z</time>
      </trkpt>
      <trkpt lat="44.4563" lon="6.51647">
        <ele>2697</ele>
        <time>2021-02-21T07:37:29Z</time>
      </trkpt>
      <trkpt lat="44.45631" lon="6.51646">
        <ele>2697</ele>
        <time>2021-02-21T07:37:30Z</time>
      </trkpt>
      <trkpt lat="44.45631" lon="6.51646">
        <ele>2697</ele>
        <time>2021-02-21T07:37:31Z</time>
      </trkpt>
      <trkpt lat="44.45631" lon="6.51646">
        <ele>2697</ele>
        <time>2021-02-21T07:37:32Z</time>
      </trkpt>
      <trkpt lat="44.45631" lon="6.51646">
        <ele>2697</ele>
        <time>2021-02-21T07:37:33Z</time>
      </trkpt>
      <trkpt lat="44.45631" lon="6.51647">
        <ele>2697</ele>
        <time>2021-02-21T07:37:34Z</time>
      </trkpt>
      <trkpt lat="44.45631" lon="6.51646">
        <ele>2697</ele>
        <time>2021-02-21T07:37:35Z</time>
      </trkpt>
      <trkpt lat="44.45631" lon="6.51647">
        <ele>2697</ele>
        <time>2021-02-21T07:37:36Z</time>
      </trkpt>
      <trkpt lat="44.45631" lon="6.51646">
        <ele>2697</ele>
        <time>2021-02-21T07:37:37Z</time>
      </trkpt>
      <trkpt lat="44.45631" lon="6.51646">
        <ele>2697</ele>
        <time>2021-02-21T07:37:38Z</time>
      </trkpt>
      <trkpt lat="44.45632" lon="6.51645">
        <ele>2697</ele>
        <time>2021-02-21T07:37:39Z</time>
      </trkpt>
      <trkpt lat="44.45632" lon="6.51645">
        <ele>2697</ele>
        <time>2021-02-21T07:37:40Z</time>
      </trkpt>
      <trkpt lat="44.45632" lon="6.51645">
        <ele>2697</ele>
        <time>2021-02-21T07:37:41Z</time>
      </trkpt>
      <trkpt lat="44.45632" lon="6.51644">
        <ele>2697</ele>
        <time>2021-02-21T07:37:42Z</time>
      </trkpt>
      <trkpt lat="44.45632" lon="6.51644">
        <ele>2697</ele>
        <time>2021-02-21T07:37:43Z</time>
      </trkpt>
      <trkpt lat="44.45632" lon="6.51644">
        <ele>2698</ele>
        <time>2021-02-21T07:37:44Z</time>
      </trkpt>
      <trkpt lat="44.45632" lon="6.51643">
        <ele>2698</ele>
        <time>2021-02-21T07:37:45Z</time>
      </trkpt>
      <trkpt lat="44.45632" lon="6.51642">
        <ele>2699</ele>
        <time>2021-02-21T07:37:46Z</time>
      </trkpt>
      <trkpt lat="44.45632" lon="6.51642">
        <ele>2699</ele>
        <time>2021-02-21T07:37:47Z</time>
      </trkpt>
      <trkpt lat="44.45632" lon="6.51641">
        <ele>2699</ele>
        <time>2021-02-21T07:37:48Z</time>
      </trkpt>
      <trkpt lat="44.45632" lon="6.51641">
        <ele>2699</ele>
        <time>2021-02-21T07:37:49Z</time>
      </trkpt>
      <trkpt lat="44.45632" lon="6.51641">
        <ele>2699</ele>
        <time>2021-02-21T07:37:50Z</time>
      </trkpt>
      <trkpt lat="44.45632" lon="6.5164">
        <ele>2699</ele>
        <time>2021-02-21T07:37:51Z</time>
      </trkpt>
      <trkpt lat="44.45633" lon="6.5164">
        <ele>2699</ele>
        <time>2021-02-21T07:37:52Z</time>
      </trkpt>
      <trkpt lat="44.45633" lon="6.5164">
        <ele>2699</ele>
        <time>2021-02-21T07:37:53Z</time>
      </trkpt>
      <trkpt lat="44.45633" lon="6.5164">
        <ele>2699</ele>
        <time>2021-02-21T07:37:54Z</time>
      </trkpt>
      <trkpt lat="44.45633" lon="6.5164">
        <ele>2699</ele>
        <time>2021-02-21T07:37:55Z</time>
      </trkpt>
      <trkpt lat="44.45633" lon="6.5164">
        <ele>2699</ele>
        <time>2021-02-21T07:37:56Z</time>
      </trkpt>
      <trkpt lat="44.45633" lon="6.5164">
        <ele>2699</ele>
        <time>2021-02-21T07:37:57Z</time>
      </trkpt>
      <trkpt lat="44.45633" lon="6.5164">
        <ele>2699</ele>
        <time>2021-02-21T07:37:58Z</time>
      </trkpt>
      <trkpt lat="44.45633" lon="6.5164">
        <ele>2699</ele>
        <time>2021-02-21T07:37:59Z</time>
      </trkpt>
      <trkpt lat="44.45633" lon="6.5164">
        <ele>2699</ele>
        <time>2021-02-21T07:38:00Z</time>
      </trkpt>
      <trkpt lat="44.45633" lon="6.5164">
        <ele>2699</ele>
        <time>2021-02-21T07:38:01Z</time>
      </trkpt>
      <trkpt lat="44.45633" lon="6.5164">
        <ele>2699</ele>
        <time>2021-02-21T07:38:02Z</time>
      </trkpt>
      <trkpt lat="44.45633" lon="6.5164">
        <ele>2699</ele>
        <time>2021-02-21T07:38:03Z</time>
      </trkpt>
      <trkpt lat="44.45633" lon="6.5164">
        <ele>2699</ele>
        <time>2021-02-21T07:38:04Z</time>
      </trkpt>
      <trkpt lat="44.45633" lon="6.5164">
        <ele>2699</ele>
        <time>2021-02-21T07:38:05Z</time>
      </trkpt>
      <trkpt lat="44.45633" lon="6.5164">
        <ele>2699</ele>
        <time>2021-02-21T07:38:06Z</time>
      </trkpt>
      <trkpt lat="44.45633" lon="6.5164">
        <ele>2699</ele>
        <time>2021-02-21T07:38:07Z</time>
      </trkpt>
      <trkpt lat="44.45633" lon="6.51637">
        <ele>2698</ele>
        <time>2021-02-21T07:38:08Z</time>
      </trkpt>
      <trkpt lat="44.45633" lon="6.51637">
        <ele>2698</ele>
        <time>2021-02-21T07:38:09Z</time>
      </trkpt>
      <trkpt lat="44.45633" lon="6.51637">
        <ele>2698</ele>
        <time>2021-02-21T07:38:10Z</time>
      </trkpt>
      <trkpt lat="44.45633" lon="6.51637">
        <ele>2698</ele>
        <time>2021-02-21T07:38:11Z</time>
      </trkpt>
      <trkpt lat="44.45633" lon="6.51637">
        <ele>2698</ele>
        <time>2021-02-21T07:38:12Z</time>
      </trkpt>
      <trkpt lat="44.45633" lon="6.51638">
        <ele>2698</ele>
        <time>2021-02-21T07:38:13Z</time>
      </trkpt>
      <trkpt lat="44.45633" lon="6.51639">
        <ele>2699</ele>
        <time>2021-02-21T07:38:14Z</time>
      </trkpt>
      <trkpt lat="44.45633" lon="6.51639">
        <ele>2699</ele>
        <time>2021-02-21T07:38:15Z</time>
      </trkpt>
      <trkpt lat="44.45633" lon="6.51639">
        <ele>2699</ele>
        <time>2021-02-21T07:38:16Z</time>
      </trkpt>
      <trkpt lat="44.45633" lon="6.51639">
        <ele>2699</ele>
        <time>2021-02-21T07:38:17Z</time>
      </trkpt>
      <trkpt lat="44.45633" lon="6.51639">
        <ele>2699</ele>
        <time>2021-02-21T07:38:18Z</time>
      </trkpt>
      <trkpt lat="44.45633" lon="6.51639">
        <ele>2699</ele>
        <time>2021-02-21T07:38:19Z</time>
      </trkpt>
      <trkpt lat="44.45633" lon="6.51639">
        <ele>2699</ele>
        <time>2021-02-21T07:38:20Z</time>
      </trkpt>
      <trkpt lat="44.45633" lon="6.51639">
        <ele>2699</ele>
        <time>2021-02-21T07:38:21Z</time>
      </trkpt>
      <trkpt lat="44.45633" lon="6.51639">
        <ele>2699</ele>
        <time>2021-02-21T07:38:22Z</time>
      </trkpt>
      <trkpt lat="44.45633" lon="6.51639">
        <ele>2699</ele>
        <time>2021-02-21T07:38:23Z</time>
      </trkpt>
      <trkpt lat="44.45633" lon="6.51639">
        <ele>2699</ele>
        <time>2021-02-21T07:38:24Z</time>
      </trkpt>
      <trkpt lat="44.45633" lon="6.51639">
        <ele>2699</ele>
        <time>2021-02-21T07:38:25Z</time>
      </trkpt>
      <trkpt lat="44.45633" lon="6.51639">
        <ele>2699</ele>
        <time>2021-02-21T07:38:26Z</time>
      </trkpt>
      <trkpt lat="44.45633" lon="6.51639">
        <ele>2699</ele>
        <time>2021-02-21T07:38:27Z</time>
      </trkpt>
      <trkpt lat="44.45633" lon="6.51639">
        <ele>2699</ele>
        <time>2021-02-21T07:38:28Z</time>
      </trkpt>
      <trkpt lat="44.45633" lon="6.51639">
        <ele>2699</ele>
        <time>2021-02-21T07:38:29Z</time>
      </trkpt>
      <trkpt lat="44.45633" lon="6.51639">
        <ele>2699</ele>
        <time>2021-02-21T07:38:30Z</time>
      </trkpt>
      <trkpt lat="44.45633" lon="6.51639">
        <ele>2699</ele>
        <time>2021-02-21T07:38:31Z</time>
      </trkpt>
      <trkpt lat="44.45633" lon="6.51639">
        <ele>2699</ele>
        <time>2021-02-21T07:38:32Z</time>
      </trkpt>
      <trkpt lat="44.45633" lon="6.51639">
        <ele>2699</ele>
        <time>2021-02-21T07:38:33Z</time>
      </trkpt>
      <trkpt lat="44.45633" lon="6.51639">
        <ele>2699</ele>
        <time>2021-02-21T07:38:34Z</time>
      </trkpt>
      <trkpt lat="44.45633" lon="6.51639">
        <ele>2699</ele>
        <time>2021-02-21T07:38:35Z</time>
      </trkpt>
      <trkpt lat="44.45633" lon="6.51639">
        <ele>2699</ele>
        <time>2021-02-21T07:38:36Z</time>
      </trkpt>
      <trkpt lat="44.45633" lon="6.51639">
        <ele>2699</ele>
        <time>2021-02-21T07:38:37Z</time>
      </trkpt>
      <trkpt lat="44.45633" lon="6.51639">
        <ele>2699</ele>
        <time>2021-02-21T07:38:38Z</time>
      </trkpt>
      <trkpt lat="44.45633" lon="6.51639">
        <ele>2699</ele>
        <time>2021-02-21T07:38:39Z</time>
      </trkpt>
      <trkpt lat="44.45633" lon="6.5164">
        <ele>2699</ele>
        <time>2021-02-21T07:38:40Z</time>
      </trkpt>
      <trkpt lat="44.45633" lon="6.5164">
        <ele>2699</ele>
        <time>2021-02-21T07:38:41Z</time>
      </trkpt>
      <trkpt lat="44.45634" lon="6.5164">
        <ele>2700</ele>
        <time>2021-02-21T07:38:42Z</time>
      </trkpt>
      <trkpt lat="44.45634" lon="6.5164">
        <ele>2700</ele>
        <time>2021-02-21T07:38:43Z</time>
      </trkpt>
      <trkpt lat="44.45634" lon="6.5164">
        <ele>2700</ele>
        <time>2021-02-21T07:38:44Z</time>
      </trkpt>
      <trkpt lat="44.45634" lon="6.5164">
        <ele>2700</ele>
        <time>2021-02-21T07:38:45Z</time>
      </trkpt>
      <trkpt lat="44.45634" lon="6.5164">
        <ele>2700</ele>
        <time>2021-02-21T07:38:46Z</time>
      </trkpt>
      <trkpt lat="44.45634" lon="6.5164">
        <ele>2700</ele>
        <time>2021-02-21T07:38:47Z</time>
      </trkpt>
      <trkpt lat="44.45634" lon="6.5164">
        <ele>2700</ele>
        <time>2021-02-21T07:38:48Z</time>
      </trkpt>
      <trkpt lat="44.45634" lon="6.5164">
        <ele>2700</ele>
        <time>2021-02-21T07:38:49Z</time>
      </trkpt>
      <trkpt lat="44.45634" lon="6.5164">
        <ele>2700</ele>
        <time>2021-02-21T07:38:50Z</time>
      </trkpt>
      <trkpt lat="44.45634" lon="6.5164">
        <ele>2700</ele>
        <time>2021-02-21T07:38:51Z</time>
      </trkpt>
      <trkpt lat="44.45634" lon="6.5164">
        <ele>2700</ele>
        <time>2021-02-21T07:38:52Z</time>
      </trkpt>
      <trkpt lat="44.45634" lon="6.5164">
        <ele>2700</ele>
        <time>2021-02-21T07:38:53Z</time>
      </trkpt>
      <trkpt lat="44.45634" lon="6.5164">
        <ele>2700</ele>
        <time>2021-02-21T07:38:54Z</time>
      </trkpt>
      <trkpt lat="44.45635" lon="6.51639">
        <ele>2700</ele>
        <time>2021-02-21T07:38:55Z</time>
      </trkpt>
      <trkpt lat="44.45635" lon="6.51638">
        <ele>2700</ele>
        <time>2021-02-21T07:38:56Z</time>
      </trkpt>
      <trkpt lat="44.45635" lon="6.51637">
        <ele>2700</ele>
        <time>2021-02-21T07:38:57Z</time>
      </trkpt>
      <trkpt lat="44.45635" lon="6.51637">
        <ele>2700</ele>
        <time>2021-02-21T07:38:58Z</time>
      </trkpt>
      <trkpt lat="44.45635" lon="6.51637">
        <ele>2701</ele>
        <time>2021-02-21T07:38:59Z</time>
      </trkpt>
      <trkpt lat="44.45635" lon="6.51637">
        <ele>2701</ele>
        <time>2021-02-21T07:39:00Z</time>
      </trkpt>
      <trkpt lat="44.45635" lon="6.51637">
        <ele>2701</ele>
        <time>2021-02-21T07:39:01Z</time>
      </trkpt>
      <trkpt lat="44.45635" lon="6.51637">
        <ele>2701</ele>
        <time>2021-02-21T07:39:02Z</time>
      </trkpt>
      <trkpt lat="44.45634" lon="6.51637">
        <ele>2701</ele>
        <time>2021-02-21T07:39:03Z</time>
      </trkpt>
      <trkpt lat="44.45634" lon="6.51637">
        <ele>2701</ele>
        <time>2021-02-21T07:39:04Z</time>
      </trkpt>
      <trkpt lat="44.45635" lon="6.51637">
        <ele>2701</ele>
        <time>2021-02-21T07:39:05Z</time>
      </trkpt>
      <trkpt lat="44.45634" lon="6.51637">
        <ele>2701</ele>
        <time>2021-02-21T07:39:06Z</time>
      </trkpt>
      <trkpt lat="44.45635" lon="6.51637">
        <ele>2701</ele>
        <time>2021-02-21T07:39:07Z</time>
      </trkpt>
      <trkpt lat="44.45635" lon="6.51636">
        <ele>2701</ele>
        <time>2021-02-21T07:39:08Z</time>
      </trkpt>
      <trkpt lat="44.45635" lon="6.51636">
        <ele>2701</ele>
        <time>2021-02-21T07:39:09Z</time>
      </trkpt>
      <trkpt lat="44.45635" lon="6.51636">
        <ele>2701</ele>
        <time>2021-02-21T07:39:10Z</time>
      </trkpt>
      <trkpt lat="44.45635" lon="6.51636">
        <ele>2701</ele>
        <time>2021-02-21T07:39:11Z</time>
      </trkpt>
      <trkpt lat="44.45635" lon="6.51636">
        <ele>2701</ele>
        <time>2021-02-21T07:39:12Z</time>
      </trkpt>
      <trkpt lat="44.45635" lon="6.51636">
        <ele>2701</ele>
        <time>2021-02-21T07:39:13Z</time>
      </trkpt>
      <trkpt lat="44.45635" lon="6.51636">
        <ele>2701</ele>
        <time>2021-02-21T07:39:14Z</time>
      </trkpt>
      <trkpt lat="44.45635" lon="6.51636">
        <ele>2701</ele>
        <time>2021-02-21T07:39:15Z</time>
      </trkpt>
      <trkpt lat="44.45635" lon="6.51636">
        <ele>2701</ele>
        <time>2021-02-21T07:39:16Z</time>
      </trkpt>
      <trkpt lat="44.45635" lon="6.51636">
        <ele>2701</ele>
        <time>2021-02-21T07:39:17Z</time>
      </trkpt>
      <trkpt lat="44.45635" lon="6.51636">
        <ele>2701</ele>
        <time>2021-02-21T07:39:18Z</time>
      </trkpt>
      <trkpt lat="44.45635" lon="6.51636">
        <ele>2701</ele>
        <time>2021-02-21T07:39:19Z</time>
      </trkpt>
      <trkpt lat="44.45635" lon="6.51636">
        <ele>2701</ele>
        <time>2021-02-21T07:39:20Z</time>
      </trkpt>
      <trkpt lat="44.45635" lon="6.51636">
        <ele>2701</ele>
        <time>2021-02-21T07:39:21Z</time>
      </trkpt>
      <trkpt lat="44.45635" lon="6.51636">
        <ele>2701</ele>
        <time>2021-02-21T07:39:22Z</time>
      </trkpt>
      <trkpt lat="44.45635" lon="6.51636">
        <ele>2701</ele>
        <time>2021-02-21T07:39:23Z</time>
      </trkpt>
      <trkpt lat="44.45635" lon="6.51636">
        <ele>2701</ele>
        <time>2021-02-21T07:39:24Z</time>
      </trkpt>
      <trkpt lat="44.45635" lon="6.51636">
        <ele>2701</ele>
        <time>2021-02-21T07:39:25Z</time>
      </trkpt>
      <trkpt lat="44.45635" lon="6.51636">
        <ele>2701</ele>
        <time>2021-02-21T07:39:26Z</time>
      </trkpt>
      <trkpt lat="44.45637" lon="6.51632">
        <ele>2703</ele>
        <time>2021-02-21T07:39:27Z</time>
      </trkpt>
      <trkpt lat="44.45637" lon="6.51632">
        <ele>2704</ele>
        <time>2021-02-21T07:39:28Z</time>
      </trkpt>
      <trkpt lat="44.45637" lon="6.51632">
        <ele>2704</ele>
        <time>2021-02-21T07:39:29Z</time>
      </trkpt>
      <trkpt lat="44.45637" lon="6.51631">
        <ele>2705</ele>
        <time>2021-02-21T07:39:30Z</time>
      </trkpt>
      <trkpt lat="44.45637" lon="6.51631">
        <ele>2705</ele>
        <time>2021-02-21T07:39:31Z</time>
      </trkpt>
      <trkpt lat="44.45637" lon="6.51631">
        <ele>2705</ele>
        <time>2021-02-21T07:39:32Z</time>
      </trkpt>
      <trkpt lat="44.45637" lon="6.51631">
        <ele>2705</ele>
        <time>2021-02-21T07:39:33Z</time>
      </trkpt>
      <trkpt lat="44.45637" lon="6.51631">
        <ele>2705</ele>
        <time>2021-02-21T07:39:34Z</time>
      </trkpt>
      <trkpt lat="44.45637" lon="6.51631">
        <ele>2705</ele>
        <time>2021-02-21T07:39:35Z</time>
      </trkpt>
      <trkpt lat="44.45637" lon="6.51631">
        <ele>2705</ele>
        <time>2021-02-21T07:39:36Z</time>
      </trkpt>
      <trkpt lat="44.45637" lon="6.51631">
        <ele>2705</ele>
        <time>2021-02-21T07:39:37Z</time>
      </trkpt>
      <trkpt lat="44.45637" lon="6.51631">
        <ele>2705</ele>
        <time>2021-02-21T07:39:38Z</time>
      </trkpt>
      <trkpt lat="44.45637" lon="6.51631">
        <ele>2705</ele>
        <time>2021-02-21T07:39:39Z</time>
      </trkpt>
      <trkpt lat="44.45637" lon="6.51631">
        <ele>2705</ele>
        <time>2021-02-21T07:39:40Z</time>
      </trkpt>
      <trkpt lat="44.45637" lon="6.51631">
        <ele>2705</ele>
        <time>2021-02-21T07:39:41Z</time>
      </trkpt>
      <trkpt lat="44.45637" lon="6.51631">
        <ele>2705</ele>
        <time>2021-02-21T07:39:42Z</time>
      </trkpt>
      <trkpt lat="44.45637" lon="6.51631">
        <ele>2705</ele>
        <time>2021-02-21T07:39:43Z</time>
      </trkpt>
      <trkpt lat="44.45637" lon="6.51631">
        <ele>2705</ele>
        <time>2021-02-21T07:39:44Z</time>
      </trkpt>
      <trkpt lat="44.45637" lon="6.51631">
        <ele>2705</ele>
        <time>2021-02-21T07:39:45Z</time>
      </trkpt>
      <trkpt lat="44.45637" lon="6.51631">
        <ele>2705</ele>
        <time>2021-02-21T07:39:46Z</time>
      </trkpt>
      <trkpt lat="44.45637" lon="6.51631">
        <ele>2705</ele>
        <time>2021-02-21T07:39:47Z</time>
      </trkpt>
      <trkpt lat="44.45637" lon="6.51631">
        <ele>2705</ele>
        <time>2021-02-21T07:39:48Z</time>
      </trkpt>
      <trkpt lat="44.45637" lon="6.51631">
        <ele>2705</ele>
        <time>2021-02-21T07:39:49Z</time>
      </trkpt>
      <trkpt lat="44.45637" lon="6.51631">
        <ele>2705</ele>
        <time>2021-02-21T07:39:50Z</time>
      </trkpt>
      <trkpt lat="44.45637" lon="6.51631">
        <ele>2705</ele>
        <time>2021-02-21T07:39:51Z</time>
      </trkpt>
      <trkpt lat="44.45637" lon="6.51631">
        <ele>2705</ele>
        <time>2021-02-21T07:39:52Z</time>
      </trkpt>
      <trkpt lat="44.45637" lon="6.51631">
        <ele>2705</ele>
        <time>2021-02-21T07:39:53Z</time>
      </trkpt>
      <trkpt lat="44.45637" lon="6.51631">
        <ele>2705</ele>
        <time>2021-02-21T07:39:54Z</time>
      </trkpt>
      <trkpt lat="44.45637" lon="6.51631">
        <ele>2705</ele>
        <time>2021-02-21T07:39:55Z</time>
      </trkpt>
      <trkpt lat="44.45637" lon="6.51631">
        <ele>2705</ele>
        <time>2021-02-21T07:39:56Z</time>
      </trkpt>
      <trkpt lat="44.45637" lon="6.51631">
        <ele>2705</ele>
        <time>2021-02-21T07:39:57Z</time>
      </trkpt>
      <trkpt lat="44.45637" lon="6.51631">
        <ele>2705</ele>
        <time>2021-02-21T07:39:58Z</time>
      </trkpt>
      <trkpt lat="44.45637" lon="6.51631">
        <ele>2705</ele>
        <time>2021-02-21T07:39:59Z</time>
      </trkpt>
      <trkpt lat="44.45637" lon="6.51631">
        <ele>2705</ele>
        <time>2021-02-21T07:40:00Z</time>
      </trkpt>
      <trkpt lat="44.45637" lon="6.51631">
        <ele>2705</ele>
        <time>2021-02-21T07:40:01Z</time>
      </trkpt>
      <trkpt lat="44.45637" lon="6.51631">
        <ele>2705</ele>
        <time>2021-02-21T07:40:02Z</time>
      </trkpt>
      <trkpt lat="44.45637" lon="6.51631">
        <ele>2705</ele>
        <time>2021-02-21T07:40:03Z</time>
      </trkpt>
      <trkpt lat="44.45637" lon="6.51631">
        <ele>2705</ele>
        <time>2021-02-21T07:40:04Z</time>
      </trkpt>
      <trkpt lat="44.45637" lon="6.51631">
        <ele>2705</ele>
        <time>2021-02-21T07:40:05Z</time>
      </trkpt>
      <trkpt lat="44.45637" lon="6.51631">
        <ele>2705</ele>
        <time>2021-02-21T07:40:06Z</time>
      </trkpt>
      <trkpt lat="44.45637" lon="6.51631">
        <ele>2705</ele>
        <time>2021-02-21T07:40:07Z</time>
      </trkpt>
      <trkpt lat="44.45637" lon="6.51631">
        <ele>2705</ele>
        <time>2021-02-21T07:40:08Z</time>
      </trkpt>
      <trkpt lat="44.45637" lon="6.51631">
        <ele>2705</ele>
        <time>2021-02-21T07:40:09Z</time>
      </trkpt>
      <trkpt lat="44.45637" lon="6.51631">
        <ele>2705</ele>
        <time>2021-02-21T07:40:10Z</time>
      </trkpt>
      <trkpt lat="44.45637" lon="6.51631">
        <ele>2705</ele>
        <time>2021-02-21T07:40:11Z</time>
      </trkpt>
      <trkpt lat="44.45637" lon="6.51631">
        <ele>2705</ele>
        <time>2021-02-21T07:40:12Z</time>
      </trkpt>
      <trkpt lat="44.45637" lon="6.51631">
        <ele>2705</ele>
        <time>2021-02-21T07:40:13Z</time>
      </trkpt>
      <trkpt lat="44.45637" lon="6.51631">
        <ele>2705</ele>
        <time>2021-02-21T07:40:14Z</time>
      </trkpt>
      <trkpt lat="44.45632" lon="6.51625">
        <ele>2708</ele>
        <time>2021-02-21T07:40:15Z</time>
      </trkpt>
      <trkpt lat="44.45632" lon="6.51624">
        <ele>2709</ele>
        <time>2021-02-21T07:40:16Z</time>
      </trkpt>
      <trkpt lat="44.45632" lon="6.51624">
        <ele>2709</ele>
        <time>2021-02-21T07:40:17Z</time>
      </trkpt>
      <trkpt lat="44.45632" lon="6.51623">
        <ele>2709</ele>
        <time>2021-02-21T07:40:18Z</time>
      </trkpt>
      <trkpt lat="44.45632" lon="6.51622">
        <ele>2709</ele>
        <time>2021-02-21T07:40:19Z</time>
      </trkpt>
      <trkpt lat="44.45632" lon="6.51622">
        <ele>2709</ele>
        <time>2021-02-21T07:40:20Z</time>
      </trkpt>
      <trkpt lat="44.45632" lon="6.51622">
        <ele>2710</ele>
        <time>2021-02-21T07:40:21Z</time>
      </trkpt>
      <trkpt lat="44.45632" lon="6.51621">
        <ele>2710</ele>
        <time>2021-02-21T07:40:22Z</time>
      </trkpt>
      <trkpt lat="44.45631" lon="6.51622">
        <ele>2710</ele>
        <time>2021-02-21T07:40:23Z</time>
      </trkpt>
      <trkpt lat="44.45631" lon="6.51622">
        <ele>2710</ele>
        <time>2021-02-21T07:40:24Z</time>
      </trkpt>
      <trkpt lat="44.45631" lon="6.51622">
        <ele>2710</ele>
        <time>2021-02-21T07:40:25Z</time>
      </trkpt>
      <trkpt lat="44.45631" lon="6.51622">
        <ele>2710</ele>
        <time>2021-02-21T07:40:26Z</time>
      </trkpt>
      <trkpt lat="44.4563" lon="6.51622">
        <ele>2710</ele>
        <time>2021-02-21T07:40:27Z</time>
      </trkpt>
      <trkpt lat="44.4563" lon="6.51623">
        <ele>2710</ele>
        <time>2021-02-21T07:40:28Z</time>
      </trkpt>
      <trkpt lat="44.4563" lon="6.51623">
        <ele>2710</ele>
        <time>2021-02-21T07:40:29Z</time>
      </trkpt>
      <trkpt lat="44.45631" lon="6.51622">
        <ele>2710</ele>
        <time>2021-02-21T07:40:30Z</time>
      </trkpt>
      <trkpt lat="44.45631" lon="6.51622">
        <ele>2710</ele>
        <time>2021-02-21T07:40:31Z</time>
      </trkpt>
      <trkpt lat="44.45631" lon="6.51622">
        <ele>2710</ele>
        <time>2021-02-21T07:40:32Z</time>
      </trkpt>
      <trkpt lat="44.45631" lon="6.51622">
        <ele>2710</ele>
        <time>2021-02-21T07:40:33Z</time>
      </trkpt>
      <trkpt lat="44.45631" lon="6.51622">
        <ele>2710</ele>
        <time>2021-02-21T07:40:34Z</time>
      </trkpt>
      <trkpt lat="44.45631" lon="6.51622">
        <ele>2710</ele>
        <time>2021-02-21T07:40:35Z</time>
      </trkpt>
      <trkpt lat="44.45631" lon="6.51622">
        <ele>2710</ele>
        <time>2021-02-21T07:40:36Z</time>
      </trkpt>
      <trkpt lat="44.45631" lon="6.51622">
        <ele>2710</ele>
        <time>2021-02-21T07:40:37Z</time>
      </trkpt>
      <trkpt lat="44.45631" lon="6.51622">
        <ele>2710</ele>
        <time>2021-02-21T07:40:38Z</time>
      </trkpt>
      <trkpt lat="44.45631" lon="6.51622">
        <ele>2710</ele>
        <time>2021-02-21T07:40:39Z</time>
      </trkpt>
      <trkpt lat="44.4563" lon="6.51622">
        <ele>2710</ele>
        <time>2021-02-21T07:40:40Z</time>
      </trkpt>
      <trkpt lat="44.4563" lon="6.51622">
        <ele>2710</ele>
        <time>2021-02-21T07:40:41Z</time>
      </trkpt>
      <trkpt lat="44.45629" lon="6.51622">
        <ele>2710</ele>
        <time>2021-02-21T07:40:42Z</time>
      </trkpt>
      <trkpt lat="44.45629" lon="6.51622">
        <ele>2710</ele>
        <time>2021-02-21T07:40:43Z</time>
      </trkpt>
      <trkpt lat="44.45629" lon="6.51622">
        <ele>2710</ele>
        <time>2021-02-21T07:40:44Z</time>
      </trkpt>
      <trkpt lat="44.4563" lon="6.51621">
        <ele>2710</ele>
        <time>2021-02-21T07:40:45Z</time>
      </trkpt>
      <trkpt lat="44.4563" lon="6.51621">
        <ele>2710</ele>
        <time>2021-02-21T07:40:46Z</time>
      </trkpt>
      <trkpt lat="44.4563" lon="6.5162">
        <ele>2710</ele>
        <time>2021-02-21T07:40:47Z</time>
      </trkpt>
      <trkpt lat="44.45631" lon="6.51619">
        <ele>2710</ele>
        <time>2021-02-21T07:40:48Z</time>
      </trkpt>
      <trkpt lat="44.45631" lon="6.51619">
        <ele>2710</ele>
        <time>2021-02-21T07:40:49Z</time>
      </trkpt>
      <trkpt lat="44.4563" lon="6.51619">
        <ele>2710</ele>
        <time>2021-02-21T07:40:50Z</time>
      </trkpt>
      <trkpt lat="44.4563" lon="6.51619">
        <ele>2710</ele>
        <time>2021-02-21T07:40:51Z</time>
      </trkpt>
      <trkpt lat="44.45629" lon="6.51619">
        <ele>2710</ele>
        <time>2021-02-21T07:40:52Z</time>
      </trkpt>
      <trkpt lat="44.45629" lon="6.51619">
        <ele>2710</ele>
        <time>2021-02-21T07:40:53Z</time>
      </trkpt>
      <trkpt lat="44.45629" lon="6.51619">
        <ele>2710</ele>
        <time>2021-02-21T07:40:54Z</time>
      </trkpt>
      <trkpt lat="44.45629" lon="6.51619">
        <ele>2710</ele>
        <time>2021-02-21T07:40:55Z</time>
      </trkpt>
      <trkpt lat="44.45629" lon="6.51619">
        <ele>2710</ele>
        <time>2021-02-21T07:40:56Z</time>
      </trkpt>
      <trkpt lat="44.45629" lon="6.51619">
        <ele>2710</ele>
        <time>2021-02-21T07:40:57Z</time>
      </trkpt>
      <trkpt lat="44.45629" lon="6.51619">
        <ele>2710</ele>
        <time>2021-02-21T07:40:58Z</time>
      </trkpt>
      <trkpt lat="44.45629" lon="6.51619">
        <ele>2710</ele>
        <time>2021-02-21T07:40:59Z</time>
      </trkpt>
      <trkpt lat="44.45629" lon="6.51619">
        <ele>2710</ele>
        <time>2021-02-21T07:41:00Z</time>
      </trkpt>
      <trkpt lat="44.45629" lon="6.51619">
        <ele>2710</ele>
        <time>2021-02-21T07:41:01Z</time>
      </trkpt>
      <trkpt lat="44.45629" lon="6.51619">
        <ele>2710</ele>
        <time>2021-02-21T07:41:02Z</time>
      </trkpt>
      <trkpt lat="44.45629" lon="6.51619">
        <ele>2710</ele>
        <time>2021-02-21T07:41:03Z</time>
      </trkpt>
      <trkpt lat="44.45629" lon="6.51619">
        <ele>2710</ele>
        <time>2021-02-21T07:41:04Z</time>
      </trkpt>
      <trkpt lat="44.45629" lon="6.51619">
        <ele>2710</ele>
        <time>2021-02-21T07:41:05Z</time>
      </trkpt>
      <trkpt lat="44.45629" lon="6.51619">
        <ele>2710</ele>
        <time>2021-02-21T07:41:06Z</time>
      </trkpt>
      <trkpt lat="44.45629" lon="6.51619">
        <ele>2710</ele>
        <time>2021-02-21T07:41:07Z</time>
      </trkpt>
      <trkpt lat="44.45629" lon="6.51619">
        <ele>2710</ele>
        <time>2021-02-21T07:41:08Z</time>
      </trkpt>
      <trkpt lat="44.45629" lon="6.51619">
        <ele>2710</ele>
        <time>2021-02-21T07:41:09Z</time>
      </trkpt>
      <trkpt lat="44.45629" lon="6.51619">
        <ele>2710</ele>
        <time>2021-02-21T07:41:10Z</time>
      </trkpt>
      <trkpt lat="44.45629" lon="6.51619">
        <ele>2710</ele>
        <time>2021-02-21T07:41:11Z</time>
      </trkpt>
      <trkpt lat="44.45629" lon="6.51619">
        <ele>2710</ele>
        <time>2021-02-21T07:41:12Z</time>
      </trkpt>
      <trkpt lat="44.45629" lon="6.51613">
        <ele>2712</ele>
        <time>2021-02-21T07:41:13Z</time>
      </trkpt>
      <trkpt lat="44.45629" lon="6.51613">
        <ele>2713</ele>
        <time>2021-02-21T07:41:14Z</time>
      </trkpt>
      <trkpt lat="44.45629" lon="6.51613">
        <ele>2713</ele>
        <time>2021-02-21T07:41:15Z</time>
      </trkpt>
      <trkpt lat="44.45629" lon="6.51613">
        <ele>2713</ele>
        <time>2021-02-21T07:41:16Z</time>
      </trkpt>
      <trkpt lat="44.45629" lon="6.51613">
        <ele>2714</ele>
        <time>2021-02-21T07:41:17Z</time>
      </trkpt>
      <trkpt lat="44.45629" lon="6.51613">
        <ele>2714</ele>
        <time>2021-02-21T07:41:18Z</time>
      </trkpt>
      <trkpt lat="44.45629" lon="6.51613">
        <ele>2714</ele>
        <time>2021-02-21T07:41:19Z</time>
      </trkpt>
      <trkpt lat="44.4563" lon="6.51612">
        <ele>2714</ele>
        <time>2021-02-21T07:41:20Z</time>
      </trkpt>
      <trkpt lat="44.4563" lon="6.51611">
        <ele>2714</ele>
        <time>2021-02-21T07:41:21Z</time>
      </trkpt>
      <trkpt lat="44.4563" lon="6.51611">
        <ele>2714</ele>
        <time>2021-02-21T07:41:22Z</time>
      </trkpt>
      <trkpt lat="44.4563" lon="6.51611">
        <ele>2714</ele>
        <time>2021-02-21T07:41:23Z</time>
      </trkpt>
      <trkpt lat="44.45631" lon="6.51611">
        <ele>2714</ele>
        <time>2021-02-21T07:41:24Z</time>
      </trkpt>
      <trkpt lat="44.45631" lon="6.51611">
        <ele>2715</ele>
        <time>2021-02-21T07:41:25Z</time>
      </trkpt>
      <trkpt lat="44.45631" lon="6.51611">
        <ele>2715</ele>
        <time>2021-02-21T07:41:26Z</time>
      </trkpt>
      <trkpt lat="44.45631" lon="6.51611">
        <ele>2715</ele>
        <time>2021-02-21T07:41:27Z</time>
      </trkpt>
      <trkpt lat="44.45631" lon="6.51611">
        <ele>2715</ele>
        <time>2021-02-21T07:41:28Z</time>
      </trkpt>
      <trkpt lat="44.45631" lon="6.51611">
        <ele>2715</ele>
        <time>2021-02-21T07:41:29Z</time>
      </trkpt>
      <trkpt lat="44.45632" lon="6.51609">
        <ele>2716</ele>
        <time>2021-02-21T07:41:30Z</time>
      </trkpt>
      <trkpt lat="44.45633" lon="6.51609">
        <ele>2716</ele>
        <time>2021-02-21T07:41:31Z</time>
      </trkpt>
      <trkpt lat="44.45633" lon="6.51609">
        <ele>2716</ele>
        <time>2021-02-21T07:41:32Z</time>
      </trkpt>
      <trkpt lat="44.45633" lon="6.51609">
        <ele>2716</ele>
        <time>2021-02-21T07:41:33Z</time>
      </trkpt>
      <trkpt lat="44.45633" lon="6.51608">
        <ele>2716</ele>
        <time>2021-02-21T07:41:34Z</time>
      </trkpt>
      <trkpt lat="44.45633" lon="6.51608">
        <ele>2716</ele>
        <time>2021-02-21T07:41:35Z</time>
      </trkpt>
      <trkpt lat="44.45633" lon="6.51608">
        <ele>2717</ele>
        <time>2021-02-21T07:41:36Z</time>
      </trkpt>
      <trkpt lat="44.45633" lon="6.51608">
        <ele>2717</ele>
        <time>2021-02-21T07:41:37Z</time>
      </trkpt>
      <trkpt lat="44.45633" lon="6.51608">
        <ele>2717</ele>
        <time>2021-02-21T07:41:38Z</time>
      </trkpt>
      <trkpt lat="44.45633" lon="6.51608">
        <ele>2717</ele>
        <time>2021-02-21T07:41:39Z</time>
      </trkpt>
      <trkpt lat="44.45634" lon="6.51607">
        <ele>2717</ele>
        <time>2021-02-21T07:41:40Z</time>
      </trkpt>
      <trkpt lat="44.45634" lon="6.51606">
        <ele>2717</ele>
        <time>2021-02-21T07:41:41Z</time>
      </trkpt>
      <trkpt lat="44.45634" lon="6.51606">
        <ele>2717</ele>
        <time>2021-02-21T07:41:42Z</time>
      </trkpt>
      <trkpt lat="44.45634" lon="6.51607">
        <ele>2717</ele>
        <time>2021-02-21T07:41:43Z</time>
      </trkpt>
      <trkpt lat="44.45634" lon="6.51608">
        <ele>2717</ele>
        <time>2021-02-21T07:41:44Z</time>
      </trkpt>
      <trkpt lat="44.45633" lon="6.51608">
        <ele>2717</ele>
        <time>2021-02-21T07:41:45Z</time>
      </trkpt>
      <trkpt lat="44.45633" lon="6.51608">
        <ele>2717</ele>
        <time>2021-02-21T07:41:46Z</time>
      </trkpt>
      <trkpt lat="44.45632" lon="6.51607">
        <ele>2717</ele>
        <time>2021-02-21T07:41:47Z</time>
      </trkpt>
      <trkpt lat="44.45632" lon="6.51607">
        <ele>2717</ele>
        <time>2021-02-21T07:41:48Z</time>
      </trkpt>
      <trkpt lat="44.45632" lon="6.51606">
        <ele>2717</ele>
        <time>2021-02-21T07:41:49Z</time>
      </trkpt>
      <trkpt lat="44.45632" lon="6.51607">
        <ele>2718</ele>
        <time>2021-02-21T07:41:50Z</time>
      </trkpt>
      <trkpt lat="44.45632" lon="6.51607">
        <ele>2718</ele>
        <time>2021-02-21T07:41:51Z</time>
      </trkpt>
      <trkpt lat="44.45631" lon="6.51606">
        <ele>2718</ele>
        <time>2021-02-21T07:41:52Z</time>
      </trkpt>
      <trkpt lat="44.45631" lon="6.51606">
        <ele>2718</ele>
        <time>2021-02-21T07:41:53Z</time>
      </trkpt>
      <trkpt lat="44.45632" lon="6.51605">
        <ele>2718</ele>
        <time>2021-02-21T07:41:54Z</time>
      </trkpt>
      <trkpt lat="44.45631" lon="6.51605">
        <ele>2718</ele>
        <time>2021-02-21T07:41:55Z</time>
      </trkpt>
      <trkpt lat="44.45631" lon="6.51605">
        <ele>2718</ele>
        <time>2021-02-21T07:41:56Z</time>
      </trkpt>
      <trkpt lat="44.45631" lon="6.51605">
        <ele>2718</ele>
        <time>2021-02-21T07:41:57Z</time>
      </trkpt>
      <trkpt lat="44.45631" lon="6.51605">
        <ele>2718</ele>
        <time>2021-02-21T07:41:58Z</time>
      </trkpt>
      <trkpt lat="44.45631" lon="6.51605">
        <ele>2718</ele>
        <time>2021-02-21T07:41:59Z</time>
      </trkpt>
      <trkpt lat="44.45631" lon="6.51605">
        <ele>2718</ele>
        <time>2021-02-21T07:42:00Z</time>
      </trkpt>
      <trkpt lat="44.45631" lon="6.51605">
        <ele>2718</ele>
        <time>2021-02-21T07:42:01Z</time>
      </trkpt>
      <trkpt lat="44.45631" lon="6.51605">
        <ele>2718</ele>
        <time>2021-02-21T07:42:02Z</time>
      </trkpt>
      <trkpt lat="44.45631" lon="6.51605">
        <ele>2718</ele>
        <time>2021-02-21T07:42:03Z</time>
      </trkpt>
      <trkpt lat="44.45631" lon="6.51605">
        <ele>2718</ele>
        <time>2021-02-21T07:42:04Z</time>
      </trkpt>
      <trkpt lat="44.45631" lon="6.51605">
        <ele>2718</ele>
        <time>2021-02-21T07:42:05Z</time>
      </trkpt>
      <trkpt lat="44.45631" lon="6.51605">
        <ele>2718</ele>
        <time>2021-02-21T07:42:06Z</time>
      </trkpt>
      <trkpt lat="44.45631" lon="6.51605">
        <ele>2718</ele>
        <time>2021-02-21T07:42:07Z</time>
      </trkpt>
      <trkpt lat="44.45631" lon="6.51605">
        <ele>2718</ele>
        <time>2021-02-21T07:42:08Z</time>
      </trkpt>
      <trkpt lat="44.45631" lon="6.51605">
        <ele>2718</ele>
        <time>2021-02-21T07:42:09Z</time>
      </trkpt>
      <trkpt lat="44.45631" lon="6.51605">
        <ele>2718</ele>
        <time>2021-02-21T07:42:10Z</time>
      </trkpt>
      <trkpt lat="44.45631" lon="6.51605">
        <ele>2718</ele>
        <time>2021-02-21T07:42:11Z</time>
      </trkpt>
      <trkpt lat="44.45631" lon="6.51605">
        <ele>2718</ele>
        <time>2021-02-21T07:42:12Z</time>
      </trkpt>
      <trkpt lat="44.45631" lon="6.51605">
        <ele>2718</ele>
        <time>2021-02-21T07:42:13Z</time>
      </trkpt>
      <trkpt lat="44.45631" lon="6.51605">
        <ele>2718</ele>
        <time>2021-02-21T07:42:14Z</time>
      </trkpt>
      <trkpt lat="44.45631" lon="6.51605">
        <ele>2718</ele>
        <time>2021-02-21T07:42:15Z</time>
      </trkpt>
      <trkpt lat="44.45631" lon="6.51605">
        <ele>2719</ele>
        <time>2021-02-21T07:42:16Z</time>
      </trkpt>
      <trkpt lat="44.45631" lon="6.51605">
        <ele>2719</ele>
        <time>2021-02-21T07:42:17Z</time>
      </trkpt>
      <trkpt lat="44.45631" lon="6.51601">
        <ele>2718</ele>
        <time>2021-02-21T07:42:18Z</time>
      </trkpt>
      <trkpt lat="44.4563" lon="6.51601">
        <ele>2718</ele>
        <time>2021-02-21T07:42:19Z</time>
      </trkpt>
      <trkpt lat="44.4563" lon="6.51602">
        <ele>2718</ele>
        <time>2021-02-21T07:42:20Z</time>
      </trkpt>
      <trkpt lat="44.4563" lon="6.51602">
        <ele>2718</ele>
        <time>2021-02-21T07:42:21Z</time>
      </trkpt>
      <trkpt lat="44.4563" lon="6.51602">
        <ele>2718</ele>
        <time>2021-02-21T07:42:22Z</time>
      </trkpt>
      <trkpt lat="44.4563" lon="6.51602">
        <ele>2719</ele>
        <time>2021-02-21T07:42:23Z</time>
      </trkpt>
      <trkpt lat="44.4563" lon="6.51602">
        <ele>2719</ele>
        <time>2021-02-21T07:42:24Z</time>
      </trkpt>
      <trkpt lat="44.4563" lon="6.51602">
        <ele>2719</ele>
        <time>2021-02-21T07:42:25Z</time>
      </trkpt>
      <trkpt lat="44.4563" lon="6.51602">
        <ele>2719</ele>
        <time>2021-02-21T07:42:26Z</time>
      </trkpt>
      <trkpt lat="44.4563" lon="6.51602">
        <ele>2719</ele>
        <time>2021-02-21T07:42:27Z</time>
      </trkpt>
      <trkpt lat="44.4563" lon="6.51602">
        <ele>2719</ele>
        <time>2021-02-21T07:42:28Z</time>
      </trkpt>
      <trkpt lat="44.4563" lon="6.51602">
        <ele>2719</ele>
        <time>2021-02-21T07:42:29Z</time>
      </trkpt>
      <trkpt lat="44.4563" lon="6.51602">
        <ele>2719</ele>
        <time>2021-02-21T07:42:30Z</time>
      </trkpt>
      <trkpt lat="44.4563" lon="6.51602">
        <ele>2719</ele>
        <time>2021-02-21T07:42:31Z</time>
      </trkpt>
      <trkpt lat="44.4563" lon="6.51602">
        <ele>2719</ele>
        <time>2021-02-21T07:42:32Z</time>
      </trkpt>
      <trkpt lat="44.4563" lon="6.51602">
        <ele>2719</ele>
        <time>2021-02-21T07:42:33Z</time>
      </trkpt>
      <trkpt lat="44.4563" lon="6.51602">
        <ele>2719</ele>
        <time>2021-02-21T07:42:34Z</time>
      </trkpt>
      <trkpt lat="44.4563" lon="6.51602">
        <ele>2719</ele>
        <time>2021-02-21T07:42:35Z</time>
      </trkpt>
      <trkpt lat="44.4563" lon="6.51602">
        <ele>2719</ele>
        <time>2021-02-21T07:42:36Z</time>
      </trkpt>
      <trkpt lat="44.4563" lon="6.51602">
        <ele>2719</ele>
        <time>2021-02-21T07:42:37Z</time>
      </trkpt>
      <trkpt lat="44.4563" lon="6.51602">
        <ele>2719</ele>
        <time>2021-02-21T07:42:38Z</time>
      </trkpt>
      <trkpt lat="44.4563" lon="6.51602">
        <ele>2719</ele>
        <time>2021-02-21T07:42:39Z</time>
      </trkpt>
      <trkpt lat="44.4563" lon="6.51602">
        <ele>2719</ele>
        <time>2021-02-21T07:42:40Z</time>
      </trkpt>
      <trkpt lat="44.4563" lon="6.51602">
        <ele>2719</ele>
        <time>2021-02-21T07:42:41Z</time>
      </trkpt>
      <trkpt lat="44.4563" lon="6.51602">
        <ele>2719</ele>
        <time>2021-02-21T07:42:42Z</time>
      </trkpt>
      <trkpt lat="44.4563" lon="6.51602">
        <ele>2719</ele>
        <time>2021-02-21T07:42:43Z</time>
      </trkpt>
      <trkpt lat="44.4563" lon="6.51602">
        <ele>2719</ele>
        <time>2021-02-21T07:42:44Z</time>
      </trkpt>
      <trkpt lat="44.4563" lon="6.51602">
        <ele>2719</ele>
        <time>2021-02-21T07:42:45Z</time>
      </trkpt>
      <trkpt lat="44.4563" lon="6.51602">
        <ele>2719</ele>
        <time>2021-02-21T07:42:46Z</time>
      </trkpt>
      <trkpt lat="44.4563" lon="6.51602">
        <ele>2719</ele>
        <time>2021-02-21T07:42:47Z</time>
      </trkpt>
      <trkpt lat="44.4563" lon="6.51602">
        <ele>2719</ele>
        <time>2021-02-21T07:42:48Z</time>
      </trkpt>
      <trkpt lat="44.4563" lon="6.51602">
        <ele>2719</ele>
        <time>2021-02-21T07:42:49Z</time>
      </trkpt>
      <trkpt lat="44.4563" lon="6.51602">
        <ele>2719</ele>
        <time>2021-02-21T07:42:50Z</time>
      </trkpt>
      <trkpt lat="44.4563" lon="6.51602">
        <ele>2719</ele>
        <time>2021-02-21T07:42:51Z</time>
      </trkpt>
      <trkpt lat="44.4563" lon="6.51602">
        <ele>2719</ele>
        <time>2021-02-21T07:42:52Z</time>
      </trkpt>
      <trkpt lat="44.4563" lon="6.51602">
        <ele>2719</ele>
        <time>2021-02-21T07:42:53Z</time>
      </trkpt>
      <trkpt lat="44.4563" lon="6.51602">
        <ele>2719</ele>
        <time>2021-02-21T07:42:54Z</time>
      </trkpt>
      <trkpt lat="44.4563" lon="6.51602">
        <ele>2719</ele>
        <time>2021-02-21T07:42:55Z</time>
      </trkpt>
      <trkpt lat="44.4563" lon="6.51602">
        <ele>2719</ele>
        <time>2021-02-21T07:42:56Z</time>
      </trkpt>
      <trkpt lat="44.4563" lon="6.51602">
        <ele>2719</ele>
        <time>2021-02-21T07:42:57Z</time>
      </trkpt>
      <trkpt lat="44.4563" lon="6.51602">
        <ele>2719</ele>
        <time>2021-02-21T07:42:58Z</time>
      </trkpt>
      <trkpt lat="44.4563" lon="6.51602">
        <ele>2719</ele>
        <time>2021-02-21T07:42:59Z</time>
      </trkpt>
      <trkpt lat="44.4563" lon="6.51602">
        <ele>2719</ele>
        <time>2021-02-21T07:43:00Z</time>
      </trkpt>
      <trkpt lat="44.4563" lon="6.51602">
        <ele>2719</ele>
        <time>2021-02-21T07:43:01Z</time>
      </trkpt>
      <trkpt lat="44.4563" lon="6.51602">
        <ele>2719</ele>
        <time>2021-02-21T07:43:02Z</time>
      </trkpt>
      <trkpt lat="44.4563" lon="6.51602">
        <ele>2719</ele>
        <time>2021-02-21T07:43:03Z</time>
      </trkpt>
      <trkpt lat="44.4563" lon="6.51602">
        <ele>2719</ele>
        <time>2021-02-21T07:43:04Z</time>
      </trkpt>
      <trkpt lat="44.4563" lon="6.51602">
        <ele>2719</ele>
        <time>2021-02-21T07:43:05Z</time>
      </trkpt>
      <trkpt lat="44.4563" lon="6.51602">
        <ele>2719</ele>
        <time>2021-02-21T07:43:06Z</time>
      </trkpt>
      <trkpt lat="44.4563" lon="6.51602">
        <ele>2719</ele>
        <time>2021-02-21T07:43:07Z</time>
      </trkpt>
      <trkpt lat="44.4563" lon="6.51602">
        <ele>2719</ele>
        <time>2021-02-21T07:43:08Z</time>
      </trkpt>
      <trkpt lat="44.4563" lon="6.51602">
        <ele>2719</ele>
        <time>2021-02-21T07:43:09Z</time>
      </trkpt>
      <trkpt lat="44.4563" lon="6.51602">
        <ele>2719</ele>
        <time>2021-02-21T07:43:10Z</time>
      </trkpt>
      <trkpt lat="44.4563" lon="6.51602">
        <ele>2719</ele>
        <time>2021-02-21T07:43:11Z</time>
      </trkpt>
      <trkpt lat="44.4563" lon="6.51594">
        <ele>2722</ele>
        <time>2021-02-21T07:43:12Z</time>
      </trkpt>
      <trkpt lat="44.4563" lon="6.51594">
        <ele>2723</ele>
        <time>2021-02-21T07:43:13Z</time>
      </trkpt>
      <trkpt lat="44.4563" lon="6.51594">
        <ele>2724</ele>
        <time>2021-02-21T07:43:14Z</time>
      </trkpt>
      <trkpt lat="44.45629" lon="6.51594">
        <ele>2724</ele>
        <time>2021-02-21T07:43:15Z</time>
      </trkpt>
      <trkpt lat="44.45629" lon="6.51594">
        <ele>2724</ele>
        <time>2021-02-21T07:43:16Z</time>
      </trkpt>
      <trkpt lat="44.45629" lon="6.51594">
        <ele>2724</ele>
        <time>2021-02-21T07:43:17Z</time>
      </trkpt>
      <trkpt lat="44.45629" lon="6.51594">
        <ele>2724</ele>
        <time>2021-02-21T07:43:18Z</time>
      </trkpt>
      <trkpt lat="44.45629" lon="6.51594">
        <ele>2725</ele>
        <time>2021-02-21T07:43:19Z</time>
      </trkpt>
      <trkpt lat="44.45629" lon="6.51594">
        <ele>2725</ele>
        <time>2021-02-21T07:43:20Z</time>
      </trkpt>
      <trkpt lat="44.45629" lon="6.51594">
        <ele>2725</ele>
        <time>2021-02-21T07:43:21Z</time>
      </trkpt>
      <trkpt lat="44.45629" lon="6.51594">
        <ele>2725</ele>
        <time>2021-02-21T07:43:22Z</time>
      </trkpt>
      <trkpt lat="44.45629" lon="6.51594">
        <ele>2725</ele>
        <time>2021-02-21T07:43:23Z</time>
      </trkpt>
      <trkpt lat="44.45629" lon="6.51594">
        <ele>2725</ele>
        <time>2021-02-21T07:43:24Z</time>
      </trkpt>
      <trkpt lat="44.45629" lon="6.51594">
        <ele>2725</ele>
        <time>2021-02-21T07:43:25Z</time>
      </trkpt>
      <trkpt lat="44.45629" lon="6.51594">
        <ele>2725</ele>
        <time>2021-02-21T07:43:26Z</time>
      </trkpt>
      <trkpt lat="44.45629" lon="6.51594">
        <ele>2725</ele>
        <time>2021-02-21T07:43:27Z</time>
      </trkpt>
      <trkpt lat="44.45629" lon="6.51594">
        <ele>2725</ele>
        <time>2021-02-21T07:43:28Z</time>
      </trkpt>
      <trkpt lat="44.45629" lon="6.51594">
        <ele>2725</ele>
        <time>2021-02-21T07:43:29Z</time>
      </trkpt>
      <trkpt lat="44.45629" lon="6.51594">
        <ele>2725</ele>
        <time>2021-02-21T07:43:30Z</time>
      </trkpt>
      <trkpt lat="44.45629" lon="6.51594">
        <ele>2725</ele>
        <time>2021-02-21T07:43:31Z</time>
      </trkpt>
      <trkpt lat="44.45629" lon="6.51594">
        <ele>2725</ele>
        <time>2021-02-21T07:43:32Z</time>
      </trkpt>
      <trkpt lat="44.45629" lon="6.51594">
        <ele>2725</ele>
        <time>2021-02-21T07:43:33Z</time>
      </trkpt>
      <trkpt lat="44.45629" lon="6.51594">
        <ele>2725</ele>
        <time>2021-02-21T07:43:34Z</time>
      </trkpt>
      <trkpt lat="44.45629" lon="6.51594">
        <ele>2725</ele>
        <time>2021-02-21T07:43:35Z</time>
      </trkpt>
      <trkpt lat="44.45629" lon="6.51594">
        <ele>2725</ele>
        <time>2021-02-21T07:43:36Z</time>
      </trkpt>
      <trkpt lat="44.45629" lon="6.51594">
        <ele>2725</ele>
        <time>2021-02-21T07:43:37Z</time>
      </trkpt>
      <trkpt lat="44.45629" lon="6.51594">
        <ele>2725</ele>
        <time>2021-02-21T07:43:38Z</time>
      </trkpt>
      <trkpt lat="44.45629" lon="6.51594">
        <ele>2725</ele>
        <time>2021-02-21T07:43:39Z</time>
      </trkpt>
      <trkpt lat="44.45629" lon="6.51594">
        <ele>2725</ele>
        <time>2021-02-21T07:43:40Z</time>
      </trkpt>
      <trkpt lat="44.45629" lon="6.51594">
        <ele>2725</ele>
        <time>2021-02-21T07:43:41Z</time>
      </trkpt>
      <trkpt lat="44.45629" lon="6.51594">
        <ele>2725</ele>
        <time>2021-02-21T07:43:42Z</time>
      </trkpt>
      <trkpt lat="44.45629" lon="6.51594">
        <ele>2725</ele>
        <time>2021-02-21T07:43:43Z</time>
      </trkpt>
      <trkpt lat="44.45629" lon="6.51594">
        <ele>2725</ele>
        <time>2021-02-21T07:43:44Z</time>
      </trkpt>
      <trkpt lat="44.45629" lon="6.51594">
        <ele>2725</ele>
        <time>2021-02-21T07:43:45Z</time>
      </trkpt>
      <trkpt lat="44.45629" lon="6.51594">
        <ele>2725</ele>
        <time>2021-02-21T07:43:46Z</time>
      </trkpt>
      <trkpt lat="44.45629" lon="6.51594">
        <ele>2725</ele>
        <time>2021-02-21T07:43:47Z</time>
      </trkpt>
      <trkpt lat="44.45629" lon="6.51594">
        <ele>2725</ele>
        <time>2021-02-21T07:43:48Z</time>
      </trkpt>
      <trkpt lat="44.45629" lon="6.51594">
        <ele>2725</ele>
        <time>2021-02-21T07:43:49Z</time>
      </trkpt>
      <trkpt lat="44.45629" lon="6.51594">
        <ele>2725</ele>
        <time>2021-02-21T07:43:50Z</time>
      </trkpt>
      <trkpt lat="44.45629" lon="6.51594">
        <ele>2725</ele>
        <time>2021-02-21T07:43:51Z</time>
      </trkpt>
      <trkpt lat="44.45629" lon="6.51594">
        <ele>2725</ele>
        <time>2021-02-21T07:43:52Z</time>
      </trkpt>
      <trkpt lat="44.45629" lon="6.51594">
        <ele>2725</ele>
        <time>2021-02-21T07:43:53Z</time>
      </trkpt>
      <trkpt lat="44.45629" lon="6.51594">
        <ele>2725</ele>
        <time>2021-02-21T07:43:54Z</time>
      </trkpt>
      <trkpt lat="44.45629" lon="6.51594">
        <ele>2725</ele>
        <time>2021-02-21T07:43:55Z</time>
      </trkpt>
      <trkpt lat="44.45629" lon="6.51594">
        <ele>2725</ele>
        <time>2021-02-21T07:43:56Z</time>
      </trkpt>
      <trkpt lat="44.45631" lon="6.5159">
        <ele>2728</ele>
        <time>2021-02-21T07:43:57Z</time>
      </trkpt>
      <trkpt lat="44.45631" lon="6.5159">
        <ele>2729</ele>
        <time>2021-02-21T07:43:58Z</time>
      </trkpt>
      <trkpt lat="44.45632" lon="6.51589">
        <ele>2730</ele>
        <time>2021-02-21T07:43:59Z</time>
      </trkpt>
      <trkpt lat="44.45632" lon="6.51589">
        <ele>2730</ele>
        <time>2021-02-21T07:44:00Z</time>
      </trkpt>
      <trkpt lat="44.45632" lon="6.51589">
        <ele>2730</ele>
        <time>2021-02-21T07:44:01Z</time>
      </trkpt>
      <trkpt lat="44.45632" lon="6.51589">
        <ele>2730</ele>
        <time>2021-02-21T07:44:02Z</time>
      </trkpt>
      <trkpt lat="44.45632" lon="6.51589">
        <ele>2731</ele>
        <time>2021-02-21T07:44:03Z</time>
      </trkpt>
      <trkpt lat="44.45632" lon="6.51589">
        <ele>2731</ele>
        <time>2021-02-21T07:44:04Z</time>
      </trkpt>
      <trkpt lat="44.45632" lon="6.51589">
        <ele>2731</ele>
        <time>2021-02-21T07:44:05Z</time>
      </trkpt>
      <trkpt lat="44.45632" lon="6.51589">
        <ele>2731</ele>
        <time>2021-02-21T07:44:06Z</time>
      </trkpt>
      <trkpt lat="44.45632" lon="6.51589">
        <ele>2731</ele>
        <time>2021-02-21T07:44:07Z</time>
      </trkpt>
      <trkpt lat="44.45632" lon="6.51589">
        <ele>2731</ele>
        <time>2021-02-21T07:44:08Z</time>
      </trkpt>
      <trkpt lat="44.45632" lon="6.51589">
        <ele>2731</ele>
        <time>2021-02-21T07:44:09Z</time>
      </trkpt>
      <trkpt lat="44.45632" lon="6.51589">
        <ele>2731</ele>
        <time>2021-02-21T07:44:10Z</time>
      </trkpt>
      <trkpt lat="44.45632" lon="6.51589">
        <ele>2731</ele>
        <time>2021-02-21T07:44:11Z</time>
      </trkpt>
      <trkpt lat="44.45632" lon="6.51589">
        <ele>2731</ele>
        <time>2021-02-21T07:44:12Z</time>
      </trkpt>
      <trkpt lat="44.45632" lon="6.51589">
        <ele>2731</ele>
        <time>2021-02-21T07:44:13Z</time>
      </trkpt>
      <trkpt lat="44.45632" lon="6.51589">
        <ele>2731</ele>
        <time>2021-02-21T07:44:14Z</time>
      </trkpt>
      <trkpt lat="44.45632" lon="6.51589">
        <ele>2731</ele>
        <time>2021-02-21T07:44:15Z</time>
      </trkpt>
      <trkpt lat="44.45632" lon="6.51589">
        <ele>2731</ele>
        <time>2021-02-21T07:44:16Z</time>
      </trkpt>
      <trkpt lat="44.45632" lon="6.51589">
        <ele>2731</ele>
        <time>2021-02-21T07:44:17Z</time>
      </trkpt>
      <trkpt lat="44.45632" lon="6.51589">
        <ele>2731</ele>
        <time>2021-02-21T07:44:18Z</time>
      </trkpt>
      <trkpt lat="44.45632" lon="6.51589">
        <ele>2731</ele>
        <time>2021-02-21T07:44:19Z</time>
      </trkpt>
      <trkpt lat="44.45632" lon="6.51589">
        <ele>2731</ele>
        <time>2021-02-21T07:44:20Z</time>
      </trkpt>
      <trkpt lat="44.4563" lon="6.51584">
        <ele>2732</ele>
        <time>2021-02-21T07:44:21Z</time>
      </trkpt>
      <trkpt lat="44.4563" lon="6.51583">
        <ele>2732</ele>
        <time>2021-02-21T07:44:22Z</time>
      </trkpt>
      <trkpt lat="44.45631" lon="6.51583">
        <ele>2733</ele>
        <time>2021-02-21T07:44:23Z</time>
      </trkpt>
      <trkpt lat="44.45631" lon="6.51582">
        <ele>2733</ele>
        <time>2021-02-21T07:44:24Z</time>
      </trkpt>
      <trkpt lat="44.4563" lon="6.51582">
        <ele>2733</ele>
        <time>2021-02-21T07:44:25Z</time>
      </trkpt>
      <trkpt lat="44.4563" lon="6.51582">
        <ele>2733</ele>
        <time>2021-02-21T07:44:26Z</time>
      </trkpt>
      <trkpt lat="44.4563" lon="6.51583">
        <ele>2733</ele>
        <time>2021-02-21T07:44:27Z</time>
      </trkpt>
      <trkpt lat="44.45631" lon="6.51584">
        <ele>2734</ele>
        <time>2021-02-21T07:44:28Z</time>
      </trkpt>
      <trkpt lat="44.45631" lon="6.51584">
        <ele>2734</ele>
        <time>2021-02-21T07:44:29Z</time>
      </trkpt>
      <trkpt lat="44.45631" lon="6.51584">
        <ele>2734</ele>
        <time>2021-02-21T07:44:30Z</time>
      </trkpt>
      <trkpt lat="44.45632" lon="6.51584">
        <ele>2734</ele>
        <time>2021-02-21T07:44:31Z</time>
      </trkpt>
      <trkpt lat="44.45632" lon="6.51584">
        <ele>2734</ele>
        <time>2021-02-21T07:44:32Z</time>
      </trkpt>
      <trkpt lat="44.45632" lon="6.51585">
        <ele>2734</ele>
        <time>2021-02-21T07:44:33Z</time>
      </trkpt>
      <trkpt lat="44.45631" lon="6.51585">
        <ele>2734</ele>
        <time>2021-02-21T07:44:34Z</time>
      </trkpt>
      <trkpt lat="44.45631" lon="6.51585">
        <ele>2734</ele>
        <time>2021-02-21T07:44:35Z</time>
      </trkpt>
      <trkpt lat="44.45631" lon="6.51585">
        <ele>2735</ele>
        <time>2021-02-21T07:44:36Z</time>
      </trkpt>
      <trkpt lat="44.45631" lon="6.51585">
        <ele>2735</ele>
        <time>2021-02-21T07:44:37Z</time>
      </trkpt>
      <trkpt lat="44.45631" lon="6.51585">
        <ele>2735</ele>
        <time>2021-02-21T07:44:38Z</time>
      </trkpt>
      <trkpt lat="44.45631" lon="6.51585">
        <ele>2735</ele>
        <time>2021-02-21T07:44:39Z</time>
      </trkpt>
      <trkpt lat="44.45631" lon="6.51585">
        <ele>2735</ele>
        <time>2021-02-21T07:44:40Z</time>
      </trkpt>
      <trkpt lat="44.45631" lon="6.51585">
        <ele>2735</ele>
        <time>2021-02-21T07:44:41Z</time>
      </trkpt>
      <trkpt lat="44.45631" lon="6.51585">
        <ele>2735</ele>
        <time>2021-02-21T07:44:42Z</time>
      </trkpt>
      <trkpt lat="44.45631" lon="6.51585">
        <ele>2735</ele>
        <time>2021-02-21T07:44:43Z</time>
      </trkpt>
      <trkpt lat="44.45631" lon="6.51585">
        <ele>2735</ele>
        <time>2021-02-21T07:44:44Z</time>
      </trkpt>
      <trkpt lat="44.45631" lon="6.51585">
        <ele>2735</ele>
        <time>2021-02-21T07:44:45Z</time>
      </trkpt>
      <trkpt lat="44.45631" lon="6.51585">
        <ele>2735</ele>
        <time>2021-02-21T07:44:46Z</time>
      </trkpt>
      <trkpt lat="44.45631" lon="6.51585">
        <ele>2735</ele>
        <time>2021-02-21T07:44:47Z</time>
      </trkpt>
      <trkpt lat="44.45631" lon="6.51585">
        <ele>2735</ele>
        <time>2021-02-21T07:44:48Z</time>
      </trkpt>
      <trkpt lat="44.45631" lon="6.51585">
        <ele>2735</ele>
        <time>2021-02-21T07:44:49Z</time>
      </trkpt>
      <trkpt lat="44.45631" lon="6.51585">
        <ele>2735</ele>
        <time>2021-02-21T07:44:50Z</time>
      </trkpt>
      <trkpt lat="44.45631" lon="6.51585">
        <ele>2735</ele>
        <time>2021-02-21T07:44:51Z</time>
      </trkpt>
      <trkpt lat="44.45631" lon="6.51585">
        <ele>2735</ele>
        <time>2021-02-21T07:44:52Z</time>
      </trkpt>
      <trkpt lat="44.45631" lon="6.51585">
        <ele>2735</ele>
        <time>2021-02-21T07:44:53Z</time>
      </trkpt>
      <trkpt lat="44.45631" lon="6.51585">
        <ele>2735</ele>
        <time>2021-02-21T07:44:54Z</time>
      </trkpt>
      <trkpt lat="44.45631" lon="6.51585">
        <ele>2735</ele>
        <time>2021-02-21T07:44:55Z</time>
      </trkpt>
      <trkpt lat="44.45631" lon="6.51585">
        <ele>2735</ele>
        <time>2021-02-21T07:44:56Z</time>
      </trkpt>
      <trkpt lat="44.45631" lon="6.51585">
        <ele>2735</ele>
        <time>2021-02-21T07:44:57Z</time>
      </trkpt>
      <trkpt lat="44.45631" lon="6.51585">
        <ele>2736</ele>
        <time>2021-02-21T07:44:58Z</time>
      </trkpt>
      <trkpt lat="44.45631" lon="6.51585">
        <ele>2736</ele>
        <time>2021-02-21T07:44:59Z</time>
      </trkpt>
      <trkpt lat="44.45631" lon="6.51585">
        <ele>2736</ele>
        <time>2021-02-21T07:45:00Z</time>
      </trkpt>
      <trkpt lat="44.45631" lon="6.51585">
        <ele>2736</ele>
        <time>2021-02-21T07:45:01Z</time>
      </trkpt>
      <trkpt lat="44.45631" lon="6.51585">
        <ele>2736</ele>
        <time>2021-02-21T07:45:02Z</time>
      </trkpt>
      <trkpt lat="44.45631" lon="6.51585">
        <ele>2736</ele>
        <time>2021-02-21T07:45:03Z</time>
      </trkpt>
      <trkpt lat="44.45631" lon="6.51585">
        <ele>2736</ele>
        <time>2021-02-21T07:45:04Z</time>
      </trkpt>
      <trkpt lat="44.45631" lon="6.51585">
        <ele>2736</ele>
        <time>2021-02-21T07:45:05Z</time>
      </trkpt>
      <trkpt lat="44.45631" lon="6.51585">
        <ele>2736</ele>
        <time>2021-02-21T07:45:06Z</time>
      </trkpt>
      <trkpt lat="44.45631" lon="6.51585">
        <ele>2736</ele>
        <time>2021-02-21T07:45:07Z</time>
      </trkpt>
      <trkpt lat="44.45631" lon="6.51585">
        <ele>2736</ele>
        <time>2021-02-21T07:45:08Z</time>
      </trkpt>
      <trkpt lat="44.45631" lon="6.51585">
        <ele>2736</ele>
        <time>2021-02-21T07:45:09Z</time>
      </trkpt>
      <trkpt lat="44.45631" lon="6.51585">
        <ele>2736</ele>
        <time>2021-02-21T07:45:10Z</time>
      </trkpt>
      <trkpt lat="44.45631" lon="6.51585">
        <ele>2736</ele>
        <time>2021-02-21T07:45:11Z</time>
      </trkpt>
      <trkpt lat="44.45631" lon="6.51585">
        <ele>2736</ele>
        <time>2021-02-21T07:45:12Z</time>
      </trkpt>
      <trkpt lat="44.45631" lon="6.51585">
        <ele>2736</ele>
        <time>2021-02-21T07:45:13Z</time>
      </trkpt>
      <trkpt lat="44.45631" lon="6.51585">
        <ele>2736</ele>
        <time>2021-02-21T07:45:14Z</time>
      </trkpt>
      <trkpt lat="44.45631" lon="6.51585">
        <ele>2736</ele>
        <time>2021-02-21T07:45:15Z</time>
      </trkpt>
      <trkpt lat="44.45631" lon="6.51585">
        <ele>2736</ele>
        <time>2021-02-21T07:45:16Z</time>
      </trkpt>
      <trkpt lat="44.45631" lon="6.51585">
        <ele>2736</ele>
        <time>2021-02-21T07:45:17Z</time>
      </trkpt>
      <trkpt lat="44.45631" lon="6.51585">
        <ele>2736</ele>
        <time>2021-02-21T07:45:18Z</time>
      </trkpt>
      <trkpt lat="44.45631" lon="6.51585">
        <ele>2736</ele>
        <time>2021-02-21T07:45:19Z</time>
      </trkpt>
      <trkpt lat="44.45631" lon="6.51585">
        <ele>2736</ele>
        <time>2021-02-21T07:45:20Z</time>
      </trkpt>
      <trkpt lat="44.45631" lon="6.51585">
        <ele>2736</ele>
        <time>2021-02-21T07:45:21Z</time>
      </trkpt>
      <trkpt lat="44.45631" lon="6.51585">
        <ele>2736</ele>
        <time>2021-02-21T07:45:22Z</time>
      </trkpt>
      <trkpt lat="44.45631" lon="6.51585">
        <ele>2736</ele>
        <time>2021-02-21T07:45:23Z</time>
      </trkpt>
      <trkpt lat="44.45631" lon="6.51585">
        <ele>2736</ele>
        <time>2021-02-21T07:45:24Z</time>
      </trkpt>
      <trkpt lat="44.45631" lon="6.51585">
        <ele>2736</ele>
        <time>2021-02-21T07:45:25Z</time>
      </trkpt>
      <trkpt lat="44.45631" lon="6.51585">
        <ele>2736</ele>
        <time>2021-02-21T07:45:26Z</time>
      </trkpt>
      <trkpt lat="44.45631" lon="6.51585">
        <ele>2736</ele>
        <time>2021-02-21T07:45:27Z</time>
      </trkpt>
      <trkpt lat="44.45631" lon="6.51585">
        <ele>2736</ele>
        <time>2021-02-21T07:45:28Z</time>
      </trkpt>
      <trkpt lat="44.45632" lon="6.51587">
        <ele>2737</ele>
        <time>2021-02-21T07:45:29Z</time>
      </trkpt>
      <trkpt lat="44.45632" lon="6.51587">
        <ele>2737</ele>
        <time>2021-02-21T07:45:30Z</time>
      </trkpt>
      <trkpt lat="44.45633" lon="6.51586">
        <ele>2737</ele>
        <time>2021-02-21T07:45:31Z</time>
      </trkpt>
      <trkpt lat="44.45633" lon="6.51587">
        <ele>2738</ele>
        <time>2021-02-21T07:45:32Z</time>
      </trkpt>
      <trkpt lat="44.45633" lon="6.51586">
        <ele>2738</ele>
        <time>2021-02-21T07:45:33Z</time>
      </trkpt>
      <trkpt lat="44.45633" lon="6.51587">
        <ele>2738</ele>
        <time>2021-02-21T07:45:34Z</time>
      </trkpt>
      <trkpt lat="44.45632" lon="6.51587">
        <ele>2738</ele>
        <time>2021-02-21T07:45:35Z</time>
      </trkpt>
      <trkpt lat="44.45631" lon="6.51587">
        <ele>2738</ele>
        <time>2021-02-21T07:45:36Z</time>
      </trkpt>
      <trkpt lat="44.45631" lon="6.51587">
        <ele>2738</ele>
        <time>2021-02-21T07:45:37Z</time>
      </trkpt>
      <trkpt lat="44.45631" lon="6.51587">
        <ele>2738</ele>
        <time>2021-02-21T07:45:38Z</time>
      </trkpt>
      <trkpt lat="44.45631" lon="6.51586">
        <ele>2738</ele>
        <time>2021-02-21T07:45:39Z</time>
      </trkpt>
      <trkpt lat="44.45631" lon="6.51586">
        <ele>2738</ele>
        <time>2021-02-21T07:45:40Z</time>
      </trkpt>
      <trkpt lat="44.45631" lon="6.51587">
        <ele>2738</ele>
        <time>2021-02-21T07:45:41Z</time>
      </trkpt>
      <trkpt lat="44.45631" lon="6.51587">
        <ele>2738</ele>
        <time>2021-02-21T07:45:42Z</time>
      </trkpt>
      <trkpt lat="44.45631" lon="6.51587">
        <ele>2738</ele>
        <time>2021-02-21T07:45:43Z</time>
      </trkpt>
      <trkpt lat="44.45631" lon="6.51586">
        <ele>2738</ele>
        <time>2021-02-21T07:45:44Z</time>
      </trkpt>
      <trkpt lat="44.4563" lon="6.51585">
        <ele>2738</ele>
        <time>2021-02-21T07:45:45Z</time>
      </trkpt>
      <trkpt lat="44.4563" lon="6.51585">
        <ele>2738</ele>
        <time>2021-02-21T07:45:46Z</time>
      </trkpt>
      <trkpt lat="44.4563" lon="6.51585">
        <ele>2738</ele>
        <time>2021-02-21T07:45:47Z</time>
      </trkpt>
      <trkpt lat="44.4563" lon="6.51585">
        <ele>2738</ele>
        <time>2021-02-21T07:45:48Z</time>
      </trkpt>
      <trkpt lat="44.4563" lon="6.51584">
        <ele>2738</ele>
        <time>2021-02-21T07:45:49Z</time>
      </trkpt>
      <trkpt lat="44.4563" lon="6.51584">
        <ele>2738</ele>
        <time>2021-02-21T07:45:50Z</time>
      </trkpt>
      <trkpt lat="44.4563" lon="6.51583">
        <ele>2738</ele>
        <time>2021-02-21T07:45:51Z</time>
      </trkpt>
      <trkpt lat="44.4563" lon="6.51582">
        <ele>2739</ele>
        <time>2021-02-21T07:45:52Z</time>
      </trkpt>
      <trkpt lat="44.4563" lon="6.51582">
        <ele>2740</ele>
        <time>2021-02-21T07:45:53Z</time>
      </trkpt>
      <trkpt lat="44.4563" lon="6.51583">
        <ele>2740</ele>
        <time>2021-02-21T07:45:54Z</time>
      </trkpt>
      <trkpt lat="44.4563" lon="6.51583">
        <ele>2740</ele>
        <time>2021-02-21T07:45:55Z</time>
      </trkpt>
      <trkpt lat="44.4563" lon="6.51583">
        <ele>2740</ele>
        <time>2021-02-21T07:45:56Z</time>
      </trkpt>
      <trkpt lat="44.4563" lon="6.51583">
        <ele>2740</ele>
        <time>2021-02-21T07:45:57Z</time>
      </trkpt>
      <trkpt lat="44.4563" lon="6.51583">
        <ele>2740</ele>
        <time>2021-02-21T07:45:58Z</time>
      </trkpt>
      <trkpt lat="44.4563" lon="6.51583">
        <ele>2740</ele>
        <time>2021-02-21T07:45:59Z</time>
      </trkpt>
      <trkpt lat="44.4563" lon="6.51583">
        <ele>2740</ele>
        <time>2021-02-21T07:46:00Z</time>
      </trkpt>
      <trkpt lat="44.4563" lon="6.51583">
        <ele>2741</ele>
        <time>2021-02-21T07:46:01Z</time>
      </trkpt>
      <trkpt lat="44.4563" lon="6.51583">
        <ele>2741</ele>
        <time>2021-02-21T07:46:02Z</time>
      </trkpt>
      <trkpt lat="44.4563" lon="6.51583">
        <ele>2741</ele>
        <time>2021-02-21T07:46:03Z</time>
      </trkpt>
      <trkpt lat="44.4563" lon="6.51583">
        <ele>2741</ele>
        <time>2021-02-21T07:46:04Z</time>
      </trkpt>
      <trkpt lat="44.4563" lon="6.51583">
        <ele>2741</ele>
        <time>2021-02-21T07:46:05Z</time>
      </trkpt>
      <trkpt lat="44.4563" lon="6.51583">
        <ele>2741</ele>
        <time>2021-02-21T07:46:06Z</time>
      </trkpt>
      <trkpt lat="44.4563" lon="6.51583">
        <ele>2741</ele>
        <time>2021-02-21T07:46:07Z</time>
      </trkpt>
      <trkpt lat="44.4563" lon="6.51583">
        <ele>2741</ele>
        <time>2021-02-21T07:46:08Z</time>
      </trkpt>
      <trkpt lat="44.45634" lon="6.51581">
        <ele>2741</ele>
        <time>2021-02-21T07:46:09Z</time>
      </trkpt>
      <trkpt lat="44.45634" lon="6.5158">
        <ele>2741</ele>
        <time>2021-02-21T07:46:10Z</time>
      </trkpt>
      <trkpt lat="44.45635" lon="6.5158">
        <ele>2741</ele>
        <time>2021-02-21T07:46:11Z</time>
      </trkpt>
      <trkpt lat="44.45635" lon="6.5158">
        <ele>2742</ele>
        <time>2021-02-21T07:46:12Z</time>
      </trkpt>
      <trkpt lat="44.45636" lon="6.51579">
        <ele>2742</ele>
        <time>2021-02-21T07:46:13Z</time>
      </trkpt>
      <trkpt lat="44.45636" lon="6.51578">
        <ele>2742</ele>
        <time>2021-02-21T07:46:14Z</time>
      </trkpt>
      <trkpt lat="44.45636" lon="6.51578">
        <ele>2742</ele>
        <time>2021-02-21T07:46:15Z</time>
      </trkpt>
      <trkpt lat="44.45636" lon="6.51578">
        <ele>2742</ele>
        <time>2021-02-21T07:46:16Z</time>
      </trkpt>
      <trkpt lat="44.45636" lon="6.51577">
        <ele>2742</ele>
        <time>2021-02-21T07:46:17Z</time>
      </trkpt>
      <trkpt lat="44.45636" lon="6.51577">
        <ele>2742</ele>
        <time>2021-02-21T07:46:18Z</time>
      </trkpt>
      <trkpt lat="44.45636" lon="6.51578">
        <ele>2743</ele>
        <time>2021-02-21T07:46:19Z</time>
      </trkpt>
      <trkpt lat="44.45636" lon="6.51577">
        <ele>2743</ele>
        <time>2021-02-21T07:46:20Z</time>
      </trkpt>
      <trkpt lat="44.45636" lon="6.51578">
        <ele>2743</ele>
        <time>2021-02-21T07:46:21Z</time>
      </trkpt>
      <trkpt lat="44.45635" lon="6.51577">
        <ele>2743</ele>
        <time>2021-02-21T07:46:22Z</time>
      </trkpt>
      <trkpt lat="44.45635" lon="6.51577">
        <ele>2743</ele>
        <time>2021-02-21T07:46:23Z</time>
      </trkpt>
      <trkpt lat="44.45635" lon="6.51577">
        <ele>2743</ele>
        <time>2021-02-21T07:46:24Z</time>
      </trkpt>
      <trkpt lat="44.45635" lon="6.51577">
        <ele>2743</ele>
        <time>2021-02-21T07:46:25Z</time>
      </trkpt>
      <trkpt lat="44.45634" lon="6.51578">
        <ele>2743</ele>
        <time>2021-02-21T07:46:26Z</time>
      </trkpt>
      <trkpt lat="44.45634" lon="6.51578">
        <ele>2743</ele>
        <time>2021-02-21T07:46:27Z</time>
      </trkpt>
      <trkpt lat="44.45634" lon="6.51578">
        <ele>2743</ele>
        <time>2021-02-21T07:46:28Z</time>
      </trkpt>
      <trkpt lat="44.45634" lon="6.51577">
        <ele>2743</ele>
        <time>2021-02-21T07:46:29Z</time>
      </trkpt>
      <trkpt lat="44.45634" lon="6.51577">
        <ele>2743</ele>
        <time>2021-02-21T07:46:30Z</time>
      </trkpt>
      <trkpt lat="44.45634" lon="6.51577">
        <ele>2743</ele>
        <time>2021-02-21T07:46:31Z</time>
      </trkpt>
      <trkpt lat="44.45634" lon="6.51577">
        <ele>2743</ele>
        <time>2021-02-21T07:46:32Z</time>
      </trkpt>
      <trkpt lat="44.45634" lon="6.51577">
        <ele>2743</ele>
        <time>2021-02-21T07:46:33Z</time>
      </trkpt>
      <trkpt lat="44.45634" lon="6.51577">
        <ele>2743</ele>
        <time>2021-02-21T07:46:34Z</time>
      </trkpt>
      <trkpt lat="44.45634" lon="6.51577">
        <ele>2743</ele>
        <time>2021-02-21T07:46:35Z</time>
      </trkpt>
      <trkpt lat="44.45634" lon="6.51577">
        <ele>2743</ele>
        <time>2021-02-21T07:46:36Z</time>
      </trkpt>
      <trkpt lat="44.45634" lon="6.51577">
        <ele>2743</ele>
        <time>2021-02-21T07:46:37Z</time>
      </trkpt>
      <trkpt lat="44.45634" lon="6.51577">
        <ele>2743</ele>
        <time>2021-02-21T07:46:38Z</time>
      </trkpt>
      <trkpt lat="44.45634" lon="6.51577">
        <ele>2743</ele>
        <time>2021-02-21T07:46:39Z</time>
      </trkpt>
      <trkpt lat="44.45634" lon="6.51577">
        <ele>2743</ele>
        <time>2021-02-21T07:46:40Z</time>
      </trkpt>
      <trkpt lat="44.45634" lon="6.51577">
        <ele>2743</ele>
        <time>2021-02-21T07:46:41Z</time>
      </trkpt>
      <trkpt lat="44.45634" lon="6.51577">
        <ele>2743</ele>
        <time>2021-02-21T07:46:42Z</time>
      </trkpt>
      <trkpt lat="44.45634" lon="6.51573">
        <ele>2744</ele>
        <time>2021-02-21T07:46:43Z</time>
      </trkpt>
      <trkpt lat="44.45634" lon="6.51573">
        <ele>2744</ele>
        <time>2021-02-21T07:46:44Z</time>
      </trkpt>
      <trkpt lat="44.45634" lon="6.51573">
        <ele>2744</ele>
        <time>2021-02-21T07:46:45Z</time>
      </trkpt>
      <trkpt lat="44.45634" lon="6.51573">
        <ele>2744</ele>
        <time>2021-02-21T07:46:46Z</time>
      </trkpt>
      <trkpt lat="44.45634" lon="6.51573">
        <ele>2744</ele>
        <time>2021-02-21T07:46:47Z</time>
      </trkpt>
      <trkpt lat="44.45634" lon="6.51573">
        <ele>2744</ele>
        <time>2021-02-21T07:46:48Z</time>
      </trkpt>
      <trkpt lat="44.45634" lon="6.51573">
        <ele>2744</ele>
        <time>2021-02-21T07:46:49Z</time>
      </trkpt>
      <trkpt lat="44.45634" lon="6.51573">
        <ele>2744</ele>
        <time>2021-02-21T07:46:50Z</time>
      </trkpt>
      <trkpt lat="44.45634" lon="6.51573">
        <ele>2744</ele>
        <time>2021-02-21T07:46:51Z</time>
      </trkpt>
      <trkpt lat="44.45634" lon="6.51573">
        <ele>2744</ele>
        <time>2021-02-21T07:46:52Z</time>
      </trkpt>
      <trkpt lat="44.45634" lon="6.51573">
        <ele>2744</ele>
        <time>2021-02-21T07:46:53Z</time>
      </trkpt>
      <trkpt lat="44.45634" lon="6.51573">
        <ele>2744</ele>
        <time>2021-02-21T07:46:54Z</time>
      </trkpt>
      <trkpt lat="44.45634" lon="6.51573">
        <ele>2744</ele>
        <time>2021-02-21T07:46:55Z</time>
      </trkpt>
      <trkpt lat="44.45634" lon="6.51573">
        <ele>2744</ele>
        <time>2021-02-21T07:46:56Z</time>
      </trkpt>
      <trkpt lat="44.45634" lon="6.51573">
        <ele>2744</ele>
        <time>2021-02-21T07:46:57Z</time>
      </trkpt>
      <trkpt lat="44.45634" lon="6.51573">
        <ele>2744</ele>
        <time>2021-02-21T07:46:58Z</time>
      </trkpt>
      <trkpt lat="44.45634" lon="6.51573">
        <ele>2744</ele>
        <time>2021-02-21T07:46:59Z</time>
      </trkpt>
      <trkpt lat="44.45634" lon="6.51573">
        <ele>2744</ele>
        <time>2021-02-21T07:47:00Z</time>
      </trkpt>
      <trkpt lat="44.45634" lon="6.51573">
        <ele>2744</ele>
        <time>2021-02-21T07:47:01Z</time>
      </trkpt>
      <trkpt lat="44.45634" lon="6.51573">
        <ele>2744</ele>
        <time>2021-02-21T07:47:02Z</time>
      </trkpt>
      <trkpt lat="44.45635" lon="6.51573">
        <ele>2744</ele>
        <time>2021-02-21T07:47:03Z</time>
      </trkpt>
      <trkpt lat="44.45635" lon="6.51574">
        <ele>2744</ele>
        <time>2021-02-21T07:47:04Z</time>
      </trkpt>
      <trkpt lat="44.45635" lon="6.51574">
        <ele>2744</ele>
        <time>2021-02-21T07:47:05Z</time>
      </trkpt>
      <trkpt lat="44.45635" lon="6.51574">
        <ele>2744</ele>
        <time>2021-02-21T07:47:06Z</time>
      </trkpt>
      <trkpt lat="44.45635" lon="6.51574">
        <ele>2744</ele>
        <time>2021-02-21T07:47:07Z</time>
      </trkpt>
      <trkpt lat="44.45635" lon="6.51574">
        <ele>2744</ele>
        <time>2021-02-21T07:47:08Z</time>
      </trkpt>
      <trkpt lat="44.45635" lon="6.51574">
        <ele>2744</ele>
        <time>2021-02-21T07:47:09Z</time>
      </trkpt>
      <trkpt lat="44.45635" lon="6.51574">
        <ele>2744</ele>
        <time>2021-02-21T07:47:10Z</time>
      </trkpt>
      <trkpt lat="44.45635" lon="6.51574">
        <ele>2744</ele>
        <time>2021-02-21T07:47:11Z</time>
      </trkpt>
      <trkpt lat="44.45635" lon="6.51574">
        <ele>2744</ele>
        <time>2021-02-21T07:47:12Z</time>
      </trkpt>
      <trkpt lat="44.45635" lon="6.51574">
        <ele>2744</ele>
        <time>2021-02-21T07:47:13Z</time>
      </trkpt>
      <trkpt lat="44.45635" lon="6.51574">
        <ele>2744</ele>
        <time>2021-02-21T07:47:14Z</time>
      </trkpt>
      <trkpt lat="44.45635" lon="6.51574">
        <ele>2744</ele>
        <time>2021-02-21T07:47:15Z</time>
      </trkpt>
      <trkpt lat="44.45635" lon="6.51574">
        <ele>2744</ele>
        <time>2021-02-21T07:47:16Z</time>
      </trkpt>
      <trkpt lat="44.45635" lon="6.51574">
        <ele>2744</ele>
        <time>2021-02-21T07:47:17Z</time>
      </trkpt>
      <trkpt lat="44.45635" lon="6.51574">
        <ele>2744</ele>
        <time>2021-02-21T07:47:18Z</time>
      </trkpt>
      <trkpt lat="44.45635" lon="6.51574">
        <ele>2745</ele>
        <time>2021-02-21T07:47:19Z</time>
      </trkpt>
      <trkpt lat="44.45635" lon="6.51574">
        <ele>2745</ele>
        <time>2021-02-21T07:47:20Z</time>
      </trkpt>
      <trkpt lat="44.45635" lon="6.51574">
        <ele>2745</ele>
        <time>2021-02-21T07:47:21Z</time>
      </trkpt>
      <trkpt lat="44.45635" lon="6.51574">
        <ele>2745</ele>
        <time>2021-02-21T07:47:22Z</time>
      </trkpt>
      <trkpt lat="44.45635" lon="6.51574">
        <ele>2745</ele>
        <time>2021-02-21T07:47:23Z</time>
      </trkpt>
      <trkpt lat="44.45635" lon="6.51574">
        <ele>2745</ele>
        <time>2021-02-21T07:47:24Z</time>
      </trkpt>
      <trkpt lat="44.45635" lon="6.51574">
        <ele>2745</ele>
        <time>2021-02-21T07:47:25Z</time>
      </trkpt>
      <trkpt lat="44.45635" lon="6.51574">
        <ele>2745</ele>
        <time>2021-02-21T07:47:26Z</time>
      </trkpt>
      <trkpt lat="44.45635" lon="6.51574">
        <ele>2745</ele>
        <time>2021-02-21T07:47:27Z</time>
      </trkpt>
      <trkpt lat="44.45635" lon="6.51574">
        <ele>2745</ele>
        <time>2021-02-21T07:47:28Z</time>
      </trkpt>
      <trkpt lat="44.45635" lon="6.51574">
        <ele>2745</ele>
        <time>2021-02-21T07:47:29Z</time>
      </trkpt>
      <trkpt lat="44.45635" lon="6.51574">
        <ele>2745</ele>
        <time>2021-02-21T07:47:30Z</time>
      </trkpt>
      <trkpt lat="44.45635" lon="6.51574">
        <ele>2745</ele>
        <time>2021-02-21T07:47:31Z</time>
      </trkpt>
      <trkpt lat="44.45636" lon="6.51566">
        <ele>2745</ele>
        <time>2021-02-21T07:47:32Z</time>
      </trkpt>
      <trkpt lat="44.45637" lon="6.51566">
        <ele>2745</ele>
        <time>2021-02-21T07:47:33Z</time>
      </trkpt>
      <trkpt lat="44.45637" lon="6.51565">
        <ele>2745</ele>
        <time>2021-02-21T07:47:34Z</time>
      </trkpt>
      <trkpt lat="44.45637" lon="6.51565">
        <ele>2745</ele>
        <time>2021-02-21T07:47:35Z</time>
      </trkpt>
      <trkpt lat="44.45636" lon="6.51564">
        <ele>2745</ele>
        <time>2021-02-21T07:47:36Z</time>
      </trkpt>
      <trkpt lat="44.45636" lon="6.51564">
        <ele>2745</ele>
        <time>2021-02-21T07:47:37Z</time>
      </trkpt>
      <trkpt lat="44.45637" lon="6.51564">
        <ele>2745</ele>
        <time>2021-02-21T07:47:38Z</time>
      </trkpt>
      <trkpt lat="44.45637" lon="6.51564">
        <ele>2745</ele>
        <time>2021-02-21T07:47:39Z</time>
      </trkpt>
      <trkpt lat="44.45637" lon="6.51565">
        <ele>2745</ele>
        <time>2021-02-21T07:47:40Z</time>
      </trkpt>
      <trkpt lat="44.45637" lon="6.51566">
        <ele>2746</ele>
        <time>2021-02-21T07:47:41Z</time>
      </trkpt>
      <trkpt lat="44.45637" lon="6.51566">
        <ele>2746</ele>
        <time>2021-02-21T07:47:42Z</time>
      </trkpt>
      <trkpt lat="44.45636" lon="6.51565">
        <ele>2746</ele>
        <time>2021-02-21T07:47:43Z</time>
      </trkpt>
      <trkpt lat="44.45636" lon="6.51565">
        <ele>2746</ele>
        <time>2021-02-21T07:47:44Z</time>
      </trkpt>
      <trkpt lat="44.45636" lon="6.51564">
        <ele>2746</ele>
        <time>2021-02-21T07:47:45Z</time>
      </trkpt>
      <trkpt lat="44.45635" lon="6.51564">
        <ele>2746</ele>
        <time>2021-02-21T07:47:46Z</time>
      </trkpt>
      <trkpt lat="44.45635" lon="6.51564">
        <ele>2746</ele>
        <time>2021-02-21T07:47:47Z</time>
      </trkpt>
      <trkpt lat="44.45635" lon="6.51564">
        <ele>2746</ele>
        <time>2021-02-21T07:47:48Z</time>
      </trkpt>
      <trkpt lat="44.45635" lon="6.51564">
        <ele>2746</ele>
        <time>2021-02-21T07:47:49Z</time>
      </trkpt>
      <trkpt lat="44.45635" lon="6.51564">
        <ele>2746</ele>
        <time>2021-02-21T07:47:50Z</time>
      </trkpt>
      <trkpt lat="44.45635" lon="6.51564">
        <ele>2747</ele>
        <time>2021-02-21T07:47:51Z</time>
      </trkpt>
      <trkpt lat="44.45635" lon="6.51564">
        <ele>2747</ele>
        <time>2021-02-21T07:47:52Z</time>
      </trkpt>
      <trkpt lat="44.45635" lon="6.51564">
        <ele>2747</ele>
        <time>2021-02-21T07:47:53Z</time>
      </trkpt>
      <trkpt lat="44.45635" lon="6.51564">
        <ele>2747</ele>
        <time>2021-02-21T07:47:54Z</time>
      </trkpt>
      <trkpt lat="44.45635" lon="6.51564">
        <ele>2747</ele>
        <time>2021-02-21T07:47:55Z</time>
      </trkpt>
      <trkpt lat="44.45635" lon="6.51564">
        <ele>2747</ele>
        <time>2021-02-21T07:47:56Z</time>
      </trkpt>
      <trkpt lat="44.45635" lon="6.51564">
        <ele>2747</ele>
        <time>2021-02-21T07:47:57Z</time>
      </trkpt>
      <trkpt lat="44.45635" lon="6.51564">
        <ele>2747</ele>
        <time>2021-02-21T07:47:58Z</time>
      </trkpt>
      <trkpt lat="44.45635" lon="6.51564">
        <ele>2747</ele>
        <time>2021-02-21T07:47:59Z</time>
      </trkpt>
      <trkpt lat="44.45635" lon="6.51564">
        <ele>2747</ele>
        <time>2021-02-21T07:48:00Z</time>
      </trkpt>
      <trkpt lat="44.45635" lon="6.51564">
        <ele>2747</ele>
        <time>2021-02-21T07:48:01Z</time>
      </trkpt>
      <trkpt lat="44.45635" lon="6.51564">
        <ele>2747</ele>
        <time>2021-02-21T07:48:02Z</time>
      </trkpt>
      <trkpt lat="44.45634" lon="6.51562">
        <ele>2747</ele>
        <time>2021-02-21T07:48:03Z</time>
      </trkpt>
      <trkpt lat="44.45634" lon="6.51562">
        <ele>2747</ele>
        <time>2021-02-21T07:48:04Z</time>
      </trkpt>
      <trkpt lat="44.45634" lon="6.51562">
        <ele>2747</ele>
        <time>2021-02-21T07:48:05Z</time>
      </trkpt>
      <trkpt lat="44.45634" lon="6.51561">
        <ele>2748</ele>
        <time>2021-02-21T07:48:06Z</time>
      </trkpt>
      <trkpt lat="44.45633" lon="6.5156">
        <ele>2748</ele>
        <time>2021-02-21T07:48:07Z</time>
      </trkpt>
      <trkpt lat="44.45633" lon="6.5156">
        <ele>2748</ele>
        <time>2021-02-21T07:48:08Z</time>
      </trkpt>
      <trkpt lat="44.45633" lon="6.5156">
        <ele>2748</ele>
        <time>2021-02-21T07:48:09Z</time>
      </trkpt>
      <trkpt lat="44.45633" lon="6.5156">
        <ele>2748</ele>
        <time>2021-02-21T07:48:10Z</time>
      </trkpt>
      <trkpt lat="44.45633" lon="6.5156">
        <ele>2748</ele>
        <time>2021-02-21T07:48:11Z</time>
      </trkpt>
      <trkpt lat="44.45633" lon="6.5156">
        <ele>2748</ele>
        <time>2021-02-21T07:48:12Z</time>
      </trkpt>
      <trkpt lat="44.45633" lon="6.5156">
        <ele>2748</ele>
        <time>2021-02-21T07:48:13Z</time>
      </trkpt>
      <trkpt lat="44.45633" lon="6.5156">
        <ele>2748</ele>
        <time>2021-02-21T07:48:14Z</time>
      </trkpt>
      <trkpt lat="44.45633" lon="6.5156">
        <ele>2748</ele>
        <time>2021-02-21T07:48:15Z</time>
      </trkpt>
      <trkpt lat="44.45634" lon="6.5156">
        <ele>2748</ele>
        <time>2021-02-21T07:48:16Z</time>
      </trkpt>
      <trkpt lat="44.45634" lon="6.5156">
        <ele>2748</ele>
        <time>2021-02-21T07:48:17Z</time>
      </trkpt>
      <trkpt lat="44.45634" lon="6.5156">
        <ele>2748</ele>
        <time>2021-02-21T07:48:18Z</time>
      </trkpt>
      <trkpt lat="44.45634" lon="6.5156">
        <ele>2748</ele>
        <time>2021-02-21T07:48:19Z</time>
      </trkpt>
      <trkpt lat="44.45634" lon="6.5156">
        <ele>2748</ele>
        <time>2021-02-21T07:48:20Z</time>
      </trkpt>
      <trkpt lat="44.45634" lon="6.5156">
        <ele>2749</ele>
        <time>2021-02-21T07:48:21Z</time>
      </trkpt>
      <trkpt lat="44.45634" lon="6.5156">
        <ele>2749</ele>
        <time>2021-02-21T07:48:22Z</time>
      </trkpt>
      <trkpt lat="44.45634" lon="6.5156">
        <ele>2749</ele>
        <time>2021-02-21T07:48:23Z</time>
      </trkpt>
      <trkpt lat="44.45634" lon="6.5156">
        <ele>2749</ele>
        <time>2021-02-21T07:48:24Z</time>
      </trkpt>
      <trkpt lat="44.45636" lon="6.5156">
        <ele>2749</ele>
        <time>2021-02-21T07:48:25Z</time>
      </trkpt>
      <trkpt lat="44.45636" lon="6.5156">
        <ele>2749</ele>
        <time>2021-02-21T07:48:26Z</time>
      </trkpt>
      <trkpt lat="44.45637" lon="6.5156">
        <ele>2749</ele>
        <time>2021-02-21T07:48:27Z</time>
      </trkpt>
      <trkpt lat="44.45637" lon="6.5156">
        <ele>2749</ele>
        <time>2021-02-21T07:48:28Z</time>
      </trkpt>
      <trkpt lat="44.45637" lon="6.51559">
        <ele>2750</ele>
        <time>2021-02-21T07:48:29Z</time>
      </trkpt>
      <trkpt lat="44.45637" lon="6.51559">
        <ele>2750</ele>
        <time>2021-02-21T07:48:30Z</time>
      </trkpt>
      <trkpt lat="44.45638" lon="6.5156">
        <ele>2752</ele>
        <time>2021-02-21T07:48:31Z</time>
      </trkpt>
      <trkpt lat="44.45638" lon="6.5156">
        <ele>2753</ele>
        <time>2021-02-21T07:48:32Z</time>
      </trkpt>
      <trkpt lat="44.45638" lon="6.5156">
        <ele>2754</ele>
        <time>2021-02-21T07:48:33Z</time>
      </trkpt>
      <trkpt lat="44.45638" lon="6.51559">
        <ele>2754</ele>
        <time>2021-02-21T07:48:34Z</time>
      </trkpt>
      <trkpt lat="44.45638" lon="6.51559">
        <ele>2755</ele>
        <time>2021-02-21T07:48:35Z</time>
      </trkpt>
      <trkpt lat="44.45638" lon="6.51559">
        <ele>2755</ele>
        <time>2021-02-21T07:48:36Z</time>
      </trkpt>
      <trkpt lat="44.45638" lon="6.51559">
        <ele>2755</ele>
        <time>2021-02-21T07:48:37Z</time>
      </trkpt>
      <trkpt lat="44.45638" lon="6.51557">
        <ele>2755</ele>
        <time>2021-02-21T07:48:38Z</time>
      </trkpt>
      <trkpt lat="44.45639" lon="6.51558">
        <ele>2755</ele>
        <time>2021-02-21T07:48:39Z</time>
      </trkpt>
      <trkpt lat="44.45639" lon="6.51558">
        <ele>2756</ele>
        <time>2021-02-21T07:48:40Z</time>
      </trkpt>
      <trkpt lat="44.45639" lon="6.51559">
        <ele>2756</ele>
        <time>2021-02-21T07:48:41Z</time>
      </trkpt>
      <trkpt lat="44.45639" lon="6.5156">
        <ele>2756</ele>
        <time>2021-02-21T07:48:42Z</time>
      </trkpt>
      <trkpt lat="44.45639" lon="6.5156">
        <ele>2756</ele>
        <time>2021-02-21T07:48:43Z</time>
      </trkpt>
      <trkpt lat="44.45638" lon="6.5156">
        <ele>2757</ele>
        <time>2021-02-21T07:48:44Z</time>
      </trkpt>
      <trkpt lat="44.45638" lon="6.51561">
        <ele>2757</ele>
        <time>2021-02-21T07:48:45Z</time>
      </trkpt>
      <trkpt lat="44.45638" lon="6.5156">
        <ele>2757</ele>
        <time>2021-02-21T07:48:46Z</time>
      </trkpt>
      <trkpt lat="44.45638" lon="6.51561">
        <ele>2757</ele>
        <time>2021-02-21T07:48:47Z</time>
      </trkpt>
      <trkpt lat="44.45637" lon="6.51561">
        <ele>2757</ele>
        <time>2021-02-21T07:48:48Z</time>
      </trkpt>
      <trkpt lat="44.45637" lon="6.5156">
        <ele>2757</ele>
        <time>2021-02-21T07:48:49Z</time>
      </trkpt>
      <trkpt lat="44.45637" lon="6.5156">
        <ele>2757</ele>
        <time>2021-02-21T07:48:50Z</time>
      </trkpt>
      <trkpt lat="44.45636" lon="6.5156">
        <ele>2758</ele>
        <time>2021-02-21T07:48:51Z</time>
      </trkpt>
      <trkpt lat="44.45636" lon="6.5156">
        <ele>2758</ele>
        <time>2021-02-21T07:48:52Z</time>
      </trkpt>
      <trkpt lat="44.45636" lon="6.5156">
        <ele>2758</ele>
        <time>2021-02-21T07:48:53Z</time>
      </trkpt>
      <trkpt lat="44.45636" lon="6.5156">
        <ele>2758</ele>
        <time>2021-02-21T07:48:54Z</time>
      </trkpt>
      <trkpt lat="44.45636" lon="6.5156">
        <ele>2758</ele>
        <time>2021-02-21T07:48:55Z</time>
      </trkpt>
      <trkpt lat="44.45636" lon="6.5156">
        <ele>2758</ele>
        <time>2021-02-21T07:48:56Z</time>
      </trkpt>
      <trkpt lat="44.45637" lon="6.51559">
        <ele>2758</ele>
        <time>2021-02-21T07:48:57Z</time>
      </trkpt>
      <trkpt lat="44.45636" lon="6.51559">
        <ele>2758</ele>
        <time>2021-02-21T07:48:58Z</time>
      </trkpt>
      <trkpt lat="44.45636" lon="6.51558">
        <ele>2758</ele>
        <time>2021-02-21T07:48:59Z</time>
      </trkpt>
      <trkpt lat="44.45636" lon="6.51558">
        <ele>2758</ele>
        <time>2021-02-21T07:49:00Z</time>
      </trkpt>
      <trkpt lat="44.45636" lon="6.51558">
        <ele>2758</ele>
        <time>2021-02-21T07:49:01Z</time>
      </trkpt>
      <trkpt lat="44.45636" lon="6.51557">
        <ele>2758</ele>
        <time>2021-02-21T07:49:02Z</time>
      </trkpt>
      <trkpt lat="44.45636" lon="6.51556">
        <ele>2758</ele>
        <time>2021-02-21T07:49:03Z</time>
      </trkpt>
      <trkpt lat="44.45636" lon="6.51556">
        <ele>2759</ele>
        <time>2021-02-21T07:49:04Z</time>
      </trkpt>
      <trkpt lat="44.45637" lon="6.51556">
        <ele>2759</ele>
        <time>2021-02-21T07:49:05Z</time>
      </trkpt>
      <trkpt lat="44.45637" lon="6.51556">
        <ele>2759</ele>
        <time>2021-02-21T07:49:06Z</time>
      </trkpt>
      <trkpt lat="44.45637" lon="6.51556">
        <ele>2759</ele>
        <time>2021-02-21T07:49:07Z</time>
      </trkpt>
      <trkpt lat="44.45637" lon="6.51557">
        <ele>2759</ele>
        <time>2021-02-21T07:49:08Z</time>
      </trkpt>
      <trkpt lat="44.45637" lon="6.51557">
        <ele>2759</ele>
        <time>2021-02-21T07:49:09Z</time>
      </trkpt>
      <trkpt lat="44.45636" lon="6.51558">
        <ele>2759</ele>
        <time>2021-02-21T07:49:10Z</time>
      </trkpt>
      <trkpt lat="44.45636" lon="6.51559">
        <ele>2759</ele>
        <time>2021-02-21T07:49:11Z</time>
      </trkpt>
      <trkpt lat="44.45636" lon="6.51559">
        <ele>2759</ele>
        <time>2021-02-21T07:49:12Z</time>
      </trkpt>
      <trkpt lat="44.45637" lon="6.51559">
        <ele>2759</ele>
        <time>2021-02-21T07:49:13Z</time>
      </trkpt>
      <trkpt lat="44.45637" lon="6.51559">
        <ele>2759</ele>
        <time>2021-02-21T07:49:14Z</time>
      </trkpt>
      <trkpt lat="44.45637" lon="6.51559">
        <ele>2759</ele>
        <time>2021-02-21T07:49:15Z</time>
      </trkpt>
      <trkpt lat="44.45637" lon="6.5156">
        <ele>2760</ele>
        <time>2021-02-21T07:49:16Z</time>
      </trkpt>
      <trkpt lat="44.45638" lon="6.5156">
        <ele>2760</ele>
        <time>2021-02-21T07:49:17Z</time>
      </trkpt>
      <trkpt lat="44.45638" lon="6.5156">
        <ele>2760</ele>
        <time>2021-02-21T07:49:18Z</time>
      </trkpt>
      <trkpt lat="44.45638" lon="6.5156">
        <ele>2760</ele>
        <time>2021-02-21T07:49:19Z</time>
      </trkpt>
      <trkpt lat="44.45639" lon="6.51559">
        <ele>2760</ele>
        <time>2021-02-21T07:49:20Z</time>
      </trkpt>
      <trkpt lat="44.45639" lon="6.51558">
        <ele>2760</ele>
        <time>2021-02-21T07:49:21Z</time>
      </trkpt>
      <trkpt lat="44.4564" lon="6.51558">
        <ele>2760</ele>
        <time>2021-02-21T07:49:22Z</time>
      </trkpt>
      <trkpt lat="44.4564" lon="6.51557">
        <ele>2760</ele>
        <time>2021-02-21T07:49:23Z</time>
      </trkpt>
      <trkpt lat="44.45641" lon="6.51557">
        <ele>2760</ele>
        <time>2021-02-21T07:49:24Z</time>
      </trkpt>
      <trkpt lat="44.45641" lon="6.51556">
        <ele>2763</ele>
        <time>2021-02-21T07:49:25Z</time>
      </trkpt>
      <trkpt lat="44.45641" lon="6.51556">
        <ele>2764</ele>
        <time>2021-02-21T07:49:26Z</time>
      </trkpt>
      <trkpt lat="44.45641" lon="6.51556">
        <ele>2765</ele>
        <time>2021-02-21T07:49:27Z</time>
      </trkpt>
      <trkpt lat="44.45641" lon="6.51556">
        <ele>2765</ele>
        <time>2021-02-21T07:49:28Z</time>
      </trkpt>
      <trkpt lat="44.45641" lon="6.51556">
        <ele>2765</ele>
        <time>2021-02-21T07:49:29Z</time>
      </trkpt>
      <trkpt lat="44.45641" lon="6.51556">
        <ele>2765</ele>
        <time>2021-02-21T07:49:30Z</time>
      </trkpt>
      <trkpt lat="44.45641" lon="6.51556">
        <ele>2765</ele>
        <time>2021-02-21T07:49:31Z</time>
      </trkpt>
      <trkpt lat="44.45641" lon="6.51556">
        <ele>2765</ele>
        <time>2021-02-21T07:49:32Z</time>
      </trkpt>
      <trkpt lat="44.45641" lon="6.51556">
        <ele>2766</ele>
        <time>2021-02-21T07:49:33Z</time>
      </trkpt>
      <trkpt lat="44.45641" lon="6.51556">
        <ele>2766</ele>
        <time>2021-02-21T07:49:34Z</time>
      </trkpt>
      <trkpt lat="44.45641" lon="6.51556">
        <ele>2766</ele>
        <time>2021-02-21T07:49:35Z</time>
      </trkpt>
      <trkpt lat="44.45639" lon="6.51554">
        <ele>2766</ele>
        <time>2021-02-21T07:49:36Z</time>
      </trkpt>
      <trkpt lat="44.45639" lon="6.51555">
        <ele>2766</ele>
        <time>2021-02-21T07:49:37Z</time>
      </trkpt>
      <trkpt lat="44.45638" lon="6.51555">
        <ele>2766</ele>
        <time>2021-02-21T07:49:38Z</time>
      </trkpt>
      <trkpt lat="44.45638" lon="6.51555">
        <ele>2766</ele>
        <time>2021-02-21T07:49:39Z</time>
      </trkpt>
      <trkpt lat="44.45638" lon="6.51555">
        <ele>2766</ele>
        <time>2021-02-21T07:49:40Z</time>
      </trkpt>
      <trkpt lat="44.45637" lon="6.51555">
        <ele>2766</ele>
        <time>2021-02-21T07:49:41Z</time>
      </trkpt>
      <trkpt lat="44.45637" lon="6.51555">
        <ele>2766</ele>
        <time>2021-02-21T07:49:42Z</time>
      </trkpt>
      <trkpt lat="44.45638" lon="6.51554">
        <ele>2766</ele>
        <time>2021-02-21T07:49:43Z</time>
      </trkpt>
      <trkpt lat="44.45638" lon="6.51554">
        <ele>2766</ele>
        <time>2021-02-21T07:49:44Z</time>
      </trkpt>
      <trkpt lat="44.45639" lon="6.51554">
        <ele>2766</ele>
        <time>2021-02-21T07:49:45Z</time>
      </trkpt>
      <trkpt lat="44.45639" lon="6.51554">
        <ele>2766</ele>
        <time>2021-02-21T07:49:46Z</time>
      </trkpt>
      <trkpt lat="44.45639" lon="6.51554">
        <ele>2766</ele>
        <time>2021-02-21T07:49:47Z</time>
      </trkpt>
      <trkpt lat="44.45639" lon="6.51554">
        <ele>2766</ele>
        <time>2021-02-21T07:49:48Z</time>
      </trkpt>
      <trkpt lat="44.45639" lon="6.51554">
        <ele>2766</ele>
        <time>2021-02-21T07:49:49Z</time>
      </trkpt>
      <trkpt lat="44.45639" lon="6.51554">
        <ele>2766</ele>
        <time>2021-02-21T07:49:50Z</time>
      </trkpt>
      <trkpt lat="44.45639" lon="6.51554">
        <ele>2766</ele>
        <time>2021-02-21T07:49:51Z</time>
      </trkpt>
      <trkpt lat="44.45639" lon="6.51554">
        <ele>2766</ele>
        <time>2021-02-21T07:49:52Z</time>
      </trkpt>
      <trkpt lat="44.45639" lon="6.51554">
        <ele>2767</ele>
        <time>2021-02-21T07:49:53Z</time>
      </trkpt>
      <trkpt lat="44.45639" lon="6.51555">
        <ele>2767</ele>
        <time>2021-02-21T07:49:54Z</time>
      </trkpt>
      <trkpt lat="44.45639" lon="6.51555">
        <ele>2767</ele>
        <time>2021-02-21T07:49:55Z</time>
      </trkpt>
      <trkpt lat="44.45639" lon="6.51555">
        <ele>2767</ele>
        <time>2021-02-21T07:49:56Z</time>
      </trkpt>
      <trkpt lat="44.45639" lon="6.51555">
        <ele>2767</ele>
        <time>2021-02-21T07:49:57Z</time>
      </trkpt>
      <trkpt lat="44.45639" lon="6.51555">
        <ele>2767</ele>
        <time>2021-02-21T07:49:58Z</time>
      </trkpt>
      <trkpt lat="44.45639" lon="6.51555">
        <ele>2767</ele>
        <time>2021-02-21T07:49:59Z</time>
      </trkpt>
      <trkpt lat="44.45639" lon="6.51555">
        <ele>2767</ele>
        <time>2021-02-21T07:50:00Z</time>
      </trkpt>
      <trkpt lat="44.45639" lon="6.51555">
        <ele>2767</ele>
        <time>2021-02-21T07:50:01Z</time>
      </trkpt>
      <trkpt lat="44.45639" lon="6.51555">
        <ele>2767</ele>
        <time>2021-02-21T07:50:02Z</time>
      </trkpt>
      <trkpt lat="44.45639" lon="6.51555">
        <ele>2767</ele>
        <time>2021-02-21T07:50:03Z</time>
      </trkpt>
      <trkpt lat="44.45639" lon="6.51555">
        <ele>2767</ele>
        <time>2021-02-21T07:50:04Z</time>
      </trkpt>
      <trkpt lat="44.45639" lon="6.51555">
        <ele>2767</ele>
        <time>2021-02-21T07:50:05Z</time>
      </trkpt>
      <trkpt lat="44.45639" lon="6.51555">
        <ele>2767</ele>
        <time>2021-02-21T07:50:06Z</time>
      </trkpt>
      <trkpt lat="44.45639" lon="6.51555">
        <ele>2767</ele>
        <time>2021-02-21T07:50:07Z</time>
      </trkpt>
      <trkpt lat="44.45639" lon="6.51555">
        <ele>2767</ele>
        <time>2021-02-21T07:50:08Z</time>
      </trkpt>
      <trkpt lat="44.45639" lon="6.51555">
        <ele>2767</ele>
        <time>2021-02-21T07:50:09Z</time>
      </trkpt>
      <trkpt lat="44.45639" lon="6.51555">
        <ele>2767</ele>
        <time>2021-02-21T07:50:10Z</time>
      </trkpt>
      <trkpt lat="44.45639" lon="6.51555">
        <ele>2767</ele>
        <time>2021-02-21T07:50:11Z</time>
      </trkpt>
      <trkpt lat="44.45639" lon="6.51555">
        <ele>2767</ele>
        <time>2021-02-21T07:50:12Z</time>
      </trkpt>
      <trkpt lat="44.45639" lon="6.51555">
        <ele>2767</ele>
        <time>2021-02-21T07:50:13Z</time>
      </trkpt>
      <trkpt lat="44.45639" lon="6.51555">
        <ele>2767</ele>
        <time>2021-02-21T07:50:14Z</time>
      </trkpt>
      <trkpt lat="44.45639" lon="6.51555">
        <ele>2767</ele>
        <time>2021-02-21T07:50:15Z</time>
      </trkpt>
      <trkpt lat="44.45639" lon="6.51555">
        <ele>2767</ele>
        <time>2021-02-21T07:50:16Z</time>
      </trkpt>
      <trkpt lat="44.45639" lon="6.51555">
        <ele>2767</ele>
        <time>2021-02-21T07:50:17Z</time>
      </trkpt>
      <trkpt lat="44.45644" lon="6.51552">
        <ele>2769</ele>
        <time>2021-02-21T07:50:18Z</time>
      </trkpt>
      <trkpt lat="44.45644" lon="6.51552">
        <ele>2770</ele>
        <time>2021-02-21T07:50:19Z</time>
      </trkpt>
      <trkpt lat="44.45644" lon="6.51552">
        <ele>2770</ele>
        <time>2021-02-21T07:50:20Z</time>
      </trkpt>
      <trkpt lat="44.45644" lon="6.51553">
        <ele>2770</ele>
        <time>2021-02-21T07:50:21Z</time>
      </trkpt>
      <trkpt lat="44.45643" lon="6.51553">
        <ele>2771</ele>
        <time>2021-02-21T07:50:22Z</time>
      </trkpt>
      <trkpt lat="44.45643" lon="6.51553">
        <ele>2771</ele>
        <time>2021-02-21T07:50:23Z</time>
      </trkpt>
      <trkpt lat="44.45643" lon="6.51555">
        <ele>2771</ele>
        <time>2021-02-21T07:50:24Z</time>
      </trkpt>
      <trkpt lat="44.45643" lon="6.51555">
        <ele>2771</ele>
        <time>2021-02-21T07:50:25Z</time>
      </trkpt>
      <trkpt lat="44.45643" lon="6.51555">
        <ele>2771</ele>
        <time>2021-02-21T07:50:26Z</time>
      </trkpt>
      <trkpt lat="44.45643" lon="6.51554">
        <ele>2771</ele>
        <time>2021-02-21T07:50:27Z</time>
      </trkpt>
      <trkpt lat="44.45643" lon="6.51554">
        <ele>2771</ele>
        <time>2021-02-21T07:50:28Z</time>
      </trkpt>
      <trkpt lat="44.45643" lon="6.51553">
        <ele>2771</ele>
        <time>2021-02-21T07:50:29Z</time>
      </trkpt>
      <trkpt lat="44.45643" lon="6.51553">
        <ele>2771</ele>
        <time>2021-02-21T07:50:30Z</time>
      </trkpt>
      <trkpt lat="44.45643" lon="6.51553">
        <ele>2771</ele>
        <time>2021-02-21T07:50:31Z</time>
      </trkpt>
      <trkpt lat="44.45643" lon="6.51553">
        <ele>2771</ele>
        <time>2021-02-21T07:50:32Z</time>
      </trkpt>
      <trkpt lat="44.45643" lon="6.51553">
        <ele>2771</ele>
        <time>2021-02-21T07:50:33Z</time>
      </trkpt>
      <trkpt lat="44.45643" lon="6.51553">
        <ele>2771</ele>
        <time>2021-02-21T07:50:34Z</time>
      </trkpt>
      <trkpt lat="44.45643" lon="6.51553">
        <ele>2771</ele>
        <time>2021-02-21T07:50:35Z</time>
      </trkpt>
      <trkpt lat="44.45643" lon="6.51553">
        <ele>2771</ele>
        <time>2021-02-21T07:50:36Z</time>
      </trkpt>
      <trkpt lat="44.45643" lon="6.51553">
        <ele>2771</ele>
        <time>2021-02-21T07:50:37Z</time>
      </trkpt>
      <trkpt lat="44.45643" lon="6.51553">
        <ele>2771</ele>
        <time>2021-02-21T07:50:38Z</time>
      </trkpt>
      <trkpt lat="44.45643" lon="6.51553">
        <ele>2771</ele>
        <time>2021-02-21T07:50:39Z</time>
      </trkpt>
      <trkpt lat="44.45643" lon="6.51553">
        <ele>2771</ele>
        <time>2021-02-21T07:50:40Z</time>
      </trkpt>
      <trkpt lat="44.45643" lon="6.51553">
        <ele>2771</ele>
        <time>2021-02-21T07:50:41Z</time>
      </trkpt>
      <trkpt lat="44.45643" lon="6.51552">
        <ele>2771</ele>
        <time>2021-02-21T07:50:42Z</time>
      </trkpt>
      <trkpt lat="44.45643" lon="6.51551">
        <ele>2771</ele>
        <time>2021-02-21T07:50:43Z</time>
      </trkpt>
      <trkpt lat="44.45643" lon="6.51552">
        <ele>2771</ele>
        <time>2021-02-21T07:50:44Z</time>
      </trkpt>
      <trkpt lat="44.45643" lon="6.51551">
        <ele>2771</ele>
        <time>2021-02-21T07:50:45Z</time>
      </trkpt>
      <trkpt lat="44.45643" lon="6.51551">
        <ele>2771</ele>
        <time>2021-02-21T07:50:46Z</time>
      </trkpt>
      <trkpt lat="44.45643" lon="6.51551">
        <ele>2771</ele>
        <time>2021-02-21T07:50:47Z</time>
      </trkpt>
      <trkpt lat="44.45643" lon="6.51551">
        <ele>2771</ele>
        <time>2021-02-21T07:50:48Z</time>
      </trkpt>
      <trkpt lat="44.45643" lon="6.51551">
        <ele>2771</ele>
        <time>2021-02-21T07:50:49Z</time>
      </trkpt>
      <trkpt lat="44.45641" lon="6.51553">
        <ele>2771</ele>
        <time>2021-02-21T07:50:50Z</time>
      </trkpt>
      <trkpt lat="44.4564" lon="6.51553">
        <ele>2771</ele>
        <time>2021-02-21T07:50:51Z</time>
      </trkpt>
      <trkpt lat="44.4564" lon="6.51553">
        <ele>2771</ele>
        <time>2021-02-21T07:50:52Z</time>
      </trkpt>
      <trkpt lat="44.4564" lon="6.51554">
        <ele>2771</ele>
        <time>2021-02-21T07:50:53Z</time>
      </trkpt>
      <trkpt lat="44.45641" lon="6.51553">
        <ele>2771</ele>
        <time>2021-02-21T07:50:54Z</time>
      </trkpt>
      <trkpt lat="44.45641" lon="6.51553">
        <ele>2771</ele>
        <time>2021-02-21T07:50:55Z</time>
      </trkpt>
      <trkpt lat="44.45642" lon="6.51553">
        <ele>2771</ele>
        <time>2021-02-21T07:50:56Z</time>
      </trkpt>
      <trkpt lat="44.45642" lon="6.51552">
        <ele>2771</ele>
        <time>2021-02-21T07:50:57Z</time>
      </trkpt>
      <trkpt lat="44.45643" lon="6.51552">
        <ele>2771</ele>
        <time>2021-02-21T07:50:58Z</time>
      </trkpt>
      <trkpt lat="44.45643" lon="6.51551">
        <ele>2771</ele>
        <time>2021-02-21T07:50:59Z</time>
      </trkpt>
      <trkpt lat="44.45642" lon="6.51551">
        <ele>2771</ele>
        <time>2021-02-21T07:51:00Z</time>
      </trkpt>
      <trkpt lat="44.45642" lon="6.51551">
        <ele>2771</ele>
        <time>2021-02-21T07:51:01Z</time>
      </trkpt>
      <trkpt lat="44.45642" lon="6.51551">
        <ele>2771</ele>
        <time>2021-02-21T07:51:02Z</time>
      </trkpt>
      <trkpt lat="44.45643" lon="6.5155">
        <ele>2771</ele>
        <time>2021-02-21T07:51:03Z</time>
      </trkpt>
      <trkpt lat="44.45643" lon="6.51549">
        <ele>2771</ele>
        <time>2021-02-21T07:51:04Z</time>
      </trkpt>
      <trkpt lat="44.45644" lon="6.51548">
        <ele>2771</ele>
        <time>2021-02-21T07:51:05Z</time>
      </trkpt>
      <trkpt lat="44.45644" lon="6.51547">
        <ele>2771</ele>
        <time>2021-02-21T07:51:06Z</time>
      </trkpt>
      <trkpt lat="44.45644" lon="6.51547">
        <ele>2771</ele>
        <time>2021-02-21T07:51:07Z</time>
      </trkpt>
      <trkpt lat="44.45645" lon="6.51547">
        <ele>2771</ele>
        <time>2021-02-21T07:51:08Z</time>
      </trkpt>
      <trkpt lat="44.45645" lon="6.51547">
        <ele>2771</ele>
        <time>2021-02-21T07:51:09Z</time>
      </trkpt>
      <trkpt lat="44.45645" lon="6.51547">
        <ele>2771</ele>
        <time>2021-02-21T07:51:10Z</time>
      </trkpt>
      <trkpt lat="44.45645" lon="6.51547">
        <ele>2771</ele>
        <time>2021-02-21T07:51:11Z</time>
      </trkpt>
      <trkpt lat="44.45645" lon="6.51547">
        <ele>2771</ele>
        <time>2021-02-21T07:51:12Z</time>
      </trkpt>
      <trkpt lat="44.45645" lon="6.51547">
        <ele>2771</ele>
        <time>2021-02-21T07:51:13Z</time>
      </trkpt>
      <trkpt lat="44.45644" lon="6.51548">
        <ele>2771</ele>
        <time>2021-02-21T07:51:14Z</time>
      </trkpt>
      <trkpt lat="44.45644" lon="6.51548">
        <ele>2771</ele>
        <time>2021-02-21T07:51:15Z</time>
      </trkpt>
      <trkpt lat="44.45643" lon="6.51548">
        <ele>2771</ele>
        <time>2021-02-21T07:51:16Z</time>
      </trkpt>
      <trkpt lat="44.45643" lon="6.51548">
        <ele>2771</ele>
        <time>2021-02-21T07:51:17Z</time>
      </trkpt>
      <trkpt lat="44.45643" lon="6.51548">
        <ele>2771</ele>
        <time>2021-02-21T07:51:18Z</time>
      </trkpt>
      <trkpt lat="44.45643" lon="6.51551">
        <ele>2771</ele>
        <time>2021-02-21T07:51:19Z</time>
      </trkpt>
      <trkpt lat="44.45643" lon="6.51551">
        <ele>2771</ele>
        <time>2021-02-21T07:51:20Z</time>
      </trkpt>
      <trkpt lat="44.45643" lon="6.51551">
        <ele>2771</ele>
        <time>2021-02-21T07:51:21Z</time>
      </trkpt>
      <trkpt lat="44.45643" lon="6.51551">
        <ele>2771</ele>
        <time>2021-02-21T07:51:22Z</time>
      </trkpt>
      <trkpt lat="44.45642" lon="6.51551">
        <ele>2771</ele>
        <time>2021-02-21T07:51:23Z</time>
      </trkpt>
      <trkpt lat="44.45642" lon="6.51551">
        <ele>2771</ele>
        <time>2021-02-21T07:51:24Z</time>
      </trkpt>
      <trkpt lat="44.45642" lon="6.51551">
        <ele>2771</ele>
        <time>2021-02-21T07:51:25Z</time>
      </trkpt>
      <trkpt lat="44.45642" lon="6.51551">
        <ele>2771</ele>
        <time>2021-02-21T07:51:26Z</time>
      </trkpt>
      <trkpt lat="44.45642" lon="6.51551">
        <ele>2771</ele>
        <time>2021-02-21T07:51:27Z</time>
      </trkpt>
      <trkpt lat="44.45642" lon="6.51551">
        <ele>2771</ele>
        <time>2021-02-21T07:51:28Z</time>
      </trkpt>
      <trkpt lat="44.45642" lon="6.51551">
        <ele>2771</ele>
        <time>2021-02-21T07:51:29Z</time>
      </trkpt>
      <trkpt lat="44.45642" lon="6.51551">
        <ele>2771</ele>
        <time>2021-02-21T07:51:30Z</time>
      </trkpt>
      <trkpt lat="44.45642" lon="6.51551">
        <ele>2771</ele>
        <time>2021-02-21T07:51:31Z</time>
      </trkpt>
      <trkpt lat="44.45642" lon="6.51551">
        <ele>2771</ele>
        <time>2021-02-21T07:51:32Z</time>
      </trkpt>
      <trkpt lat="44.45642" lon="6.51551">
        <ele>2771</ele>
        <time>2021-02-21T07:51:33Z</time>
      </trkpt>
      <trkpt lat="44.45642" lon="6.51551">
        <ele>2771</ele>
        <time>2021-02-21T07:51:34Z</time>
      </trkpt>
      <trkpt lat="44.45642" lon="6.51551">
        <ele>2771</ele>
        <time>2021-02-21T07:51:35Z</time>
      </trkpt>
      <trkpt lat="44.45642" lon="6.51551">
        <ele>2771</ele>
        <time>2021-02-21T07:51:36Z</time>
      </trkpt>
      <trkpt lat="44.45642" lon="6.51551">
        <ele>2771</ele>
        <time>2021-02-21T07:51:37Z</time>
      </trkpt>
      <trkpt lat="44.45642" lon="6.51551">
        <ele>2771</ele>
        <time>2021-02-21T07:51:38Z</time>
      </trkpt>
      <trkpt lat="44.45642" lon="6.51551">
        <ele>2771</ele>
        <time>2021-02-21T07:51:39Z</time>
      </trkpt>
      <trkpt lat="44.45642" lon="6.51551">
        <ele>2771</ele>
        <time>2021-02-21T07:51:40Z</time>
      </trkpt>
      <trkpt lat="44.45642" lon="6.51551">
        <ele>2771</ele>
        <time>2021-02-21T07:51:41Z</time>
      </trkpt>
      <trkpt lat="44.45642" lon="6.51551">
        <ele>2771</ele>
        <time>2021-02-21T07:51:42Z</time>
      </trkpt>
      <trkpt lat="44.45642" lon="6.51551">
        <ele>2771</ele>
        <time>2021-02-21T07:51:43Z</time>
      </trkpt>
      <trkpt lat="44.45642" lon="6.51551">
        <ele>2771</ele>
        <time>2021-02-21T07:51:44Z</time>
      </trkpt>
      <trkpt lat="44.45642" lon="6.51551">
        <ele>2771</ele>
        <time>2021-02-21T07:51:45Z</time>
      </trkpt>
      <trkpt lat="44.45642" lon="6.51551">
        <ele>2771</ele>
        <time>2021-02-21T07:51:46Z</time>
      </trkpt>
      <trkpt lat="44.45642" lon="6.51551">
        <ele>2771</ele>
        <time>2021-02-21T07:51:47Z</time>
      </trkpt>
      <trkpt lat="44.45642" lon="6.51551">
        <ele>2771</ele>
        <time>2021-02-21T07:51:48Z</time>
      </trkpt>
      <trkpt lat="44.45642" lon="6.51551">
        <ele>2771</ele>
        <time>2021-02-21T07:51:49Z</time>
      </trkpt>
      <trkpt lat="44.45643" lon="6.51549">
        <ele>2771</ele>
        <time>2021-02-21T07:51:50Z</time>
      </trkpt>
      <trkpt lat="44.45642" lon="6.51548">
        <ele>2771</ele>
        <time>2021-02-21T07:51:51Z</time>
      </trkpt>
      <trkpt lat="44.45642" lon="6.51548">
        <ele>2770</ele>
        <time>2021-02-21T07:51:52Z</time>
      </trkpt>
      <trkpt lat="44.45643" lon="6.51548">
        <ele>2770</ele>
        <time>2021-02-21T07:51:53Z</time>
      </trkpt>
      <trkpt lat="44.45643" lon="6.51548">
        <ele>2770</ele>
        <time>2021-02-21T07:51:54Z</time>
      </trkpt>
      <trkpt lat="44.45643" lon="6.51548">
        <ele>2770</ele>
        <time>2021-02-21T07:51:55Z</time>
      </trkpt>
      <trkpt lat="44.45643" lon="6.51548">
        <ele>2770</ele>
        <time>2021-02-21T07:51:56Z</time>
      </trkpt>
      <trkpt lat="44.45643" lon="6.51548">
        <ele>2770</ele>
        <time>2021-02-21T07:51:57Z</time>
      </trkpt>
      <trkpt lat="44.45643" lon="6.51548">
        <ele>2770</ele>
        <time>2021-02-21T07:51:58Z</time>
      </trkpt>
      <trkpt lat="44.45643" lon="6.51548">
        <ele>2770</ele>
        <time>2021-02-21T07:51:59Z</time>
      </trkpt>
      <trkpt lat="44.45643" lon="6.51548">
        <ele>2770</ele>
        <time>2021-02-21T07:52:00Z</time>
      </trkpt>
      <trkpt lat="44.45643" lon="6.51548">
        <ele>2770</ele>
        <time>2021-02-21T07:52:01Z</time>
      </trkpt>
      <trkpt lat="44.45643" lon="6.51548">
        <ele>2770</ele>
        <time>2021-02-21T07:52:02Z</time>
      </trkpt>
      <trkpt lat="44.45644" lon="6.51546">
        <ele>2770</ele>
        <time>2021-02-21T07:52:03Z</time>
      </trkpt>
      <trkpt lat="44.45644" lon="6.51546">
        <ele>2770</ele>
        <time>2021-02-21T07:52:04Z</time>
      </trkpt>
      <trkpt lat="44.45645" lon="6.51545">
        <ele>2770</ele>
        <time>2021-02-21T07:52:05Z</time>
      </trkpt>
      <trkpt lat="44.45646" lon="6.51545">
        <ele>2770</ele>
        <time>2021-02-21T07:52:06Z</time>
      </trkpt>
      <trkpt lat="44.45646" lon="6.51545">
        <ele>2770</ele>
        <time>2021-02-21T07:52:07Z</time>
      </trkpt>
      <trkpt lat="44.45646" lon="6.51545">
        <ele>2770</ele>
        <time>2021-02-21T07:52:08Z</time>
      </trkpt>
      <trkpt lat="44.45646" lon="6.51545">
        <ele>2770</ele>
        <time>2021-02-21T07:52:09Z</time>
      </trkpt>
      <trkpt lat="44.45646" lon="6.51545">
        <ele>2770</ele>
        <time>2021-02-21T07:52:10Z</time>
      </trkpt>
      <trkpt lat="44.45646" lon="6.51545">
        <ele>2770</ele>
        <time>2021-02-21T07:52:11Z</time>
      </trkpt>
      <trkpt lat="44.45646" lon="6.51545">
        <ele>2770</ele>
        <time>2021-02-21T07:52:12Z</time>
      </trkpt>
      <trkpt lat="44.45646" lon="6.51545">
        <ele>2770</ele>
        <time>2021-02-21T07:52:13Z</time>
      </trkpt>
      <trkpt lat="44.45646" lon="6.51545">
        <ele>2770</ele>
        <time>2021-02-21T07:52:14Z</time>
      </trkpt>
      <trkpt lat="44.45646" lon="6.51545">
        <ele>2770</ele>
        <time>2021-02-21T07:52:15Z</time>
      </trkpt>
      <trkpt lat="44.45647" lon="6.51548">
        <ele>2770</ele>
        <time>2021-02-21T07:52:17Z</time>
      </trkpt>
      <trkpt lat="44.45647" lon="6.51549">
        <ele>2769</ele>
        <time>2021-02-21T07:52:18Z</time>
      </trkpt>
      <trkpt lat="44.45647" lon="6.51549">
        <ele>2769</ele>
        <time>2021-02-21T07:52:19Z</time>
      </trkpt>
      <trkpt lat="44.45647" lon="6.51549">
        <ele>2769</ele>
        <time>2021-02-21T07:52:20Z</time>
      </trkpt>
      <trkpt lat="44.45647" lon="6.51549">
        <ele>2769</ele>
        <time>2021-02-21T07:52:21Z</time>
      </trkpt>
      <trkpt lat="44.4565" lon="6.51574">
        <ele>2770</ele>
        <time>2021-02-21T07:52:22Z</time>
      </trkpt>
      <trkpt lat="44.45651" lon="6.51587">
        <ele>2771</ele>
        <time>2021-02-21T07:52:23Z</time>
      </trkpt>
      <trkpt lat="44.45652" lon="6.51602">
        <ele>2771</ele>
        <time>2021-02-21T07:52:24Z</time>
      </trkpt>
      <trkpt lat="44.45652" lon="6.51611">
        <ele>2771</ele>
        <time>2021-02-21T07:52:25Z</time>
      </trkpt>
      <trkpt lat="44.45652" lon="6.51611">
        <ele>2771</ele>
        <time>2021-02-21T07:52:26Z</time>
      </trkpt>
      <trkpt lat="44.45651" lon="6.51635">
        <ele>2771</ele>
        <time>2021-02-21T07:52:27Z</time>
      </trkpt>
      <trkpt lat="44.4565" lon="6.51642">
        <ele>2772</ele>
        <time>2021-02-21T07:52:28Z</time>
      </trkpt>
      <trkpt lat="44.45649" lon="6.51646">
        <ele>2772</ele>
        <time>2021-02-21T07:52:29Z</time>
      </trkpt>
      <trkpt lat="44.45648" lon="6.51645">
        <ele>2772</ele>
        <time>2021-02-21T07:52:30Z</time>
      </trkpt>
      <trkpt lat="44.45646" lon="6.51654">
        <ele>2773</ele>
        <time>2021-02-21T07:52:31Z</time>
      </trkpt>
      <trkpt lat="44.45647" lon="6.5166">
        <ele>2773</ele>
        <time>2021-02-21T07:52:32Z</time>
      </trkpt>
      <trkpt lat="44.45647" lon="6.51662">
        <ele>2773</ele>
        <time>2021-02-21T07:52:33Z</time>
      </trkpt>
      <trkpt lat="44.45647" lon="6.51662">
        <ele>2773</ele>
        <time>2021-02-21T07:52:34Z</time>
      </trkpt>
      <trkpt lat="44.45646" lon="6.51662">
        <ele>2774</ele>
        <time>2021-02-21T07:52:35Z</time>
      </trkpt>
      <trkpt lat="44.45646" lon="6.51661">
        <ele>2774</ele>
        <time>2021-02-21T07:52:36Z</time>
      </trkpt>
      <trkpt lat="44.45646" lon="6.51658">
        <ele>2774</ele>
        <time>2021-02-21T07:52:37Z</time>
      </trkpt>
      <trkpt lat="44.45646" lon="6.51656">
        <ele>2774</ele>
        <time>2021-02-21T07:52:38Z</time>
      </trkpt>
      <trkpt lat="44.45646" lon="6.51653">
        <ele>2775</ele>
        <time>2021-02-21T07:52:39Z</time>
      </trkpt>
      <trkpt lat="44.45646" lon="6.51653">
        <ele>2775</ele>
        <time>2021-02-21T07:52:40Z</time>
      </trkpt>
      <trkpt lat="44.45646" lon="6.51653">
        <ele>2775</ele>
        <time>2021-02-21T07:52:41Z</time>
      </trkpt>
      <trkpt lat="44.45646" lon="6.51653">
        <ele>2775</ele>
        <time>2021-02-21T07:52:42Z</time>
      </trkpt>
      <trkpt lat="44.45646" lon="6.51653">
        <ele>2775</ele>
        <time>2021-02-21T07:52:43Z</time>
      </trkpt>
      <trkpt lat="44.45646" lon="6.51653">
        <ele>2775</ele>
        <time>2021-02-21T07:52:44Z</time>
      </trkpt>
      <trkpt lat="44.45646" lon="6.51653">
        <ele>2775</ele>
        <time>2021-02-21T07:52:45Z</time>
      </trkpt>
      <trkpt lat="44.45646" lon="6.51639">
        <ele>2777</ele>
        <time>2021-02-21T07:52:46Z</time>
      </trkpt>
      <trkpt lat="44.45646" lon="6.51638">
        <ele>2778</ele>
        <time>2021-02-21T07:52:47Z</time>
      </trkpt>
      <trkpt lat="44.45646" lon="6.51636">
        <ele>2778</ele>
        <time>2021-02-21T07:52:48Z</time>
      </trkpt>
      <trkpt lat="44.45646" lon="6.51634">
        <ele>2779</ele>
        <time>2021-02-21T07:52:49Z</time>
      </trkpt>
      <trkpt lat="44.45646" lon="6.51634">
        <ele>2779</ele>
        <time>2021-02-21T07:52:50Z</time>
      </trkpt>
      <trkpt lat="44.45646" lon="6.51634">
        <ele>2779</ele>
        <time>2021-02-21T07:52:51Z</time>
      </trkpt>
      <trkpt lat="44.45646" lon="6.51634">
        <ele>2779</ele>
        <time>2021-02-21T07:52:52Z</time>
      </trkpt>
      <trkpt lat="44.45646" lon="6.51634">
        <ele>2779</ele>
        <time>2021-02-21T07:52:53Z</time>
      </trkpt>
      <trkpt lat="44.45646" lon="6.51634">
        <ele>2779</ele>
        <time>2021-02-21T07:52:54Z</time>
      </trkpt>
      <trkpt lat="44.45646" lon="6.51634">
        <ele>2779</ele>
        <time>2021-02-21T07:52:55Z</time>
      </trkpt>
      <trkpt lat="44.45646" lon="6.51628">
        <ele>2780</ele>
        <time>2021-02-21T07:52:56Z</time>
      </trkpt>
      <trkpt lat="44.45646" lon="6.51627">
        <ele>2780</ele>
        <time>2021-02-21T07:52:57Z</time>
      </trkpt>
      <trkpt lat="44.45646" lon="6.51625">
        <ele>2780</ele>
        <time>2021-02-21T07:52:58Z</time>
      </trkpt>
      <trkpt lat="44.45645" lon="6.51624">
        <ele>2780</ele>
        <time>2021-02-21T07:52:59Z</time>
      </trkpt>
      <trkpt lat="44.45645" lon="6.51624">
        <ele>2780</ele>
        <time>2021-02-21T07:53:00Z</time>
      </trkpt>
      <trkpt lat="44.45645" lon="6.51624">
        <ele>2780</ele>
        <time>2021-02-21T07:53:01Z</time>
      </trkpt>
      <trkpt lat="44.45645" lon="6.51624">
        <ele>2780</ele>
        <time>2021-02-21T07:53:02Z</time>
      </trkpt>
      <trkpt lat="44.45645" lon="6.51624">
        <ele>2780</ele>
        <time>2021-02-21T07:53:03Z</time>
      </trkpt>
      <trkpt lat="44.45645" lon="6.51624">
        <ele>2780</ele>
        <time>2021-02-21T07:53:04Z</time>
      </trkpt>
      <trkpt lat="44.45645" lon="6.51624">
        <ele>2780</ele>
        <time>2021-02-21T07:53:05Z</time>
      </trkpt>
      <trkpt lat="44.45647" lon="6.5161">
        <ele>2780</ele>
        <time>2021-02-21T07:53:06Z</time>
      </trkpt>
      <trkpt lat="44.45647" lon="6.51607">
        <ele>2780</ele>
        <time>2021-02-21T07:53:07Z</time>
      </trkpt>
      <trkpt lat="44.45646" lon="6.51604">
        <ele>2780</ele>
        <time>2021-02-21T07:53:08Z</time>
      </trkpt>
      <trkpt lat="44.45647" lon="6.51603">
        <ele>2780</ele>
        <time>2021-02-21T07:53:09Z</time>
      </trkpt>
      <trkpt lat="44.45647" lon="6.51603">
        <ele>2780</ele>
        <time>2021-02-21T07:53:10Z</time>
      </trkpt>
      <trkpt lat="44.45647" lon="6.51603">
        <ele>2780</ele>
        <time>2021-02-21T07:53:11Z</time>
      </trkpt>
      <trkpt lat="44.45647" lon="6.51603">
        <ele>2780</ele>
        <time>2021-02-21T07:53:12Z</time>
      </trkpt>
      <trkpt lat="44.45647" lon="6.51603">
        <ele>2780</ele>
        <time>2021-02-21T07:53:13Z</time>
      </trkpt>
      <trkpt lat="44.45648" lon="6.51589">
        <ele>2780</ele>
        <time>2021-02-21T07:53:14Z</time>
      </trkpt>
      <trkpt lat="44.45648" lon="6.51586">
        <ele>2780</ele>
        <time>2021-02-21T07:53:15Z</time>
      </trkpt>
      <trkpt lat="44.45649" lon="6.51585">
        <ele>2780</ele>
        <time>2021-02-21T07:53:16Z</time>
      </trkpt>
      <trkpt lat="44.45648" lon="6.51582">
        <ele>2779</ele>
        <time>2021-02-21T07:53:17Z</time>
      </trkpt>
      <trkpt lat="44.45648" lon="6.51582">
        <ele>2779</ele>
        <time>2021-02-21T07:53:18Z</time>
      </trkpt>
      <trkpt lat="44.4565" lon="6.51572">
        <ele>2779</ele>
        <time>2021-02-21T07:53:19Z</time>
      </trkpt>
      <trkpt lat="44.45651" lon="6.51552">
        <ele>2777</ele>
        <time>2021-02-21T07:53:20Z</time>
      </trkpt>
      <trkpt lat="44.45651" lon="6.51551">
        <ele>2777</ele>
        <time>2021-02-21T07:53:21Z</time>
      </trkpt>
      <trkpt lat="44.45651" lon="6.51551">
        <ele>2777</ele>
        <time>2021-02-21T07:53:22Z</time>
      </trkpt>
      <trkpt lat="44.45652" lon="6.51549">
        <ele>2777</ele>
        <time>2021-02-21T07:53:23Z</time>
      </trkpt>
      <trkpt lat="44.45652" lon="6.51548">
        <ele>2777</ele>
        <time>2021-02-21T07:53:24Z</time>
      </trkpt>
      <trkpt lat="44.45651" lon="6.51547">
        <ele>2777</ele>
        <time>2021-02-21T07:53:25Z</time>
      </trkpt>
      <trkpt lat="44.45651" lon="6.51546">
        <ele>2777</ele>
        <time>2021-02-21T07:53:26Z</time>
      </trkpt>
      <trkpt lat="44.45651" lon="6.51545">
        <ele>2777</ele>
        <time>2021-02-21T07:53:27Z</time>
      </trkpt>
      <trkpt lat="44.45651" lon="6.51544">
        <ele>2777</ele>
        <time>2021-02-21T07:53:28Z</time>
      </trkpt>
      <trkpt lat="44.45651" lon="6.51544">
        <ele>2778</ele>
        <time>2021-02-21T07:53:29Z</time>
      </trkpt>
      <trkpt lat="44.45651" lon="6.51543">
        <ele>2778</ele>
        <time>2021-02-21T07:53:30Z</time>
      </trkpt>
      <trkpt lat="44.45651" lon="6.51542">
        <ele>2778</ele>
        <time>2021-02-21T07:53:31Z</time>
      </trkpt>
      <trkpt lat="44.45651" lon="6.51542">
        <ele>2778</ele>
        <time>2021-02-21T07:53:32Z</time>
      </trkpt>
      <trkpt lat="44.45651" lon="6.51542">
        <ele>2778</ele>
        <time>2021-02-21T07:53:33Z</time>
      </trkpt>
      <trkpt lat="44.4565" lon="6.51542">
        <ele>2778</ele>
        <time>2021-02-21T07:53:34Z</time>
      </trkpt>
      <trkpt lat="44.4565" lon="6.51541">
        <ele>2778</ele>
        <time>2021-02-21T07:53:35Z</time>
      </trkpt>
      <trkpt lat="44.4565" lon="6.51541">
        <ele>2778</ele>
        <time>2021-02-21T07:53:36Z</time>
      </trkpt>
      <trkpt lat="44.4565" lon="6.51541">
        <ele>2778</ele>
        <time>2021-02-21T07:53:37Z</time>
      </trkpt>
      <trkpt lat="44.4565" lon="6.51541">
        <ele>2778</ele>
        <time>2021-02-21T07:53:38Z</time>
      </trkpt>
      <trkpt lat="44.4565" lon="6.51541">
        <ele>2778</ele>
        <time>2021-02-21T07:53:39Z</time>
      </trkpt>
      <trkpt lat="44.4565" lon="6.51541">
        <ele>2778</ele>
        <time>2021-02-21T07:53:40Z</time>
      </trkpt>
      <trkpt lat="44.4565" lon="6.51541">
        <ele>2778</ele>
        <time>2021-02-21T07:53:41Z</time>
      </trkpt>
      <trkpt lat="44.4565" lon="6.51541">
        <ele>2778</ele>
        <time>2021-02-21T07:53:42Z</time>
      </trkpt>
      <trkpt lat="44.4565" lon="6.51541">
        <ele>2778</ele>
        <time>2021-02-21T07:53:43Z</time>
      </trkpt>
      <trkpt lat="44.4565" lon="6.51541">
        <ele>2778</ele>
        <time>2021-02-21T07:53:44Z</time>
      </trkpt>
      <trkpt lat="44.4565" lon="6.51541">
        <ele>2778</ele>
        <time>2021-02-21T07:53:45Z</time>
      </trkpt>
      <trkpt lat="44.4565" lon="6.51541">
        <ele>2778</ele>
        <time>2021-02-21T07:53:46Z</time>
      </trkpt>
      <trkpt lat="44.4565" lon="6.51541">
        <ele>2778</ele>
        <time>2021-02-21T07:53:47Z</time>
      </trkpt>
      <trkpt lat="44.4565" lon="6.51541">
        <ele>2778</ele>
        <time>2021-02-21T07:53:48Z</time>
      </trkpt>
      <trkpt lat="44.4565" lon="6.51541">
        <ele>2778</ele>
        <time>2021-02-21T07:53:49Z</time>
      </trkpt>
      <trkpt lat="44.4565" lon="6.51541">
        <ele>2778</ele>
        <time>2021-02-21T07:53:50Z</time>
      </trkpt>
      <trkpt lat="44.4565" lon="6.51541">
        <ele>2778</ele>
        <time>2021-02-21T07:53:51Z</time>
      </trkpt>
      <trkpt lat="44.45652" lon="6.51538">
        <ele>2778</ele>
        <time>2021-02-21T07:53:52Z</time>
      </trkpt>
      <trkpt lat="44.45652" lon="6.51538">
        <ele>2778</ele>
        <time>2021-02-21T07:53:53Z</time>
      </trkpt>
      <trkpt lat="44.45652" lon="6.51538">
        <ele>2778</ele>
        <time>2021-02-21T07:53:54Z</time>
      </trkpt>
      <trkpt lat="44.45651" lon="6.51537">
        <ele>2779</ele>
        <time>2021-02-21T07:53:55Z</time>
      </trkpt>
      <trkpt lat="44.45651" lon="6.51537">
        <ele>2779</ele>
        <time>2021-02-21T07:53:56Z</time>
      </trkpt>
      <trkpt lat="44.45651" lon="6.51537">
        <ele>2779</ele>
        <time>2021-02-21T07:53:57Z</time>
      </trkpt>
      <trkpt lat="44.45652" lon="6.51536">
        <ele>2779</ele>
        <time>2021-02-21T07:53:58Z</time>
      </trkpt>
      <trkpt lat="44.45652" lon="6.51536">
        <ele>2778</ele>
        <time>2021-02-21T07:53:59Z</time>
      </trkpt>
      <trkpt lat="44.45652" lon="6.51536">
        <ele>2778</ele>
        <time>2021-02-21T07:54:00Z</time>
      </trkpt>
      <trkpt lat="44.45652" lon="6.51535">
        <ele>2778</ele>
        <time>2021-02-21T07:54:01Z</time>
      </trkpt>
      <trkpt lat="44.45652" lon="6.51535">
        <ele>2778</ele>
        <time>2021-02-21T07:54:02Z</time>
      </trkpt>
      <trkpt lat="44.45652" lon="6.51535">
        <ele>2778</ele>
        <time>2021-02-21T07:54:03Z</time>
      </trkpt>
      <trkpt lat="44.45652" lon="6.51534">
        <ele>2778</ele>
        <time>2021-02-21T07:54:04Z</time>
      </trkpt>
      <trkpt lat="44.45652" lon="6.51534">
        <ele>2778</ele>
        <time>2021-02-21T07:54:05Z</time>
      </trkpt>
      <trkpt lat="44.45652" lon="6.51534">
        <ele>2778</ele>
        <time>2021-02-21T07:54:06Z</time>
      </trkpt>
      <trkpt lat="44.45652" lon="6.51534">
        <ele>2778</ele>
        <time>2021-02-21T07:54:07Z</time>
      </trkpt>
      <trkpt lat="44.45652" lon="6.51534">
        <ele>2778</ele>
        <time>2021-02-21T07:54:08Z</time>
      </trkpt>
      <trkpt lat="44.45652" lon="6.51534">
        <ele>2778</ele>
        <time>2021-02-21T07:54:09Z</time>
      </trkpt>
      <trkpt lat="44.45652" lon="6.51534">
        <ele>2778</ele>
        <time>2021-02-21T07:54:10Z</time>
      </trkpt>
      <trkpt lat="44.45652" lon="6.51534">
        <ele>2778</ele>
        <time>2021-02-21T07:54:11Z</time>
      </trkpt>
      <trkpt lat="44.45652" lon="6.51534">
        <ele>2778</ele>
        <time>2021-02-21T07:54:12Z</time>
      </trkpt>
      <trkpt lat="44.45652" lon="6.51534">
        <ele>2778</ele>
        <time>2021-02-21T07:54:13Z</time>
      </trkpt>
      <trkpt lat="44.45655" lon="6.51531">
        <ele>2779</ele>
        <time>2021-02-21T07:54:14Z</time>
      </trkpt>
      <trkpt lat="44.45655" lon="6.5153">
        <ele>2779</ele>
        <time>2021-02-21T07:54:15Z</time>
      </trkpt>
      <trkpt lat="44.45655" lon="6.51531">
        <ele>2779</ele>
        <time>2021-02-21T07:54:16Z</time>
      </trkpt>
      <trkpt lat="44.45655" lon="6.5153">
        <ele>2779</ele>
        <time>2021-02-21T07:54:17Z</time>
      </trkpt>
      <trkpt lat="44.45655" lon="6.51529">
        <ele>2779</ele>
        <time>2021-02-21T07:54:18Z</time>
      </trkpt>
      <trkpt lat="44.45655" lon="6.51528">
        <ele>2779</ele>
        <time>2021-02-21T07:54:19Z</time>
      </trkpt>
      <trkpt lat="44.45655" lon="6.51528">
        <ele>2779</ele>
        <time>2021-02-21T07:54:20Z</time>
      </trkpt>
      <trkpt lat="44.45656" lon="6.51528">
        <ele>2779</ele>
        <time>2021-02-21T07:54:21Z</time>
      </trkpt>
      <trkpt lat="44.45655" lon="6.51529">
        <ele>2779</ele>
        <time>2021-02-21T07:54:22Z</time>
      </trkpt>
      <trkpt lat="44.45656" lon="6.51529">
        <ele>2779</ele>
        <time>2021-02-21T07:54:23Z</time>
      </trkpt>
      <trkpt lat="44.45656" lon="6.5153">
        <ele>2779</ele>
        <time>2021-02-21T07:54:24Z</time>
      </trkpt>
      <trkpt lat="44.45655" lon="6.51531">
        <ele>2779</ele>
        <time>2021-02-21T07:54:25Z</time>
      </trkpt>
      <trkpt lat="44.45655" lon="6.51531">
        <ele>2779</ele>
        <time>2021-02-21T07:54:26Z</time>
      </trkpt>
      <trkpt lat="44.45655" lon="6.5153">
        <ele>2779</ele>
        <time>2021-02-21T07:54:27Z</time>
      </trkpt>
      <trkpt lat="44.45655" lon="6.5153">
        <ele>2780</ele>
        <time>2021-02-21T07:54:28Z</time>
      </trkpt>
      <trkpt lat="44.45655" lon="6.51529">
        <ele>2780</ele>
        <time>2021-02-21T07:54:29Z</time>
      </trkpt>
      <trkpt lat="44.45655" lon="6.5153">
        <ele>2780</ele>
        <time>2021-02-21T07:54:30Z</time>
      </trkpt>
      <trkpt lat="44.45655" lon="6.5153">
        <ele>2780</ele>
        <time>2021-02-21T07:54:31Z</time>
      </trkpt>
      <trkpt lat="44.45655" lon="6.5153">
        <ele>2780</ele>
        <time>2021-02-21T07:54:32Z</time>
      </trkpt>
      <trkpt lat="44.45655" lon="6.5153">
        <ele>2780</ele>
        <time>2021-02-21T07:54:33Z</time>
      </trkpt>
      <trkpt lat="44.45655" lon="6.51529">
        <ele>2780</ele>
        <time>2021-02-21T07:54:34Z</time>
      </trkpt>
      <trkpt lat="44.45656" lon="6.51529">
        <ele>2780</ele>
        <time>2021-02-21T07:54:35Z</time>
      </trkpt>
      <trkpt lat="44.45656" lon="6.51529">
        <ele>2781</ele>
        <time>2021-02-21T07:54:36Z</time>
      </trkpt>
      <trkpt lat="44.45657" lon="6.51529">
        <ele>2781</ele>
        <time>2021-02-21T07:54:37Z</time>
      </trkpt>
      <trkpt lat="44.45657" lon="6.51529">
        <ele>2781</ele>
        <time>2021-02-21T07:54:38Z</time>
      </trkpt>
      <trkpt lat="44.45657" lon="6.51529">
        <ele>2781</ele>
        <time>2021-02-21T07:54:39Z</time>
      </trkpt>
      <trkpt lat="44.45657" lon="6.51529">
        <ele>2781</ele>
        <time>2021-02-21T07:54:40Z</time>
      </trkpt>
      <trkpt lat="44.45657" lon="6.51528">
        <ele>2781</ele>
        <time>2021-02-21T07:54:41Z</time>
      </trkpt>
      <trkpt lat="44.45656" lon="6.51529">
        <ele>2782</ele>
        <time>2021-02-21T07:54:42Z</time>
      </trkpt>
      <trkpt lat="44.45655" lon="6.51529">
        <ele>2782</ele>
        <time>2021-02-21T07:54:43Z</time>
      </trkpt>
      <trkpt lat="44.45656" lon="6.51528">
        <ele>2782</ele>
        <time>2021-02-21T07:54:44Z</time>
      </trkpt>
      <trkpt lat="44.45656" lon="6.51527">
        <ele>2782</ele>
        <time>2021-02-21T07:54:45Z</time>
      </trkpt>
      <trkpt lat="44.45656" lon="6.51527">
        <ele>2782</ele>
        <time>2021-02-21T07:54:46Z</time>
      </trkpt>
      <trkpt lat="44.45656" lon="6.51527">
        <ele>2782</ele>
        <time>2021-02-21T07:54:47Z</time>
      </trkpt>
      <trkpt lat="44.45656" lon="6.51527">
        <ele>2782</ele>
        <time>2021-02-21T07:54:48Z</time>
      </trkpt>
      <trkpt lat="44.45656" lon="6.51527">
        <ele>2782</ele>
        <time>2021-02-21T07:54:49Z</time>
      </trkpt>
      <trkpt lat="44.45656" lon="6.51527">
        <ele>2782</ele>
        <time>2021-02-21T07:54:50Z</time>
      </trkpt>
      <trkpt lat="44.45656" lon="6.51527">
        <ele>2782</ele>
        <time>2021-02-21T07:54:51Z</time>
      </trkpt>
      <trkpt lat="44.45656" lon="6.51527">
        <ele>2783</ele>
        <time>2021-02-21T07:54:52Z</time>
      </trkpt>
      <trkpt lat="44.45656" lon="6.51527">
        <ele>2783</ele>
        <time>2021-02-21T07:54:53Z</time>
      </trkpt>
      <trkpt lat="44.45656" lon="6.51527">
        <ele>2783</ele>
        <time>2021-02-21T07:54:54Z</time>
      </trkpt>
      <trkpt lat="44.45657" lon="6.51525">
        <ele>2785</ele>
        <time>2021-02-21T07:54:55Z</time>
      </trkpt>
      <trkpt lat="44.45657" lon="6.51525">
        <ele>2786</ele>
        <time>2021-02-21T07:54:56Z</time>
      </trkpt>
      <trkpt lat="44.45657" lon="6.51525">
        <ele>2786</ele>
        <time>2021-02-21T07:54:57Z</time>
      </trkpt>
      <trkpt lat="44.45657" lon="6.51525">
        <ele>2787</ele>
        <time>2021-02-21T07:54:58Z</time>
      </trkpt>
      <trkpt lat="44.45656" lon="6.51525">
        <ele>2787</ele>
        <time>2021-02-21T07:54:59Z</time>
      </trkpt>
      <trkpt lat="44.45656" lon="6.51525">
        <ele>2787</ele>
        <time>2021-02-21T07:55:00Z</time>
      </trkpt>
      <trkpt lat="44.45656" lon="6.51525">
        <ele>2787</ele>
        <time>2021-02-21T07:55:01Z</time>
      </trkpt>
      <trkpt lat="44.45656" lon="6.51525">
        <ele>2787</ele>
        <time>2021-02-21T07:55:02Z</time>
      </trkpt>
      <trkpt lat="44.45656" lon="6.51524">
        <ele>2787</ele>
        <time>2021-02-21T07:55:03Z</time>
      </trkpt>
      <trkpt lat="44.45656" lon="6.51524">
        <ele>2787</ele>
        <time>2021-02-21T07:55:04Z</time>
      </trkpt>
      <trkpt lat="44.45657" lon="6.51523">
        <ele>2787</ele>
        <time>2021-02-21T07:55:05Z</time>
      </trkpt>
      <trkpt lat="44.45658" lon="6.51524">
        <ele>2787</ele>
        <time>2021-02-21T07:55:06Z</time>
      </trkpt>
      <trkpt lat="44.45655" lon="6.51522">
        <ele>2787</ele>
        <time>2021-02-21T07:55:07Z</time>
      </trkpt>
      <trkpt lat="44.45655" lon="6.51521">
        <ele>2787</ele>
        <time>2021-02-21T07:55:08Z</time>
      </trkpt>
      <trkpt lat="44.45655" lon="6.51521">
        <ele>2787</ele>
        <time>2021-02-21T07:55:09Z</time>
      </trkpt>
      <trkpt lat="44.45655" lon="6.51522">
        <ele>2787</ele>
        <time>2021-02-21T07:55:10Z</time>
      </trkpt>
      <trkpt lat="44.45655" lon="6.51522">
        <ele>2787</ele>
        <time>2021-02-21T07:55:11Z</time>
      </trkpt>
      <trkpt lat="44.45656" lon="6.51522">
        <ele>2787</ele>
        <time>2021-02-21T07:55:12Z</time>
      </trkpt>
      <trkpt lat="44.45655" lon="6.51522">
        <ele>2787</ele>
        <time>2021-02-21T07:55:13Z</time>
      </trkpt>
      <trkpt lat="44.45656" lon="6.51522">
        <ele>2787</ele>
        <time>2021-02-21T07:55:14Z</time>
      </trkpt>
      <trkpt lat="44.45654" lon="6.51522">
        <ele>2787</ele>
        <time>2021-02-21T07:55:15Z</time>
      </trkpt>
      <trkpt lat="44.45654" lon="6.51522">
        <ele>2787</ele>
        <time>2021-02-21T07:55:16Z</time>
      </trkpt>
      <trkpt lat="44.45654" lon="6.51522">
        <ele>2787</ele>
        <time>2021-02-21T07:55:17Z</time>
      </trkpt>
      <trkpt lat="44.45653" lon="6.51522">
        <ele>2787</ele>
        <time>2021-02-21T07:55:18Z</time>
      </trkpt>
      <trkpt lat="44.45653" lon="6.51521">
        <ele>2786</ele>
        <time>2021-02-21T07:55:19Z</time>
      </trkpt>
      <trkpt lat="44.45653" lon="6.51521">
        <ele>2786</ele>
        <time>2021-02-21T07:55:20Z</time>
      </trkpt>
      <trkpt lat="44.45652" lon="6.51521">
        <ele>2786</ele>
        <time>2021-02-21T07:55:21Z</time>
      </trkpt>
      <trkpt lat="44.45652" lon="6.51521">
        <ele>2786</ele>
        <time>2021-02-21T07:55:22Z</time>
      </trkpt>
      <trkpt lat="44.45653" lon="6.51521">
        <ele>2786</ele>
        <time>2021-02-21T07:55:23Z</time>
      </trkpt>
      <trkpt lat="44.45653" lon="6.5152">
        <ele>2786</ele>
        <time>2021-02-21T07:55:24Z</time>
      </trkpt>
      <trkpt lat="44.45654" lon="6.5152">
        <ele>2786</ele>
        <time>2021-02-21T07:55:25Z</time>
      </trkpt>
      <trkpt lat="44.45654" lon="6.5152">
        <ele>2786</ele>
        <time>2021-02-21T07:55:26Z</time>
      </trkpt>
      <trkpt lat="44.45654" lon="6.5152">
        <ele>2786</ele>
        <time>2021-02-21T07:55:27Z</time>
      </trkpt>
      <trkpt lat="44.45654" lon="6.5152">
        <ele>2786</ele>
        <time>2021-02-21T07:55:28Z</time>
      </trkpt>
      <trkpt lat="44.45654" lon="6.5152">
        <ele>2786</ele>
        <time>2021-02-21T07:55:29Z</time>
      </trkpt>
      <trkpt lat="44.45654" lon="6.5152">
        <ele>2786</ele>
        <time>2021-02-21T07:55:30Z</time>
      </trkpt>
      <trkpt lat="44.45654" lon="6.5152">
        <ele>2786</ele>
        <time>2021-02-21T07:55:31Z</time>
      </trkpt>
      <trkpt lat="44.45654" lon="6.5152">
        <ele>2786</ele>
        <time>2021-02-21T07:55:32Z</time>
      </trkpt>
      <trkpt lat="44.45654" lon="6.5152">
        <ele>2786</ele>
        <time>2021-02-21T07:55:33Z</time>
      </trkpt>
      <trkpt lat="44.45654" lon="6.5152">
        <ele>2786</ele>
        <time>2021-02-21T07:55:34Z</time>
      </trkpt>
      <trkpt lat="44.45654" lon="6.5152">
        <ele>2786</ele>
        <time>2021-02-21T07:55:35Z</time>
      </trkpt>
      <trkpt lat="44.45654" lon="6.5152">
        <ele>2786</ele>
        <time>2021-02-21T07:55:36Z</time>
      </trkpt>
      <trkpt lat="44.45654" lon="6.5152">
        <ele>2786</ele>
        <time>2021-02-21T07:55:37Z</time>
      </trkpt>
      <trkpt lat="44.45654" lon="6.5152">
        <ele>2786</ele>
        <time>2021-02-21T07:55:38Z</time>
      </trkpt>
      <trkpt lat="44.45654" lon="6.5152">
        <ele>2786</ele>
        <time>2021-02-21T07:55:39Z</time>
      </trkpt>
      <trkpt lat="44.45654" lon="6.5152">
        <ele>2786</ele>
        <time>2021-02-21T07:55:40Z</time>
      </trkpt>
      <trkpt lat="44.45654" lon="6.5152">
        <ele>2786</ele>
        <time>2021-02-21T07:55:41Z</time>
      </trkpt>
      <trkpt lat="44.45657" lon="6.51517">
        <ele>2786</ele>
        <time>2021-02-21T07:55:42Z</time>
      </trkpt>
      <trkpt lat="44.45657" lon="6.51518">
        <ele>2787</ele>
        <time>2021-02-21T07:55:43Z</time>
      </trkpt>
      <trkpt lat="44.45656" lon="6.51518">
        <ele>2787</ele>
        <time>2021-02-21T07:55:44Z</time>
      </trkpt>
      <trkpt lat="44.45656" lon="6.51519">
        <ele>2787</ele>
        <time>2021-02-21T07:55:45Z</time>
      </trkpt>
      <trkpt lat="44.45656" lon="6.51519">
        <ele>2787</ele>
        <time>2021-02-21T07:55:46Z</time>
      </trkpt>
      <trkpt lat="44.45656" lon="6.51519">
        <ele>2787</ele>
        <time>2021-02-21T07:55:47Z</time>
      </trkpt>
      <trkpt lat="44.45656" lon="6.51519">
        <ele>2787</ele>
        <time>2021-02-21T07:55:48Z</time>
      </trkpt>
      <trkpt lat="44.45657" lon="6.51517">
        <ele>2787</ele>
        <time>2021-02-21T07:55:49Z</time>
      </trkpt>
      <trkpt lat="44.45658" lon="6.51517">
        <ele>2787</ele>
        <time>2021-02-21T07:55:50Z</time>
      </trkpt>
      <trkpt lat="44.45658" lon="6.51517">
        <ele>2787</ele>
        <time>2021-02-21T07:55:51Z</time>
      </trkpt>
      <trkpt lat="44.45658" lon="6.51516">
        <ele>2787</ele>
        <time>2021-02-21T07:55:52Z</time>
      </trkpt>
      <trkpt lat="44.45658" lon="6.51516">
        <ele>2787</ele>
        <time>2021-02-21T07:55:53Z</time>
      </trkpt>
      <trkpt lat="44.45658" lon="6.51516">
        <ele>2787</ele>
        <time>2021-02-21T07:55:54Z</time>
      </trkpt>
      <trkpt lat="44.45658" lon="6.51516">
        <ele>2787</ele>
        <time>2021-02-21T07:55:55Z</time>
      </trkpt>
      <trkpt lat="44.45658" lon="6.51516">
        <ele>2787</ele>
        <time>2021-02-21T07:55:56Z</time>
      </trkpt>
      <trkpt lat="44.45658" lon="6.51516">
        <ele>2787</ele>
        <time>2021-02-21T07:55:57Z</time>
      </trkpt>
      <trkpt lat="44.45658" lon="6.51514">
        <ele>2787</ele>
        <time>2021-02-21T07:55:58Z</time>
      </trkpt>
      <trkpt lat="44.45659" lon="6.51514">
        <ele>2788</ele>
        <time>2021-02-21T07:55:59Z</time>
      </trkpt>
      <trkpt lat="44.45659" lon="6.51514">
        <ele>2788</ele>
        <time>2021-02-21T07:56:00Z</time>
      </trkpt>
      <trkpt lat="44.45659" lon="6.51514">
        <ele>2788</ele>
        <time>2021-02-21T07:56:01Z</time>
      </trkpt>
      <trkpt lat="44.45659" lon="6.51514">
        <ele>2788</ele>
        <time>2021-02-21T07:56:02Z</time>
      </trkpt>
      <trkpt lat="44.45659" lon="6.51514">
        <ele>2788</ele>
        <time>2021-02-21T07:56:03Z</time>
      </trkpt>
      <trkpt lat="44.45659" lon="6.51514">
        <ele>2788</ele>
        <time>2021-02-21T07:56:04Z</time>
      </trkpt>
      <trkpt lat="44.45659" lon="6.51514">
        <ele>2788</ele>
        <time>2021-02-21T07:56:05Z</time>
      </trkpt>
      <trkpt lat="44.45659" lon="6.51514">
        <ele>2788</ele>
        <time>2021-02-21T07:56:06Z</time>
      </trkpt>
      <trkpt lat="44.45659" lon="6.51514">
        <ele>2788</ele>
        <time>2021-02-21T07:56:07Z</time>
      </trkpt>
      <trkpt lat="44.45659" lon="6.51514">
        <ele>2788</ele>
        <time>2021-02-21T07:56:08Z</time>
      </trkpt>
      <trkpt lat="44.45659" lon="6.51514">
        <ele>2788</ele>
        <time>2021-02-21T07:56:09Z</time>
      </trkpt>
      <trkpt lat="44.45659" lon="6.51514">
        <ele>2788</ele>
        <time>2021-02-21T07:56:10Z</time>
      </trkpt>
      <trkpt lat="44.45659" lon="6.51514">
        <ele>2788</ele>
        <time>2021-02-21T07:56:11Z</time>
      </trkpt>
      <trkpt lat="44.45659" lon="6.51514">
        <ele>2788</ele>
        <time>2021-02-21T07:56:12Z</time>
      </trkpt>
      <trkpt lat="44.45659" lon="6.51514">
        <ele>2788</ele>
        <time>2021-02-21T07:56:13Z</time>
      </trkpt>
      <trkpt lat="44.45659" lon="6.51514">
        <ele>2788</ele>
        <time>2021-02-21T07:56:14Z</time>
      </trkpt>
      <trkpt lat="44.45659" lon="6.51514">
        <ele>2788</ele>
        <time>2021-02-21T07:56:15Z</time>
      </trkpt>
      <trkpt lat="44.45659" lon="6.51514">
        <ele>2788</ele>
        <time>2021-02-21T07:56:16Z</time>
      </trkpt>
      <trkpt lat="44.45659" lon="6.51514">
        <ele>2788</ele>
        <time>2021-02-21T07:56:17Z</time>
      </trkpt>
      <trkpt lat="44.45659" lon="6.51514">
        <ele>2788</ele>
        <time>2021-02-21T07:56:18Z</time>
      </trkpt>
      <trkpt lat="44.45659" lon="6.51514">
        <ele>2788</ele>
        <time>2021-02-21T07:56:19Z</time>
      </trkpt>
      <trkpt lat="44.45659" lon="6.51514">
        <ele>2788</ele>
        <time>2021-02-21T07:56:20Z</time>
      </trkpt>
      <trkpt lat="44.45659" lon="6.51514">
        <ele>2788</ele>
        <time>2021-02-21T07:56:21Z</time>
      </trkpt>
      <trkpt lat="44.45659" lon="6.51514">
        <ele>2788</ele>
        <time>2021-02-21T07:56:22Z</time>
      </trkpt>
      <trkpt lat="44.45659" lon="6.51514">
        <ele>2788</ele>
        <time>2021-02-21T07:56:23Z</time>
      </trkpt>
      <trkpt lat="44.45659" lon="6.51514">
        <ele>2788</ele>
        <time>2021-02-21T07:56:24Z</time>
      </trkpt>
      <trkpt lat="44.45659" lon="6.51514">
        <ele>2788</ele>
        <time>2021-02-21T07:56:25Z</time>
      </trkpt>
      <trkpt lat="44.45659" lon="6.51514">
        <ele>2788</ele>
        <time>2021-02-21T07:56:26Z</time>
      </trkpt>
      <trkpt lat="44.45659" lon="6.51514">
        <ele>2788</ele>
        <time>2021-02-21T07:56:27Z</time>
      </trkpt>
      <trkpt lat="44.45659" lon="6.51514">
        <ele>2788</ele>
        <time>2021-02-21T07:56:28Z</time>
      </trkpt>
      <trkpt lat="44.45659" lon="6.51514">
        <ele>2788</ele>
        <time>2021-02-21T07:56:29Z</time>
      </trkpt>
      <trkpt lat="44.45659" lon="6.51514">
        <ele>2788</ele>
        <time>2021-02-21T07:56:30Z</time>
      </trkpt>
      <trkpt lat="44.45659" lon="6.51514">
        <ele>2788</ele>
        <time>2021-02-21T07:56:31Z</time>
      </trkpt>
      <trkpt lat="44.45659" lon="6.51514">
        <ele>2788</ele>
        <time>2021-02-21T07:56:32Z</time>
      </trkpt>
      <trkpt lat="44.45659" lon="6.51514">
        <ele>2788</ele>
        <time>2021-02-21T07:56:33Z</time>
      </trkpt>
      <trkpt lat="44.45659" lon="6.51514">
        <ele>2788</ele>
        <time>2021-02-21T07:56:34Z</time>
      </trkpt>
      <trkpt lat="44.45659" lon="6.51514">
        <ele>2789</ele>
        <time>2021-02-21T07:56:35Z</time>
      </trkpt>
      <trkpt lat="44.45659" lon="6.51514">
        <ele>2789</ele>
        <time>2021-02-21T07:56:36Z</time>
      </trkpt>
      <trkpt lat="44.45659" lon="6.51514">
        <ele>2789</ele>
        <time>2021-02-21T07:56:37Z</time>
      </trkpt>
      <trkpt lat="44.45659" lon="6.51514">
        <ele>2789</ele>
        <time>2021-02-21T07:56:38Z</time>
      </trkpt>
      <trkpt lat="44.45659" lon="6.51514">
        <ele>2789</ele>
        <time>2021-02-21T07:56:39Z</time>
      </trkpt>
      <trkpt lat="44.45659" lon="6.51514">
        <ele>2789</ele>
        <time>2021-02-21T07:56:40Z</time>
      </trkpt>
      <trkpt lat="44.45659" lon="6.51514">
        <ele>2789</ele>
        <time>2021-02-21T07:56:41Z</time>
      </trkpt>
      <trkpt lat="44.45659" lon="6.51514">
        <ele>2789</ele>
        <time>2021-02-21T07:56:42Z</time>
      </trkpt>
      <trkpt lat="44.45659" lon="6.51514">
        <ele>2789</ele>
        <time>2021-02-21T07:56:43Z</time>
      </trkpt>
      <trkpt lat="44.45659" lon="6.51514">
        <ele>2789</ele>
        <time>2021-02-21T07:56:44Z</time>
      </trkpt>
      <trkpt lat="44.45659" lon="6.51514">
        <ele>2789</ele>
        <time>2021-02-21T07:56:45Z</time>
      </trkpt>
      <trkpt lat="44.45659" lon="6.51514">
        <ele>2789</ele>
        <time>2021-02-21T07:56:46Z</time>
      </trkpt>
      <trkpt lat="44.45659" lon="6.51514">
        <ele>2789</ele>
        <time>2021-02-21T07:56:47Z</time>
      </trkpt>
      <trkpt lat="44.45659" lon="6.51514">
        <ele>2789</ele>
        <time>2021-02-21T07:56:48Z</time>
      </trkpt>
      <trkpt lat="44.45659" lon="6.51514">
        <ele>2789</ele>
        <time>2021-02-21T07:56:49Z</time>
      </trkpt>
      <trkpt lat="44.45659" lon="6.51514">
        <ele>2789</ele>
        <time>2021-02-21T07:56:50Z</time>
      </trkpt>
      <trkpt lat="44.45658" lon="6.51518">
        <ele>2789</ele>
        <time>2021-02-21T07:56:51Z</time>
      </trkpt>
      <trkpt lat="44.45658" lon="6.51518">
        <ele>2789</ele>
        <time>2021-02-21T07:56:52Z</time>
      </trkpt>
      <trkpt lat="44.45658" lon="6.51519">
        <ele>2789</ele>
        <time>2021-02-21T07:56:53Z</time>
      </trkpt>
      <trkpt lat="44.45658" lon="6.51519">
        <ele>2789</ele>
        <time>2021-02-21T07:56:54Z</time>
      </trkpt>
      <trkpt lat="44.45658" lon="6.51519">
        <ele>2790</ele>
        <time>2021-02-21T07:56:55Z</time>
      </trkpt>
      <trkpt lat="44.45658" lon="6.51519">
        <ele>2790</ele>
        <time>2021-02-21T07:56:56Z</time>
      </trkpt>
      <trkpt lat="44.45658" lon="6.51519">
        <ele>2790</ele>
        <time>2021-02-21T07:56:57Z</time>
      </trkpt>
      <trkpt lat="44.45658" lon="6.51519">
        <ele>2790</ele>
        <time>2021-02-21T07:56:58Z</time>
      </trkpt>
      <trkpt lat="44.45658" lon="6.51519">
        <ele>2790</ele>
        <time>2021-02-21T07:56:59Z</time>
      </trkpt>
      <trkpt lat="44.45658" lon="6.51519">
        <ele>2790</ele>
        <time>2021-02-21T07:57:00Z</time>
      </trkpt>
      <trkpt lat="44.45658" lon="6.51519">
        <ele>2790</ele>
        <time>2021-02-21T07:57:01Z</time>
      </trkpt>
      <trkpt lat="44.45658" lon="6.51519">
        <ele>2790</ele>
        <time>2021-02-21T07:57:02Z</time>
      </trkpt>
      <trkpt lat="44.45658" lon="6.51519">
        <ele>2791</ele>
        <time>2021-02-21T07:57:03Z</time>
      </trkpt>
      <trkpt lat="44.4566" lon="6.5152">
        <ele>2791</ele>
        <time>2021-02-21T07:57:04Z</time>
      </trkpt>
      <trkpt lat="44.4566" lon="6.5152">
        <ele>2791</ele>
        <time>2021-02-21T07:57:05Z</time>
      </trkpt>
      <trkpt lat="44.45661" lon="6.5152">
        <ele>2792</ele>
        <time>2021-02-21T07:57:06Z</time>
      </trkpt>
      <trkpt lat="44.45661" lon="6.5152">
        <ele>2792</ele>
        <time>2021-02-21T07:57:07Z</time>
      </trkpt>
      <trkpt lat="44.45661" lon="6.51519">
        <ele>2792</ele>
        <time>2021-02-21T07:57:08Z</time>
      </trkpt>
      <trkpt lat="44.4566" lon="6.51519">
        <ele>2792</ele>
        <time>2021-02-21T07:57:09Z</time>
      </trkpt>
      <trkpt lat="44.4566" lon="6.51519">
        <ele>2792</ele>
        <time>2021-02-21T07:57:10Z</time>
      </trkpt>
      <trkpt lat="44.4566" lon="6.51519">
        <ele>2792</ele>
        <time>2021-02-21T07:57:11Z</time>
      </trkpt>
      <trkpt lat="44.4566" lon="6.51518">
        <ele>2792</ele>
        <time>2021-02-21T07:57:12Z</time>
      </trkpt>
      <trkpt lat="44.4566" lon="6.51518">
        <ele>2792</ele>
        <time>2021-02-21T07:57:13Z</time>
      </trkpt>
      <trkpt lat="44.45659" lon="6.51518">
        <ele>2792</ele>
        <time>2021-02-21T07:57:14Z</time>
      </trkpt>
      <trkpt lat="44.45658" lon="6.51517">
        <ele>2792</ele>
        <time>2021-02-21T07:57:15Z</time>
      </trkpt>
      <trkpt lat="44.45658" lon="6.51517">
        <ele>2792</ele>
        <time>2021-02-21T07:57:16Z</time>
      </trkpt>
      <trkpt lat="44.45658" lon="6.51517">
        <ele>2792</ele>
        <time>2021-02-21T07:57:17Z</time>
      </trkpt>
      <trkpt lat="44.45657" lon="6.51517">
        <ele>2792</ele>
        <time>2021-02-21T07:57:18Z</time>
      </trkpt>
      <trkpt lat="44.45657" lon="6.51517">
        <ele>2792</ele>
        <time>2021-02-21T07:57:19Z</time>
      </trkpt>
      <trkpt lat="44.45657" lon="6.51518">
        <ele>2792</ele>
        <time>2021-02-21T07:57:20Z</time>
      </trkpt>
      <trkpt lat="44.45658" lon="6.51518">
        <ele>2792</ele>
        <time>2021-02-21T07:57:21Z</time>
      </trkpt>
      <trkpt lat="44.45658" lon="6.51518">
        <ele>2792</ele>
        <time>2021-02-21T07:57:22Z</time>
      </trkpt>
      <trkpt lat="44.45658" lon="6.51518">
        <ele>2791</ele>
        <time>2021-02-21T07:57:23Z</time>
      </trkpt>
      <trkpt lat="44.45658" lon="6.51518">
        <ele>2791</ele>
        <time>2021-02-21T07:57:24Z</time>
      </trkpt>
      <trkpt lat="44.45658" lon="6.51518">
        <ele>2791</ele>
        <time>2021-02-21T07:57:25Z</time>
      </trkpt>
      <trkpt lat="44.45659" lon="6.51518">
        <ele>2791</ele>
        <time>2021-02-21T07:57:26Z</time>
      </trkpt>
      <trkpt lat="44.45659" lon="6.51518">
        <ele>2791</ele>
        <time>2021-02-21T07:57:27Z</time>
      </trkpt>
      <trkpt lat="44.45659" lon="6.51518">
        <ele>2791</ele>
        <time>2021-02-21T07:57:28Z</time>
      </trkpt>
      <trkpt lat="44.45659" lon="6.51518">
        <ele>2791</ele>
        <time>2021-02-21T07:57:29Z</time>
      </trkpt>
      <trkpt lat="44.45659" lon="6.51518">
        <ele>2791</ele>
        <time>2021-02-21T07:57:30Z</time>
      </trkpt>
      <trkpt lat="44.45659" lon="6.51518">
        <ele>2791</ele>
        <time>2021-02-21T07:57:31Z</time>
      </trkpt>
      <trkpt lat="44.45659" lon="6.51518">
        <ele>2791</ele>
        <time>2021-02-21T07:57:32Z</time>
      </trkpt>
      <trkpt lat="44.45658" lon="6.51517">
        <ele>2791</ele>
        <time>2021-02-21T07:57:33Z</time>
      </trkpt>
      <trkpt lat="44.45658" lon="6.51516">
        <ele>2791</ele>
        <time>2021-02-21T07:57:34Z</time>
      </trkpt>
      <trkpt lat="44.45658" lon="6.51516">
        <ele>2791</ele>
        <time>2021-02-21T07:57:35Z</time>
      </trkpt>
      <trkpt lat="44.45658" lon="6.51516">
        <ele>2791</ele>
        <time>2021-02-21T07:57:36Z</time>
      </trkpt>
      <trkpt lat="44.45658" lon="6.51516">
        <ele>2791</ele>
        <time>2021-02-21T07:57:37Z</time>
      </trkpt>
      <trkpt lat="44.45658" lon="6.51516">
        <ele>2791</ele>
        <time>2021-02-21T07:57:38Z</time>
      </trkpt>
      <trkpt lat="44.45658" lon="6.51516">
        <ele>2791</ele>
        <time>2021-02-21T07:57:39Z</time>
      </trkpt>
      <trkpt lat="44.45658" lon="6.51516">
        <ele>2791</ele>
        <time>2021-02-21T07:57:40Z</time>
      </trkpt>
      <trkpt lat="44.45658" lon="6.51516">
        <ele>2791</ele>
        <time>2021-02-21T07:57:41Z</time>
      </trkpt>
      <trkpt lat="44.45658" lon="6.51516">
        <ele>2791</ele>
        <time>2021-02-21T07:57:42Z</time>
      </trkpt>
      <trkpt lat="44.45658" lon="6.51516">
        <ele>2791</ele>
        <time>2021-02-21T07:57:43Z</time>
      </trkpt>
      <trkpt lat="44.45658" lon="6.51516">
        <ele>2791</ele>
        <time>2021-02-21T07:57:44Z</time>
      </trkpt>
      <trkpt lat="44.45658" lon="6.51516">
        <ele>2791</ele>
        <time>2021-02-21T07:57:45Z</time>
      </trkpt>
      <trkpt lat="44.45658" lon="6.51516">
        <ele>2791</ele>
        <time>2021-02-21T07:57:46Z</time>
      </trkpt>
      <trkpt lat="44.45658" lon="6.51516">
        <ele>2791</ele>
        <time>2021-02-21T07:57:47Z</time>
      </trkpt>
      <trkpt lat="44.45658" lon="6.51516">
        <ele>2791</ele>
        <time>2021-02-21T07:57:48Z</time>
      </trkpt>
      <trkpt lat="44.45658" lon="6.51516">
        <ele>2791</ele>
        <time>2021-02-21T07:57:49Z</time>
      </trkpt>
      <trkpt lat="44.45658" lon="6.51516">
        <ele>2791</ele>
        <time>2021-02-21T07:57:50Z</time>
      </trkpt>
      <trkpt lat="44.45658" lon="6.51516">
        <ele>2790</ele>
        <time>2021-02-21T07:57:51Z</time>
      </trkpt>
      <trkpt lat="44.45658" lon="6.51516">
        <ele>2790</ele>
        <time>2021-02-21T07:57:52Z</time>
      </trkpt>
      <trkpt lat="44.45658" lon="6.51516">
        <ele>2790</ele>
        <time>2021-02-21T07:57:53Z</time>
      </trkpt>
      <trkpt lat="44.45658" lon="6.51516">
        <ele>2790</ele>
        <time>2021-02-21T07:57:54Z</time>
      </trkpt>
      <trkpt lat="44.45658" lon="6.51516">
        <ele>2790</ele>
        <time>2021-02-21T07:57:55Z</time>
      </trkpt>
      <trkpt lat="44.45658" lon="6.51516">
        <ele>2790</ele>
        <time>2021-02-21T07:57:56Z</time>
      </trkpt>
      <trkpt lat="44.45658" lon="6.51516">
        <ele>2790</ele>
        <time>2021-02-21T07:57:57Z</time>
      </trkpt>
      <trkpt lat="44.45658" lon="6.51516">
        <ele>2790</ele>
        <time>2021-02-21T07:57:58Z</time>
      </trkpt>
      <trkpt lat="44.45658" lon="6.51516">
        <ele>2790</ele>
        <time>2021-02-21T07:57:59Z</time>
      </trkpt>
      <trkpt lat="44.45658" lon="6.51516">
        <ele>2790</ele>
        <time>2021-02-21T07:58:00Z</time>
      </trkpt>
      <trkpt lat="44.45658" lon="6.51516">
        <ele>2790</ele>
        <time>2021-02-21T07:58:01Z</time>
      </trkpt>
      <trkpt lat="44.45658" lon="6.51516">
        <ele>2790</ele>
        <time>2021-02-21T07:58:02Z</time>
      </trkpt>
      <trkpt lat="44.45658" lon="6.51516">
        <ele>2790</ele>
        <time>2021-02-21T07:58:03Z</time>
      </trkpt>
      <trkpt lat="44.45658" lon="6.51516">
        <ele>2790</ele>
        <time>2021-02-21T07:58:04Z</time>
      </trkpt>
      <trkpt lat="44.45658" lon="6.51516">
        <ele>2790</ele>
        <time>2021-02-21T07:58:05Z</time>
      </trkpt>
      <trkpt lat="44.45658" lon="6.51516">
        <ele>2790</ele>
        <time>2021-02-21T07:58:06Z</time>
      </trkpt>
      <trkpt lat="44.45658" lon="6.51516">
        <ele>2790</ele>
        <time>2021-02-21T07:58:07Z</time>
      </trkpt>
      <trkpt lat="44.45658" lon="6.51516">
        <ele>2790</ele>
        <time>2021-02-21T07:58:08Z</time>
      </trkpt>
      <trkpt lat="44.45659" lon="6.51517">
        <ele>2790</ele>
        <time>2021-02-21T07:58:09Z</time>
      </trkpt>
      <trkpt lat="44.45658" lon="6.51517">
        <ele>2790</ele>
        <time>2021-02-21T07:58:10Z</time>
      </trkpt>
      <trkpt lat="44.45658" lon="6.51518">
        <ele>2790</ele>
        <time>2021-02-21T07:58:11Z</time>
      </trkpt>
      <trkpt lat="44.45658" lon="6.51518">
        <ele>2790</ele>
        <time>2021-02-21T07:58:12Z</time>
      </trkpt>
      <trkpt lat="44.45658" lon="6.51517">
        <ele>2790</ele>
        <time>2021-02-21T07:58:13Z</time>
      </trkpt>
      <trkpt lat="44.45659" lon="6.51517">
        <ele>2790</ele>
        <time>2021-02-21T07:58:14Z</time>
      </trkpt>
      <trkpt lat="44.45659" lon="6.51517">
        <ele>2791</ele>
        <time>2021-02-21T07:58:15Z</time>
      </trkpt>
      <trkpt lat="44.4566" lon="6.51517">
        <ele>2791</ele>
        <time>2021-02-21T07:58:16Z</time>
      </trkpt>
      <trkpt lat="44.4566" lon="6.51517">
        <ele>2791</ele>
        <time>2021-02-21T07:58:17Z</time>
      </trkpt>
      <trkpt lat="44.4566" lon="6.51517">
        <ele>2791</ele>
        <time>2021-02-21T07:58:18Z</time>
      </trkpt>
      <trkpt lat="44.4566" lon="6.51516">
        <ele>2791</ele>
        <time>2021-02-21T07:58:19Z</time>
      </trkpt>
      <trkpt lat="44.4566" lon="6.51516">
        <ele>2791</ele>
        <time>2021-02-21T07:58:20Z</time>
      </trkpt>
      <trkpt lat="44.4566" lon="6.51516">
        <ele>2791</ele>
        <time>2021-02-21T07:58:21Z</time>
      </trkpt>
      <trkpt lat="44.4566" lon="6.51516">
        <ele>2791</ele>
        <time>2021-02-21T07:58:22Z</time>
      </trkpt>
      <trkpt lat="44.4566" lon="6.51515">
        <ele>2791</ele>
        <time>2021-02-21T07:58:23Z</time>
      </trkpt>
      <trkpt lat="44.4566" lon="6.51515">
        <ele>2791</ele>
        <time>2021-02-21T07:58:24Z</time>
      </trkpt>
      <trkpt lat="44.4566" lon="6.51515">
        <ele>2791</ele>
        <time>2021-02-21T07:58:25Z</time>
      </trkpt>
      <trkpt lat="44.4566" lon="6.51515">
        <ele>2791</ele>
        <time>2021-02-21T07:58:26Z</time>
      </trkpt>
      <trkpt lat="44.4566" lon="6.51516">
        <ele>2791</ele>
        <time>2021-02-21T07:58:27Z</time>
      </trkpt>
      <trkpt lat="44.4566" lon="6.51516">
        <ele>2791</ele>
        <time>2021-02-21T07:58:28Z</time>
      </trkpt>
      <trkpt lat="44.45661" lon="6.51515">
        <ele>2791</ele>
        <time>2021-02-21T07:58:29Z</time>
      </trkpt>
      <trkpt lat="44.45661" lon="6.51515">
        <ele>2791</ele>
        <time>2021-02-21T07:58:30Z</time>
      </trkpt>
      <trkpt lat="44.4566" lon="6.51516">
        <ele>2791</ele>
        <time>2021-02-21T07:58:31Z</time>
      </trkpt>
      <trkpt lat="44.4566" lon="6.51516">
        <ele>2791</ele>
        <time>2021-02-21T07:58:32Z</time>
      </trkpt>
      <trkpt lat="44.4566" lon="6.51517">
        <ele>2791</ele>
        <time>2021-02-21T07:58:33Z</time>
      </trkpt>
      <trkpt lat="44.4566" lon="6.51517">
        <ele>2791</ele>
        <time>2021-02-21T07:58:34Z</time>
      </trkpt>
      <trkpt lat="44.4566" lon="6.51517">
        <ele>2791</ele>
        <time>2021-02-21T07:58:35Z</time>
      </trkpt>
      <trkpt lat="44.4566" lon="6.51517">
        <ele>2791</ele>
        <time>2021-02-21T07:58:36Z</time>
      </trkpt>
      <trkpt lat="44.4566" lon="6.51517">
        <ele>2791</ele>
        <time>2021-02-21T07:58:37Z</time>
      </trkpt>
      <trkpt lat="44.45659" lon="6.51517">
        <ele>2791</ele>
        <time>2021-02-21T07:58:38Z</time>
      </trkpt>
      <trkpt lat="44.45659" lon="6.51518">
        <ele>2792</ele>
        <time>2021-02-21T07:58:39Z</time>
      </trkpt>
      <trkpt lat="44.45659" lon="6.51518">
        <ele>2792</ele>
        <time>2021-02-21T07:58:40Z</time>
      </trkpt>
      <trkpt lat="44.45659" lon="6.51518">
        <ele>2792</ele>
        <time>2021-02-21T07:58:41Z</time>
      </trkpt>
      <trkpt lat="44.45659" lon="6.51518">
        <ele>2792</ele>
        <time>2021-02-21T07:58:42Z</time>
      </trkpt>
      <trkpt lat="44.45659" lon="6.51518">
        <ele>2792</ele>
        <time>2021-02-21T07:58:43Z</time>
      </trkpt>
      <trkpt lat="44.45659" lon="6.51518">
        <ele>2792</ele>
        <time>2021-02-21T07:58:44Z</time>
      </trkpt>
      <trkpt lat="44.45659" lon="6.51518">
        <ele>2792</ele>
        <time>2021-02-21T07:58:45Z</time>
      </trkpt>
      <trkpt lat="44.45659" lon="6.51518">
        <ele>2792</ele>
        <time>2021-02-21T07:58:46Z</time>
      </trkpt>
      <trkpt lat="44.45659" lon="6.51518">
        <ele>2792</ele>
        <time>2021-02-21T07:58:47Z</time>
      </trkpt>
      <trkpt lat="44.45659" lon="6.51518">
        <ele>2792</ele>
        <time>2021-02-21T07:58:48Z</time>
      </trkpt>
      <trkpt lat="44.45659" lon="6.51518">
        <ele>2792</ele>
        <time>2021-02-21T07:58:49Z</time>
      </trkpt>
      <trkpt lat="44.45659" lon="6.51518">
        <ele>2792</ele>
        <time>2021-02-21T07:58:50Z</time>
      </trkpt>
      <trkpt lat="44.45659" lon="6.51518">
        <ele>2792</ele>
        <time>2021-02-21T07:58:51Z</time>
      </trkpt>
      <trkpt lat="44.45659" lon="6.51518">
        <ele>2792</ele>
        <time>2021-02-21T07:58:52Z</time>
      </trkpt>
      <trkpt lat="44.45659" lon="6.51518">
        <ele>2792</ele>
        <time>2021-02-21T07:58:53Z</time>
      </trkpt>
      <trkpt lat="44.45659" lon="6.51518">
        <ele>2792</ele>
        <time>2021-02-21T07:58:54Z</time>
      </trkpt>
      <trkpt lat="44.45659" lon="6.51518">
        <ele>2792</ele>
        <time>2021-02-21T07:58:55Z</time>
      </trkpt>
      <trkpt lat="44.45659" lon="6.51518">
        <ele>2792</ele>
        <time>2021-02-21T07:58:56Z</time>
      </trkpt>
      <trkpt lat="44.45659" lon="6.51518">
        <ele>2792</ele>
        <time>2021-02-21T07:58:57Z</time>
      </trkpt>
      <trkpt lat="44.45659" lon="6.51518">
        <ele>2792</ele>
        <time>2021-02-21T07:58:58Z</time>
      </trkpt>
      <trkpt lat="44.45659" lon="6.51518">
        <ele>2792</ele>
        <time>2021-02-21T07:58:59Z</time>
      </trkpt>
      <trkpt lat="44.45659" lon="6.51518">
        <ele>2792</ele>
        <time>2021-02-21T07:59:00Z</time>
      </trkpt>
      <trkpt lat="44.45659" lon="6.51518">
        <ele>2792</ele>
        <time>2021-02-21T07:59:01Z</time>
      </trkpt>
      <trkpt lat="44.45659" lon="6.51518">
        <ele>2792</ele>
        <time>2021-02-21T07:59:02Z</time>
      </trkpt>
      <trkpt lat="44.45659" lon="6.51518">
        <ele>2792</ele>
        <time>2021-02-21T07:59:03Z</time>
      </trkpt>
      <trkpt lat="44.45659" lon="6.51518">
        <ele>2792</ele>
        <time>2021-02-21T07:59:04Z</time>
      </trkpt>
      <trkpt lat="44.45659" lon="6.51518">
        <ele>2792</ele>
        <time>2021-02-21T07:59:05Z</time>
      </trkpt>
      <trkpt lat="44.45659" lon="6.51518">
        <ele>2792</ele>
        <time>2021-02-21T07:59:06Z</time>
      </trkpt>
      <trkpt lat="44.45659" lon="6.51518">
        <ele>2792</ele>
        <time>2021-02-21T07:59:07Z</time>
      </trkpt>
      <trkpt lat="44.45659" lon="6.51518">
        <ele>2792</ele>
        <time>2021-02-21T07:59:08Z</time>
      </trkpt>
      <trkpt lat="44.45659" lon="6.51518">
        <ele>2792</ele>
        <time>2021-02-21T07:59:09Z</time>
      </trkpt>
      <trkpt lat="44.45659" lon="6.51518">
        <ele>2792</ele>
        <time>2021-02-21T07:59:10Z</time>
      </trkpt>
      <trkpt lat="44.45659" lon="6.51518">
        <ele>2792</ele>
        <time>2021-02-21T07:59:11Z</time>
      </trkpt>
      <trkpt lat="44.45659" lon="6.51518">
        <ele>2792</ele>
        <time>2021-02-21T07:59:12Z</time>
      </trkpt>
      <trkpt lat="44.4566" lon="6.51523">
        <ele>2794</ele>
        <time>2021-02-21T07:59:13Z</time>
      </trkpt>
      <trkpt lat="44.4566" lon="6.51522">
        <ele>2795</ele>
        <time>2021-02-21T07:59:14Z</time>
      </trkpt>
      <trkpt lat="44.4566" lon="6.51522">
        <ele>2795</ele>
        <time>2021-02-21T07:59:15Z</time>
      </trkpt>
      <trkpt lat="44.4566" lon="6.51521">
        <ele>2796</ele>
        <time>2021-02-21T07:59:16Z</time>
      </trkpt>
      <trkpt lat="44.4566" lon="6.51521">
        <ele>2796</ele>
        <time>2021-02-21T07:59:17Z</time>
      </trkpt>
      <trkpt lat="44.4566" lon="6.51521">
        <ele>2796</ele>
        <time>2021-02-21T07:59:18Z</time>
      </trkpt>
      <trkpt lat="44.4566" lon="6.51522">
        <ele>2796</ele>
        <time>2021-02-21T07:59:19Z</time>
      </trkpt>
      <trkpt lat="44.4566" lon="6.51523">
        <ele>2797</ele>
        <time>2021-02-21T07:59:20Z</time>
      </trkpt>
      <trkpt lat="44.4566" lon="6.51522">
        <ele>2797</ele>
        <time>2021-02-21T07:59:21Z</time>
      </trkpt>
      <trkpt lat="44.4566" lon="6.51522">
        <ele>2797</ele>
        <time>2021-02-21T07:59:22Z</time>
      </trkpt>
      <trkpt lat="44.4566" lon="6.51522">
        <ele>2797</ele>
        <time>2021-02-21T07:59:23Z</time>
      </trkpt>
      <trkpt lat="44.45659" lon="6.51522">
        <ele>2797</ele>
        <time>2021-02-21T07:59:24Z</time>
      </trkpt>
      <trkpt lat="44.45659" lon="6.51522">
        <ele>2797</ele>
        <time>2021-02-21T07:59:25Z</time>
      </trkpt>
      <trkpt lat="44.45659" lon="6.51522">
        <ele>2797</ele>
        <time>2021-02-21T07:59:26Z</time>
      </trkpt>
      <trkpt lat="44.45659" lon="6.51522">
        <ele>2797</ele>
        <time>2021-02-21T07:59:27Z</time>
      </trkpt>
      <trkpt lat="44.45659" lon="6.51522">
        <ele>2797</ele>
        <time>2021-02-21T07:59:28Z</time>
      </trkpt>
      <trkpt lat="44.45659" lon="6.51522">
        <ele>2797</ele>
        <time>2021-02-21T07:59:29Z</time>
      </trkpt>
      <trkpt lat="44.45659" lon="6.51522">
        <ele>2797</ele>
        <time>2021-02-21T07:59:30Z</time>
      </trkpt>
      <trkpt lat="44.45659" lon="6.51522">
        <ele>2798</ele>
        <time>2021-02-21T07:59:31Z</time>
      </trkpt>
      <trkpt lat="44.45659" lon="6.51522">
        <ele>2798</ele>
        <time>2021-02-21T07:59:32Z</time>
      </trkpt>
      <trkpt lat="44.45659" lon="6.51522">
        <ele>2798</ele>
        <time>2021-02-21T07:59:33Z</time>
      </trkpt>
      <trkpt lat="44.45659" lon="6.51522">
        <ele>2798</ele>
        <time>2021-02-21T07:59:34Z</time>
      </trkpt>
      <trkpt lat="44.45659" lon="6.51522">
        <ele>2798</ele>
        <time>2021-02-21T07:59:35Z</time>
      </trkpt>
      <trkpt lat="44.45659" lon="6.51522">
        <ele>2798</ele>
        <time>2021-02-21T07:59:36Z</time>
      </trkpt>
      <trkpt lat="44.45659" lon="6.51525">
        <ele>2798</ele>
        <time>2021-02-21T07:59:37Z</time>
      </trkpt>
      <trkpt lat="44.45659" lon="6.51524">
        <ele>2798</ele>
        <time>2021-02-21T07:59:38Z</time>
      </trkpt>
      <trkpt lat="44.45659" lon="6.51524">
        <ele>2798</ele>
        <time>2021-02-21T07:59:39Z</time>
      </trkpt>
      <trkpt lat="44.45659" lon="6.51524">
        <ele>2798</ele>
        <time>2021-02-21T07:59:40Z</time>
      </trkpt>
      <trkpt lat="44.45659" lon="6.51524">
        <ele>2798</ele>
        <time>2021-02-21T07:59:41Z</time>
      </trkpt>
      <trkpt lat="44.45659" lon="6.51524">
        <ele>2798</ele>
        <time>2021-02-21T07:59:42Z</time>
      </trkpt>
      <trkpt lat="44.45659" lon="6.51525">
        <ele>2798</ele>
        <time>2021-02-21T07:59:43Z</time>
      </trkpt>
      <trkpt lat="44.45659" lon="6.51524">
        <ele>2798</ele>
        <time>2021-02-21T07:59:44Z</time>
      </trkpt>
      <trkpt lat="44.45659" lon="6.51524">
        <ele>2798</ele>
        <time>2021-02-21T07:59:45Z</time>
      </trkpt>
      <trkpt lat="44.45659" lon="6.51523">
        <ele>2798</ele>
        <time>2021-02-21T07:59:46Z</time>
      </trkpt>
      <trkpt lat="44.45659" lon="6.51523">
        <ele>2798</ele>
        <time>2021-02-21T07:59:47Z</time>
      </trkpt>
      <trkpt lat="44.45659" lon="6.51523">
        <ele>2798</ele>
        <time>2021-02-21T07:59:48Z</time>
      </trkpt>
      <trkpt lat="44.45659" lon="6.51523">
        <ele>2798</ele>
        <time>2021-02-21T07:59:49Z</time>
      </trkpt>
      <trkpt lat="44.4566" lon="6.51521">
        <ele>2798</ele>
        <time>2021-02-21T07:59:50Z</time>
      </trkpt>
      <trkpt lat="44.4566" lon="6.5152">
        <ele>2798</ele>
        <time>2021-02-21T07:59:51Z</time>
      </trkpt>
      <trkpt lat="44.45661" lon="6.5152">
        <ele>2798</ele>
        <time>2021-02-21T07:59:52Z</time>
      </trkpt>
      <trkpt lat="44.45661" lon="6.5152">
        <ele>2798</ele>
        <time>2021-02-21T07:59:53Z</time>
      </trkpt>
      <trkpt lat="44.45661" lon="6.51521">
        <ele>2798</ele>
        <time>2021-02-21T07:59:54Z</time>
      </trkpt>
      <trkpt lat="44.45661" lon="6.51521">
        <ele>2798</ele>
        <time>2021-02-21T07:59:55Z</time>
      </trkpt>
      <trkpt lat="44.45661" lon="6.5152">
        <ele>2798</ele>
        <time>2021-02-21T07:59:56Z</time>
      </trkpt>
      <trkpt lat="44.45662" lon="6.51521">
        <ele>2797</ele>
        <time>2021-02-21T07:59:57Z</time>
      </trkpt>
      <trkpt lat="44.45662" lon="6.51521">
        <ele>2797</ele>
        <time>2021-02-21T07:59:58Z</time>
      </trkpt>
      <trkpt lat="44.45662" lon="6.51521">
        <ele>2797</ele>
        <time>2021-02-21T07:59:59Z</time>
      </trkpt>
      <trkpt lat="44.45662" lon="6.51521">
        <ele>2797</ele>
        <time>2021-02-21T08:00:00Z</time>
      </trkpt>
      <trkpt lat="44.45662" lon="6.51521">
        <ele>2796</ele>
        <time>2021-02-21T08:00:01Z</time>
      </trkpt>
      <trkpt lat="44.45662" lon="6.51521">
        <ele>2796</ele>
        <time>2021-02-21T08:00:02Z</time>
      </trkpt>
      <trkpt lat="44.45662" lon="6.51521">
        <ele>2796</ele>
        <time>2021-02-21T08:00:03Z</time>
      </trkpt>
      <trkpt lat="44.45662" lon="6.51521">
        <ele>2796</ele>
        <time>2021-02-21T08:00:04Z</time>
      </trkpt>
      <trkpt lat="44.45662" lon="6.51521">
        <ele>2796</ele>
        <time>2021-02-21T08:00:05Z</time>
      </trkpt>
      <trkpt lat="44.45662" lon="6.51521">
        <ele>2796</ele>
        <time>2021-02-21T08:00:06Z</time>
      </trkpt>
      <trkpt lat="44.45664" lon="6.51522">
        <ele>2796</ele>
        <time>2021-02-21T08:00:07Z</time>
      </trkpt>
      <trkpt lat="44.45665" lon="6.51523">
        <ele>2796</ele>
        <time>2021-02-21T08:00:08Z</time>
      </trkpt>
      <trkpt lat="44.45665" lon="6.51522">
        <ele>2796</ele>
        <time>2021-02-21T08:00:09Z</time>
      </trkpt>
      <trkpt lat="44.45665" lon="6.51523">
        <ele>2796</ele>
        <time>2021-02-21T08:00:10Z</time>
      </trkpt>
      <trkpt lat="44.45665" lon="6.51523">
        <ele>2796</ele>
        <time>2021-02-21T08:00:11Z</time>
      </trkpt>
      <trkpt lat="44.45665" lon="6.51523">
        <ele>2796</ele>
        <time>2021-02-21T08:00:12Z</time>
      </trkpt>
      <trkpt lat="44.45665" lon="6.51523">
        <ele>2796</ele>
        <time>2021-02-21T08:00:13Z</time>
      </trkpt>
      <trkpt lat="44.45665" lon="6.51523">
        <ele>2796</ele>
        <time>2021-02-21T08:00:14Z</time>
      </trkpt>
      <trkpt lat="44.45666" lon="6.51523">
        <ele>2796</ele>
        <time>2021-02-21T08:00:15Z</time>
      </trkpt>
      <trkpt lat="44.45666" lon="6.51523">
        <ele>2796</ele>
        <time>2021-02-21T08:00:16Z</time>
      </trkpt>
      <trkpt lat="44.45667" lon="6.51523">
        <ele>2796</ele>
        <time>2021-02-21T08:00:17Z</time>
      </trkpt>
      <trkpt lat="44.45667" lon="6.51523">
        <ele>2797</ele>
        <time>2021-02-21T08:00:18Z</time>
      </trkpt>
      <trkpt lat="44.45668" lon="6.51524">
        <ele>2797</ele>
        <time>2021-02-21T08:00:19Z</time>
      </trkpt>
      <trkpt lat="44.45668" lon="6.51524">
        <ele>2797</ele>
        <time>2021-02-21T08:00:20Z</time>
      </trkpt>
      <trkpt lat="44.45668" lon="6.51523">
        <ele>2797</ele>
        <time>2021-02-21T08:00:21Z</time>
      </trkpt>
      <trkpt lat="44.45668" lon="6.51523">
        <ele>2797</ele>
        <time>2021-02-21T08:00:22Z</time>
      </trkpt>
      <trkpt lat="44.45668" lon="6.51523">
        <ele>2798</ele>
        <time>2021-02-21T08:00:23Z</time>
      </trkpt>
      <trkpt lat="44.45668" lon="6.51524">
        <ele>2798</ele>
        <time>2021-02-21T08:00:24Z</time>
      </trkpt>
      <trkpt lat="44.45668" lon="6.51524">
        <ele>2798</ele>
        <time>2021-02-21T08:00:25Z</time>
      </trkpt>
      <trkpt lat="44.45668" lon="6.51524">
        <ele>2798</ele>
        <time>2021-02-21T08:00:26Z</time>
      </trkpt>
      <trkpt lat="44.45668" lon="6.51524">
        <ele>2798</ele>
        <time>2021-02-21T08:00:27Z</time>
      </trkpt>
      <trkpt lat="44.45668" lon="6.51524">
        <ele>2798</ele>
        <time>2021-02-21T08:00:28Z</time>
      </trkpt>
      <trkpt lat="44.45668" lon="6.51524">
        <ele>2798</ele>
        <time>2021-02-21T08:00:29Z</time>
      </trkpt>
      <trkpt lat="44.45668" lon="6.51524">
        <ele>2798</ele>
        <time>2021-02-21T08:00:30Z</time>
      </trkpt>
      <trkpt lat="44.45668" lon="6.51524">
        <ele>2798</ele>
        <time>2021-02-21T08:00:31Z</time>
      </trkpt>
      <trkpt lat="44.4567" lon="6.51525">
        <ele>2798</ele>
        <time>2021-02-21T08:00:32Z</time>
      </trkpt>
      <trkpt lat="44.4567" lon="6.51525">
        <ele>2798</ele>
        <time>2021-02-21T08:00:33Z</time>
      </trkpt>
      <trkpt lat="44.4567" lon="6.51525">
        <ele>2798</ele>
        <time>2021-02-21T08:00:34Z</time>
      </trkpt>
      <trkpt lat="44.45671" lon="6.51525">
        <ele>2798</ele>
        <time>2021-02-21T08:00:35Z</time>
      </trkpt>
      <trkpt lat="44.45671" lon="6.51526">
        <ele>2798</ele>
        <time>2021-02-21T08:00:36Z</time>
      </trkpt>
      <trkpt lat="44.45672" lon="6.51526">
        <ele>2798</ele>
        <time>2021-02-21T08:00:37Z</time>
      </trkpt>
      <trkpt lat="44.45672" lon="6.51526">
        <ele>2798</ele>
        <time>2021-02-21T08:00:38Z</time>
      </trkpt>
      <trkpt lat="44.45672" lon="6.51526">
        <ele>2798</ele>
        <time>2021-02-21T08:00:39Z</time>
      </trkpt>
      <trkpt lat="44.45672" lon="6.51526">
        <ele>2798</ele>
        <time>2021-02-21T08:00:40Z</time>
      </trkpt>
      <trkpt lat="44.45673" lon="6.51526">
        <ele>2798</ele>
        <time>2021-02-21T08:00:41Z</time>
      </trkpt>
      <trkpt lat="44.45673" lon="6.51526">
        <ele>2798</ele>
        <time>2021-02-21T08:00:42Z</time>
      </trkpt>
      <trkpt lat="44.45673" lon="6.51526">
        <ele>2798</ele>
        <time>2021-02-21T08:00:43Z</time>
      </trkpt>
      <trkpt lat="44.45673" lon="6.51526">
        <ele>2798</ele>
        <time>2021-02-21T08:00:44Z</time>
      </trkpt>
      <trkpt lat="44.45673" lon="6.51527">
        <ele>2798</ele>
        <time>2021-02-21T08:00:45Z</time>
      </trkpt>
      <trkpt lat="44.45673" lon="6.51527">
        <ele>2798</ele>
        <time>2021-02-21T08:00:46Z</time>
      </trkpt>
      <trkpt lat="44.45673" lon="6.51528">
        <ele>2798</ele>
        <time>2021-02-21T08:00:47Z</time>
      </trkpt>
      <trkpt lat="44.45674" lon="6.51528">
        <ele>2798</ele>
        <time>2021-02-21T08:00:48Z</time>
      </trkpt>
      <trkpt lat="44.45674" lon="6.51528">
        <ele>2798</ele>
        <time>2021-02-21T08:00:49Z</time>
      </trkpt>
      <trkpt lat="44.45674" lon="6.51528">
        <ele>2798</ele>
        <time>2021-02-21T08:00:50Z</time>
      </trkpt>
      <trkpt lat="44.45674" lon="6.51527">
        <ele>2798</ele>
        <time>2021-02-21T08:00:51Z</time>
      </trkpt>
      <trkpt lat="44.45675" lon="6.51527">
        <ele>2798</ele>
        <time>2021-02-21T08:00:52Z</time>
      </trkpt>
      <trkpt lat="44.45675" lon="6.51527">
        <ele>2798</ele>
        <time>2021-02-21T08:00:53Z</time>
      </trkpt>
      <trkpt lat="44.45675" lon="6.51527">
        <ele>2798</ele>
        <time>2021-02-21T08:00:54Z</time>
      </trkpt>
      <trkpt lat="44.45675" lon="6.51527">
        <ele>2798</ele>
        <time>2021-02-21T08:00:55Z</time>
      </trkpt>
      <trkpt lat="44.45675" lon="6.51527">
        <ele>2798</ele>
        <time>2021-02-21T08:00:56Z</time>
      </trkpt>
      <trkpt lat="44.45675" lon="6.51527">
        <ele>2798</ele>
        <time>2021-02-21T08:00:57Z</time>
      </trkpt>
      <trkpt lat="44.45675" lon="6.51527">
        <ele>2798</ele>
        <time>2021-02-21T08:00:58Z</time>
      </trkpt>
      <trkpt lat="44.45675" lon="6.51527">
        <ele>2798</ele>
        <time>2021-02-21T08:00:59Z</time>
      </trkpt>
      <trkpt lat="44.45676" lon="6.51528">
        <ele>2798</ele>
        <time>2021-02-21T08:01:00Z</time>
      </trkpt>
      <trkpt lat="44.45676" lon="6.51527">
        <ele>2798</ele>
        <time>2021-02-21T08:01:01Z</time>
      </trkpt>
      <trkpt lat="44.45676" lon="6.51527">
        <ele>2798</ele>
        <time>2021-02-21T08:01:02Z</time>
      </trkpt>
      <trkpt lat="44.45676" lon="6.51527">
        <ele>2799</ele>
        <time>2021-02-21T08:01:03Z</time>
      </trkpt>
      <trkpt lat="44.45676" lon="6.51527">
        <ele>2799</ele>
        <time>2021-02-21T08:01:04Z</time>
      </trkpt>
      <trkpt lat="44.45677" lon="6.51528">
        <ele>2799</ele>
        <time>2021-02-21T08:01:05Z</time>
      </trkpt>
      <trkpt lat="44.45677" lon="6.51528">
        <ele>2799</ele>
        <time>2021-02-21T08:01:06Z</time>
      </trkpt>
      <trkpt lat="44.45677" lon="6.51528">
        <ele>2799</ele>
        <time>2021-02-21T08:01:07Z</time>
      </trkpt>
      <trkpt lat="44.45677" lon="6.51528">
        <ele>2799</ele>
        <time>2021-02-21T08:01:08Z</time>
      </trkpt>
      <trkpt lat="44.45677" lon="6.51528">
        <ele>2799</ele>
        <time>2021-02-21T08:01:09Z</time>
      </trkpt>
      <trkpt lat="44.45677" lon="6.51528">
        <ele>2799</ele>
        <time>2021-02-21T08:01:10Z</time>
      </trkpt>
      <trkpt lat="44.45677" lon="6.51528">
        <ele>2799</ele>
        <time>2021-02-21T08:01:11Z</time>
      </trkpt>
      <trkpt lat="44.45677" lon="6.51528">
        <ele>2799</ele>
        <time>2021-02-21T08:01:12Z</time>
      </trkpt>
      <trkpt lat="44.45677" lon="6.51528">
        <ele>2799</ele>
        <time>2021-02-21T08:01:13Z</time>
      </trkpt>
      <trkpt lat="44.45677" lon="6.51528">
        <ele>2799</ele>
        <time>2021-02-21T08:01:14Z</time>
      </trkpt>
      <trkpt lat="44.45678" lon="6.51527">
        <ele>2799</ele>
        <time>2021-02-21T08:01:15Z</time>
      </trkpt>
      <trkpt lat="44.45678" lon="6.51528">
        <ele>2799</ele>
        <time>2021-02-21T08:01:16Z</time>
      </trkpt>
      <trkpt lat="44.45678" lon="6.51528">
        <ele>2799</ele>
        <time>2021-02-21T08:01:17Z</time>
      </trkpt>
      <trkpt lat="44.45678" lon="6.51528">
        <ele>2799</ele>
        <time>2021-02-21T08:01:18Z</time>
      </trkpt>
      <trkpt lat="44.45679" lon="6.51528">
        <ele>2799</ele>
        <time>2021-02-21T08:01:19Z</time>
      </trkpt>
      <trkpt lat="44.45679" lon="6.51528">
        <ele>2799</ele>
        <time>2021-02-21T08:01:20Z</time>
      </trkpt>
      <trkpt lat="44.45679" lon="6.51528">
        <ele>2799</ele>
        <time>2021-02-21T08:01:21Z</time>
      </trkpt>
      <trkpt lat="44.45679" lon="6.51528">
        <ele>2799</ele>
        <time>2021-02-21T08:01:22Z</time>
      </trkpt>
      <trkpt lat="44.45679" lon="6.51528">
        <ele>2799</ele>
        <time>2021-02-21T08:01:23Z</time>
      </trkpt>
      <trkpt lat="44.45679" lon="6.51528">
        <ele>2799</ele>
        <time>2021-02-21T08:01:24Z</time>
      </trkpt>
      <trkpt lat="44.45679" lon="6.51528">
        <ele>2799</ele>
        <time>2021-02-21T08:01:25Z</time>
      </trkpt>
      <trkpt lat="44.45679" lon="6.51528">
        <ele>2799</ele>
        <time>2021-02-21T08:01:26Z</time>
      </trkpt>
      <trkpt lat="44.45679" lon="6.51528">
        <ele>2799</ele>
        <time>2021-02-21T08:01:27Z</time>
      </trkpt>
      <trkpt lat="44.45679" lon="6.51528">
        <ele>2799</ele>
        <time>2021-02-21T08:01:28Z</time>
      </trkpt>
      <trkpt lat="44.45679" lon="6.51528">
        <ele>2799</ele>
        <time>2021-02-21T08:01:29Z</time>
      </trkpt>
      <trkpt lat="44.45679" lon="6.51528">
        <ele>2799</ele>
        <time>2021-02-21T08:01:30Z</time>
      </trkpt>
      <trkpt lat="44.45679" lon="6.51528">
        <ele>2799</ele>
        <time>2021-02-21T08:01:31Z</time>
      </trkpt>
      <trkpt lat="44.45679" lon="6.51528">
        <ele>2799</ele>
        <time>2021-02-21T08:01:32Z</time>
      </trkpt>
      <trkpt lat="44.45679" lon="6.51528">
        <ele>2799</ele>
        <time>2021-02-21T08:01:33Z</time>
      </trkpt>
      <trkpt lat="44.45679" lon="6.51528">
        <ele>2799</ele>
        <time>2021-02-21T08:01:34Z</time>
      </trkpt>
      <trkpt lat="44.45681" lon="6.5153">
        <ele>2799</ele>
        <time>2021-02-21T08:01:35Z</time>
      </trkpt>
      <trkpt lat="44.45681" lon="6.5153">
        <ele>2799</ele>
        <time>2021-02-21T08:01:36Z</time>
      </trkpt>
      <trkpt lat="44.45681" lon="6.51531">
        <ele>2799</ele>
        <time>2021-02-21T08:01:37Z</time>
      </trkpt>
      <trkpt lat="44.45682" lon="6.5153">
        <ele>2799</ele>
        <time>2021-02-21T08:01:38Z</time>
      </trkpt>
      <trkpt lat="44.45682" lon="6.5153">
        <ele>2799</ele>
        <time>2021-02-21T08:01:39Z</time>
      </trkpt>
      <trkpt lat="44.45682" lon="6.5153">
        <ele>2799</ele>
        <time>2021-02-21T08:01:40Z</time>
      </trkpt>
      <trkpt lat="44.45682" lon="6.5153">
        <ele>2799</ele>
        <time>2021-02-21T08:01:41Z</time>
      </trkpt>
      <trkpt lat="44.45682" lon="6.5153">
        <ele>2799</ele>
        <time>2021-02-21T08:01:42Z</time>
      </trkpt>
      <trkpt lat="44.45682" lon="6.5153">
        <ele>2799</ele>
        <time>2021-02-21T08:01:43Z</time>
      </trkpt>
      <trkpt lat="44.45682" lon="6.5153">
        <ele>2799</ele>
        <time>2021-02-21T08:01:44Z</time>
      </trkpt>
      <trkpt lat="44.45682" lon="6.5153">
        <ele>2799</ele>
        <time>2021-02-21T08:01:45Z</time>
      </trkpt>
      <trkpt lat="44.45682" lon="6.5153">
        <ele>2799</ele>
        <time>2021-02-21T08:01:46Z</time>
      </trkpt>
      <trkpt lat="44.45682" lon="6.5153">
        <ele>2799</ele>
        <time>2021-02-21T08:01:47Z</time>
      </trkpt>
      <trkpt lat="44.45682" lon="6.5153">
        <ele>2799</ele>
        <time>2021-02-21T08:01:48Z</time>
      </trkpt>
      <trkpt lat="44.45682" lon="6.5153">
        <ele>2799</ele>
        <time>2021-02-21T08:01:49Z</time>
      </trkpt>
      <trkpt lat="44.45682" lon="6.5153">
        <ele>2799</ele>
        <time>2021-02-21T08:01:50Z</time>
      </trkpt>
      <trkpt lat="44.45682" lon="6.5153">
        <ele>2799</ele>
        <time>2021-02-21T08:01:51Z</time>
      </trkpt>
      <trkpt lat="44.45682" lon="6.5153">
        <ele>2799</ele>
        <time>2021-02-21T08:01:52Z</time>
      </trkpt>
      <trkpt lat="44.45682" lon="6.5153">
        <ele>2799</ele>
        <time>2021-02-21T08:01:53Z</time>
      </trkpt>
      <trkpt lat="44.45682" lon="6.5153">
        <ele>2799</ele>
        <time>2021-02-21T08:01:54Z</time>
      </trkpt>
      <trkpt lat="44.45682" lon="6.5153">
        <ele>2799</ele>
        <time>2021-02-21T08:01:55Z</time>
      </trkpt>
      <trkpt lat="44.45682" lon="6.5153">
        <ele>2799</ele>
        <time>2021-02-21T08:01:56Z</time>
      </trkpt>
      <trkpt lat="44.45682" lon="6.5153">
        <ele>2799</ele>
        <time>2021-02-21T08:01:57Z</time>
      </trkpt>
      <trkpt lat="44.45682" lon="6.5153">
        <ele>2799</ele>
        <time>2021-02-21T08:01:58Z</time>
      </trkpt>
      <trkpt lat="44.45682" lon="6.5153">
        <ele>2799</ele>
        <time>2021-02-21T08:01:59Z</time>
      </trkpt>
      <trkpt lat="44.45682" lon="6.5153">
        <ele>2799</ele>
        <time>2021-02-21T08:02:00Z</time>
      </trkpt>
      <trkpt lat="44.45682" lon="6.5153">
        <ele>2799</ele>
        <time>2021-02-21T08:02:01Z</time>
      </trkpt>
      <trkpt lat="44.45682" lon="6.5153">
        <ele>2799</ele>
        <time>2021-02-21T08:02:02Z</time>
      </trkpt>
      <trkpt lat="44.45682" lon="6.5153">
        <ele>2799</ele>
        <time>2021-02-21T08:02:03Z</time>
      </trkpt>
      <trkpt lat="44.45682" lon="6.5153">
        <ele>2799</ele>
        <time>2021-02-21T08:02:04Z</time>
      </trkpt>
      <trkpt lat="44.45682" lon="6.5153">
        <ele>2799</ele>
        <time>2021-02-21T08:02:05Z</time>
      </trkpt>
      <trkpt lat="44.45682" lon="6.5153">
        <ele>2799</ele>
        <time>2021-02-21T08:02:06Z</time>
      </trkpt>
      <trkpt lat="44.45682" lon="6.5153">
        <ele>2799</ele>
        <time>2021-02-21T08:02:07Z</time>
      </trkpt>
      <trkpt lat="44.45682" lon="6.5153">
        <ele>2799</ele>
        <time>2021-02-21T08:02:08Z</time>
      </trkpt>
      <trkpt lat="44.45682" lon="6.5153">
        <ele>2799</ele>
        <time>2021-02-21T08:02:09Z</time>
      </trkpt>
      <trkpt lat="44.45682" lon="6.5153">
        <ele>2799</ele>
        <time>2021-02-21T08:02:10Z</time>
      </trkpt>
      <trkpt lat="44.45682" lon="6.5153">
        <ele>2799</ele>
        <time>2021-02-21T08:02:11Z</time>
      </trkpt>
      <trkpt lat="44.45682" lon="6.5153">
        <ele>2799</ele>
        <time>2021-02-21T08:02:12Z</time>
      </trkpt>
      <trkpt lat="44.45682" lon="6.5153">
        <ele>2799</ele>
        <time>2021-02-21T08:02:13Z</time>
      </trkpt>
      <trkpt lat="44.45682" lon="6.5153">
        <ele>2799</ele>
        <time>2021-02-21T08:02:14Z</time>
      </trkpt>
      <trkpt lat="44.45682" lon="6.5153">
        <ele>2799</ele>
        <time>2021-02-21T08:02:15Z</time>
      </trkpt>
      <trkpt lat="44.45682" lon="6.5153">
        <ele>2799</ele>
        <time>2021-02-21T08:02:16Z</time>
      </trkpt>
      <trkpt lat="44.45682" lon="6.5153">
        <ele>2799</ele>
        <time>2021-02-21T08:02:17Z</time>
      </trkpt>
      <trkpt lat="44.45682" lon="6.5153">
        <ele>2799</ele>
        <time>2021-02-21T08:02:18Z</time>
      </trkpt>
      <trkpt lat="44.45682" lon="6.5153">
        <ele>2799</ele>
        <time>2021-02-21T08:02:19Z</time>
      </trkpt>
      <trkpt lat="44.45682" lon="6.5153">
        <ele>2799</ele>
        <time>2021-02-21T08:02:20Z</time>
      </trkpt>
      <trkpt lat="44.45682" lon="6.5153">
        <ele>2799</ele>
        <time>2021-02-21T08:02:21Z</time>
      </trkpt>
      <trkpt lat="44.45682" lon="6.5153">
        <ele>2799</ele>
        <time>2021-02-21T08:02:22Z</time>
      </trkpt>
      <trkpt lat="44.45682" lon="6.5153">
        <ele>2799</ele>
        <time>2021-02-21T08:02:23Z</time>
      </trkpt>
      <trkpt lat="44.45682" lon="6.5153">
        <ele>2799</ele>
        <time>2021-02-21T08:02:24Z</time>
      </trkpt>
      <trkpt lat="44.45682" lon="6.5153">
        <ele>2799</ele>
        <time>2021-02-21T08:02:25Z</time>
      </trkpt>
      <trkpt lat="44.45682" lon="6.5153">
        <ele>2799</ele>
        <time>2021-02-21T08:02:26Z</time>
      </trkpt>
      <trkpt lat="44.45682" lon="6.5153">
        <ele>2799</ele>
        <time>2021-02-21T08:02:27Z</time>
      </trkpt>
      <trkpt lat="44.45682" lon="6.5153">
        <ele>2799</ele>
        <time>2021-02-21T08:02:28Z</time>
      </trkpt>
      <trkpt lat="44.45682" lon="6.5153">
        <ele>2799</ele>
        <time>2021-02-21T08:02:29Z</time>
      </trkpt>
      <trkpt lat="44.45682" lon="6.5153">
        <ele>2799</ele>
        <time>2021-02-21T08:02:30Z</time>
      </trkpt>
      <trkpt lat="44.45682" lon="6.5153">
        <ele>2799</ele>
        <time>2021-02-21T08:02:31Z</time>
      </trkpt>
      <trkpt lat="44.45682" lon="6.5153">
        <ele>2799</ele>
        <time>2021-02-21T08:02:32Z</time>
      </trkpt>
      <trkpt lat="44.45682" lon="6.5153">
        <ele>2799</ele>
        <time>2021-02-21T08:02:33Z</time>
      </trkpt>
      <trkpt lat="44.45682" lon="6.5153">
        <ele>2799</ele>
        <time>2021-02-21T08:02:34Z</time>
      </trkpt>
      <trkpt lat="44.45682" lon="6.5153">
        <ele>2799</ele>
        <time>2021-02-21T08:02:35Z</time>
      </trkpt>
      <trkpt lat="44.45682" lon="6.5153">
        <ele>2799</ele>
        <time>2021-02-21T08:02:36Z</time>
      </trkpt>
      <trkpt lat="44.45682" lon="6.5153">
        <ele>2799</ele>
        <time>2021-02-21T08:02:37Z</time>
      </trkpt>
      <trkpt lat="44.45682" lon="6.5153">
        <ele>2799</ele>
        <time>2021-02-21T08:02:38Z</time>
      </trkpt>
      <trkpt lat="44.45682" lon="6.5153">
        <ele>2799</ele>
        <time>2021-02-21T08:02:39Z</time>
      </trkpt>
      <trkpt lat="44.45682" lon="6.5153">
        <ele>2799</ele>
        <time>2021-02-21T08:02:40Z</time>
      </trkpt>
      <trkpt lat="44.45682" lon="6.5153">
        <ele>2799</ele>
        <time>2021-02-21T08:02:41Z</time>
      </trkpt>
      <trkpt lat="44.45682" lon="6.5153">
        <ele>2799</ele>
        <time>2021-02-21T08:02:42Z</time>
      </trkpt>
      <trkpt lat="44.45682" lon="6.5153">
        <ele>2799</ele>
        <time>2021-02-21T08:02:43Z</time>
      </trkpt>
      <trkpt lat="44.45682" lon="6.5153">
        <ele>2799</ele>
        <time>2021-02-21T08:02:44Z</time>
      </trkpt>
      <trkpt lat="44.45682" lon="6.5153">
        <ele>2799</ele>
        <time>2021-02-21T08:02:45Z</time>
      </trkpt>
      <trkpt lat="44.45682" lon="6.5153">
        <ele>2799</ele>
        <time>2021-02-21T08:02:46Z</time>
      </trkpt>
      <trkpt lat="44.45682" lon="6.5153">
        <ele>2799</ele>
        <time>2021-02-21T08:02:47Z</time>
      </trkpt>
      <trkpt lat="44.45682" lon="6.5153">
        <ele>2799</ele>
        <time>2021-02-21T08:02:48Z</time>
      </trkpt>
      <trkpt lat="44.45682" lon="6.5153">
        <ele>2799</ele>
        <time>2021-02-21T08:02:49Z</time>
      </trkpt>
      <trkpt lat="44.45682" lon="6.5153">
        <ele>2799</ele>
        <time>2021-02-21T08:02:50Z</time>
      </trkpt>
      <trkpt lat="44.45682" lon="6.5153">
        <ele>2799</ele>
        <time>2021-02-21T08:02:51Z</time>
      </trkpt>
      <trkpt lat="44.45682" lon="6.5153">
        <ele>2799</ele>
        <time>2021-02-21T08:02:52Z</time>
      </trkpt>
      <trkpt lat="44.45682" lon="6.5153">
        <ele>2799</ele>
        <time>2021-02-21T08:02:53Z</time>
      </trkpt>
      <trkpt lat="44.45682" lon="6.5153">
        <ele>2799</ele>
        <time>2021-02-21T08:02:54Z</time>
      </trkpt>
      <trkpt lat="44.45682" lon="6.5153">
        <ele>2799</ele>
        <time>2021-02-21T08:02:55Z</time>
      </trkpt>
      <trkpt lat="44.45682" lon="6.5153">
        <ele>2799</ele>
        <time>2021-02-21T08:02:56Z</time>
      </trkpt>
      <trkpt lat="44.45682" lon="6.5153">
        <ele>2799</ele>
        <time>2021-02-21T08:02:57Z</time>
      </trkpt>
      <trkpt lat="44.45682" lon="6.5153">
        <ele>2799</ele>
        <time>2021-02-21T08:02:58Z</time>
      </trkpt>
      <trkpt lat="44.45682" lon="6.5153">
        <ele>2799</ele>
        <time>2021-02-21T08:02:59Z</time>
      </trkpt>
      <trkpt lat="44.45682" lon="6.5153">
        <ele>2799</ele>
        <time>2021-02-21T08:03:00Z</time>
      </trkpt>
      <trkpt lat="44.45682" lon="6.5153">
        <ele>2799</ele>
        <time>2021-02-21T08:03:01Z</time>
      </trkpt>
      <trkpt lat="44.45682" lon="6.5153">
        <ele>2799</ele>
        <time>2021-02-21T08:03:02Z</time>
      </trkpt>
      <trkpt lat="44.45682" lon="6.5153">
        <ele>2799</ele>
        <time>2021-02-21T08:03:03Z</time>
      </trkpt>
      <trkpt lat="44.45682" lon="6.5153">
        <ele>2799</ele>
        <time>2021-02-21T08:03:04Z</time>
      </trkpt>
      <trkpt lat="44.45682" lon="6.5153">
        <ele>2799</ele>
        <time>2021-02-21T08:03:05Z</time>
      </trkpt>
      <trkpt lat="44.45682" lon="6.5153">
        <ele>2799</ele>
        <time>2021-02-21T08:03:06Z</time>
      </trkpt>
      <trkpt lat="44.45682" lon="6.5153">
        <ele>2799</ele>
        <time>2021-02-21T08:03:07Z</time>
      </trkpt>
      <trkpt lat="44.45682" lon="6.5153">
        <ele>2799</ele>
        <time>2021-02-21T08:03:08Z</time>
      </trkpt>
      <trkpt lat="44.45682" lon="6.5153">
        <ele>2799</ele>
        <time>2021-02-21T08:03:09Z</time>
      </trkpt>
      <trkpt lat="44.45682" lon="6.5153">
        <ele>2799</ele>
        <time>2021-02-21T08:03:10Z</time>
      </trkpt>
      <trkpt lat="44.45682" lon="6.5153">
        <ele>2799</ele>
        <time>2021-02-21T08:03:11Z</time>
      </trkpt>
      <trkpt lat="44.45683" lon="6.5153">
        <ele>2799</ele>
        <time>2021-02-21T08:03:12Z</time>
      </trkpt>
      <trkpt lat="44.45683" lon="6.5153">
        <ele>2799</ele>
        <time>2021-02-21T08:03:13Z</time>
      </trkpt>
      <trkpt lat="44.45683" lon="6.5153">
        <ele>2799</ele>
        <time>2021-02-21T08:03:14Z</time>
      </trkpt>
      <trkpt lat="44.45683" lon="6.5153">
        <ele>2799</ele>
        <time>2021-02-21T08:03:15Z</time>
      </trkpt>
      <trkpt lat="44.45683" lon="6.5153">
        <ele>2799</ele>
        <time>2021-02-21T08:03:16Z</time>
      </trkpt>
      <trkpt lat="44.45683" lon="6.5153">
        <ele>2799</ele>
        <time>2021-02-21T08:03:17Z</time>
      </trkpt>
      <trkpt lat="44.45683" lon="6.5153">
        <ele>2799</ele>
        <time>2021-02-21T08:03:18Z</time>
      </trkpt>
      <trkpt lat="44.45683" lon="6.5153">
        <ele>2799</ele>
        <time>2021-02-21T08:03:19Z</time>
      </trkpt>
      <trkpt lat="44.45683" lon="6.5153">
        <ele>2799</ele>
        <time>2021-02-21T08:03:20Z</time>
      </trkpt>
      <trkpt lat="44.45683" lon="6.5153">
        <ele>2799</ele>
        <time>2021-02-21T08:03:21Z</time>
      </trkpt>
      <trkpt lat="44.45683" lon="6.5153">
        <ele>2799</ele>
        <time>2021-02-21T08:03:22Z</time>
      </trkpt>
      <trkpt lat="44.45683" lon="6.5153">
        <ele>2799</ele>
        <time>2021-02-21T08:03:23Z</time>
      </trkpt>
      <trkpt lat="44.45683" lon="6.5153">
        <ele>2799</ele>
        <time>2021-02-21T08:03:24Z</time>
      </trkpt>
      <trkpt lat="44.45683" lon="6.5153">
        <ele>2799</ele>
        <time>2021-02-21T08:03:25Z</time>
      </trkpt>
      <trkpt lat="44.45683" lon="6.5153">
        <ele>2799</ele>
        <time>2021-02-21T08:03:26Z</time>
      </trkpt>
      <trkpt lat="44.45688" lon="6.51532">
        <ele>2799</ele>
        <time>2021-02-21T08:03:27Z</time>
      </trkpt>
      <trkpt lat="44.45688" lon="6.51532">
        <ele>2799</ele>
        <time>2021-02-21T08:03:28Z</time>
      </trkpt>
      <trkpt lat="44.45689" lon="6.51532">
        <ele>2799</ele>
        <time>2021-02-21T08:03:29Z</time>
      </trkpt>
      <trkpt lat="44.45689" lon="6.51532">
        <ele>2799</ele>
        <time>2021-02-21T08:03:30Z</time>
      </trkpt>
      <trkpt lat="44.4569" lon="6.51533">
        <ele>2799</ele>
        <time>2021-02-21T08:03:31Z</time>
      </trkpt>
      <trkpt lat="44.4569" lon="6.51532">
        <ele>2799</ele>
        <time>2021-02-21T08:03:32Z</time>
      </trkpt>
      <trkpt lat="44.4569" lon="6.51533">
        <ele>2799</ele>
        <time>2021-02-21T08:03:33Z</time>
      </trkpt>
      <trkpt lat="44.45691" lon="6.51533">
        <ele>2799</ele>
        <time>2021-02-21T08:03:35Z</time>
      </trkpt>
      <trkpt lat="44.45691" lon="6.51533">
        <ele>2799</ele>
        <time>2021-02-21T08:03:36Z</time>
      </trkpt>
      <trkpt lat="44.45692" lon="6.51533">
        <ele>2799</ele>
        <time>2021-02-21T08:03:37Z</time>
      </trkpt>
      <trkpt lat="44.45692" lon="6.51533">
        <ele>2799</ele>
        <time>2021-02-21T08:03:38Z</time>
      </trkpt>
      <trkpt lat="44.45692" lon="6.51534">
        <ele>2799</ele>
        <time>2021-02-21T08:03:39Z</time>
      </trkpt>
      <trkpt lat="44.45693" lon="6.51534">
        <ele>2799</ele>
        <time>2021-02-21T08:03:40Z</time>
      </trkpt>
      <trkpt lat="44.45693" lon="6.51534">
        <ele>2799</ele>
        <time>2021-02-21T08:03:41Z</time>
      </trkpt>
      <trkpt lat="44.45694" lon="6.51534">
        <ele>2799</ele>
        <time>2021-02-21T08:03:42Z</time>
      </trkpt>
      <trkpt lat="44.45694" lon="6.51534">
        <ele>2799</ele>
        <time>2021-02-21T08:03:43Z</time>
      </trkpt>
      <trkpt lat="44.45694" lon="6.51535">
        <ele>2800</ele>
        <time>2021-02-21T08:03:44Z</time>
      </trkpt>
      <trkpt lat="44.45694" lon="6.51535">
        <ele>2800</ele>
        <time>2021-02-21T08:03:45Z</time>
      </trkpt>
      <trkpt lat="44.45695" lon="6.51535">
        <ele>2800</ele>
        <time>2021-02-21T08:03:46Z</time>
      </trkpt>
      <trkpt lat="44.45695" lon="6.51535">
        <ele>2800</ele>
        <time>2021-02-21T08:03:47Z</time>
      </trkpt>
      <trkpt lat="44.45696" lon="6.51536">
        <ele>2800</ele>
        <time>2021-02-21T08:03:48Z</time>
      </trkpt>
      <trkpt lat="44.45696" lon="6.51536">
        <ele>2800</ele>
        <time>2021-02-21T08:03:49Z</time>
      </trkpt>
      <trkpt lat="44.45696" lon="6.51536">
        <ele>2800</ele>
        <time>2021-02-21T08:03:50Z</time>
      </trkpt>
      <trkpt lat="44.45696" lon="6.51537">
        <ele>2800</ele>
        <time>2021-02-21T08:03:51Z</time>
      </trkpt>
      <trkpt lat="44.45696" lon="6.51537">
        <ele>2800</ele>
        <time>2021-02-21T08:03:52Z</time>
      </trkpt>
      <trkpt lat="44.45696" lon="6.51537">
        <ele>2800</ele>
        <time>2021-02-21T08:03:53Z</time>
      </trkpt>
      <trkpt lat="44.45696" lon="6.51537">
        <ele>2800</ele>
        <time>2021-02-21T08:03:54Z</time>
      </trkpt>
      <trkpt lat="44.45696" lon="6.51537">
        <ele>2800</ele>
        <time>2021-02-21T08:03:55Z</time>
      </trkpt>
      <trkpt lat="44.45696" lon="6.51537">
        <ele>2800</ele>
        <time>2021-02-21T08:03:56Z</time>
      </trkpt>
      <trkpt lat="44.45696" lon="6.51537">
        <ele>2800</ele>
        <time>2021-02-21T08:03:57Z</time>
      </trkpt>
      <trkpt lat="44.45696" lon="6.51537">
        <ele>2800</ele>
        <time>2021-02-21T08:03:58Z</time>
      </trkpt>
      <trkpt lat="44.45696" lon="6.51537">
        <ele>2800</ele>
        <time>2021-02-21T08:03:59Z</time>
      </trkpt>
      <trkpt lat="44.45696" lon="6.51537">
        <ele>2800</ele>
        <time>2021-02-21T08:04:00Z</time>
      </trkpt>
      <trkpt lat="44.45696" lon="6.51537">
        <ele>2800</ele>
        <time>2021-02-21T08:04:01Z</time>
      </trkpt>
      <trkpt lat="44.45696" lon="6.51537">
        <ele>2800</ele>
        <time>2021-02-21T08:04:02Z</time>
      </trkpt>
      <trkpt lat="44.45696" lon="6.51537">
        <ele>2800</ele>
        <time>2021-02-21T08:04:03Z</time>
      </trkpt>
      <trkpt lat="44.45696" lon="6.51537">
        <ele>2800</ele>
        <time>2021-02-21T08:04:04Z</time>
      </trkpt>
      <trkpt lat="44.45696" lon="6.51537">
        <ele>2800</ele>
        <time>2021-02-21T08:04:05Z</time>
      </trkpt>
      <trkpt lat="44.45696" lon="6.51537">
        <ele>2800</ele>
        <time>2021-02-21T08:04:06Z</time>
      </trkpt>
      <trkpt lat="44.45696" lon="6.51537">
        <ele>2800</ele>
        <time>2021-02-21T08:04:07Z</time>
      </trkpt>
      <trkpt lat="44.45696" lon="6.51537">
        <ele>2800</ele>
        <time>2021-02-21T08:04:08Z</time>
      </trkpt>
      <trkpt lat="44.45696" lon="6.51537">
        <ele>2800</ele>
        <time>2021-02-21T08:04:09Z</time>
      </trkpt>
      <trkpt lat="44.45696" lon="6.51537">
        <ele>2800</ele>
        <time>2021-02-21T08:04:10Z</time>
      </trkpt>
      <trkpt lat="44.45696" lon="6.51537">
        <ele>2800</ele>
        <time>2021-02-21T08:04:11Z</time>
      </trkpt>
      <trkpt lat="44.45696" lon="6.51537">
        <ele>2800</ele>
        <time>2021-02-21T08:04:12Z</time>
      </trkpt>
      <trkpt lat="44.45696" lon="6.51537">
        <ele>2800</ele>
        <time>2021-02-21T08:04:13Z</time>
      </trkpt>
      <trkpt lat="44.45696" lon="6.51537">
        <ele>2800</ele>
        <time>2021-02-21T08:04:14Z</time>
      </trkpt>
      <trkpt lat="44.45696" lon="6.51537">
        <ele>2800</ele>
        <time>2021-02-21T08:04:15Z</time>
      </trkpt>
      <trkpt lat="44.45696" lon="6.51537">
        <ele>2800</ele>
        <time>2021-02-21T08:04:16Z</time>
      </trkpt>
      <trkpt lat="44.45696" lon="6.51537">
        <ele>2800</ele>
        <time>2021-02-21T08:04:17Z</time>
      </trkpt>
      <trkpt lat="44.45696" lon="6.51537">
        <ele>2800</ele>
        <time>2021-02-21T08:04:18Z</time>
      </trkpt>
      <trkpt lat="44.45696" lon="6.51537">
        <ele>2800</ele>
        <time>2021-02-21T08:04:19Z</time>
      </trkpt>
      <trkpt lat="44.45696" lon="6.51537">
        <ele>2800</ele>
        <time>2021-02-21T08:04:20Z</time>
      </trkpt>
      <trkpt lat="44.45696" lon="6.51537">
        <ele>2800</ele>
        <time>2021-02-21T08:04:21Z</time>
      </trkpt>
      <trkpt lat="44.45696" lon="6.51537">
        <ele>2800</ele>
        <time>2021-02-21T08:04:22Z</time>
      </trkpt>
      <trkpt lat="44.45704" lon="6.51539">
        <ele>2801</ele>
        <time>2021-02-21T08:04:23Z</time>
      </trkpt>
      <trkpt lat="44.45704" lon="6.51539">
        <ele>2801</ele>
        <time>2021-02-21T08:04:24Z</time>
      </trkpt>
      <trkpt lat="44.45704" lon="6.51539">
        <ele>2801</ele>
        <time>2021-02-21T08:04:25Z</time>
      </trkpt>
      <trkpt lat="44.45705" lon="6.5154">
        <ele>2802</ele>
        <time>2021-02-21T08:04:26Z</time>
      </trkpt>
      <trkpt lat="44.45705" lon="6.5154">
        <ele>2802</ele>
        <time>2021-02-21T08:04:27Z</time>
      </trkpt>
      <trkpt lat="44.45705" lon="6.5154">
        <ele>2802</ele>
        <time>2021-02-21T08:04:28Z</time>
      </trkpt>
      <trkpt lat="44.45705" lon="6.5154">
        <ele>2802</ele>
        <time>2021-02-21T08:04:29Z</time>
      </trkpt>
      <trkpt lat="44.45705" lon="6.5154">
        <ele>2802</ele>
        <time>2021-02-21T08:04:30Z</time>
      </trkpt>
      <trkpt lat="44.45705" lon="6.5154">
        <ele>2802</ele>
        <time>2021-02-21T08:04:31Z</time>
      </trkpt>
      <trkpt lat="44.45705" lon="6.5154">
        <ele>2802</ele>
        <time>2021-02-21T08:04:32Z</time>
      </trkpt>
      <trkpt lat="44.45705" lon="6.5154">
        <ele>2802</ele>
        <time>2021-02-21T08:04:33Z</time>
      </trkpt>
      <trkpt lat="44.45705" lon="6.5154">
        <ele>2802</ele>
        <time>2021-02-21T08:04:34Z</time>
      </trkpt>
      <trkpt lat="44.45705" lon="6.5154">
        <ele>2802</ele>
        <time>2021-02-21T08:04:35Z</time>
      </trkpt>
      <trkpt lat="44.45705" lon="6.5154">
        <ele>2802</ele>
        <time>2021-02-21T08:04:36Z</time>
      </trkpt>
      <trkpt lat="44.45705" lon="6.5154">
        <ele>2802</ele>
        <time>2021-02-21T08:04:37Z</time>
      </trkpt>
      <trkpt lat="44.45708" lon="6.51542">
        <ele>2803</ele>
        <time>2021-02-21T08:04:38Z</time>
      </trkpt>
      <trkpt lat="44.45708" lon="6.51543">
        <ele>2803</ele>
        <time>2021-02-21T08:04:39Z</time>
      </trkpt>
      <trkpt lat="44.45708" lon="6.51543">
        <ele>2804</ele>
        <time>2021-02-21T08:04:40Z</time>
      </trkpt>
      <trkpt lat="44.45708" lon="6.51544">
        <ele>2804</ele>
        <time>2021-02-21T08:04:41Z</time>
      </trkpt>
      <trkpt lat="44.45708" lon="6.51544">
        <ele>2804</ele>
        <time>2021-02-21T08:04:42Z</time>
      </trkpt>
      <trkpt lat="44.45709" lon="6.51544">
        <ele>2804</ele>
        <time>2021-02-21T08:04:43Z</time>
      </trkpt>
      <trkpt lat="44.45709" lon="6.51544">
        <ele>2804</ele>
        <time>2021-02-21T08:04:44Z</time>
      </trkpt>
      <trkpt lat="44.4571" lon="6.51544">
        <ele>2804</ele>
        <time>2021-02-21T08:04:45Z</time>
      </trkpt>
      <trkpt lat="44.4571" lon="6.51544">
        <ele>2804</ele>
        <time>2021-02-21T08:04:46Z</time>
      </trkpt>
      <trkpt lat="44.4571" lon="6.51543">
        <ele>2804</ele>
        <time>2021-02-21T08:04:47Z</time>
      </trkpt>
      <trkpt lat="44.4571" lon="6.51543">
        <ele>2804</ele>
        <time>2021-02-21T08:04:48Z</time>
      </trkpt>
      <trkpt lat="44.4571" lon="6.51543">
        <ele>2804</ele>
        <time>2021-02-21T08:04:49Z</time>
      </trkpt>
      <trkpt lat="44.4571" lon="6.51543">
        <ele>2804</ele>
        <time>2021-02-21T08:04:50Z</time>
      </trkpt>
      <trkpt lat="44.4571" lon="6.51543">
        <ele>2804</ele>
        <time>2021-02-21T08:04:51Z</time>
      </trkpt>
      <trkpt lat="44.4571" lon="6.51543">
        <ele>2804</ele>
        <time>2021-02-21T08:04:52Z</time>
      </trkpt>
      <trkpt lat="44.4571" lon="6.51543">
        <ele>2804</ele>
        <time>2021-02-21T08:04:53Z</time>
      </trkpt>
      <trkpt lat="44.4571" lon="6.51543">
        <ele>2805</ele>
        <time>2021-02-21T08:04:54Z</time>
      </trkpt>
      <trkpt lat="44.4571" lon="6.51543">
        <ele>2805</ele>
        <time>2021-02-21T08:04:55Z</time>
      </trkpt>
      <trkpt lat="44.4571" lon="6.51543">
        <ele>2805</ele>
        <time>2021-02-21T08:04:56Z</time>
      </trkpt>
      <trkpt lat="44.4571" lon="6.51543">
        <ele>2805</ele>
        <time>2021-02-21T08:04:57Z</time>
      </trkpt>
      <trkpt lat="44.4571" lon="6.51543">
        <ele>2805</ele>
        <time>2021-02-21T08:04:58Z</time>
      </trkpt>
      <trkpt lat="44.4571" lon="6.51543">
        <ele>2805</ele>
        <time>2021-02-21T08:04:59Z</time>
      </trkpt>
      <trkpt lat="44.4571" lon="6.51543">
        <ele>2805</ele>
        <time>2021-02-21T08:05:00Z</time>
      </trkpt>
      <trkpt lat="44.4571" lon="6.51543">
        <ele>2805</ele>
        <time>2021-02-21T08:05:01Z</time>
      </trkpt>
      <trkpt lat="44.4571" lon="6.51543">
        <ele>2805</ele>
        <time>2021-02-21T08:05:02Z</time>
      </trkpt>
      <trkpt lat="44.4571" lon="6.51543">
        <ele>2805</ele>
        <time>2021-02-21T08:05:03Z</time>
      </trkpt>
      <trkpt lat="44.4571" lon="6.51543">
        <ele>2805</ele>
        <time>2021-02-21T08:05:04Z</time>
      </trkpt>
      <trkpt lat="44.45714" lon="6.51547">
        <ele>2806</ele>
        <time>2021-02-21T08:05:05Z</time>
      </trkpt>
      <trkpt lat="44.45715" lon="6.51547">
        <ele>2806</ele>
        <time>2021-02-21T08:05:06Z</time>
      </trkpt>
      <trkpt lat="44.45715" lon="6.51547">
        <ele>2806</ele>
        <time>2021-02-21T08:05:07Z</time>
      </trkpt>
      <trkpt lat="44.45715" lon="6.51547">
        <ele>2806</ele>
        <time>2021-02-21T08:05:08Z</time>
      </trkpt>
      <trkpt lat="44.45716" lon="6.51548">
        <ele>2806</ele>
        <time>2021-02-21T08:05:09Z</time>
      </trkpt>
      <trkpt lat="44.45717" lon="6.51548">
        <ele>2806</ele>
        <time>2021-02-21T08:05:10Z</time>
      </trkpt>
      <trkpt lat="44.45717" lon="6.51549">
        <ele>2807</ele>
        <time>2021-02-21T08:05:11Z</time>
      </trkpt>
      <trkpt lat="44.45718" lon="6.51549">
        <ele>2807</ele>
        <time>2021-02-21T08:05:12Z</time>
      </trkpt>
      <trkpt lat="44.45718" lon="6.51549">
        <ele>2807</ele>
        <time>2021-02-21T08:05:13Z</time>
      </trkpt>
      <trkpt lat="44.45718" lon="6.51548">
        <ele>2807</ele>
        <time>2021-02-21T08:05:14Z</time>
      </trkpt>
      <trkpt lat="44.45718" lon="6.51549">
        <ele>2807</ele>
        <time>2021-02-21T08:05:15Z</time>
      </trkpt>
      <trkpt lat="44.45719" lon="6.51549">
        <ele>2807</ele>
        <time>2021-02-21T08:05:16Z</time>
      </trkpt>
      <trkpt lat="44.45719" lon="6.51548">
        <ele>2807</ele>
        <time>2021-02-21T08:05:17Z</time>
      </trkpt>
      <trkpt lat="44.4572" lon="6.51547">
        <ele>2807</ele>
        <time>2021-02-21T08:05:18Z</time>
      </trkpt>
      <trkpt lat="44.4572" lon="6.51547">
        <ele>2807</ele>
        <time>2021-02-21T08:05:19Z</time>
      </trkpt>
      <trkpt lat="44.4572" lon="6.51547">
        <ele>2807</ele>
        <time>2021-02-21T08:05:20Z</time>
      </trkpt>
      <trkpt lat="44.45721" lon="6.51547">
        <ele>2807</ele>
        <time>2021-02-21T08:05:21Z</time>
      </trkpt>
      <trkpt lat="44.45721" lon="6.51547">
        <ele>2807</ele>
        <time>2021-02-21T08:05:22Z</time>
      </trkpt>
      <trkpt lat="44.45721" lon="6.51547">
        <ele>2807</ele>
        <time>2021-02-21T08:05:23Z</time>
      </trkpt>
      <trkpt lat="44.45721" lon="6.51547">
        <ele>2808</ele>
        <time>2021-02-21T08:05:24Z</time>
      </trkpt>
      <trkpt lat="44.45721" lon="6.51547">
        <ele>2808</ele>
        <time>2021-02-21T08:05:25Z</time>
      </trkpt>
      <trkpt lat="44.45721" lon="6.51547">
        <ele>2808</ele>
        <time>2021-02-21T08:05:26Z</time>
      </trkpt>
      <trkpt lat="44.45722" lon="6.51548">
        <ele>2808</ele>
        <time>2021-02-21T08:05:27Z</time>
      </trkpt>
      <trkpt lat="44.45723" lon="6.51548">
        <ele>2808</ele>
        <time>2021-02-21T08:05:28Z</time>
      </trkpt>
      <trkpt lat="44.45723" lon="6.51548">
        <ele>2808</ele>
        <time>2021-02-21T08:05:29Z</time>
      </trkpt>
      <trkpt lat="44.45724" lon="6.51549">
        <ele>2809</ele>
        <time>2021-02-21T08:05:30Z</time>
      </trkpt>
      <trkpt lat="44.45724" lon="6.51549">
        <ele>2809</ele>
        <time>2021-02-21T08:05:31Z</time>
      </trkpt>
      <trkpt lat="44.45724" lon="6.51549">
        <ele>2809</ele>
        <time>2021-02-21T08:05:32Z</time>
      </trkpt>
      <trkpt lat="44.45724" lon="6.5155">
        <ele>2809</ele>
        <time>2021-02-21T08:05:33Z</time>
      </trkpt>
      <trkpt lat="44.45725" lon="6.5155">
        <ele>2809</ele>
        <time>2021-02-21T08:05:34Z</time>
      </trkpt>
      <trkpt lat="44.45725" lon="6.5155">
        <ele>2809</ele>
        <time>2021-02-21T08:05:35Z</time>
      </trkpt>
      <trkpt lat="44.45726" lon="6.5155">
        <ele>2810</ele>
        <time>2021-02-21T08:05:36Z</time>
      </trkpt>
      <trkpt lat="44.45726" lon="6.5155">
        <ele>2810</ele>
        <time>2021-02-21T08:05:37Z</time>
      </trkpt>
      <trkpt lat="44.45726" lon="6.5155">
        <ele>2810</ele>
        <time>2021-02-21T08:05:38Z</time>
      </trkpt>
      <trkpt lat="44.45726" lon="6.5155">
        <ele>2810</ele>
        <time>2021-02-21T08:05:39Z</time>
      </trkpt>
      <trkpt lat="44.45726" lon="6.51551">
        <ele>2810</ele>
        <time>2021-02-21T08:05:40Z</time>
      </trkpt>
      <trkpt lat="44.45726" lon="6.51551">
        <ele>2810</ele>
        <time>2021-02-21T08:05:41Z</time>
      </trkpt>
      <trkpt lat="44.45726" lon="6.51551">
        <ele>2810</ele>
        <time>2021-02-21T08:05:42Z</time>
      </trkpt>
      <trkpt lat="44.45726" lon="6.51551">
        <ele>2810</ele>
        <time>2021-02-21T08:05:43Z</time>
      </trkpt>
      <trkpt lat="44.45726" lon="6.51551">
        <ele>2811</ele>
        <time>2021-02-21T08:05:44Z</time>
      </trkpt>
      <trkpt lat="44.45726" lon="6.51552">
        <ele>2811</ele>
        <time>2021-02-21T08:05:45Z</time>
      </trkpt>
      <trkpt lat="44.45725" lon="6.51552">
        <ele>2811</ele>
        <time>2021-02-21T08:05:46Z</time>
      </trkpt>
      <trkpt lat="44.45726" lon="6.51553">
        <ele>2811</ele>
        <time>2021-02-21T08:05:47Z</time>
      </trkpt>
      <trkpt lat="44.45726" lon="6.51553">
        <ele>2811</ele>
        <time>2021-02-21T08:05:48Z</time>
      </trkpt>
      <trkpt lat="44.45725" lon="6.51553">
        <ele>2811</ele>
        <time>2021-02-21T08:05:49Z</time>
      </trkpt>
      <trkpt lat="44.45725" lon="6.51553">
        <ele>2811</ele>
        <time>2021-02-21T08:05:50Z</time>
      </trkpt>
      <trkpt lat="44.45725" lon="6.51553">
        <ele>2811</ele>
        <time>2021-02-21T08:05:51Z</time>
      </trkpt>
      <trkpt lat="44.45725" lon="6.51553">
        <ele>2811</ele>
        <time>2021-02-21T08:05:52Z</time>
      </trkpt>
      <trkpt lat="44.45725" lon="6.51553">
        <ele>2811</ele>
        <time>2021-02-21T08:05:53Z</time>
      </trkpt>
      <trkpt lat="44.45725" lon="6.51553">
        <ele>2811</ele>
        <time>2021-02-21T08:05:54Z</time>
      </trkpt>
      <trkpt lat="44.45725" lon="6.51553">
        <ele>2811</ele>
        <time>2021-02-21T08:05:55Z</time>
      </trkpt>
      <trkpt lat="44.45725" lon="6.51553">
        <ele>2811</ele>
        <time>2021-02-21T08:05:56Z</time>
      </trkpt>
      <trkpt lat="44.45725" lon="6.51553">
        <ele>2811</ele>
        <time>2021-02-21T08:05:57Z</time>
      </trkpt>
      <trkpt lat="44.45725" lon="6.51553">
        <ele>2811</ele>
        <time>2021-02-21T08:05:58Z</time>
      </trkpt>
      <trkpt lat="44.45725" lon="6.51553">
        <ele>2811</ele>
        <time>2021-02-21T08:05:59Z</time>
      </trkpt>
      <trkpt lat="44.45725" lon="6.51553">
        <ele>2811</ele>
        <time>2021-02-21T08:06:00Z</time>
      </trkpt>
      <trkpt lat="44.45725" lon="6.51553">
        <ele>2811</ele>
        <time>2021-02-21T08:06:01Z</time>
      </trkpt>
      <trkpt lat="44.45725" lon="6.51553">
        <ele>2811</ele>
        <time>2021-02-21T08:06:02Z</time>
      </trkpt>
      <trkpt lat="44.45725" lon="6.51553">
        <ele>2811</ele>
        <time>2021-02-21T08:06:03Z</time>
      </trkpt>
      <trkpt lat="44.45725" lon="6.51553">
        <ele>2811</ele>
        <time>2021-02-21T08:06:04Z</time>
      </trkpt>
      <trkpt lat="44.45725" lon="6.51553">
        <ele>2811</ele>
        <time>2021-02-21T08:06:05Z</time>
      </trkpt>
      <trkpt lat="44.45725" lon="6.51553">
        <ele>2811</ele>
        <time>2021-02-21T08:06:06Z</time>
      </trkpt>
      <trkpt lat="44.45725" lon="6.51553">
        <ele>2811</ele>
        <time>2021-02-21T08:06:07Z</time>
      </trkpt>
      <trkpt lat="44.45725" lon="6.51553">
        <ele>2811</ele>
        <time>2021-02-21T08:06:08Z</time>
      </trkpt>
      <trkpt lat="44.45725" lon="6.51553">
        <ele>2811</ele>
        <time>2021-02-21T08:06:09Z</time>
      </trkpt>
      <trkpt lat="44.45725" lon="6.51553">
        <ele>2811</ele>
        <time>2021-02-21T08:06:10Z</time>
      </trkpt>
      <trkpt lat="44.45725" lon="6.51553">
        <ele>2811</ele>
        <time>2021-02-21T08:06:11Z</time>
      </trkpt>
      <trkpt lat="44.45725" lon="6.51553">
        <ele>2811</ele>
        <time>2021-02-21T08:06:12Z</time>
      </trkpt>
      <trkpt lat="44.45725" lon="6.51553">
        <ele>2811</ele>
        <time>2021-02-21T08:06:13Z</time>
      </trkpt>
      <trkpt lat="44.45725" lon="6.51553">
        <ele>2811</ele>
        <time>2021-02-21T08:06:14Z</time>
      </trkpt>
      <trkpt lat="44.45725" lon="6.51553">
        <ele>2811</ele>
        <time>2021-02-21T08:06:15Z</time>
      </trkpt>
      <trkpt lat="44.45725" lon="6.51553">
        <ele>2811</ele>
        <time>2021-02-21T08:06:16Z</time>
      </trkpt>
      <trkpt lat="44.45725" lon="6.51553">
        <ele>2811</ele>
        <time>2021-02-21T08:06:17Z</time>
      </trkpt>
      <trkpt lat="44.45725" lon="6.51553">
        <ele>2811</ele>
        <time>2021-02-21T08:06:18Z</time>
      </trkpt>
      <trkpt lat="44.45725" lon="6.51553">
        <ele>2811</ele>
        <time>2021-02-21T08:06:19Z</time>
      </trkpt>
      <trkpt lat="44.45725" lon="6.51553">
        <ele>2811</ele>
        <time>2021-02-21T08:06:20Z</time>
      </trkpt>
      <trkpt lat="44.45725" lon="6.51553">
        <ele>2811</ele>
        <time>2021-02-21T08:06:21Z</time>
      </trkpt>
      <trkpt lat="44.45725" lon="6.51553">
        <ele>2811</ele>
        <time>2021-02-21T08:06:22Z</time>
      </trkpt>
      <trkpt lat="44.45725" lon="6.51553">
        <ele>2811</ele>
        <time>2021-02-21T08:06:23Z</time>
      </trkpt>
      <trkpt lat="44.45725" lon="6.51553">
        <ele>2811</ele>
        <time>2021-02-21T08:06:24Z</time>
      </trkpt>
      <trkpt lat="44.45725" lon="6.51553">
        <ele>2811</ele>
        <time>2021-02-21T08:06:25Z</time>
      </trkpt>
      <trkpt lat="44.45725" lon="6.51553">
        <ele>2811</ele>
        <time>2021-02-21T08:06:26Z</time>
      </trkpt>
      <trkpt lat="44.45725" lon="6.51553">
        <ele>2811</ele>
        <time>2021-02-21T08:06:27Z</time>
      </trkpt>
      <trkpt lat="44.45725" lon="6.51553">
        <ele>2811</ele>
        <time>2021-02-21T08:06:28Z</time>
      </trkpt>
      <trkpt lat="44.45725" lon="6.51553">
        <ele>2811</ele>
        <time>2021-02-21T08:06:29Z</time>
      </trkpt>
      <trkpt lat="44.45725" lon="6.51553">
        <ele>2811</ele>
        <time>2021-02-21T08:06:30Z</time>
      </trkpt>
      <trkpt lat="44.45725" lon="6.51553">
        <ele>2811</ele>
        <time>2021-02-21T08:06:31Z</time>
      </trkpt>
      <trkpt lat="44.45725" lon="6.51553">
        <ele>2811</ele>
        <time>2021-02-21T08:06:32Z</time>
      </trkpt>
      <trkpt lat="44.45725" lon="6.51553">
        <ele>2811</ele>
        <time>2021-02-21T08:06:33Z</time>
      </trkpt>
      <trkpt lat="44.45725" lon="6.51553">
        <ele>2811</ele>
        <time>2021-02-21T08:06:34Z</time>
      </trkpt>
      <trkpt lat="44.45725" lon="6.51553">
        <ele>2811</ele>
        <time>2021-02-21T08:06:35Z</time>
      </trkpt>
      <trkpt lat="44.45733" lon="6.51557">
        <ele>2811</ele>
        <time>2021-02-21T08:06:36Z</time>
      </trkpt>
      <trkpt lat="44.45733" lon="6.51556">
        <ele>2811</ele>
        <time>2021-02-21T08:06:37Z</time>
      </trkpt>
      <trkpt lat="44.45733" lon="6.51556">
        <ele>2811</ele>
        <time>2021-02-21T08:06:38Z</time>
      </trkpt>
      <trkpt lat="44.45733" lon="6.51556">
        <ele>2810</ele>
        <time>2021-02-21T08:06:39Z</time>
      </trkpt>
      <trkpt lat="44.45733" lon="6.51556">
        <ele>2810</ele>
        <time>2021-02-21T08:06:40Z</time>
      </trkpt>
      <trkpt lat="44.45733" lon="6.51556">
        <ele>2810</ele>
        <time>2021-02-21T08:06:41Z</time>
      </trkpt>
      <trkpt lat="44.45733" lon="6.51556">
        <ele>2810</ele>
        <time>2021-02-21T08:06:42Z</time>
      </trkpt>
      <trkpt lat="44.45733" lon="6.51556">
        <ele>2810</ele>
        <time>2021-02-21T08:06:43Z</time>
      </trkpt>
      <trkpt lat="44.45733" lon="6.51556">
        <ele>2810</ele>
        <time>2021-02-21T08:06:44Z</time>
      </trkpt>
      <trkpt lat="44.45733" lon="6.51556">
        <ele>2810</ele>
        <time>2021-02-21T08:06:45Z</time>
      </trkpt>
      <trkpt lat="44.45733" lon="6.51556">
        <ele>2810</ele>
        <time>2021-02-21T08:06:46Z</time>
      </trkpt>
      <trkpt lat="44.45733" lon="6.51556">
        <ele>2810</ele>
        <time>2021-02-21T08:06:47Z</time>
      </trkpt>
      <trkpt lat="44.45733" lon="6.51556">
        <ele>2810</ele>
        <time>2021-02-21T08:06:48Z</time>
      </trkpt>
      <trkpt lat="44.45734" lon="6.51557">
        <ele>2810</ele>
        <time>2021-02-21T08:06:49Z</time>
      </trkpt>
      <trkpt lat="44.45734" lon="6.51558">
        <ele>2810</ele>
        <time>2021-02-21T08:06:50Z</time>
      </trkpt>
      <trkpt lat="44.45734" lon="6.51558">
        <ele>2810</ele>
        <time>2021-02-21T08:06:51Z</time>
      </trkpt>
      <trkpt lat="44.45734" lon="6.51559">
        <ele>2810</ele>
        <time>2021-02-21T08:06:52Z</time>
      </trkpt>
      <trkpt lat="44.45734" lon="6.51559">
        <ele>2810</ele>
        <time>2021-02-21T08:06:53Z</time>
      </trkpt>
      <trkpt lat="44.45734" lon="6.51559">
        <ele>2810</ele>
        <time>2021-02-21T08:06:54Z</time>
      </trkpt>
      <trkpt lat="44.45734" lon="6.51559">
        <ele>2810</ele>
        <time>2021-02-21T08:06:55Z</time>
      </trkpt>
      <trkpt lat="44.45734" lon="6.51559">
        <ele>2810</ele>
        <time>2021-02-21T08:06:56Z</time>
      </trkpt>
      <trkpt lat="44.45734" lon="6.51559">
        <ele>2810</ele>
        <time>2021-02-21T08:06:57Z</time>
      </trkpt>
      <trkpt lat="44.45734" lon="6.51559">
        <ele>2810</ele>
        <time>2021-02-21T08:06:58Z</time>
      </trkpt>
      <trkpt lat="44.45734" lon="6.51559">
        <ele>2810</ele>
        <time>2021-02-21T08:06:59Z</time>
      </trkpt>
      <trkpt lat="44.45734" lon="6.51559">
        <ele>2810</ele>
        <time>2021-02-21T08:07:00Z</time>
      </trkpt>
      <trkpt lat="44.45734" lon="6.51559">
        <ele>2810</ele>
        <time>2021-02-21T08:07:01Z</time>
      </trkpt>
      <trkpt lat="44.45734" lon="6.51559">
        <ele>2810</ele>
        <time>2021-02-21T08:07:02Z</time>
      </trkpt>
      <trkpt lat="44.45737" lon="6.51561">
        <ele>2810</ele>
        <time>2021-02-21T08:07:03Z</time>
      </trkpt>
      <trkpt lat="44.45738" lon="6.51561">
        <ele>2811</ele>
        <time>2021-02-21T08:07:04Z</time>
      </trkpt>
      <trkpt lat="44.45738" lon="6.51562">
        <ele>2811</ele>
        <time>2021-02-21T08:07:05Z</time>
      </trkpt>
      <trkpt lat="44.45738" lon="6.51562">
        <ele>2811</ele>
        <time>2021-02-21T08:07:06Z</time>
      </trkpt>
      <trkpt lat="44.45738" lon="6.51562">
        <ele>2811</ele>
        <time>2021-02-21T08:07:07Z</time>
      </trkpt>
      <trkpt lat="44.45739" lon="6.51562">
        <ele>2811</ele>
        <time>2021-02-21T08:07:08Z</time>
      </trkpt>
      <trkpt lat="44.45739" lon="6.51563">
        <ele>2811</ele>
        <time>2021-02-21T08:07:09Z</time>
      </trkpt>
      <trkpt lat="44.45739" lon="6.51563">
        <ele>2811</ele>
        <time>2021-02-21T08:07:10Z</time>
      </trkpt>
      <trkpt lat="44.45739" lon="6.51563">
        <ele>2811</ele>
        <time>2021-02-21T08:07:11Z</time>
      </trkpt>
      <trkpt lat="44.45739" lon="6.51563">
        <ele>2811</ele>
        <time>2021-02-21T08:07:12Z</time>
      </trkpt>
      <trkpt lat="44.45739" lon="6.51563">
        <ele>2811</ele>
        <time>2021-02-21T08:07:13Z</time>
      </trkpt>
      <trkpt lat="44.45739" lon="6.51563">
        <ele>2811</ele>
        <time>2021-02-21T08:07:14Z</time>
      </trkpt>
      <trkpt lat="44.45739" lon="6.51563">
        <ele>2811</ele>
        <time>2021-02-21T08:07:15Z</time>
      </trkpt>
      <trkpt lat="44.45739" lon="6.51563">
        <ele>2811</ele>
        <time>2021-02-21T08:07:16Z</time>
      </trkpt>
      <trkpt lat="44.45739" lon="6.51563">
        <ele>2811</ele>
        <time>2021-02-21T08:07:17Z</time>
      </trkpt>
      <trkpt lat="44.45739" lon="6.51563">
        <ele>2811</ele>
        <time>2021-02-21T08:07:18Z</time>
      </trkpt>
      <trkpt lat="44.45739" lon="6.51563">
        <ele>2811</ele>
        <time>2021-02-21T08:07:19Z</time>
      </trkpt>
      <trkpt lat="44.45739" lon="6.51563">
        <ele>2811</ele>
        <time>2021-02-21T08:07:20Z</time>
      </trkpt>
      <trkpt lat="44.45739" lon="6.51563">
        <ele>2811</ele>
        <time>2021-02-21T08:07:21Z</time>
      </trkpt>
      <trkpt lat="44.45742" lon="6.51565">
        <ele>2811</ele>
        <time>2021-02-21T08:07:22Z</time>
      </trkpt>
      <trkpt lat="44.45743" lon="6.51566">
        <ele>2811</ele>
        <time>2021-02-21T08:07:23Z</time>
      </trkpt>
      <trkpt lat="44.45744" lon="6.51566">
        <ele>2811</ele>
        <time>2021-02-21T08:07:24Z</time>
      </trkpt>
      <trkpt lat="44.45744" lon="6.51566">
        <ele>2811</ele>
        <time>2021-02-21T08:07:25Z</time>
      </trkpt>
      <trkpt lat="44.45744" lon="6.51566">
        <ele>2811</ele>
        <time>2021-02-21T08:07:26Z</time>
      </trkpt>
      <trkpt lat="44.45744" lon="6.51566">
        <ele>2811</ele>
        <time>2021-02-21T08:07:27Z</time>
      </trkpt>
      <trkpt lat="44.45745" lon="6.51566">
        <ele>2811</ele>
        <time>2021-02-21T08:07:28Z</time>
      </trkpt>
      <trkpt lat="44.45745" lon="6.51565">
        <ele>2811</ele>
        <time>2021-02-21T08:07:29Z</time>
      </trkpt>
      <trkpt lat="44.45745" lon="6.51565">
        <ele>2811</ele>
        <time>2021-02-21T08:07:30Z</time>
      </trkpt>
      <trkpt lat="44.45746" lon="6.51565">
        <ele>2810</ele>
        <time>2021-02-21T08:07:31Z</time>
      </trkpt>
      <trkpt lat="44.45746" lon="6.51565">
        <ele>2810</ele>
        <time>2021-02-21T08:07:32Z</time>
      </trkpt>
      <trkpt lat="44.45746" lon="6.51566">
        <ele>2810</ele>
        <time>2021-02-21T08:07:33Z</time>
      </trkpt>
      <trkpt lat="44.45747" lon="6.51566">
        <ele>2810</ele>
        <time>2021-02-21T08:07:34Z</time>
      </trkpt>
      <trkpt lat="44.45747" lon="6.51567">
        <ele>2810</ele>
        <time>2021-02-21T08:07:35Z</time>
      </trkpt>
      <trkpt lat="44.45747" lon="6.51567">
        <ele>2810</ele>
        <time>2021-02-21T08:07:36Z</time>
      </trkpt>
      <trkpt lat="44.45748" lon="6.51568">
        <ele>2810</ele>
        <time>2021-02-21T08:07:37Z</time>
      </trkpt>
      <trkpt lat="44.45748" lon="6.51568">
        <ele>2810</ele>
        <time>2021-02-21T08:07:38Z</time>
      </trkpt>
      <trkpt lat="44.45748" lon="6.51567">
        <ele>2810</ele>
        <time>2021-02-21T08:07:39Z</time>
      </trkpt>
      <trkpt lat="44.45748" lon="6.51567">
        <ele>2810</ele>
        <time>2021-02-21T08:07:40Z</time>
      </trkpt>
      <trkpt lat="44.45748" lon="6.51568">
        <ele>2810</ele>
        <time>2021-02-21T08:07:41Z</time>
      </trkpt>
      <trkpt lat="44.45748" lon="6.51568">
        <ele>2810</ele>
        <time>2021-02-21T08:07:42Z</time>
      </trkpt>
      <trkpt lat="44.45748" lon="6.51568">
        <ele>2810</ele>
        <time>2021-02-21T08:07:43Z</time>
      </trkpt>
      <trkpt lat="44.45748" lon="6.51568">
        <ele>2810</ele>
        <time>2021-02-21T08:07:44Z</time>
      </trkpt>
      <trkpt lat="44.45748" lon="6.51568">
        <ele>2810</ele>
        <time>2021-02-21T08:07:45Z</time>
      </trkpt>
      <trkpt lat="44.45748" lon="6.51568">
        <ele>2810</ele>
        <time>2021-02-21T08:07:46Z</time>
      </trkpt>
      <trkpt lat="44.45748" lon="6.51568">
        <ele>2810</ele>
        <time>2021-02-21T08:07:47Z</time>
      </trkpt>
      <trkpt lat="44.45748" lon="6.51568">
        <ele>2810</ele>
        <time>2021-02-21T08:07:48Z</time>
      </trkpt>
      <trkpt lat="44.45748" lon="6.51568">
        <ele>2810</ele>
        <time>2021-02-21T08:07:49Z</time>
      </trkpt>
      <trkpt lat="44.45748" lon="6.51568">
        <ele>2810</ele>
        <time>2021-02-21T08:07:50Z</time>
      </trkpt>
      <trkpt lat="44.45748" lon="6.51568">
        <ele>2810</ele>
        <time>2021-02-21T08:07:51Z</time>
      </trkpt>
      <trkpt lat="44.45748" lon="6.51568">
        <ele>2810</ele>
        <time>2021-02-21T08:07:52Z</time>
      </trkpt>
      <trkpt lat="44.45748" lon="6.51568">
        <ele>2810</ele>
        <time>2021-02-21T08:07:53Z</time>
      </trkpt>
      <trkpt lat="44.45751" lon="6.51571">
        <ele>2810</ele>
        <time>2021-02-21T08:07:54Z</time>
      </trkpt>
      <trkpt lat="44.45751" lon="6.51571">
        <ele>2811</ele>
        <time>2021-02-21T08:07:55Z</time>
      </trkpt>
      <trkpt lat="44.45752" lon="6.51572">
        <ele>2811</ele>
        <time>2021-02-21T08:07:56Z</time>
      </trkpt>
      <trkpt lat="44.45752" lon="6.51572">
        <ele>2811</ele>
        <time>2021-02-21T08:07:57Z</time>
      </trkpt>
      <trkpt lat="44.45752" lon="6.51572">
        <ele>2811</ele>
        <time>2021-02-21T08:07:58Z</time>
      </trkpt>
      <trkpt lat="44.45753" lon="6.51573">
        <ele>2811</ele>
        <time>2021-02-21T08:07:59Z</time>
      </trkpt>
      <trkpt lat="44.45753" lon="6.51573">
        <ele>2811</ele>
        <time>2021-02-21T08:08:00Z</time>
      </trkpt>
      <trkpt lat="44.45754" lon="6.51573">
        <ele>2811</ele>
        <time>2021-02-21T08:08:01Z</time>
      </trkpt>
      <trkpt lat="44.45754" lon="6.51573">
        <ele>2811</ele>
        <time>2021-02-21T08:08:02Z</time>
      </trkpt>
      <trkpt lat="44.45755" lon="6.51573">
        <ele>2811</ele>
        <time>2021-02-21T08:08:03Z</time>
      </trkpt>
      <trkpt lat="44.45755" lon="6.51573">
        <ele>2811</ele>
        <time>2021-02-21T08:08:04Z</time>
      </trkpt>
      <trkpt lat="44.45756" lon="6.51573">
        <ele>2811</ele>
        <time>2021-02-21T08:08:05Z</time>
      </trkpt>
      <trkpt lat="44.45756" lon="6.51573">
        <ele>2811</ele>
        <time>2021-02-21T08:08:06Z</time>
      </trkpt>
      <trkpt lat="44.45756" lon="6.51573">
        <ele>2811</ele>
        <time>2021-02-21T08:08:07Z</time>
      </trkpt>
      <trkpt lat="44.45756" lon="6.51573">
        <ele>2811</ele>
        <time>2021-02-21T08:08:08Z</time>
      </trkpt>
      <trkpt lat="44.45756" lon="6.51573">
        <ele>2811</ele>
        <time>2021-02-21T08:08:09Z</time>
      </trkpt>
      <trkpt lat="44.45756" lon="6.51574">
        <ele>2811</ele>
        <time>2021-02-21T08:08:10Z</time>
      </trkpt>
      <trkpt lat="44.45756" lon="6.51574">
        <ele>2811</ele>
        <time>2021-02-21T08:08:11Z</time>
      </trkpt>
      <trkpt lat="44.45756" lon="6.51574">
        <ele>2811</ele>
        <time>2021-02-21T08:08:12Z</time>
      </trkpt>
      <trkpt lat="44.45756" lon="6.51574">
        <ele>2811</ele>
        <time>2021-02-21T08:08:13Z</time>
      </trkpt>
      <trkpt lat="44.45756" lon="6.51574">
        <ele>2811</ele>
        <time>2021-02-21T08:08:14Z</time>
      </trkpt>
      <trkpt lat="44.45756" lon="6.51574">
        <ele>2811</ele>
        <time>2021-02-21T08:08:15Z</time>
      </trkpt>
      <trkpt lat="44.45756" lon="6.51574">
        <ele>2811</ele>
        <time>2021-02-21T08:08:16Z</time>
      </trkpt>
      <trkpt lat="44.45756" lon="6.51574">
        <ele>2811</ele>
        <time>2021-02-21T08:08:17Z</time>
      </trkpt>
      <trkpt lat="44.45756" lon="6.51574">
        <ele>2811</ele>
        <time>2021-02-21T08:08:18Z</time>
      </trkpt>
      <trkpt lat="44.45756" lon="6.51574">
        <ele>2811</ele>
        <time>2021-02-21T08:08:19Z</time>
      </trkpt>
      <trkpt lat="44.45756" lon="6.51574">
        <ele>2811</ele>
        <time>2021-02-21T08:08:20Z</time>
      </trkpt>
      <trkpt lat="44.45756" lon="6.51574">
        <ele>2811</ele>
        <time>2021-02-21T08:08:21Z</time>
      </trkpt>
      <trkpt lat="44.45756" lon="6.51574">
        <ele>2811</ele>
        <time>2021-02-21T08:08:22Z</time>
      </trkpt>
      <trkpt lat="44.45756" lon="6.51574">
        <ele>2811</ele>
        <time>2021-02-21T08:08:23Z</time>
      </trkpt>
      <trkpt lat="44.45756" lon="6.51574">
        <ele>2811</ele>
        <time>2021-02-21T08:08:24Z</time>
      </trkpt>
      <trkpt lat="44.45756" lon="6.51574">
        <ele>2811</ele>
        <time>2021-02-21T08:08:25Z</time>
      </trkpt>
      <trkpt lat="44.45756" lon="6.51574">
        <ele>2811</ele>
        <time>2021-02-21T08:08:26Z</time>
      </trkpt>
      <trkpt lat="44.45756" lon="6.51574">
        <ele>2811</ele>
        <time>2021-02-21T08:08:27Z</time>
      </trkpt>
      <trkpt lat="44.45756" lon="6.51574">
        <ele>2811</ele>
        <time>2021-02-21T08:08:28Z</time>
      </trkpt>
      <trkpt lat="44.45756" lon="6.51574">
        <ele>2811</ele>
        <time>2021-02-21T08:08:29Z</time>
      </trkpt>
      <trkpt lat="44.45756" lon="6.51574">
        <ele>2811</ele>
        <time>2021-02-21T08:08:30Z</time>
      </trkpt>
      <trkpt lat="44.45756" lon="6.51574">
        <ele>2811</ele>
        <time>2021-02-21T08:08:31Z</time>
      </trkpt>
      <trkpt lat="44.45756" lon="6.51574">
        <ele>2811</ele>
        <time>2021-02-21T08:08:32Z</time>
      </trkpt>
      <trkpt lat="44.45756" lon="6.51574">
        <ele>2811</ele>
        <time>2021-02-21T08:08:33Z</time>
      </trkpt>
      <trkpt lat="44.45756" lon="6.51574">
        <ele>2811</ele>
        <time>2021-02-21T08:08:34Z</time>
      </trkpt>
      <trkpt lat="44.45756" lon="6.51574">
        <ele>2811</ele>
        <time>2021-02-21T08:08:35Z</time>
      </trkpt>
      <trkpt lat="44.45756" lon="6.51574">
        <ele>2811</ele>
        <time>2021-02-21T08:08:36Z</time>
      </trkpt>
      <trkpt lat="44.45756" lon="6.51574">
        <ele>2811</ele>
        <time>2021-02-21T08:08:37Z</time>
      </trkpt>
      <trkpt lat="44.45756" lon="6.51574">
        <ele>2811</ele>
        <time>2021-02-21T08:08:38Z</time>
      </trkpt>
      <trkpt lat="44.45756" lon="6.51574">
        <ele>2811</ele>
        <time>2021-02-21T08:08:39Z</time>
      </trkpt>
      <trkpt lat="44.45756" lon="6.51574">
        <ele>2811</ele>
        <time>2021-02-21T08:08:40Z</time>
      </trkpt>
      <trkpt lat="44.45756" lon="6.51574">
        <ele>2811</ele>
        <time>2021-02-21T08:08:41Z</time>
      </trkpt>
      <trkpt lat="44.45756" lon="6.51574">
        <ele>2811</ele>
        <time>2021-02-21T08:08:42Z</time>
      </trkpt>
      <trkpt lat="44.45756" lon="6.51574">
        <ele>2811</ele>
        <time>2021-02-21T08:08:43Z</time>
      </trkpt>
      <trkpt lat="44.45756" lon="6.51574">
        <ele>2811</ele>
        <time>2021-02-21T08:08:44Z</time>
      </trkpt>
      <trkpt lat="44.45756" lon="6.51574">
        <ele>2811</ele>
        <time>2021-02-21T08:08:45Z</time>
      </trkpt>
      <trkpt lat="44.45756" lon="6.51574">
        <ele>2811</ele>
        <time>2021-02-21T08:08:46Z</time>
      </trkpt>
      <trkpt lat="44.45756" lon="6.51574">
        <ele>2811</ele>
        <time>2021-02-21T08:08:47Z</time>
      </trkpt>
      <trkpt lat="44.45756" lon="6.51574">
        <ele>2811</ele>
        <time>2021-02-21T08:08:48Z</time>
      </trkpt>
      <trkpt lat="44.45756" lon="6.51574">
        <ele>2811</ele>
        <time>2021-02-21T08:08:49Z</time>
      </trkpt>
      <trkpt lat="44.45756" lon="6.51574">
        <ele>2811</ele>
        <time>2021-02-21T08:08:50Z</time>
      </trkpt>
      <trkpt lat="44.45756" lon="6.51574">
        <ele>2811</ele>
        <time>2021-02-21T08:08:51Z</time>
      </trkpt>
      <trkpt lat="44.45756" lon="6.51574">
        <ele>2811</ele>
        <time>2021-02-21T08:08:52Z</time>
      </trkpt>
      <trkpt lat="44.45756" lon="6.51574">
        <ele>2811</ele>
        <time>2021-02-21T08:08:53Z</time>
      </trkpt>
      <trkpt lat="44.45756" lon="6.51574">
        <ele>2811</ele>
        <time>2021-02-21T08:08:54Z</time>
      </trkpt>
      <trkpt lat="44.45756" lon="6.51574">
        <ele>2811</ele>
        <time>2021-02-21T08:08:55Z</time>
      </trkpt>
      <trkpt lat="44.45756" lon="6.51574">
        <ele>2811</ele>
        <time>2021-02-21T08:08:56Z</time>
      </trkpt>
      <trkpt lat="44.45756" lon="6.51574">
        <ele>2811</ele>
        <time>2021-02-21T08:08:57Z</time>
      </trkpt>
      <trkpt lat="44.45756" lon="6.51574">
        <ele>2811</ele>
        <time>2021-02-21T08:08:58Z</time>
      </trkpt>
      <trkpt lat="44.45756" lon="6.51574">
        <ele>2811</ele>
        <time>2021-02-21T08:08:59Z</time>
      </trkpt>
      <trkpt lat="44.45756" lon="6.51574">
        <ele>2811</ele>
        <time>2021-02-21T08:09:00Z</time>
      </trkpt>
      <trkpt lat="44.45756" lon="6.51574">
        <ele>2811</ele>
        <time>2021-02-21T08:09:01Z</time>
      </trkpt>
      <trkpt lat="44.45756" lon="6.51574">
        <ele>2811</ele>
        <time>2021-02-21T08:09:02Z</time>
      </trkpt>
      <trkpt lat="44.45756" lon="6.51574">
        <ele>2811</ele>
        <time>2021-02-21T08:09:03Z</time>
      </trkpt>
      <trkpt lat="44.45756" lon="6.51574">
        <ele>2811</ele>
        <time>2021-02-21T08:09:04Z</time>
      </trkpt>
      <trkpt lat="44.45756" lon="6.51574">
        <ele>2811</ele>
        <time>2021-02-21T08:09:05Z</time>
      </trkpt>
      <trkpt lat="44.45756" lon="6.51574">
        <ele>2811</ele>
        <time>2021-02-21T08:09:06Z</time>
      </trkpt>
      <trkpt lat="44.45756" lon="6.51574">
        <ele>2811</ele>
        <time>2021-02-21T08:09:07Z</time>
      </trkpt>
      <trkpt lat="44.45756" lon="6.51574">
        <ele>2811</ele>
        <time>2021-02-21T08:09:08Z</time>
      </trkpt>
      <trkpt lat="44.45756" lon="6.51574">
        <ele>2811</ele>
        <time>2021-02-21T08:09:09Z</time>
      </trkpt>
      <trkpt lat="44.45756" lon="6.51574">
        <ele>2811</ele>
        <time>2021-02-21T08:09:10Z</time>
      </trkpt>
      <trkpt lat="44.45756" lon="6.51574">
        <ele>2811</ele>
        <time>2021-02-21T08:09:11Z</time>
      </trkpt>
      <trkpt lat="44.45756" lon="6.51574">
        <ele>2811</ele>
        <time>2021-02-21T08:09:12Z</time>
      </trkpt>
      <trkpt lat="44.45756" lon="6.51574">
        <ele>2811</ele>
        <time>2021-02-21T08:09:13Z</time>
      </trkpt>
      <trkpt lat="44.45756" lon="6.51574">
        <ele>2811</ele>
        <time>2021-02-21T08:09:14Z</time>
      </trkpt>
      <trkpt lat="44.45756" lon="6.51574">
        <ele>2811</ele>
        <time>2021-02-21T08:09:15Z</time>
      </trkpt>
      <trkpt lat="44.45757" lon="6.51572">
        <ele>2811</ele>
        <time>2021-02-21T08:09:16Z</time>
      </trkpt>
      <trkpt lat="44.45757" lon="6.51572">
        <ele>2811</ele>
        <time>2021-02-21T08:09:17Z</time>
      </trkpt>
      <trkpt lat="44.45758" lon="6.51572">
        <ele>2811</ele>
        <time>2021-02-21T08:09:18Z</time>
      </trkpt>
      <trkpt lat="44.45758" lon="6.51572">
        <ele>2811</ele>
        <time>2021-02-21T08:09:19Z</time>
      </trkpt>
      <trkpt lat="44.45759" lon="6.51572">
        <ele>2811</ele>
        <time>2021-02-21T08:09:20Z</time>
      </trkpt>
      <trkpt lat="44.45759" lon="6.51573">
        <ele>2811</ele>
        <time>2021-02-21T08:09:21Z</time>
      </trkpt>
      <trkpt lat="44.45759" lon="6.51573">
        <ele>2811</ele>
        <time>2021-02-21T08:09:22Z</time>
      </trkpt>
      <trkpt lat="44.45759" lon="6.51573">
        <ele>2811</ele>
        <time>2021-02-21T08:09:23Z</time>
      </trkpt>
      <trkpt lat="44.45759" lon="6.51573">
        <ele>2811</ele>
        <time>2021-02-21T08:09:24Z</time>
      </trkpt>
      <trkpt lat="44.4576" lon="6.51574">
        <ele>2811</ele>
        <time>2021-02-21T08:09:25Z</time>
      </trkpt>
      <trkpt lat="44.4576" lon="6.51574">
        <ele>2811</ele>
        <time>2021-02-21T08:09:26Z</time>
      </trkpt>
      <trkpt lat="44.45761" lon="6.51574">
        <ele>2811</ele>
        <time>2021-02-21T08:09:27Z</time>
      </trkpt>
      <trkpt lat="44.45761" lon="6.51574">
        <ele>2811</ele>
        <time>2021-02-21T08:09:28Z</time>
      </trkpt>
      <trkpt lat="44.45761" lon="6.51574">
        <ele>2811</ele>
        <time>2021-02-21T08:09:29Z</time>
      </trkpt>
      <trkpt lat="44.45761" lon="6.51574">
        <ele>2811</ele>
        <time>2021-02-21T08:09:30Z</time>
      </trkpt>
      <trkpt lat="44.45761" lon="6.51574">
        <ele>2811</ele>
        <time>2021-02-21T08:09:31Z</time>
      </trkpt>
      <trkpt lat="44.45761" lon="6.51574">
        <ele>2811</ele>
        <time>2021-02-21T08:09:32Z</time>
      </trkpt>
      <trkpt lat="44.45761" lon="6.51574">
        <ele>2811</ele>
        <time>2021-02-21T08:09:33Z</time>
      </trkpt>
      <trkpt lat="44.45761" lon="6.51574">
        <ele>2811</ele>
        <time>2021-02-21T08:09:34Z</time>
      </trkpt>
      <trkpt lat="44.45761" lon="6.51574">
        <ele>2811</ele>
        <time>2021-02-21T08:09:35Z</time>
      </trkpt>
      <trkpt lat="44.45761" lon="6.51574">
        <ele>2811</ele>
        <time>2021-02-21T08:09:36Z</time>
      </trkpt>
      <trkpt lat="44.45761" lon="6.51574">
        <ele>2811</ele>
        <time>2021-02-21T08:09:37Z</time>
      </trkpt>
      <trkpt lat="44.45764" lon="6.51573">
        <ele>2811</ele>
        <time>2021-02-21T08:09:38Z</time>
      </trkpt>
      <trkpt lat="44.45765" lon="6.51574">
        <ele>2811</ele>
        <time>2021-02-21T08:09:39Z</time>
      </trkpt>
      <trkpt lat="44.45765" lon="6.51574">
        <ele>2811</ele>
        <time>2021-02-21T08:09:40Z</time>
      </trkpt>
      <trkpt lat="44.45765" lon="6.51574">
        <ele>2811</ele>
        <time>2021-02-21T08:09:41Z</time>
      </trkpt>
      <trkpt lat="44.45765" lon="6.51573">
        <ele>2811</ele>
        <time>2021-02-21T08:09:42Z</time>
      </trkpt>
      <trkpt lat="44.45765" lon="6.51573">
        <ele>2811</ele>
        <time>2021-02-21T08:09:43Z</time>
      </trkpt>
      <trkpt lat="44.45765" lon="6.51573">
        <ele>2811</ele>
        <time>2021-02-21T08:09:44Z</time>
      </trkpt>
      <trkpt lat="44.45765" lon="6.51573">
        <ele>2811</ele>
        <time>2021-02-21T08:09:45Z</time>
      </trkpt>
      <trkpt lat="44.45765" lon="6.51573">
        <ele>2811</ele>
        <time>2021-02-21T08:09:46Z</time>
      </trkpt>
      <trkpt lat="44.45765" lon="6.51573">
        <ele>2811</ele>
        <time>2021-02-21T08:09:47Z</time>
      </trkpt>
      <trkpt lat="44.45765" lon="6.51573">
        <ele>2811</ele>
        <time>2021-02-21T08:09:48Z</time>
      </trkpt>
      <trkpt lat="44.45765" lon="6.51573">
        <ele>2811</ele>
        <time>2021-02-21T08:09:49Z</time>
      </trkpt>
      <trkpt lat="44.45765" lon="6.51573">
        <ele>2811</ele>
        <time>2021-02-21T08:09:50Z</time>
      </trkpt>
      <trkpt lat="44.45765" lon="6.51573">
        <ele>2811</ele>
        <time>2021-02-21T08:09:51Z</time>
      </trkpt>
      <trkpt lat="44.45765" lon="6.51573">
        <ele>2811</ele>
        <time>2021-02-21T08:09:52Z</time>
      </trkpt>
      <trkpt lat="44.45765" lon="6.51573">
        <ele>2811</ele>
        <time>2021-02-21T08:09:53Z</time>
      </trkpt>
      <trkpt lat="44.45765" lon="6.51573">
        <ele>2811</ele>
        <time>2021-02-21T08:09:54Z</time>
      </trkpt>
      <trkpt lat="44.45765" lon="6.51573">
        <ele>2811</ele>
        <time>2021-02-21T08:09:55Z</time>
      </trkpt>
      <trkpt lat="44.45765" lon="6.51573">
        <ele>2811</ele>
        <time>2021-02-21T08:09:56Z</time>
      </trkpt>
      <trkpt lat="44.45765" lon="6.51573">
        <ele>2811</ele>
        <time>2021-02-21T08:09:57Z</time>
      </trkpt>
      <trkpt lat="44.45765" lon="6.51573">
        <ele>2811</ele>
        <time>2021-02-21T08:09:58Z</time>
      </trkpt>
      <trkpt lat="44.45765" lon="6.51573">
        <ele>2811</ele>
        <time>2021-02-21T08:09:59Z</time>
      </trkpt>
      <trkpt lat="44.45765" lon="6.51573">
        <ele>2811</ele>
        <time>2021-02-21T08:10:00Z</time>
      </trkpt>
      <trkpt lat="44.45765" lon="6.51573">
        <ele>2811</ele>
        <time>2021-02-21T08:10:01Z</time>
      </trkpt>
      <trkpt lat="44.45765" lon="6.51573">
        <ele>2811</ele>
        <time>2021-02-21T08:10:02Z</time>
      </trkpt>
      <trkpt lat="44.45765" lon="6.51573">
        <ele>2811</ele>
        <time>2021-02-21T08:10:03Z</time>
      </trkpt>
      <trkpt lat="44.45765" lon="6.51573">
        <ele>2811</ele>
        <time>2021-02-21T08:10:04Z</time>
      </trkpt>
      <trkpt lat="44.45765" lon="6.51573">
        <ele>2811</ele>
        <time>2021-02-21T08:10:05Z</time>
      </trkpt>
      <trkpt lat="44.45765" lon="6.51575">
        <ele>2811</ele>
        <time>2021-02-21T08:10:06Z</time>
      </trkpt>
      <trkpt lat="44.45764" lon="6.51575">
        <ele>2811</ele>
        <time>2021-02-21T08:10:07Z</time>
      </trkpt>
      <trkpt lat="44.45764" lon="6.51575">
        <ele>2811</ele>
        <time>2021-02-21T08:10:08Z</time>
      </trkpt>
      <trkpt lat="44.45763" lon="6.51575">
        <ele>2811</ele>
        <time>2021-02-21T08:10:09Z</time>
      </trkpt>
      <trkpt lat="44.45763" lon="6.51575">
        <ele>2811</ele>
        <time>2021-02-21T08:10:10Z</time>
      </trkpt>
      <trkpt lat="44.45763" lon="6.51575">
        <ele>2811</ele>
        <time>2021-02-21T08:10:11Z</time>
      </trkpt>
      <trkpt lat="44.45763" lon="6.51575">
        <ele>2811</ele>
        <time>2021-02-21T08:10:12Z</time>
      </trkpt>
      <trkpt lat="44.45763" lon="6.51575">
        <ele>2811</ele>
        <time>2021-02-21T08:10:13Z</time>
      </trkpt>
      <trkpt lat="44.45763" lon="6.51575">
        <ele>2811</ele>
        <time>2021-02-21T08:10:14Z</time>
      </trkpt>
      <trkpt lat="44.45763" lon="6.51575">
        <ele>2811</ele>
        <time>2021-02-21T08:10:15Z</time>
      </trkpt>
      <trkpt lat="44.45763" lon="6.51575">
        <ele>2811</ele>
        <time>2021-02-21T08:10:16Z</time>
      </trkpt>
      <trkpt lat="44.45763" lon="6.51575">
        <ele>2811</ele>
        <time>2021-02-21T08:10:17Z</time>
      </trkpt>
      <trkpt lat="44.45763" lon="6.51575">
        <ele>2811</ele>
        <time>2021-02-21T08:10:18Z</time>
      </trkpt>
      <trkpt lat="44.45763" lon="6.51575">
        <ele>2811</ele>
        <time>2021-02-21T08:10:19Z</time>
      </trkpt>
      <trkpt lat="44.45763" lon="6.51575">
        <ele>2811</ele>
        <time>2021-02-21T08:10:20Z</time>
      </trkpt>
      <trkpt lat="44.45766" lon="6.51575">
        <ele>2811</ele>
        <time>2021-02-21T08:10:21Z</time>
      </trkpt>
      <trkpt lat="44.45767" lon="6.51575">
        <ele>2811</ele>
        <time>2021-02-21T08:10:22Z</time>
      </trkpt>
      <trkpt lat="44.45767" lon="6.51575">
        <ele>2811</ele>
        <time>2021-02-21T08:10:23Z</time>
      </trkpt>
      <trkpt lat="44.45767" lon="6.51575">
        <ele>2812</ele>
        <time>2021-02-21T08:10:24Z</time>
      </trkpt>
      <trkpt lat="44.45767" lon="6.51575">
        <ele>2812</ele>
        <time>2021-02-21T08:10:25Z</time>
      </trkpt>
      <trkpt lat="44.45767" lon="6.51575">
        <ele>2812</ele>
        <time>2021-02-21T08:10:26Z</time>
      </trkpt>
      <trkpt lat="44.45767" lon="6.51575">
        <ele>2812</ele>
        <time>2021-02-21T08:10:27Z</time>
      </trkpt>
      <trkpt lat="44.45767" lon="6.51575">
        <ele>2812</ele>
        <time>2021-02-21T08:10:28Z</time>
      </trkpt>
      <trkpt lat="44.45767" lon="6.51575">
        <ele>2812</ele>
        <time>2021-02-21T08:10:29Z</time>
      </trkpt>
      <trkpt lat="44.45767" lon="6.51575">
        <ele>2812</ele>
        <time>2021-02-21T08:10:30Z</time>
      </trkpt>
      <trkpt lat="44.45767" lon="6.51575">
        <ele>2812</ele>
        <time>2021-02-21T08:10:31Z</time>
      </trkpt>
      <trkpt lat="44.45769" lon="6.51576">
        <ele>2812</ele>
        <time>2021-02-21T08:10:32Z</time>
      </trkpt>
      <trkpt lat="44.45769" lon="6.51576">
        <ele>2812</ele>
        <time>2021-02-21T08:10:33Z</time>
      </trkpt>
      <trkpt lat="44.4577" lon="6.51576">
        <ele>2812</ele>
        <time>2021-02-21T08:10:35Z</time>
      </trkpt>
      <trkpt lat="44.4577" lon="6.51575">
        <ele>2812</ele>
        <time>2021-02-21T08:10:36Z</time>
      </trkpt>
      <trkpt lat="44.45771" lon="6.51575">
        <ele>2812</ele>
        <time>2021-02-21T08:10:37Z</time>
      </trkpt>
      <trkpt lat="44.45771" lon="6.51575">
        <ele>2813</ele>
        <time>2021-02-21T08:10:38Z</time>
      </trkpt>
      <trkpt lat="44.45771" lon="6.51575">
        <ele>2813</ele>
        <time>2021-02-21T08:10:39Z</time>
      </trkpt>
      <trkpt lat="44.45771" lon="6.51575">
        <ele>2813</ele>
        <time>2021-02-21T08:10:40Z</time>
      </trkpt>
      <trkpt lat="44.45771" lon="6.51575">
        <ele>2813</ele>
        <time>2021-02-21T08:10:41Z</time>
      </trkpt>
      <trkpt lat="44.45771" lon="6.51575">
        <ele>2813</ele>
        <time>2021-02-21T08:10:42Z</time>
      </trkpt>
      <trkpt lat="44.45771" lon="6.51575">
        <ele>2813</ele>
        <time>2021-02-21T08:10:43Z</time>
      </trkpt>
      <trkpt lat="44.45772" lon="6.51573">
        <ele>2813</ele>
        <time>2021-02-21T08:10:44Z</time>
      </trkpt>
      <trkpt lat="44.45772" lon="6.51573">
        <ele>2812</ele>
        <time>2021-02-21T08:10:45Z</time>
      </trkpt>
      <trkpt lat="44.45772" lon="6.51572">
        <ele>2812</ele>
        <time>2021-02-21T08:10:46Z</time>
      </trkpt>
      <trkpt lat="44.45772" lon="6.51572">
        <ele>2812</ele>
        <time>2021-02-21T08:10:47Z</time>
      </trkpt>
      <trkpt lat="44.45772" lon="6.51571">
        <ele>2812</ele>
        <time>2021-02-21T08:10:48Z</time>
      </trkpt>
      <trkpt lat="44.45772" lon="6.51571">
        <ele>2812</ele>
        <time>2021-02-21T08:10:49Z</time>
      </trkpt>
      <trkpt lat="44.45772" lon="6.51571">
        <ele>2812</ele>
        <time>2021-02-21T08:10:50Z</time>
      </trkpt>
      <trkpt lat="44.45772" lon="6.51571">
        <ele>2812</ele>
        <time>2021-02-21T08:10:51Z</time>
      </trkpt>
      <trkpt lat="44.45772" lon="6.51571">
        <ele>2812</ele>
        <time>2021-02-21T08:10:52Z</time>
      </trkpt>
      <trkpt lat="44.45773" lon="6.51571">
        <ele>2812</ele>
        <time>2021-02-21T08:10:53Z</time>
      </trkpt>
      <trkpt lat="44.45772" lon="6.51572">
        <ele>2812</ele>
        <time>2021-02-21T08:10:54Z</time>
      </trkpt>
      <trkpt lat="44.45772" lon="6.51572">
        <ele>2812</ele>
        <time>2021-02-21T08:10:55Z</time>
      </trkpt>
      <trkpt lat="44.45772" lon="6.51572">
        <ele>2812</ele>
        <time>2021-02-21T08:10:56Z</time>
      </trkpt>
      <trkpt lat="44.45772" lon="6.51572">
        <ele>2812</ele>
        <time>2021-02-21T08:10:57Z</time>
      </trkpt>
      <trkpt lat="44.45774" lon="6.51572">
        <ele>2812</ele>
        <time>2021-02-21T08:10:58Z</time>
      </trkpt>
      <trkpt lat="44.45774" lon="6.51572">
        <ele>2812</ele>
        <time>2021-02-21T08:10:59Z</time>
      </trkpt>
      <trkpt lat="44.45774" lon="6.51572">
        <ele>2812</ele>
        <time>2021-02-21T08:11:00Z</time>
      </trkpt>
      <trkpt lat="44.45774" lon="6.51572">
        <ele>2812</ele>
        <time>2021-02-21T08:11:01Z</time>
      </trkpt>
      <trkpt lat="44.45774" lon="6.51572">
        <ele>2813</ele>
        <time>2021-02-21T08:11:02Z</time>
      </trkpt>
      <trkpt lat="44.45774" lon="6.51572">
        <ele>2813</ele>
        <time>2021-02-21T08:11:03Z</time>
      </trkpt>
      <trkpt lat="44.45774" lon="6.51572">
        <ele>2813</ele>
        <time>2021-02-21T08:11:04Z</time>
      </trkpt>
      <trkpt lat="44.45774" lon="6.51572">
        <ele>2813</ele>
        <time>2021-02-21T08:11:05Z</time>
      </trkpt>
      <trkpt lat="44.45774" lon="6.51572">
        <ele>2813</ele>
        <time>2021-02-21T08:11:06Z</time>
      </trkpt>
      <trkpt lat="44.45774" lon="6.51572">
        <ele>2813</ele>
        <time>2021-02-21T08:11:07Z</time>
      </trkpt>
      <trkpt lat="44.45774" lon="6.51572">
        <ele>2813</ele>
        <time>2021-02-21T08:11:08Z</time>
      </trkpt>
      <trkpt lat="44.45774" lon="6.51572">
        <ele>2813</ele>
        <time>2021-02-21T08:11:09Z</time>
      </trkpt>
      <trkpt lat="44.45774" lon="6.51572">
        <ele>2813</ele>
        <time>2021-02-21T08:11:10Z</time>
      </trkpt>
      <trkpt lat="44.45774" lon="6.51572">
        <ele>2813</ele>
        <time>2021-02-21T08:11:11Z</time>
      </trkpt>
      <trkpt lat="44.45774" lon="6.51572">
        <ele>2813</ele>
        <time>2021-02-21T08:11:12Z</time>
      </trkpt>
      <trkpt lat="44.45774" lon="6.51572">
        <ele>2813</ele>
        <time>2021-02-21T08:11:13Z</time>
      </trkpt>
      <trkpt lat="44.45774" lon="6.51572">
        <ele>2813</ele>
        <time>2021-02-21T08:11:14Z</time>
      </trkpt>
      <trkpt lat="44.45774" lon="6.51572">
        <ele>2813</ele>
        <time>2021-02-21T08:11:15Z</time>
      </trkpt>
      <trkpt lat="44.45774" lon="6.51572">
        <ele>2813</ele>
        <time>2021-02-21T08:11:16Z</time>
      </trkpt>
      <trkpt lat="44.45774" lon="6.51572">
        <ele>2813</ele>
        <time>2021-02-21T08:11:17Z</time>
      </trkpt>
      <trkpt lat="44.45777" lon="6.51571">
        <ele>2814</ele>
        <time>2021-02-21T08:11:18Z</time>
      </trkpt>
      <trkpt lat="44.45777" lon="6.5157">
        <ele>2814</ele>
        <time>2021-02-21T08:11:19Z</time>
      </trkpt>
      <trkpt lat="44.45777" lon="6.5157">
        <ele>2814</ele>
        <time>2021-02-21T08:11:20Z</time>
      </trkpt>
      <trkpt lat="44.45777" lon="6.5157">
        <ele>2815</ele>
        <time>2021-02-21T08:11:21Z</time>
      </trkpt>
      <trkpt lat="44.45777" lon="6.5157">
        <ele>2815</ele>
        <time>2021-02-21T08:11:22Z</time>
      </trkpt>
      <trkpt lat="44.45777" lon="6.5157">
        <ele>2815</ele>
        <time>2021-02-21T08:11:23Z</time>
      </trkpt>
      <trkpt lat="44.45777" lon="6.5157">
        <ele>2815</ele>
        <time>2021-02-21T08:11:24Z</time>
      </trkpt>
      <trkpt lat="44.45777" lon="6.5157">
        <ele>2815</ele>
        <time>2021-02-21T08:11:25Z</time>
      </trkpt>
      <trkpt lat="44.45777" lon="6.51569">
        <ele>2815</ele>
        <time>2021-02-21T08:11:26Z</time>
      </trkpt>
      <trkpt lat="44.45777" lon="6.51569">
        <ele>2815</ele>
        <time>2021-02-21T08:11:27Z</time>
      </trkpt>
      <trkpt lat="44.45777" lon="6.51569">
        <ele>2815</ele>
        <time>2021-02-21T08:11:28Z</time>
      </trkpt>
      <trkpt lat="44.45777" lon="6.51569">
        <ele>2815</ele>
        <time>2021-02-21T08:11:29Z</time>
      </trkpt>
      <trkpt lat="44.45777" lon="6.51569">
        <ele>2815</ele>
        <time>2021-02-21T08:11:30Z</time>
      </trkpt>
      <trkpt lat="44.45777" lon="6.51569">
        <ele>2815</ele>
        <time>2021-02-21T08:11:31Z</time>
      </trkpt>
      <trkpt lat="44.45777" lon="6.51569">
        <ele>2815</ele>
        <time>2021-02-21T08:11:32Z</time>
      </trkpt>
      <trkpt lat="44.45777" lon="6.51569">
        <ele>2815</ele>
        <time>2021-02-21T08:11:33Z</time>
      </trkpt>
      <trkpt lat="44.45777" lon="6.51569">
        <ele>2815</ele>
        <time>2021-02-21T08:11:34Z</time>
      </trkpt>
      <trkpt lat="44.45777" lon="6.51569">
        <ele>2815</ele>
        <time>2021-02-21T08:11:35Z</time>
      </trkpt>
      <trkpt lat="44.45777" lon="6.51569">
        <ele>2815</ele>
        <time>2021-02-21T08:11:36Z</time>
      </trkpt>
      <trkpt lat="44.45777" lon="6.51569">
        <ele>2815</ele>
        <time>2021-02-21T08:11:37Z</time>
      </trkpt>
      <trkpt lat="44.45777" lon="6.51569">
        <ele>2815</ele>
        <time>2021-02-21T08:11:38Z</time>
      </trkpt>
      <trkpt lat="44.45777" lon="6.51569">
        <ele>2815</ele>
        <time>2021-02-21T08:11:39Z</time>
      </trkpt>
      <trkpt lat="44.45777" lon="6.51569">
        <ele>2815</ele>
        <time>2021-02-21T08:11:40Z</time>
      </trkpt>
      <trkpt lat="44.45777" lon="6.51569">
        <ele>2815</ele>
        <time>2021-02-21T08:11:41Z</time>
      </trkpt>
      <trkpt lat="44.45777" lon="6.51569">
        <ele>2815</ele>
        <time>2021-02-21T08:11:42Z</time>
      </trkpt>
      <trkpt lat="44.45777" lon="6.51569">
        <ele>2815</ele>
        <time>2021-02-21T08:11:43Z</time>
      </trkpt>
      <trkpt lat="44.45777" lon="6.51569">
        <ele>2815</ele>
        <time>2021-02-21T08:11:44Z</time>
      </trkpt>
      <trkpt lat="44.45777" lon="6.51569">
        <ele>2815</ele>
        <time>2021-02-21T08:11:45Z</time>
      </trkpt>
      <trkpt lat="44.45777" lon="6.51569">
        <ele>2815</ele>
        <time>2021-02-21T08:11:46Z</time>
      </trkpt>
      <trkpt lat="44.45777" lon="6.51569">
        <ele>2815</ele>
        <time>2021-02-21T08:11:47Z</time>
      </trkpt>
      <trkpt lat="44.45777" lon="6.51569">
        <ele>2815</ele>
        <time>2021-02-21T08:11:48Z</time>
      </trkpt>
      <trkpt lat="44.45781" lon="6.51568">
        <ele>2815</ele>
        <time>2021-02-21T08:11:49Z</time>
      </trkpt>
      <trkpt lat="44.45781" lon="6.51568">
        <ele>2815</ele>
        <time>2021-02-21T08:11:50Z</time>
      </trkpt>
      <trkpt lat="44.45781" lon="6.51568">
        <ele>2815</ele>
        <time>2021-02-21T08:11:51Z</time>
      </trkpt>
      <trkpt lat="44.45782" lon="6.51569">
        <ele>2815</ele>
        <time>2021-02-21T08:11:52Z</time>
      </trkpt>
      <trkpt lat="44.45782" lon="6.51569">
        <ele>2815</ele>
        <time>2021-02-21T08:11:53Z</time>
      </trkpt>
      <trkpt lat="44.45782" lon="6.51569">
        <ele>2815</ele>
        <time>2021-02-21T08:11:54Z</time>
      </trkpt>
      <trkpt lat="44.45782" lon="6.51569">
        <ele>2815</ele>
        <time>2021-02-21T08:11:55Z</time>
      </trkpt>
      <trkpt lat="44.45782" lon="6.51569">
        <ele>2815</ele>
        <time>2021-02-21T08:11:56Z</time>
      </trkpt>
      <trkpt lat="44.45782" lon="6.51569">
        <ele>2815</ele>
        <time>2021-02-21T08:11:57Z</time>
      </trkpt>
      <trkpt lat="44.45782" lon="6.51569">
        <ele>2815</ele>
        <time>2021-02-21T08:11:58Z</time>
      </trkpt>
      <trkpt lat="44.45782" lon="6.51569">
        <ele>2815</ele>
        <time>2021-02-21T08:11:59Z</time>
      </trkpt>
      <trkpt lat="44.45782" lon="6.51569">
        <ele>2815</ele>
        <time>2021-02-21T08:12:00Z</time>
      </trkpt>
      <trkpt lat="44.45782" lon="6.51569">
        <ele>2815</ele>
        <time>2021-02-21T08:12:01Z</time>
      </trkpt>
      <trkpt lat="44.45782" lon="6.51569">
        <ele>2815</ele>
        <time>2021-02-21T08:12:02Z</time>
      </trkpt>
      <trkpt lat="44.45782" lon="6.51569">
        <ele>2815</ele>
        <time>2021-02-21T08:12:03Z</time>
      </trkpt>
      <trkpt lat="44.45785" lon="6.51568">
        <ele>2816</ele>
        <time>2021-02-21T08:12:04Z</time>
      </trkpt>
      <trkpt lat="44.45785" lon="6.51568">
        <ele>2816</ele>
        <time>2021-02-21T08:12:05Z</time>
      </trkpt>
      <trkpt lat="44.45786" lon="6.51568">
        <ele>2816</ele>
        <time>2021-02-21T08:12:06Z</time>
      </trkpt>
      <trkpt lat="44.45786" lon="6.51568">
        <ele>2817</ele>
        <time>2021-02-21T08:12:07Z</time>
      </trkpt>
      <trkpt lat="44.45786" lon="6.51567">
        <ele>2817</ele>
        <time>2021-02-21T08:12:08Z</time>
      </trkpt>
      <trkpt lat="44.45786" lon="6.51567">
        <ele>2817</ele>
        <time>2021-02-21T08:12:09Z</time>
      </trkpt>
      <trkpt lat="44.45786" lon="6.51567">
        <ele>2817</ele>
        <time>2021-02-21T08:12:10Z</time>
      </trkpt>
      <trkpt lat="44.45786" lon="6.51567">
        <ele>2817</ele>
        <time>2021-02-21T08:12:11Z</time>
      </trkpt>
      <trkpt lat="44.45786" lon="6.51567">
        <ele>2817</ele>
        <time>2021-02-21T08:12:12Z</time>
      </trkpt>
      <trkpt lat="44.45786" lon="6.51567">
        <ele>2817</ele>
        <time>2021-02-21T08:12:13Z</time>
      </trkpt>
      <trkpt lat="44.45786" lon="6.51567">
        <ele>2817</ele>
        <time>2021-02-21T08:12:14Z</time>
      </trkpt>
      <trkpt lat="44.45787" lon="6.51566">
        <ele>2817</ele>
        <time>2021-02-21T08:12:15Z</time>
      </trkpt>
      <trkpt lat="44.45788" lon="6.51566">
        <ele>2818</ele>
        <time>2021-02-21T08:12:16Z</time>
      </trkpt>
      <trkpt lat="44.45788" lon="6.51566">
        <ele>2818</ele>
        <time>2021-02-21T08:12:17Z</time>
      </trkpt>
      <trkpt lat="44.45788" lon="6.51566">
        <ele>2818</ele>
        <time>2021-02-21T08:12:18Z</time>
      </trkpt>
      <trkpt lat="44.45788" lon="6.51566">
        <ele>2818</ele>
        <time>2021-02-21T08:12:19Z</time>
      </trkpt>
      <trkpt lat="44.45788" lon="6.51566">
        <ele>2818</ele>
        <time>2021-02-21T08:12:20Z</time>
      </trkpt>
      <trkpt lat="44.45788" lon="6.51566">
        <ele>2818</ele>
        <time>2021-02-21T08:12:21Z</time>
      </trkpt>
      <trkpt lat="44.45788" lon="6.51566">
        <ele>2818</ele>
        <time>2021-02-21T08:12:22Z</time>
      </trkpt>
      <trkpt lat="44.45788" lon="6.51566">
        <ele>2818</ele>
        <time>2021-02-21T08:12:23Z</time>
      </trkpt>
      <trkpt lat="44.45788" lon="6.51566">
        <ele>2818</ele>
        <time>2021-02-21T08:12:24Z</time>
      </trkpt>
      <trkpt lat="44.45788" lon="6.51566">
        <ele>2818</ele>
        <time>2021-02-21T08:12:25Z</time>
      </trkpt>
      <trkpt lat="44.45788" lon="6.51566">
        <ele>2818</ele>
        <time>2021-02-21T08:12:26Z</time>
      </trkpt>
      <trkpt lat="44.45788" lon="6.51566">
        <ele>2818</ele>
        <time>2021-02-21T08:12:27Z</time>
      </trkpt>
      <trkpt lat="44.45788" lon="6.51566">
        <ele>2818</ele>
        <time>2021-02-21T08:12:28Z</time>
      </trkpt>
      <trkpt lat="44.45788" lon="6.51566">
        <ele>2818</ele>
        <time>2021-02-21T08:12:29Z</time>
      </trkpt>
      <trkpt lat="44.45788" lon="6.51566">
        <ele>2818</ele>
        <time>2021-02-21T08:12:30Z</time>
      </trkpt>
      <trkpt lat="44.45788" lon="6.51566">
        <ele>2818</ele>
        <time>2021-02-21T08:12:31Z</time>
      </trkpt>
      <trkpt lat="44.45788" lon="6.51566">
        <ele>2818</ele>
        <time>2021-02-21T08:12:32Z</time>
      </trkpt>
      <trkpt lat="44.45788" lon="6.51566">
        <ele>2818</ele>
        <time>2021-02-21T08:12:33Z</time>
      </trkpt>
      <trkpt lat="44.45788" lon="6.51566">
        <ele>2818</ele>
        <time>2021-02-21T08:12:34Z</time>
      </trkpt>
      <trkpt lat="44.45788" lon="6.51566">
        <ele>2818</ele>
        <time>2021-02-21T08:12:35Z</time>
      </trkpt>
      <trkpt lat="44.45788" lon="6.51566">
        <ele>2818</ele>
        <time>2021-02-21T08:12:36Z</time>
      </trkpt>
      <trkpt lat="44.45788" lon="6.51566">
        <ele>2818</ele>
        <time>2021-02-21T08:12:37Z</time>
      </trkpt>
      <trkpt lat="44.45788" lon="6.51566">
        <ele>2818</ele>
        <time>2021-02-21T08:12:38Z</time>
      </trkpt>
      <trkpt lat="44.45788" lon="6.51566">
        <ele>2818</ele>
        <time>2021-02-21T08:12:39Z</time>
      </trkpt>
      <trkpt lat="44.45788" lon="6.51566">
        <ele>2818</ele>
        <time>2021-02-21T08:12:40Z</time>
      </trkpt>
      <trkpt lat="44.45788" lon="6.51566">
        <ele>2818</ele>
        <time>2021-02-21T08:12:41Z</time>
      </trkpt>
      <trkpt lat="44.45788" lon="6.51566">
        <ele>2818</ele>
        <time>2021-02-21T08:12:42Z</time>
      </trkpt>
      <trkpt lat="44.45788" lon="6.51566">
        <ele>2818</ele>
        <time>2021-02-21T08:12:43Z</time>
      </trkpt>
      <trkpt lat="44.45788" lon="6.51566">
        <ele>2818</ele>
        <time>2021-02-21T08:12:44Z</time>
      </trkpt>
      <trkpt lat="44.45788" lon="6.51566">
        <ele>2818</ele>
        <time>2021-02-21T08:12:45Z</time>
      </trkpt>
      <trkpt lat="44.45788" lon="6.51566">
        <ele>2818</ele>
        <time>2021-02-21T08:12:46Z</time>
      </trkpt>
      <trkpt lat="44.45788" lon="6.51566">
        <ele>2818</ele>
        <time>2021-02-21T08:12:47Z</time>
      </trkpt>
      <trkpt lat="44.45788" lon="6.51566">
        <ele>2818</ele>
        <time>2021-02-21T08:12:48Z</time>
      </trkpt>
      <trkpt lat="44.45788" lon="6.51566">
        <ele>2818</ele>
        <time>2021-02-21T08:12:49Z</time>
      </trkpt>
      <trkpt lat="44.45788" lon="6.51566">
        <ele>2818</ele>
        <time>2021-02-21T08:12:50Z</time>
      </trkpt>
      <trkpt lat="44.45788" lon="6.51566">
        <ele>2818</ele>
        <time>2021-02-21T08:12:51Z</time>
      </trkpt>
      <trkpt lat="44.45788" lon="6.51566">
        <ele>2818</ele>
        <time>2021-02-21T08:12:52Z</time>
      </trkpt>
      <trkpt lat="44.45788" lon="6.51569">
        <ele>2818</ele>
        <time>2021-02-21T08:12:53Z</time>
      </trkpt>
      <trkpt lat="44.45788" lon="6.51568">
        <ele>2818</ele>
        <time>2021-02-21T08:12:54Z</time>
      </trkpt>
      <trkpt lat="44.45787" lon="6.51568">
        <ele>2819</ele>
        <time>2021-02-21T08:12:55Z</time>
      </trkpt>
      <trkpt lat="44.45787" lon="6.51568">
        <ele>2819</ele>
        <time>2021-02-21T08:12:56Z</time>
      </trkpt>
      <trkpt lat="44.45788" lon="6.51567">
        <ele>2819</ele>
        <time>2021-02-21T08:12:57Z</time>
      </trkpt>
      <trkpt lat="44.45788" lon="6.51568">
        <ele>2819</ele>
        <time>2021-02-21T08:12:58Z</time>
      </trkpt>
      <trkpt lat="44.45788" lon="6.51568">
        <ele>2819</ele>
        <time>2021-02-21T08:12:59Z</time>
      </trkpt>
      <trkpt lat="44.45788" lon="6.51568">
        <ele>2819</ele>
        <time>2021-02-21T08:13:00Z</time>
      </trkpt>
      <trkpt lat="44.45788" lon="6.51568">
        <ele>2819</ele>
        <time>2021-02-21T08:13:01Z</time>
      </trkpt>
      <trkpt lat="44.45788" lon="6.51568">
        <ele>2819</ele>
        <time>2021-02-21T08:13:02Z</time>
      </trkpt>
      <trkpt lat="44.45788" lon="6.51568">
        <ele>2819</ele>
        <time>2021-02-21T08:13:03Z</time>
      </trkpt>
      <trkpt lat="44.45788" lon="6.51568">
        <ele>2819</ele>
        <time>2021-02-21T08:13:04Z</time>
      </trkpt>
      <trkpt lat="44.45788" lon="6.51568">
        <ele>2819</ele>
        <time>2021-02-21T08:13:05Z</time>
      </trkpt>
      <trkpt lat="44.45788" lon="6.51568">
        <ele>2820</ele>
        <time>2021-02-21T08:13:06Z</time>
      </trkpt>
      <trkpt lat="44.4579" lon="6.51567">
        <ele>2820</ele>
        <time>2021-02-21T08:13:07Z</time>
      </trkpt>
      <trkpt lat="44.4579" lon="6.51568">
        <ele>2820</ele>
        <time>2021-02-21T08:13:08Z</time>
      </trkpt>
      <trkpt lat="44.4579" lon="6.51569">
        <ele>2820</ele>
        <time>2021-02-21T08:13:09Z</time>
      </trkpt>
      <trkpt lat="44.4579" lon="6.51568">
        <ele>2820</ele>
        <time>2021-02-21T08:13:10Z</time>
      </trkpt>
      <trkpt lat="44.4579" lon="6.51568">
        <ele>2820</ele>
        <time>2021-02-21T08:13:11Z</time>
      </trkpt>
      <trkpt lat="44.4579" lon="6.51568">
        <ele>2820</ele>
        <time>2021-02-21T08:13:12Z</time>
      </trkpt>
      <trkpt lat="44.4579" lon="6.51568">
        <ele>2820</ele>
        <time>2021-02-21T08:13:13Z</time>
      </trkpt>
      <trkpt lat="44.4579" lon="6.51568">
        <ele>2820</ele>
        <time>2021-02-21T08:13:14Z</time>
      </trkpt>
      <trkpt lat="44.4579" lon="6.51568">
        <ele>2820</ele>
        <time>2021-02-21T08:13:15Z</time>
      </trkpt>
      <trkpt lat="44.4579" lon="6.51568">
        <ele>2820</ele>
        <time>2021-02-21T08:13:16Z</time>
      </trkpt>
      <trkpt lat="44.4579" lon="6.51568">
        <ele>2820</ele>
        <time>2021-02-21T08:13:17Z</time>
      </trkpt>
      <trkpt lat="44.45791" lon="6.51566">
        <ele>2820</ele>
        <time>2021-02-21T08:13:18Z</time>
      </trkpt>
      <trkpt lat="44.45791" lon="6.51567">
        <ele>2823</ele>
        <time>2021-02-21T08:13:19Z</time>
      </trkpt>
      <trkpt lat="44.45791" lon="6.51566">
        <ele>2823</ele>
        <time>2021-02-21T08:13:20Z</time>
      </trkpt>
      <trkpt lat="44.45792" lon="6.51566">
        <ele>2824</ele>
        <time>2021-02-21T08:13:21Z</time>
      </trkpt>
      <trkpt lat="44.45792" lon="6.51567">
        <ele>2824</ele>
        <time>2021-02-21T08:13:22Z</time>
      </trkpt>
      <trkpt lat="44.45792" lon="6.51567">
        <ele>2824</ele>
        <time>2021-02-21T08:13:23Z</time>
      </trkpt>
      <trkpt lat="44.45792" lon="6.51567">
        <ele>2824</ele>
        <time>2021-02-21T08:13:24Z</time>
      </trkpt>
      <trkpt lat="44.45793" lon="6.51567">
        <ele>2824</ele>
        <time>2021-02-21T08:13:25Z</time>
      </trkpt>
      <trkpt lat="44.45793" lon="6.51567">
        <ele>2825</ele>
        <time>2021-02-21T08:13:26Z</time>
      </trkpt>
      <trkpt lat="44.45793" lon="6.51567">
        <ele>2825</ele>
        <time>2021-02-21T08:13:27Z</time>
      </trkpt>
      <trkpt lat="44.45794" lon="6.51567">
        <ele>2825</ele>
        <time>2021-02-21T08:13:28Z</time>
      </trkpt>
      <trkpt lat="44.45794" lon="6.51567">
        <ele>2825</ele>
        <time>2021-02-21T08:13:29Z</time>
      </trkpt>
      <trkpt lat="44.45795" lon="6.51567">
        <ele>2826</ele>
        <time>2021-02-21T08:13:30Z</time>
      </trkpt>
      <trkpt lat="44.45795" lon="6.51566">
        <ele>2826</ele>
        <time>2021-02-21T08:13:31Z</time>
      </trkpt>
      <trkpt lat="44.45796" lon="6.51567">
        <ele>2826</ele>
        <time>2021-02-21T08:13:32Z</time>
      </trkpt>
      <trkpt lat="44.45796" lon="6.51567">
        <ele>2826</ele>
        <time>2021-02-21T08:13:33Z</time>
      </trkpt>
      <trkpt lat="44.45796" lon="6.51567">
        <ele>2826</ele>
        <time>2021-02-21T08:13:34Z</time>
      </trkpt>
      <trkpt lat="44.45795" lon="6.51567">
        <ele>2827</ele>
        <time>2021-02-21T08:13:35Z</time>
      </trkpt>
      <trkpt lat="44.45796" lon="6.51567">
        <ele>2827</ele>
        <time>2021-02-21T08:13:36Z</time>
      </trkpt>
      <trkpt lat="44.45796" lon="6.51567">
        <ele>2827</ele>
        <time>2021-02-21T08:13:37Z</time>
      </trkpt>
      <trkpt lat="44.45796" lon="6.51567">
        <ele>2827</ele>
        <time>2021-02-21T08:13:38Z</time>
      </trkpt>
      <trkpt lat="44.45796" lon="6.51567">
        <ele>2827</ele>
        <time>2021-02-21T08:13:39Z</time>
      </trkpt>
      <trkpt lat="44.45796" lon="6.51567">
        <ele>2827</ele>
        <time>2021-02-21T08:13:40Z</time>
      </trkpt>
      <trkpt lat="44.45796" lon="6.51567">
        <ele>2827</ele>
        <time>2021-02-21T08:13:41Z</time>
      </trkpt>
      <trkpt lat="44.45796" lon="6.51567">
        <ele>2827</ele>
        <time>2021-02-21T08:13:42Z</time>
      </trkpt>
      <trkpt lat="44.45796" lon="6.51567">
        <ele>2827</ele>
        <time>2021-02-21T08:13:43Z</time>
      </trkpt>
      <trkpt lat="44.45796" lon="6.51567">
        <ele>2827</ele>
        <time>2021-02-21T08:13:44Z</time>
      </trkpt>
      <trkpt lat="44.45796" lon="6.51567">
        <ele>2827</ele>
        <time>2021-02-21T08:13:45Z</time>
      </trkpt>
      <trkpt lat="44.45796" lon="6.51567">
        <ele>2827</ele>
        <time>2021-02-21T08:13:46Z</time>
      </trkpt>
      <trkpt lat="44.45796" lon="6.51567">
        <ele>2827</ele>
        <time>2021-02-21T08:13:47Z</time>
      </trkpt>
      <trkpt lat="44.45796" lon="6.51567">
        <ele>2827</ele>
        <time>2021-02-21T08:13:48Z</time>
      </trkpt>
      <trkpt lat="44.45796" lon="6.51567">
        <ele>2827</ele>
        <time>2021-02-21T08:13:49Z</time>
      </trkpt>
      <trkpt lat="44.45796" lon="6.51567">
        <ele>2827</ele>
        <time>2021-02-21T08:13:50Z</time>
      </trkpt>
      <trkpt lat="44.45796" lon="6.51567">
        <ele>2827</ele>
        <time>2021-02-21T08:13:51Z</time>
      </trkpt>
      <trkpt lat="44.45796" lon="6.51567">
        <ele>2827</ele>
        <time>2021-02-21T08:13:52Z</time>
      </trkpt>
      <trkpt lat="44.45796" lon="6.51567">
        <ele>2827</ele>
        <time>2021-02-21T08:13:53Z</time>
      </trkpt>
      <trkpt lat="44.45796" lon="6.51567">
        <ele>2827</ele>
        <time>2021-02-21T08:13:54Z</time>
      </trkpt>
      <trkpt lat="44.45796" lon="6.51567">
        <ele>2827</ele>
        <time>2021-02-21T08:13:55Z</time>
      </trkpt>
      <trkpt lat="44.45796" lon="6.51567">
        <ele>2827</ele>
        <time>2021-02-21T08:13:56Z</time>
      </trkpt>
      <trkpt lat="44.45796" lon="6.51567">
        <ele>2827</ele>
        <time>2021-02-21T08:13:57Z</time>
      </trkpt>
      <trkpt lat="44.45796" lon="6.51567">
        <ele>2827</ele>
        <time>2021-02-21T08:13:58Z</time>
      </trkpt>
      <trkpt lat="44.45796" lon="6.51567">
        <ele>2827</ele>
        <time>2021-02-21T08:13:59Z</time>
      </trkpt>
      <trkpt lat="44.45796" lon="6.51567">
        <ele>2827</ele>
        <time>2021-02-21T08:14:00Z</time>
      </trkpt>
      <trkpt lat="44.45796" lon="6.51567">
        <ele>2827</ele>
        <time>2021-02-21T08:14:01Z</time>
      </trkpt>
      <trkpt lat="44.45796" lon="6.51567">
        <ele>2827</ele>
        <time>2021-02-21T08:14:02Z</time>
      </trkpt>
      <trkpt lat="44.45796" lon="6.51567">
        <ele>2827</ele>
        <time>2021-02-21T08:14:03Z</time>
      </trkpt>
      <trkpt lat="44.45796" lon="6.51567">
        <ele>2827</ele>
        <time>2021-02-21T08:14:04Z</time>
      </trkpt>
      <trkpt lat="44.45796" lon="6.51567">
        <ele>2827</ele>
        <time>2021-02-21T08:14:05Z</time>
      </trkpt>
      <trkpt lat="44.45796" lon="6.51567">
        <ele>2827</ele>
        <time>2021-02-21T08:14:06Z</time>
      </trkpt>
      <trkpt lat="44.45796" lon="6.51567">
        <ele>2827</ele>
        <time>2021-02-21T08:14:07Z</time>
      </trkpt>
      <trkpt lat="44.45796" lon="6.51567">
        <ele>2827</ele>
        <time>2021-02-21T08:14:08Z</time>
      </trkpt>
      <trkpt lat="44.45796" lon="6.51567">
        <ele>2827</ele>
        <time>2021-02-21T08:14:09Z</time>
      </trkpt>
      <trkpt lat="44.45796" lon="6.51567">
        <ele>2827</ele>
        <time>2021-02-21T08:14:10Z</time>
      </trkpt>
      <trkpt lat="44.45796" lon="6.51567">
        <ele>2827</ele>
        <time>2021-02-21T08:14:11Z</time>
      </trkpt>
      <trkpt lat="44.45796" lon="6.51567">
        <ele>2827</ele>
        <time>2021-02-21T08:14:12Z</time>
      </trkpt>
      <trkpt lat="44.45796" lon="6.51567">
        <ele>2827</ele>
        <time>2021-02-21T08:14:13Z</time>
      </trkpt>
      <trkpt lat="44.45796" lon="6.51567">
        <ele>2827</ele>
        <time>2021-02-21T08:14:14Z</time>
      </trkpt>
      <trkpt lat="44.45796" lon="6.51567">
        <ele>2827</ele>
        <time>2021-02-21T08:14:15Z</time>
      </trkpt>
      <trkpt lat="44.45796" lon="6.51567">
        <ele>2827</ele>
        <time>2021-02-21T08:14:16Z</time>
      </trkpt>
      <trkpt lat="44.45796" lon="6.51567">
        <ele>2827</ele>
        <time>2021-02-21T08:14:17Z</time>
      </trkpt>
      <trkpt lat="44.45796" lon="6.51567">
        <ele>2827</ele>
        <time>2021-02-21T08:14:18Z</time>
      </trkpt>
      <trkpt lat="44.45796" lon="6.51567">
        <ele>2827</ele>
        <time>2021-02-21T08:14:19Z</time>
      </trkpt>
      <trkpt lat="44.45796" lon="6.51567">
        <ele>2827</ele>
        <time>2021-02-21T08:14:20Z</time>
      </trkpt>
      <trkpt lat="44.45805" lon="6.51568">
        <ele>2828</ele>
        <time>2021-02-21T08:14:21Z</time>
      </trkpt>
      <trkpt lat="44.45805" lon="6.51568">
        <ele>2828</ele>
        <time>2021-02-21T08:14:22Z</time>
      </trkpt>
      <trkpt lat="44.45805" lon="6.51568">
        <ele>2828</ele>
        <time>2021-02-21T08:14:23Z</time>
      </trkpt>
      <trkpt lat="44.45805" lon="6.51568">
        <ele>2829</ele>
        <time>2021-02-21T08:14:24Z</time>
      </trkpt>
      <trkpt lat="44.45805" lon="6.51568">
        <ele>2829</ele>
        <time>2021-02-21T08:14:25Z</time>
      </trkpt>
      <trkpt lat="44.45805" lon="6.51568">
        <ele>2829</ele>
        <time>2021-02-21T08:14:26Z</time>
      </trkpt>
      <trkpt lat="44.45805" lon="6.51568">
        <ele>2829</ele>
        <time>2021-02-21T08:14:27Z</time>
      </trkpt>
      <trkpt lat="44.45805" lon="6.51568">
        <ele>2829</ele>
        <time>2021-02-21T08:14:28Z</time>
      </trkpt>
      <trkpt lat="44.45805" lon="6.51568">
        <ele>2829</ele>
        <time>2021-02-21T08:14:29Z</time>
      </trkpt>
      <trkpt lat="44.45805" lon="6.51568">
        <ele>2829</ele>
        <time>2021-02-21T08:14:30Z</time>
      </trkpt>
      <trkpt lat="44.45806" lon="6.51567">
        <ele>2829</ele>
        <time>2021-02-21T08:14:31Z</time>
      </trkpt>
      <trkpt lat="44.45806" lon="6.51566">
        <ele>2829</ele>
        <time>2021-02-21T08:14:32Z</time>
      </trkpt>
      <trkpt lat="44.45806" lon="6.51567">
        <ele>2829</ele>
        <time>2021-02-21T08:14:33Z</time>
      </trkpt>
      <trkpt lat="44.45806" lon="6.51567">
        <ele>2829</ele>
        <time>2021-02-21T08:14:34Z</time>
      </trkpt>
      <trkpt lat="44.45807" lon="6.51568">
        <ele>2829</ele>
        <time>2021-02-21T08:14:35Z</time>
      </trkpt>
      <trkpt lat="44.45807" lon="6.51568">
        <ele>2829</ele>
        <time>2021-02-21T08:14:36Z</time>
      </trkpt>
      <trkpt lat="44.45807" lon="6.51568">
        <ele>2829</ele>
        <time>2021-02-21T08:14:37Z</time>
      </trkpt>
      <trkpt lat="44.45808" lon="6.51568">
        <ele>2829</ele>
        <time>2021-02-21T08:14:38Z</time>
      </trkpt>
      <trkpt lat="44.45808" lon="6.51568">
        <ele>2829</ele>
        <time>2021-02-21T08:14:39Z</time>
      </trkpt>
      <trkpt lat="44.45808" lon="6.51568">
        <ele>2830</ele>
        <time>2021-02-21T08:14:40Z</time>
      </trkpt>
      <trkpt lat="44.45809" lon="6.51568">
        <ele>2830</ele>
        <time>2021-02-21T08:14:41Z</time>
      </trkpt>
      <trkpt lat="44.45809" lon="6.51568">
        <ele>2830</ele>
        <time>2021-02-21T08:14:42Z</time>
      </trkpt>
      <trkpt lat="44.45809" lon="6.51568">
        <ele>2830</ele>
        <time>2021-02-21T08:14:43Z</time>
      </trkpt>
      <trkpt lat="44.4581" lon="6.51569">
        <ele>2830</ele>
        <time>2021-02-21T08:14:44Z</time>
      </trkpt>
      <trkpt lat="44.4581" lon="6.51569">
        <ele>2830</ele>
        <time>2021-02-21T08:14:45Z</time>
      </trkpt>
      <trkpt lat="44.4581" lon="6.51568">
        <ele>2830</ele>
        <time>2021-02-21T08:14:46Z</time>
      </trkpt>
      <trkpt lat="44.4581" lon="6.51568">
        <ele>2830</ele>
        <time>2021-02-21T08:14:47Z</time>
      </trkpt>
      <trkpt lat="44.4581" lon="6.51568">
        <ele>2830</ele>
        <time>2021-02-21T08:14:48Z</time>
      </trkpt>
      <trkpt lat="44.45811" lon="6.51568">
        <ele>2830</ele>
        <time>2021-02-21T08:14:49Z</time>
      </trkpt>
      <trkpt lat="44.45811" lon="6.51568">
        <ele>2830</ele>
        <time>2021-02-21T08:14:50Z</time>
      </trkpt>
      <trkpt lat="44.45811" lon="6.51567">
        <ele>2831</ele>
        <time>2021-02-21T08:14:51Z</time>
      </trkpt>
      <trkpt lat="44.45812" lon="6.51568">
        <ele>2831</ele>
        <time>2021-02-21T08:14:52Z</time>
      </trkpt>
      <trkpt lat="44.45812" lon="6.51568">
        <ele>2831</ele>
        <time>2021-02-21T08:14:53Z</time>
      </trkpt>
      <trkpt lat="44.45812" lon="6.51568">
        <ele>2831</ele>
        <time>2021-02-21T08:14:54Z</time>
      </trkpt>
      <trkpt lat="44.45812" lon="6.51569">
        <ele>2831</ele>
        <time>2021-02-21T08:14:55Z</time>
      </trkpt>
      <trkpt lat="44.45813" lon="6.51569">
        <ele>2831</ele>
        <time>2021-02-21T08:14:56Z</time>
      </trkpt>
      <trkpt lat="44.45813" lon="6.51569">
        <ele>2831</ele>
        <time>2021-02-21T08:14:57Z</time>
      </trkpt>
      <trkpt lat="44.45813" lon="6.51569">
        <ele>2831</ele>
        <time>2021-02-21T08:14:58Z</time>
      </trkpt>
      <trkpt lat="44.45813" lon="6.5157">
        <ele>2832</ele>
        <time>2021-02-21T08:14:59Z</time>
      </trkpt>
      <trkpt lat="44.45813" lon="6.5157">
        <ele>2832</ele>
        <time>2021-02-21T08:15:00Z</time>
      </trkpt>
      <trkpt lat="44.45814" lon="6.51569">
        <ele>2832</ele>
        <time>2021-02-21T08:15:01Z</time>
      </trkpt>
      <trkpt lat="44.45814" lon="6.51569">
        <ele>2832</ele>
        <time>2021-02-21T08:15:02Z</time>
      </trkpt>
      <trkpt lat="44.45814" lon="6.51569">
        <ele>2832</ele>
        <time>2021-02-21T08:15:03Z</time>
      </trkpt>
      <trkpt lat="44.45814" lon="6.51569">
        <ele>2832</ele>
        <time>2021-02-21T08:15:04Z</time>
      </trkpt>
      <trkpt lat="44.45814" lon="6.51569">
        <ele>2832</ele>
        <time>2021-02-21T08:15:05Z</time>
      </trkpt>
      <trkpt lat="44.45814" lon="6.51569">
        <ele>2832</ele>
        <time>2021-02-21T08:15:06Z</time>
      </trkpt>
      <trkpt lat="44.45814" lon="6.51569">
        <ele>2832</ele>
        <time>2021-02-21T08:15:07Z</time>
      </trkpt>
      <trkpt lat="44.45814" lon="6.51569">
        <ele>2832</ele>
        <time>2021-02-21T08:15:08Z</time>
      </trkpt>
      <trkpt lat="44.45814" lon="6.51569">
        <ele>2832</ele>
        <time>2021-02-21T08:15:09Z</time>
      </trkpt>
      <trkpt lat="44.45814" lon="6.51569">
        <ele>2832</ele>
        <time>2021-02-21T08:15:10Z</time>
      </trkpt>
      <trkpt lat="44.45814" lon="6.51569">
        <ele>2832</ele>
        <time>2021-02-21T08:15:11Z</time>
      </trkpt>
      <trkpt lat="44.45814" lon="6.51569">
        <ele>2832</ele>
        <time>2021-02-21T08:15:12Z</time>
      </trkpt>
      <trkpt lat="44.45814" lon="6.51569">
        <ele>2832</ele>
        <time>2021-02-21T08:15:13Z</time>
      </trkpt>
      <trkpt lat="44.45814" lon="6.51569">
        <ele>2832</ele>
        <time>2021-02-21T08:15:14Z</time>
      </trkpt>
      <trkpt lat="44.45814" lon="6.51569">
        <ele>2832</ele>
        <time>2021-02-21T08:15:15Z</time>
      </trkpt>
      <trkpt lat="44.45814" lon="6.51569">
        <ele>2832</ele>
        <time>2021-02-21T08:15:16Z</time>
      </trkpt>
      <trkpt lat="44.45814" lon="6.51569">
        <ele>2832</ele>
        <time>2021-02-21T08:15:17Z</time>
      </trkpt>
      <trkpt lat="44.45814" lon="6.51569">
        <ele>2832</ele>
        <time>2021-02-21T08:15:18Z</time>
      </trkpt>
      <trkpt lat="44.45814" lon="6.51569">
        <ele>2832</ele>
        <time>2021-02-21T08:15:19Z</time>
      </trkpt>
      <trkpt lat="44.45814" lon="6.51569">
        <ele>2832</ele>
        <time>2021-02-21T08:15:20Z</time>
      </trkpt>
      <trkpt lat="44.45814" lon="6.51569">
        <ele>2832</ele>
        <time>2021-02-21T08:15:21Z</time>
      </trkpt>
      <trkpt lat="44.45814" lon="6.51569">
        <ele>2832</ele>
        <time>2021-02-21T08:15:22Z</time>
      </trkpt>
      <trkpt lat="44.45814" lon="6.51569">
        <ele>2832</ele>
        <time>2021-02-21T08:15:23Z</time>
      </trkpt>
      <trkpt lat="44.45814" lon="6.51569">
        <ele>2832</ele>
        <time>2021-02-21T08:15:24Z</time>
      </trkpt>
      <trkpt lat="44.45814" lon="6.51569">
        <ele>2832</ele>
        <time>2021-02-21T08:15:25Z</time>
      </trkpt>
      <trkpt lat="44.45814" lon="6.51569">
        <ele>2832</ele>
        <time>2021-02-21T08:15:26Z</time>
      </trkpt>
      <trkpt lat="44.45814" lon="6.51569">
        <ele>2832</ele>
        <time>2021-02-21T08:15:27Z</time>
      </trkpt>
      <trkpt lat="44.45814" lon="6.51569">
        <ele>2832</ele>
        <time>2021-02-21T08:15:28Z</time>
      </trkpt>
      <trkpt lat="44.45814" lon="6.51569">
        <ele>2832</ele>
        <time>2021-02-21T08:15:29Z</time>
      </trkpt>
      <trkpt lat="44.45814" lon="6.51569">
        <ele>2832</ele>
        <time>2021-02-21T08:15:30Z</time>
      </trkpt>
      <trkpt lat="44.45814" lon="6.51569">
        <ele>2832</ele>
        <time>2021-02-21T08:15:31Z</time>
      </trkpt>
      <trkpt lat="44.45814" lon="6.51569">
        <ele>2832</ele>
        <time>2021-02-21T08:15:32Z</time>
      </trkpt>
      <trkpt lat="44.45814" lon="6.51569">
        <ele>2832</ele>
        <time>2021-02-21T08:15:33Z</time>
      </trkpt>
      <trkpt lat="44.45814" lon="6.51569">
        <ele>2832</ele>
        <time>2021-02-21T08:15:34Z</time>
      </trkpt>
      <trkpt lat="44.4582" lon="6.51573">
        <ele>2833</ele>
        <time>2021-02-21T08:15:35Z</time>
      </trkpt>
      <trkpt lat="44.45821" lon="6.51574">
        <ele>2834</ele>
        <time>2021-02-21T08:15:36Z</time>
      </trkpt>
      <trkpt lat="44.45821" lon="6.51574">
        <ele>2834</ele>
        <time>2021-02-21T08:15:37Z</time>
      </trkpt>
      <trkpt lat="44.45821" lon="6.51573">
        <ele>2834</ele>
        <time>2021-02-21T08:15:38Z</time>
      </trkpt>
      <trkpt lat="44.45821" lon="6.51573">
        <ele>2834</ele>
        <time>2021-02-21T08:15:39Z</time>
      </trkpt>
      <trkpt lat="44.45821" lon="6.51573">
        <ele>2835</ele>
        <time>2021-02-21T08:15:40Z</time>
      </trkpt>
      <trkpt lat="44.45821" lon="6.51573">
        <ele>2835</ele>
        <time>2021-02-21T08:15:41Z</time>
      </trkpt>
      <trkpt lat="44.45821" lon="6.51573">
        <ele>2835</ele>
        <time>2021-02-21T08:15:42Z</time>
      </trkpt>
      <trkpt lat="44.45821" lon="6.51573">
        <ele>2835</ele>
        <time>2021-02-21T08:15:43Z</time>
      </trkpt>
      <trkpt lat="44.45821" lon="6.51573">
        <ele>2835</ele>
        <time>2021-02-21T08:15:44Z</time>
      </trkpt>
      <trkpt lat="44.45821" lon="6.51573">
        <ele>2835</ele>
        <time>2021-02-21T08:15:45Z</time>
      </trkpt>
      <trkpt lat="44.45823" lon="6.51572">
        <ele>2835</ele>
        <time>2021-02-21T08:15:46Z</time>
      </trkpt>
      <trkpt lat="44.45824" lon="6.51572">
        <ele>2836</ele>
        <time>2021-02-21T08:15:47Z</time>
      </trkpt>
      <trkpt lat="44.45824" lon="6.51572">
        <ele>2836</ele>
        <time>2021-02-21T08:15:48Z</time>
      </trkpt>
      <trkpt lat="44.45824" lon="6.51572">
        <ele>2836</ele>
        <time>2021-02-21T08:15:49Z</time>
      </trkpt>
      <trkpt lat="44.45825" lon="6.51572">
        <ele>2836</ele>
        <time>2021-02-21T08:15:50Z</time>
      </trkpt>
      <trkpt lat="44.45825" lon="6.51572">
        <ele>2836</ele>
        <time>2021-02-21T08:15:51Z</time>
      </trkpt>
      <trkpt lat="44.45825" lon="6.51572">
        <ele>2836</ele>
        <time>2021-02-21T08:15:52Z</time>
      </trkpt>
      <trkpt lat="44.45826" lon="6.51572">
        <ele>2836</ele>
        <time>2021-02-21T08:15:53Z</time>
      </trkpt>
      <trkpt lat="44.45826" lon="6.51572">
        <ele>2836</ele>
        <time>2021-02-21T08:15:54Z</time>
      </trkpt>
      <trkpt lat="44.45826" lon="6.51572">
        <ele>2836</ele>
        <time>2021-02-21T08:15:55Z</time>
      </trkpt>
      <trkpt lat="44.45826" lon="6.51572">
        <ele>2836</ele>
        <time>2021-02-21T08:15:56Z</time>
      </trkpt>
      <trkpt lat="44.45826" lon="6.51572">
        <ele>2836</ele>
        <time>2021-02-21T08:15:57Z</time>
      </trkpt>
      <trkpt lat="44.45826" lon="6.51572">
        <ele>2836</ele>
        <time>2021-02-21T08:15:58Z</time>
      </trkpt>
      <trkpt lat="44.45826" lon="6.51572">
        <ele>2836</ele>
        <time>2021-02-21T08:15:59Z</time>
      </trkpt>
      <trkpt lat="44.45826" lon="6.51572">
        <ele>2836</ele>
        <time>2021-02-21T08:16:00Z</time>
      </trkpt>
      <trkpt lat="44.45826" lon="6.51572">
        <ele>2836</ele>
        <time>2021-02-21T08:16:01Z</time>
      </trkpt>
      <trkpt lat="44.45826" lon="6.51572">
        <ele>2836</ele>
        <time>2021-02-21T08:16:02Z</time>
      </trkpt>
      <trkpt lat="44.45828" lon="6.51572">
        <ele>2836</ele>
        <time>2021-02-21T08:16:03Z</time>
      </trkpt>
      <trkpt lat="44.45829" lon="6.51573">
        <ele>2836</ele>
        <time>2021-02-21T08:16:04Z</time>
      </trkpt>
      <trkpt lat="44.45829" lon="6.51573">
        <ele>2836</ele>
        <time>2021-02-21T08:16:05Z</time>
      </trkpt>
      <trkpt lat="44.45828" lon="6.51573">
        <ele>2836</ele>
        <time>2021-02-21T08:16:06Z</time>
      </trkpt>
      <trkpt lat="44.45828" lon="6.51572">
        <ele>2836</ele>
        <time>2021-02-21T08:16:07Z</time>
      </trkpt>
      <trkpt lat="44.45828" lon="6.51572">
        <ele>2836</ele>
        <time>2021-02-21T08:16:08Z</time>
      </trkpt>
      <trkpt lat="44.45828" lon="6.51572">
        <ele>2836</ele>
        <time>2021-02-21T08:16:09Z</time>
      </trkpt>
      <trkpt lat="44.45828" lon="6.51572">
        <ele>2836</ele>
        <time>2021-02-21T08:16:10Z</time>
      </trkpt>
      <trkpt lat="44.45828" lon="6.51572">
        <ele>2836</ele>
        <time>2021-02-21T08:16:11Z</time>
      </trkpt>
      <trkpt lat="44.45828" lon="6.51572">
        <ele>2836</ele>
        <time>2021-02-21T08:16:12Z</time>
      </trkpt>
      <trkpt lat="44.45828" lon="6.51572">
        <ele>2836</ele>
        <time>2021-02-21T08:16:13Z</time>
      </trkpt>
      <trkpt lat="44.45828" lon="6.51572">
        <ele>2836</ele>
        <time>2021-02-21T08:16:14Z</time>
      </trkpt>
      <trkpt lat="44.45828" lon="6.51572">
        <ele>2836</ele>
        <time>2021-02-21T08:16:15Z</time>
      </trkpt>
      <trkpt lat="44.45828" lon="6.51572">
        <ele>2836</ele>
        <time>2021-02-21T08:16:16Z</time>
      </trkpt>
      <trkpt lat="44.45828" lon="6.51572">
        <ele>2836</ele>
        <time>2021-02-21T08:16:17Z</time>
      </trkpt>
      <trkpt lat="44.45828" lon="6.51572">
        <ele>2836</ele>
        <time>2021-02-21T08:16:18Z</time>
      </trkpt>
      <trkpt lat="44.45828" lon="6.51572">
        <ele>2836</ele>
        <time>2021-02-21T08:16:19Z</time>
      </trkpt>
      <trkpt lat="44.45828" lon="6.51572">
        <ele>2836</ele>
        <time>2021-02-21T08:16:20Z</time>
      </trkpt>
      <trkpt lat="44.45829" lon="6.51572">
        <ele>2837</ele>
        <time>2021-02-21T08:16:21Z</time>
      </trkpt>
      <trkpt lat="44.45829" lon="6.51572">
        <ele>2837</ele>
        <time>2021-02-21T08:16:22Z</time>
      </trkpt>
      <trkpt lat="44.45829" lon="6.51571">
        <ele>2837</ele>
        <time>2021-02-21T08:16:23Z</time>
      </trkpt>
      <trkpt lat="44.45829" lon="6.51571">
        <ele>2837</ele>
        <time>2021-02-21T08:16:24Z</time>
      </trkpt>
      <trkpt lat="44.45829" lon="6.51571">
        <ele>2837</ele>
        <time>2021-02-21T08:16:25Z</time>
      </trkpt>
      <trkpt lat="44.45829" lon="6.51571">
        <ele>2837</ele>
        <time>2021-02-21T08:16:26Z</time>
      </trkpt>
      <trkpt lat="44.45829" lon="6.51571">
        <ele>2837</ele>
        <time>2021-02-21T08:16:27Z</time>
      </trkpt>
      <trkpt lat="44.45829" lon="6.51571">
        <ele>2837</ele>
        <time>2021-02-21T08:16:28Z</time>
      </trkpt>
      <trkpt lat="44.45829" lon="6.51571">
        <ele>2837</ele>
        <time>2021-02-21T08:16:29Z</time>
      </trkpt>
      <trkpt lat="44.45829" lon="6.51571">
        <ele>2837</ele>
        <time>2021-02-21T08:16:30Z</time>
      </trkpt>
      <trkpt lat="44.45829" lon="6.51571">
        <ele>2837</ele>
        <time>2021-02-21T08:16:31Z</time>
      </trkpt>
      <trkpt lat="44.45829" lon="6.51571">
        <ele>2837</ele>
        <time>2021-02-21T08:16:32Z</time>
      </trkpt>
      <trkpt lat="44.45829" lon="6.51571">
        <ele>2837</ele>
        <time>2021-02-21T08:16:33Z</time>
      </trkpt>
      <trkpt lat="44.45829" lon="6.51571">
        <ele>2837</ele>
        <time>2021-02-21T08:16:34Z</time>
      </trkpt>
      <trkpt lat="44.45829" lon="6.51571">
        <ele>2837</ele>
        <time>2021-02-21T08:16:35Z</time>
      </trkpt>
      <trkpt lat="44.45829" lon="6.51571">
        <ele>2837</ele>
        <time>2021-02-21T08:16:36Z</time>
      </trkpt>
      <trkpt lat="44.45829" lon="6.51571">
        <ele>2837</ele>
        <time>2021-02-21T08:16:37Z</time>
      </trkpt>
      <trkpt lat="44.45829" lon="6.51571">
        <ele>2837</ele>
        <time>2021-02-21T08:16:38Z</time>
      </trkpt>
      <trkpt lat="44.45829" lon="6.51571">
        <ele>2837</ele>
        <time>2021-02-21T08:16:39Z</time>
      </trkpt>
      <trkpt lat="44.45829" lon="6.51571">
        <ele>2837</ele>
        <time>2021-02-21T08:16:40Z</time>
      </trkpt>
      <trkpt lat="44.45829" lon="6.51571">
        <ele>2837</ele>
        <time>2021-02-21T08:16:41Z</time>
      </trkpt>
      <trkpt lat="44.45829" lon="6.51571">
        <ele>2837</ele>
        <time>2021-02-21T08:16:42Z</time>
      </trkpt>
      <trkpt lat="44.45829" lon="6.51571">
        <ele>2837</ele>
        <time>2021-02-21T08:16:43Z</time>
      </trkpt>
      <trkpt lat="44.45829" lon="6.51571">
        <ele>2837</ele>
        <time>2021-02-21T08:16:44Z</time>
      </trkpt>
      <trkpt lat="44.45829" lon="6.51571">
        <ele>2837</ele>
        <time>2021-02-21T08:16:45Z</time>
      </trkpt>
      <trkpt lat="44.45829" lon="6.51571">
        <ele>2837</ele>
        <time>2021-02-21T08:16:46Z</time>
      </trkpt>
      <trkpt lat="44.45832" lon="6.51572">
        <ele>2837</ele>
        <time>2021-02-21T08:16:47Z</time>
      </trkpt>
      <trkpt lat="44.45832" lon="6.51573">
        <ele>2838</ele>
        <time>2021-02-21T08:16:48Z</time>
      </trkpt>
      <trkpt lat="44.45832" lon="6.51572">
        <ele>2838</ele>
        <time>2021-02-21T08:16:49Z</time>
      </trkpt>
      <trkpt lat="44.45832" lon="6.51572">
        <ele>2838</ele>
        <time>2021-02-21T08:16:50Z</time>
      </trkpt>
      <trkpt lat="44.45832" lon="6.51572">
        <ele>2838</ele>
        <time>2021-02-21T08:16:51Z</time>
      </trkpt>
      <trkpt lat="44.45832" lon="6.51572">
        <ele>2838</ele>
        <time>2021-02-21T08:16:52Z</time>
      </trkpt>
      <trkpt lat="44.45832" lon="6.51572">
        <ele>2838</ele>
        <time>2021-02-21T08:16:53Z</time>
      </trkpt>
      <trkpt lat="44.45832" lon="6.51572">
        <ele>2838</ele>
        <time>2021-02-21T08:16:54Z</time>
      </trkpt>
      <trkpt lat="44.45832" lon="6.51572">
        <ele>2838</ele>
        <time>2021-02-21T08:16:55Z</time>
      </trkpt>
      <trkpt lat="44.45832" lon="6.51572">
        <ele>2838</ele>
        <time>2021-02-21T08:16:56Z</time>
      </trkpt>
      <trkpt lat="44.45832" lon="6.51572">
        <ele>2838</ele>
        <time>2021-02-21T08:16:57Z</time>
      </trkpt>
      <trkpt lat="44.45832" lon="6.51572">
        <ele>2838</ele>
        <time>2021-02-21T08:16:58Z</time>
      </trkpt>
      <trkpt lat="44.45832" lon="6.51572">
        <ele>2838</ele>
        <time>2021-02-21T08:16:59Z</time>
      </trkpt>
      <trkpt lat="44.45832" lon="6.51572">
        <ele>2838</ele>
        <time>2021-02-21T08:17:00Z</time>
      </trkpt>
      <trkpt lat="44.45832" lon="6.51572">
        <ele>2838</ele>
        <time>2021-02-21T08:17:01Z</time>
      </trkpt>
      <trkpt lat="44.45832" lon="6.51572">
        <ele>2838</ele>
        <time>2021-02-21T08:17:02Z</time>
      </trkpt>
      <trkpt lat="44.45832" lon="6.51572">
        <ele>2838</ele>
        <time>2021-02-21T08:17:03Z</time>
      </trkpt>
      <trkpt lat="44.45832" lon="6.51572">
        <ele>2838</ele>
        <time>2021-02-21T08:17:04Z</time>
      </trkpt>
      <trkpt lat="44.45832" lon="6.51572">
        <ele>2838</ele>
        <time>2021-02-21T08:17:05Z</time>
      </trkpt>
      <trkpt lat="44.45832" lon="6.51572">
        <ele>2838</ele>
        <time>2021-02-21T08:17:06Z</time>
      </trkpt>
      <trkpt lat="44.45832" lon="6.51572">
        <ele>2838</ele>
        <time>2021-02-21T08:17:07Z</time>
      </trkpt>
      <trkpt lat="44.45832" lon="6.51572">
        <ele>2838</ele>
        <time>2021-02-21T08:17:08Z</time>
      </trkpt>
      <trkpt lat="44.45832" lon="6.51572">
        <ele>2838</ele>
        <time>2021-02-21T08:17:09Z</time>
      </trkpt>
      <trkpt lat="44.45832" lon="6.51572">
        <ele>2838</ele>
        <time>2021-02-21T08:17:10Z</time>
      </trkpt>
      <trkpt lat="44.45834" lon="6.51574">
        <ele>2838</ele>
        <time>2021-02-21T08:17:11Z</time>
      </trkpt>
      <trkpt lat="44.45835" lon="6.51574">
        <ele>2838</ele>
        <time>2021-02-21T08:17:12Z</time>
      </trkpt>
      <trkpt lat="44.45836" lon="6.51574">
        <ele>2839</ele>
        <time>2021-02-21T08:17:13Z</time>
      </trkpt>
      <trkpt lat="44.45836" lon="6.51574">
        <ele>2840</ele>
        <time>2021-02-21T08:17:14Z</time>
      </trkpt>
      <trkpt lat="44.45836" lon="6.51574">
        <ele>2840</ele>
        <time>2021-02-21T08:17:15Z</time>
      </trkpt>
      <trkpt lat="44.45835" lon="6.51574">
        <ele>2840</ele>
        <time>2021-02-21T08:17:16Z</time>
      </trkpt>
      <trkpt lat="44.45835" lon="6.51574">
        <ele>2840</ele>
        <time>2021-02-21T08:17:17Z</time>
      </trkpt>
      <trkpt lat="44.45835" lon="6.51574">
        <ele>2840</ele>
        <time>2021-02-21T08:17:18Z</time>
      </trkpt>
      <trkpt lat="44.45835" lon="6.51574">
        <ele>2840</ele>
        <time>2021-02-21T08:17:19Z</time>
      </trkpt>
      <trkpt lat="44.45835" lon="6.51574">
        <ele>2840</ele>
        <time>2021-02-21T08:17:20Z</time>
      </trkpt>
      <trkpt lat="44.45835" lon="6.51574">
        <ele>2840</ele>
        <time>2021-02-21T08:17:21Z</time>
      </trkpt>
      <trkpt lat="44.45835" lon="6.51574">
        <ele>2840</ele>
        <time>2021-02-21T08:17:22Z</time>
      </trkpt>
      <trkpt lat="44.45835" lon="6.51574">
        <ele>2840</ele>
        <time>2021-02-21T08:17:23Z</time>
      </trkpt>
      <trkpt lat="44.45835" lon="6.51574">
        <ele>2840</ele>
        <time>2021-02-21T08:17:24Z</time>
      </trkpt>
      <trkpt lat="44.45835" lon="6.51574">
        <ele>2840</ele>
        <time>2021-02-21T08:17:25Z</time>
      </trkpt>
      <trkpt lat="44.45835" lon="6.51574">
        <ele>2840</ele>
        <time>2021-02-21T08:17:26Z</time>
      </trkpt>
      <trkpt lat="44.45835" lon="6.51574">
        <ele>2840</ele>
        <time>2021-02-21T08:17:27Z</time>
      </trkpt>
      <trkpt lat="44.45835" lon="6.51574">
        <ele>2840</ele>
        <time>2021-02-21T08:17:28Z</time>
      </trkpt>
      <trkpt lat="44.45835" lon="6.51574">
        <ele>2840</ele>
        <time>2021-02-21T08:17:29Z</time>
      </trkpt>
      <trkpt lat="44.45835" lon="6.51574">
        <ele>2840</ele>
        <time>2021-02-21T08:17:30Z</time>
      </trkpt>
      <trkpt lat="44.45835" lon="6.51574">
        <ele>2840</ele>
        <time>2021-02-21T08:17:31Z</time>
      </trkpt>
      <trkpt lat="44.45835" lon="6.51574">
        <ele>2840</ele>
        <time>2021-02-21T08:17:32Z</time>
      </trkpt>
      <trkpt lat="44.45835" lon="6.51574">
        <ele>2840</ele>
        <time>2021-02-21T08:17:33Z</time>
      </trkpt>
      <trkpt lat="44.45835" lon="6.51574">
        <ele>2840</ele>
        <time>2021-02-21T08:17:34Z</time>
      </trkpt>
      <trkpt lat="44.45835" lon="6.51574">
        <ele>2840</ele>
        <time>2021-02-21T08:17:35Z</time>
      </trkpt>
      <trkpt lat="44.45835" lon="6.51574">
        <ele>2840</ele>
        <time>2021-02-21T08:17:36Z</time>
      </trkpt>
      <trkpt lat="44.45835" lon="6.51574">
        <ele>2840</ele>
        <time>2021-02-21T08:17:37Z</time>
      </trkpt>
      <trkpt lat="44.45835" lon="6.51574">
        <ele>2840</ele>
        <time>2021-02-21T08:17:38Z</time>
      </trkpt>
      <trkpt lat="44.45835" lon="6.51574">
        <ele>2840</ele>
        <time>2021-02-21T08:17:39Z</time>
      </trkpt>
      <trkpt lat="44.45835" lon="6.51574">
        <ele>2840</ele>
        <time>2021-02-21T08:17:40Z</time>
      </trkpt>
      <trkpt lat="44.45835" lon="6.51574">
        <ele>2840</ele>
        <time>2021-02-21T08:17:41Z</time>
      </trkpt>
      <trkpt lat="44.45835" lon="6.51574">
        <ele>2840</ele>
        <time>2021-02-21T08:17:42Z</time>
      </trkpt>
      <trkpt lat="44.45835" lon="6.51574">
        <ele>2840</ele>
        <time>2021-02-21T08:17:43Z</time>
      </trkpt>
      <trkpt lat="44.45835" lon="6.51574">
        <ele>2840</ele>
        <time>2021-02-21T08:17:44Z</time>
      </trkpt>
      <trkpt lat="44.45835" lon="6.51574">
        <ele>2840</ele>
        <time>2021-02-21T08:17:45Z</time>
      </trkpt>
      <trkpt lat="44.45835" lon="6.51574">
        <ele>2840</ele>
        <time>2021-02-21T08:17:46Z</time>
      </trkpt>
      <trkpt lat="44.45835" lon="6.51574">
        <ele>2840</ele>
        <time>2021-02-21T08:17:47Z</time>
      </trkpt>
      <trkpt lat="44.45835" lon="6.51574">
        <ele>2840</ele>
        <time>2021-02-21T08:17:48Z</time>
      </trkpt>
      <trkpt lat="44.45835" lon="6.51574">
        <ele>2840</ele>
        <time>2021-02-21T08:17:49Z</time>
      </trkpt>
      <trkpt lat="44.45835" lon="6.51574">
        <ele>2840</ele>
        <time>2021-02-21T08:17:50Z</time>
      </trkpt>
      <trkpt lat="44.45835" lon="6.51574">
        <ele>2840</ele>
        <time>2021-02-21T08:17:51Z</time>
      </trkpt>
      <trkpt lat="44.45835" lon="6.51574">
        <ele>2840</ele>
        <time>2021-02-21T08:17:52Z</time>
      </trkpt>
      <trkpt lat="44.45835" lon="6.51574">
        <ele>2840</ele>
        <time>2021-02-21T08:17:53Z</time>
      </trkpt>
      <trkpt lat="44.45835" lon="6.51574">
        <ele>2840</ele>
        <time>2021-02-21T08:17:54Z</time>
      </trkpt>
      <trkpt lat="44.45835" lon="6.51574">
        <ele>2840</ele>
        <time>2021-02-21T08:17:55Z</time>
      </trkpt>
      <trkpt lat="44.45835" lon="6.51574">
        <ele>2840</ele>
        <time>2021-02-21T08:17:56Z</time>
      </trkpt>
      <trkpt lat="44.45835" lon="6.51574">
        <ele>2840</ele>
        <time>2021-02-21T08:17:57Z</time>
      </trkpt>
      <trkpt lat="44.45835" lon="6.51574">
        <ele>2840</ele>
        <time>2021-02-21T08:17:58Z</time>
      </trkpt>
      <trkpt lat="44.45835" lon="6.51574">
        <ele>2840</ele>
        <time>2021-02-21T08:17:59Z</time>
      </trkpt>
      <trkpt lat="44.45835" lon="6.51574">
        <ele>2840</ele>
        <time>2021-02-21T08:18:00Z</time>
      </trkpt>
      <trkpt lat="44.45835" lon="6.51574">
        <ele>2840</ele>
        <time>2021-02-21T08:18:01Z</time>
      </trkpt>
      <trkpt lat="44.45835" lon="6.51574">
        <ele>2840</ele>
        <time>2021-02-21T08:18:02Z</time>
      </trkpt>
      <trkpt lat="44.45835" lon="6.51574">
        <ele>2840</ele>
        <time>2021-02-21T08:18:03Z</time>
      </trkpt>
      <trkpt lat="44.45835" lon="6.51574">
        <ele>2840</ele>
        <time>2021-02-21T08:18:04Z</time>
      </trkpt>
      <trkpt lat="44.45835" lon="6.51574">
        <ele>2840</ele>
        <time>2021-02-21T08:18:05Z</time>
      </trkpt>
      <trkpt lat="44.45835" lon="6.51574">
        <ele>2840</ele>
        <time>2021-02-21T08:18:06Z</time>
      </trkpt>
      <trkpt lat="44.45835" lon="6.51574">
        <ele>2840</ele>
        <time>2021-02-21T08:18:07Z</time>
      </trkpt>
      <trkpt lat="44.45835" lon="6.51574">
        <ele>2840</ele>
        <time>2021-02-21T08:18:08Z</time>
      </trkpt>
      <trkpt lat="44.45835" lon="6.51574">
        <ele>2840</ele>
        <time>2021-02-21T08:18:09Z</time>
      </trkpt>
      <trkpt lat="44.45835" lon="6.51574">
        <ele>2840</ele>
        <time>2021-02-21T08:18:10Z</time>
      </trkpt>
      <trkpt lat="44.45835" lon="6.51574">
        <ele>2840</ele>
        <time>2021-02-21T08:18:11Z</time>
      </trkpt>
      <trkpt lat="44.45835" lon="6.51574">
        <ele>2840</ele>
        <time>2021-02-21T08:18:12Z</time>
      </trkpt>
      <trkpt lat="44.45835" lon="6.51574">
        <ele>2840</ele>
        <time>2021-02-21T08:18:13Z</time>
      </trkpt>
      <trkpt lat="44.45835" lon="6.51574">
        <ele>2840</ele>
        <time>2021-02-21T08:18:14Z</time>
      </trkpt>
      <trkpt lat="44.45835" lon="6.51574">
        <ele>2840</ele>
        <time>2021-02-21T08:18:15Z</time>
      </trkpt>
      <trkpt lat="44.45835" lon="6.51574">
        <ele>2840</ele>
        <time>2021-02-21T08:18:16Z</time>
      </trkpt>
      <trkpt lat="44.45835" lon="6.51574">
        <ele>2840</ele>
        <time>2021-02-21T08:18:17Z</time>
      </trkpt>
      <trkpt lat="44.45835" lon="6.51574">
        <ele>2840</ele>
        <time>2021-02-21T08:18:18Z</time>
      </trkpt>
      <trkpt lat="44.45835" lon="6.51574">
        <ele>2840</ele>
        <time>2021-02-21T08:18:19Z</time>
      </trkpt>
      <trkpt lat="44.45835" lon="6.51574">
        <ele>2840</ele>
        <time>2021-02-21T08:18:20Z</time>
      </trkpt>
      <trkpt lat="44.45835" lon="6.51574">
        <ele>2840</ele>
        <time>2021-02-21T08:18:21Z</time>
      </trkpt>
      <trkpt lat="44.45835" lon="6.51574">
        <ele>2840</ele>
        <time>2021-02-21T08:18:22Z</time>
      </trkpt>
      <trkpt lat="44.45835" lon="6.51574">
        <ele>2840</ele>
        <time>2021-02-21T08:18:23Z</time>
      </trkpt>
      <trkpt lat="44.45835" lon="6.51574">
        <ele>2840</ele>
        <time>2021-02-21T08:18:24Z</time>
      </trkpt>
      <trkpt lat="44.45835" lon="6.51574">
        <ele>2840</ele>
        <time>2021-02-21T08:18:25Z</time>
      </trkpt>
      <trkpt lat="44.45835" lon="6.51574">
        <ele>2840</ele>
        <time>2021-02-21T08:18:26Z</time>
      </trkpt>
      <trkpt lat="44.45835" lon="6.51574">
        <ele>2840</ele>
        <time>2021-02-21T08:18:27Z</time>
      </trkpt>
      <trkpt lat="44.45835" lon="6.51574">
        <ele>2840</ele>
        <time>2021-02-21T08:18:28Z</time>
      </trkpt>
      <trkpt lat="44.45835" lon="6.51574">
        <ele>2840</ele>
        <time>2021-02-21T08:18:29Z</time>
      </trkpt>
      <trkpt lat="44.45835" lon="6.51574">
        <ele>2840</ele>
        <time>2021-02-21T08:18:30Z</time>
      </trkpt>
      <trkpt lat="44.45835" lon="6.51574">
        <ele>2840</ele>
        <time>2021-02-21T08:18:31Z</time>
      </trkpt>
      <trkpt lat="44.45835" lon="6.51574">
        <ele>2840</ele>
        <time>2021-02-21T08:18:32Z</time>
      </trkpt>
      <trkpt lat="44.45835" lon="6.51574">
        <ele>2840</ele>
        <time>2021-02-21T08:18:33Z</time>
      </trkpt>
      <trkpt lat="44.45835" lon="6.51574">
        <ele>2840</ele>
        <time>2021-02-21T08:18:34Z</time>
      </trkpt>
      <trkpt lat="44.45835" lon="6.51574">
        <ele>2840</ele>
        <time>2021-02-21T08:18:35Z</time>
      </trkpt>
      <trkpt lat="44.45835" lon="6.51574">
        <ele>2840</ele>
        <time>2021-02-21T08:18:36Z</time>
      </trkpt>
      <trkpt lat="44.45835" lon="6.51574">
        <ele>2840</ele>
        <time>2021-02-21T08:18:37Z</time>
      </trkpt>
      <trkpt lat="44.45835" lon="6.51574">
        <ele>2840</ele>
        <time>2021-02-21T08:18:38Z</time>
      </trkpt>
      <trkpt lat="44.45835" lon="6.51574">
        <ele>2840</ele>
        <time>2021-02-21T08:18:39Z</time>
      </trkpt>
      <trkpt lat="44.45835" lon="6.51574">
        <ele>2840</ele>
        <time>2021-02-21T08:18:40Z</time>
      </trkpt>
      <trkpt lat="44.45835" lon="6.51574">
        <ele>2840</ele>
        <time>2021-02-21T08:18:41Z</time>
      </trkpt>
      <trkpt lat="44.45835" lon="6.51574">
        <ele>2840</ele>
        <time>2021-02-21T08:18:42Z</time>
      </trkpt>
      <trkpt lat="44.45835" lon="6.51574">
        <ele>2840</ele>
        <time>2021-02-21T08:18:43Z</time>
      </trkpt>
      <trkpt lat="44.45835" lon="6.51574">
        <ele>2840</ele>
        <time>2021-02-21T08:18:44Z</time>
      </trkpt>
      <trkpt lat="44.45835" lon="6.51574">
        <ele>2840</ele>
        <time>2021-02-21T08:18:45Z</time>
      </trkpt>
      <trkpt lat="44.45835" lon="6.51574">
        <ele>2840</ele>
        <time>2021-02-21T08:18:46Z</time>
      </trkpt>
      <trkpt lat="44.45835" lon="6.51574">
        <ele>2840</ele>
        <time>2021-02-21T08:18:47Z</time>
      </trkpt>
      <trkpt lat="44.45835" lon="6.51574">
        <ele>2840</ele>
        <time>2021-02-21T08:18:48Z</time>
      </trkpt>
      <trkpt lat="44.45835" lon="6.51574">
        <ele>2840</ele>
        <time>2021-02-21T08:18:49Z</time>
      </trkpt>
      <trkpt lat="44.45835" lon="6.51574">
        <ele>2840</ele>
        <time>2021-02-21T08:18:50Z</time>
      </trkpt>
      <trkpt lat="44.45835" lon="6.51574">
        <ele>2840</ele>
        <time>2021-02-21T08:18:51Z</time>
      </trkpt>
      <trkpt lat="44.45843" lon="6.51575">
        <ele>2843</ele>
        <time>2021-02-21T08:18:52Z</time>
      </trkpt>
      <trkpt lat="44.45843" lon="6.51575">
        <ele>2844</ele>
        <time>2021-02-21T08:18:53Z</time>
      </trkpt>
      <trkpt lat="44.45843" lon="6.51575">
        <ele>2844</ele>
        <time>2021-02-21T08:18:54Z</time>
      </trkpt>
      <trkpt lat="44.45844" lon="6.51576">
        <ele>2844</ele>
        <time>2021-02-21T08:18:55Z</time>
      </trkpt>
      <trkpt lat="44.45844" lon="6.51576">
        <ele>2844</ele>
        <time>2021-02-21T08:18:56Z</time>
      </trkpt>
      <trkpt lat="44.45844" lon="6.51576">
        <ele>2845</ele>
        <time>2021-02-21T08:18:57Z</time>
      </trkpt>
      <trkpt lat="44.45844" lon="6.51576">
        <ele>2845</ele>
        <time>2021-02-21T08:18:58Z</time>
      </trkpt>
      <trkpt lat="44.45844" lon="6.51576">
        <ele>2845</ele>
        <time>2021-02-21T08:18:59Z</time>
      </trkpt>
      <trkpt lat="44.45844" lon="6.51576">
        <ele>2845</ele>
        <time>2021-02-21T08:19:00Z</time>
      </trkpt>
      <trkpt lat="44.45844" lon="6.51576">
        <ele>2845</ele>
        <time>2021-02-21T08:19:01Z</time>
      </trkpt>
      <trkpt lat="44.45844" lon="6.51576">
        <ele>2845</ele>
        <time>2021-02-21T08:19:02Z</time>
      </trkpt>
      <trkpt lat="44.45844" lon="6.51576">
        <ele>2845</ele>
        <time>2021-02-21T08:19:03Z</time>
      </trkpt>
      <trkpt lat="44.45844" lon="6.51576">
        <ele>2845</ele>
        <time>2021-02-21T08:19:04Z</time>
      </trkpt>
      <trkpt lat="44.45844" lon="6.51576">
        <ele>2845</ele>
        <time>2021-02-21T08:19:05Z</time>
      </trkpt>
      <trkpt lat="44.45844" lon="6.51576">
        <ele>2845</ele>
        <time>2021-02-21T08:19:06Z</time>
      </trkpt>
      <trkpt lat="44.45844" lon="6.51576">
        <ele>2845</ele>
        <time>2021-02-21T08:19:07Z</time>
      </trkpt>
      <trkpt lat="44.45844" lon="6.51576">
        <ele>2845</ele>
        <time>2021-02-21T08:19:08Z</time>
      </trkpt>
      <trkpt lat="44.45844" lon="6.51576">
        <ele>2845</ele>
        <time>2021-02-21T08:19:09Z</time>
      </trkpt>
      <trkpt lat="44.45844" lon="6.51576">
        <ele>2845</ele>
        <time>2021-02-21T08:19:10Z</time>
      </trkpt>
      <trkpt lat="44.45844" lon="6.51576">
        <ele>2845</ele>
        <time>2021-02-21T08:19:11Z</time>
      </trkpt>
      <trkpt lat="44.45844" lon="6.51576">
        <ele>2845</ele>
        <time>2021-02-21T08:19:12Z</time>
      </trkpt>
      <trkpt lat="44.45844" lon="6.51576">
        <ele>2845</ele>
        <time>2021-02-21T08:19:13Z</time>
      </trkpt>
      <trkpt lat="44.45844" lon="6.51576">
        <ele>2845</ele>
        <time>2021-02-21T08:19:14Z</time>
      </trkpt>
      <trkpt lat="44.45844" lon="6.51576">
        <ele>2845</ele>
        <time>2021-02-21T08:19:15Z</time>
      </trkpt>
      <trkpt lat="44.45844" lon="6.51576">
        <ele>2845</ele>
        <time>2021-02-21T08:19:16Z</time>
      </trkpt>
      <trkpt lat="44.45844" lon="6.51576">
        <ele>2845</ele>
        <time>2021-02-21T08:19:17Z</time>
      </trkpt>
      <trkpt lat="44.45844" lon="6.51576">
        <ele>2845</ele>
        <time>2021-02-21T08:19:18Z</time>
      </trkpt>
      <trkpt lat="44.45844" lon="6.51576">
        <ele>2845</ele>
        <time>2021-02-21T08:19:19Z</time>
      </trkpt>
      <trkpt lat="44.45844" lon="6.51576">
        <ele>2845</ele>
        <time>2021-02-21T08:19:20Z</time>
      </trkpt>
      <trkpt lat="44.45844" lon="6.51576">
        <ele>2845</ele>
        <time>2021-02-21T08:19:21Z</time>
      </trkpt>
      <trkpt lat="44.45844" lon="6.51576">
        <ele>2845</ele>
        <time>2021-02-21T08:19:22Z</time>
      </trkpt>
      <trkpt lat="44.45844" lon="6.51576">
        <ele>2845</ele>
        <time>2021-02-21T08:19:23Z</time>
      </trkpt>
      <trkpt lat="44.45849" lon="6.51577">
        <ele>2848</ele>
        <time>2021-02-21T08:19:24Z</time>
      </trkpt>
      <trkpt lat="44.4585" lon="6.51578">
        <ele>2849</ele>
        <time>2021-02-21T08:19:25Z</time>
      </trkpt>
      <trkpt lat="44.4585" lon="6.51578">
        <ele>2849</ele>
        <time>2021-02-21T08:19:26Z</time>
      </trkpt>
      <trkpt lat="44.45851" lon="6.51578">
        <ele>2850</ele>
        <time>2021-02-21T08:19:27Z</time>
      </trkpt>
      <trkpt lat="44.45852" lon="6.51579">
        <ele>2850</ele>
        <time>2021-02-21T08:19:28Z</time>
      </trkpt>
      <trkpt lat="44.45852" lon="6.51579">
        <ele>2850</ele>
        <time>2021-02-21T08:19:29Z</time>
      </trkpt>
      <trkpt lat="44.45853" lon="6.5158">
        <ele>2850</ele>
        <time>2021-02-21T08:19:30Z</time>
      </trkpt>
      <trkpt lat="44.45854" lon="6.5158">
        <ele>2850</ele>
        <time>2021-02-21T08:19:31Z</time>
      </trkpt>
      <trkpt lat="44.45854" lon="6.5158">
        <ele>2850</ele>
        <time>2021-02-21T08:19:32Z</time>
      </trkpt>
      <trkpt lat="44.45855" lon="6.51581">
        <ele>2850</ele>
        <time>2021-02-21T08:19:33Z</time>
      </trkpt>
      <trkpt lat="44.45855" lon="6.51581">
        <ele>2850</ele>
        <time>2021-02-21T08:19:34Z</time>
      </trkpt>
      <trkpt lat="44.45855" lon="6.51581">
        <ele>2851</ele>
        <time>2021-02-21T08:19:35Z</time>
      </trkpt>
      <trkpt lat="44.45855" lon="6.51582">
        <ele>2851</ele>
        <time>2021-02-21T08:19:36Z</time>
      </trkpt>
      <trkpt lat="44.45855" lon="6.51582">
        <ele>2851</ele>
        <time>2021-02-21T08:19:37Z</time>
      </trkpt>
      <trkpt lat="44.45855" lon="6.51582">
        <ele>2851</ele>
        <time>2021-02-21T08:19:38Z</time>
      </trkpt>
      <trkpt lat="44.45855" lon="6.51582">
        <ele>2851</ele>
        <time>2021-02-21T08:19:39Z</time>
      </trkpt>
      <trkpt lat="44.45855" lon="6.51582">
        <ele>2851</ele>
        <time>2021-02-21T08:19:40Z</time>
      </trkpt>
      <trkpt lat="44.45855" lon="6.51582">
        <ele>2851</ele>
        <time>2021-02-21T08:19:41Z</time>
      </trkpt>
      <trkpt lat="44.45855" lon="6.51582">
        <ele>2851</ele>
        <time>2021-02-21T08:19:42Z</time>
      </trkpt>
      <trkpt lat="44.45855" lon="6.51582">
        <ele>2851</ele>
        <time>2021-02-21T08:19:43Z</time>
      </trkpt>
      <trkpt lat="44.45855" lon="6.51581">
        <ele>2851</ele>
        <time>2021-02-21T08:19:44Z</time>
      </trkpt>
      <trkpt lat="44.45855" lon="6.51581">
        <ele>2851</ele>
        <time>2021-02-21T08:19:45Z</time>
      </trkpt>
      <trkpt lat="44.45855" lon="6.51581">
        <ele>2851</ele>
        <time>2021-02-21T08:19:46Z</time>
      </trkpt>
      <trkpt lat="44.45855" lon="6.5158">
        <ele>2852</ele>
        <time>2021-02-21T08:19:47Z</time>
      </trkpt>
      <trkpt lat="44.45855" lon="6.5158">
        <ele>2852</ele>
        <time>2021-02-21T08:19:48Z</time>
      </trkpt>
      <trkpt lat="44.45855" lon="6.5158">
        <ele>2852</ele>
        <time>2021-02-21T08:19:49Z</time>
      </trkpt>
      <trkpt lat="44.45855" lon="6.5158">
        <ele>2852</ele>
        <time>2021-02-21T08:19:50Z</time>
      </trkpt>
      <trkpt lat="44.45855" lon="6.5158">
        <ele>2852</ele>
        <time>2021-02-21T08:19:51Z</time>
      </trkpt>
      <trkpt lat="44.45855" lon="6.5158">
        <ele>2852</ele>
        <time>2021-02-21T08:19:52Z</time>
      </trkpt>
      <trkpt lat="44.45855" lon="6.5158">
        <ele>2852</ele>
        <time>2021-02-21T08:19:53Z</time>
      </trkpt>
      <trkpt lat="44.45855" lon="6.5158">
        <ele>2852</ele>
        <time>2021-02-21T08:19:54Z</time>
      </trkpt>
      <trkpt lat="44.45855" lon="6.5158">
        <ele>2852</ele>
        <time>2021-02-21T08:19:55Z</time>
      </trkpt>
      <trkpt lat="44.45855" lon="6.5158">
        <ele>2852</ele>
        <time>2021-02-21T08:19:56Z</time>
      </trkpt>
      <trkpt lat="44.45855" lon="6.5158">
        <ele>2852</ele>
        <time>2021-02-21T08:19:57Z</time>
      </trkpt>
      <trkpt lat="44.45855" lon="6.5158">
        <ele>2852</ele>
        <time>2021-02-21T08:19:58Z</time>
      </trkpt>
      <trkpt lat="44.45855" lon="6.5158">
        <ele>2852</ele>
        <time>2021-02-21T08:19:59Z</time>
      </trkpt>
      <trkpt lat="44.45855" lon="6.5158">
        <ele>2852</ele>
        <time>2021-02-21T08:20:00Z</time>
      </trkpt>
      <trkpt lat="44.45855" lon="6.5158">
        <ele>2852</ele>
        <time>2021-02-21T08:20:01Z</time>
      </trkpt>
      <trkpt lat="44.45855" lon="6.5158">
        <ele>2852</ele>
        <time>2021-02-21T08:20:02Z</time>
      </trkpt>
      <trkpt lat="44.45855" lon="6.5158">
        <ele>2852</ele>
        <time>2021-02-21T08:20:03Z</time>
      </trkpt>
      <trkpt lat="44.45855" lon="6.5158">
        <ele>2853</ele>
        <time>2021-02-21T08:20:04Z</time>
      </trkpt>
      <trkpt lat="44.45855" lon="6.5158">
        <ele>2853</ele>
        <time>2021-02-21T08:20:05Z</time>
      </trkpt>
      <trkpt lat="44.45855" lon="6.5158">
        <ele>2853</ele>
        <time>2021-02-21T08:20:06Z</time>
      </trkpt>
      <trkpt lat="44.45855" lon="6.5158">
        <ele>2853</ele>
        <time>2021-02-21T08:20:07Z</time>
      </trkpt>
      <trkpt lat="44.45855" lon="6.5158">
        <ele>2853</ele>
        <time>2021-02-21T08:20:08Z</time>
      </trkpt>
      <trkpt lat="44.45855" lon="6.5158">
        <ele>2853</ele>
        <time>2021-02-21T08:20:09Z</time>
      </trkpt>
      <trkpt lat="44.45855" lon="6.5158">
        <ele>2853</ele>
        <time>2021-02-21T08:20:10Z</time>
      </trkpt>
      <trkpt lat="44.45855" lon="6.5158">
        <ele>2853</ele>
        <time>2021-02-21T08:20:11Z</time>
      </trkpt>
      <trkpt lat="44.45855" lon="6.5158">
        <ele>2853</ele>
        <time>2021-02-21T08:20:12Z</time>
      </trkpt>
      <trkpt lat="44.45855" lon="6.5158">
        <ele>2853</ele>
        <time>2021-02-21T08:20:13Z</time>
      </trkpt>
      <trkpt lat="44.45855" lon="6.5158">
        <ele>2853</ele>
        <time>2021-02-21T08:20:14Z</time>
      </trkpt>
      <trkpt lat="44.45855" lon="6.5158">
        <ele>2853</ele>
        <time>2021-02-21T08:20:15Z</time>
      </trkpt>
      <trkpt lat="44.45855" lon="6.5158">
        <ele>2853</ele>
        <time>2021-02-21T08:20:16Z</time>
      </trkpt>
      <trkpt lat="44.45855" lon="6.5158">
        <ele>2853</ele>
        <time>2021-02-21T08:20:17Z</time>
      </trkpt>
      <trkpt lat="44.45855" lon="6.5158">
        <ele>2853</ele>
        <time>2021-02-21T08:20:18Z</time>
      </trkpt>
      <trkpt lat="44.45855" lon="6.5158">
        <ele>2853</ele>
        <time>2021-02-21T08:20:19Z</time>
      </trkpt>
      <trkpt lat="44.45855" lon="6.5158">
        <ele>2853</ele>
        <time>2021-02-21T08:20:20Z</time>
      </trkpt>
      <trkpt lat="44.45855" lon="6.5158">
        <ele>2853</ele>
        <time>2021-02-21T08:20:21Z</time>
      </trkpt>
      <trkpt lat="44.45855" lon="6.5158">
        <ele>2853</ele>
        <time>2021-02-21T08:20:22Z</time>
      </trkpt>
      <trkpt lat="44.45855" lon="6.5158">
        <ele>2853</ele>
        <time>2021-02-21T08:20:23Z</time>
      </trkpt>
      <trkpt lat="44.45855" lon="6.5158">
        <ele>2853</ele>
        <time>2021-02-21T08:20:24Z</time>
      </trkpt>
      <trkpt lat="44.45855" lon="6.5158">
        <ele>2853</ele>
        <time>2021-02-21T08:20:25Z</time>
      </trkpt>
      <trkpt lat="44.45855" lon="6.5158">
        <ele>2853</ele>
        <time>2021-02-21T08:20:26Z</time>
      </trkpt>
      <trkpt lat="44.45855" lon="6.5158">
        <ele>2854</ele>
        <time>2021-02-21T08:20:27Z</time>
      </trkpt>
      <trkpt lat="44.45853" lon="6.51581">
        <ele>2854</ele>
        <time>2021-02-21T08:20:28Z</time>
      </trkpt>
      <trkpt lat="44.45853" lon="6.51581">
        <ele>2854</ele>
        <time>2021-02-21T08:20:29Z</time>
      </trkpt>
      <trkpt lat="44.45853" lon="6.51581">
        <ele>2854</ele>
        <time>2021-02-21T08:20:30Z</time>
      </trkpt>
      <trkpt lat="44.45853" lon="6.51581">
        <ele>2854</ele>
        <time>2021-02-21T08:20:31Z</time>
      </trkpt>
      <trkpt lat="44.45853" lon="6.51581">
        <ele>2854</ele>
        <time>2021-02-21T08:20:32Z</time>
      </trkpt>
      <trkpt lat="44.45853" lon="6.51581">
        <ele>2854</ele>
        <time>2021-02-21T08:20:33Z</time>
      </trkpt>
      <trkpt lat="44.45853" lon="6.51581">
        <ele>2854</ele>
        <time>2021-02-21T08:20:34Z</time>
      </trkpt>
      <trkpt lat="44.45853" lon="6.51581">
        <ele>2854</ele>
        <time>2021-02-21T08:20:35Z</time>
      </trkpt>
      <trkpt lat="44.45853" lon="6.51581">
        <ele>2854</ele>
        <time>2021-02-21T08:20:36Z</time>
      </trkpt>
      <trkpt lat="44.45853" lon="6.51581">
        <ele>2854</ele>
        <time>2021-02-21T08:20:37Z</time>
      </trkpt>
      <trkpt lat="44.45853" lon="6.51581">
        <ele>2854</ele>
        <time>2021-02-21T08:20:38Z</time>
      </trkpt>
      <trkpt lat="44.45853" lon="6.51581">
        <ele>2854</ele>
        <time>2021-02-21T08:20:39Z</time>
      </trkpt>
      <trkpt lat="44.45853" lon="6.51581">
        <ele>2854</ele>
        <time>2021-02-21T08:20:40Z</time>
      </trkpt>
      <trkpt lat="44.45853" lon="6.51581">
        <ele>2854</ele>
        <time>2021-02-21T08:20:41Z</time>
      </trkpt>
      <trkpt lat="44.45853" lon="6.51581">
        <ele>2854</ele>
        <time>2021-02-21T08:20:42Z</time>
      </trkpt>
      <trkpt lat="44.45853" lon="6.51581">
        <ele>2854</ele>
        <time>2021-02-21T08:20:43Z</time>
      </trkpt>
      <trkpt lat="44.45853" lon="6.51581">
        <ele>2854</ele>
        <time>2021-02-21T08:20:44Z</time>
      </trkpt>
      <trkpt lat="44.45853" lon="6.51581">
        <ele>2854</ele>
        <time>2021-02-21T08:20:45Z</time>
      </trkpt>
      <trkpt lat="44.45853" lon="6.51581">
        <ele>2854</ele>
        <time>2021-02-21T08:20:46Z</time>
      </trkpt>
      <trkpt lat="44.45853" lon="6.51581">
        <ele>2854</ele>
        <time>2021-02-21T08:20:47Z</time>
      </trkpt>
      <trkpt lat="44.45853" lon="6.51581">
        <ele>2854</ele>
        <time>2021-02-21T08:20:48Z</time>
      </trkpt>
      <trkpt lat="44.45853" lon="6.51581">
        <ele>2854</ele>
        <time>2021-02-21T08:20:49Z</time>
      </trkpt>
      <trkpt lat="44.4585" lon="6.5158">
        <ele>2856</ele>
        <time>2021-02-21T08:20:50Z</time>
      </trkpt>
      <trkpt lat="44.4585" lon="6.5158">
        <ele>2856</ele>
        <time>2021-02-21T08:20:51Z</time>
      </trkpt>
      <trkpt lat="44.4585" lon="6.5158">
        <ele>2856</ele>
        <time>2021-02-21T08:20:52Z</time>
      </trkpt>
      <trkpt lat="44.45849" lon="6.5158">
        <ele>2856</ele>
        <time>2021-02-21T08:20:53Z</time>
      </trkpt>
      <trkpt lat="44.45849" lon="6.5158">
        <ele>2856</ele>
        <time>2021-02-21T08:20:54Z</time>
      </trkpt>
      <trkpt lat="44.45849" lon="6.5158">
        <ele>2856</ele>
        <time>2021-02-21T08:20:55Z</time>
      </trkpt>
      <trkpt lat="44.45849" lon="6.5158">
        <ele>2856</ele>
        <time>2021-02-21T08:20:56Z</time>
      </trkpt>
      <trkpt lat="44.45849" lon="6.5158">
        <ele>2856</ele>
        <time>2021-02-21T08:20:57Z</time>
      </trkpt>
      <trkpt lat="44.45849" lon="6.5158">
        <ele>2857</ele>
        <time>2021-02-21T08:20:58Z</time>
      </trkpt>
      <trkpt lat="44.45849" lon="6.5158">
        <ele>2857</ele>
        <time>2021-02-21T08:20:59Z</time>
      </trkpt>
      <trkpt lat="44.45849" lon="6.5158">
        <ele>2857</ele>
        <time>2021-02-21T08:21:00Z</time>
      </trkpt>
      <trkpt lat="44.45849" lon="6.5158">
        <ele>2857</ele>
        <time>2021-02-21T08:21:01Z</time>
      </trkpt>
      <trkpt lat="44.45849" lon="6.5158">
        <ele>2857</ele>
        <time>2021-02-21T08:21:02Z</time>
      </trkpt>
      <trkpt lat="44.45849" lon="6.5158">
        <ele>2857</ele>
        <time>2021-02-21T08:21:03Z</time>
      </trkpt>
      <trkpt lat="44.45849" lon="6.5158">
        <ele>2857</ele>
        <time>2021-02-21T08:21:04Z</time>
      </trkpt>
      <trkpt lat="44.45849" lon="6.5158">
        <ele>2857</ele>
        <time>2021-02-21T08:21:05Z</time>
      </trkpt>
      <trkpt lat="44.45849" lon="6.5158">
        <ele>2857</ele>
        <time>2021-02-21T08:21:06Z</time>
      </trkpt>
      <trkpt lat="44.45849" lon="6.5158">
        <ele>2857</ele>
        <time>2021-02-21T08:21:07Z</time>
      </trkpt>
      <trkpt lat="44.45849" lon="6.5158">
        <ele>2857</ele>
        <time>2021-02-21T08:21:08Z</time>
      </trkpt>
      <trkpt lat="44.45849" lon="6.5158">
        <ele>2857</ele>
        <time>2021-02-21T08:21:09Z</time>
      </trkpt>
      <trkpt lat="44.45849" lon="6.5158">
        <ele>2857</ele>
        <time>2021-02-21T08:21:10Z</time>
      </trkpt>
      <trkpt lat="44.45849" lon="6.5158">
        <ele>2857</ele>
        <time>2021-02-21T08:21:11Z</time>
      </trkpt>
      <trkpt lat="44.45849" lon="6.5158">
        <ele>2857</ele>
        <time>2021-02-21T08:21:12Z</time>
      </trkpt>
      <trkpt lat="44.45849" lon="6.5158">
        <ele>2857</ele>
        <time>2021-02-21T08:21:13Z</time>
      </trkpt>
      <trkpt lat="44.45849" lon="6.5158">
        <ele>2857</ele>
        <time>2021-02-21T08:21:14Z</time>
      </trkpt>
      <trkpt lat="44.45849" lon="6.5158">
        <ele>2857</ele>
        <time>2021-02-21T08:21:15Z</time>
      </trkpt>
      <trkpt lat="44.45849" lon="6.5158">
        <ele>2857</ele>
        <time>2021-02-21T08:21:16Z</time>
      </trkpt>
      <trkpt lat="44.45849" lon="6.5158">
        <ele>2857</ele>
        <time>2021-02-21T08:21:17Z</time>
      </trkpt>
      <trkpt lat="44.45849" lon="6.5158">
        <ele>2857</ele>
        <time>2021-02-21T08:21:18Z</time>
      </trkpt>
      <trkpt lat="44.45849" lon="6.5158">
        <ele>2857</ele>
        <time>2021-02-21T08:21:19Z</time>
      </trkpt>
      <trkpt lat="44.45849" lon="6.5158">
        <ele>2857</ele>
        <time>2021-02-21T08:21:20Z</time>
      </trkpt>
      <trkpt lat="44.45849" lon="6.5158">
        <ele>2857</ele>
        <time>2021-02-21T08:21:21Z</time>
      </trkpt>
      <trkpt lat="44.45849" lon="6.5158">
        <ele>2857</ele>
        <time>2021-02-21T08:21:22Z</time>
      </trkpt>
      <trkpt lat="44.45849" lon="6.5158">
        <ele>2857</ele>
        <time>2021-02-21T08:21:23Z</time>
      </trkpt>
      <trkpt lat="44.45849" lon="6.5158">
        <ele>2857</ele>
        <time>2021-02-21T08:21:24Z</time>
      </trkpt>
      <trkpt lat="44.45849" lon="6.5158">
        <ele>2857</ele>
        <time>2021-02-21T08:21:25Z</time>
      </trkpt>
      <trkpt lat="44.45849" lon="6.5158">
        <ele>2857</ele>
        <time>2021-02-21T08:21:26Z</time>
      </trkpt>
      <trkpt lat="44.45849" lon="6.5158">
        <ele>2857</ele>
        <time>2021-02-21T08:21:27Z</time>
      </trkpt>
      <trkpt lat="44.45849" lon="6.5158">
        <ele>2857</ele>
        <time>2021-02-21T08:21:28Z</time>
      </trkpt>
      <trkpt lat="44.45849" lon="6.5158">
        <ele>2857</ele>
        <time>2021-02-21T08:21:29Z</time>
      </trkpt>
      <trkpt lat="44.45849" lon="6.5158">
        <ele>2857</ele>
        <time>2021-02-21T08:21:30Z</time>
      </trkpt>
      <trkpt lat="44.45849" lon="6.5158">
        <ele>2857</ele>
        <time>2021-02-21T08:21:31Z</time>
      </trkpt>
      <trkpt lat="44.45849" lon="6.5158">
        <ele>2857</ele>
        <time>2021-02-21T08:21:32Z</time>
      </trkpt>
      <trkpt lat="44.45849" lon="6.5158">
        <ele>2857</ele>
        <time>2021-02-21T08:21:33Z</time>
      </trkpt>
      <trkpt lat="44.45849" lon="6.5158">
        <ele>2857</ele>
        <time>2021-02-21T08:21:34Z</time>
      </trkpt>
      <trkpt lat="44.45849" lon="6.5158">
        <ele>2857</ele>
        <time>2021-02-21T08:21:35Z</time>
      </trkpt>
      <trkpt lat="44.45849" lon="6.5158">
        <ele>2857</ele>
        <time>2021-02-21T08:21:36Z</time>
      </trkpt>
      <trkpt lat="44.45849" lon="6.5158">
        <ele>2857</ele>
        <time>2021-02-21T08:21:37Z</time>
      </trkpt>
      <trkpt lat="44.45849" lon="6.5158">
        <ele>2857</ele>
        <time>2021-02-21T08:21:38Z</time>
      </trkpt>
      <trkpt lat="44.45849" lon="6.5158">
        <ele>2857</ele>
        <time>2021-02-21T08:21:39Z</time>
      </trkpt>
      <trkpt lat="44.45849" lon="6.5158">
        <ele>2857</ele>
        <time>2021-02-21T08:21:40Z</time>
      </trkpt>
      <trkpt lat="44.45849" lon="6.5158">
        <ele>2857</ele>
        <time>2021-02-21T08:21:41Z</time>
      </trkpt>
      <trkpt lat="44.45849" lon="6.5158">
        <ele>2857</ele>
        <time>2021-02-21T08:21:42Z</time>
      </trkpt>
      <trkpt lat="44.45849" lon="6.5158">
        <ele>2857</ele>
        <time>2021-02-21T08:21:43Z</time>
      </trkpt>
      <trkpt lat="44.45849" lon="6.5158">
        <ele>2857</ele>
        <time>2021-02-21T08:21:44Z</time>
      </trkpt>
      <trkpt lat="44.45849" lon="6.5158">
        <ele>2857</ele>
        <time>2021-02-21T08:21:45Z</time>
      </trkpt>
      <trkpt lat="44.45849" lon="6.5158">
        <ele>2857</ele>
        <time>2021-02-21T08:21:46Z</time>
      </trkpt>
      <trkpt lat="44.45849" lon="6.5158">
        <ele>2857</ele>
        <time>2021-02-21T08:21:47Z</time>
      </trkpt>
      <trkpt lat="44.45849" lon="6.5158">
        <ele>2857</ele>
        <time>2021-02-21T08:21:48Z</time>
      </trkpt>
      <trkpt lat="44.45849" lon="6.5158">
        <ele>2857</ele>
        <time>2021-02-21T08:21:49Z</time>
      </trkpt>
      <trkpt lat="44.45849" lon="6.5158">
        <ele>2857</ele>
        <time>2021-02-21T08:21:50Z</time>
      </trkpt>
      <trkpt lat="44.45849" lon="6.5158">
        <ele>2857</ele>
        <time>2021-02-21T08:21:51Z</time>
      </trkpt>
      <trkpt lat="44.45849" lon="6.5158">
        <ele>2857</ele>
        <time>2021-02-21T08:21:52Z</time>
      </trkpt>
      <trkpt lat="44.45849" lon="6.5158">
        <ele>2857</ele>
        <time>2021-02-21T08:21:53Z</time>
      </trkpt>
      <trkpt lat="44.45849" lon="6.5158">
        <ele>2857</ele>
        <time>2021-02-21T08:21:54Z</time>
      </trkpt>
      <trkpt lat="44.45849" lon="6.5158">
        <ele>2857</ele>
        <time>2021-02-21T08:21:55Z</time>
      </trkpt>
      <trkpt lat="44.45849" lon="6.5158">
        <ele>2857</ele>
        <time>2021-02-21T08:21:56Z</time>
      </trkpt>
      <trkpt lat="44.45849" lon="6.5158">
        <ele>2857</ele>
        <time>2021-02-21T08:21:57Z</time>
      </trkpt>
      <trkpt lat="44.45849" lon="6.5158">
        <ele>2857</ele>
        <time>2021-02-21T08:21:58Z</time>
      </trkpt>
      <trkpt lat="44.45849" lon="6.5158">
        <ele>2857</ele>
        <time>2021-02-21T08:21:59Z</time>
      </trkpt>
      <trkpt lat="44.45849" lon="6.5158">
        <ele>2857</ele>
        <time>2021-02-21T08:22:00Z</time>
      </trkpt>
      <trkpt lat="44.45849" lon="6.51578">
        <ele>2857</ele>
        <time>2021-02-21T08:22:01Z</time>
      </trkpt>
      <trkpt lat="44.45849" lon="6.51578">
        <ele>2857</ele>
        <time>2021-02-21T08:22:02Z</time>
      </trkpt>
      <trkpt lat="44.45849" lon="6.51578">
        <ele>2857</ele>
        <time>2021-02-21T08:22:03Z</time>
      </trkpt>
      <trkpt lat="44.45849" lon="6.51578">
        <ele>2857</ele>
        <time>2021-02-21T08:22:04Z</time>
      </trkpt>
      <trkpt lat="44.45849" lon="6.51578">
        <ele>2857</ele>
        <time>2021-02-21T08:22:05Z</time>
      </trkpt>
      <trkpt lat="44.45849" lon="6.51578">
        <ele>2857</ele>
        <time>2021-02-21T08:22:06Z</time>
      </trkpt>
      <trkpt lat="44.45849" lon="6.51578">
        <ele>2857</ele>
        <time>2021-02-21T08:22:07Z</time>
      </trkpt>
      <trkpt lat="44.45849" lon="6.51578">
        <ele>2857</ele>
        <time>2021-02-21T08:22:08Z</time>
      </trkpt>
      <trkpt lat="44.45849" lon="6.51578">
        <ele>2857</ele>
        <time>2021-02-21T08:22:09Z</time>
      </trkpt>
      <trkpt lat="44.45849" lon="6.51578">
        <ele>2857</ele>
        <time>2021-02-21T08:22:10Z</time>
      </trkpt>
      <trkpt lat="44.45849" lon="6.51578">
        <ele>2857</ele>
        <time>2021-02-21T08:22:11Z</time>
      </trkpt>
      <trkpt lat="44.45849" lon="6.51578">
        <ele>2857</ele>
        <time>2021-02-21T08:22:12Z</time>
      </trkpt>
      <trkpt lat="44.45849" lon="6.51578">
        <ele>2857</ele>
        <time>2021-02-21T08:22:13Z</time>
      </trkpt>
      <trkpt lat="44.45849" lon="6.51578">
        <ele>2857</ele>
        <time>2021-02-21T08:22:14Z</time>
      </trkpt>
      <trkpt lat="44.45849" lon="6.51578">
        <ele>2857</ele>
        <time>2021-02-21T08:22:15Z</time>
      </trkpt>
      <trkpt lat="44.45849" lon="6.51578">
        <ele>2857</ele>
        <time>2021-02-21T08:22:16Z</time>
      </trkpt>
      <trkpt lat="44.45849" lon="6.51578">
        <ele>2857</ele>
        <time>2021-02-21T08:22:17Z</time>
      </trkpt>
      <trkpt lat="44.45849" lon="6.51578">
        <ele>2857</ele>
        <time>2021-02-21T08:22:18Z</time>
      </trkpt>
      <trkpt lat="44.45849" lon="6.51578">
        <ele>2857</ele>
        <time>2021-02-21T08:22:19Z</time>
      </trkpt>
      <trkpt lat="44.45849" lon="6.51578">
        <ele>2857</ele>
        <time>2021-02-21T08:22:20Z</time>
      </trkpt>
      <trkpt lat="44.45849" lon="6.51578">
        <ele>2857</ele>
        <time>2021-02-21T08:22:21Z</time>
      </trkpt>
      <trkpt lat="44.45849" lon="6.51578">
        <ele>2857</ele>
        <time>2021-02-21T08:22:22Z</time>
      </trkpt>
      <trkpt lat="44.45849" lon="6.51578">
        <ele>2857</ele>
        <time>2021-02-21T08:22:23Z</time>
      </trkpt>
      <trkpt lat="44.45849" lon="6.51578">
        <ele>2857</ele>
        <time>2021-02-21T08:22:24Z</time>
      </trkpt>
      <trkpt lat="44.45849" lon="6.51578">
        <ele>2857</ele>
        <time>2021-02-21T08:22:25Z</time>
      </trkpt>
      <trkpt lat="44.45849" lon="6.51578">
        <ele>2857</ele>
        <time>2021-02-21T08:22:26Z</time>
      </trkpt>
      <trkpt lat="44.45849" lon="6.51578">
        <ele>2857</ele>
        <time>2021-02-21T08:22:27Z</time>
      </trkpt>
      <trkpt lat="44.45849" lon="6.51578">
        <ele>2857</ele>
        <time>2021-02-21T08:22:28Z</time>
      </trkpt>
      <trkpt lat="44.45849" lon="6.51578">
        <ele>2857</ele>
        <time>2021-02-21T08:22:29Z</time>
      </trkpt>
      <trkpt lat="44.45849" lon="6.51578">
        <ele>2857</ele>
        <time>2021-02-21T08:22:30Z</time>
      </trkpt>
      <trkpt lat="44.45849" lon="6.51578">
        <ele>2857</ele>
        <time>2021-02-21T08:22:31Z</time>
      </trkpt>
      <trkpt lat="44.45849" lon="6.51578">
        <ele>2857</ele>
        <time>2021-02-21T08:22:32Z</time>
      </trkpt>
      <trkpt lat="44.45849" lon="6.51578">
        <ele>2857</ele>
        <time>2021-02-21T08:22:33Z</time>
      </trkpt>
      <trkpt lat="44.45849" lon="6.51578">
        <ele>2857</ele>
        <time>2021-02-21T08:22:34Z</time>
      </trkpt>
      <trkpt lat="44.45849" lon="6.51578">
        <ele>2857</ele>
        <time>2021-02-21T08:22:35Z</time>
      </trkpt>
      <trkpt lat="44.45849" lon="6.51578">
        <ele>2857</ele>
        <time>2021-02-21T08:22:36Z</time>
      </trkpt>
      <trkpt lat="44.45849" lon="6.51578">
        <ele>2857</ele>
        <time>2021-02-21T08:22:37Z</time>
      </trkpt>
      <trkpt lat="44.45849" lon="6.51578">
        <ele>2857</ele>
        <time>2021-02-21T08:22:38Z</time>
      </trkpt>
      <trkpt lat="44.45849" lon="6.51578">
        <ele>2857</ele>
        <time>2021-02-21T08:22:39Z</time>
      </trkpt>
      <trkpt lat="44.45849" lon="6.51578">
        <ele>2857</ele>
        <time>2021-02-21T08:22:40Z</time>
      </trkpt>
      <trkpt lat="44.45849" lon="6.51578">
        <ele>2857</ele>
        <time>2021-02-21T08:22:41Z</time>
      </trkpt>
      <trkpt lat="44.45849" lon="6.51578">
        <ele>2857</ele>
        <time>2021-02-21T08:22:42Z</time>
      </trkpt>
      <trkpt lat="44.45849" lon="6.51578">
        <ele>2857</ele>
        <time>2021-02-21T08:22:43Z</time>
      </trkpt>
      <trkpt lat="44.45849" lon="6.51578">
        <ele>2857</ele>
        <time>2021-02-21T08:22:44Z</time>
      </trkpt>
      <trkpt lat="44.45849" lon="6.51578">
        <ele>2857</ele>
        <time>2021-02-21T08:22:45Z</time>
      </trkpt>
      <trkpt lat="44.45849" lon="6.51578">
        <ele>2857</ele>
        <time>2021-02-21T08:22:46Z</time>
      </trkpt>
      <trkpt lat="44.45849" lon="6.51578">
        <ele>2857</ele>
        <time>2021-02-21T08:22:47Z</time>
      </trkpt>
      <trkpt lat="44.45849" lon="6.51578">
        <ele>2857</ele>
        <time>2021-02-21T08:22:48Z</time>
      </trkpt>
      <trkpt lat="44.45849" lon="6.51578">
        <ele>2857</ele>
        <time>2021-02-21T08:22:49Z</time>
      </trkpt>
      <trkpt lat="44.45849" lon="6.51578">
        <ele>2857</ele>
        <time>2021-02-21T08:22:50Z</time>
      </trkpt>
      <trkpt lat="44.45849" lon="6.51578">
        <ele>2857</ele>
        <time>2021-02-21T08:22:51Z</time>
      </trkpt>
      <trkpt lat="44.45849" lon="6.51578">
        <ele>2857</ele>
        <time>2021-02-21T08:22:52Z</time>
      </trkpt>
      <trkpt lat="44.45849" lon="6.51578">
        <ele>2857</ele>
        <time>2021-02-21T08:22:53Z</time>
      </trkpt>
      <trkpt lat="44.45849" lon="6.51578">
        <ele>2857</ele>
        <time>2021-02-21T08:22:54Z</time>
      </trkpt>
      <trkpt lat="44.45849" lon="6.51578">
        <ele>2857</ele>
        <time>2021-02-21T08:22:55Z</time>
      </trkpt>
      <trkpt lat="44.45849" lon="6.51578">
        <ele>2857</ele>
        <time>2021-02-21T08:22:56Z</time>
      </trkpt>
      <trkpt lat="44.45849" lon="6.51578">
        <ele>2857</ele>
        <time>2021-02-21T08:22:57Z</time>
      </trkpt>
      <trkpt lat="44.45849" lon="6.51578">
        <ele>2857</ele>
        <time>2021-02-21T08:22:58Z</time>
      </trkpt>
      <trkpt lat="44.45849" lon="6.51578">
        <ele>2857</ele>
        <time>2021-02-21T08:22:59Z</time>
      </trkpt>
      <trkpt lat="44.45849" lon="6.51578">
        <ele>2857</ele>
        <time>2021-02-21T08:23:00Z</time>
      </trkpt>
      <trkpt lat="44.45849" lon="6.51578">
        <ele>2857</ele>
        <time>2021-02-21T08:23:01Z</time>
      </trkpt>
      <trkpt lat="44.45849" lon="6.51578">
        <ele>2857</ele>
        <time>2021-02-21T08:23:02Z</time>
      </trkpt>
      <trkpt lat="44.45849" lon="6.51578">
        <ele>2857</ele>
        <time>2021-02-21T08:23:03Z</time>
      </trkpt>
      <trkpt lat="44.45849" lon="6.51578">
        <ele>2857</ele>
        <time>2021-02-21T08:23:04Z</time>
      </trkpt>
      <trkpt lat="44.45849" lon="6.51578">
        <ele>2857</ele>
        <time>2021-02-21T08:23:05Z</time>
      </trkpt>
      <trkpt lat="44.45849" lon="6.51578">
        <ele>2857</ele>
        <time>2021-02-21T08:23:06Z</time>
      </trkpt>
      <trkpt lat="44.45849" lon="6.51578">
        <ele>2857</ele>
        <time>2021-02-21T08:23:07Z</time>
      </trkpt>
      <trkpt lat="44.45849" lon="6.51578">
        <ele>2857</ele>
        <time>2021-02-21T08:23:08Z</time>
      </trkpt>
      <trkpt lat="44.45849" lon="6.51578">
        <ele>2857</ele>
        <time>2021-02-21T08:23:09Z</time>
      </trkpt>
      <trkpt lat="44.45849" lon="6.51578">
        <ele>2857</ele>
        <time>2021-02-21T08:23:10Z</time>
      </trkpt>
      <trkpt lat="44.45849" lon="6.51578">
        <ele>2857</ele>
        <time>2021-02-21T08:23:11Z</time>
      </trkpt>
      <trkpt lat="44.45849" lon="6.51578">
        <ele>2857</ele>
        <time>2021-02-21T08:23:12Z</time>
      </trkpt>
      <trkpt lat="44.45849" lon="6.51578">
        <ele>2857</ele>
        <time>2021-02-21T08:23:13Z</time>
      </trkpt>
      <trkpt lat="44.45849" lon="6.51578">
        <ele>2857</ele>
        <time>2021-02-21T08:23:14Z</time>
      </trkpt>
      <trkpt lat="44.45849" lon="6.51578">
        <ele>2857</ele>
        <time>2021-02-21T08:23:15Z</time>
      </trkpt>
      <trkpt lat="44.45849" lon="6.51578">
        <ele>2857</ele>
        <time>2021-02-21T08:23:16Z</time>
      </trkpt>
      <trkpt lat="44.45849" lon="6.51578">
        <ele>2857</ele>
        <time>2021-02-21T08:23:17Z</time>
      </trkpt>
      <trkpt lat="44.45849" lon="6.51578">
        <ele>2857</ele>
        <time>2021-02-21T08:23:18Z</time>
      </trkpt>
      <trkpt lat="44.45849" lon="6.51578">
        <ele>2857</ele>
        <time>2021-02-21T08:23:19Z</time>
      </trkpt>
      <trkpt lat="44.45849" lon="6.51578">
        <ele>2857</ele>
        <time>2021-02-21T08:23:20Z</time>
      </trkpt>
      <trkpt lat="44.45849" lon="6.51578">
        <ele>2857</ele>
        <time>2021-02-21T08:23:21Z</time>
      </trkpt>
      <trkpt lat="44.45849" lon="6.51578">
        <ele>2857</ele>
        <time>2021-02-21T08:23:22Z</time>
      </trkpt>
      <trkpt lat="44.45849" lon="6.51578">
        <ele>2857</ele>
        <time>2021-02-21T08:23:23Z</time>
      </trkpt>
      <trkpt lat="44.45849" lon="6.51578">
        <ele>2857</ele>
        <time>2021-02-21T08:23:24Z</time>
      </trkpt>
      <trkpt lat="44.45849" lon="6.51578">
        <ele>2857</ele>
        <time>2021-02-21T08:23:25Z</time>
      </trkpt>
      <trkpt lat="44.45849" lon="6.51578">
        <ele>2857</ele>
        <time>2021-02-21T08:23:26Z</time>
      </trkpt>
      <trkpt lat="44.45849" lon="6.51578">
        <ele>2857</ele>
        <time>2021-02-21T08:23:27Z</time>
      </trkpt>
      <trkpt lat="44.45849" lon="6.51578">
        <ele>2857</ele>
        <time>2021-02-21T08:23:28Z</time>
      </trkpt>
      <trkpt lat="44.45849" lon="6.51578">
        <ele>2857</ele>
        <time>2021-02-21T08:23:29Z</time>
      </trkpt>
      <trkpt lat="44.45849" lon="6.51578">
        <ele>2857</ele>
        <time>2021-02-21T08:23:30Z</time>
      </trkpt>
      <trkpt lat="44.45849" lon="6.51578">
        <ele>2857</ele>
        <time>2021-02-21T08:23:31Z</time>
      </trkpt>
      <trkpt lat="44.45849" lon="6.51578">
        <ele>2857</ele>
        <time>2021-02-21T08:23:32Z</time>
      </trkpt>
      <trkpt lat="44.45849" lon="6.51578">
        <ele>2857</ele>
        <time>2021-02-21T08:23:33Z</time>
      </trkpt>
      <trkpt lat="44.45849" lon="6.51578">
        <ele>2857</ele>
        <time>2021-02-21T08:23:34Z</time>
      </trkpt>
      <trkpt lat="44.45849" lon="6.51578">
        <ele>2857</ele>
        <time>2021-02-21T08:23:35Z</time>
      </trkpt>
      <trkpt lat="44.45849" lon="6.51578">
        <ele>2857</ele>
        <time>2021-02-21T08:23:36Z</time>
      </trkpt>
      <trkpt lat="44.45849" lon="6.51578">
        <ele>2857</ele>
        <time>2021-02-21T08:23:37Z</time>
      </trkpt>
      <trkpt lat="44.45849" lon="6.51578">
        <ele>2857</ele>
        <time>2021-02-21T08:23:38Z</time>
      </trkpt>
      <trkpt lat="44.45849" lon="6.51578">
        <ele>2857</ele>
        <time>2021-02-21T08:23:39Z</time>
      </trkpt>
      <trkpt lat="44.45849" lon="6.51578">
        <ele>2857</ele>
        <time>2021-02-21T08:23:40Z</time>
      </trkpt>
      <trkpt lat="44.45849" lon="6.51578">
        <ele>2857</ele>
        <time>2021-02-21T08:23:41Z</time>
      </trkpt>
      <trkpt lat="44.45849" lon="6.51578">
        <ele>2857</ele>
        <time>2021-02-21T08:23:42Z</time>
      </trkpt>
      <trkpt lat="44.45849" lon="6.51578">
        <ele>2857</ele>
        <time>2021-02-21T08:23:43Z</time>
      </trkpt>
      <trkpt lat="44.45849" lon="6.51578">
        <ele>2857</ele>
        <time>2021-02-21T08:23:44Z</time>
      </trkpt>
      <trkpt lat="44.45849" lon="6.51578">
        <ele>2857</ele>
        <time>2021-02-21T08:23:45Z</time>
      </trkpt>
      <trkpt lat="44.45849" lon="6.51578">
        <ele>2857</ele>
        <time>2021-02-21T08:23:46Z</time>
      </trkpt>
      <trkpt lat="44.45849" lon="6.51578">
        <ele>2857</ele>
        <time>2021-02-21T08:23:47Z</time>
      </trkpt>
      <trkpt lat="44.45849" lon="6.51578">
        <ele>2857</ele>
        <time>2021-02-21T08:23:48Z</time>
      </trkpt>
      <trkpt lat="44.45849" lon="6.51578">
        <ele>2857</ele>
        <time>2021-02-21T08:23:49Z</time>
      </trkpt>
      <trkpt lat="44.45849" lon="6.51578">
        <ele>2857</ele>
        <time>2021-02-21T08:23:50Z</time>
      </trkpt>
      <trkpt lat="44.45849" lon="6.51578">
        <ele>2857</ele>
        <time>2021-02-21T08:23:51Z</time>
      </trkpt>
      <trkpt lat="44.45849" lon="6.51578">
        <ele>2857</ele>
        <time>2021-02-21T08:23:52Z</time>
      </trkpt>
      <trkpt lat="44.45849" lon="6.51578">
        <ele>2857</ele>
        <time>2021-02-21T08:23:53Z</time>
      </trkpt>
      <trkpt lat="44.45849" lon="6.51578">
        <ele>2857</ele>
        <time>2021-02-21T08:23:54Z</time>
      </trkpt>
      <trkpt lat="44.45849" lon="6.51578">
        <ele>2857</ele>
        <time>2021-02-21T08:23:55Z</time>
      </trkpt>
      <trkpt lat="44.45849" lon="6.51578">
        <ele>2857</ele>
        <time>2021-02-21T08:23:56Z</time>
      </trkpt>
      <trkpt lat="44.45849" lon="6.51578">
        <ele>2857</ele>
        <time>2021-02-21T08:23:57Z</time>
      </trkpt>
      <trkpt lat="44.45849" lon="6.51578">
        <ele>2857</ele>
        <time>2021-02-21T08:23:58Z</time>
      </trkpt>
      <trkpt lat="44.45849" lon="6.51578">
        <ele>2857</ele>
        <time>2021-02-21T08:23:59Z</time>
      </trkpt>
      <trkpt lat="44.45849" lon="6.51578">
        <ele>2857</ele>
        <time>2021-02-21T08:24:00Z</time>
      </trkpt>
      <trkpt lat="44.45849" lon="6.51578">
        <ele>2857</ele>
        <time>2021-02-21T08:24:01Z</time>
      </trkpt>
      <trkpt lat="44.45849" lon="6.51578">
        <ele>2857</ele>
        <time>2021-02-21T08:24:02Z</time>
      </trkpt>
      <trkpt lat="44.45849" lon="6.51578">
        <ele>2857</ele>
        <time>2021-02-21T08:24:03Z</time>
      </trkpt>
      <trkpt lat="44.45849" lon="6.51578">
        <ele>2857</ele>
        <time>2021-02-21T08:24:04Z</time>
      </trkpt>
      <trkpt lat="44.45849" lon="6.51578">
        <ele>2857</ele>
        <time>2021-02-21T08:24:05Z</time>
      </trkpt>
      <trkpt lat="44.45849" lon="6.51578">
        <ele>2857</ele>
        <time>2021-02-21T08:24:06Z</time>
      </trkpt>
      <trkpt lat="44.45849" lon="6.51578">
        <ele>2857</ele>
        <time>2021-02-21T08:24:07Z</time>
      </trkpt>
      <trkpt lat="44.45849" lon="6.51578">
        <ele>2857</ele>
        <time>2021-02-21T08:24:08Z</time>
      </trkpt>
      <trkpt lat="44.45849" lon="6.51578">
        <ele>2857</ele>
        <time>2021-02-21T08:24:09Z</time>
      </trkpt>
      <trkpt lat="44.45849" lon="6.51578">
        <ele>2857</ele>
        <time>2021-02-21T08:24:10Z</time>
      </trkpt>
      <trkpt lat="44.45849" lon="6.51578">
        <ele>2857</ele>
        <time>2021-02-21T08:24:11Z</time>
      </trkpt>
      <trkpt lat="44.45849" lon="6.51578">
        <ele>2857</ele>
        <time>2021-02-21T08:24:12Z</time>
      </trkpt>
      <trkpt lat="44.45849" lon="6.51578">
        <ele>2857</ele>
        <time>2021-02-21T08:24:13Z</time>
      </trkpt>
      <trkpt lat="44.45849" lon="6.51578">
        <ele>2857</ele>
        <time>2021-02-21T08:24:14Z</time>
      </trkpt>
      <trkpt lat="44.45849" lon="6.51578">
        <ele>2857</ele>
        <time>2021-02-21T08:24:15Z</time>
      </trkpt>
      <trkpt lat="44.45849" lon="6.51578">
        <ele>2857</ele>
        <time>2021-02-21T08:24:16Z</time>
      </trkpt>
      <trkpt lat="44.45849" lon="6.51578">
        <ele>2857</ele>
        <time>2021-02-21T08:24:17Z</time>
      </trkpt>
      <trkpt lat="44.45849" lon="6.51578">
        <ele>2857</ele>
        <time>2021-02-21T08:24:18Z</time>
      </trkpt>
      <trkpt lat="44.45849" lon="6.51578">
        <ele>2857</ele>
        <time>2021-02-21T08:24:19Z</time>
      </trkpt>
      <trkpt lat="44.45849" lon="6.51578">
        <ele>2857</ele>
        <time>2021-02-21T08:24:20Z</time>
      </trkpt>
      <trkpt lat="44.45849" lon="6.51578">
        <ele>2857</ele>
        <time>2021-02-21T08:24:21Z</time>
      </trkpt>
      <trkpt lat="44.45849" lon="6.51578">
        <ele>2857</ele>
        <time>2021-02-21T08:24:22Z</time>
      </trkpt>
      <trkpt lat="44.45849" lon="6.51578">
        <ele>2857</ele>
        <time>2021-02-21T08:24:23Z</time>
      </trkpt>
      <trkpt lat="44.45849" lon="6.51578">
        <ele>2857</ele>
        <time>2021-02-21T08:24:24Z</time>
      </trkpt>
      <trkpt lat="44.45849" lon="6.51578">
        <ele>2857</ele>
        <time>2021-02-21T08:24:25Z</time>
      </trkpt>
      <trkpt lat="44.45849" lon="6.51578">
        <ele>2857</ele>
        <time>2021-02-21T08:24:26Z</time>
      </trkpt>
      <trkpt lat="44.45849" lon="6.51578">
        <ele>2857</ele>
        <time>2021-02-21T08:24:27Z</time>
      </trkpt>
      <trkpt lat="44.45849" lon="6.51578">
        <ele>2857</ele>
        <time>2021-02-21T08:24:28Z</time>
      </trkpt>
      <trkpt lat="44.45849" lon="6.51578">
        <ele>2857</ele>
        <time>2021-02-21T08:24:29Z</time>
      </trkpt>
      <trkpt lat="44.45849" lon="6.51578">
        <ele>2857</ele>
        <time>2021-02-21T08:24:30Z</time>
      </trkpt>
      <trkpt lat="44.45849" lon="6.51578">
        <ele>2857</ele>
        <time>2021-02-21T08:24:31Z</time>
      </trkpt>
      <trkpt lat="44.45849" lon="6.51578">
        <ele>2857</ele>
        <time>2021-02-21T08:24:32Z</time>
      </trkpt>
      <trkpt lat="44.45849" lon="6.51578">
        <ele>2857</ele>
        <time>2021-02-21T08:24:33Z</time>
      </trkpt>
      <trkpt lat="44.45849" lon="6.51578">
        <ele>2857</ele>
        <time>2021-02-21T08:24:35Z</time>
      </trkpt>
      <trkpt lat="44.45849" lon="6.51578">
        <ele>2857</ele>
        <time>2021-02-21T08:24:36Z</time>
      </trkpt>
      <trkpt lat="44.45849" lon="6.51578">
        <ele>2857</ele>
        <time>2021-02-21T08:24:37Z</time>
      </trkpt>
      <trkpt lat="44.4585" lon="6.51577">
        <ele>2857</ele>
        <time>2021-02-21T08:24:38Z</time>
      </trkpt>
      <trkpt lat="44.4585" lon="6.51576">
        <ele>2857</ele>
        <time>2021-02-21T08:24:39Z</time>
      </trkpt>
      <trkpt lat="44.4585" lon="6.51577">
        <ele>2857</ele>
        <time>2021-02-21T08:24:40Z</time>
      </trkpt>
      <trkpt lat="44.4585" lon="6.51578">
        <ele>2857</ele>
        <time>2021-02-21T08:24:41Z</time>
      </trkpt>
      <trkpt lat="44.4585" lon="6.51578">
        <ele>2857</ele>
        <time>2021-02-21T08:24:42Z</time>
      </trkpt>
      <trkpt lat="44.45851" lon="6.51579">
        <ele>2857</ele>
        <time>2021-02-21T08:24:43Z</time>
      </trkpt>
      <trkpt lat="44.45851" lon="6.51579">
        <ele>2857</ele>
        <time>2021-02-21T08:24:44Z</time>
      </trkpt>
      <trkpt lat="44.45851" lon="6.51579">
        <ele>2857</ele>
        <time>2021-02-21T08:24:45Z</time>
      </trkpt>
      <trkpt lat="44.45851" lon="6.51579">
        <ele>2857</ele>
        <time>2021-02-21T08:24:46Z</time>
      </trkpt>
      <trkpt lat="44.45851" lon="6.51579">
        <ele>2857</ele>
        <time>2021-02-21T08:24:47Z</time>
      </trkpt>
      <trkpt lat="44.45851" lon="6.51579">
        <ele>2857</ele>
        <time>2021-02-21T08:24:48Z</time>
      </trkpt>
      <trkpt lat="44.45851" lon="6.51579">
        <ele>2857</ele>
        <time>2021-02-21T08:24:49Z</time>
      </trkpt>
      <trkpt lat="44.45851" lon="6.51579">
        <ele>2857</ele>
        <time>2021-02-21T08:24:50Z</time>
      </trkpt>
      <trkpt lat="44.45849" lon="6.51579">
        <ele>2857</ele>
        <time>2021-02-21T08:24:51Z</time>
      </trkpt>
      <trkpt lat="44.45848" lon="6.5158">
        <ele>2857</ele>
        <time>2021-02-21T08:24:52Z</time>
      </trkpt>
      <trkpt lat="44.45848" lon="6.5158">
        <ele>2857</ele>
        <time>2021-02-21T08:24:53Z</time>
      </trkpt>
      <trkpt lat="44.45848" lon="6.51579">
        <ele>2856</ele>
        <time>2021-02-21T08:24:54Z</time>
      </trkpt>
      <trkpt lat="44.45848" lon="6.51579">
        <ele>2856</ele>
        <time>2021-02-21T08:24:55Z</time>
      </trkpt>
      <trkpt lat="44.45848" lon="6.51579">
        <ele>2856</ele>
        <time>2021-02-21T08:24:56Z</time>
      </trkpt>
      <trkpt lat="44.45848" lon="6.51579">
        <ele>2856</ele>
        <time>2021-02-21T08:24:57Z</time>
      </trkpt>
      <trkpt lat="44.45848" lon="6.51579">
        <ele>2854</ele>
        <time>2021-02-21T08:24:58Z</time>
      </trkpt>
      <trkpt lat="44.45848" lon="6.51579">
        <ele>2853</ele>
        <time>2021-02-21T08:24:59Z</time>
      </trkpt>
      <trkpt lat="44.45848" lon="6.51579">
        <ele>2853</ele>
        <time>2021-02-21T08:25:00Z</time>
      </trkpt>
      <trkpt lat="44.45848" lon="6.51579">
        <ele>2853</ele>
        <time>2021-02-21T08:25:01Z</time>
      </trkpt>
      <trkpt lat="44.45848" lon="6.51579">
        <ele>2853</ele>
        <time>2021-02-21T08:25:02Z</time>
      </trkpt>
      <trkpt lat="44.45848" lon="6.51579">
        <ele>2853</ele>
        <time>2021-02-21T08:25:03Z</time>
      </trkpt>
      <trkpt lat="44.45848" lon="6.51579">
        <ele>2853</ele>
        <time>2021-02-21T08:25:04Z</time>
      </trkpt>
      <trkpt lat="44.45848" lon="6.51579">
        <ele>2853</ele>
        <time>2021-02-21T08:25:05Z</time>
      </trkpt>
      <trkpt lat="44.45848" lon="6.51579">
        <ele>2853</ele>
        <time>2021-02-21T08:25:06Z</time>
      </trkpt>
      <trkpt lat="44.45848" lon="6.51579">
        <ele>2853</ele>
        <time>2021-02-21T08:25:07Z</time>
      </trkpt>
      <trkpt lat="44.45847" lon="6.51578">
        <ele>2853</ele>
        <time>2021-02-21T08:25:08Z</time>
      </trkpt>
      <trkpt lat="44.45847" lon="6.51578">
        <ele>2853</ele>
        <time>2021-02-21T08:25:09Z</time>
      </trkpt>
      <trkpt lat="44.45847" lon="6.51578">
        <ele>2853</ele>
        <time>2021-02-21T08:25:10Z</time>
      </trkpt>
      <trkpt lat="44.45847" lon="6.51578">
        <ele>2853</ele>
        <time>2021-02-21T08:25:11Z</time>
      </trkpt>
      <trkpt lat="44.45847" lon="6.51578">
        <ele>2853</ele>
        <time>2021-02-21T08:25:12Z</time>
      </trkpt>
      <trkpt lat="44.45847" lon="6.51578">
        <ele>2853</ele>
        <time>2021-02-21T08:25:13Z</time>
      </trkpt>
      <trkpt lat="44.45847" lon="6.51578">
        <ele>2853</ele>
        <time>2021-02-21T08:25:14Z</time>
      </trkpt>
      <trkpt lat="44.45847" lon="6.51578">
        <ele>2853</ele>
        <time>2021-02-21T08:25:15Z</time>
      </trkpt>
      <trkpt lat="44.45847" lon="6.51578">
        <ele>2853</ele>
        <time>2021-02-21T08:25:16Z</time>
      </trkpt>
      <trkpt lat="44.45847" lon="6.51578">
        <ele>2853</ele>
        <time>2021-02-21T08:25:17Z</time>
      </trkpt>
      <trkpt lat="44.45847" lon="6.51578">
        <ele>2853</ele>
        <time>2021-02-21T08:25:18Z</time>
      </trkpt>
      <trkpt lat="44.45847" lon="6.51578">
        <ele>2853</ele>
        <time>2021-02-21T08:25:19Z</time>
      </trkpt>
      <trkpt lat="44.45847" lon="6.51578">
        <ele>2853</ele>
        <time>2021-02-21T08:25:20Z</time>
      </trkpt>
      <trkpt lat="44.45847" lon="6.51578">
        <ele>2853</ele>
        <time>2021-02-21T08:25:21Z</time>
      </trkpt>
      <trkpt lat="44.45847" lon="6.51578">
        <ele>2853</ele>
        <time>2021-02-21T08:25:22Z</time>
      </trkpt>
      <trkpt lat="44.45847" lon="6.51578">
        <ele>2853</ele>
        <time>2021-02-21T08:25:23Z</time>
      </trkpt>
      <trkpt lat="44.45847" lon="6.51578">
        <ele>2853</ele>
        <time>2021-02-21T08:25:24Z</time>
      </trkpt>
      <trkpt lat="44.45847" lon="6.51578">
        <ele>2853</ele>
        <time>2021-02-21T08:25:25Z</time>
      </trkpt>
      <trkpt lat="44.45847" lon="6.51578">
        <ele>2853</ele>
        <time>2021-02-21T08:25:26Z</time>
      </trkpt>
      <trkpt lat="44.45847" lon="6.51578">
        <ele>2853</ele>
        <time>2021-02-21T08:25:27Z</time>
      </trkpt>
      <trkpt lat="44.45847" lon="6.51578">
        <ele>2853</ele>
        <time>2021-02-21T08:25:28Z</time>
      </trkpt>
      <trkpt lat="44.45847" lon="6.51578">
        <ele>2853</ele>
        <time>2021-02-21T08:25:29Z</time>
      </trkpt>
      <trkpt lat="44.45847" lon="6.51578">
        <ele>2853</ele>
        <time>2021-02-21T08:25:30Z</time>
      </trkpt>
      <trkpt lat="44.45847" lon="6.51578">
        <ele>2853</ele>
        <time>2021-02-21T08:25:31Z</time>
      </trkpt>
      <trkpt lat="44.45847" lon="6.51578">
        <ele>2853</ele>
        <time>2021-02-21T08:25:32Z</time>
      </trkpt>
      <trkpt lat="44.45847" lon="6.51578">
        <ele>2853</ele>
        <time>2021-02-21T08:25:33Z</time>
      </trkpt>
      <trkpt lat="44.45847" lon="6.51578">
        <ele>2853</ele>
        <time>2021-02-21T08:25:34Z</time>
      </trkpt>
      <trkpt lat="44.45847" lon="6.51578">
        <ele>2853</ele>
        <time>2021-02-21T08:25:35Z</time>
      </trkpt>
      <trkpt lat="44.45847" lon="6.51578">
        <ele>2853</ele>
        <time>2021-02-21T08:25:36Z</time>
      </trkpt>
      <trkpt lat="44.45847" lon="6.51578">
        <ele>2853</ele>
        <time>2021-02-21T08:25:37Z</time>
      </trkpt>
      <trkpt lat="44.45847" lon="6.51578">
        <ele>2853</ele>
        <time>2021-02-21T08:25:38Z</time>
      </trkpt>
      <trkpt lat="44.45847" lon="6.51578">
        <ele>2853</ele>
        <time>2021-02-21T08:25:39Z</time>
      </trkpt>
      <trkpt lat="44.45847" lon="6.51578">
        <ele>2853</ele>
        <time>2021-02-21T08:25:40Z</time>
      </trkpt>
      <trkpt lat="44.45847" lon="6.51578">
        <ele>2853</ele>
        <time>2021-02-21T08:25:41Z</time>
      </trkpt>
      <trkpt lat="44.45848" lon="6.51579">
        <ele>2853</ele>
        <time>2021-02-21T08:25:42Z</time>
      </trkpt>
      <trkpt lat="44.45847" lon="6.5158">
        <ele>2853</ele>
        <time>2021-02-21T08:25:43Z</time>
      </trkpt>
      <trkpt lat="44.45847" lon="6.5158">
        <ele>2853</ele>
        <time>2021-02-21T08:25:44Z</time>
      </trkpt>
      <trkpt lat="44.45846" lon="6.5158">
        <ele>2853</ele>
        <time>2021-02-21T08:25:45Z</time>
      </trkpt>
      <trkpt lat="44.45847" lon="6.51579">
        <ele>2853</ele>
        <time>2021-02-21T08:25:46Z</time>
      </trkpt>
      <trkpt lat="44.45847" lon="6.51579">
        <ele>2853</ele>
        <time>2021-02-21T08:25:47Z</time>
      </trkpt>
      <trkpt lat="44.45848" lon="6.51579">
        <ele>2853</ele>
        <time>2021-02-21T08:25:48Z</time>
      </trkpt>
      <trkpt lat="44.45848" lon="6.51579">
        <ele>2853</ele>
        <time>2021-02-21T08:25:49Z</time>
      </trkpt>
      <trkpt lat="44.45848" lon="6.51579">
        <ele>2853</ele>
        <time>2021-02-21T08:25:50Z</time>
      </trkpt>
      <trkpt lat="44.45848" lon="6.51579">
        <ele>2853</ele>
        <time>2021-02-21T08:25:51Z</time>
      </trkpt>
      <trkpt lat="44.45848" lon="6.51579">
        <ele>2853</ele>
        <time>2021-02-21T08:25:52Z</time>
      </trkpt>
      <trkpt lat="44.45848" lon="6.51578">
        <ele>2853</ele>
        <time>2021-02-21T08:25:53Z</time>
      </trkpt>
      <trkpt lat="44.45848" lon="6.51578">
        <ele>2853</ele>
        <time>2021-02-21T08:25:54Z</time>
      </trkpt>
      <trkpt lat="44.45848" lon="6.51578">
        <ele>2853</ele>
        <time>2021-02-21T08:25:55Z</time>
      </trkpt>
      <trkpt lat="44.45848" lon="6.51578">
        <ele>2853</ele>
        <time>2021-02-21T08:25:56Z</time>
      </trkpt>
      <trkpt lat="44.45848" lon="6.51578">
        <ele>2853</ele>
        <time>2021-02-21T08:25:57Z</time>
      </trkpt>
      <trkpt lat="44.45848" lon="6.51578">
        <ele>2853</ele>
        <time>2021-02-21T08:25:58Z</time>
      </trkpt>
      <trkpt lat="44.45848" lon="6.51578">
        <ele>2853</ele>
        <time>2021-02-21T08:25:59Z</time>
      </trkpt>
      <trkpt lat="44.45848" lon="6.51578">
        <ele>2853</ele>
        <time>2021-02-21T08:26:00Z</time>
      </trkpt>
      <trkpt lat="44.45848" lon="6.51578">
        <ele>2853</ele>
        <time>2021-02-21T08:26:01Z</time>
      </trkpt>
      <trkpt lat="44.45848" lon="6.51578">
        <ele>2853</ele>
        <time>2021-02-21T08:26:02Z</time>
      </trkpt>
      <trkpt lat="44.45848" lon="6.51578">
        <ele>2853</ele>
        <time>2021-02-21T08:26:03Z</time>
      </trkpt>
      <trkpt lat="44.45848" lon="6.51578">
        <ele>2853</ele>
        <time>2021-02-21T08:26:04Z</time>
      </trkpt>
      <trkpt lat="44.45848" lon="6.51578">
        <ele>2853</ele>
        <time>2021-02-21T08:26:05Z</time>
      </trkpt>
      <trkpt lat="44.45848" lon="6.51578">
        <ele>2853</ele>
        <time>2021-02-21T08:26:06Z</time>
      </trkpt>
      <trkpt lat="44.45848" lon="6.51578">
        <ele>2853</ele>
        <time>2021-02-21T08:26:07Z</time>
      </trkpt>
      <trkpt lat="44.45848" lon="6.51578">
        <ele>2853</ele>
        <time>2021-02-21T08:26:08Z</time>
      </trkpt>
      <trkpt lat="44.45848" lon="6.51578">
        <ele>2853</ele>
        <time>2021-02-21T08:26:09Z</time>
      </trkpt>
      <trkpt lat="44.45848" lon="6.51578">
        <ele>2853</ele>
        <time>2021-02-21T08:26:10Z</time>
      </trkpt>
      <trkpt lat="44.45848" lon="6.51578">
        <ele>2853</ele>
        <time>2021-02-21T08:26:11Z</time>
      </trkpt>
      <trkpt lat="44.45848" lon="6.51578">
        <ele>2853</ele>
        <time>2021-02-21T08:26:12Z</time>
      </trkpt>
      <trkpt lat="44.45848" lon="6.51578">
        <ele>2853</ele>
        <time>2021-02-21T08:26:13Z</time>
      </trkpt>
      <trkpt lat="44.45848" lon="6.51578">
        <ele>2853</ele>
        <time>2021-02-21T08:26:14Z</time>
      </trkpt>
      <trkpt lat="44.45848" lon="6.51578">
        <ele>2853</ele>
        <time>2021-02-21T08:26:15Z</time>
      </trkpt>
      <trkpt lat="44.45848" lon="6.51578">
        <ele>2853</ele>
        <time>2021-02-21T08:26:16Z</time>
      </trkpt>
      <trkpt lat="44.45848" lon="6.51578">
        <ele>2853</ele>
        <time>2021-02-21T08:26:17Z</time>
      </trkpt>
      <trkpt lat="44.45848" lon="6.51578">
        <ele>2853</ele>
        <time>2021-02-21T08:26:18Z</time>
      </trkpt>
      <trkpt lat="44.45848" lon="6.51578">
        <ele>2853</ele>
        <time>2021-02-21T08:26:19Z</time>
      </trkpt>
      <trkpt lat="44.45848" lon="6.51578">
        <ele>2853</ele>
        <time>2021-02-21T08:26:20Z</time>
      </trkpt>
      <trkpt lat="44.45848" lon="6.51578">
        <ele>2853</ele>
        <time>2021-02-21T08:26:21Z</time>
      </trkpt>
      <trkpt lat="44.45848" lon="6.51578">
        <ele>2853</ele>
        <time>2021-02-21T08:26:22Z</time>
      </trkpt>
      <trkpt lat="44.45848" lon="6.51578">
        <ele>2853</ele>
        <time>2021-02-21T08:26:23Z</time>
      </trkpt>
      <trkpt lat="44.45848" lon="6.51578">
        <ele>2853</ele>
        <time>2021-02-21T08:26:24Z</time>
      </trkpt>
      <trkpt lat="44.45848" lon="6.51578">
        <ele>2853</ele>
        <time>2021-02-21T08:26:25Z</time>
      </trkpt>
      <trkpt lat="44.45848" lon="6.51578">
        <ele>2853</ele>
        <time>2021-02-21T08:26:26Z</time>
      </trkpt>
      <trkpt lat="44.45848" lon="6.51578">
        <ele>2853</ele>
        <time>2021-02-21T08:26:27Z</time>
      </trkpt>
      <trkpt lat="44.45848" lon="6.51578">
        <ele>2853</ele>
        <time>2021-02-21T08:26:28Z</time>
      </trkpt>
      <trkpt lat="44.45848" lon="6.51578">
        <ele>2853</ele>
        <time>2021-02-21T08:26:29Z</time>
      </trkpt>
      <trkpt lat="44.45848" lon="6.51578">
        <ele>2853</ele>
        <time>2021-02-21T08:26:30Z</time>
      </trkpt>
      <trkpt lat="44.45848" lon="6.51578">
        <ele>2853</ele>
        <time>2021-02-21T08:26:31Z</time>
      </trkpt>
      <trkpt lat="44.45848" lon="6.51578">
        <ele>2853</ele>
        <time>2021-02-21T08:26:32Z</time>
      </trkpt>
      <trkpt lat="44.45848" lon="6.51578">
        <ele>2853</ele>
        <time>2021-02-21T08:26:33Z</time>
      </trkpt>
      <trkpt lat="44.45848" lon="6.51578">
        <ele>2853</ele>
        <time>2021-02-21T08:26:34Z</time>
      </trkpt>
      <trkpt lat="44.45848" lon="6.51578">
        <ele>2853</ele>
        <time>2021-02-21T08:26:35Z</time>
      </trkpt>
      <trkpt lat="44.45848" lon="6.51578">
        <ele>2853</ele>
        <time>2021-02-21T08:26:36Z</time>
      </trkpt>
      <trkpt lat="44.45848" lon="6.51578">
        <ele>2853</ele>
        <time>2021-02-21T08:26:37Z</time>
      </trkpt>
      <trkpt lat="44.45848" lon="6.51578">
        <ele>2853</ele>
        <time>2021-02-21T08:26:38Z</time>
      </trkpt>
      <trkpt lat="44.45848" lon="6.51578">
        <ele>2853</ele>
        <time>2021-02-21T08:26:39Z</time>
      </trkpt>
      <trkpt lat="44.45848" lon="6.51578">
        <ele>2853</ele>
        <time>2021-02-21T08:26:40Z</time>
      </trkpt>
      <trkpt lat="44.45848" lon="6.51578">
        <ele>2853</ele>
        <time>2021-02-21T08:26:41Z</time>
      </trkpt>
      <trkpt lat="44.45848" lon="6.51578">
        <ele>2853</ele>
        <time>2021-02-21T08:26:42Z</time>
      </trkpt>
      <trkpt lat="44.45848" lon="6.51578">
        <ele>2854</ele>
        <time>2021-02-21T08:26:43Z</time>
      </trkpt>
      <trkpt lat="44.45848" lon="6.51578">
        <ele>2854</ele>
        <time>2021-02-21T08:26:44Z</time>
      </trkpt>
      <trkpt lat="44.45848" lon="6.51578">
        <ele>2854</ele>
        <time>2021-02-21T08:26:45Z</time>
      </trkpt>
      <trkpt lat="44.45848" lon="6.51578">
        <ele>2854</ele>
        <time>2021-02-21T08:26:46Z</time>
      </trkpt>
      <trkpt lat="44.45848" lon="6.51578">
        <ele>2854</ele>
        <time>2021-02-21T08:26:47Z</time>
      </trkpt>
      <trkpt lat="44.45848" lon="6.51578">
        <ele>2854</ele>
        <time>2021-02-21T08:26:48Z</time>
      </trkpt>
      <trkpt lat="44.45848" lon="6.51578">
        <ele>2854</ele>
        <time>2021-02-21T08:26:49Z</time>
      </trkpt>
      <trkpt lat="44.45848" lon="6.51578">
        <ele>2854</ele>
        <time>2021-02-21T08:26:50Z</time>
      </trkpt>
      <trkpt lat="44.45848" lon="6.51578">
        <ele>2854</ele>
        <time>2021-02-21T08:26:51Z</time>
      </trkpt>
      <trkpt lat="44.45848" lon="6.51578">
        <ele>2854</ele>
        <time>2021-02-21T08:26:52Z</time>
      </trkpt>
      <trkpt lat="44.45848" lon="6.51578">
        <ele>2854</ele>
        <time>2021-02-21T08:26:53Z</time>
      </trkpt>
      <trkpt lat="44.45848" lon="6.51578">
        <ele>2854</ele>
        <time>2021-02-21T08:26:54Z</time>
      </trkpt>
      <trkpt lat="44.45848" lon="6.51578">
        <ele>2854</ele>
        <time>2021-02-21T08:26:55Z</time>
      </trkpt>
      <trkpt lat="44.45848" lon="6.51578">
        <ele>2854</ele>
        <time>2021-02-21T08:26:56Z</time>
      </trkpt>
      <trkpt lat="44.45849" lon="6.51578">
        <ele>2854</ele>
        <time>2021-02-21T08:26:57Z</time>
      </trkpt>
      <trkpt lat="44.45849" lon="6.51577">
        <ele>2854</ele>
        <time>2021-02-21T08:26:58Z</time>
      </trkpt>
      <trkpt lat="44.4585" lon="6.51577">
        <ele>2856</ele>
        <time>2021-02-21T08:26:59Z</time>
      </trkpt>
      <trkpt lat="44.4585" lon="6.51577">
        <ele>2856</ele>
        <time>2021-02-21T08:27:00Z</time>
      </trkpt>
      <trkpt lat="44.4585" lon="6.51577">
        <ele>2857</ele>
        <time>2021-02-21T08:27:01Z</time>
      </trkpt>
      <trkpt lat="44.4585" lon="6.51577">
        <ele>2857</ele>
        <time>2021-02-21T08:27:02Z</time>
      </trkpt>
      <trkpt lat="44.4585" lon="6.51577">
        <ele>2857</ele>
        <time>2021-02-21T08:27:03Z</time>
      </trkpt>
      <trkpt lat="44.4585" lon="6.51577">
        <ele>2857</ele>
        <time>2021-02-21T08:27:04Z</time>
      </trkpt>
      <trkpt lat="44.4585" lon="6.51577">
        <ele>2857</ele>
        <time>2021-02-21T08:27:05Z</time>
      </trkpt>
      <trkpt lat="44.4585" lon="6.51577">
        <ele>2857</ele>
        <time>2021-02-21T08:27:06Z</time>
      </trkpt>
      <trkpt lat="44.4585" lon="6.51577">
        <ele>2857</ele>
        <time>2021-02-21T08:27:07Z</time>
      </trkpt>
      <trkpt lat="44.4585" lon="6.51577">
        <ele>2857</ele>
        <time>2021-02-21T08:27:08Z</time>
      </trkpt>
      <trkpt lat="44.4585" lon="6.51577">
        <ele>2857</ele>
        <time>2021-02-21T08:27:09Z</time>
      </trkpt>
      <trkpt lat="44.4585" lon="6.51577">
        <ele>2857</ele>
        <time>2021-02-21T08:27:10Z</time>
      </trkpt>
      <trkpt lat="44.4585" lon="6.51577">
        <ele>2857</ele>
        <time>2021-02-21T08:27:11Z</time>
      </trkpt>
      <trkpt lat="44.4585" lon="6.51577">
        <ele>2858</ele>
        <time>2021-02-21T08:27:12Z</time>
      </trkpt>
      <trkpt lat="44.4585" lon="6.51577">
        <ele>2858</ele>
        <time>2021-02-21T08:27:13Z</time>
      </trkpt>
      <trkpt lat="44.4585" lon="6.51577">
        <ele>2858</ele>
        <time>2021-02-21T08:27:14Z</time>
      </trkpt>
      <trkpt lat="44.4585" lon="6.51577">
        <ele>2858</ele>
        <time>2021-02-21T08:27:15Z</time>
      </trkpt>
      <trkpt lat="44.4585" lon="6.51577">
        <ele>2858</ele>
        <time>2021-02-21T08:27:16Z</time>
      </trkpt>
      <trkpt lat="44.4585" lon="6.51577">
        <ele>2858</ele>
        <time>2021-02-21T08:27:17Z</time>
      </trkpt>
      <trkpt lat="44.4585" lon="6.51577">
        <ele>2858</ele>
        <time>2021-02-21T08:27:18Z</time>
      </trkpt>
      <trkpt lat="44.4585" lon="6.51577">
        <ele>2858</ele>
        <time>2021-02-21T08:27:19Z</time>
      </trkpt>
      <trkpt lat="44.4585" lon="6.51577">
        <ele>2858</ele>
        <time>2021-02-21T08:27:20Z</time>
      </trkpt>
      <trkpt lat="44.4585" lon="6.51577">
        <ele>2858</ele>
        <time>2021-02-21T08:27:21Z</time>
      </trkpt>
      <trkpt lat="44.4585" lon="6.51577">
        <ele>2858</ele>
        <time>2021-02-21T08:27:22Z</time>
      </trkpt>
      <trkpt lat="44.4585" lon="6.51577">
        <ele>2858</ele>
        <time>2021-02-21T08:27:23Z</time>
      </trkpt>
      <trkpt lat="44.4585" lon="6.51577">
        <ele>2858</ele>
        <time>2021-02-21T08:27:24Z</time>
      </trkpt>
      <trkpt lat="44.4585" lon="6.51577">
        <ele>2858</ele>
        <time>2021-02-21T08:27:25Z</time>
      </trkpt>
      <trkpt lat="44.4585" lon="6.51577">
        <ele>2858</ele>
        <time>2021-02-21T08:27:26Z</time>
      </trkpt>
      <trkpt lat="44.4585" lon="6.51577">
        <ele>2858</ele>
        <time>2021-02-21T08:27:27Z</time>
      </trkpt>
      <trkpt lat="44.4585" lon="6.51577">
        <ele>2858</ele>
        <time>2021-02-21T08:27:28Z</time>
      </trkpt>
      <trkpt lat="44.4585" lon="6.51577">
        <ele>2858</ele>
        <time>2021-02-21T08:27:29Z</time>
      </trkpt>
      <trkpt lat="44.4585" lon="6.51577">
        <ele>2858</ele>
        <time>2021-02-21T08:27:30Z</time>
      </trkpt>
      <trkpt lat="44.4585" lon="6.51577">
        <ele>2858</ele>
        <time>2021-02-21T08:27:31Z</time>
      </trkpt>
      <trkpt lat="44.4585" lon="6.51577">
        <ele>2858</ele>
        <time>2021-02-21T08:27:32Z</time>
      </trkpt>
      <trkpt lat="44.4585" lon="6.51577">
        <ele>2858</ele>
        <time>2021-02-21T08:27:33Z</time>
      </trkpt>
      <trkpt lat="44.4585" lon="6.51577">
        <ele>2858</ele>
        <time>2021-02-21T08:27:34Z</time>
      </trkpt>
      <trkpt lat="44.4585" lon="6.51577">
        <ele>2858</ele>
        <time>2021-02-21T08:27:35Z</time>
      </trkpt>
      <trkpt lat="44.4585" lon="6.51577">
        <ele>2858</ele>
        <time>2021-02-21T08:27:36Z</time>
      </trkpt>
      <trkpt lat="44.4585" lon="6.51577">
        <ele>2858</ele>
        <time>2021-02-21T08:27:37Z</time>
      </trkpt>
      <trkpt lat="44.4585" lon="6.51577">
        <ele>2858</ele>
        <time>2021-02-21T08:27:38Z</time>
      </trkpt>
      <trkpt lat="44.4585" lon="6.51577">
        <ele>2858</ele>
        <time>2021-02-21T08:27:39Z</time>
      </trkpt>
      <trkpt lat="44.4585" lon="6.51577">
        <ele>2858</ele>
        <time>2021-02-21T08:27:40Z</time>
      </trkpt>
      <trkpt lat="44.4585" lon="6.51577">
        <ele>2858</ele>
        <time>2021-02-21T08:27:41Z</time>
      </trkpt>
      <trkpt lat="44.4585" lon="6.51577">
        <ele>2858</ele>
        <time>2021-02-21T08:27:42Z</time>
      </trkpt>
      <trkpt lat="44.4585" lon="6.51577">
        <ele>2858</ele>
        <time>2021-02-21T08:27:43Z</time>
      </trkpt>
      <trkpt lat="44.4585" lon="6.51577">
        <ele>2858</ele>
        <time>2021-02-21T08:27:44Z</time>
      </trkpt>
      <trkpt lat="44.4585" lon="6.51577">
        <ele>2858</ele>
        <time>2021-02-21T08:27:45Z</time>
      </trkpt>
      <trkpt lat="44.4585" lon="6.51577">
        <ele>2858</ele>
        <time>2021-02-21T08:27:46Z</time>
      </trkpt>
      <trkpt lat="44.4585" lon="6.51577">
        <ele>2858</ele>
        <time>2021-02-21T08:27:47Z</time>
      </trkpt>
      <trkpt lat="44.4585" lon="6.51577">
        <ele>2858</ele>
        <time>2021-02-21T08:27:48Z</time>
      </trkpt>
      <trkpt lat="44.4585" lon="6.51577">
        <ele>2858</ele>
        <time>2021-02-21T08:27:49Z</time>
      </trkpt>
      <trkpt lat="44.4585" lon="6.51577">
        <ele>2858</ele>
        <time>2021-02-21T08:27:50Z</time>
      </trkpt>
      <trkpt lat="44.4585" lon="6.51577">
        <ele>2858</ele>
        <time>2021-02-21T08:27:51Z</time>
      </trkpt>
      <trkpt lat="44.4585" lon="6.51577">
        <ele>2858</ele>
        <time>2021-02-21T08:27:52Z</time>
      </trkpt>
      <trkpt lat="44.4585" lon="6.51577">
        <ele>2858</ele>
        <time>2021-02-21T08:27:53Z</time>
      </trkpt>
      <trkpt lat="44.4585" lon="6.51577">
        <ele>2858</ele>
        <time>2021-02-21T08:27:54Z</time>
      </trkpt>
      <trkpt lat="44.4585" lon="6.51577">
        <ele>2858</ele>
        <time>2021-02-21T08:27:55Z</time>
      </trkpt>
      <trkpt lat="44.4585" lon="6.51577">
        <ele>2858</ele>
        <time>2021-02-21T08:27:56Z</time>
      </trkpt>
      <trkpt lat="44.4585" lon="6.51577">
        <ele>2858</ele>
        <time>2021-02-21T08:27:57Z</time>
      </trkpt>
      <trkpt lat="44.4585" lon="6.51577">
        <ele>2858</ele>
        <time>2021-02-21T08:27:58Z</time>
      </trkpt>
      <trkpt lat="44.4585" lon="6.51577">
        <ele>2858</ele>
        <time>2021-02-21T08:27:59Z</time>
      </trkpt>
      <trkpt lat="44.4585" lon="6.51577">
        <ele>2858</ele>
        <time>2021-02-21T08:28:00Z</time>
      </trkpt>
      <trkpt lat="44.4585" lon="6.51577">
        <ele>2858</ele>
        <time>2021-02-21T08:28:01Z</time>
      </trkpt>
      <trkpt lat="44.4585" lon="6.51577">
        <ele>2858</ele>
        <time>2021-02-21T08:28:02Z</time>
      </trkpt>
      <trkpt lat="44.4585" lon="6.51577">
        <ele>2858</ele>
        <time>2021-02-21T08:28:03Z</time>
      </trkpt>
      <trkpt lat="44.4585" lon="6.51577">
        <ele>2858</ele>
        <time>2021-02-21T08:28:04Z</time>
      </trkpt>
      <trkpt lat="44.4585" lon="6.51577">
        <ele>2858</ele>
        <time>2021-02-21T08:28:05Z</time>
      </trkpt>
      <trkpt lat="44.4585" lon="6.51577">
        <ele>2858</ele>
        <time>2021-02-21T08:28:06Z</time>
      </trkpt>
      <trkpt lat="44.4585" lon="6.51577">
        <ele>2858</ele>
        <time>2021-02-21T08:28:07Z</time>
      </trkpt>
      <trkpt lat="44.4585" lon="6.51577">
        <ele>2858</ele>
        <time>2021-02-21T08:28:08Z</time>
      </trkpt>
      <trkpt lat="44.4585" lon="6.51577">
        <ele>2858</ele>
        <time>2021-02-21T08:28:09Z</time>
      </trkpt>
      <trkpt lat="44.4585" lon="6.51577">
        <ele>2858</ele>
        <time>2021-02-21T08:28:10Z</time>
      </trkpt>
      <trkpt lat="44.4585" lon="6.51577">
        <ele>2858</ele>
        <time>2021-02-21T08:28:11Z</time>
      </trkpt>
      <trkpt lat="44.4585" lon="6.51577">
        <ele>2858</ele>
        <time>2021-02-21T08:28:12Z</time>
      </trkpt>
      <trkpt lat="44.4585" lon="6.51577">
        <ele>2858</ele>
        <time>2021-02-21T08:28:13Z</time>
      </trkpt>
      <trkpt lat="44.45848" lon="6.51578">
        <ele>2858</ele>
        <time>2021-02-21T08:28:14Z</time>
      </trkpt>
      <trkpt lat="44.45848" lon="6.51576">
        <ele>2858</ele>
        <time>2021-02-21T08:28:15Z</time>
      </trkpt>
      <trkpt lat="44.45847" lon="6.51576">
        <ele>2858</ele>
        <time>2021-02-21T08:28:16Z</time>
      </trkpt>
      <trkpt lat="44.45847" lon="6.51576">
        <ele>2858</ele>
        <time>2021-02-21T08:28:17Z</time>
      </trkpt>
      <trkpt lat="44.45847" lon="6.51576">
        <ele>2858</ele>
        <time>2021-02-21T08:28:18Z</time>
      </trkpt>
      <trkpt lat="44.45847" lon="6.51576">
        <ele>2858</ele>
        <time>2021-02-21T08:28:19Z</time>
      </trkpt>
      <trkpt lat="44.45847" lon="6.51576">
        <ele>2858</ele>
        <time>2021-02-21T08:28:20Z</time>
      </trkpt>
      <trkpt lat="44.45847" lon="6.51576">
        <ele>2858</ele>
        <time>2021-02-21T08:28:21Z</time>
      </trkpt>
      <trkpt lat="44.45847" lon="6.51576">
        <ele>2858</ele>
        <time>2021-02-21T08:28:22Z</time>
      </trkpt>
      <trkpt lat="44.45847" lon="6.51576">
        <ele>2858</ele>
        <time>2021-02-21T08:28:23Z</time>
      </trkpt>
      <trkpt lat="44.45847" lon="6.51576">
        <ele>2858</ele>
        <time>2021-02-21T08:28:24Z</time>
      </trkpt>
      <trkpt lat="44.45847" lon="6.51576">
        <ele>2858</ele>
        <time>2021-02-21T08:28:25Z</time>
      </trkpt>
      <trkpt lat="44.45847" lon="6.51576">
        <ele>2858</ele>
        <time>2021-02-21T08:28:26Z</time>
      </trkpt>
      <trkpt lat="44.45847" lon="6.51576">
        <ele>2858</ele>
        <time>2021-02-21T08:28:27Z</time>
      </trkpt>
      <trkpt lat="44.45847" lon="6.51576">
        <ele>2858</ele>
        <time>2021-02-21T08:28:28Z</time>
      </trkpt>
      <trkpt lat="44.45847" lon="6.51576">
        <ele>2858</ele>
        <time>2021-02-21T08:28:29Z</time>
      </trkpt>
      <trkpt lat="44.45847" lon="6.51576">
        <ele>2858</ele>
        <time>2021-02-21T08:28:30Z</time>
      </trkpt>
      <trkpt lat="44.45847" lon="6.51576">
        <ele>2858</ele>
        <time>2021-02-21T08:28:31Z</time>
      </trkpt>
      <trkpt lat="44.45847" lon="6.51576">
        <ele>2858</ele>
        <time>2021-02-21T08:28:32Z</time>
      </trkpt>
      <trkpt lat="44.45847" lon="6.51576">
        <ele>2858</ele>
        <time>2021-02-21T08:28:33Z</time>
      </trkpt>
      <trkpt lat="44.45847" lon="6.51576">
        <ele>2858</ele>
        <time>2021-02-21T08:28:34Z</time>
      </trkpt>
      <trkpt lat="44.45847" lon="6.51576">
        <ele>2858</ele>
        <time>2021-02-21T08:28:35Z</time>
      </trkpt>
      <trkpt lat="44.45847" lon="6.51576">
        <ele>2858</ele>
        <time>2021-02-21T08:28:36Z</time>
      </trkpt>
      <trkpt lat="44.45847" lon="6.51576">
        <ele>2858</ele>
        <time>2021-02-21T08:28:37Z</time>
      </trkpt>
      <trkpt lat="44.45847" lon="6.51576">
        <ele>2858</ele>
        <time>2021-02-21T08:28:38Z</time>
      </trkpt>
      <trkpt lat="44.45847" lon="6.51576">
        <ele>2858</ele>
        <time>2021-02-21T08:28:39Z</time>
      </trkpt>
      <trkpt lat="44.45847" lon="6.51576">
        <ele>2858</ele>
        <time>2021-02-21T08:28:40Z</time>
      </trkpt>
      <trkpt lat="44.45847" lon="6.51576">
        <ele>2858</ele>
        <time>2021-02-21T08:28:41Z</time>
      </trkpt>
      <trkpt lat="44.45847" lon="6.51576">
        <ele>2858</ele>
        <time>2021-02-21T08:28:42Z</time>
      </trkpt>
      <trkpt lat="44.45847" lon="6.51576">
        <ele>2858</ele>
        <time>2021-02-21T08:28:43Z</time>
      </trkpt>
      <trkpt lat="44.45847" lon="6.51576">
        <ele>2858</ele>
        <time>2021-02-21T08:28:44Z</time>
      </trkpt>
      <trkpt lat="44.45847" lon="6.51576">
        <ele>2858</ele>
        <time>2021-02-21T08:28:45Z</time>
      </trkpt>
      <trkpt lat="44.45847" lon="6.51576">
        <ele>2858</ele>
        <time>2021-02-21T08:28:46Z</time>
      </trkpt>
      <trkpt lat="44.45847" lon="6.51576">
        <ele>2858</ele>
        <time>2021-02-21T08:28:47Z</time>
      </trkpt>
      <trkpt lat="44.45847" lon="6.51576">
        <ele>2858</ele>
        <time>2021-02-21T08:28:48Z</time>
      </trkpt>
      <trkpt lat="44.45847" lon="6.51576">
        <ele>2858</ele>
        <time>2021-02-21T08:28:49Z</time>
      </trkpt>
      <trkpt lat="44.45847" lon="6.51576">
        <ele>2858</ele>
        <time>2021-02-21T08:28:50Z</time>
      </trkpt>
      <trkpt lat="44.45847" lon="6.51576">
        <ele>2858</ele>
        <time>2021-02-21T08:28:51Z</time>
      </trkpt>
      <trkpt lat="44.45847" lon="6.51576">
        <ele>2858</ele>
        <time>2021-02-21T08:28:52Z</time>
      </trkpt>
      <trkpt lat="44.45847" lon="6.51576">
        <ele>2858</ele>
        <time>2021-02-21T08:28:53Z</time>
      </trkpt>
      <trkpt lat="44.45847" lon="6.51576">
        <ele>2858</ele>
        <time>2021-02-21T08:28:54Z</time>
      </trkpt>
      <trkpt lat="44.45847" lon="6.51576">
        <ele>2858</ele>
        <time>2021-02-21T08:28:55Z</time>
      </trkpt>
      <trkpt lat="44.45847" lon="6.51576">
        <ele>2858</ele>
        <time>2021-02-21T08:28:56Z</time>
      </trkpt>
      <trkpt lat="44.45847" lon="6.51576">
        <ele>2858</ele>
        <time>2021-02-21T08:28:57Z</time>
      </trkpt>
      <trkpt lat="44.45847" lon="6.51576">
        <ele>2858</ele>
        <time>2021-02-21T08:28:58Z</time>
      </trkpt>
      <trkpt lat="44.45847" lon="6.51576">
        <ele>2858</ele>
        <time>2021-02-21T08:28:59Z</time>
      </trkpt>
      <trkpt lat="44.45847" lon="6.51576">
        <ele>2858</ele>
        <time>2021-02-21T08:29:00Z</time>
      </trkpt>
      <trkpt lat="44.45847" lon="6.51576">
        <ele>2858</ele>
        <time>2021-02-21T08:29:01Z</time>
      </trkpt>
      <trkpt lat="44.45847" lon="6.51576">
        <ele>2858</ele>
        <time>2021-02-21T08:29:02Z</time>
      </trkpt>
      <trkpt lat="44.45847" lon="6.51576">
        <ele>2858</ele>
        <time>2021-02-21T08:29:03Z</time>
      </trkpt>
      <trkpt lat="44.45847" lon="6.51576">
        <ele>2858</ele>
        <time>2021-02-21T08:29:04Z</time>
      </trkpt>
      <trkpt lat="44.45847" lon="6.51576">
        <ele>2858</ele>
        <time>2021-02-21T08:29:05Z</time>
      </trkpt>
      <trkpt lat="44.45847" lon="6.51576">
        <ele>2858</ele>
        <time>2021-02-21T08:29:06Z</time>
      </trkpt>
      <trkpt lat="44.45847" lon="6.51576">
        <ele>2858</ele>
        <time>2021-02-21T08:29:07Z</time>
      </trkpt>
      <trkpt lat="44.45847" lon="6.51576">
        <ele>2858</ele>
        <time>2021-02-21T08:29:08Z</time>
      </trkpt>
      <trkpt lat="44.45847" lon="6.51576">
        <ele>2858</ele>
        <time>2021-02-21T08:29:09Z</time>
      </trkpt>
      <trkpt lat="44.45847" lon="6.51576">
        <ele>2858</ele>
        <time>2021-02-21T08:29:10Z</time>
      </trkpt>
      <trkpt lat="44.45847" lon="6.51576">
        <ele>2858</ele>
        <time>2021-02-21T08:29:11Z</time>
      </trkpt>
      <trkpt lat="44.45847" lon="6.51576">
        <ele>2858</ele>
        <time>2021-02-21T08:29:12Z</time>
      </trkpt>
      <trkpt lat="44.45847" lon="6.51576">
        <ele>2858</ele>
        <time>2021-02-21T08:29:13Z</time>
      </trkpt>
      <trkpt lat="44.45847" lon="6.51576">
        <ele>2858</ele>
        <time>2021-02-21T08:29:14Z</time>
      </trkpt>
      <trkpt lat="44.45847" lon="6.51576">
        <ele>2858</ele>
        <time>2021-02-21T08:29:15Z</time>
      </trkpt>
      <trkpt lat="44.45847" lon="6.51576">
        <ele>2858</ele>
        <time>2021-02-21T08:29:16Z</time>
      </trkpt>
      <trkpt lat="44.45847" lon="6.51576">
        <ele>2858</ele>
        <time>2021-02-21T08:29:17Z</time>
      </trkpt>
      <trkpt lat="44.45847" lon="6.51576">
        <ele>2858</ele>
        <time>2021-02-21T08:29:18Z</time>
      </trkpt>
      <trkpt lat="44.45847" lon="6.51576">
        <ele>2858</ele>
        <time>2021-02-21T08:29:19Z</time>
      </trkpt>
      <trkpt lat="44.45847" lon="6.51576">
        <ele>2858</ele>
        <time>2021-02-21T08:29:20Z</time>
      </trkpt>
      <trkpt lat="44.45847" lon="6.51576">
        <ele>2858</ele>
        <time>2021-02-21T08:29:21Z</time>
      </trkpt>
      <trkpt lat="44.45847" lon="6.51576">
        <ele>2858</ele>
        <time>2021-02-21T08:29:22Z</time>
      </trkpt>
      <trkpt lat="44.45847" lon="6.51576">
        <ele>2858</ele>
        <time>2021-02-21T08:29:23Z</time>
      </trkpt>
      <trkpt lat="44.45847" lon="6.51576">
        <ele>2858</ele>
        <time>2021-02-21T08:29:24Z</time>
      </trkpt>
      <trkpt lat="44.45847" lon="6.51576">
        <ele>2858</ele>
        <time>2021-02-21T08:29:25Z</time>
      </trkpt>
      <trkpt lat="44.45847" lon="6.51576">
        <ele>2858</ele>
        <time>2021-02-21T08:29:26Z</time>
      </trkpt>
      <trkpt lat="44.45847" lon="6.51576">
        <ele>2858</ele>
        <time>2021-02-21T08:29:27Z</time>
      </trkpt>
      <trkpt lat="44.45847" lon="6.51576">
        <ele>2858</ele>
        <time>2021-02-21T08:29:28Z</time>
      </trkpt>
      <trkpt lat="44.45847" lon="6.51576">
        <ele>2858</ele>
        <time>2021-02-21T08:29:29Z</time>
      </trkpt>
      <trkpt lat="44.45847" lon="6.51576">
        <ele>2858</ele>
        <time>2021-02-21T08:29:30Z</time>
      </trkpt>
      <trkpt lat="44.45847" lon="6.51576">
        <ele>2858</ele>
        <time>2021-02-21T08:29:31Z</time>
      </trkpt>
      <trkpt lat="44.45847" lon="6.51576">
        <ele>2858</ele>
        <time>2021-02-21T08:29:32Z</time>
      </trkpt>
      <trkpt lat="44.45847" lon="6.51576">
        <ele>2858</ele>
        <time>2021-02-21T08:29:33Z</time>
      </trkpt>
      <trkpt lat="44.45847" lon="6.51576">
        <ele>2858</ele>
        <time>2021-02-21T08:29:34Z</time>
      </trkpt>
      <trkpt lat="44.45847" lon="6.51576">
        <ele>2858</ele>
        <time>2021-02-21T08:29:35Z</time>
      </trkpt>
      <trkpt lat="44.45847" lon="6.51576">
        <ele>2858</ele>
        <time>2021-02-21T08:29:36Z</time>
      </trkpt>
      <trkpt lat="44.45847" lon="6.51576">
        <ele>2858</ele>
        <time>2021-02-21T08:29:37Z</time>
      </trkpt>
      <trkpt lat="44.45847" lon="6.51576">
        <ele>2858</ele>
        <time>2021-02-21T08:29:38Z</time>
      </trkpt>
      <trkpt lat="44.45847" lon="6.51576">
        <ele>2858</ele>
        <time>2021-02-21T08:29:39Z</time>
      </trkpt>
      <trkpt lat="44.45847" lon="6.51576">
        <ele>2858</ele>
        <time>2021-02-21T08:29:40Z</time>
      </trkpt>
      <trkpt lat="44.45847" lon="6.51576">
        <ele>2858</ele>
        <time>2021-02-21T08:29:41Z</time>
      </trkpt>
      <trkpt lat="44.45847" lon="6.51576">
        <ele>2858</ele>
        <time>2021-02-21T08:29:42Z</time>
      </trkpt>
      <trkpt lat="44.45847" lon="6.51576">
        <ele>2858</ele>
        <time>2021-02-21T08:29:43Z</time>
      </trkpt>
      <trkpt lat="44.45847" lon="6.51576">
        <ele>2858</ele>
        <time>2021-02-21T08:29:44Z</time>
      </trkpt>
      <trkpt lat="44.45847" lon="6.51576">
        <ele>2858</ele>
        <time>2021-02-21T08:29:45Z</time>
      </trkpt>
      <trkpt lat="44.45847" lon="6.51576">
        <ele>2858</ele>
        <time>2021-02-21T08:29:46Z</time>
      </trkpt>
      <trkpt lat="44.45847" lon="6.51576">
        <ele>2858</ele>
        <time>2021-02-21T08:29:47Z</time>
      </trkpt>
      <trkpt lat="44.45847" lon="6.51576">
        <ele>2858</ele>
        <time>2021-02-21T08:29:48Z</time>
      </trkpt>
      <trkpt lat="44.45847" lon="6.51576">
        <ele>2858</ele>
        <time>2021-02-21T08:29:49Z</time>
      </trkpt>
      <trkpt lat="44.45847" lon="6.51576">
        <ele>2858</ele>
        <time>2021-02-21T08:29:50Z</time>
      </trkpt>
      <trkpt lat="44.45847" lon="6.51576">
        <ele>2858</ele>
        <time>2021-02-21T08:29:51Z</time>
      </trkpt>
      <trkpt lat="44.45847" lon="6.51576">
        <ele>2858</ele>
        <time>2021-02-21T08:29:52Z</time>
      </trkpt>
      <trkpt lat="44.45847" lon="6.51576">
        <ele>2858</ele>
        <time>2021-02-21T08:29:53Z</time>
      </trkpt>
      <trkpt lat="44.45847" lon="6.51576">
        <ele>2858</ele>
        <time>2021-02-21T08:29:54Z</time>
      </trkpt>
      <trkpt lat="44.45847" lon="6.51576">
        <ele>2858</ele>
        <time>2021-02-21T08:29:55Z</time>
      </trkpt>
      <trkpt lat="44.45847" lon="6.51576">
        <ele>2858</ele>
        <time>2021-02-21T08:29:56Z</time>
      </trkpt>
      <trkpt lat="44.45847" lon="6.51576">
        <ele>2858</ele>
        <time>2021-02-21T08:29:57Z</time>
      </trkpt>
      <trkpt lat="44.45847" lon="6.51576">
        <ele>2858</ele>
        <time>2021-02-21T08:29:58Z</time>
      </trkpt>
      <trkpt lat="44.45847" lon="6.51576">
        <ele>2858</ele>
        <time>2021-02-21T08:29:59Z</time>
      </trkpt>
      <trkpt lat="44.45847" lon="6.51576">
        <ele>2858</ele>
        <time>2021-02-21T08:30:00Z</time>
      </trkpt>
      <trkpt lat="44.45847" lon="6.51576">
        <ele>2858</ele>
        <time>2021-02-21T08:30:01Z</time>
      </trkpt>
      <trkpt lat="44.45847" lon="6.51576">
        <ele>2858</ele>
        <time>2021-02-21T08:30:02Z</time>
      </trkpt>
      <trkpt lat="44.45847" lon="6.51576">
        <ele>2858</ele>
        <time>2021-02-21T08:30:03Z</time>
      </trkpt>
      <trkpt lat="44.45847" lon="6.51576">
        <ele>2858</ele>
        <time>2021-02-21T08:30:04Z</time>
      </trkpt>
      <trkpt lat="44.45847" lon="6.51576">
        <ele>2858</ele>
        <time>2021-02-21T08:30:05Z</time>
      </trkpt>
      <trkpt lat="44.45847" lon="6.51576">
        <ele>2858</ele>
        <time>2021-02-21T08:30:06Z</time>
      </trkpt>
      <trkpt lat="44.45847" lon="6.51576">
        <ele>2858</ele>
        <time>2021-02-21T08:30:07Z</time>
      </trkpt>
      <trkpt lat="44.45847" lon="6.51576">
        <ele>2858</ele>
        <time>2021-02-21T08:30:08Z</time>
      </trkpt>
      <trkpt lat="44.45847" lon="6.51576">
        <ele>2858</ele>
        <time>2021-02-21T08:30:09Z</time>
      </trkpt>
      <trkpt lat="44.45847" lon="6.51576">
        <ele>2858</ele>
        <time>2021-02-21T08:30:10Z</time>
      </trkpt>
      <trkpt lat="44.45847" lon="6.51576">
        <ele>2858</ele>
        <time>2021-02-21T08:30:11Z</time>
      </trkpt>
      <trkpt lat="44.45847" lon="6.51576">
        <ele>2858</ele>
        <time>2021-02-21T08:30:12Z</time>
      </trkpt>
      <trkpt lat="44.45847" lon="6.51576">
        <ele>2858</ele>
        <time>2021-02-21T08:30:13Z</time>
      </trkpt>
      <trkpt lat="44.45847" lon="6.51576">
        <ele>2858</ele>
        <time>2021-02-21T08:30:14Z</time>
      </trkpt>
      <trkpt lat="44.45847" lon="6.51576">
        <ele>2858</ele>
        <time>2021-02-21T08:30:15Z</time>
      </trkpt>
      <trkpt lat="44.45847" lon="6.51576">
        <ele>2858</ele>
        <time>2021-02-21T08:30:16Z</time>
      </trkpt>
      <trkpt lat="44.45847" lon="6.51576">
        <ele>2858</ele>
        <time>2021-02-21T08:30:17Z</time>
      </trkpt>
      <trkpt lat="44.45847" lon="6.51576">
        <ele>2858</ele>
        <time>2021-02-21T08:30:18Z</time>
      </trkpt>
      <trkpt lat="44.45847" lon="6.51576">
        <ele>2858</ele>
        <time>2021-02-21T08:30:19Z</time>
      </trkpt>
      <trkpt lat="44.45847" lon="6.51576">
        <ele>2858</ele>
        <time>2021-02-21T08:30:20Z</time>
      </trkpt>
      <trkpt lat="44.45847" lon="6.51576">
        <ele>2858</ele>
        <time>2021-02-21T08:30:21Z</time>
      </trkpt>
      <trkpt lat="44.45847" lon="6.51576">
        <ele>2858</ele>
        <time>2021-02-21T08:30:22Z</time>
      </trkpt>
      <trkpt lat="44.45847" lon="6.51576">
        <ele>2858</ele>
        <time>2021-02-21T08:30:23Z</time>
      </trkpt>
      <trkpt lat="44.45847" lon="6.51576">
        <ele>2858</ele>
        <time>2021-02-21T08:30:24Z</time>
      </trkpt>
      <trkpt lat="44.45847" lon="6.51576">
        <ele>2858</ele>
        <time>2021-02-21T08:30:25Z</time>
      </trkpt>
      <trkpt lat="44.45847" lon="6.51576">
        <ele>2858</ele>
        <time>2021-02-21T08:30:26Z</time>
      </trkpt>
      <trkpt lat="44.45847" lon="6.51576">
        <ele>2858</ele>
        <time>2021-02-21T08:30:27Z</time>
      </trkpt>
      <trkpt lat="44.45847" lon="6.51576">
        <ele>2858</ele>
        <time>2021-02-21T08:30:28Z</time>
      </trkpt>
      <trkpt lat="44.45847" lon="6.51576">
        <ele>2858</ele>
        <time>2021-02-21T08:30:29Z</time>
      </trkpt>
      <trkpt lat="44.45847" lon="6.51576">
        <ele>2858</ele>
        <time>2021-02-21T08:30:30Z</time>
      </trkpt>
      <trkpt lat="44.45847" lon="6.51576">
        <ele>2858</ele>
        <time>2021-02-21T08:30:31Z</time>
      </trkpt>
      <trkpt lat="44.45847" lon="6.51576">
        <ele>2858</ele>
        <time>2021-02-21T08:30:32Z</time>
      </trkpt>
      <trkpt lat="44.45847" lon="6.51576">
        <ele>2858</ele>
        <time>2021-02-21T08:30:33Z</time>
      </trkpt>
      <trkpt lat="44.45847" lon="6.51576">
        <ele>2858</ele>
        <time>2021-02-21T08:30:34Z</time>
      </trkpt>
      <trkpt lat="44.45849" lon="6.51578">
        <ele>2857</ele>
        <time>2021-02-21T08:30:35Z</time>
      </trkpt>
      <trkpt lat="44.45849" lon="6.51577">
        <ele>2857</ele>
        <time>2021-02-21T08:30:36Z</time>
      </trkpt>
      <trkpt lat="44.45849" lon="6.51577">
        <ele>2857</ele>
        <time>2021-02-21T08:30:37Z</time>
      </trkpt>
      <trkpt lat="44.45849" lon="6.51577">
        <ele>2857</ele>
        <time>2021-02-21T08:30:38Z</time>
      </trkpt>
      <trkpt lat="44.45849" lon="6.51577">
        <ele>2857</ele>
        <time>2021-02-21T08:30:39Z</time>
      </trkpt>
      <trkpt lat="44.45849" lon="6.51577">
        <ele>2857</ele>
        <time>2021-02-21T08:30:40Z</time>
      </trkpt>
      <trkpt lat="44.45849" lon="6.51577">
        <ele>2857</ele>
        <time>2021-02-21T08:30:41Z</time>
      </trkpt>
      <trkpt lat="44.45849" lon="6.51577">
        <ele>2856</ele>
        <time>2021-02-21T08:30:42Z</time>
      </trkpt>
      <trkpt lat="44.45849" lon="6.51577">
        <ele>2856</ele>
        <time>2021-02-21T08:30:43Z</time>
      </trkpt>
      <trkpt lat="44.45849" lon="6.51577">
        <ele>2856</ele>
        <time>2021-02-21T08:30:44Z</time>
      </trkpt>
      <trkpt lat="44.45849" lon="6.51577">
        <ele>2856</ele>
        <time>2021-02-21T08:30:45Z</time>
      </trkpt>
      <trkpt lat="44.45849" lon="6.51577">
        <ele>2856</ele>
        <time>2021-02-21T08:30:46Z</time>
      </trkpt>
      <trkpt lat="44.45849" lon="6.51577">
        <ele>2856</ele>
        <time>2021-02-21T08:30:47Z</time>
      </trkpt>
      <trkpt lat="44.45849" lon="6.51577">
        <ele>2856</ele>
        <time>2021-02-21T08:30:48Z</time>
      </trkpt>
      <trkpt lat="44.45849" lon="6.51577">
        <ele>2856</ele>
        <time>2021-02-21T08:30:49Z</time>
      </trkpt>
      <trkpt lat="44.45849" lon="6.51577">
        <ele>2856</ele>
        <time>2021-02-21T08:30:50Z</time>
      </trkpt>
      <trkpt lat="44.45849" lon="6.51577">
        <ele>2856</ele>
        <time>2021-02-21T08:30:51Z</time>
      </trkpt>
      <trkpt lat="44.45849" lon="6.51577">
        <ele>2856</ele>
        <time>2021-02-21T08:30:52Z</time>
      </trkpt>
      <trkpt lat="44.45849" lon="6.51577">
        <ele>2856</ele>
        <time>2021-02-21T08:30:53Z</time>
      </trkpt>
      <trkpt lat="44.45849" lon="6.51577">
        <ele>2856</ele>
        <time>2021-02-21T08:30:54Z</time>
      </trkpt>
      <trkpt lat="44.45849" lon="6.51577">
        <ele>2856</ele>
        <time>2021-02-21T08:30:55Z</time>
      </trkpt>
      <trkpt lat="44.45849" lon="6.51577">
        <ele>2856</ele>
        <time>2021-02-21T08:30:56Z</time>
      </trkpt>
      <trkpt lat="44.45849" lon="6.51577">
        <ele>2856</ele>
        <time>2021-02-21T08:30:57Z</time>
      </trkpt>
      <trkpt lat="44.45849" lon="6.51577">
        <ele>2856</ele>
        <time>2021-02-21T08:30:58Z</time>
      </trkpt>
      <trkpt lat="44.45849" lon="6.51577">
        <ele>2856</ele>
        <time>2021-02-21T08:30:59Z</time>
      </trkpt>
      <trkpt lat="44.45849" lon="6.51577">
        <ele>2856</ele>
        <time>2021-02-21T08:31:00Z</time>
      </trkpt>
      <trkpt lat="44.45849" lon="6.51577">
        <ele>2856</ele>
        <time>2021-02-21T08:31:01Z</time>
      </trkpt>
      <trkpt lat="44.45849" lon="6.51577">
        <ele>2856</ele>
        <time>2021-02-21T08:31:02Z</time>
      </trkpt>
      <trkpt lat="44.45849" lon="6.51577">
        <ele>2856</ele>
        <time>2021-02-21T08:31:03Z</time>
      </trkpt>
      <trkpt lat="44.45849" lon="6.51577">
        <ele>2856</ele>
        <time>2021-02-21T08:31:04Z</time>
      </trkpt>
      <trkpt lat="44.45849" lon="6.51577">
        <ele>2856</ele>
        <time>2021-02-21T08:31:05Z</time>
      </trkpt>
      <trkpt lat="44.45849" lon="6.51577">
        <ele>2856</ele>
        <time>2021-02-21T08:31:06Z</time>
      </trkpt>
      <trkpt lat="44.45849" lon="6.51577">
        <ele>2856</ele>
        <time>2021-02-21T08:31:07Z</time>
      </trkpt>
      <trkpt lat="44.45849" lon="6.51577">
        <ele>2856</ele>
        <time>2021-02-21T08:31:08Z</time>
      </trkpt>
      <trkpt lat="44.45849" lon="6.51577">
        <ele>2856</ele>
        <time>2021-02-21T08:31:09Z</time>
      </trkpt>
      <trkpt lat="44.45849" lon="6.51577">
        <ele>2856</ele>
        <time>2021-02-21T08:31:10Z</time>
      </trkpt>
      <trkpt lat="44.45849" lon="6.51577">
        <ele>2856</ele>
        <time>2021-02-21T08:31:11Z</time>
      </trkpt>
      <trkpt lat="44.45849" lon="6.51577">
        <ele>2856</ele>
        <time>2021-02-21T08:31:12Z</time>
      </trkpt>
      <trkpt lat="44.45849" lon="6.51577">
        <ele>2856</ele>
        <time>2021-02-21T08:31:13Z</time>
      </trkpt>
      <trkpt lat="44.45849" lon="6.51577">
        <ele>2856</ele>
        <time>2021-02-21T08:31:14Z</time>
      </trkpt>
      <trkpt lat="44.45849" lon="6.51577">
        <ele>2856</ele>
        <time>2021-02-21T08:31:15Z</time>
      </trkpt>
      <trkpt lat="44.45849" lon="6.51577">
        <ele>2856</ele>
        <time>2021-02-21T08:31:16Z</time>
      </trkpt>
      <trkpt lat="44.45849" lon="6.51577">
        <ele>2856</ele>
        <time>2021-02-21T08:31:17Z</time>
      </trkpt>
      <trkpt lat="44.45849" lon="6.51577">
        <ele>2856</ele>
        <time>2021-02-21T08:31:18Z</time>
      </trkpt>
      <trkpt lat="44.45849" lon="6.51577">
        <ele>2856</ele>
        <time>2021-02-21T08:31:19Z</time>
      </trkpt>
      <trkpt lat="44.45849" lon="6.51577">
        <ele>2856</ele>
        <time>2021-02-21T08:31:20Z</time>
      </trkpt>
      <trkpt lat="44.45849" lon="6.51577">
        <ele>2856</ele>
        <time>2021-02-21T08:31:21Z</time>
      </trkpt>
      <trkpt lat="44.45849" lon="6.51577">
        <ele>2856</ele>
        <time>2021-02-21T08:31:22Z</time>
      </trkpt>
      <trkpt lat="44.45849" lon="6.51577">
        <ele>2856</ele>
        <time>2021-02-21T08:31:23Z</time>
      </trkpt>
      <trkpt lat="44.45849" lon="6.51577">
        <ele>2856</ele>
        <time>2021-02-21T08:31:24Z</time>
      </trkpt>
      <trkpt lat="44.45849" lon="6.51577">
        <ele>2856</ele>
        <time>2021-02-21T08:31:25Z</time>
      </trkpt>
      <trkpt lat="44.45849" lon="6.51577">
        <ele>2856</ele>
        <time>2021-02-21T08:31:26Z</time>
      </trkpt>
      <trkpt lat="44.45849" lon="6.51577">
        <ele>2856</ele>
        <time>2021-02-21T08:31:27Z</time>
      </trkpt>
      <trkpt lat="44.45849" lon="6.51577">
        <ele>2856</ele>
        <time>2021-02-21T08:31:28Z</time>
      </trkpt>
      <trkpt lat="44.45849" lon="6.51577">
        <ele>2856</ele>
        <time>2021-02-21T08:31:29Z</time>
      </trkpt>
      <trkpt lat="44.45849" lon="6.51577">
        <ele>2856</ele>
        <time>2021-02-21T08:31:30Z</time>
      </trkpt>
      <trkpt lat="44.45849" lon="6.51577">
        <ele>2856</ele>
        <time>2021-02-21T08:31:31Z</time>
      </trkpt>
      <trkpt lat="44.45849" lon="6.51577">
        <ele>2856</ele>
        <time>2021-02-21T08:31:32Z</time>
      </trkpt>
      <trkpt lat="44.45849" lon="6.51577">
        <ele>2856</ele>
        <time>2021-02-21T08:31:33Z</time>
      </trkpt>
      <trkpt lat="44.45849" lon="6.51577">
        <ele>2856</ele>
        <time>2021-02-21T08:31:34Z</time>
      </trkpt>
      <trkpt lat="44.45849" lon="6.51577">
        <ele>2856</ele>
        <time>2021-02-21T08:31:35Z</time>
      </trkpt>
      <trkpt lat="44.45849" lon="6.51577">
        <ele>2856</ele>
        <time>2021-02-21T08:31:36Z</time>
      </trkpt>
      <trkpt lat="44.45849" lon="6.51577">
        <ele>2856</ele>
        <time>2021-02-21T08:31:37Z</time>
      </trkpt>
      <trkpt lat="44.45849" lon="6.51577">
        <ele>2856</ele>
        <time>2021-02-21T08:31:38Z</time>
      </trkpt>
      <trkpt lat="44.45849" lon="6.51577">
        <ele>2856</ele>
        <time>2021-02-21T08:31:39Z</time>
      </trkpt>
      <trkpt lat="44.45849" lon="6.51577">
        <ele>2856</ele>
        <time>2021-02-21T08:31:40Z</time>
      </trkpt>
      <trkpt lat="44.45849" lon="6.51577">
        <ele>2856</ele>
        <time>2021-02-21T08:31:41Z</time>
      </trkpt>
      <trkpt lat="44.45849" lon="6.51577">
        <ele>2856</ele>
        <time>2021-02-21T08:31:42Z</time>
      </trkpt>
      <trkpt lat="44.45849" lon="6.51577">
        <ele>2856</ele>
        <time>2021-02-21T08:31:43Z</time>
      </trkpt>
      <trkpt lat="44.45849" lon="6.51577">
        <ele>2856</ele>
        <time>2021-02-21T08:31:44Z</time>
      </trkpt>
      <trkpt lat="44.45849" lon="6.51577">
        <ele>2856</ele>
        <time>2021-02-21T08:31:45Z</time>
      </trkpt>
      <trkpt lat="44.45849" lon="6.51577">
        <ele>2856</ele>
        <time>2021-02-21T08:31:46Z</time>
      </trkpt>
      <trkpt lat="44.45849" lon="6.51577">
        <ele>2856</ele>
        <time>2021-02-21T08:31:47Z</time>
      </trkpt>
      <trkpt lat="44.45849" lon="6.51577">
        <ele>2856</ele>
        <time>2021-02-21T08:31:48Z</time>
      </trkpt>
      <trkpt lat="44.45849" lon="6.51577">
        <ele>2856</ele>
        <time>2021-02-21T08:31:49Z</time>
      </trkpt>
      <trkpt lat="44.45849" lon="6.51577">
        <ele>2856</ele>
        <time>2021-02-21T08:31:50Z</time>
      </trkpt>
      <trkpt lat="44.45849" lon="6.51577">
        <ele>2856</ele>
        <time>2021-02-21T08:31:51Z</time>
      </trkpt>
      <trkpt lat="44.45849" lon="6.51577">
        <ele>2856</ele>
        <time>2021-02-21T08:31:52Z</time>
      </trkpt>
      <trkpt lat="44.45849" lon="6.51577">
        <ele>2856</ele>
        <time>2021-02-21T08:31:53Z</time>
      </trkpt>
      <trkpt lat="44.45849" lon="6.51577">
        <ele>2856</ele>
        <time>2021-02-21T08:31:54Z</time>
      </trkpt>
      <trkpt lat="44.45849" lon="6.5158">
        <ele>2856</ele>
        <time>2021-02-21T08:31:55Z</time>
      </trkpt>
      <trkpt lat="44.45849" lon="6.5158">
        <ele>2856</ele>
        <time>2021-02-21T08:31:56Z</time>
      </trkpt>
      <trkpt lat="44.45848" lon="6.5158">
        <ele>2856</ele>
        <time>2021-02-21T08:31:57Z</time>
      </trkpt>
      <trkpt lat="44.45848" lon="6.5158">
        <ele>2856</ele>
        <time>2021-02-21T08:31:58Z</time>
      </trkpt>
      <trkpt lat="44.45848" lon="6.5158">
        <ele>2856</ele>
        <time>2021-02-21T08:31:59Z</time>
      </trkpt>
      <trkpt lat="44.45848" lon="6.5158">
        <ele>2856</ele>
        <time>2021-02-21T08:32:00Z</time>
      </trkpt>
      <trkpt lat="44.45848" lon="6.5158">
        <ele>2856</ele>
        <time>2021-02-21T08:32:01Z</time>
      </trkpt>
      <trkpt lat="44.45848" lon="6.5158">
        <ele>2856</ele>
        <time>2021-02-21T08:32:02Z</time>
      </trkpt>
      <trkpt lat="44.45848" lon="6.5158">
        <ele>2856</ele>
        <time>2021-02-21T08:32:03Z</time>
      </trkpt>
      <trkpt lat="44.45848" lon="6.5158">
        <ele>2856</ele>
        <time>2021-02-21T08:32:04Z</time>
      </trkpt>
      <trkpt lat="44.45848" lon="6.5158">
        <ele>2856</ele>
        <time>2021-02-21T08:32:05Z</time>
      </trkpt>
      <trkpt lat="44.45848" lon="6.5158">
        <ele>2857</ele>
        <time>2021-02-21T08:32:06Z</time>
      </trkpt>
      <trkpt lat="44.45848" lon="6.5158">
        <ele>2857</ele>
        <time>2021-02-21T08:32:07Z</time>
      </trkpt>
      <trkpt lat="44.45848" lon="6.5158">
        <ele>2857</ele>
        <time>2021-02-21T08:32:08Z</time>
      </trkpt>
      <trkpt lat="44.45848" lon="6.5158">
        <ele>2857</ele>
        <time>2021-02-21T08:32:09Z</time>
      </trkpt>
      <trkpt lat="44.45848" lon="6.5158">
        <ele>2857</ele>
        <time>2021-02-21T08:32:10Z</time>
      </trkpt>
      <trkpt lat="44.45848" lon="6.5158">
        <ele>2857</ele>
        <time>2021-02-21T08:32:11Z</time>
      </trkpt>
      <trkpt lat="44.45848" lon="6.5158">
        <ele>2857</ele>
        <time>2021-02-21T08:32:12Z</time>
      </trkpt>
      <trkpt lat="44.45848" lon="6.5158">
        <ele>2857</ele>
        <time>2021-02-21T08:32:13Z</time>
      </trkpt>
      <trkpt lat="44.45848" lon="6.5158">
        <ele>2857</ele>
        <time>2021-02-21T08:32:14Z</time>
      </trkpt>
      <trkpt lat="44.45848" lon="6.5158">
        <ele>2857</ele>
        <time>2021-02-21T08:32:15Z</time>
      </trkpt>
      <trkpt lat="44.45848" lon="6.5158">
        <ele>2857</ele>
        <time>2021-02-21T08:32:16Z</time>
      </trkpt>
      <trkpt lat="44.45848" lon="6.5158">
        <ele>2857</ele>
        <time>2021-02-21T08:32:17Z</time>
      </trkpt>
      <trkpt lat="44.45848" lon="6.5158">
        <ele>2858</ele>
        <time>2021-02-21T08:32:18Z</time>
      </trkpt>
      <trkpt lat="44.45848" lon="6.5158">
        <ele>2858</ele>
        <time>2021-02-21T08:32:19Z</time>
      </trkpt>
      <trkpt lat="44.45848" lon="6.5158">
        <ele>2858</ele>
        <time>2021-02-21T08:32:20Z</time>
      </trkpt>
      <trkpt lat="44.45848" lon="6.5158">
        <ele>2858</ele>
        <time>2021-02-21T08:32:21Z</time>
      </trkpt>
      <trkpt lat="44.45848" lon="6.5158">
        <ele>2858</ele>
        <time>2021-02-21T08:32:22Z</time>
      </trkpt>
      <trkpt lat="44.45848" lon="6.5158">
        <ele>2858</ele>
        <time>2021-02-21T08:32:23Z</time>
      </trkpt>
      <trkpt lat="44.45848" lon="6.5158">
        <ele>2858</ele>
        <time>2021-02-21T08:32:24Z</time>
      </trkpt>
      <trkpt lat="44.45848" lon="6.5158">
        <ele>2858</ele>
        <time>2021-02-21T08:32:25Z</time>
      </trkpt>
      <trkpt lat="44.45848" lon="6.5158">
        <ele>2858</ele>
        <time>2021-02-21T08:32:26Z</time>
      </trkpt>
      <trkpt lat="44.45848" lon="6.5158">
        <ele>2858</ele>
        <time>2021-02-21T08:32:27Z</time>
      </trkpt>
      <trkpt lat="44.45848" lon="6.5158">
        <ele>2858</ele>
        <time>2021-02-21T08:32:28Z</time>
      </trkpt>
      <trkpt lat="44.45849" lon="6.51578">
        <ele>2858</ele>
        <time>2021-02-21T08:32:29Z</time>
      </trkpt>
      <trkpt lat="44.45849" lon="6.51579">
        <ele>2858</ele>
        <time>2021-02-21T08:32:30Z</time>
      </trkpt>
      <trkpt lat="44.45848" lon="6.51579">
        <ele>2858</ele>
        <time>2021-02-21T08:32:31Z</time>
      </trkpt>
      <trkpt lat="44.45848" lon="6.5158">
        <ele>2858</ele>
        <time>2021-02-21T08:32:32Z</time>
      </trkpt>
      <trkpt lat="44.45848" lon="6.5158">
        <ele>2858</ele>
        <time>2021-02-21T08:32:33Z</time>
      </trkpt>
      <trkpt lat="44.45847" lon="6.51581">
        <ele>2858</ele>
        <time>2021-02-21T08:32:34Z</time>
      </trkpt>
      <trkpt lat="44.45847" lon="6.51581">
        <ele>2858</ele>
        <time>2021-02-21T08:32:35Z</time>
      </trkpt>
      <trkpt lat="44.45848" lon="6.51581">
        <ele>2858</ele>
        <time>2021-02-21T08:32:36Z</time>
      </trkpt>
      <trkpt lat="44.45848" lon="6.51581">
        <ele>2858</ele>
        <time>2021-02-21T08:32:37Z</time>
      </trkpt>
      <trkpt lat="44.45848" lon="6.51581">
        <ele>2858</ele>
        <time>2021-02-21T08:32:38Z</time>
      </trkpt>
      <trkpt lat="44.45849" lon="6.51581">
        <ele>2858</ele>
        <time>2021-02-21T08:32:39Z</time>
      </trkpt>
      <trkpt lat="44.45849" lon="6.5158">
        <ele>2858</ele>
        <time>2021-02-21T08:32:40Z</time>
      </trkpt>
      <trkpt lat="44.45849" lon="6.5158">
        <ele>2858</ele>
        <time>2021-02-21T08:32:41Z</time>
      </trkpt>
      <trkpt lat="44.4585" lon="6.5158">
        <ele>2858</ele>
        <time>2021-02-21T08:32:42Z</time>
      </trkpt>
      <trkpt lat="44.4585" lon="6.5158">
        <ele>2858</ele>
        <time>2021-02-21T08:32:43Z</time>
      </trkpt>
      <trkpt lat="44.4585" lon="6.5158">
        <ele>2858</ele>
        <time>2021-02-21T08:32:44Z</time>
      </trkpt>
      <trkpt lat="44.4585" lon="6.5158">
        <ele>2858</ele>
        <time>2021-02-21T08:32:45Z</time>
      </trkpt>
      <trkpt lat="44.4585" lon="6.5158">
        <ele>2858</ele>
        <time>2021-02-21T08:32:46Z</time>
      </trkpt>
      <trkpt lat="44.4585" lon="6.5158">
        <ele>2858</ele>
        <time>2021-02-21T08:32:47Z</time>
      </trkpt>
      <trkpt lat="44.4585" lon="6.5158">
        <ele>2858</ele>
        <time>2021-02-21T08:32:48Z</time>
      </trkpt>
      <trkpt lat="44.4585" lon="6.5158">
        <ele>2858</ele>
        <time>2021-02-21T08:32:49Z</time>
      </trkpt>
      <trkpt lat="44.4585" lon="6.5158">
        <ele>2858</ele>
        <time>2021-02-21T08:32:50Z</time>
      </trkpt>
      <trkpt lat="44.4585" lon="6.5158">
        <ele>2857</ele>
        <time>2021-02-21T08:32:51Z</time>
      </trkpt>
      <trkpt lat="44.4585" lon="6.5158">
        <ele>2857</ele>
        <time>2021-02-21T08:32:52Z</time>
      </trkpt>
      <trkpt lat="44.4585" lon="6.5158">
        <ele>2857</ele>
        <time>2021-02-21T08:32:53Z</time>
      </trkpt>
      <trkpt lat="44.4585" lon="6.5158">
        <ele>2857</ele>
        <time>2021-02-21T08:32:54Z</time>
      </trkpt>
      <trkpt lat="44.4585" lon="6.5158">
        <ele>2857</ele>
        <time>2021-02-21T08:32:55Z</time>
      </trkpt>
      <trkpt lat="44.4585" lon="6.5158">
        <ele>2857</ele>
        <time>2021-02-21T08:32:56Z</time>
      </trkpt>
      <trkpt lat="44.4585" lon="6.5158">
        <ele>2857</ele>
        <time>2021-02-21T08:32:57Z</time>
      </trkpt>
      <trkpt lat="44.4585" lon="6.5158">
        <ele>2857</ele>
        <time>2021-02-21T08:32:58Z</time>
      </trkpt>
      <trkpt lat="44.4585" lon="6.5158">
        <ele>2857</ele>
        <time>2021-02-21T08:32:59Z</time>
      </trkpt>
      <trkpt lat="44.4585" lon="6.5158">
        <ele>2857</ele>
        <time>2021-02-21T08:33:00Z</time>
      </trkpt>
      <trkpt lat="44.4585" lon="6.5158">
        <ele>2857</ele>
        <time>2021-02-21T08:33:01Z</time>
      </trkpt>
      <trkpt lat="44.4585" lon="6.5158">
        <ele>2857</ele>
        <time>2021-02-21T08:33:02Z</time>
      </trkpt>
      <trkpt lat="44.4585" lon="6.5158">
        <ele>2857</ele>
        <time>2021-02-21T08:33:03Z</time>
      </trkpt>
      <trkpt lat="44.4585" lon="6.5158">
        <ele>2857</ele>
        <time>2021-02-21T08:33:04Z</time>
      </trkpt>
      <trkpt lat="44.4585" lon="6.5158">
        <ele>2857</ele>
        <time>2021-02-21T08:33:05Z</time>
      </trkpt>
      <trkpt lat="44.4585" lon="6.5158">
        <ele>2857</ele>
        <time>2021-02-21T08:33:06Z</time>
      </trkpt>
      <trkpt lat="44.4585" lon="6.5158">
        <ele>2857</ele>
        <time>2021-02-21T08:33:07Z</time>
      </trkpt>
      <trkpt lat="44.4585" lon="6.5158">
        <ele>2857</ele>
        <time>2021-02-21T08:33:08Z</time>
      </trkpt>
      <trkpt lat="44.4585" lon="6.5158">
        <ele>2857</ele>
        <time>2021-02-21T08:33:09Z</time>
      </trkpt>
      <trkpt lat="44.4585" lon="6.5158">
        <ele>2857</ele>
        <time>2021-02-21T08:33:10Z</time>
      </trkpt>
      <trkpt lat="44.4585" lon="6.5158">
        <ele>2857</ele>
        <time>2021-02-21T08:33:11Z</time>
      </trkpt>
      <trkpt lat="44.4585" lon="6.5158">
        <ele>2857</ele>
        <time>2021-02-21T08:33:12Z</time>
      </trkpt>
      <trkpt lat="44.4585" lon="6.5158">
        <ele>2857</ele>
        <time>2021-02-21T08:33:13Z</time>
      </trkpt>
      <trkpt lat="44.4585" lon="6.5158">
        <ele>2857</ele>
        <time>2021-02-21T08:33:14Z</time>
      </trkpt>
      <trkpt lat="44.4585" lon="6.5158">
        <ele>2857</ele>
        <time>2021-02-21T08:33:15Z</time>
      </trkpt>
      <trkpt lat="44.4585" lon="6.5158">
        <ele>2857</ele>
        <time>2021-02-21T08:33:16Z</time>
      </trkpt>
      <trkpt lat="44.4585" lon="6.5158">
        <ele>2857</ele>
        <time>2021-02-21T08:33:17Z</time>
      </trkpt>
      <trkpt lat="44.4585" lon="6.5158">
        <ele>2857</ele>
        <time>2021-02-21T08:33:18Z</time>
      </trkpt>
      <trkpt lat="44.4585" lon="6.5158">
        <ele>2857</ele>
        <time>2021-02-21T08:33:19Z</time>
      </trkpt>
      <trkpt lat="44.4585" lon="6.5158">
        <ele>2857</ele>
        <time>2021-02-21T08:33:20Z</time>
      </trkpt>
      <trkpt lat="44.4585" lon="6.5158">
        <ele>2857</ele>
        <time>2021-02-21T08:33:21Z</time>
      </trkpt>
      <trkpt lat="44.4585" lon="6.5158">
        <ele>2857</ele>
        <time>2021-02-21T08:33:22Z</time>
      </trkpt>
      <trkpt lat="44.4585" lon="6.5158">
        <ele>2857</ele>
        <time>2021-02-21T08:33:23Z</time>
      </trkpt>
      <trkpt lat="44.4585" lon="6.5158">
        <ele>2857</ele>
        <time>2021-02-21T08:33:24Z</time>
      </trkpt>
      <trkpt lat="44.4585" lon="6.5158">
        <ele>2857</ele>
        <time>2021-02-21T08:33:25Z</time>
      </trkpt>
      <trkpt lat="44.4585" lon="6.5158">
        <ele>2857</ele>
        <time>2021-02-21T08:33:26Z</time>
      </trkpt>
      <trkpt lat="44.4585" lon="6.5158">
        <ele>2857</ele>
        <time>2021-02-21T08:33:27Z</time>
      </trkpt>
      <trkpt lat="44.4585" lon="6.5158">
        <ele>2857</ele>
        <time>2021-02-21T08:33:28Z</time>
      </trkpt>
      <trkpt lat="44.4585" lon="6.5158">
        <ele>2857</ele>
        <time>2021-02-21T08:33:29Z</time>
      </trkpt>
      <trkpt lat="44.4585" lon="6.5158">
        <ele>2857</ele>
        <time>2021-02-21T08:33:30Z</time>
      </trkpt>
      <trkpt lat="44.4585" lon="6.5158">
        <ele>2857</ele>
        <time>2021-02-21T08:33:31Z</time>
      </trkpt>
      <trkpt lat="44.4585" lon="6.5158">
        <ele>2857</ele>
        <time>2021-02-21T08:33:32Z</time>
      </trkpt>
      <trkpt lat="44.4585" lon="6.5158">
        <ele>2857</ele>
        <time>2021-02-21T08:33:33Z</time>
      </trkpt>
      <trkpt lat="44.4585" lon="6.5158">
        <ele>2857</ele>
        <time>2021-02-21T08:33:34Z</time>
      </trkpt>
      <trkpt lat="44.4585" lon="6.5158">
        <ele>2857</ele>
        <time>2021-02-21T08:33:35Z</time>
      </trkpt>
      <trkpt lat="44.4585" lon="6.5158">
        <ele>2857</ele>
        <time>2021-02-21T08:33:36Z</time>
      </trkpt>
      <trkpt lat="44.4585" lon="6.5158">
        <ele>2857</ele>
        <time>2021-02-21T08:33:37Z</time>
      </trkpt>
      <trkpt lat="44.4585" lon="6.5158">
        <ele>2857</ele>
        <time>2021-02-21T08:33:38Z</time>
      </trkpt>
      <trkpt lat="44.4585" lon="6.5158">
        <ele>2857</ele>
        <time>2021-02-21T08:33:39Z</time>
      </trkpt>
      <trkpt lat="44.4585" lon="6.5158">
        <ele>2857</ele>
        <time>2021-02-21T08:33:40Z</time>
      </trkpt>
      <trkpt lat="44.4585" lon="6.5158">
        <ele>2857</ele>
        <time>2021-02-21T08:33:41Z</time>
      </trkpt>
      <trkpt lat="44.4585" lon="6.5158">
        <ele>2857</ele>
        <time>2021-02-21T08:33:42Z</time>
      </trkpt>
      <trkpt lat="44.4585" lon="6.5158">
        <ele>2857</ele>
        <time>2021-02-21T08:33:43Z</time>
      </trkpt>
      <trkpt lat="44.4585" lon="6.5158">
        <ele>2857</ele>
        <time>2021-02-21T08:33:44Z</time>
      </trkpt>
      <trkpt lat="44.4585" lon="6.5158">
        <ele>2857</ele>
        <time>2021-02-21T08:33:45Z</time>
      </trkpt>
      <trkpt lat="44.4585" lon="6.5158">
        <ele>2857</ele>
        <time>2021-02-21T08:33:46Z</time>
      </trkpt>
      <trkpt lat="44.4585" lon="6.5158">
        <ele>2857</ele>
        <time>2021-02-21T08:33:47Z</time>
      </trkpt>
      <trkpt lat="44.4585" lon="6.5158">
        <ele>2857</ele>
        <time>2021-02-21T08:33:48Z</time>
      </trkpt>
      <trkpt lat="44.4585" lon="6.5158">
        <ele>2857</ele>
        <time>2021-02-21T08:33:49Z</time>
      </trkpt>
      <trkpt lat="44.4585" lon="6.5158">
        <ele>2857</ele>
        <time>2021-02-21T08:33:50Z</time>
      </trkpt>
      <trkpt lat="44.4585" lon="6.5158">
        <ele>2857</ele>
        <time>2021-02-21T08:33:51Z</time>
      </trkpt>
      <trkpt lat="44.4585" lon="6.5158">
        <ele>2857</ele>
        <time>2021-02-21T08:33:52Z</time>
      </trkpt>
      <trkpt lat="44.4585" lon="6.5158">
        <ele>2857</ele>
        <time>2021-02-21T08:33:53Z</time>
      </trkpt>
      <trkpt lat="44.4585" lon="6.5158">
        <ele>2857</ele>
        <time>2021-02-21T08:33:54Z</time>
      </trkpt>
      <trkpt lat="44.4585" lon="6.5158">
        <ele>2857</ele>
        <time>2021-02-21T08:33:55Z</time>
      </trkpt>
      <trkpt lat="44.4585" lon="6.5158">
        <ele>2857</ele>
        <time>2021-02-21T08:33:56Z</time>
      </trkpt>
      <trkpt lat="44.4585" lon="6.5158">
        <ele>2857</ele>
        <time>2021-02-21T08:33:57Z</time>
      </trkpt>
      <trkpt lat="44.4585" lon="6.5158">
        <ele>2857</ele>
        <time>2021-02-21T08:33:58Z</time>
      </trkpt>
      <trkpt lat="44.4585" lon="6.5158">
        <ele>2857</ele>
        <time>2021-02-21T08:33:59Z</time>
      </trkpt>
      <trkpt lat="44.4585" lon="6.5158">
        <ele>2857</ele>
        <time>2021-02-21T08:34:00Z</time>
      </trkpt>
      <trkpt lat="44.4585" lon="6.5158">
        <ele>2857</ele>
        <time>2021-02-21T08:34:01Z</time>
      </trkpt>
      <trkpt lat="44.4585" lon="6.5158">
        <ele>2857</ele>
        <time>2021-02-21T08:34:02Z</time>
      </trkpt>
      <trkpt lat="44.4585" lon="6.5158">
        <ele>2857</ele>
        <time>2021-02-21T08:34:03Z</time>
      </trkpt>
      <trkpt lat="44.4585" lon="6.5158">
        <ele>2857</ele>
        <time>2021-02-21T08:34:04Z</time>
      </trkpt>
      <trkpt lat="44.4585" lon="6.5158">
        <ele>2857</ele>
        <time>2021-02-21T08:34:05Z</time>
      </trkpt>
      <trkpt lat="44.4585" lon="6.5158">
        <ele>2857</ele>
        <time>2021-02-21T08:34:06Z</time>
      </trkpt>
      <trkpt lat="44.4585" lon="6.5158">
        <ele>2857</ele>
        <time>2021-02-21T08:34:07Z</time>
      </trkpt>
      <trkpt lat="44.4585" lon="6.5158">
        <ele>2857</ele>
        <time>2021-02-21T08:34:08Z</time>
      </trkpt>
      <trkpt lat="44.4585" lon="6.5158">
        <ele>2857</ele>
        <time>2021-02-21T08:34:09Z</time>
      </trkpt>
      <trkpt lat="44.4585" lon="6.5158">
        <ele>2857</ele>
        <time>2021-02-21T08:34:10Z</time>
      </trkpt>
      <trkpt lat="44.4585" lon="6.5158">
        <ele>2857</ele>
        <time>2021-02-21T08:34:11Z</time>
      </trkpt>
      <trkpt lat="44.4585" lon="6.5158">
        <ele>2857</ele>
        <time>2021-02-21T08:34:12Z</time>
      </trkpt>
      <trkpt lat="44.4585" lon="6.5158">
        <ele>2857</ele>
        <time>2021-02-21T08:34:13Z</time>
      </trkpt>
      <trkpt lat="44.4585" lon="6.5158">
        <ele>2857</ele>
        <time>2021-02-21T08:34:14Z</time>
      </trkpt>
      <trkpt lat="44.4585" lon="6.5158">
        <ele>2857</ele>
        <time>2021-02-21T08:34:15Z</time>
      </trkpt>
      <trkpt lat="44.4585" lon="6.5158">
        <ele>2857</ele>
        <time>2021-02-21T08:34:16Z</time>
      </trkpt>
      <trkpt lat="44.4585" lon="6.5158">
        <ele>2857</ele>
        <time>2021-02-21T08:34:17Z</time>
      </trkpt>
      <trkpt lat="44.4585" lon="6.5158">
        <ele>2857</ele>
        <time>2021-02-21T08:34:18Z</time>
      </trkpt>
      <trkpt lat="44.4585" lon="6.5158">
        <ele>2857</ele>
        <time>2021-02-21T08:34:19Z</time>
      </trkpt>
      <trkpt lat="44.4585" lon="6.5158">
        <ele>2857</ele>
        <time>2021-02-21T08:34:20Z</time>
      </trkpt>
      <trkpt lat="44.4585" lon="6.5158">
        <ele>2857</ele>
        <time>2021-02-21T08:34:21Z</time>
      </trkpt>
      <trkpt lat="44.4585" lon="6.5158">
        <ele>2857</ele>
        <time>2021-02-21T08:34:22Z</time>
      </trkpt>
      <trkpt lat="44.4585" lon="6.5158">
        <ele>2857</ele>
        <time>2021-02-21T08:34:23Z</time>
      </trkpt>
      <trkpt lat="44.4585" lon="6.5158">
        <ele>2857</ele>
        <time>2021-02-21T08:34:24Z</time>
      </trkpt>
      <trkpt lat="44.4585" lon="6.5158">
        <ele>2857</ele>
        <time>2021-02-21T08:34:25Z</time>
      </trkpt>
      <trkpt lat="44.4585" lon="6.5158">
        <ele>2857</ele>
        <time>2021-02-21T08:34:26Z</time>
      </trkpt>
      <trkpt lat="44.4585" lon="6.5158">
        <ele>2857</ele>
        <time>2021-02-21T08:34:27Z</time>
      </trkpt>
      <trkpt lat="44.4585" lon="6.5158">
        <ele>2857</ele>
        <time>2021-02-21T08:34:28Z</time>
      </trkpt>
      <trkpt lat="44.4585" lon="6.5158">
        <ele>2857</ele>
        <time>2021-02-21T08:34:29Z</time>
      </trkpt>
      <trkpt lat="44.4585" lon="6.5158">
        <ele>2857</ele>
        <time>2021-02-21T08:34:30Z</time>
      </trkpt>
      <trkpt lat="44.4585" lon="6.5158">
        <ele>2857</ele>
        <time>2021-02-21T08:34:31Z</time>
      </trkpt>
      <trkpt lat="44.4585" lon="6.5158">
        <ele>2857</ele>
        <time>2021-02-21T08:34:32Z</time>
      </trkpt>
      <trkpt lat="44.4585" lon="6.5158">
        <ele>2857</ele>
        <time>2021-02-21T08:34:33Z</time>
      </trkpt>
      <trkpt lat="44.4585" lon="6.5158">
        <ele>2857</ele>
        <time>2021-02-21T08:34:34Z</time>
      </trkpt>
      <trkpt lat="44.4585" lon="6.5158">
        <ele>2857</ele>
        <time>2021-02-21T08:34:35Z</time>
      </trkpt>
      <trkpt lat="44.4585" lon="6.5158">
        <ele>2857</ele>
        <time>2021-02-21T08:34:36Z</time>
      </trkpt>
      <trkpt lat="44.4585" lon="6.5158">
        <ele>2857</ele>
        <time>2021-02-21T08:34:37Z</time>
      </trkpt>
      <trkpt lat="44.4585" lon="6.5158">
        <ele>2857</ele>
        <time>2021-02-21T08:34:38Z</time>
      </trkpt>
      <trkpt lat="44.4585" lon="6.5158">
        <ele>2857</ele>
        <time>2021-02-21T08:34:39Z</time>
      </trkpt>
      <trkpt lat="44.4585" lon="6.5158">
        <ele>2857</ele>
        <time>2021-02-21T08:34:40Z</time>
      </trkpt>
      <trkpt lat="44.4585" lon="6.5158">
        <ele>2857</ele>
        <time>2021-02-21T08:34:41Z</time>
      </trkpt>
      <trkpt lat="44.4585" lon="6.5158">
        <ele>2857</ele>
        <time>2021-02-21T08:34:42Z</time>
      </trkpt>
      <trkpt lat="44.4585" lon="6.5158">
        <ele>2857</ele>
        <time>2021-02-21T08:34:43Z</time>
      </trkpt>
      <trkpt lat="44.4585" lon="6.5158">
        <ele>2857</ele>
        <time>2021-02-21T08:34:44Z</time>
      </trkpt>
      <trkpt lat="44.4585" lon="6.5158">
        <ele>2857</ele>
        <time>2021-02-21T08:34:45Z</time>
      </trkpt>
      <trkpt lat="44.4585" lon="6.5158">
        <ele>2857</ele>
        <time>2021-02-21T08:34:46Z</time>
      </trkpt>
      <trkpt lat="44.4585" lon="6.5158">
        <ele>2857</ele>
        <time>2021-02-21T08:34:47Z</time>
      </trkpt>
      <trkpt lat="44.4585" lon="6.5158">
        <ele>2857</ele>
        <time>2021-02-21T08:34:48Z</time>
      </trkpt>
      <trkpt lat="44.4585" lon="6.5158">
        <ele>2857</ele>
        <time>2021-02-21T08:34:49Z</time>
      </trkpt>
      <trkpt lat="44.4585" lon="6.5158">
        <ele>2857</ele>
        <time>2021-02-21T08:34:50Z</time>
      </trkpt>
      <trkpt lat="44.4585" lon="6.5158">
        <ele>2857</ele>
        <time>2021-02-21T08:34:51Z</time>
      </trkpt>
      <trkpt lat="44.4585" lon="6.5158">
        <ele>2857</ele>
        <time>2021-02-21T08:34:52Z</time>
      </trkpt>
      <trkpt lat="44.4585" lon="6.5158">
        <ele>2857</ele>
        <time>2021-02-21T08:34:53Z</time>
      </trkpt>
      <trkpt lat="44.4585" lon="6.5158">
        <ele>2857</ele>
        <time>2021-02-21T08:34:54Z</time>
      </trkpt>
      <trkpt lat="44.4585" lon="6.5158">
        <ele>2857</ele>
        <time>2021-02-21T08:34:55Z</time>
      </trkpt>
      <trkpt lat="44.4585" lon="6.5158">
        <ele>2857</ele>
        <time>2021-02-21T08:34:56Z</time>
      </trkpt>
      <trkpt lat="44.4585" lon="6.5158">
        <ele>2857</ele>
        <time>2021-02-21T08:34:57Z</time>
      </trkpt>
      <trkpt lat="44.4585" lon="6.5158">
        <ele>2857</ele>
        <time>2021-02-21T08:34:58Z</time>
      </trkpt>
      <trkpt lat="44.4585" lon="6.5158">
        <ele>2857</ele>
        <time>2021-02-21T08:34:59Z</time>
      </trkpt>
      <trkpt lat="44.4585" lon="6.5158">
        <ele>2857</ele>
        <time>2021-02-21T08:35:00Z</time>
      </trkpt>
      <trkpt lat="44.4585" lon="6.5158">
        <ele>2857</ele>
        <time>2021-02-21T08:35:01Z</time>
      </trkpt>
      <trkpt lat="44.4585" lon="6.5158">
        <ele>2857</ele>
        <time>2021-02-21T08:35:02Z</time>
      </trkpt>
      <trkpt lat="44.4585" lon="6.5158">
        <ele>2857</ele>
        <time>2021-02-21T08:35:03Z</time>
      </trkpt>
      <trkpt lat="44.4585" lon="6.5158">
        <ele>2857</ele>
        <time>2021-02-21T08:35:04Z</time>
      </trkpt>
      <trkpt lat="44.4585" lon="6.5158">
        <ele>2857</ele>
        <time>2021-02-21T08:35:05Z</time>
      </trkpt>
      <trkpt lat="44.4585" lon="6.5158">
        <ele>2857</ele>
        <time>2021-02-21T08:35:06Z</time>
      </trkpt>
      <trkpt lat="44.4585" lon="6.5158">
        <ele>2857</ele>
        <time>2021-02-21T08:35:07Z</time>
      </trkpt>
      <trkpt lat="44.4585" lon="6.5158">
        <ele>2857</ele>
        <time>2021-02-21T08:35:08Z</time>
      </trkpt>
      <trkpt lat="44.4585" lon="6.5158">
        <ele>2857</ele>
        <time>2021-02-21T08:35:09Z</time>
      </trkpt>
      <trkpt lat="44.4585" lon="6.5158">
        <ele>2857</ele>
        <time>2021-02-21T08:35:10Z</time>
      </trkpt>
      <trkpt lat="44.4585" lon="6.5158">
        <ele>2857</ele>
        <time>2021-02-21T08:35:11Z</time>
      </trkpt>
      <trkpt lat="44.4585" lon="6.5158">
        <ele>2857</ele>
        <time>2021-02-21T08:35:12Z</time>
      </trkpt>
      <trkpt lat="44.4585" lon="6.5158">
        <ele>2857</ele>
        <time>2021-02-21T08:35:13Z</time>
      </trkpt>
      <trkpt lat="44.4585" lon="6.5158">
        <ele>2857</ele>
        <time>2021-02-21T08:35:14Z</time>
      </trkpt>
      <trkpt lat="44.4585" lon="6.5158">
        <ele>2857</ele>
        <time>2021-02-21T08:35:15Z</time>
      </trkpt>
      <trkpt lat="44.4585" lon="6.5158">
        <ele>2857</ele>
        <time>2021-02-21T08:35:16Z</time>
      </trkpt>
      <trkpt lat="44.4585" lon="6.5158">
        <ele>2857</ele>
        <time>2021-02-21T08:35:17Z</time>
      </trkpt>
      <trkpt lat="44.4585" lon="6.5158">
        <ele>2857</ele>
        <time>2021-02-21T08:35:18Z</time>
      </trkpt>
      <trkpt lat="44.4585" lon="6.5158">
        <ele>2857</ele>
        <time>2021-02-21T08:35:19Z</time>
      </trkpt>
      <trkpt lat="44.4585" lon="6.5158">
        <ele>2857</ele>
        <time>2021-02-21T08:35:20Z</time>
      </trkpt>
      <trkpt lat="44.4585" lon="6.5158">
        <ele>2857</ele>
        <time>2021-02-21T08:35:21Z</time>
      </trkpt>
      <trkpt lat="44.4585" lon="6.5158">
        <ele>2857</ele>
        <time>2021-02-21T08:35:22Z</time>
      </trkpt>
      <trkpt lat="44.4585" lon="6.5158">
        <ele>2857</ele>
        <time>2021-02-21T08:35:23Z</time>
      </trkpt>
      <trkpt lat="44.4585" lon="6.5158">
        <ele>2857</ele>
        <time>2021-02-21T08:35:24Z</time>
      </trkpt>
      <trkpt lat="44.4585" lon="6.5158">
        <ele>2857</ele>
        <time>2021-02-21T08:35:25Z</time>
      </trkpt>
      <trkpt lat="44.4585" lon="6.5158">
        <ele>2857</ele>
        <time>2021-02-21T08:35:26Z</time>
      </trkpt>
      <trkpt lat="44.4585" lon="6.5158">
        <ele>2857</ele>
        <time>2021-02-21T08:35:27Z</time>
      </trkpt>
      <trkpt lat="44.4585" lon="6.5158">
        <ele>2857</ele>
        <time>2021-02-21T08:35:28Z</time>
      </trkpt>
      <trkpt lat="44.4585" lon="6.5158">
        <ele>2857</ele>
        <time>2021-02-21T08:35:29Z</time>
      </trkpt>
      <trkpt lat="44.4585" lon="6.5158">
        <ele>2857</ele>
        <time>2021-02-21T08:35:30Z</time>
      </trkpt>
      <trkpt lat="44.4585" lon="6.5158">
        <ele>2857</ele>
        <time>2021-02-21T08:35:31Z</time>
      </trkpt>
      <trkpt lat="44.4585" lon="6.5158">
        <ele>2857</ele>
        <time>2021-02-21T08:35:32Z</time>
      </trkpt>
      <trkpt lat="44.4585" lon="6.5158">
        <ele>2857</ele>
        <time>2021-02-21T08:35:33Z</time>
      </trkpt>
      <trkpt lat="44.4585" lon="6.5158">
        <ele>2857</ele>
        <time>2021-02-21T08:35:34Z</time>
      </trkpt>
      <trkpt lat="44.4585" lon="6.5158">
        <ele>2857</ele>
        <time>2021-02-21T08:35:35Z</time>
      </trkpt>
      <trkpt lat="44.4585" lon="6.5158">
        <ele>2857</ele>
        <time>2021-02-21T08:35:36Z</time>
      </trkpt>
      <trkpt lat="44.4585" lon="6.5158">
        <ele>2857</ele>
        <time>2021-02-21T08:35:37Z</time>
      </trkpt>
      <trkpt lat="44.4585" lon="6.5158">
        <ele>2857</ele>
        <time>2021-02-21T08:35:38Z</time>
      </trkpt>
      <trkpt lat="44.4585" lon="6.5158">
        <ele>2857</ele>
        <time>2021-02-21T08:35:39Z</time>
      </trkpt>
      <trkpt lat="44.4585" lon="6.5158">
        <ele>2857</ele>
        <time>2021-02-21T08:35:40Z</time>
      </trkpt>
      <trkpt lat="44.4585" lon="6.5158">
        <ele>2857</ele>
        <time>2021-02-21T08:35:41Z</time>
      </trkpt>
      <trkpt lat="44.4585" lon="6.5158">
        <ele>2857</ele>
        <time>2021-02-21T08:35:42Z</time>
      </trkpt>
      <trkpt lat="44.4585" lon="6.5158">
        <ele>2857</ele>
        <time>2021-02-21T08:35:43Z</time>
      </trkpt>
      <trkpt lat="44.4585" lon="6.5158">
        <ele>2857</ele>
        <time>2021-02-21T08:35:44Z</time>
      </trkpt>
      <trkpt lat="44.4585" lon="6.5158">
        <ele>2857</ele>
        <time>2021-02-21T08:35:45Z</time>
      </trkpt>
      <trkpt lat="44.4585" lon="6.5158">
        <ele>2857</ele>
        <time>2021-02-21T08:35:46Z</time>
      </trkpt>
      <trkpt lat="44.4585" lon="6.5158">
        <ele>2857</ele>
        <time>2021-02-21T08:35:47Z</time>
      </trkpt>
      <trkpt lat="44.4585" lon="6.5158">
        <ele>2857</ele>
        <time>2021-02-21T08:35:48Z</time>
      </trkpt>
      <trkpt lat="44.4585" lon="6.5158">
        <ele>2857</ele>
        <time>2021-02-21T08:35:49Z</time>
      </trkpt>
      <trkpt lat="44.4585" lon="6.5158">
        <ele>2857</ele>
        <time>2021-02-21T08:35:50Z</time>
      </trkpt>
      <trkpt lat="44.4585" lon="6.5158">
        <ele>2857</ele>
        <time>2021-02-21T08:35:51Z</time>
      </trkpt>
      <trkpt lat="44.4585" lon="6.5158">
        <ele>2857</ele>
        <time>2021-02-21T08:35:52Z</time>
      </trkpt>
      <trkpt lat="44.4585" lon="6.5158">
        <ele>2857</ele>
        <time>2021-02-21T08:35:53Z</time>
      </trkpt>
      <trkpt lat="44.4585" lon="6.5158">
        <ele>2857</ele>
        <time>2021-02-21T08:35:54Z</time>
      </trkpt>
      <trkpt lat="44.4585" lon="6.5158">
        <ele>2857</ele>
        <time>2021-02-21T08:35:55Z</time>
      </trkpt>
      <trkpt lat="44.4585" lon="6.5158">
        <ele>2857</ele>
        <time>2021-02-21T08:35:56Z</time>
      </trkpt>
      <trkpt lat="44.4585" lon="6.5158">
        <ele>2857</ele>
        <time>2021-02-21T08:35:57Z</time>
      </trkpt>
      <trkpt lat="44.4585" lon="6.5158">
        <ele>2857</ele>
        <time>2021-02-21T08:35:58Z</time>
      </trkpt>
      <trkpt lat="44.45849" lon="6.51581">
        <ele>2857</ele>
        <time>2021-02-21T08:35:59Z</time>
      </trkpt>
      <trkpt lat="44.45849" lon="6.51581">
        <ele>2857</ele>
        <time>2021-02-21T08:36:00Z</time>
      </trkpt>
      <trkpt lat="44.45848" lon="6.51581">
        <ele>2857</ele>
        <time>2021-02-21T08:36:01Z</time>
      </trkpt>
      <trkpt lat="44.45848" lon="6.51581">
        <ele>2857</ele>
        <time>2021-02-21T08:36:02Z</time>
      </trkpt>
      <trkpt lat="44.45848" lon="6.51581">
        <ele>2857</ele>
        <time>2021-02-21T08:36:03Z</time>
      </trkpt>
      <trkpt lat="44.45848" lon="6.51581">
        <ele>2857</ele>
        <time>2021-02-21T08:36:04Z</time>
      </trkpt>
      <trkpt lat="44.45848" lon="6.51581">
        <ele>2857</ele>
        <time>2021-02-21T08:36:05Z</time>
      </trkpt>
      <trkpt lat="44.45848" lon="6.51581">
        <ele>2857</ele>
        <time>2021-02-21T08:36:06Z</time>
      </trkpt>
      <trkpt lat="44.45848" lon="6.51581">
        <ele>2857</ele>
        <time>2021-02-21T08:36:07Z</time>
      </trkpt>
      <trkpt lat="44.45848" lon="6.51581">
        <ele>2857</ele>
        <time>2021-02-21T08:36:08Z</time>
      </trkpt>
      <trkpt lat="44.45848" lon="6.51581">
        <ele>2857</ele>
        <time>2021-02-21T08:36:09Z</time>
      </trkpt>
      <trkpt lat="44.45848" lon="6.51581">
        <ele>2857</ele>
        <time>2021-02-21T08:36:10Z</time>
      </trkpt>
      <trkpt lat="44.45848" lon="6.51581">
        <ele>2857</ele>
        <time>2021-02-21T08:36:11Z</time>
      </trkpt>
      <trkpt lat="44.45848" lon="6.51581">
        <ele>2857</ele>
        <time>2021-02-21T08:36:12Z</time>
      </trkpt>
      <trkpt lat="44.45848" lon="6.51581">
        <ele>2857</ele>
        <time>2021-02-21T08:36:13Z</time>
      </trkpt>
      <trkpt lat="44.45848" lon="6.51581">
        <ele>2857</ele>
        <time>2021-02-21T08:36:14Z</time>
      </trkpt>
      <trkpt lat="44.45848" lon="6.51581">
        <ele>2857</ele>
        <time>2021-02-21T08:36:15Z</time>
      </trkpt>
      <trkpt lat="44.45848" lon="6.51581">
        <ele>2857</ele>
        <time>2021-02-21T08:36:16Z</time>
      </trkpt>
      <trkpt lat="44.45848" lon="6.51581">
        <ele>2857</ele>
        <time>2021-02-21T08:36:17Z</time>
      </trkpt>
      <trkpt lat="44.45848" lon="6.51581">
        <ele>2857</ele>
        <time>2021-02-21T08:36:18Z</time>
      </trkpt>
      <trkpt lat="44.45848" lon="6.51581">
        <ele>2857</ele>
        <time>2021-02-21T08:36:19Z</time>
      </trkpt>
      <trkpt lat="44.45848" lon="6.51581">
        <ele>2857</ele>
        <time>2021-02-21T08:36:20Z</time>
      </trkpt>
      <trkpt lat="44.45848" lon="6.51581">
        <ele>2857</ele>
        <time>2021-02-21T08:36:21Z</time>
      </trkpt>
      <trkpt lat="44.45848" lon="6.51581">
        <ele>2857</ele>
        <time>2021-02-21T08:36:22Z</time>
      </trkpt>
      <trkpt lat="44.45848" lon="6.51581">
        <ele>2857</ele>
        <time>2021-02-21T08:36:23Z</time>
      </trkpt>
      <trkpt lat="44.45848" lon="6.51581">
        <ele>2857</ele>
        <time>2021-02-21T08:36:24Z</time>
      </trkpt>
      <trkpt lat="44.45848" lon="6.51581">
        <ele>2857</ele>
        <time>2021-02-21T08:36:25Z</time>
      </trkpt>
      <trkpt lat="44.45848" lon="6.51581">
        <ele>2857</ele>
        <time>2021-02-21T08:36:26Z</time>
      </trkpt>
      <trkpt lat="44.45848" lon="6.51581">
        <ele>2857</ele>
        <time>2021-02-21T08:36:27Z</time>
      </trkpt>
      <trkpt lat="44.45848" lon="6.51581">
        <ele>2857</ele>
        <time>2021-02-21T08:36:28Z</time>
      </trkpt>
      <trkpt lat="44.45848" lon="6.51581">
        <ele>2857</ele>
        <time>2021-02-21T08:36:29Z</time>
      </trkpt>
      <trkpt lat="44.45848" lon="6.51581">
        <ele>2857</ele>
        <time>2021-02-21T08:36:30Z</time>
      </trkpt>
      <trkpt lat="44.45848" lon="6.51581">
        <ele>2857</ele>
        <time>2021-02-21T08:36:31Z</time>
      </trkpt>
      <trkpt lat="44.45848" lon="6.51581">
        <ele>2857</ele>
        <time>2021-02-21T08:36:32Z</time>
      </trkpt>
      <trkpt lat="44.45848" lon="6.51581">
        <ele>2857</ele>
        <time>2021-02-21T08:36:33Z</time>
      </trkpt>
      <trkpt lat="44.45848" lon="6.51581">
        <ele>2857</ele>
        <time>2021-02-21T08:36:34Z</time>
      </trkpt>
      <trkpt lat="44.45848" lon="6.51581">
        <ele>2857</ele>
        <time>2021-02-21T08:36:35Z</time>
      </trkpt>
      <trkpt lat="44.45848" lon="6.51581">
        <ele>2857</ele>
        <time>2021-02-21T08:36:36Z</time>
      </trkpt>
      <trkpt lat="44.45848" lon="6.51581">
        <ele>2857</ele>
        <time>2021-02-21T08:36:37Z</time>
      </trkpt>
      <trkpt lat="44.45848" lon="6.51581">
        <ele>2857</ele>
        <time>2021-02-21T08:36:38Z</time>
      </trkpt>
      <trkpt lat="44.45848" lon="6.51581">
        <ele>2857</ele>
        <time>2021-02-21T08:36:39Z</time>
      </trkpt>
      <trkpt lat="44.45848" lon="6.51581">
        <ele>2857</ele>
        <time>2021-02-21T08:36:40Z</time>
      </trkpt>
      <trkpt lat="44.45848" lon="6.51581">
        <ele>2857</ele>
        <time>2021-02-21T08:36:41Z</time>
      </trkpt>
      <trkpt lat="44.45848" lon="6.51581">
        <ele>2857</ele>
        <time>2021-02-21T08:36:42Z</time>
      </trkpt>
      <trkpt lat="44.45848" lon="6.51581">
        <ele>2857</ele>
        <time>2021-02-21T08:36:43Z</time>
      </trkpt>
      <trkpt lat="44.45848" lon="6.51581">
        <ele>2857</ele>
        <time>2021-02-21T08:36:44Z</time>
      </trkpt>
      <trkpt lat="44.45848" lon="6.51581">
        <ele>2857</ele>
        <time>2021-02-21T08:36:45Z</time>
      </trkpt>
      <trkpt lat="44.45848" lon="6.51581">
        <ele>2857</ele>
        <time>2021-02-21T08:36:46Z</time>
      </trkpt>
      <trkpt lat="44.45848" lon="6.51581">
        <ele>2856</ele>
        <time>2021-02-21T08:36:47Z</time>
      </trkpt>
      <trkpt lat="44.45848" lon="6.51581">
        <ele>2856</ele>
        <time>2021-02-21T08:36:48Z</time>
      </trkpt>
      <trkpt lat="44.45848" lon="6.51581">
        <ele>2856</ele>
        <time>2021-02-21T08:36:49Z</time>
      </trkpt>
      <trkpt lat="44.45848" lon="6.51581">
        <ele>2856</ele>
        <time>2021-02-21T08:36:50Z</time>
      </trkpt>
      <trkpt lat="44.45848" lon="6.51581">
        <ele>2856</ele>
        <time>2021-02-21T08:36:51Z</time>
      </trkpt>
      <trkpt lat="44.45848" lon="6.51581">
        <ele>2856</ele>
        <time>2021-02-21T08:36:52Z</time>
      </trkpt>
      <trkpt lat="44.45848" lon="6.51581">
        <ele>2856</ele>
        <time>2021-02-21T08:36:53Z</time>
      </trkpt>
      <trkpt lat="44.45848" lon="6.51581">
        <ele>2856</ele>
        <time>2021-02-21T08:36:54Z</time>
      </trkpt>
      <trkpt lat="44.45848" lon="6.51581">
        <ele>2856</ele>
        <time>2021-02-21T08:36:55Z</time>
      </trkpt>
      <trkpt lat="44.45848" lon="6.51581">
        <ele>2856</ele>
        <time>2021-02-21T08:36:56Z</time>
      </trkpt>
      <trkpt lat="44.45848" lon="6.51581">
        <ele>2856</ele>
        <time>2021-02-21T08:36:57Z</time>
      </trkpt>
      <trkpt lat="44.45848" lon="6.51581">
        <ele>2856</ele>
        <time>2021-02-21T08:36:58Z</time>
      </trkpt>
      <trkpt lat="44.45848" lon="6.51581">
        <ele>2856</ele>
        <time>2021-02-21T08:36:59Z</time>
      </trkpt>
      <trkpt lat="44.45848" lon="6.51581">
        <ele>2856</ele>
        <time>2021-02-21T08:37:00Z</time>
      </trkpt>
      <trkpt lat="44.45848" lon="6.51581">
        <ele>2856</ele>
        <time>2021-02-21T08:37:01Z</time>
      </trkpt>
      <trkpt lat="44.45848" lon="6.51581">
        <ele>2856</ele>
        <time>2021-02-21T08:37:02Z</time>
      </trkpt>
      <trkpt lat="44.45848" lon="6.51581">
        <ele>2856</ele>
        <time>2021-02-21T08:37:03Z</time>
      </trkpt>
      <trkpt lat="44.45848" lon="6.51581">
        <ele>2856</ele>
        <time>2021-02-21T08:37:04Z</time>
      </trkpt>
      <trkpt lat="44.45848" lon="6.51581">
        <ele>2856</ele>
        <time>2021-02-21T08:37:05Z</time>
      </trkpt>
      <trkpt lat="44.45848" lon="6.51581">
        <ele>2856</ele>
        <time>2021-02-21T08:37:06Z</time>
      </trkpt>
      <trkpt lat="44.45848" lon="6.51581">
        <ele>2856</ele>
        <time>2021-02-21T08:37:07Z</time>
      </trkpt>
      <trkpt lat="44.45848" lon="6.51581">
        <ele>2856</ele>
        <time>2021-02-21T08:37:08Z</time>
      </trkpt>
      <trkpt lat="44.45848" lon="6.51581">
        <ele>2856</ele>
        <time>2021-02-21T08:37:09Z</time>
      </trkpt>
      <trkpt lat="44.45848" lon="6.51581">
        <ele>2856</ele>
        <time>2021-02-21T08:37:10Z</time>
      </trkpt>
      <trkpt lat="44.45848" lon="6.51581">
        <ele>2856</ele>
        <time>2021-02-21T08:37:11Z</time>
      </trkpt>
      <trkpt lat="44.45848" lon="6.51581">
        <ele>2856</ele>
        <time>2021-02-21T08:37:12Z</time>
      </trkpt>
      <trkpt lat="44.45848" lon="6.51581">
        <ele>2856</ele>
        <time>2021-02-21T08:37:13Z</time>
      </trkpt>
      <trkpt lat="44.45848" lon="6.51581">
        <ele>2856</ele>
        <time>2021-02-21T08:37:14Z</time>
      </trkpt>
      <trkpt lat="44.45848" lon="6.51581">
        <ele>2856</ele>
        <time>2021-02-21T08:37:15Z</time>
      </trkpt>
      <trkpt lat="44.45848" lon="6.51581">
        <ele>2856</ele>
        <time>2021-02-21T08:37:16Z</time>
      </trkpt>
      <trkpt lat="44.45848" lon="6.51581">
        <ele>2856</ele>
        <time>2021-02-21T08:37:17Z</time>
      </trkpt>
      <trkpt lat="44.45848" lon="6.51581">
        <ele>2856</ele>
        <time>2021-02-21T08:37:18Z</time>
      </trkpt>
      <trkpt lat="44.45848" lon="6.51581">
        <ele>2856</ele>
        <time>2021-02-21T08:37:19Z</time>
      </trkpt>
      <trkpt lat="44.45848" lon="6.51581">
        <ele>2856</ele>
        <time>2021-02-21T08:37:20Z</time>
      </trkpt>
      <trkpt lat="44.45848" lon="6.51581">
        <ele>2856</ele>
        <time>2021-02-21T08:37:21Z</time>
      </trkpt>
      <trkpt lat="44.45848" lon="6.51581">
        <ele>2856</ele>
        <time>2021-02-21T08:37:22Z</time>
      </trkpt>
      <trkpt lat="44.45848" lon="6.51581">
        <ele>2856</ele>
        <time>2021-02-21T08:37:23Z</time>
      </trkpt>
      <trkpt lat="44.45848" lon="6.51581">
        <ele>2856</ele>
        <time>2021-02-21T08:37:24Z</time>
      </trkpt>
      <trkpt lat="44.45848" lon="6.51581">
        <ele>2856</ele>
        <time>2021-02-21T08:37:25Z</time>
      </trkpt>
      <trkpt lat="44.45848" lon="6.51581">
        <ele>2856</ele>
        <time>2021-02-21T08:37:26Z</time>
      </trkpt>
      <trkpt lat="44.45848" lon="6.51581">
        <ele>2856</ele>
        <time>2021-02-21T08:37:27Z</time>
      </trkpt>
      <trkpt lat="44.45848" lon="6.51581">
        <ele>2856</ele>
        <time>2021-02-21T08:37:28Z</time>
      </trkpt>
      <trkpt lat="44.45848" lon="6.51581">
        <ele>2856</ele>
        <time>2021-02-21T08:37:29Z</time>
      </trkpt>
      <trkpt lat="44.45848" lon="6.51581">
        <ele>2856</ele>
        <time>2021-02-21T08:37:30Z</time>
      </trkpt>
      <trkpt lat="44.45848" lon="6.51581">
        <ele>2856</ele>
        <time>2021-02-21T08:37:31Z</time>
      </trkpt>
      <trkpt lat="44.45848" lon="6.51581">
        <ele>2856</ele>
        <time>2021-02-21T08:37:32Z</time>
      </trkpt>
      <trkpt lat="44.45848" lon="6.51581">
        <ele>2856</ele>
        <time>2021-02-21T08:37:33Z</time>
      </trkpt>
      <trkpt lat="44.45848" lon="6.51581">
        <ele>2856</ele>
        <time>2021-02-21T08:37:34Z</time>
      </trkpt>
      <trkpt lat="44.45848" lon="6.51581">
        <ele>2856</ele>
        <time>2021-02-21T08:37:35Z</time>
      </trkpt>
      <trkpt lat="44.45848" lon="6.51581">
        <ele>2856</ele>
        <time>2021-02-21T08:37:36Z</time>
      </trkpt>
      <trkpt lat="44.45848" lon="6.51581">
        <ele>2856</ele>
        <time>2021-02-21T08:37:37Z</time>
      </trkpt>
      <trkpt lat="44.45848" lon="6.51581">
        <ele>2856</ele>
        <time>2021-02-21T08:37:38Z</time>
      </trkpt>
      <trkpt lat="44.45848" lon="6.51581">
        <ele>2856</ele>
        <time>2021-02-21T08:37:39Z</time>
      </trkpt>
      <trkpt lat="44.45848" lon="6.51581">
        <ele>2856</ele>
        <time>2021-02-21T08:37:40Z</time>
      </trkpt>
      <trkpt lat="44.45848" lon="6.51581">
        <ele>2856</ele>
        <time>2021-02-21T08:37:41Z</time>
      </trkpt>
      <trkpt lat="44.45848" lon="6.51581">
        <ele>2856</ele>
        <time>2021-02-21T08:37:42Z</time>
      </trkpt>
      <trkpt lat="44.45848" lon="6.51581">
        <ele>2856</ele>
        <time>2021-02-21T08:37:43Z</time>
      </trkpt>
      <trkpt lat="44.45848" lon="6.51581">
        <ele>2856</ele>
        <time>2021-02-21T08:37:44Z</time>
      </trkpt>
      <trkpt lat="44.45848" lon="6.51581">
        <ele>2856</ele>
        <time>2021-02-21T08:37:45Z</time>
      </trkpt>
      <trkpt lat="44.45848" lon="6.51581">
        <ele>2856</ele>
        <time>2021-02-21T08:37:46Z</time>
      </trkpt>
      <trkpt lat="44.45848" lon="6.51581">
        <ele>2856</ele>
        <time>2021-02-21T08:37:47Z</time>
      </trkpt>
      <trkpt lat="44.45848" lon="6.51581">
        <ele>2856</ele>
        <time>2021-02-21T08:37:48Z</time>
      </trkpt>
      <trkpt lat="44.45848" lon="6.51581">
        <ele>2856</ele>
        <time>2021-02-21T08:37:49Z</time>
      </trkpt>
      <trkpt lat="44.45848" lon="6.51581">
        <ele>2856</ele>
        <time>2021-02-21T08:37:50Z</time>
      </trkpt>
      <trkpt lat="44.45848" lon="6.51581">
        <ele>2856</ele>
        <time>2021-02-21T08:37:51Z</time>
      </trkpt>
      <trkpt lat="44.45848" lon="6.51581">
        <ele>2856</ele>
        <time>2021-02-21T08:37:52Z</time>
      </trkpt>
      <trkpt lat="44.45848" lon="6.51581">
        <ele>2856</ele>
        <time>2021-02-21T08:37:53Z</time>
      </trkpt>
      <trkpt lat="44.45848" lon="6.51581">
        <ele>2856</ele>
        <time>2021-02-21T08:37:54Z</time>
      </trkpt>
      <trkpt lat="44.45848" lon="6.51581">
        <ele>2856</ele>
        <time>2021-02-21T08:37:55Z</time>
      </trkpt>
      <trkpt lat="44.45848" lon="6.51581">
        <ele>2856</ele>
        <time>2021-02-21T08:37:56Z</time>
      </trkpt>
      <trkpt lat="44.45848" lon="6.51581">
        <ele>2856</ele>
        <time>2021-02-21T08:37:57Z</time>
      </trkpt>
      <trkpt lat="44.45848" lon="6.51581">
        <ele>2856</ele>
        <time>2021-02-21T08:37:58Z</time>
      </trkpt>
      <trkpt lat="44.45848" lon="6.51581">
        <ele>2856</ele>
        <time>2021-02-21T08:37:59Z</time>
      </trkpt>
      <trkpt lat="44.45848" lon="6.51581">
        <ele>2856</ele>
        <time>2021-02-21T08:38:00Z</time>
      </trkpt>
      <trkpt lat="44.45848" lon="6.51581">
        <ele>2856</ele>
        <time>2021-02-21T08:38:01Z</time>
      </trkpt>
      <trkpt lat="44.45848" lon="6.51581">
        <ele>2856</ele>
        <time>2021-02-21T08:38:02Z</time>
      </trkpt>
      <trkpt lat="44.45848" lon="6.51581">
        <ele>2856</ele>
        <time>2021-02-21T08:38:03Z</time>
      </trkpt>
      <trkpt lat="44.45848" lon="6.51581">
        <ele>2856</ele>
        <time>2021-02-21T08:38:04Z</time>
      </trkpt>
      <trkpt lat="44.45848" lon="6.51581">
        <ele>2856</ele>
        <time>2021-02-21T08:38:05Z</time>
      </trkpt>
      <trkpt lat="44.45848" lon="6.51581">
        <ele>2856</ele>
        <time>2021-02-21T08:38:06Z</time>
      </trkpt>
      <trkpt lat="44.45848" lon="6.51581">
        <ele>2856</ele>
        <time>2021-02-21T08:38:07Z</time>
      </trkpt>
      <trkpt lat="44.45848" lon="6.51581">
        <ele>2856</ele>
        <time>2021-02-21T08:38:08Z</time>
      </trkpt>
      <trkpt lat="44.45848" lon="6.51581">
        <ele>2856</ele>
        <time>2021-02-21T08:38:09Z</time>
      </trkpt>
      <trkpt lat="44.45848" lon="6.51581">
        <ele>2856</ele>
        <time>2021-02-21T08:38:10Z</time>
      </trkpt>
      <trkpt lat="44.45848" lon="6.51581">
        <ele>2856</ele>
        <time>2021-02-21T08:38:11Z</time>
      </trkpt>
      <trkpt lat="44.45848" lon="6.51581">
        <ele>2856</ele>
        <time>2021-02-21T08:38:12Z</time>
      </trkpt>
      <trkpt lat="44.45848" lon="6.51581">
        <ele>2856</ele>
        <time>2021-02-21T08:38:13Z</time>
      </trkpt>
      <trkpt lat="44.45848" lon="6.51581">
        <ele>2856</ele>
        <time>2021-02-21T08:38:14Z</time>
      </trkpt>
      <trkpt lat="44.45848" lon="6.51581">
        <ele>2856</ele>
        <time>2021-02-21T08:38:15Z</time>
      </trkpt>
      <trkpt lat="44.45848" lon="6.51581">
        <ele>2856</ele>
        <time>2021-02-21T08:38:16Z</time>
      </trkpt>
      <trkpt lat="44.45848" lon="6.51581">
        <ele>2856</ele>
        <time>2021-02-21T08:38:17Z</time>
      </trkpt>
      <trkpt lat="44.45848" lon="6.51581">
        <ele>2856</ele>
        <time>2021-02-21T08:38:18Z</time>
      </trkpt>
      <trkpt lat="44.45848" lon="6.51581">
        <ele>2856</ele>
        <time>2021-02-21T08:38:19Z</time>
      </trkpt>
      <trkpt lat="44.45848" lon="6.51581">
        <ele>2856</ele>
        <time>2021-02-21T08:38:20Z</time>
      </trkpt>
      <trkpt lat="44.45848" lon="6.51581">
        <ele>2856</ele>
        <time>2021-02-21T08:38:21Z</time>
      </trkpt>
      <trkpt lat="44.45848" lon="6.51581">
        <ele>2856</ele>
        <time>2021-02-21T08:38:22Z</time>
      </trkpt>
      <trkpt lat="44.45848" lon="6.51581">
        <ele>2856</ele>
        <time>2021-02-21T08:38:23Z</time>
      </trkpt>
      <trkpt lat="44.45848" lon="6.51581">
        <ele>2856</ele>
        <time>2021-02-21T08:38:24Z</time>
      </trkpt>
      <trkpt lat="44.45848" lon="6.51581">
        <ele>2856</ele>
        <time>2021-02-21T08:38:25Z</time>
      </trkpt>
      <trkpt lat="44.45848" lon="6.51581">
        <ele>2856</ele>
        <time>2021-02-21T08:38:26Z</time>
      </trkpt>
      <trkpt lat="44.45848" lon="6.51581">
        <ele>2856</ele>
        <time>2021-02-21T08:38:27Z</time>
      </trkpt>
      <trkpt lat="44.45848" lon="6.51581">
        <ele>2856</ele>
        <time>2021-02-21T08:38:28Z</time>
      </trkpt>
      <trkpt lat="44.45848" lon="6.51581">
        <ele>2856</ele>
        <time>2021-02-21T08:38:29Z</time>
      </trkpt>
      <trkpt lat="44.45848" lon="6.51581">
        <ele>2856</ele>
        <time>2021-02-21T08:38:30Z</time>
      </trkpt>
      <trkpt lat="44.45848" lon="6.51581">
        <ele>2856</ele>
        <time>2021-02-21T08:38:31Z</time>
      </trkpt>
      <trkpt lat="44.45848" lon="6.51581">
        <ele>2856</ele>
        <time>2021-02-21T08:38:32Z</time>
      </trkpt>
      <trkpt lat="44.45848" lon="6.51581">
        <ele>2856</ele>
        <time>2021-02-21T08:38:33Z</time>
      </trkpt>
      <trkpt lat="44.45848" lon="6.51581">
        <ele>2856</ele>
        <time>2021-02-21T08:38:34Z</time>
      </trkpt>
      <trkpt lat="44.45848" lon="6.51581">
        <ele>2856</ele>
        <time>2021-02-21T08:38:35Z</time>
      </trkpt>
      <trkpt lat="44.45848" lon="6.51581">
        <ele>2856</ele>
        <time>2021-02-21T08:38:36Z</time>
      </trkpt>
      <trkpt lat="44.45848" lon="6.51581">
        <ele>2856</ele>
        <time>2021-02-21T08:38:37Z</time>
      </trkpt>
      <trkpt lat="44.45848" lon="6.51581">
        <ele>2856</ele>
        <time>2021-02-21T08:38:38Z</time>
      </trkpt>
      <trkpt lat="44.45848" lon="6.51581">
        <ele>2856</ele>
        <time>2021-02-21T08:38:39Z</time>
      </trkpt>
      <trkpt lat="44.45848" lon="6.51581">
        <ele>2856</ele>
        <time>2021-02-21T08:38:40Z</time>
      </trkpt>
      <trkpt lat="44.45848" lon="6.51581">
        <ele>2856</ele>
        <time>2021-02-21T08:38:41Z</time>
      </trkpt>
      <trkpt lat="44.45848" lon="6.51581">
        <ele>2856</ele>
        <time>2021-02-21T08:38:42Z</time>
      </trkpt>
      <trkpt lat="44.45848" lon="6.51581">
        <ele>2856</ele>
        <time>2021-02-21T08:38:43Z</time>
      </trkpt>
      <trkpt lat="44.45848" lon="6.51581">
        <ele>2856</ele>
        <time>2021-02-21T08:38:44Z</time>
      </trkpt>
      <trkpt lat="44.45848" lon="6.51581">
        <ele>2856</ele>
        <time>2021-02-21T08:38:45Z</time>
      </trkpt>
      <trkpt lat="44.45848" lon="6.51581">
        <ele>2856</ele>
        <time>2021-02-21T08:38:46Z</time>
      </trkpt>
      <trkpt lat="44.45848" lon="6.51581">
        <ele>2856</ele>
        <time>2021-02-21T08:38:47Z</time>
      </trkpt>
      <trkpt lat="44.45848" lon="6.51581">
        <ele>2856</ele>
        <time>2021-02-21T08:38:48Z</time>
      </trkpt>
      <trkpt lat="44.45848" lon="6.51581">
        <ele>2856</ele>
        <time>2021-02-21T08:38:49Z</time>
      </trkpt>
      <trkpt lat="44.45848" lon="6.51581">
        <ele>2856</ele>
        <time>2021-02-21T08:38:50Z</time>
      </trkpt>
      <trkpt lat="44.45848" lon="6.51581">
        <ele>2856</ele>
        <time>2021-02-21T08:38:51Z</time>
      </trkpt>
      <trkpt lat="44.45848" lon="6.51581">
        <ele>2856</ele>
        <time>2021-02-21T08:38:52Z</time>
      </trkpt>
      <trkpt lat="44.45848" lon="6.51581">
        <ele>2856</ele>
        <time>2021-02-21T08:38:53Z</time>
      </trkpt>
      <trkpt lat="44.45848" lon="6.51581">
        <ele>2856</ele>
        <time>2021-02-21T08:38:54Z</time>
      </trkpt>
      <trkpt lat="44.45848" lon="6.51581">
        <ele>2856</ele>
        <time>2021-02-21T08:38:55Z</time>
      </trkpt>
      <trkpt lat="44.45848" lon="6.51581">
        <ele>2856</ele>
        <time>2021-02-21T08:38:56Z</time>
      </trkpt>
      <trkpt lat="44.45848" lon="6.51581">
        <ele>2856</ele>
        <time>2021-02-21T08:38:57Z</time>
      </trkpt>
      <trkpt lat="44.45848" lon="6.51581">
        <ele>2856</ele>
        <time>2021-02-21T08:38:58Z</time>
      </trkpt>
      <trkpt lat="44.45848" lon="6.51581">
        <ele>2856</ele>
        <time>2021-02-21T08:38:59Z</time>
      </trkpt>
      <trkpt lat="44.45848" lon="6.51581">
        <ele>2856</ele>
        <time>2021-02-21T08:39:00Z</time>
      </trkpt>
      <trkpt lat="44.45848" lon="6.51581">
        <ele>2856</ele>
        <time>2021-02-21T08:39:01Z</time>
      </trkpt>
      <trkpt lat="44.45848" lon="6.51581">
        <ele>2856</ele>
        <time>2021-02-21T08:39:02Z</time>
      </trkpt>
      <trkpt lat="44.45848" lon="6.51581">
        <ele>2856</ele>
        <time>2021-02-21T08:39:03Z</time>
      </trkpt>
      <trkpt lat="44.45848" lon="6.51581">
        <ele>2856</ele>
        <time>2021-02-21T08:39:04Z</time>
      </trkpt>
      <trkpt lat="44.4585" lon="6.5158">
        <ele>2856</ele>
        <time>2021-02-21T08:39:05Z</time>
      </trkpt>
      <trkpt lat="44.4585" lon="6.5158">
        <ele>2856</ele>
        <time>2021-02-21T08:39:06Z</time>
      </trkpt>
      <trkpt lat="44.4585" lon="6.5158">
        <ele>2856</ele>
        <time>2021-02-21T08:39:07Z</time>
      </trkpt>
      <trkpt lat="44.4585" lon="6.5158">
        <ele>2856</ele>
        <time>2021-02-21T08:39:08Z</time>
      </trkpt>
      <trkpt lat="44.4585" lon="6.51581">
        <ele>2856</ele>
        <time>2021-02-21T08:39:09Z</time>
      </trkpt>
      <trkpt lat="44.4585" lon="6.5158">
        <ele>2856</ele>
        <time>2021-02-21T08:39:10Z</time>
      </trkpt>
      <trkpt lat="44.4585" lon="6.5158">
        <ele>2856</ele>
        <time>2021-02-21T08:39:11Z</time>
      </trkpt>
      <trkpt lat="44.4585" lon="6.5158">
        <ele>2856</ele>
        <time>2021-02-21T08:39:12Z</time>
      </trkpt>
      <trkpt lat="44.4585" lon="6.5158">
        <ele>2856</ele>
        <time>2021-02-21T08:39:13Z</time>
      </trkpt>
      <trkpt lat="44.4585" lon="6.5158">
        <ele>2856</ele>
        <time>2021-02-21T08:39:14Z</time>
      </trkpt>
      <trkpt lat="44.4585" lon="6.5158">
        <ele>2856</ele>
        <time>2021-02-21T08:39:15Z</time>
      </trkpt>
      <trkpt lat="44.4585" lon="6.5158">
        <ele>2856</ele>
        <time>2021-02-21T08:39:16Z</time>
      </trkpt>
      <trkpt lat="44.4585" lon="6.5158">
        <ele>2857</ele>
        <time>2021-02-21T08:39:17Z</time>
      </trkpt>
      <trkpt lat="44.4585" lon="6.5158">
        <ele>2857</ele>
        <time>2021-02-21T08:39:18Z</time>
      </trkpt>
      <trkpt lat="44.4585" lon="6.5158">
        <ele>2857</ele>
        <time>2021-02-21T08:39:19Z</time>
      </trkpt>
      <trkpt lat="44.4585" lon="6.5158">
        <ele>2858</ele>
        <time>2021-02-21T08:39:20Z</time>
      </trkpt>
      <trkpt lat="44.4585" lon="6.5158">
        <ele>2858</ele>
        <time>2021-02-21T08:39:21Z</time>
      </trkpt>
      <trkpt lat="44.4585" lon="6.5158">
        <ele>2858</ele>
        <time>2021-02-21T08:39:22Z</time>
      </trkpt>
      <trkpt lat="44.4585" lon="6.5158">
        <ele>2858</ele>
        <time>2021-02-21T08:39:23Z</time>
      </trkpt>
      <trkpt lat="44.4585" lon="6.5158">
        <ele>2858</ele>
        <time>2021-02-21T08:39:24Z</time>
      </trkpt>
      <trkpt lat="44.4585" lon="6.5158">
        <ele>2858</ele>
        <time>2021-02-21T08:39:25Z</time>
      </trkpt>
      <trkpt lat="44.4585" lon="6.5158">
        <ele>2858</ele>
        <time>2021-02-21T08:39:26Z</time>
      </trkpt>
      <trkpt lat="44.4585" lon="6.5158">
        <ele>2858</ele>
        <time>2021-02-21T08:39:27Z</time>
      </trkpt>
      <trkpt lat="44.4585" lon="6.5158">
        <ele>2858</ele>
        <time>2021-02-21T08:39:28Z</time>
      </trkpt>
      <trkpt lat="44.4585" lon="6.5158">
        <ele>2858</ele>
        <time>2021-02-21T08:39:29Z</time>
      </trkpt>
      <trkpt lat="44.4585" lon="6.5158">
        <ele>2858</ele>
        <time>2021-02-21T08:39:30Z</time>
      </trkpt>
      <trkpt lat="44.4585" lon="6.5158">
        <ele>2858</ele>
        <time>2021-02-21T08:39:31Z</time>
      </trkpt>
      <trkpt lat="44.4585" lon="6.5158">
        <ele>2858</ele>
        <time>2021-02-21T08:39:32Z</time>
      </trkpt>
      <trkpt lat="44.4585" lon="6.5158">
        <ele>2858</ele>
        <time>2021-02-21T08:39:33Z</time>
      </trkpt>
      <trkpt lat="44.4585" lon="6.5158">
        <ele>2858</ele>
        <time>2021-02-21T08:39:34Z</time>
      </trkpt>
      <trkpt lat="44.4585" lon="6.5158">
        <ele>2858</ele>
        <time>2021-02-21T08:39:35Z</time>
      </trkpt>
      <trkpt lat="44.4585" lon="6.5158">
        <ele>2858</ele>
        <time>2021-02-21T08:39:36Z</time>
      </trkpt>
      <trkpt lat="44.4585" lon="6.5158">
        <ele>2858</ele>
        <time>2021-02-21T08:39:37Z</time>
      </trkpt>
      <trkpt lat="44.4585" lon="6.5158">
        <ele>2858</ele>
        <time>2021-02-21T08:39:38Z</time>
      </trkpt>
      <trkpt lat="44.4585" lon="6.5158">
        <ele>2858</ele>
        <time>2021-02-21T08:39:39Z</time>
      </trkpt>
      <trkpt lat="44.4585" lon="6.5158">
        <ele>2858</ele>
        <time>2021-02-21T08:39:40Z</time>
      </trkpt>
      <trkpt lat="44.4585" lon="6.5158">
        <ele>2858</ele>
        <time>2021-02-21T08:39:41Z</time>
      </trkpt>
      <trkpt lat="44.4585" lon="6.5158">
        <ele>2858</ele>
        <time>2021-02-21T08:39:42Z</time>
      </trkpt>
      <trkpt lat="44.4585" lon="6.5158">
        <ele>2858</ele>
        <time>2021-02-21T08:39:43Z</time>
      </trkpt>
      <trkpt lat="44.4585" lon="6.5158">
        <ele>2858</ele>
        <time>2021-02-21T08:39:44Z</time>
      </trkpt>
      <trkpt lat="44.4585" lon="6.5158">
        <ele>2858</ele>
        <time>2021-02-21T08:39:45Z</time>
      </trkpt>
      <trkpt lat="44.4585" lon="6.5158">
        <ele>2858</ele>
        <time>2021-02-21T08:39:46Z</time>
      </trkpt>
      <trkpt lat="44.4585" lon="6.5158">
        <ele>2858</ele>
        <time>2021-02-21T08:39:47Z</time>
      </trkpt>
      <trkpt lat="44.4585" lon="6.5158">
        <ele>2858</ele>
        <time>2021-02-21T08:39:48Z</time>
      </trkpt>
      <trkpt lat="44.4585" lon="6.5158">
        <ele>2858</ele>
        <time>2021-02-21T08:39:49Z</time>
      </trkpt>
      <trkpt lat="44.4585" lon="6.5158">
        <ele>2858</ele>
        <time>2021-02-21T08:39:50Z</time>
      </trkpt>
      <trkpt lat="44.4585" lon="6.5158">
        <ele>2858</ele>
        <time>2021-02-21T08:39:51Z</time>
      </trkpt>
      <trkpt lat="44.4585" lon="6.5158">
        <ele>2858</ele>
        <time>2021-02-21T08:39:52Z</time>
      </trkpt>
      <trkpt lat="44.4585" lon="6.5158">
        <ele>2858</ele>
        <time>2021-02-21T08:39:53Z</time>
      </trkpt>
      <trkpt lat="44.4585" lon="6.5158">
        <ele>2858</ele>
        <time>2021-02-21T08:39:54Z</time>
      </trkpt>
      <trkpt lat="44.4585" lon="6.5158">
        <ele>2858</ele>
        <time>2021-02-21T08:39:55Z</time>
      </trkpt>
      <trkpt lat="44.4585" lon="6.5158">
        <ele>2858</ele>
        <time>2021-02-21T08:39:56Z</time>
      </trkpt>
      <trkpt lat="44.4585" lon="6.5158">
        <ele>2858</ele>
        <time>2021-02-21T08:39:57Z</time>
      </trkpt>
      <trkpt lat="44.4585" lon="6.5158">
        <ele>2858</ele>
        <time>2021-02-21T08:39:58Z</time>
      </trkpt>
      <trkpt lat="44.4585" lon="6.5158">
        <ele>2858</ele>
        <time>2021-02-21T08:39:59Z</time>
      </trkpt>
      <trkpt lat="44.4585" lon="6.5158">
        <ele>2858</ele>
        <time>2021-02-21T08:40:00Z</time>
      </trkpt>
      <trkpt lat="44.4585" lon="6.5158">
        <ele>2858</ele>
        <time>2021-02-21T08:40:01Z</time>
      </trkpt>
      <trkpt lat="44.4585" lon="6.5158">
        <ele>2858</ele>
        <time>2021-02-21T08:40:02Z</time>
      </trkpt>
      <trkpt lat="44.4585" lon="6.5158">
        <ele>2858</ele>
        <time>2021-02-21T08:40:03Z</time>
      </trkpt>
      <trkpt lat="44.4585" lon="6.5158">
        <ele>2858</ele>
        <time>2021-02-21T08:40:04Z</time>
      </trkpt>
      <trkpt lat="44.4585" lon="6.5158">
        <ele>2858</ele>
        <time>2021-02-21T08:40:05Z</time>
      </trkpt>
      <trkpt lat="44.4585" lon="6.5158">
        <ele>2858</ele>
        <time>2021-02-21T08:40:06Z</time>
      </trkpt>
      <trkpt lat="44.4585" lon="6.5158">
        <ele>2858</ele>
        <time>2021-02-21T08:40:07Z</time>
      </trkpt>
      <trkpt lat="44.4585" lon="6.5158">
        <ele>2858</ele>
        <time>2021-02-21T08:40:08Z</time>
      </trkpt>
      <trkpt lat="44.4585" lon="6.5158">
        <ele>2858</ele>
        <time>2021-02-21T08:40:09Z</time>
      </trkpt>
      <trkpt lat="44.4585" lon="6.5158">
        <ele>2858</ele>
        <time>2021-02-21T08:40:10Z</time>
      </trkpt>
      <trkpt lat="44.4585" lon="6.5158">
        <ele>2858</ele>
        <time>2021-02-21T08:40:11Z</time>
      </trkpt>
      <trkpt lat="44.4585" lon="6.5158">
        <ele>2858</ele>
        <time>2021-02-21T08:40:12Z</time>
      </trkpt>
      <trkpt lat="44.4585" lon="6.5158">
        <ele>2858</ele>
        <time>2021-02-21T08:40:13Z</time>
      </trkpt>
      <trkpt lat="44.4585" lon="6.5158">
        <ele>2858</ele>
        <time>2021-02-21T08:40:14Z</time>
      </trkpt>
      <trkpt lat="44.4585" lon="6.5158">
        <ele>2858</ele>
        <time>2021-02-21T08:40:15Z</time>
      </trkpt>
      <trkpt lat="44.4585" lon="6.5158">
        <ele>2858</ele>
        <time>2021-02-21T08:40:16Z</time>
      </trkpt>
      <trkpt lat="44.4585" lon="6.5158">
        <ele>2858</ele>
        <time>2021-02-21T08:40:17Z</time>
      </trkpt>
      <trkpt lat="44.4585" lon="6.5158">
        <ele>2858</ele>
        <time>2021-02-21T08:40:18Z</time>
      </trkpt>
      <trkpt lat="44.4585" lon="6.5158">
        <ele>2858</ele>
        <time>2021-02-21T08:40:19Z</time>
      </trkpt>
      <trkpt lat="44.4585" lon="6.5158">
        <ele>2858</ele>
        <time>2021-02-21T08:40:20Z</time>
      </trkpt>
      <trkpt lat="44.4585" lon="6.5158">
        <ele>2858</ele>
        <time>2021-02-21T08:40:21Z</time>
      </trkpt>
      <trkpt lat="44.4585" lon="6.5158">
        <ele>2858</ele>
        <time>2021-02-21T08:40:22Z</time>
      </trkpt>
      <trkpt lat="44.4585" lon="6.5158">
        <ele>2858</ele>
        <time>2021-02-21T08:40:23Z</time>
      </trkpt>
      <trkpt lat="44.4585" lon="6.5158">
        <ele>2858</ele>
        <time>2021-02-21T08:40:24Z</time>
      </trkpt>
      <trkpt lat="44.4585" lon="6.5158">
        <ele>2858</ele>
        <time>2021-02-21T08:40:25Z</time>
      </trkpt>
      <trkpt lat="44.4585" lon="6.5158">
        <ele>2858</ele>
        <time>2021-02-21T08:40:26Z</time>
      </trkpt>
      <trkpt lat="44.4585" lon="6.5158">
        <ele>2858</ele>
        <time>2021-02-21T08:40:27Z</time>
      </trkpt>
      <trkpt lat="44.4585" lon="6.5158">
        <ele>2858</ele>
        <time>2021-02-21T08:40:28Z</time>
      </trkpt>
      <trkpt lat="44.4585" lon="6.5158">
        <ele>2858</ele>
        <time>2021-02-21T08:40:29Z</time>
      </trkpt>
      <trkpt lat="44.4585" lon="6.5158">
        <ele>2858</ele>
        <time>2021-02-21T08:40:30Z</time>
      </trkpt>
      <trkpt lat="44.4585" lon="6.5158">
        <ele>2858</ele>
        <time>2021-02-21T08:40:31Z</time>
      </trkpt>
      <trkpt lat="44.4585" lon="6.5158">
        <ele>2858</ele>
        <time>2021-02-21T08:40:32Z</time>
      </trkpt>
      <trkpt lat="44.4585" lon="6.5158">
        <ele>2858</ele>
        <time>2021-02-21T08:40:33Z</time>
      </trkpt>
      <trkpt lat="44.4585" lon="6.5158">
        <ele>2858</ele>
        <time>2021-02-21T08:40:34Z</time>
      </trkpt>
      <trkpt lat="44.4585" lon="6.5158">
        <ele>2858</ele>
        <time>2021-02-21T08:40:35Z</time>
      </trkpt>
      <trkpt lat="44.4585" lon="6.5158">
        <ele>2858</ele>
        <time>2021-02-21T08:40:36Z</time>
      </trkpt>
      <trkpt lat="44.4585" lon="6.5158">
        <ele>2858</ele>
        <time>2021-02-21T08:40:37Z</time>
      </trkpt>
      <trkpt lat="44.4585" lon="6.5158">
        <ele>2858</ele>
        <time>2021-02-21T08:40:38Z</time>
      </trkpt>
      <trkpt lat="44.4585" lon="6.5158">
        <ele>2858</ele>
        <time>2021-02-21T08:40:39Z</time>
      </trkpt>
      <trkpt lat="44.45849" lon="6.51583">
        <ele>2858</ele>
        <time>2021-02-21T08:40:40Z</time>
      </trkpt>
      <trkpt lat="44.45849" lon="6.51583">
        <ele>2858</ele>
        <time>2021-02-21T08:40:41Z</time>
      </trkpt>
      <trkpt lat="44.45849" lon="6.51582">
        <ele>2858</ele>
        <time>2021-02-21T08:40:42Z</time>
      </trkpt>
      <trkpt lat="44.45849" lon="6.51582">
        <ele>2858</ele>
        <time>2021-02-21T08:40:43Z</time>
      </trkpt>
      <trkpt lat="44.45849" lon="6.51582">
        <ele>2858</ele>
        <time>2021-02-21T08:40:44Z</time>
      </trkpt>
      <trkpt lat="44.45849" lon="6.51582">
        <ele>2858</ele>
        <time>2021-02-21T08:40:45Z</time>
      </trkpt>
      <trkpt lat="44.45849" lon="6.51582">
        <ele>2858</ele>
        <time>2021-02-21T08:40:46Z</time>
      </trkpt>
      <trkpt lat="44.45849" lon="6.51582">
        <ele>2856</ele>
        <time>2021-02-21T08:40:47Z</time>
      </trkpt>
      <trkpt lat="44.45849" lon="6.51582">
        <ele>2856</ele>
        <time>2021-02-21T08:40:48Z</time>
      </trkpt>
      <trkpt lat="44.45849" lon="6.51582">
        <ele>2855</ele>
        <time>2021-02-21T08:40:49Z</time>
      </trkpt>
      <trkpt lat="44.45849" lon="6.51582">
        <ele>2855</ele>
        <time>2021-02-21T08:40:50Z</time>
      </trkpt>
      <trkpt lat="44.45849" lon="6.51582">
        <ele>2855</ele>
        <time>2021-02-21T08:40:51Z</time>
      </trkpt>
      <trkpt lat="44.45849" lon="6.51582">
        <ele>2855</ele>
        <time>2021-02-21T08:40:52Z</time>
      </trkpt>
      <trkpt lat="44.45849" lon="6.51582">
        <ele>2855</ele>
        <time>2021-02-21T08:40:53Z</time>
      </trkpt>
      <trkpt lat="44.45849" lon="6.51581">
        <ele>2855</ele>
        <time>2021-02-21T08:40:54Z</time>
      </trkpt>
      <trkpt lat="44.45849" lon="6.51582">
        <ele>2855</ele>
        <time>2021-02-21T08:40:55Z</time>
      </trkpt>
      <trkpt lat="44.4585" lon="6.51582">
        <ele>2855</ele>
        <time>2021-02-21T08:40:56Z</time>
      </trkpt>
      <trkpt lat="44.4585" lon="6.51582">
        <ele>2855</ele>
        <time>2021-02-21T08:40:57Z</time>
      </trkpt>
      <trkpt lat="44.45849" lon="6.51582">
        <ele>2855</ele>
        <time>2021-02-21T08:40:58Z</time>
      </trkpt>
      <trkpt lat="44.45849" lon="6.51582">
        <ele>2856</ele>
        <time>2021-02-21T08:40:59Z</time>
      </trkpt>
      <trkpt lat="44.45849" lon="6.51582">
        <ele>2856</ele>
        <time>2021-02-21T08:41:00Z</time>
      </trkpt>
      <trkpt lat="44.45849" lon="6.51582">
        <ele>2856</ele>
        <time>2021-02-21T08:41:01Z</time>
      </trkpt>
      <trkpt lat="44.45849" lon="6.51581">
        <ele>2856</ele>
        <time>2021-02-21T08:41:02Z</time>
      </trkpt>
      <trkpt lat="44.45849" lon="6.51581">
        <ele>2856</ele>
        <time>2021-02-21T08:41:03Z</time>
      </trkpt>
      <trkpt lat="44.45849" lon="6.51581">
        <ele>2856</ele>
        <time>2021-02-21T08:41:04Z</time>
      </trkpt>
      <trkpt lat="44.45849" lon="6.51581">
        <ele>2856</ele>
        <time>2021-02-21T08:41:05Z</time>
      </trkpt>
      <trkpt lat="44.45848" lon="6.51581">
        <ele>2856</ele>
        <time>2021-02-21T08:41:06Z</time>
      </trkpt>
      <trkpt lat="44.45848" lon="6.51581">
        <ele>2856</ele>
        <time>2021-02-21T08:41:07Z</time>
      </trkpt>
      <trkpt lat="44.45848" lon="6.51581">
        <ele>2856</ele>
        <time>2021-02-21T08:41:08Z</time>
      </trkpt>
      <trkpt lat="44.45848" lon="6.51581">
        <ele>2856</ele>
        <time>2021-02-21T08:41:09Z</time>
      </trkpt>
      <trkpt lat="44.45848" lon="6.51581">
        <ele>2856</ele>
        <time>2021-02-21T08:41:10Z</time>
      </trkpt>
      <trkpt lat="44.45848" lon="6.51581">
        <ele>2856</ele>
        <time>2021-02-21T08:41:11Z</time>
      </trkpt>
      <trkpt lat="44.45848" lon="6.51581">
        <ele>2856</ele>
        <time>2021-02-21T08:41:12Z</time>
      </trkpt>
      <trkpt lat="44.45848" lon="6.51581">
        <ele>2856</ele>
        <time>2021-02-21T08:41:13Z</time>
      </trkpt>
      <trkpt lat="44.45848" lon="6.51581">
        <ele>2856</ele>
        <time>2021-02-21T08:41:14Z</time>
      </trkpt>
      <trkpt lat="44.45848" lon="6.51581">
        <ele>2856</ele>
        <time>2021-02-21T08:41:15Z</time>
      </trkpt>
      <trkpt lat="44.45848" lon="6.51581">
        <ele>2856</ele>
        <time>2021-02-21T08:41:16Z</time>
      </trkpt>
      <trkpt lat="44.45848" lon="6.51581">
        <ele>2856</ele>
        <time>2021-02-21T08:41:17Z</time>
      </trkpt>
      <trkpt lat="44.45848" lon="6.51581">
        <ele>2856</ele>
        <time>2021-02-21T08:41:18Z</time>
      </trkpt>
      <trkpt lat="44.45848" lon="6.51581">
        <ele>2856</ele>
        <time>2021-02-21T08:41:19Z</time>
      </trkpt>
      <trkpt lat="44.45848" lon="6.51581">
        <ele>2856</ele>
        <time>2021-02-21T08:41:20Z</time>
      </trkpt>
      <trkpt lat="44.45848" lon="6.51581">
        <ele>2856</ele>
        <time>2021-02-21T08:41:21Z</time>
      </trkpt>
      <trkpt lat="44.45848" lon="6.51581">
        <ele>2856</ele>
        <time>2021-02-21T08:41:22Z</time>
      </trkpt>
      <trkpt lat="44.45848" lon="6.51581">
        <ele>2856</ele>
        <time>2021-02-21T08:41:23Z</time>
      </trkpt>
      <trkpt lat="44.45848" lon="6.51581">
        <ele>2856</ele>
        <time>2021-02-21T08:41:24Z</time>
      </trkpt>
      <trkpt lat="44.45848" lon="6.51581">
        <ele>2856</ele>
        <time>2021-02-21T08:41:25Z</time>
      </trkpt>
      <trkpt lat="44.45848" lon="6.51581">
        <ele>2856</ele>
        <time>2021-02-21T08:41:26Z</time>
      </trkpt>
      <trkpt lat="44.45848" lon="6.51581">
        <ele>2856</ele>
        <time>2021-02-21T08:41:27Z</time>
      </trkpt>
      <trkpt lat="44.45848" lon="6.51581">
        <ele>2856</ele>
        <time>2021-02-21T08:41:28Z</time>
      </trkpt>
      <trkpt lat="44.4585" lon="6.51581">
        <ele>2855</ele>
        <time>2021-02-21T08:41:29Z</time>
      </trkpt>
      <trkpt lat="44.45851" lon="6.51582">
        <ele>2855</ele>
        <time>2021-02-21T08:41:30Z</time>
      </trkpt>
      <trkpt lat="44.45851" lon="6.51582">
        <ele>2855</ele>
        <time>2021-02-21T08:41:31Z</time>
      </trkpt>
      <trkpt lat="44.45851" lon="6.51581">
        <ele>2855</ele>
        <time>2021-02-21T08:41:32Z</time>
      </trkpt>
      <trkpt lat="44.45851" lon="6.51581">
        <ele>2855</ele>
        <time>2021-02-21T08:41:33Z</time>
      </trkpt>
      <trkpt lat="44.45851" lon="6.51581">
        <ele>2855</ele>
        <time>2021-02-21T08:41:34Z</time>
      </trkpt>
      <trkpt lat="44.45851" lon="6.51581">
        <ele>2855</ele>
        <time>2021-02-21T08:41:35Z</time>
      </trkpt>
      <trkpt lat="44.45851" lon="6.51581">
        <ele>2855</ele>
        <time>2021-02-21T08:41:36Z</time>
      </trkpt>
      <trkpt lat="44.45851" lon="6.51581">
        <ele>2855</ele>
        <time>2021-02-21T08:41:37Z</time>
      </trkpt>
      <trkpt lat="44.45851" lon="6.51581">
        <ele>2855</ele>
        <time>2021-02-21T08:41:38Z</time>
      </trkpt>
      <trkpt lat="44.45851" lon="6.51581">
        <ele>2855</ele>
        <time>2021-02-21T08:41:39Z</time>
      </trkpt>
      <trkpt lat="44.45851" lon="6.51581">
        <ele>2855</ele>
        <time>2021-02-21T08:41:40Z</time>
      </trkpt>
      <trkpt lat="44.45851" lon="6.51581">
        <ele>2855</ele>
        <time>2021-02-21T08:41:41Z</time>
      </trkpt>
      <trkpt lat="44.45851" lon="6.51581">
        <ele>2855</ele>
        <time>2021-02-21T08:41:42Z</time>
      </trkpt>
      <trkpt lat="44.45851" lon="6.51581">
        <ele>2855</ele>
        <time>2021-02-21T08:41:43Z</time>
      </trkpt>
      <trkpt lat="44.45851" lon="6.51581">
        <ele>2855</ele>
        <time>2021-02-21T08:41:44Z</time>
      </trkpt>
      <trkpt lat="44.45851" lon="6.51581">
        <ele>2855</ele>
        <time>2021-02-21T08:41:45Z</time>
      </trkpt>
      <trkpt lat="44.45851" lon="6.51581">
        <ele>2855</ele>
        <time>2021-02-21T08:41:46Z</time>
      </trkpt>
      <trkpt lat="44.45851" lon="6.51581">
        <ele>2855</ele>
        <time>2021-02-21T08:41:47Z</time>
      </trkpt>
      <trkpt lat="44.45851" lon="6.51581">
        <ele>2855</ele>
        <time>2021-02-21T08:41:48Z</time>
      </trkpt>
      <trkpt lat="44.45851" lon="6.51581">
        <ele>2855</ele>
        <time>2021-02-21T08:41:49Z</time>
      </trkpt>
      <trkpt lat="44.45851" lon="6.51581">
        <ele>2855</ele>
        <time>2021-02-21T08:41:50Z</time>
      </trkpt>
      <trkpt lat="44.45851" lon="6.51581">
        <ele>2855</ele>
        <time>2021-02-21T08:41:51Z</time>
      </trkpt>
      <trkpt lat="44.45851" lon="6.51581">
        <ele>2855</ele>
        <time>2021-02-21T08:41:52Z</time>
      </trkpt>
      <trkpt lat="44.45851" lon="6.51581">
        <ele>2855</ele>
        <time>2021-02-21T08:41:53Z</time>
      </trkpt>
      <trkpt lat="44.45851" lon="6.51581">
        <ele>2855</ele>
        <time>2021-02-21T08:41:54Z</time>
      </trkpt>
      <trkpt lat="44.45851" lon="6.51581">
        <ele>2855</ele>
        <time>2021-02-21T08:41:55Z</time>
      </trkpt>
      <trkpt lat="44.45851" lon="6.51581">
        <ele>2855</ele>
        <time>2021-02-21T08:41:56Z</time>
      </trkpt>
      <trkpt lat="44.45851" lon="6.51581">
        <ele>2855</ele>
        <time>2021-02-21T08:41:57Z</time>
      </trkpt>
      <trkpt lat="44.45851" lon="6.51581">
        <ele>2855</ele>
        <time>2021-02-21T08:41:58Z</time>
      </trkpt>
      <trkpt lat="44.45851" lon="6.51581">
        <ele>2855</ele>
        <time>2021-02-21T08:41:59Z</time>
      </trkpt>
      <trkpt lat="44.45851" lon="6.51581">
        <ele>2855</ele>
        <time>2021-02-21T08:42:00Z</time>
      </trkpt>
      <trkpt lat="44.45851" lon="6.51581">
        <ele>2855</ele>
        <time>2021-02-21T08:42:01Z</time>
      </trkpt>
      <trkpt lat="44.45851" lon="6.51581">
        <ele>2855</ele>
        <time>2021-02-21T08:42:02Z</time>
      </trkpt>
      <trkpt lat="44.45851" lon="6.51581">
        <ele>2855</ele>
        <time>2021-02-21T08:42:03Z</time>
      </trkpt>
      <trkpt lat="44.45851" lon="6.51581">
        <ele>2855</ele>
        <time>2021-02-21T08:42:04Z</time>
      </trkpt>
      <trkpt lat="44.45851" lon="6.51581">
        <ele>2855</ele>
        <time>2021-02-21T08:42:05Z</time>
      </trkpt>
      <trkpt lat="44.45851" lon="6.51581">
        <ele>2855</ele>
        <time>2021-02-21T08:42:06Z</time>
      </trkpt>
      <trkpt lat="44.45851" lon="6.51581">
        <ele>2855</ele>
        <time>2021-02-21T08:42:07Z</time>
      </trkpt>
      <trkpt lat="44.45851" lon="6.51581">
        <ele>2855</ele>
        <time>2021-02-21T08:42:08Z</time>
      </trkpt>
      <trkpt lat="44.45851" lon="6.51581">
        <ele>2855</ele>
        <time>2021-02-21T08:42:09Z</time>
      </trkpt>
      <trkpt lat="44.45851" lon="6.51581">
        <ele>2855</ele>
        <time>2021-02-21T08:42:10Z</time>
      </trkpt>
      <trkpt lat="44.45851" lon="6.51581">
        <ele>2855</ele>
        <time>2021-02-21T08:42:11Z</time>
      </trkpt>
      <trkpt lat="44.45851" lon="6.51581">
        <ele>2855</ele>
        <time>2021-02-21T08:42:12Z</time>
      </trkpt>
      <trkpt lat="44.45851" lon="6.51581">
        <ele>2855</ele>
        <time>2021-02-21T08:42:13Z</time>
      </trkpt>
      <trkpt lat="44.45851" lon="6.51581">
        <ele>2855</ele>
        <time>2021-02-21T08:42:14Z</time>
      </trkpt>
      <trkpt lat="44.45851" lon="6.51581">
        <ele>2855</ele>
        <time>2021-02-21T08:42:15Z</time>
      </trkpt>
      <trkpt lat="44.45848" lon="6.51579">
        <ele>2855</ele>
        <time>2021-02-21T08:42:16Z</time>
      </trkpt>
      <trkpt lat="44.45848" lon="6.5158">
        <ele>2855</ele>
        <time>2021-02-21T08:42:17Z</time>
      </trkpt>
      <trkpt lat="44.45848" lon="6.5158">
        <ele>2855</ele>
        <time>2021-02-21T08:42:18Z</time>
      </trkpt>
      <trkpt lat="44.45848" lon="6.5158">
        <ele>2855</ele>
        <time>2021-02-21T08:42:19Z</time>
      </trkpt>
      <trkpt lat="44.45848" lon="6.5158">
        <ele>2855</ele>
        <time>2021-02-21T08:42:20Z</time>
      </trkpt>
      <trkpt lat="44.45848" lon="6.5158">
        <ele>2855</ele>
        <time>2021-02-21T08:42:21Z</time>
      </trkpt>
      <trkpt lat="44.45848" lon="6.5158">
        <ele>2855</ele>
        <time>2021-02-21T08:42:22Z</time>
      </trkpt>
      <trkpt lat="44.45848" lon="6.5158">
        <ele>2855</ele>
        <time>2021-02-21T08:42:23Z</time>
      </trkpt>
      <trkpt lat="44.45848" lon="6.5158">
        <ele>2855</ele>
        <time>2021-02-21T08:42:24Z</time>
      </trkpt>
      <trkpt lat="44.45848" lon="6.5158">
        <ele>2855</ele>
        <time>2021-02-21T08:42:25Z</time>
      </trkpt>
      <trkpt lat="44.45848" lon="6.5158">
        <ele>2855</ele>
        <time>2021-02-21T08:42:26Z</time>
      </trkpt>
      <trkpt lat="44.45848" lon="6.5158">
        <ele>2855</ele>
        <time>2021-02-21T08:42:27Z</time>
      </trkpt>
      <trkpt lat="44.45848" lon="6.5158">
        <ele>2855</ele>
        <time>2021-02-21T08:42:28Z</time>
      </trkpt>
      <trkpt lat="44.45848" lon="6.5158">
        <ele>2855</ele>
        <time>2021-02-21T08:42:29Z</time>
      </trkpt>
      <trkpt lat="44.45848" lon="6.5158">
        <ele>2855</ele>
        <time>2021-02-21T08:42:30Z</time>
      </trkpt>
      <trkpt lat="44.45848" lon="6.5158">
        <ele>2855</ele>
        <time>2021-02-21T08:42:31Z</time>
      </trkpt>
      <trkpt lat="44.45848" lon="6.5158">
        <ele>2855</ele>
        <time>2021-02-21T08:42:32Z</time>
      </trkpt>
      <trkpt lat="44.45848" lon="6.5158">
        <ele>2855</ele>
        <time>2021-02-21T08:42:33Z</time>
      </trkpt>
      <trkpt lat="44.45848" lon="6.5158">
        <ele>2855</ele>
        <time>2021-02-21T08:42:34Z</time>
      </trkpt>
      <trkpt lat="44.45848" lon="6.5158">
        <ele>2855</ele>
        <time>2021-02-21T08:42:35Z</time>
      </trkpt>
      <trkpt lat="44.45848" lon="6.5158">
        <ele>2855</ele>
        <time>2021-02-21T08:42:36Z</time>
      </trkpt>
      <trkpt lat="44.45848" lon="6.5158">
        <ele>2855</ele>
        <time>2021-02-21T08:42:37Z</time>
      </trkpt>
      <trkpt lat="44.45848" lon="6.5158">
        <ele>2855</ele>
        <time>2021-02-21T08:42:38Z</time>
      </trkpt>
      <trkpt lat="44.45848" lon="6.5158">
        <ele>2855</ele>
        <time>2021-02-21T08:42:39Z</time>
      </trkpt>
      <trkpt lat="44.45848" lon="6.5158">
        <ele>2855</ele>
        <time>2021-02-21T08:42:40Z</time>
      </trkpt>
      <trkpt lat="44.45848" lon="6.5158">
        <ele>2855</ele>
        <time>2021-02-21T08:42:41Z</time>
      </trkpt>
      <trkpt lat="44.45848" lon="6.5158">
        <ele>2855</ele>
        <time>2021-02-21T08:42:42Z</time>
      </trkpt>
      <trkpt lat="44.45848" lon="6.5158">
        <ele>2855</ele>
        <time>2021-02-21T08:42:43Z</time>
      </trkpt>
      <trkpt lat="44.45848" lon="6.5158">
        <ele>2855</ele>
        <time>2021-02-21T08:42:44Z</time>
      </trkpt>
      <trkpt lat="44.45848" lon="6.5158">
        <ele>2855</ele>
        <time>2021-02-21T08:42:45Z</time>
      </trkpt>
      <trkpt lat="44.45848" lon="6.5158">
        <ele>2855</ele>
        <time>2021-02-21T08:42:46Z</time>
      </trkpt>
      <trkpt lat="44.45848" lon="6.5158">
        <ele>2855</ele>
        <time>2021-02-21T08:42:47Z</time>
      </trkpt>
      <trkpt lat="44.45848" lon="6.5158">
        <ele>2855</ele>
        <time>2021-02-21T08:42:48Z</time>
      </trkpt>
      <trkpt lat="44.45848" lon="6.5158">
        <ele>2855</ele>
        <time>2021-02-21T08:42:49Z</time>
      </trkpt>
      <trkpt lat="44.45848" lon="6.5158">
        <ele>2855</ele>
        <time>2021-02-21T08:42:50Z</time>
      </trkpt>
      <trkpt lat="44.45848" lon="6.5158">
        <ele>2855</ele>
        <time>2021-02-21T08:42:51Z</time>
      </trkpt>
      <trkpt lat="44.45848" lon="6.5158">
        <ele>2855</ele>
        <time>2021-02-21T08:42:52Z</time>
      </trkpt>
      <trkpt lat="44.45848" lon="6.5158">
        <ele>2855</ele>
        <time>2021-02-21T08:42:53Z</time>
      </trkpt>
      <trkpt lat="44.45848" lon="6.5158">
        <ele>2855</ele>
        <time>2021-02-21T08:42:54Z</time>
      </trkpt>
      <trkpt lat="44.45848" lon="6.5158">
        <ele>2855</ele>
        <time>2021-02-21T08:42:55Z</time>
      </trkpt>
      <trkpt lat="44.45848" lon="6.5158">
        <ele>2855</ele>
        <time>2021-02-21T08:42:56Z</time>
      </trkpt>
      <trkpt lat="44.45848" lon="6.5158">
        <ele>2855</ele>
        <time>2021-02-21T08:42:57Z</time>
      </trkpt>
      <trkpt lat="44.45848" lon="6.5158">
        <ele>2855</ele>
        <time>2021-02-21T08:42:58Z</time>
      </trkpt>
      <trkpt lat="44.45848" lon="6.5158">
        <ele>2855</ele>
        <time>2021-02-21T08:42:59Z</time>
      </trkpt>
      <trkpt lat="44.45848" lon="6.5158">
        <ele>2855</ele>
        <time>2021-02-21T08:43:00Z</time>
      </trkpt>
      <trkpt lat="44.45848" lon="6.5158">
        <ele>2855</ele>
        <time>2021-02-21T08:43:01Z</time>
      </trkpt>
      <trkpt lat="44.45848" lon="6.5158">
        <ele>2855</ele>
        <time>2021-02-21T08:43:02Z</time>
      </trkpt>
      <trkpt lat="44.45848" lon="6.5158">
        <ele>2855</ele>
        <time>2021-02-21T08:43:03Z</time>
      </trkpt>
      <trkpt lat="44.45848" lon="6.5158">
        <ele>2855</ele>
        <time>2021-02-21T08:43:04Z</time>
      </trkpt>
      <trkpt lat="44.45848" lon="6.5158">
        <ele>2855</ele>
        <time>2021-02-21T08:43:05Z</time>
      </trkpt>
      <trkpt lat="44.45848" lon="6.5158">
        <ele>2855</ele>
        <time>2021-02-21T08:43:06Z</time>
      </trkpt>
      <trkpt lat="44.45848" lon="6.5158">
        <ele>2855</ele>
        <time>2021-02-21T08:43:07Z</time>
      </trkpt>
      <trkpt lat="44.45848" lon="6.5158">
        <ele>2855</ele>
        <time>2021-02-21T08:43:08Z</time>
      </trkpt>
      <trkpt lat="44.45848" lon="6.5158">
        <ele>2855</ele>
        <time>2021-02-21T08:43:09Z</time>
      </trkpt>
      <trkpt lat="44.45848" lon="6.5158">
        <ele>2855</ele>
        <time>2021-02-21T08:43:10Z</time>
      </trkpt>
      <trkpt lat="44.45848" lon="6.5158">
        <ele>2855</ele>
        <time>2021-02-21T08:43:11Z</time>
      </trkpt>
      <trkpt lat="44.45848" lon="6.5158">
        <ele>2855</ele>
        <time>2021-02-21T08:43:12Z</time>
      </trkpt>
      <trkpt lat="44.45848" lon="6.5158">
        <ele>2855</ele>
        <time>2021-02-21T08:43:13Z</time>
      </trkpt>
      <trkpt lat="44.45848" lon="6.5158">
        <ele>2855</ele>
        <time>2021-02-21T08:43:14Z</time>
      </trkpt>
      <trkpt lat="44.45848" lon="6.5158">
        <ele>2855</ele>
        <time>2021-02-21T08:43:15Z</time>
      </trkpt>
      <trkpt lat="44.45848" lon="6.5158">
        <ele>2855</ele>
        <time>2021-02-21T08:43:17Z</time>
      </trkpt>
      <trkpt lat="44.45848" lon="6.5158">
        <ele>2855</ele>
        <time>2021-02-21T08:43:18Z</time>
      </trkpt>
      <trkpt lat="44.45849" lon="6.5158">
        <ele>2855</ele>
        <time>2021-02-21T08:43:19Z</time>
      </trkpt>
      <trkpt lat="44.45849" lon="6.51579">
        <ele>2855</ele>
        <time>2021-02-21T08:43:20Z</time>
      </trkpt>
      <trkpt lat="44.45849" lon="6.51579">
        <ele>2855</ele>
        <time>2021-02-21T08:43:21Z</time>
      </trkpt>
      <trkpt lat="44.45849" lon="6.51578">
        <ele>2855</ele>
        <time>2021-02-21T08:43:22Z</time>
      </trkpt>
      <trkpt lat="44.45849" lon="6.51578">
        <ele>2855</ele>
        <time>2021-02-21T08:43:23Z</time>
      </trkpt>
      <trkpt lat="44.45849" lon="6.51578">
        <ele>2855</ele>
        <time>2021-02-21T08:43:24Z</time>
      </trkpt>
      <trkpt lat="44.45849" lon="6.51578">
        <ele>2855</ele>
        <time>2021-02-21T08:43:25Z</time>
      </trkpt>
      <trkpt lat="44.45849" lon="6.51578">
        <ele>2855</ele>
        <time>2021-02-21T08:43:26Z</time>
      </trkpt>
      <trkpt lat="44.45849" lon="6.51578">
        <ele>2855</ele>
        <time>2021-02-21T08:43:27Z</time>
      </trkpt>
      <trkpt lat="44.45849" lon="6.51578">
        <ele>2855</ele>
        <time>2021-02-21T08:43:28Z</time>
      </trkpt>
      <trkpt lat="44.45849" lon="6.51578">
        <ele>2855</ele>
        <time>2021-02-21T08:43:29Z</time>
      </trkpt>
      <trkpt lat="44.45849" lon="6.51578">
        <ele>2855</ele>
        <time>2021-02-21T08:43:30Z</time>
      </trkpt>
      <trkpt lat="44.45849" lon="6.51578">
        <ele>2855</ele>
        <time>2021-02-21T08:43:31Z</time>
      </trkpt>
      <trkpt lat="44.45849" lon="6.51578">
        <ele>2855</ele>
        <time>2021-02-21T08:43:32Z</time>
      </trkpt>
      <trkpt lat="44.45849" lon="6.51578">
        <ele>2855</ele>
        <time>2021-02-21T08:43:33Z</time>
      </trkpt>
      <trkpt lat="44.45849" lon="6.51577">
        <ele>2855</ele>
        <time>2021-02-21T08:43:34Z</time>
      </trkpt>
      <trkpt lat="44.45849" lon="6.51577">
        <ele>2855</ele>
        <time>2021-02-21T08:43:35Z</time>
      </trkpt>
      <trkpt lat="44.45849" lon="6.51577">
        <ele>2856</ele>
        <time>2021-02-21T08:43:36Z</time>
      </trkpt>
      <trkpt lat="44.45849" lon="6.51577">
        <ele>2856</ele>
        <time>2021-02-21T08:43:37Z</time>
      </trkpt>
      <trkpt lat="44.45849" lon="6.51577">
        <ele>2856</ele>
        <time>2021-02-21T08:43:38Z</time>
      </trkpt>
      <trkpt lat="44.45849" lon="6.51577">
        <ele>2856</ele>
        <time>2021-02-21T08:43:39Z</time>
      </trkpt>
      <trkpt lat="44.45849" lon="6.51577">
        <ele>2856</ele>
        <time>2021-02-21T08:43:40Z</time>
      </trkpt>
      <trkpt lat="44.45849" lon="6.51577">
        <ele>2856</ele>
        <time>2021-02-21T08:43:41Z</time>
      </trkpt>
      <trkpt lat="44.45849" lon="6.51577">
        <ele>2856</ele>
        <time>2021-02-21T08:43:42Z</time>
      </trkpt>
      <trkpt lat="44.45849" lon="6.51577">
        <ele>2856</ele>
        <time>2021-02-21T08:43:43Z</time>
      </trkpt>
      <trkpt lat="44.45849" lon="6.51577">
        <ele>2856</ele>
        <time>2021-02-21T08:43:44Z</time>
      </trkpt>
      <trkpt lat="44.45849" lon="6.51577">
        <ele>2856</ele>
        <time>2021-02-21T08:43:45Z</time>
      </trkpt>
      <trkpt lat="44.45849" lon="6.51577">
        <ele>2856</ele>
        <time>2021-02-21T08:43:46Z</time>
      </trkpt>
      <trkpt lat="44.45849" lon="6.51577">
        <ele>2856</ele>
        <time>2021-02-21T08:43:47Z</time>
      </trkpt>
      <trkpt lat="44.45849" lon="6.51577">
        <ele>2856</ele>
        <time>2021-02-21T08:43:48Z</time>
      </trkpt>
      <trkpt lat="44.45849" lon="6.51577">
        <ele>2856</ele>
        <time>2021-02-21T08:43:49Z</time>
      </trkpt>
      <trkpt lat="44.45849" lon="6.51577">
        <ele>2856</ele>
        <time>2021-02-21T08:43:50Z</time>
      </trkpt>
      <trkpt lat="44.45849" lon="6.51577">
        <ele>2856</ele>
        <time>2021-02-21T08:43:51Z</time>
      </trkpt>
      <trkpt lat="44.45849" lon="6.51577">
        <ele>2856</ele>
        <time>2021-02-21T08:43:52Z</time>
      </trkpt>
      <trkpt lat="44.45849" lon="6.51577">
        <ele>2856</ele>
        <time>2021-02-21T08:43:53Z</time>
      </trkpt>
      <trkpt lat="44.45849" lon="6.51577">
        <ele>2856</ele>
        <time>2021-02-21T08:43:54Z</time>
      </trkpt>
      <trkpt lat="44.45849" lon="6.51577">
        <ele>2856</ele>
        <time>2021-02-21T08:43:55Z</time>
      </trkpt>
      <trkpt lat="44.45849" lon="6.51577">
        <ele>2856</ele>
        <time>2021-02-21T08:43:56Z</time>
      </trkpt>
      <trkpt lat="44.45849" lon="6.51577">
        <ele>2856</ele>
        <time>2021-02-21T08:43:57Z</time>
      </trkpt>
      <trkpt lat="44.4585" lon="6.51576">
        <ele>2856</ele>
        <time>2021-02-21T08:43:58Z</time>
      </trkpt>
      <trkpt lat="44.4585" lon="6.51576">
        <ele>2856</ele>
        <time>2021-02-21T08:43:59Z</time>
      </trkpt>
      <trkpt lat="44.4585" lon="6.51576">
        <ele>2856</ele>
        <time>2021-02-21T08:44:00Z</time>
      </trkpt>
      <trkpt lat="44.4585" lon="6.51576">
        <ele>2856</ele>
        <time>2021-02-21T08:44:01Z</time>
      </trkpt>
      <trkpt lat="44.4585" lon="6.51576">
        <ele>2856</ele>
        <time>2021-02-21T08:44:02Z</time>
      </trkpt>
      <trkpt lat="44.4585" lon="6.51576">
        <ele>2856</ele>
        <time>2021-02-21T08:44:03Z</time>
      </trkpt>
      <trkpt lat="44.4585" lon="6.51576">
        <ele>2856</ele>
        <time>2021-02-21T08:44:04Z</time>
      </trkpt>
      <trkpt lat="44.4585" lon="6.51576">
        <ele>2856</ele>
        <time>2021-02-21T08:44:05Z</time>
      </trkpt>
      <trkpt lat="44.4585" lon="6.51576">
        <ele>2856</ele>
        <time>2021-02-21T08:44:06Z</time>
      </trkpt>
      <trkpt lat="44.4585" lon="6.51576">
        <ele>2856</ele>
        <time>2021-02-21T08:44:07Z</time>
      </trkpt>
      <trkpt lat="44.4585" lon="6.51576">
        <ele>2856</ele>
        <time>2021-02-21T08:44:08Z</time>
      </trkpt>
      <trkpt lat="44.4585" lon="6.51576">
        <ele>2856</ele>
        <time>2021-02-21T08:44:09Z</time>
      </trkpt>
      <trkpt lat="44.4585" lon="6.51576">
        <ele>2856</ele>
        <time>2021-02-21T08:44:10Z</time>
      </trkpt>
      <trkpt lat="44.4585" lon="6.51576">
        <ele>2856</ele>
        <time>2021-02-21T08:44:11Z</time>
      </trkpt>
      <trkpt lat="44.4585" lon="6.51576">
        <ele>2856</ele>
        <time>2021-02-21T08:44:12Z</time>
      </trkpt>
      <trkpt lat="44.4585" lon="6.51576">
        <ele>2856</ele>
        <time>2021-02-21T08:44:13Z</time>
      </trkpt>
      <trkpt lat="44.4585" lon="6.51576">
        <ele>2856</ele>
        <time>2021-02-21T08:44:14Z</time>
      </trkpt>
      <trkpt lat="44.4585" lon="6.51576">
        <ele>2856</ele>
        <time>2021-02-21T08:44:15Z</time>
      </trkpt>
      <trkpt lat="44.4585" lon="6.51576">
        <ele>2856</ele>
        <time>2021-02-21T08:44:16Z</time>
      </trkpt>
      <trkpt lat="44.4585" lon="6.51576">
        <ele>2856</ele>
        <time>2021-02-21T08:44:17Z</time>
      </trkpt>
      <trkpt lat="44.4585" lon="6.51576">
        <ele>2856</ele>
        <time>2021-02-21T08:44:18Z</time>
      </trkpt>
      <trkpt lat="44.4585" lon="6.51576">
        <ele>2856</ele>
        <time>2021-02-21T08:44:19Z</time>
      </trkpt>
      <trkpt lat="44.4585" lon="6.51576">
        <ele>2856</ele>
        <time>2021-02-21T08:44:20Z</time>
      </trkpt>
      <trkpt lat="44.4585" lon="6.51576">
        <ele>2856</ele>
        <time>2021-02-21T08:44:21Z</time>
      </trkpt>
      <trkpt lat="44.4585" lon="6.51576">
        <ele>2856</ele>
        <time>2021-02-21T08:44:22Z</time>
      </trkpt>
      <trkpt lat="44.4585" lon="6.51576">
        <ele>2856</ele>
        <time>2021-02-21T08:44:23Z</time>
      </trkpt>
      <trkpt lat="44.4585" lon="6.51576">
        <ele>2856</ele>
        <time>2021-02-21T08:44:24Z</time>
      </trkpt>
      <trkpt lat="44.4585" lon="6.51576">
        <ele>2856</ele>
        <time>2021-02-21T08:44:25Z</time>
      </trkpt>
      <trkpt lat="44.4585" lon="6.51576">
        <ele>2856</ele>
        <time>2021-02-21T08:44:26Z</time>
      </trkpt>
      <trkpt lat="44.4585" lon="6.51576">
        <ele>2856</ele>
        <time>2021-02-21T08:44:27Z</time>
      </trkpt>
      <trkpt lat="44.4585" lon="6.51576">
        <ele>2856</ele>
        <time>2021-02-21T08:44:28Z</time>
      </trkpt>
      <trkpt lat="44.4585" lon="6.51576">
        <ele>2856</ele>
        <time>2021-02-21T08:44:29Z</time>
      </trkpt>
      <trkpt lat="44.4585" lon="6.51576">
        <ele>2856</ele>
        <time>2021-02-21T08:44:30Z</time>
      </trkpt>
      <trkpt lat="44.4585" lon="6.51576">
        <ele>2856</ele>
        <time>2021-02-21T08:44:31Z</time>
      </trkpt>
      <trkpt lat="44.4585" lon="6.51576">
        <ele>2856</ele>
        <time>2021-02-21T08:44:32Z</time>
      </trkpt>
      <trkpt lat="44.4585" lon="6.51576">
        <ele>2856</ele>
        <time>2021-02-21T08:44:33Z</time>
      </trkpt>
      <trkpt lat="44.4585" lon="6.51576">
        <ele>2856</ele>
        <time>2021-02-21T08:44:34Z</time>
      </trkpt>
      <trkpt lat="44.4585" lon="6.51576">
        <ele>2856</ele>
        <time>2021-02-21T08:44:35Z</time>
      </trkpt>
      <trkpt lat="44.4585" lon="6.51576">
        <ele>2856</ele>
        <time>2021-02-21T08:44:36Z</time>
      </trkpt>
      <trkpt lat="44.4585" lon="6.51576">
        <ele>2856</ele>
        <time>2021-02-21T08:44:37Z</time>
      </trkpt>
      <trkpt lat="44.4585" lon="6.51576">
        <ele>2856</ele>
        <time>2021-02-21T08:44:38Z</time>
      </trkpt>
      <trkpt lat="44.4585" lon="6.51576">
        <ele>2856</ele>
        <time>2021-02-21T08:44:39Z</time>
      </trkpt>
      <trkpt lat="44.4585" lon="6.51576">
        <ele>2856</ele>
        <time>2021-02-21T08:44:40Z</time>
      </trkpt>
      <trkpt lat="44.4585" lon="6.51576">
        <ele>2856</ele>
        <time>2021-02-21T08:44:41Z</time>
      </trkpt>
      <trkpt lat="44.4585" lon="6.51576">
        <ele>2856</ele>
        <time>2021-02-21T08:44:42Z</time>
      </trkpt>
      <trkpt lat="44.4585" lon="6.51576">
        <ele>2856</ele>
        <time>2021-02-21T08:44:43Z</time>
      </trkpt>
      <trkpt lat="44.4585" lon="6.51576">
        <ele>2856</ele>
        <time>2021-02-21T08:44:44Z</time>
      </trkpt>
      <trkpt lat="44.4585" lon="6.51576">
        <ele>2856</ele>
        <time>2021-02-21T08:44:45Z</time>
      </trkpt>
      <trkpt lat="44.4585" lon="6.51576">
        <ele>2856</ele>
        <time>2021-02-21T08:44:46Z</time>
      </trkpt>
      <trkpt lat="44.4585" lon="6.51576">
        <ele>2856</ele>
        <time>2021-02-21T08:44:47Z</time>
      </trkpt>
      <trkpt lat="44.4585" lon="6.51576">
        <ele>2856</ele>
        <time>2021-02-21T08:44:48Z</time>
      </trkpt>
      <trkpt lat="44.4585" lon="6.51576">
        <ele>2856</ele>
        <time>2021-02-21T08:44:49Z</time>
      </trkpt>
      <trkpt lat="44.4585" lon="6.51576">
        <ele>2856</ele>
        <time>2021-02-21T08:44:50Z</time>
      </trkpt>
      <trkpt lat="44.4585" lon="6.51576">
        <ele>2856</ele>
        <time>2021-02-21T08:44:51Z</time>
      </trkpt>
      <trkpt lat="44.4585" lon="6.51576">
        <ele>2856</ele>
        <time>2021-02-21T08:44:52Z</time>
      </trkpt>
      <trkpt lat="44.4585" lon="6.51576">
        <ele>2856</ele>
        <time>2021-02-21T08:44:53Z</time>
      </trkpt>
      <trkpt lat="44.4585" lon="6.51576">
        <ele>2856</ele>
        <time>2021-02-21T08:44:54Z</time>
      </trkpt>
      <trkpt lat="44.4585" lon="6.51576">
        <ele>2856</ele>
        <time>2021-02-21T08:44:55Z</time>
      </trkpt>
      <trkpt lat="44.4585" lon="6.51576">
        <ele>2856</ele>
        <time>2021-02-21T08:44:56Z</time>
      </trkpt>
      <trkpt lat="44.4585" lon="6.51576">
        <ele>2856</ele>
        <time>2021-02-21T08:44:57Z</time>
      </trkpt>
      <trkpt lat="44.4585" lon="6.51576">
        <ele>2856</ele>
        <time>2021-02-21T08:44:58Z</time>
      </trkpt>
      <trkpt lat="44.4585" lon="6.51576">
        <ele>2856</ele>
        <time>2021-02-21T08:44:59Z</time>
      </trkpt>
      <trkpt lat="44.4585" lon="6.51576">
        <ele>2856</ele>
        <time>2021-02-21T08:45:00Z</time>
      </trkpt>
      <trkpt lat="44.4585" lon="6.51576">
        <ele>2856</ele>
        <time>2021-02-21T08:45:01Z</time>
      </trkpt>
      <trkpt lat="44.4585" lon="6.51576">
        <ele>2856</ele>
        <time>2021-02-21T08:45:02Z</time>
      </trkpt>
      <trkpt lat="44.4585" lon="6.51576">
        <ele>2856</ele>
        <time>2021-02-21T08:45:03Z</time>
      </trkpt>
      <trkpt lat="44.4585" lon="6.51576">
        <ele>2856</ele>
        <time>2021-02-21T08:45:04Z</time>
      </trkpt>
      <trkpt lat="44.4585" lon="6.51576">
        <ele>2856</ele>
        <time>2021-02-21T08:45:05Z</time>
      </trkpt>
      <trkpt lat="44.4585" lon="6.51576">
        <ele>2856</ele>
        <time>2021-02-21T08:45:06Z</time>
      </trkpt>
      <trkpt lat="44.4585" lon="6.51576">
        <ele>2856</ele>
        <time>2021-02-21T08:45:07Z</time>
      </trkpt>
      <trkpt lat="44.4585" lon="6.51576">
        <ele>2856</ele>
        <time>2021-02-21T08:45:08Z</time>
      </trkpt>
      <trkpt lat="44.4585" lon="6.51576">
        <ele>2856</ele>
        <time>2021-02-21T08:45:09Z</time>
      </trkpt>
      <trkpt lat="44.4585" lon="6.51576">
        <ele>2856</ele>
        <time>2021-02-21T08:45:11Z</time>
      </trkpt>
      <trkpt lat="44.4585" lon="6.51576">
        <ele>2856</ele>
        <time>2021-02-21T08:45:12Z</time>
      </trkpt>
      <trkpt lat="44.4585" lon="6.51576">
        <ele>2856</ele>
        <time>2021-02-21T08:45:13Z</time>
      </trkpt>
      <trkpt lat="44.4585" lon="6.51576">
        <ele>2856</ele>
        <time>2021-02-21T08:45:14Z</time>
      </trkpt>
      <trkpt lat="44.4585" lon="6.51576">
        <ele>2856</ele>
        <time>2021-02-21T08:45:15Z</time>
      </trkpt>
      <trkpt lat="44.4585" lon="6.51576">
        <ele>2856</ele>
        <time>2021-02-21T08:45:16Z</time>
      </trkpt>
      <trkpt lat="44.4585" lon="6.51576">
        <ele>2856</ele>
        <time>2021-02-21T08:45:17Z</time>
      </trkpt>
      <trkpt lat="44.4585" lon="6.51576">
        <ele>2856</ele>
        <time>2021-02-21T08:45:18Z</time>
      </trkpt>
      <trkpt lat="44.4585" lon="6.51576">
        <ele>2856</ele>
        <time>2021-02-21T08:45:19Z</time>
      </trkpt>
      <trkpt lat="44.4585" lon="6.51576">
        <ele>2856</ele>
        <time>2021-02-21T08:45:20Z</time>
      </trkpt>
      <trkpt lat="44.4585" lon="6.51576">
        <ele>2856</ele>
        <time>2021-02-21T08:45:21Z</time>
      </trkpt>
      <trkpt lat="44.4585" lon="6.51576">
        <ele>2856</ele>
        <time>2021-02-21T08:45:22Z</time>
      </trkpt>
      <trkpt lat="44.4585" lon="6.51576">
        <ele>2856</ele>
        <time>2021-02-21T08:45:23Z</time>
      </trkpt>
      <trkpt lat="44.4585" lon="6.51576">
        <ele>2856</ele>
        <time>2021-02-21T08:45:24Z</time>
      </trkpt>
      <trkpt lat="44.4585" lon="6.51576">
        <ele>2856</ele>
        <time>2021-02-21T08:45:25Z</time>
      </trkpt>
      <trkpt lat="44.4585" lon="6.51576">
        <ele>2856</ele>
        <time>2021-02-21T08:45:26Z</time>
      </trkpt>
      <trkpt lat="44.4585" lon="6.51576">
        <ele>2856</ele>
        <time>2021-02-21T08:45:27Z</time>
      </trkpt>
      <trkpt lat="44.4585" lon="6.51576">
        <ele>2856</ele>
        <time>2021-02-21T08:45:28Z</time>
      </trkpt>
      <trkpt lat="44.4585" lon="6.51576">
        <ele>2856</ele>
        <time>2021-02-21T08:45:29Z</time>
      </trkpt>
      <trkpt lat="44.4585" lon="6.51576">
        <ele>2856</ele>
        <time>2021-02-21T08:45:30Z</time>
      </trkpt>
      <trkpt lat="44.4585" lon="6.51576">
        <ele>2856</ele>
        <time>2021-02-21T08:45:31Z</time>
      </trkpt>
      <trkpt lat="44.4585" lon="6.51576">
        <ele>2856</ele>
        <time>2021-02-21T08:45:32Z</time>
      </trkpt>
      <trkpt lat="44.4585" lon="6.51576">
        <ele>2856</ele>
        <time>2021-02-21T08:45:33Z</time>
      </trkpt>
      <trkpt lat="44.4585" lon="6.51576">
        <ele>2856</ele>
        <time>2021-02-21T08:45:34Z</time>
      </trkpt>
      <trkpt lat="44.4585" lon="6.51576">
        <ele>2856</ele>
        <time>2021-02-21T08:45:35Z</time>
      </trkpt>
      <trkpt lat="44.4585" lon="6.51576">
        <ele>2856</ele>
        <time>2021-02-21T08:45:36Z</time>
      </trkpt>
      <trkpt lat="44.4585" lon="6.51576">
        <ele>2856</ele>
        <time>2021-02-21T08:45:37Z</time>
      </trkpt>
      <trkpt lat="44.4585" lon="6.51576">
        <ele>2856</ele>
        <time>2021-02-21T08:45:38Z</time>
      </trkpt>
      <trkpt lat="44.4585" lon="6.51576">
        <ele>2856</ele>
        <time>2021-02-21T08:45:39Z</time>
      </trkpt>
      <trkpt lat="44.4585" lon="6.51576">
        <ele>2856</ele>
        <time>2021-02-21T08:45:40Z</time>
      </trkpt>
      <trkpt lat="44.4585" lon="6.51576">
        <ele>2856</ele>
        <time>2021-02-21T08:45:41Z</time>
      </trkpt>
      <trkpt lat="44.4585" lon="6.51576">
        <ele>2856</ele>
        <time>2021-02-21T08:45:42Z</time>
      </trkpt>
      <trkpt lat="44.4585" lon="6.51576">
        <ele>2856</ele>
        <time>2021-02-21T08:45:43Z</time>
      </trkpt>
      <trkpt lat="44.4585" lon="6.51576">
        <ele>2856</ele>
        <time>2021-02-21T08:45:44Z</time>
      </trkpt>
      <trkpt lat="44.4585" lon="6.51576">
        <ele>2856</ele>
        <time>2021-02-21T08:45:45Z</time>
      </trkpt>
      <trkpt lat="44.4585" lon="6.51576">
        <ele>2856</ele>
        <time>2021-02-21T08:45:46Z</time>
      </trkpt>
      <trkpt lat="44.4585" lon="6.51576">
        <ele>2856</ele>
        <time>2021-02-21T08:45:47Z</time>
      </trkpt>
      <trkpt lat="44.4585" lon="6.51576">
        <ele>2856</ele>
        <time>2021-02-21T08:45:48Z</time>
      </trkpt>
      <trkpt lat="44.4585" lon="6.51576">
        <ele>2856</ele>
        <time>2021-02-21T08:45:49Z</time>
      </trkpt>
      <trkpt lat="44.4585" lon="6.51576">
        <ele>2856</ele>
        <time>2021-02-21T08:45:50Z</time>
      </trkpt>
      <trkpt lat="44.4585" lon="6.51576">
        <ele>2856</ele>
        <time>2021-02-21T08:45:51Z</time>
      </trkpt>
      <trkpt lat="44.4585" lon="6.51576">
        <ele>2856</ele>
        <time>2021-02-21T08:45:52Z</time>
      </trkpt>
      <trkpt lat="44.45849" lon="6.51579">
        <ele>2856</ele>
        <time>2021-02-21T08:45:53Z</time>
      </trkpt>
      <trkpt lat="44.4585" lon="6.51579">
        <ele>2856</ele>
        <time>2021-02-21T08:45:54Z</time>
      </trkpt>
      <trkpt lat="44.4585" lon="6.51579">
        <ele>2856</ele>
        <time>2021-02-21T08:45:55Z</time>
      </trkpt>
      <trkpt lat="44.4585" lon="6.51579">
        <ele>2857</ele>
        <time>2021-02-21T08:45:56Z</time>
      </trkpt>
      <trkpt lat="44.45851" lon="6.51579">
        <ele>2857</ele>
        <time>2021-02-21T08:45:57Z</time>
      </trkpt>
      <trkpt lat="44.45851" lon="6.51579">
        <ele>2857</ele>
        <time>2021-02-21T08:45:58Z</time>
      </trkpt>
      <trkpt lat="44.45851" lon="6.51579">
        <ele>2857</ele>
        <time>2021-02-21T08:45:59Z</time>
      </trkpt>
      <trkpt lat="44.45851" lon="6.51579">
        <ele>2857</ele>
        <time>2021-02-21T08:46:00Z</time>
      </trkpt>
      <trkpt lat="44.45851" lon="6.51579">
        <ele>2857</ele>
        <time>2021-02-21T08:46:01Z</time>
      </trkpt>
      <trkpt lat="44.45851" lon="6.51578">
        <ele>2857</ele>
        <time>2021-02-21T08:46:02Z</time>
      </trkpt>
      <trkpt lat="44.45851" lon="6.51578">
        <ele>2857</ele>
        <time>2021-02-21T08:46:03Z</time>
      </trkpt>
      <trkpt lat="44.45851" lon="6.51578">
        <ele>2857</ele>
        <time>2021-02-21T08:46:04Z</time>
      </trkpt>
      <trkpt lat="44.45851" lon="6.51578">
        <ele>2857</ele>
        <time>2021-02-21T08:46:05Z</time>
      </trkpt>
      <trkpt lat="44.45851" lon="6.51578">
        <ele>2857</ele>
        <time>2021-02-21T08:46:06Z</time>
      </trkpt>
      <trkpt lat="44.45851" lon="6.51578">
        <ele>2857</ele>
        <time>2021-02-21T08:46:07Z</time>
      </trkpt>
      <trkpt lat="44.45851" lon="6.51578">
        <ele>2857</ele>
        <time>2021-02-21T08:46:08Z</time>
      </trkpt>
      <trkpt lat="44.45851" lon="6.51578">
        <ele>2857</ele>
        <time>2021-02-21T08:46:09Z</time>
      </trkpt>
      <trkpt lat="44.45851" lon="6.51578">
        <ele>2857</ele>
        <time>2021-02-21T08:46:10Z</time>
      </trkpt>
      <trkpt lat="44.45851" lon="6.51578">
        <ele>2857</ele>
        <time>2021-02-21T08:46:11Z</time>
      </trkpt>
      <trkpt lat="44.45851" lon="6.51578">
        <ele>2857</ele>
        <time>2021-02-21T08:46:12Z</time>
      </trkpt>
      <trkpt lat="44.45851" lon="6.51578">
        <ele>2857</ele>
        <time>2021-02-21T08:46:13Z</time>
      </trkpt>
      <trkpt lat="44.45851" lon="6.51578">
        <ele>2857</ele>
        <time>2021-02-21T08:46:14Z</time>
      </trkpt>
      <trkpt lat="44.45851" lon="6.51578">
        <ele>2857</ele>
        <time>2021-02-21T08:46:15Z</time>
      </trkpt>
      <trkpt lat="44.45851" lon="6.51578">
        <ele>2857</ele>
        <time>2021-02-21T08:46:16Z</time>
      </trkpt>
      <trkpt lat="44.45851" lon="6.51578">
        <ele>2857</ele>
        <time>2021-02-21T08:46:17Z</time>
      </trkpt>
      <trkpt lat="44.45851" lon="6.51578">
        <ele>2857</ele>
        <time>2021-02-21T08:46:18Z</time>
      </trkpt>
      <trkpt lat="44.45851" lon="6.51578">
        <ele>2857</ele>
        <time>2021-02-21T08:46:19Z</time>
      </trkpt>
      <trkpt lat="44.45851" lon="6.51578">
        <ele>2857</ele>
        <time>2021-02-21T08:46:20Z</time>
      </trkpt>
      <trkpt lat="44.45851" lon="6.51578">
        <ele>2857</ele>
        <time>2021-02-21T08:46:21Z</time>
      </trkpt>
      <trkpt lat="44.45851" lon="6.51578">
        <ele>2857</ele>
        <time>2021-02-21T08:46:22Z</time>
      </trkpt>
      <trkpt lat="44.45851" lon="6.51578">
        <ele>2857</ele>
        <time>2021-02-21T08:46:23Z</time>
      </trkpt>
      <trkpt lat="44.45851" lon="6.51578">
        <ele>2857</ele>
        <time>2021-02-21T08:46:24Z</time>
      </trkpt>
      <trkpt lat="44.45851" lon="6.51578">
        <ele>2857</ele>
        <time>2021-02-21T08:46:25Z</time>
      </trkpt>
      <trkpt lat="44.45851" lon="6.51578">
        <ele>2857</ele>
        <time>2021-02-21T08:46:26Z</time>
      </trkpt>
      <trkpt lat="44.45851" lon="6.51578">
        <ele>2857</ele>
        <time>2021-02-21T08:46:27Z</time>
      </trkpt>
      <trkpt lat="44.45851" lon="6.51578">
        <ele>2857</ele>
        <time>2021-02-21T08:46:28Z</time>
      </trkpt>
      <trkpt lat="44.45851" lon="6.51578">
        <ele>2857</ele>
        <time>2021-02-21T08:46:29Z</time>
      </trkpt>
      <trkpt lat="44.45851" lon="6.51578">
        <ele>2857</ele>
        <time>2021-02-21T08:46:30Z</time>
      </trkpt>
      <trkpt lat="44.45851" lon="6.51578">
        <ele>2857</ele>
        <time>2021-02-21T08:46:31Z</time>
      </trkpt>
      <trkpt lat="44.45851" lon="6.51578">
        <ele>2857</ele>
        <time>2021-02-21T08:46:32Z</time>
      </trkpt>
      <trkpt lat="44.45851" lon="6.51578">
        <ele>2857</ele>
        <time>2021-02-21T08:46:33Z</time>
      </trkpt>
      <trkpt lat="44.45851" lon="6.51578">
        <ele>2857</ele>
        <time>2021-02-21T08:46:34Z</time>
      </trkpt>
      <trkpt lat="44.45851" lon="6.51578">
        <ele>2857</ele>
        <time>2021-02-21T08:46:35Z</time>
      </trkpt>
      <trkpt lat="44.45851" lon="6.51578">
        <ele>2857</ele>
        <time>2021-02-21T08:46:36Z</time>
      </trkpt>
      <trkpt lat="44.45851" lon="6.51578">
        <ele>2857</ele>
        <time>2021-02-21T08:46:37Z</time>
      </trkpt>
      <trkpt lat="44.45851" lon="6.51578">
        <ele>2857</ele>
        <time>2021-02-21T08:46:38Z</time>
      </trkpt>
      <trkpt lat="44.45851" lon="6.51578">
        <ele>2857</ele>
        <time>2021-02-21T08:46:39Z</time>
      </trkpt>
      <trkpt lat="44.45851" lon="6.51578">
        <ele>2857</ele>
        <time>2021-02-21T08:46:40Z</time>
      </trkpt>
      <trkpt lat="44.45851" lon="6.51578">
        <ele>2857</ele>
        <time>2021-02-21T08:46:41Z</time>
      </trkpt>
      <trkpt lat="44.45851" lon="6.51578">
        <ele>2857</ele>
        <time>2021-02-21T08:46:42Z</time>
      </trkpt>
      <trkpt lat="44.45851" lon="6.51578">
        <ele>2857</ele>
        <time>2021-02-21T08:46:43Z</time>
      </trkpt>
      <trkpt lat="44.45851" lon="6.51578">
        <ele>2857</ele>
        <time>2021-02-21T08:46:44Z</time>
      </trkpt>
      <trkpt lat="44.45848" lon="6.51576">
        <ele>2857</ele>
        <time>2021-02-21T08:46:45Z</time>
      </trkpt>
      <trkpt lat="44.45848" lon="6.51577">
        <ele>2857</ele>
        <time>2021-02-21T08:46:46Z</time>
      </trkpt>
      <trkpt lat="44.45848" lon="6.51577">
        <ele>2857</ele>
        <time>2021-02-21T08:46:47Z</time>
      </trkpt>
      <trkpt lat="44.45848" lon="6.51577">
        <ele>2857</ele>
        <time>2021-02-21T08:46:48Z</time>
      </trkpt>
      <trkpt lat="44.45848" lon="6.51577">
        <ele>2857</ele>
        <time>2021-02-21T08:46:49Z</time>
      </trkpt>
      <trkpt lat="44.45848" lon="6.51577">
        <ele>2857</ele>
        <time>2021-02-21T08:46:50Z</time>
      </trkpt>
      <trkpt lat="44.45848" lon="6.51577">
        <ele>2857</ele>
        <time>2021-02-21T08:46:51Z</time>
      </trkpt>
      <trkpt lat="44.45848" lon="6.51577">
        <ele>2857</ele>
        <time>2021-02-21T08:46:52Z</time>
      </trkpt>
      <trkpt lat="44.45848" lon="6.51577">
        <ele>2857</ele>
        <time>2021-02-21T08:46:53Z</time>
      </trkpt>
      <trkpt lat="44.45848" lon="6.51577">
        <ele>2857</ele>
        <time>2021-02-21T08:46:54Z</time>
      </trkpt>
      <trkpt lat="44.45848" lon="6.51577">
        <ele>2857</ele>
        <time>2021-02-21T08:46:55Z</time>
      </trkpt>
      <trkpt lat="44.45848" lon="6.51578">
        <ele>2857</ele>
        <time>2021-02-21T08:46:56Z</time>
      </trkpt>
      <trkpt lat="44.45848" lon="6.51578">
        <ele>2857</ele>
        <time>2021-02-21T08:46:57Z</time>
      </trkpt>
      <trkpt lat="44.45848" lon="6.51578">
        <ele>2857</ele>
        <time>2021-02-21T08:46:58Z</time>
      </trkpt>
      <trkpt lat="44.45848" lon="6.51578">
        <ele>2857</ele>
        <time>2021-02-21T08:46:59Z</time>
      </trkpt>
      <trkpt lat="44.45848" lon="6.51578">
        <ele>2857</ele>
        <time>2021-02-21T08:47:00Z</time>
      </trkpt>
      <trkpt lat="44.45848" lon="6.51578">
        <ele>2857</ele>
        <time>2021-02-21T08:47:01Z</time>
      </trkpt>
      <trkpt lat="44.45848" lon="6.51578">
        <ele>2857</ele>
        <time>2021-02-21T08:47:02Z</time>
      </trkpt>
      <trkpt lat="44.45848" lon="6.51578">
        <ele>2857</ele>
        <time>2021-02-21T08:47:03Z</time>
      </trkpt>
      <trkpt lat="44.45848" lon="6.51578">
        <ele>2858</ele>
        <time>2021-02-21T08:47:04Z</time>
      </trkpt>
      <trkpt lat="44.45848" lon="6.51578">
        <ele>2858</ele>
        <time>2021-02-21T08:47:05Z</time>
      </trkpt>
      <trkpt lat="44.45848" lon="6.51578">
        <ele>2858</ele>
        <time>2021-02-21T08:47:06Z</time>
      </trkpt>
      <trkpt lat="44.45848" lon="6.51578">
        <ele>2858</ele>
        <time>2021-02-21T08:47:07Z</time>
      </trkpt>
      <trkpt lat="44.45848" lon="6.51578">
        <ele>2858</ele>
        <time>2021-02-21T08:47:08Z</time>
      </trkpt>
      <trkpt lat="44.45848" lon="6.51578">
        <ele>2858</ele>
        <time>2021-02-21T08:47:09Z</time>
      </trkpt>
      <trkpt lat="44.45848" lon="6.51578">
        <ele>2858</ele>
        <time>2021-02-21T08:47:10Z</time>
      </trkpt>
      <trkpt lat="44.45848" lon="6.51578">
        <ele>2858</ele>
        <time>2021-02-21T08:47:11Z</time>
      </trkpt>
      <trkpt lat="44.45848" lon="6.51578">
        <ele>2858</ele>
        <time>2021-02-21T08:47:12Z</time>
      </trkpt>
      <trkpt lat="44.45848" lon="6.51578">
        <ele>2858</ele>
        <time>2021-02-21T08:47:13Z</time>
      </trkpt>
      <trkpt lat="44.45848" lon="6.51578">
        <ele>2858</ele>
        <time>2021-02-21T08:47:14Z</time>
      </trkpt>
      <trkpt lat="44.45848" lon="6.51578">
        <ele>2858</ele>
        <time>2021-02-21T08:47:15Z</time>
      </trkpt>
      <trkpt lat="44.45848" lon="6.51578">
        <ele>2858</ele>
        <time>2021-02-21T08:47:16Z</time>
      </trkpt>
      <trkpt lat="44.45848" lon="6.51578">
        <ele>2858</ele>
        <time>2021-02-21T08:47:17Z</time>
      </trkpt>
      <trkpt lat="44.45848" lon="6.51578">
        <ele>2858</ele>
        <time>2021-02-21T08:47:18Z</time>
      </trkpt>
      <trkpt lat="44.45848" lon="6.51578">
        <ele>2858</ele>
        <time>2021-02-21T08:47:19Z</time>
      </trkpt>
      <trkpt lat="44.45848" lon="6.51578">
        <ele>2858</ele>
        <time>2021-02-21T08:47:20Z</time>
      </trkpt>
      <trkpt lat="44.45848" lon="6.51578">
        <ele>2858</ele>
        <time>2021-02-21T08:47:21Z</time>
      </trkpt>
      <trkpt lat="44.45848" lon="6.51578">
        <ele>2858</ele>
        <time>2021-02-21T08:47:22Z</time>
      </trkpt>
      <trkpt lat="44.45848" lon="6.51578">
        <ele>2858</ele>
        <time>2021-02-21T08:47:23Z</time>
      </trkpt>
      <trkpt lat="44.45848" lon="6.51578">
        <ele>2858</ele>
        <time>2021-02-21T08:47:24Z</time>
      </trkpt>
      <trkpt lat="44.45848" lon="6.51578">
        <ele>2858</ele>
        <time>2021-02-21T08:47:25Z</time>
      </trkpt>
      <trkpt lat="44.45848" lon="6.51578">
        <ele>2858</ele>
        <time>2021-02-21T08:47:26Z</time>
      </trkpt>
      <trkpt lat="44.45848" lon="6.51578">
        <ele>2858</ele>
        <time>2021-02-21T08:47:27Z</time>
      </trkpt>
      <trkpt lat="44.45848" lon="6.51578">
        <ele>2858</ele>
        <time>2021-02-21T08:47:28Z</time>
      </trkpt>
      <trkpt lat="44.45848" lon="6.51578">
        <ele>2858</ele>
        <time>2021-02-21T08:47:29Z</time>
      </trkpt>
      <trkpt lat="44.45848" lon="6.51578">
        <ele>2858</ele>
        <time>2021-02-21T08:47:30Z</time>
      </trkpt>
      <trkpt lat="44.45848" lon="6.51578">
        <ele>2858</ele>
        <time>2021-02-21T08:47:31Z</time>
      </trkpt>
      <trkpt lat="44.45848" lon="6.51578">
        <ele>2858</ele>
        <time>2021-02-21T08:47:32Z</time>
      </trkpt>
      <trkpt lat="44.45848" lon="6.51578">
        <ele>2858</ele>
        <time>2021-02-21T08:47:33Z</time>
      </trkpt>
      <trkpt lat="44.45848" lon="6.51578">
        <ele>2858</ele>
        <time>2021-02-21T08:47:34Z</time>
      </trkpt>
      <trkpt lat="44.45848" lon="6.51578">
        <ele>2858</ele>
        <time>2021-02-21T08:47:35Z</time>
      </trkpt>
      <trkpt lat="44.45848" lon="6.51578">
        <ele>2858</ele>
        <time>2021-02-21T08:47:36Z</time>
      </trkpt>
      <trkpt lat="44.45848" lon="6.51578">
        <ele>2858</ele>
        <time>2021-02-21T08:47:37Z</time>
      </trkpt>
      <trkpt lat="44.45848" lon="6.51578">
        <ele>2858</ele>
        <time>2021-02-21T08:47:38Z</time>
      </trkpt>
      <trkpt lat="44.45848" lon="6.51578">
        <ele>2858</ele>
        <time>2021-02-21T08:47:39Z</time>
      </trkpt>
      <trkpt lat="44.45848" lon="6.51578">
        <ele>2858</ele>
        <time>2021-02-21T08:47:40Z</time>
      </trkpt>
      <trkpt lat="44.45848" lon="6.51578">
        <ele>2858</ele>
        <time>2021-02-21T08:47:41Z</time>
      </trkpt>
      <trkpt lat="44.45848" lon="6.51578">
        <ele>2858</ele>
        <time>2021-02-21T08:47:42Z</time>
      </trkpt>
      <trkpt lat="44.45848" lon="6.51578">
        <ele>2858</ele>
        <time>2021-02-21T08:47:43Z</time>
      </trkpt>
      <trkpt lat="44.45848" lon="6.51578">
        <ele>2858</ele>
        <time>2021-02-21T08:47:44Z</time>
      </trkpt>
      <trkpt lat="44.45848" lon="6.51578">
        <ele>2858</ele>
        <time>2021-02-21T08:47:45Z</time>
      </trkpt>
      <trkpt lat="44.45848" lon="6.51578">
        <ele>2858</ele>
        <time>2021-02-21T08:47:46Z</time>
      </trkpt>
      <trkpt lat="44.45848" lon="6.51578">
        <ele>2858</ele>
        <time>2021-02-21T08:47:47Z</time>
      </trkpt>
      <trkpt lat="44.45848" lon="6.51578">
        <ele>2858</ele>
        <time>2021-02-21T08:47:48Z</time>
      </trkpt>
      <trkpt lat="44.45848" lon="6.51578">
        <ele>2858</ele>
        <time>2021-02-21T08:47:49Z</time>
      </trkpt>
      <trkpt lat="44.45848" lon="6.51578">
        <ele>2858</ele>
        <time>2021-02-21T08:47:50Z</time>
      </trkpt>
      <trkpt lat="44.45848" lon="6.51578">
        <ele>2858</ele>
        <time>2021-02-21T08:47:51Z</time>
      </trkpt>
      <trkpt lat="44.45848" lon="6.51578">
        <ele>2858</ele>
        <time>2021-02-21T08:47:52Z</time>
      </trkpt>
      <trkpt lat="44.45848" lon="6.51578">
        <ele>2858</ele>
        <time>2021-02-21T08:47:53Z</time>
      </trkpt>
      <trkpt lat="44.45848" lon="6.51578">
        <ele>2858</ele>
        <time>2021-02-21T08:47:54Z</time>
      </trkpt>
      <trkpt lat="44.45848" lon="6.51578">
        <ele>2858</ele>
        <time>2021-02-21T08:47:55Z</time>
      </trkpt>
      <trkpt lat="44.45848" lon="6.51578">
        <ele>2858</ele>
        <time>2021-02-21T08:47:56Z</time>
      </trkpt>
      <trkpt lat="44.45848" lon="6.51578">
        <ele>2858</ele>
        <time>2021-02-21T08:47:57Z</time>
      </trkpt>
      <trkpt lat="44.45848" lon="6.51578">
        <ele>2858</ele>
        <time>2021-02-21T08:47:58Z</time>
      </trkpt>
      <trkpt lat="44.45848" lon="6.51578">
        <ele>2858</ele>
        <time>2021-02-21T08:47:59Z</time>
      </trkpt>
      <trkpt lat="44.45848" lon="6.51578">
        <ele>2858</ele>
        <time>2021-02-21T08:48:00Z</time>
      </trkpt>
      <trkpt lat="44.45848" lon="6.51578">
        <ele>2858</ele>
        <time>2021-02-21T08:48:01Z</time>
      </trkpt>
      <trkpt lat="44.45848" lon="6.51578">
        <ele>2858</ele>
        <time>2021-02-21T08:48:02Z</time>
      </trkpt>
      <trkpt lat="44.45848" lon="6.51578">
        <ele>2858</ele>
        <time>2021-02-21T08:48:03Z</time>
      </trkpt>
      <trkpt lat="44.45848" lon="6.51578">
        <ele>2858</ele>
        <time>2021-02-21T08:48:04Z</time>
      </trkpt>
      <trkpt lat="44.45848" lon="6.51578">
        <ele>2858</ele>
        <time>2021-02-21T08:48:05Z</time>
      </trkpt>
      <trkpt lat="44.45848" lon="6.51578">
        <ele>2858</ele>
        <time>2021-02-21T08:48:06Z</time>
      </trkpt>
      <trkpt lat="44.45848" lon="6.51578">
        <ele>2858</ele>
        <time>2021-02-21T08:48:07Z</time>
      </trkpt>
      <trkpt lat="44.45848" lon="6.51578">
        <ele>2858</ele>
        <time>2021-02-21T08:48:08Z</time>
      </trkpt>
      <trkpt lat="44.45848" lon="6.51578">
        <ele>2858</ele>
        <time>2021-02-21T08:48:09Z</time>
      </trkpt>
      <trkpt lat="44.45848" lon="6.51578">
        <ele>2858</ele>
        <time>2021-02-21T08:48:10Z</time>
      </trkpt>
      <trkpt lat="44.45848" lon="6.51578">
        <ele>2858</ele>
        <time>2021-02-21T08:48:11Z</time>
      </trkpt>
      <trkpt lat="44.45848" lon="6.51578">
        <ele>2858</ele>
        <time>2021-02-21T08:48:12Z</time>
      </trkpt>
      <trkpt lat="44.45848" lon="6.51578">
        <ele>2858</ele>
        <time>2021-02-21T08:48:13Z</time>
      </trkpt>
      <trkpt lat="44.45848" lon="6.51578">
        <ele>2858</ele>
        <time>2021-02-21T08:48:14Z</time>
      </trkpt>
      <trkpt lat="44.45848" lon="6.51578">
        <ele>2858</ele>
        <time>2021-02-21T08:48:15Z</time>
      </trkpt>
      <trkpt lat="44.45848" lon="6.51578">
        <ele>2858</ele>
        <time>2021-02-21T08:48:16Z</time>
      </trkpt>
      <trkpt lat="44.45848" lon="6.51578">
        <ele>2858</ele>
        <time>2021-02-21T08:48:17Z</time>
      </trkpt>
      <trkpt lat="44.45848" lon="6.51578">
        <ele>2858</ele>
        <time>2021-02-21T08:48:18Z</time>
      </trkpt>
      <trkpt lat="44.45848" lon="6.51578">
        <ele>2858</ele>
        <time>2021-02-21T08:48:19Z</time>
      </trkpt>
      <trkpt lat="44.45848" lon="6.51578">
        <ele>2858</ele>
        <time>2021-02-21T08:48:20Z</time>
      </trkpt>
      <trkpt lat="44.45848" lon="6.51578">
        <ele>2858</ele>
        <time>2021-02-21T08:48:21Z</time>
      </trkpt>
      <trkpt lat="44.45848" lon="6.51578">
        <ele>2858</ele>
        <time>2021-02-21T08:48:22Z</time>
      </trkpt>
      <trkpt lat="44.45848" lon="6.51578">
        <ele>2858</ele>
        <time>2021-02-21T08:48:23Z</time>
      </trkpt>
      <trkpt lat="44.45848" lon="6.51578">
        <ele>2858</ele>
        <time>2021-02-21T08:48:24Z</time>
      </trkpt>
      <trkpt lat="44.45848" lon="6.51578">
        <ele>2858</ele>
        <time>2021-02-21T08:48:25Z</time>
      </trkpt>
      <trkpt lat="44.45848" lon="6.51578">
        <ele>2858</ele>
        <time>2021-02-21T08:48:26Z</time>
      </trkpt>
      <trkpt lat="44.45848" lon="6.51578">
        <ele>2858</ele>
        <time>2021-02-21T08:48:27Z</time>
      </trkpt>
      <trkpt lat="44.45848" lon="6.51578">
        <ele>2858</ele>
        <time>2021-02-21T08:48:28Z</time>
      </trkpt>
      <trkpt lat="44.45848" lon="6.51578">
        <ele>2858</ele>
        <time>2021-02-21T08:48:29Z</time>
      </trkpt>
      <trkpt lat="44.45848" lon="6.51578">
        <ele>2858</ele>
        <time>2021-02-21T08:48:30Z</time>
      </trkpt>
      <trkpt lat="44.45848" lon="6.51578">
        <ele>2858</ele>
        <time>2021-02-21T08:48:31Z</time>
      </trkpt>
      <trkpt lat="44.45848" lon="6.51578">
        <ele>2858</ele>
        <time>2021-02-21T08:48:32Z</time>
      </trkpt>
      <trkpt lat="44.45848" lon="6.51578">
        <ele>2858</ele>
        <time>2021-02-21T08:48:33Z</time>
      </trkpt>
      <trkpt lat="44.45848" lon="6.51578">
        <ele>2858</ele>
        <time>2021-02-21T08:48:34Z</time>
      </trkpt>
      <trkpt lat="44.45848" lon="6.51578">
        <ele>2858</ele>
        <time>2021-02-21T08:48:35Z</time>
      </trkpt>
      <trkpt lat="44.45848" lon="6.51578">
        <ele>2858</ele>
        <time>2021-02-21T08:48:36Z</time>
      </trkpt>
      <trkpt lat="44.45848" lon="6.51578">
        <ele>2858</ele>
        <time>2021-02-21T08:48:37Z</time>
      </trkpt>
      <trkpt lat="44.45848" lon="6.51578">
        <ele>2858</ele>
        <time>2021-02-21T08:48:38Z</time>
      </trkpt>
      <trkpt lat="44.45848" lon="6.51578">
        <ele>2858</ele>
        <time>2021-02-21T08:48:39Z</time>
      </trkpt>
      <trkpt lat="44.45848" lon="6.51578">
        <ele>2858</ele>
        <time>2021-02-21T08:48:40Z</time>
      </trkpt>
      <trkpt lat="44.45848" lon="6.51578">
        <ele>2858</ele>
        <time>2021-02-21T08:48:41Z</time>
      </trkpt>
      <trkpt lat="44.45848" lon="6.51578">
        <ele>2858</ele>
        <time>2021-02-21T08:48:42Z</time>
      </trkpt>
      <trkpt lat="44.45848" lon="6.51578">
        <ele>2858</ele>
        <time>2021-02-21T08:48:43Z</time>
      </trkpt>
      <trkpt lat="44.45848" lon="6.51578">
        <ele>2858</ele>
        <time>2021-02-21T08:48:44Z</time>
      </trkpt>
      <trkpt lat="44.45848" lon="6.51578">
        <ele>2858</ele>
        <time>2021-02-21T08:48:45Z</time>
      </trkpt>
      <trkpt lat="44.45848" lon="6.51578">
        <ele>2858</ele>
        <time>2021-02-21T08:48:46Z</time>
      </trkpt>
      <trkpt lat="44.45848" lon="6.51578">
        <ele>2858</ele>
        <time>2021-02-21T08:48:47Z</time>
      </trkpt>
      <trkpt lat="44.45848" lon="6.51578">
        <ele>2858</ele>
        <time>2021-02-21T08:48:48Z</time>
      </trkpt>
      <trkpt lat="44.45848" lon="6.51578">
        <ele>2858</ele>
        <time>2021-02-21T08:48:49Z</time>
      </trkpt>
      <trkpt lat="44.45848" lon="6.51578">
        <ele>2858</ele>
        <time>2021-02-21T08:48:50Z</time>
      </trkpt>
      <trkpt lat="44.45848" lon="6.51578">
        <ele>2858</ele>
        <time>2021-02-21T08:48:51Z</time>
      </trkpt>
      <trkpt lat="44.45848" lon="6.51578">
        <ele>2858</ele>
        <time>2021-02-21T08:48:52Z</time>
      </trkpt>
      <trkpt lat="44.45848" lon="6.51578">
        <ele>2858</ele>
        <time>2021-02-21T08:48:53Z</time>
      </trkpt>
      <trkpt lat="44.45848" lon="6.51578">
        <ele>2858</ele>
        <time>2021-02-21T08:48:54Z</time>
      </trkpt>
      <trkpt lat="44.45848" lon="6.51578">
        <ele>2858</ele>
        <time>2021-02-21T08:48:55Z</time>
      </trkpt>
      <trkpt lat="44.45848" lon="6.51578">
        <ele>2858</ele>
        <time>2021-02-21T08:48:56Z</time>
      </trkpt>
      <trkpt lat="44.45848" lon="6.51578">
        <ele>2858</ele>
        <time>2021-02-21T08:48:57Z</time>
      </trkpt>
      <trkpt lat="44.45848" lon="6.51578">
        <ele>2858</ele>
        <time>2021-02-21T08:48:58Z</time>
      </trkpt>
      <trkpt lat="44.45848" lon="6.51578">
        <ele>2858</ele>
        <time>2021-02-21T08:48:59Z</time>
      </trkpt>
      <trkpt lat="44.45848" lon="6.51578">
        <ele>2858</ele>
        <time>2021-02-21T08:49:00Z</time>
      </trkpt>
      <trkpt lat="44.45848" lon="6.51578">
        <ele>2858</ele>
        <time>2021-02-21T08:49:01Z</time>
      </trkpt>
      <trkpt lat="44.45848" lon="6.51578">
        <ele>2858</ele>
        <time>2021-02-21T08:49:02Z</time>
      </trkpt>
      <trkpt lat="44.45848" lon="6.51578">
        <ele>2858</ele>
        <time>2021-02-21T08:49:03Z</time>
      </trkpt>
      <trkpt lat="44.45848" lon="6.51578">
        <ele>2858</ele>
        <time>2021-02-21T08:49:04Z</time>
      </trkpt>
      <trkpt lat="44.45848" lon="6.51578">
        <ele>2858</ele>
        <time>2021-02-21T08:49:05Z</time>
      </trkpt>
      <trkpt lat="44.45848" lon="6.51578">
        <ele>2858</ele>
        <time>2021-02-21T08:49:06Z</time>
      </trkpt>
      <trkpt lat="44.45848" lon="6.51578">
        <ele>2858</ele>
        <time>2021-02-21T08:49:07Z</time>
      </trkpt>
      <trkpt lat="44.45848" lon="6.51578">
        <ele>2858</ele>
        <time>2021-02-21T08:49:08Z</time>
      </trkpt>
      <trkpt lat="44.45848" lon="6.51578">
        <ele>2858</ele>
        <time>2021-02-21T08:49:09Z</time>
      </trkpt>
      <trkpt lat="44.45848" lon="6.51578">
        <ele>2858</ele>
        <time>2021-02-21T08:49:10Z</time>
      </trkpt>
      <trkpt lat="44.45848" lon="6.51578">
        <ele>2858</ele>
        <time>2021-02-21T08:49:11Z</time>
      </trkpt>
      <trkpt lat="44.45848" lon="6.51578">
        <ele>2858</ele>
        <time>2021-02-21T08:49:12Z</time>
      </trkpt>
      <trkpt lat="44.45848" lon="6.51578">
        <ele>2858</ele>
        <time>2021-02-21T08:49:13Z</time>
      </trkpt>
      <trkpt lat="44.45848" lon="6.51578">
        <ele>2858</ele>
        <time>2021-02-21T08:49:14Z</time>
      </trkpt>
      <trkpt lat="44.45848" lon="6.51578">
        <ele>2858</ele>
        <time>2021-02-21T08:49:15Z</time>
      </trkpt>
      <trkpt lat="44.45848" lon="6.51578">
        <ele>2858</ele>
        <time>2021-02-21T08:49:16Z</time>
      </trkpt>
      <trkpt lat="44.45848" lon="6.51578">
        <ele>2858</ele>
        <time>2021-02-21T08:49:17Z</time>
      </trkpt>
      <trkpt lat="44.45848" lon="6.51578">
        <ele>2858</ele>
        <time>2021-02-21T08:49:18Z</time>
      </trkpt>
      <trkpt lat="44.45848" lon="6.51578">
        <ele>2858</ele>
        <time>2021-02-21T08:49:19Z</time>
      </trkpt>
      <trkpt lat="44.45848" lon="6.51578">
        <ele>2858</ele>
        <time>2021-02-21T08:49:20Z</time>
      </trkpt>
      <trkpt lat="44.45848" lon="6.51578">
        <ele>2858</ele>
        <time>2021-02-21T08:49:21Z</time>
      </trkpt>
      <trkpt lat="44.45847" lon="6.51578">
        <ele>2858</ele>
        <time>2021-02-21T08:49:22Z</time>
      </trkpt>
      <trkpt lat="44.45847" lon="6.51578">
        <ele>2858</ele>
        <time>2021-02-21T08:49:23Z</time>
      </trkpt>
      <trkpt lat="44.45847" lon="6.51578">
        <ele>2858</ele>
        <time>2021-02-21T08:49:24Z</time>
      </trkpt>
      <trkpt lat="44.45847" lon="6.51578">
        <ele>2858</ele>
        <time>2021-02-21T08:49:25Z</time>
      </trkpt>
      <trkpt lat="44.45847" lon="6.51578">
        <ele>2858</ele>
        <time>2021-02-21T08:49:26Z</time>
      </trkpt>
      <trkpt lat="44.45847" lon="6.51578">
        <ele>2858</ele>
        <time>2021-02-21T08:49:27Z</time>
      </trkpt>
      <trkpt lat="44.45847" lon="6.51578">
        <ele>2858</ele>
        <time>2021-02-21T08:49:28Z</time>
      </trkpt>
      <trkpt lat="44.45847" lon="6.51578">
        <ele>2858</ele>
        <time>2021-02-21T08:49:29Z</time>
      </trkpt>
      <trkpt lat="44.45847" lon="6.51578">
        <ele>2858</ele>
        <time>2021-02-21T08:49:30Z</time>
      </trkpt>
      <trkpt lat="44.45847" lon="6.51578">
        <ele>2858</ele>
        <time>2021-02-21T08:49:31Z</time>
      </trkpt>
      <trkpt lat="44.45847" lon="6.51578">
        <ele>2858</ele>
        <time>2021-02-21T08:49:32Z</time>
      </trkpt>
      <trkpt lat="44.45847" lon="6.51578">
        <ele>2858</ele>
        <time>2021-02-21T08:49:33Z</time>
      </trkpt>
      <trkpt lat="44.45847" lon="6.51578">
        <ele>2858</ele>
        <time>2021-02-21T08:49:34Z</time>
      </trkpt>
      <trkpt lat="44.45847" lon="6.51578">
        <ele>2858</ele>
        <time>2021-02-21T08:49:35Z</time>
      </trkpt>
      <trkpt lat="44.45847" lon="6.51578">
        <ele>2858</ele>
        <time>2021-02-21T08:49:36Z</time>
      </trkpt>
      <trkpt lat="44.45847" lon="6.51578">
        <ele>2858</ele>
        <time>2021-02-21T08:49:37Z</time>
      </trkpt>
      <trkpt lat="44.45847" lon="6.51578">
        <ele>2858</ele>
        <time>2021-02-21T08:49:38Z</time>
      </trkpt>
      <trkpt lat="44.45847" lon="6.51578">
        <ele>2858</ele>
        <time>2021-02-21T08:49:39Z</time>
      </trkpt>
      <trkpt lat="44.45847" lon="6.51578">
        <ele>2857</ele>
        <time>2021-02-21T08:49:40Z</time>
      </trkpt>
      <trkpt lat="44.45847" lon="6.51578">
        <ele>2857</ele>
        <time>2021-02-21T08:49:41Z</time>
      </trkpt>
      <trkpt lat="44.45847" lon="6.51578">
        <ele>2857</ele>
        <time>2021-02-21T08:49:42Z</time>
      </trkpt>
      <trkpt lat="44.45847" lon="6.51578">
        <ele>2857</ele>
        <time>2021-02-21T08:49:43Z</time>
      </trkpt>
      <trkpt lat="44.45847" lon="6.51578">
        <ele>2857</ele>
        <time>2021-02-21T08:49:44Z</time>
      </trkpt>
      <trkpt lat="44.45847" lon="6.51578">
        <ele>2857</ele>
        <time>2021-02-21T08:49:45Z</time>
      </trkpt>
      <trkpt lat="44.45847" lon="6.51578">
        <ele>2857</ele>
        <time>2021-02-21T08:49:46Z</time>
      </trkpt>
      <trkpt lat="44.45847" lon="6.51578">
        <ele>2857</ele>
        <time>2021-02-21T08:49:47Z</time>
      </trkpt>
      <trkpt lat="44.45847" lon="6.51578">
        <ele>2857</ele>
        <time>2021-02-21T08:49:48Z</time>
      </trkpt>
      <trkpt lat="44.45847" lon="6.51578">
        <ele>2857</ele>
        <time>2021-02-21T08:49:49Z</time>
      </trkpt>
      <trkpt lat="44.45847" lon="6.51578">
        <ele>2857</ele>
        <time>2021-02-21T08:49:50Z</time>
      </trkpt>
      <trkpt lat="44.45847" lon="6.51578">
        <ele>2857</ele>
        <time>2021-02-21T08:49:51Z</time>
      </trkpt>
      <trkpt lat="44.45847" lon="6.51578">
        <ele>2857</ele>
        <time>2021-02-21T08:49:52Z</time>
      </trkpt>
      <trkpt lat="44.45847" lon="6.51578">
        <ele>2857</ele>
        <time>2021-02-21T08:49:53Z</time>
      </trkpt>
      <trkpt lat="44.45847" lon="6.51578">
        <ele>2857</ele>
        <time>2021-02-21T08:49:54Z</time>
      </trkpt>
      <trkpt lat="44.45847" lon="6.51578">
        <ele>2857</ele>
        <time>2021-02-21T08:49:55Z</time>
      </trkpt>
      <trkpt lat="44.45847" lon="6.51578">
        <ele>2857</ele>
        <time>2021-02-21T08:49:56Z</time>
      </trkpt>
      <trkpt lat="44.45847" lon="6.51578">
        <ele>2857</ele>
        <time>2021-02-21T08:49:57Z</time>
      </trkpt>
      <trkpt lat="44.45847" lon="6.51578">
        <ele>2857</ele>
        <time>2021-02-21T08:49:58Z</time>
      </trkpt>
      <trkpt lat="44.45847" lon="6.51578">
        <ele>2857</ele>
        <time>2021-02-21T08:49:59Z</time>
      </trkpt>
      <trkpt lat="44.45847" lon="6.51578">
        <ele>2857</ele>
        <time>2021-02-21T08:50:00Z</time>
      </trkpt>
      <trkpt lat="44.45847" lon="6.51578">
        <ele>2857</ele>
        <time>2021-02-21T08:50:01Z</time>
      </trkpt>
      <trkpt lat="44.45847" lon="6.51578">
        <ele>2857</ele>
        <time>2021-02-21T08:50:02Z</time>
      </trkpt>
      <trkpt lat="44.45847" lon="6.51578">
        <ele>2857</ele>
        <time>2021-02-21T08:50:03Z</time>
      </trkpt>
      <trkpt lat="44.45847" lon="6.51578">
        <ele>2857</ele>
        <time>2021-02-21T08:50:04Z</time>
      </trkpt>
      <trkpt lat="44.45847" lon="6.51578">
        <ele>2857</ele>
        <time>2021-02-21T08:50:05Z</time>
      </trkpt>
      <trkpt lat="44.45847" lon="6.51578">
        <ele>2857</ele>
        <time>2021-02-21T08:50:06Z</time>
      </trkpt>
      <trkpt lat="44.45847" lon="6.51578">
        <ele>2857</ele>
        <time>2021-02-21T08:50:07Z</time>
      </trkpt>
      <trkpt lat="44.45847" lon="6.51578">
        <ele>2857</ele>
        <time>2021-02-21T08:50:08Z</time>
      </trkpt>
      <trkpt lat="44.45847" lon="6.51578">
        <ele>2857</ele>
        <time>2021-02-21T08:50:09Z</time>
      </trkpt>
      <trkpt lat="44.45847" lon="6.51578">
        <ele>2857</ele>
        <time>2021-02-21T08:50:10Z</time>
      </trkpt>
      <trkpt lat="44.45847" lon="6.51578">
        <ele>2857</ele>
        <time>2021-02-21T08:50:11Z</time>
      </trkpt>
      <trkpt lat="44.45847" lon="6.51578">
        <ele>2857</ele>
        <time>2021-02-21T08:50:12Z</time>
      </trkpt>
      <trkpt lat="44.45847" lon="6.51578">
        <ele>2857</ele>
        <time>2021-02-21T08:50:13Z</time>
      </trkpt>
      <trkpt lat="44.45847" lon="6.51578">
        <ele>2857</ele>
        <time>2021-02-21T08:50:14Z</time>
      </trkpt>
      <trkpt lat="44.45847" lon="6.51578">
        <ele>2857</ele>
        <time>2021-02-21T08:50:15Z</time>
      </trkpt>
      <trkpt lat="44.45847" lon="6.51578">
        <ele>2857</ele>
        <time>2021-02-21T08:50:16Z</time>
      </trkpt>
      <trkpt lat="44.45847" lon="6.51578">
        <ele>2857</ele>
        <time>2021-02-21T08:50:17Z</time>
      </trkpt>
      <trkpt lat="44.45847" lon="6.51578">
        <ele>2857</ele>
        <time>2021-02-21T08:50:18Z</time>
      </trkpt>
      <trkpt lat="44.45847" lon="6.51578">
        <ele>2857</ele>
        <time>2021-02-21T08:50:19Z</time>
      </trkpt>
      <trkpt lat="44.45847" lon="6.51578">
        <ele>2857</ele>
        <time>2021-02-21T08:50:20Z</time>
      </trkpt>
      <trkpt lat="44.45847" lon="6.51578">
        <ele>2857</ele>
        <time>2021-02-21T08:50:21Z</time>
      </trkpt>
      <trkpt lat="44.45847" lon="6.51578">
        <ele>2857</ele>
        <time>2021-02-21T08:50:22Z</time>
      </trkpt>
      <trkpt lat="44.45847" lon="6.51578">
        <ele>2857</ele>
        <time>2021-02-21T08:50:23Z</time>
      </trkpt>
      <trkpt lat="44.45847" lon="6.51578">
        <ele>2857</ele>
        <time>2021-02-21T08:50:24Z</time>
      </trkpt>
      <trkpt lat="44.45847" lon="6.51578">
        <ele>2857</ele>
        <time>2021-02-21T08:50:25Z</time>
      </trkpt>
      <trkpt lat="44.45847" lon="6.51578">
        <ele>2857</ele>
        <time>2021-02-21T08:50:26Z</time>
      </trkpt>
      <trkpt lat="44.45847" lon="6.51578">
        <ele>2857</ele>
        <time>2021-02-21T08:50:27Z</time>
      </trkpt>
      <trkpt lat="44.45847" lon="6.51578">
        <ele>2857</ele>
        <time>2021-02-21T08:50:28Z</time>
      </trkpt>
      <trkpt lat="44.45847" lon="6.51578">
        <ele>2857</ele>
        <time>2021-02-21T08:50:29Z</time>
      </trkpt>
      <trkpt lat="44.45847" lon="6.51578">
        <ele>2857</ele>
        <time>2021-02-21T08:50:30Z</time>
      </trkpt>
      <trkpt lat="44.45847" lon="6.51578">
        <ele>2857</ele>
        <time>2021-02-21T08:50:31Z</time>
      </trkpt>
      <trkpt lat="44.45847" lon="6.51578">
        <ele>2857</ele>
        <time>2021-02-21T08:50:32Z</time>
      </trkpt>
      <trkpt lat="44.45847" lon="6.51578">
        <ele>2857</ele>
        <time>2021-02-21T08:50:33Z</time>
      </trkpt>
      <trkpt lat="44.45847" lon="6.51578">
        <ele>2857</ele>
        <time>2021-02-21T08:50:34Z</time>
      </trkpt>
      <trkpt lat="44.45847" lon="6.51578">
        <ele>2857</ele>
        <time>2021-02-21T08:50:35Z</time>
      </trkpt>
      <trkpt lat="44.45847" lon="6.51578">
        <ele>2857</ele>
        <time>2021-02-21T08:50:36Z</time>
      </trkpt>
      <trkpt lat="44.45847" lon="6.51578">
        <ele>2857</ele>
        <time>2021-02-21T08:50:37Z</time>
      </trkpt>
      <trkpt lat="44.45847" lon="6.51578">
        <ele>2857</ele>
        <time>2021-02-21T08:50:38Z</time>
      </trkpt>
      <trkpt lat="44.45847" lon="6.51578">
        <ele>2857</ele>
        <time>2021-02-21T08:50:39Z</time>
      </trkpt>
      <trkpt lat="44.45847" lon="6.51578">
        <ele>2857</ele>
        <time>2021-02-21T08:50:40Z</time>
      </trkpt>
      <trkpt lat="44.45847" lon="6.51578">
        <ele>2857</ele>
        <time>2021-02-21T08:50:41Z</time>
      </trkpt>
      <trkpt lat="44.45847" lon="6.51578">
        <ele>2857</ele>
        <time>2021-02-21T08:50:42Z</time>
      </trkpt>
      <trkpt lat="44.45847" lon="6.51578">
        <ele>2857</ele>
        <time>2021-02-21T08:50:43Z</time>
      </trkpt>
      <trkpt lat="44.45847" lon="6.51578">
        <ele>2857</ele>
        <time>2021-02-21T08:50:44Z</time>
      </trkpt>
      <trkpt lat="44.45847" lon="6.51578">
        <ele>2857</ele>
        <time>2021-02-21T08:50:45Z</time>
      </trkpt>
      <trkpt lat="44.45847" lon="6.51578">
        <ele>2857</ele>
        <time>2021-02-21T08:50:46Z</time>
      </trkpt>
      <trkpt lat="44.45847" lon="6.51578">
        <ele>2857</ele>
        <time>2021-02-21T08:50:47Z</time>
      </trkpt>
      <trkpt lat="44.45847" lon="6.51578">
        <ele>2857</ele>
        <time>2021-02-21T08:50:48Z</time>
      </trkpt>
      <trkpt lat="44.45847" lon="6.51578">
        <ele>2857</ele>
        <time>2021-02-21T08:50:49Z</time>
      </trkpt>
      <trkpt lat="44.45847" lon="6.51578">
        <ele>2857</ele>
        <time>2021-02-21T08:50:50Z</time>
      </trkpt>
      <trkpt lat="44.45847" lon="6.51578">
        <ele>2857</ele>
        <time>2021-02-21T08:50:51Z</time>
      </trkpt>
      <trkpt lat="44.45847" lon="6.51578">
        <ele>2857</ele>
        <time>2021-02-21T08:50:52Z</time>
      </trkpt>
      <trkpt lat="44.45847" lon="6.51578">
        <ele>2857</ele>
        <time>2021-02-21T08:50:53Z</time>
      </trkpt>
      <trkpt lat="44.45847" lon="6.51578">
        <ele>2857</ele>
        <time>2021-02-21T08:50:54Z</time>
      </trkpt>
      <trkpt lat="44.45847" lon="6.51578">
        <ele>2857</ele>
        <time>2021-02-21T08:50:55Z</time>
      </trkpt>
      <trkpt lat="44.45847" lon="6.51578">
        <ele>2857</ele>
        <time>2021-02-21T08:50:56Z</time>
      </trkpt>
      <trkpt lat="44.45847" lon="6.51578">
        <ele>2857</ele>
        <time>2021-02-21T08:50:57Z</time>
      </trkpt>
      <trkpt lat="44.45847" lon="6.51578">
        <ele>2857</ele>
        <time>2021-02-21T08:50:58Z</time>
      </trkpt>
      <trkpt lat="44.45847" lon="6.51578">
        <ele>2857</ele>
        <time>2021-02-21T08:50:59Z</time>
      </trkpt>
      <trkpt lat="44.45847" lon="6.51578">
        <ele>2857</ele>
        <time>2021-02-21T08:51:00Z</time>
      </trkpt>
      <trkpt lat="44.45847" lon="6.51578">
        <ele>2857</ele>
        <time>2021-02-21T08:51:01Z</time>
      </trkpt>
      <trkpt lat="44.45847" lon="6.51579">
        <ele>2857</ele>
        <time>2021-02-21T08:51:02Z</time>
      </trkpt>
      <trkpt lat="44.45847" lon="6.51578">
        <ele>2857</ele>
        <time>2021-02-21T08:51:03Z</time>
      </trkpt>
      <trkpt lat="44.45847" lon="6.51578">
        <ele>2857</ele>
        <time>2021-02-21T08:51:04Z</time>
      </trkpt>
      <trkpt lat="44.45846" lon="6.51578">
        <ele>2857</ele>
        <time>2021-02-21T08:51:05Z</time>
      </trkpt>
      <trkpt lat="44.45846" lon="6.51578">
        <ele>2857</ele>
        <time>2021-02-21T08:51:06Z</time>
      </trkpt>
      <trkpt lat="44.45846" lon="6.51578">
        <ele>2857</ele>
        <time>2021-02-21T08:51:07Z</time>
      </trkpt>
      <trkpt lat="44.45846" lon="6.51578">
        <ele>2857</ele>
        <time>2021-02-21T08:51:08Z</time>
      </trkpt>
      <trkpt lat="44.45846" lon="6.51578">
        <ele>2857</ele>
        <time>2021-02-21T08:51:09Z</time>
      </trkpt>
      <trkpt lat="44.45846" lon="6.51578">
        <ele>2857</ele>
        <time>2021-02-21T08:51:10Z</time>
      </trkpt>
      <trkpt lat="44.45846" lon="6.51578">
        <ele>2857</ele>
        <time>2021-02-21T08:51:11Z</time>
      </trkpt>
      <trkpt lat="44.45846" lon="6.51578">
        <ele>2857</ele>
        <time>2021-02-21T08:51:12Z</time>
      </trkpt>
      <trkpt lat="44.45846" lon="6.51578">
        <ele>2857</ele>
        <time>2021-02-21T08:51:13Z</time>
      </trkpt>
      <trkpt lat="44.45846" lon="6.51578">
        <ele>2857</ele>
        <time>2021-02-21T08:51:14Z</time>
      </trkpt>
      <trkpt lat="44.45846" lon="6.51578">
        <ele>2857</ele>
        <time>2021-02-21T08:51:15Z</time>
      </trkpt>
      <trkpt lat="44.45846" lon="6.51578">
        <ele>2857</ele>
        <time>2021-02-21T08:51:16Z</time>
      </trkpt>
      <trkpt lat="44.45846" lon="6.51578">
        <ele>2857</ele>
        <time>2021-02-21T08:51:17Z</time>
      </trkpt>
      <trkpt lat="44.45846" lon="6.51578">
        <ele>2857</ele>
        <time>2021-02-21T08:51:18Z</time>
      </trkpt>
      <trkpt lat="44.45846" lon="6.51578">
        <ele>2857</ele>
        <time>2021-02-21T08:51:19Z</time>
      </trkpt>
      <trkpt lat="44.45846" lon="6.51578">
        <ele>2857</ele>
        <time>2021-02-21T08:51:20Z</time>
      </trkpt>
      <trkpt lat="44.45846" lon="6.51578">
        <ele>2857</ele>
        <time>2021-02-21T08:51:21Z</time>
      </trkpt>
      <trkpt lat="44.45846" lon="6.51578">
        <ele>2857</ele>
        <time>2021-02-21T08:51:22Z</time>
      </trkpt>
      <trkpt lat="44.45846" lon="6.51578">
        <ele>2857</ele>
        <time>2021-02-21T08:51:23Z</time>
      </trkpt>
      <trkpt lat="44.45846" lon="6.51578">
        <ele>2857</ele>
        <time>2021-02-21T08:51:24Z</time>
      </trkpt>
      <trkpt lat="44.45846" lon="6.51578">
        <ele>2857</ele>
        <time>2021-02-21T08:51:25Z</time>
      </trkpt>
      <trkpt lat="44.45846" lon="6.51578">
        <ele>2857</ele>
        <time>2021-02-21T08:51:26Z</time>
      </trkpt>
      <trkpt lat="44.45846" lon="6.51578">
        <ele>2857</ele>
        <time>2021-02-21T08:51:27Z</time>
      </trkpt>
      <trkpt lat="44.45846" lon="6.51578">
        <ele>2857</ele>
        <time>2021-02-21T08:51:28Z</time>
      </trkpt>
      <trkpt lat="44.45846" lon="6.51578">
        <ele>2857</ele>
        <time>2021-02-21T08:51:29Z</time>
      </trkpt>
      <trkpt lat="44.45846" lon="6.51578">
        <ele>2857</ele>
        <time>2021-02-21T08:51:30Z</time>
      </trkpt>
      <trkpt lat="44.45846" lon="6.51578">
        <ele>2857</ele>
        <time>2021-02-21T08:51:31Z</time>
      </trkpt>
      <trkpt lat="44.45846" lon="6.51578">
        <ele>2857</ele>
        <time>2021-02-21T08:51:32Z</time>
      </trkpt>
      <trkpt lat="44.45846" lon="6.51578">
        <ele>2857</ele>
        <time>2021-02-21T08:51:33Z</time>
      </trkpt>
      <trkpt lat="44.45846" lon="6.51578">
        <ele>2857</ele>
        <time>2021-02-21T08:51:34Z</time>
      </trkpt>
      <trkpt lat="44.45846" lon="6.51578">
        <ele>2857</ele>
        <time>2021-02-21T08:51:35Z</time>
      </trkpt>
      <trkpt lat="44.45846" lon="6.51578">
        <ele>2857</ele>
        <time>2021-02-21T08:51:36Z</time>
      </trkpt>
      <trkpt lat="44.45846" lon="6.51578">
        <ele>2857</ele>
        <time>2021-02-21T08:51:37Z</time>
      </trkpt>
      <trkpt lat="44.45847" lon="6.51579">
        <ele>2857</ele>
        <time>2021-02-21T08:51:38Z</time>
      </trkpt>
      <trkpt lat="44.45848" lon="6.51579">
        <ele>2857</ele>
        <time>2021-02-21T08:51:39Z</time>
      </trkpt>
      <trkpt lat="44.45847" lon="6.51579">
        <ele>2857</ele>
        <time>2021-02-21T08:51:40Z</time>
      </trkpt>
      <trkpt lat="44.45847" lon="6.51579">
        <ele>2857</ele>
        <time>2021-02-21T08:51:41Z</time>
      </trkpt>
      <trkpt lat="44.45847" lon="6.51579">
        <ele>2857</ele>
        <time>2021-02-21T08:51:42Z</time>
      </trkpt>
      <trkpt lat="44.45847" lon="6.51579">
        <ele>2856</ele>
        <time>2021-02-21T08:51:43Z</time>
      </trkpt>
      <trkpt lat="44.45847" lon="6.51579">
        <ele>2856</ele>
        <time>2021-02-21T08:51:44Z</time>
      </trkpt>
      <trkpt lat="44.45847" lon="6.51579">
        <ele>2856</ele>
        <time>2021-02-21T08:51:45Z</time>
      </trkpt>
      <trkpt lat="44.45847" lon="6.51579">
        <ele>2856</ele>
        <time>2021-02-21T08:51:46Z</time>
      </trkpt>
      <trkpt lat="44.45847" lon="6.51579">
        <ele>2856</ele>
        <time>2021-02-21T08:51:47Z</time>
      </trkpt>
      <trkpt lat="44.45847" lon="6.51579">
        <ele>2856</ele>
        <time>2021-02-21T08:51:48Z</time>
      </trkpt>
      <trkpt lat="44.45847" lon="6.51579">
        <ele>2856</ele>
        <time>2021-02-21T08:51:49Z</time>
      </trkpt>
      <trkpt lat="44.45847" lon="6.51579">
        <ele>2856</ele>
        <time>2021-02-21T08:51:50Z</time>
      </trkpt>
      <trkpt lat="44.45847" lon="6.51579">
        <ele>2856</ele>
        <time>2021-02-21T08:51:51Z</time>
      </trkpt>
      <trkpt lat="44.45847" lon="6.51579">
        <ele>2856</ele>
        <time>2021-02-21T08:51:52Z</time>
      </trkpt>
      <trkpt lat="44.45847" lon="6.51579">
        <ele>2856</ele>
        <time>2021-02-21T08:51:53Z</time>
      </trkpt>
      <trkpt lat="44.45847" lon="6.51579">
        <ele>2856</ele>
        <time>2021-02-21T08:51:54Z</time>
      </trkpt>
      <trkpt lat="44.45847" lon="6.51579">
        <ele>2856</ele>
        <time>2021-02-21T08:51:55Z</time>
      </trkpt>
      <trkpt lat="44.45847" lon="6.51579">
        <ele>2856</ele>
        <time>2021-02-21T08:51:56Z</time>
      </trkpt>
      <trkpt lat="44.45847" lon="6.51579">
        <ele>2856</ele>
        <time>2021-02-21T08:51:57Z</time>
      </trkpt>
      <trkpt lat="44.45847" lon="6.51579">
        <ele>2856</ele>
        <time>2021-02-21T08:51:58Z</time>
      </trkpt>
      <trkpt lat="44.45847" lon="6.51579">
        <ele>2856</ele>
        <time>2021-02-21T08:51:59Z</time>
      </trkpt>
      <trkpt lat="44.45847" lon="6.51579">
        <ele>2856</ele>
        <time>2021-02-21T08:52:00Z</time>
      </trkpt>
      <trkpt lat="44.45847" lon="6.51579">
        <ele>2856</ele>
        <time>2021-02-21T08:52:01Z</time>
      </trkpt>
      <trkpt lat="44.45847" lon="6.51579">
        <ele>2856</ele>
        <time>2021-02-21T08:52:02Z</time>
      </trkpt>
      <trkpt lat="44.45847" lon="6.51579">
        <ele>2856</ele>
        <time>2021-02-21T08:52:03Z</time>
      </trkpt>
      <trkpt lat="44.45847" lon="6.51579">
        <ele>2856</ele>
        <time>2021-02-21T08:52:04Z</time>
      </trkpt>
      <trkpt lat="44.45847" lon="6.51579">
        <ele>2856</ele>
        <time>2021-02-21T08:52:05Z</time>
      </trkpt>
      <trkpt lat="44.45847" lon="6.51579">
        <ele>2856</ele>
        <time>2021-02-21T08:52:06Z</time>
      </trkpt>
      <trkpt lat="44.45847" lon="6.51579">
        <ele>2856</ele>
        <time>2021-02-21T08:52:07Z</time>
      </trkpt>
      <trkpt lat="44.45847" lon="6.51579">
        <ele>2856</ele>
        <time>2021-02-21T08:52:08Z</time>
      </trkpt>
      <trkpt lat="44.45847" lon="6.51579">
        <ele>2856</ele>
        <time>2021-02-21T08:52:09Z</time>
      </trkpt>
      <trkpt lat="44.45847" lon="6.51579">
        <ele>2856</ele>
        <time>2021-02-21T08:52:10Z</time>
      </trkpt>
      <trkpt lat="44.45847" lon="6.51579">
        <ele>2856</ele>
        <time>2021-02-21T08:52:11Z</time>
      </trkpt>
      <trkpt lat="44.45847" lon="6.51579">
        <ele>2856</ele>
        <time>2021-02-21T08:52:12Z</time>
      </trkpt>
      <trkpt lat="44.45847" lon="6.51579">
        <ele>2856</ele>
        <time>2021-02-21T08:52:13Z</time>
      </trkpt>
      <trkpt lat="44.45847" lon="6.51579">
        <ele>2856</ele>
        <time>2021-02-21T08:52:14Z</time>
      </trkpt>
      <trkpt lat="44.45847" lon="6.51579">
        <ele>2856</ele>
        <time>2021-02-21T08:52:15Z</time>
      </trkpt>
      <trkpt lat="44.45847" lon="6.51579">
        <ele>2856</ele>
        <time>2021-02-21T08:52:16Z</time>
      </trkpt>
      <trkpt lat="44.45847" lon="6.51579">
        <ele>2856</ele>
        <time>2021-02-21T08:52:17Z</time>
      </trkpt>
      <trkpt lat="44.45847" lon="6.51579">
        <ele>2856</ele>
        <time>2021-02-21T08:52:18Z</time>
      </trkpt>
      <trkpt lat="44.45847" lon="6.51579">
        <ele>2856</ele>
        <time>2021-02-21T08:52:19Z</time>
      </trkpt>
      <trkpt lat="44.45847" lon="6.51579">
        <ele>2856</ele>
        <time>2021-02-21T08:52:20Z</time>
      </trkpt>
      <trkpt lat="44.45847" lon="6.51579">
        <ele>2856</ele>
        <time>2021-02-21T08:52:21Z</time>
      </trkpt>
      <trkpt lat="44.45847" lon="6.51579">
        <ele>2856</ele>
        <time>2021-02-21T08:52:22Z</time>
      </trkpt>
      <trkpt lat="44.45847" lon="6.51579">
        <ele>2856</ele>
        <time>2021-02-21T08:52:23Z</time>
      </trkpt>
      <trkpt lat="44.45847" lon="6.51579">
        <ele>2856</ele>
        <time>2021-02-21T08:52:24Z</time>
      </trkpt>
      <trkpt lat="44.45847" lon="6.51579">
        <ele>2856</ele>
        <time>2021-02-21T08:52:25Z</time>
      </trkpt>
      <trkpt lat="44.45847" lon="6.51579">
        <ele>2856</ele>
        <time>2021-02-21T08:52:26Z</time>
      </trkpt>
      <trkpt lat="44.45847" lon="6.51579">
        <ele>2856</ele>
        <time>2021-02-21T08:52:27Z</time>
      </trkpt>
      <trkpt lat="44.45847" lon="6.51579">
        <ele>2856</ele>
        <time>2021-02-21T08:52:28Z</time>
      </trkpt>
      <trkpt lat="44.45847" lon="6.51579">
        <ele>2856</ele>
        <time>2021-02-21T08:52:29Z</time>
      </trkpt>
      <trkpt lat="44.45847" lon="6.51579">
        <ele>2856</ele>
        <time>2021-02-21T08:52:30Z</time>
      </trkpt>
      <trkpt lat="44.45847" lon="6.51579">
        <ele>2856</ele>
        <time>2021-02-21T08:52:31Z</time>
      </trkpt>
      <trkpt lat="44.45847" lon="6.51579">
        <ele>2856</ele>
        <time>2021-02-21T08:52:32Z</time>
      </trkpt>
      <trkpt lat="44.45847" lon="6.51579">
        <ele>2856</ele>
        <time>2021-02-21T08:52:33Z</time>
      </trkpt>
      <trkpt lat="44.45847" lon="6.51579">
        <ele>2856</ele>
        <time>2021-02-21T08:52:34Z</time>
      </trkpt>
      <trkpt lat="44.45847" lon="6.51579">
        <ele>2856</ele>
        <time>2021-02-21T08:52:35Z</time>
      </trkpt>
      <trkpt lat="44.45847" lon="6.51579">
        <ele>2856</ele>
        <time>2021-02-21T08:52:36Z</time>
      </trkpt>
      <trkpt lat="44.45847" lon="6.51579">
        <ele>2856</ele>
        <time>2021-02-21T08:52:37Z</time>
      </trkpt>
      <trkpt lat="44.45847" lon="6.51579">
        <ele>2856</ele>
        <time>2021-02-21T08:52:38Z</time>
      </trkpt>
      <trkpt lat="44.45847" lon="6.51579">
        <ele>2856</ele>
        <time>2021-02-21T08:52:39Z</time>
      </trkpt>
      <trkpt lat="44.45847" lon="6.51579">
        <ele>2856</ele>
        <time>2021-02-21T08:52:40Z</time>
      </trkpt>
      <trkpt lat="44.45847" lon="6.51579">
        <ele>2856</ele>
        <time>2021-02-21T08:52:41Z</time>
      </trkpt>
      <trkpt lat="44.45847" lon="6.51579">
        <ele>2856</ele>
        <time>2021-02-21T08:52:42Z</time>
      </trkpt>
      <trkpt lat="44.45847" lon="6.51579">
        <ele>2856</ele>
        <time>2021-02-21T08:52:43Z</time>
      </trkpt>
      <trkpt lat="44.45847" lon="6.51579">
        <ele>2856</ele>
        <time>2021-02-21T08:52:44Z</time>
      </trkpt>
      <trkpt lat="44.45847" lon="6.51579">
        <ele>2856</ele>
        <time>2021-02-21T08:52:45Z</time>
      </trkpt>
      <trkpt lat="44.45847" lon="6.51579">
        <ele>2856</ele>
        <time>2021-02-21T08:52:46Z</time>
      </trkpt>
      <trkpt lat="44.45847" lon="6.51579">
        <ele>2856</ele>
        <time>2021-02-21T08:52:47Z</time>
      </trkpt>
      <trkpt lat="44.45847" lon="6.51579">
        <ele>2856</ele>
        <time>2021-02-21T08:52:48Z</time>
      </trkpt>
      <trkpt lat="44.45847" lon="6.51579">
        <ele>2856</ele>
        <time>2021-02-21T08:52:49Z</time>
      </trkpt>
      <trkpt lat="44.45847" lon="6.51579">
        <ele>2856</ele>
        <time>2021-02-21T08:52:50Z</time>
      </trkpt>
      <trkpt lat="44.45847" lon="6.51579">
        <ele>2856</ele>
        <time>2021-02-21T08:52:51Z</time>
      </trkpt>
      <trkpt lat="44.45847" lon="6.51579">
        <ele>2856</ele>
        <time>2021-02-21T08:52:52Z</time>
      </trkpt>
      <trkpt lat="44.45847" lon="6.51579">
        <ele>2856</ele>
        <time>2021-02-21T08:52:53Z</time>
      </trkpt>
      <trkpt lat="44.45847" lon="6.51579">
        <ele>2856</ele>
        <time>2021-02-21T08:52:54Z</time>
      </trkpt>
      <trkpt lat="44.45847" lon="6.51579">
        <ele>2856</ele>
        <time>2021-02-21T08:52:55Z</time>
      </trkpt>
      <trkpt lat="44.45847" lon="6.51579">
        <ele>2856</ele>
        <time>2021-02-21T08:52:56Z</time>
      </trkpt>
      <trkpt lat="44.45847" lon="6.51579">
        <ele>2856</ele>
        <time>2021-02-21T08:52:57Z</time>
      </trkpt>
      <trkpt lat="44.45847" lon="6.51579">
        <ele>2856</ele>
        <time>2021-02-21T08:52:58Z</time>
      </trkpt>
      <trkpt lat="44.45847" lon="6.51579">
        <ele>2856</ele>
        <time>2021-02-21T08:52:59Z</time>
      </trkpt>
      <trkpt lat="44.45847" lon="6.51579">
        <ele>2856</ele>
        <time>2021-02-21T08:53:00Z</time>
      </trkpt>
      <trkpt lat="44.45847" lon="6.51579">
        <ele>2856</ele>
        <time>2021-02-21T08:53:01Z</time>
      </trkpt>
      <trkpt lat="44.45847" lon="6.51579">
        <ele>2856</ele>
        <time>2021-02-21T08:53:02Z</time>
      </trkpt>
      <trkpt lat="44.45847" lon="6.51579">
        <ele>2856</ele>
        <time>2021-02-21T08:53:03Z</time>
      </trkpt>
      <trkpt lat="44.45847" lon="6.51579">
        <ele>2856</ele>
        <time>2021-02-21T08:53:04Z</time>
      </trkpt>
      <trkpt lat="44.45847" lon="6.51579">
        <ele>2856</ele>
        <time>2021-02-21T08:53:05Z</time>
      </trkpt>
      <trkpt lat="44.45847" lon="6.51579">
        <ele>2856</ele>
        <time>2021-02-21T08:53:06Z</time>
      </trkpt>
      <trkpt lat="44.45847" lon="6.51579">
        <ele>2856</ele>
        <time>2021-02-21T08:53:07Z</time>
      </trkpt>
      <trkpt lat="44.45847" lon="6.51579">
        <ele>2856</ele>
        <time>2021-02-21T08:53:08Z</time>
      </trkpt>
      <trkpt lat="44.45847" lon="6.51579">
        <ele>2856</ele>
        <time>2021-02-21T08:53:09Z</time>
      </trkpt>
      <trkpt lat="44.45847" lon="6.51579">
        <ele>2856</ele>
        <time>2021-02-21T08:53:10Z</time>
      </trkpt>
      <trkpt lat="44.45847" lon="6.51579">
        <ele>2856</ele>
        <time>2021-02-21T08:53:11Z</time>
      </trkpt>
      <trkpt lat="44.45847" lon="6.51579">
        <ele>2856</ele>
        <time>2021-02-21T08:53:12Z</time>
      </trkpt>
      <trkpt lat="44.45847" lon="6.51579">
        <ele>2856</ele>
        <time>2021-02-21T08:53:13Z</time>
      </trkpt>
      <trkpt lat="44.45847" lon="6.51579">
        <ele>2856</ele>
        <time>2021-02-21T08:53:14Z</time>
      </trkpt>
      <trkpt lat="44.45847" lon="6.51579">
        <ele>2856</ele>
        <time>2021-02-21T08:53:15Z</time>
      </trkpt>
      <trkpt lat="44.45847" lon="6.51579">
        <ele>2856</ele>
        <time>2021-02-21T08:53:16Z</time>
      </trkpt>
      <trkpt lat="44.45847" lon="6.51579">
        <ele>2856</ele>
        <time>2021-02-21T08:53:17Z</time>
      </trkpt>
      <trkpt lat="44.45847" lon="6.51579">
        <ele>2856</ele>
        <time>2021-02-21T08:53:18Z</time>
      </trkpt>
      <trkpt lat="44.45847" lon="6.51579">
        <ele>2856</ele>
        <time>2021-02-21T08:53:19Z</time>
      </trkpt>
      <trkpt lat="44.45847" lon="6.51579">
        <ele>2856</ele>
        <time>2021-02-21T08:53:20Z</time>
      </trkpt>
      <trkpt lat="44.45847" lon="6.51579">
        <ele>2856</ele>
        <time>2021-02-21T08:53:21Z</time>
      </trkpt>
      <trkpt lat="44.45847" lon="6.51579">
        <ele>2856</ele>
        <time>2021-02-21T08:53:22Z</time>
      </trkpt>
      <trkpt lat="44.45847" lon="6.51579">
        <ele>2856</ele>
        <time>2021-02-21T08:53:23Z</time>
      </trkpt>
      <trkpt lat="44.45847" lon="6.51579">
        <ele>2856</ele>
        <time>2021-02-21T08:53:24Z</time>
      </trkpt>
      <trkpt lat="44.45847" lon="6.51579">
        <ele>2856</ele>
        <time>2021-02-21T08:53:25Z</time>
      </trkpt>
      <trkpt lat="44.45847" lon="6.51579">
        <ele>2856</ele>
        <time>2021-02-21T08:53:26Z</time>
      </trkpt>
      <trkpt lat="44.45847" lon="6.51579">
        <ele>2856</ele>
        <time>2021-02-21T08:53:27Z</time>
      </trkpt>
      <trkpt lat="44.45847" lon="6.51579">
        <ele>2856</ele>
        <time>2021-02-21T08:53:28Z</time>
      </trkpt>
      <trkpt lat="44.45847" lon="6.51579">
        <ele>2856</ele>
        <time>2021-02-21T08:53:29Z</time>
      </trkpt>
      <trkpt lat="44.45847" lon="6.51579">
        <ele>2856</ele>
        <time>2021-02-21T08:53:30Z</time>
      </trkpt>
      <trkpt lat="44.45847" lon="6.51579">
        <ele>2856</ele>
        <time>2021-02-21T08:53:31Z</time>
      </trkpt>
      <trkpt lat="44.45847" lon="6.51579">
        <ele>2856</ele>
        <time>2021-02-21T08:53:32Z</time>
      </trkpt>
      <trkpt lat="44.45847" lon="6.51579">
        <ele>2856</ele>
        <time>2021-02-21T08:53:33Z</time>
      </trkpt>
      <trkpt lat="44.45847" lon="6.51579">
        <ele>2856</ele>
        <time>2021-02-21T08:53:34Z</time>
      </trkpt>
      <trkpt lat="44.45847" lon="6.51579">
        <ele>2856</ele>
        <time>2021-02-21T08:53:35Z</time>
      </trkpt>
      <trkpt lat="44.45847" lon="6.51579">
        <ele>2856</ele>
        <time>2021-02-21T08:53:36Z</time>
      </trkpt>
      <trkpt lat="44.45847" lon="6.51579">
        <ele>2856</ele>
        <time>2021-02-21T08:53:37Z</time>
      </trkpt>
      <trkpt lat="44.45847" lon="6.51579">
        <ele>2856</ele>
        <time>2021-02-21T08:53:38Z</time>
      </trkpt>
      <trkpt lat="44.45847" lon="6.51579">
        <ele>2856</ele>
        <time>2021-02-21T08:53:39Z</time>
      </trkpt>
      <trkpt lat="44.45847" lon="6.51579">
        <ele>2856</ele>
        <time>2021-02-21T08:53:40Z</time>
      </trkpt>
      <trkpt lat="44.45847" lon="6.51579">
        <ele>2856</ele>
        <time>2021-02-21T08:53:41Z</time>
      </trkpt>
      <trkpt lat="44.45847" lon="6.51579">
        <ele>2856</ele>
        <time>2021-02-21T08:53:42Z</time>
      </trkpt>
      <trkpt lat="44.45847" lon="6.51579">
        <ele>2856</ele>
        <time>2021-02-21T08:53:43Z</time>
      </trkpt>
      <trkpt lat="44.45847" lon="6.51579">
        <ele>2856</ele>
        <time>2021-02-21T08:53:44Z</time>
      </trkpt>
      <trkpt lat="44.45847" lon="6.51579">
        <ele>2856</ele>
        <time>2021-02-21T08:53:45Z</time>
      </trkpt>
      <trkpt lat="44.45847" lon="6.51579">
        <ele>2856</ele>
        <time>2021-02-21T08:53:46Z</time>
      </trkpt>
      <trkpt lat="44.45847" lon="6.51579">
        <ele>2856</ele>
        <time>2021-02-21T08:53:47Z</time>
      </trkpt>
      <trkpt lat="44.45847" lon="6.51579">
        <ele>2856</ele>
        <time>2021-02-21T08:53:48Z</time>
      </trkpt>
      <trkpt lat="44.45847" lon="6.51579">
        <ele>2856</ele>
        <time>2021-02-21T08:53:49Z</time>
      </trkpt>
      <trkpt lat="44.45847" lon="6.51579">
        <ele>2856</ele>
        <time>2021-02-21T08:53:50Z</time>
      </trkpt>
      <trkpt lat="44.45847" lon="6.51579">
        <ele>2856</ele>
        <time>2021-02-21T08:53:51Z</time>
      </trkpt>
      <trkpt lat="44.45847" lon="6.51579">
        <ele>2856</ele>
        <time>2021-02-21T08:53:52Z</time>
      </trkpt>
      <trkpt lat="44.45849" lon="6.51581">
        <ele>2856</ele>
        <time>2021-02-21T08:53:53Z</time>
      </trkpt>
      <trkpt lat="44.45849" lon="6.51581">
        <ele>2856</ele>
        <time>2021-02-21T08:53:54Z</time>
      </trkpt>
      <trkpt lat="44.45849" lon="6.51581">
        <ele>2856</ele>
        <time>2021-02-21T08:53:55Z</time>
      </trkpt>
      <trkpt lat="44.45849" lon="6.51581">
        <ele>2856</ele>
        <time>2021-02-21T08:53:56Z</time>
      </trkpt>
      <trkpt lat="44.45849" lon="6.51581">
        <ele>2856</ele>
        <time>2021-02-21T08:53:57Z</time>
      </trkpt>
      <trkpt lat="44.45849" lon="6.51581">
        <ele>2856</ele>
        <time>2021-02-21T08:53:58Z</time>
      </trkpt>
      <trkpt lat="44.45849" lon="6.51581">
        <ele>2856</ele>
        <time>2021-02-21T08:53:59Z</time>
      </trkpt>
      <trkpt lat="44.45849" lon="6.51581">
        <ele>2856</ele>
        <time>2021-02-21T08:54:00Z</time>
      </trkpt>
      <trkpt lat="44.45849" lon="6.51581">
        <ele>2856</ele>
        <time>2021-02-21T08:54:01Z</time>
      </trkpt>
      <trkpt lat="44.45849" lon="6.51581">
        <ele>2856</ele>
        <time>2021-02-21T08:54:02Z</time>
      </trkpt>
      <trkpt lat="44.45849" lon="6.51581">
        <ele>2856</ele>
        <time>2021-02-21T08:54:03Z</time>
      </trkpt>
      <trkpt lat="44.45849" lon="6.51581">
        <ele>2856</ele>
        <time>2021-02-21T08:54:04Z</time>
      </trkpt>
      <trkpt lat="44.45849" lon="6.51581">
        <ele>2856</ele>
        <time>2021-02-21T08:54:05Z</time>
      </trkpt>
      <trkpt lat="44.45849" lon="6.51581">
        <ele>2856</ele>
        <time>2021-02-21T08:54:06Z</time>
      </trkpt>
      <trkpt lat="44.45849" lon="6.51581">
        <ele>2856</ele>
        <time>2021-02-21T08:54:07Z</time>
      </trkpt>
      <trkpt lat="44.45849" lon="6.51581">
        <ele>2856</ele>
        <time>2021-02-21T08:54:08Z</time>
      </trkpt>
      <trkpt lat="44.45849" lon="6.51581">
        <ele>2856</ele>
        <time>2021-02-21T08:54:09Z</time>
      </trkpt>
      <trkpt lat="44.45849" lon="6.51581">
        <ele>2856</ele>
        <time>2021-02-21T08:54:10Z</time>
      </trkpt>
      <trkpt lat="44.45849" lon="6.51581">
        <ele>2856</ele>
        <time>2021-02-21T08:54:11Z</time>
      </trkpt>
      <trkpt lat="44.45849" lon="6.51581">
        <ele>2856</ele>
        <time>2021-02-21T08:54:12Z</time>
      </trkpt>
      <trkpt lat="44.45849" lon="6.51581">
        <ele>2856</ele>
        <time>2021-02-21T08:54:13Z</time>
      </trkpt>
      <trkpt lat="44.45849" lon="6.51581">
        <ele>2856</ele>
        <time>2021-02-21T08:54:14Z</time>
      </trkpt>
      <trkpt lat="44.45849" lon="6.51581">
        <ele>2856</ele>
        <time>2021-02-21T08:54:15Z</time>
      </trkpt>
      <trkpt lat="44.45849" lon="6.51581">
        <ele>2856</ele>
        <time>2021-02-21T08:54:16Z</time>
      </trkpt>
      <trkpt lat="44.45849" lon="6.51581">
        <ele>2856</ele>
        <time>2021-02-21T08:54:17Z</time>
      </trkpt>
      <trkpt lat="44.45849" lon="6.51581">
        <ele>2856</ele>
        <time>2021-02-21T08:54:18Z</time>
      </trkpt>
      <trkpt lat="44.45849" lon="6.51581">
        <ele>2856</ele>
        <time>2021-02-21T08:54:19Z</time>
      </trkpt>
      <trkpt lat="44.45849" lon="6.51581">
        <ele>2856</ele>
        <time>2021-02-21T08:54:20Z</time>
      </trkpt>
      <trkpt lat="44.45849" lon="6.51581">
        <ele>2856</ele>
        <time>2021-02-21T08:54:21Z</time>
      </trkpt>
      <trkpt lat="44.45849" lon="6.51581">
        <ele>2856</ele>
        <time>2021-02-21T08:54:22Z</time>
      </trkpt>
      <trkpt lat="44.45849" lon="6.51581">
        <ele>2856</ele>
        <time>2021-02-21T08:54:23Z</time>
      </trkpt>
      <trkpt lat="44.45849" lon="6.51581">
        <ele>2856</ele>
        <time>2021-02-21T08:54:24Z</time>
      </trkpt>
      <trkpt lat="44.45849" lon="6.51581">
        <ele>2856</ele>
        <time>2021-02-21T08:54:25Z</time>
      </trkpt>
      <trkpt lat="44.45849" lon="6.51581">
        <ele>2856</ele>
        <time>2021-02-21T08:54:26Z</time>
      </trkpt>
      <trkpt lat="44.45849" lon="6.51581">
        <ele>2856</ele>
        <time>2021-02-21T08:54:27Z</time>
      </trkpt>
      <trkpt lat="44.45849" lon="6.51581">
        <ele>2856</ele>
        <time>2021-02-21T08:54:28Z</time>
      </trkpt>
      <trkpt lat="44.45849" lon="6.51581">
        <ele>2856</ele>
        <time>2021-02-21T08:54:29Z</time>
      </trkpt>
      <trkpt lat="44.45849" lon="6.51581">
        <ele>2856</ele>
        <time>2021-02-21T08:54:30Z</time>
      </trkpt>
      <trkpt lat="44.45849" lon="6.51581">
        <ele>2856</ele>
        <time>2021-02-21T08:54:31Z</time>
      </trkpt>
      <trkpt lat="44.45849" lon="6.51581">
        <ele>2856</ele>
        <time>2021-02-21T08:54:32Z</time>
      </trkpt>
      <trkpt lat="44.45849" lon="6.51581">
        <ele>2856</ele>
        <time>2021-02-21T08:54:33Z</time>
      </trkpt>
      <trkpt lat="44.45849" lon="6.51581">
        <ele>2856</ele>
        <time>2021-02-21T08:54:34Z</time>
      </trkpt>
      <trkpt lat="44.45849" lon="6.51581">
        <ele>2856</ele>
        <time>2021-02-21T08:54:35Z</time>
      </trkpt>
      <trkpt lat="44.45849" lon="6.51581">
        <ele>2856</ele>
        <time>2021-02-21T08:54:36Z</time>
      </trkpt>
      <trkpt lat="44.45849" lon="6.51581">
        <ele>2856</ele>
        <time>2021-02-21T08:54:37Z</time>
      </trkpt>
      <trkpt lat="44.45849" lon="6.51581">
        <ele>2856</ele>
        <time>2021-02-21T08:54:38Z</time>
      </trkpt>
      <trkpt lat="44.45849" lon="6.51581">
        <ele>2856</ele>
        <time>2021-02-21T08:54:39Z</time>
      </trkpt>
      <trkpt lat="44.45849" lon="6.51581">
        <ele>2856</ele>
        <time>2021-02-21T08:54:40Z</time>
      </trkpt>
      <trkpt lat="44.45849" lon="6.51581">
        <ele>2856</ele>
        <time>2021-02-21T08:54:41Z</time>
      </trkpt>
      <trkpt lat="44.45849" lon="6.51581">
        <ele>2856</ele>
        <time>2021-02-21T08:54:42Z</time>
      </trkpt>
      <trkpt lat="44.45849" lon="6.51581">
        <ele>2856</ele>
        <time>2021-02-21T08:54:43Z</time>
      </trkpt>
      <trkpt lat="44.45849" lon="6.51581">
        <ele>2856</ele>
        <time>2021-02-21T08:54:44Z</time>
      </trkpt>
      <trkpt lat="44.45849" lon="6.51581">
        <ele>2856</ele>
        <time>2021-02-21T08:54:45Z</time>
      </trkpt>
      <trkpt lat="44.45849" lon="6.51581">
        <ele>2856</ele>
        <time>2021-02-21T08:54:46Z</time>
      </trkpt>
      <trkpt lat="44.45849" lon="6.51581">
        <ele>2856</ele>
        <time>2021-02-21T08:54:47Z</time>
      </trkpt>
      <trkpt lat="44.45849" lon="6.51581">
        <ele>2856</ele>
        <time>2021-02-21T08:54:48Z</time>
      </trkpt>
      <trkpt lat="44.45849" lon="6.51581">
        <ele>2856</ele>
        <time>2021-02-21T08:54:49Z</time>
      </trkpt>
      <trkpt lat="44.45849" lon="6.51581">
        <ele>2856</ele>
        <time>2021-02-21T08:54:50Z</time>
      </trkpt>
      <trkpt lat="44.45849" lon="6.51581">
        <ele>2856</ele>
        <time>2021-02-21T08:54:51Z</time>
      </trkpt>
      <trkpt lat="44.45849" lon="6.51581">
        <ele>2856</ele>
        <time>2021-02-21T08:54:52Z</time>
      </trkpt>
      <trkpt lat="44.45849" lon="6.51581">
        <ele>2856</ele>
        <time>2021-02-21T08:54:53Z</time>
      </trkpt>
      <trkpt lat="44.45849" lon="6.51581">
        <ele>2856</ele>
        <time>2021-02-21T08:54:54Z</time>
      </trkpt>
      <trkpt lat="44.45849" lon="6.51581">
        <ele>2856</ele>
        <time>2021-02-21T08:54:55Z</time>
      </trkpt>
      <trkpt lat="44.45849" lon="6.51581">
        <ele>2856</ele>
        <time>2021-02-21T08:54:56Z</time>
      </trkpt>
      <trkpt lat="44.45849" lon="6.51581">
        <ele>2856</ele>
        <time>2021-02-21T08:54:57Z</time>
      </trkpt>
      <trkpt lat="44.45849" lon="6.51581">
        <ele>2856</ele>
        <time>2021-02-21T08:54:58Z</time>
      </trkpt>
      <trkpt lat="44.45849" lon="6.51581">
        <ele>2856</ele>
        <time>2021-02-21T08:54:59Z</time>
      </trkpt>
      <trkpt lat="44.45849" lon="6.51581">
        <ele>2856</ele>
        <time>2021-02-21T08:55:00Z</time>
      </trkpt>
      <trkpt lat="44.45849" lon="6.51581">
        <ele>2856</ele>
        <time>2021-02-21T08:55:01Z</time>
      </trkpt>
      <trkpt lat="44.45849" lon="6.51581">
        <ele>2856</ele>
        <time>2021-02-21T08:55:02Z</time>
      </trkpt>
      <trkpt lat="44.45849" lon="6.51581">
        <ele>2856</ele>
        <time>2021-02-21T08:55:03Z</time>
      </trkpt>
      <trkpt lat="44.45849" lon="6.51581">
        <ele>2856</ele>
        <time>2021-02-21T08:55:04Z</time>
      </trkpt>
      <trkpt lat="44.45849" lon="6.51581">
        <ele>2856</ele>
        <time>2021-02-21T08:55:05Z</time>
      </trkpt>
      <trkpt lat="44.45849" lon="6.51581">
        <ele>2856</ele>
        <time>2021-02-21T08:55:06Z</time>
      </trkpt>
      <trkpt lat="44.45849" lon="6.51581">
        <ele>2856</ele>
        <time>2021-02-21T08:55:07Z</time>
      </trkpt>
      <trkpt lat="44.45849" lon="6.51581">
        <ele>2856</ele>
        <time>2021-02-21T08:55:08Z</time>
      </trkpt>
      <trkpt lat="44.45849" lon="6.51581">
        <ele>2856</ele>
        <time>2021-02-21T08:55:09Z</time>
      </trkpt>
      <trkpt lat="44.45849" lon="6.51581">
        <ele>2856</ele>
        <time>2021-02-21T08:55:10Z</time>
      </trkpt>
      <trkpt lat="44.45849" lon="6.51581">
        <ele>2856</ele>
        <time>2021-02-21T08:55:11Z</time>
      </trkpt>
      <trkpt lat="44.45849" lon="6.51581">
        <ele>2856</ele>
        <time>2021-02-21T08:55:12Z</time>
      </trkpt>
      <trkpt lat="44.45849" lon="6.51581">
        <ele>2856</ele>
        <time>2021-02-21T08:55:13Z</time>
      </trkpt>
      <trkpt lat="44.45849" lon="6.51581">
        <ele>2856</ele>
        <time>2021-02-21T08:55:14Z</time>
      </trkpt>
      <trkpt lat="44.45849" lon="6.51581">
        <ele>2856</ele>
        <time>2021-02-21T08:55:15Z</time>
      </trkpt>
      <trkpt lat="44.45849" lon="6.51581">
        <ele>2856</ele>
        <time>2021-02-21T08:55:16Z</time>
      </trkpt>
      <trkpt lat="44.45849" lon="6.51581">
        <ele>2856</ele>
        <time>2021-02-21T08:55:17Z</time>
      </trkpt>
      <trkpt lat="44.45849" lon="6.51581">
        <ele>2856</ele>
        <time>2021-02-21T08:55:18Z</time>
      </trkpt>
      <trkpt lat="44.45849" lon="6.51581">
        <ele>2856</ele>
        <time>2021-02-21T08:55:19Z</time>
      </trkpt>
      <trkpt lat="44.45849" lon="6.51581">
        <ele>2856</ele>
        <time>2021-02-21T08:55:20Z</time>
      </trkpt>
      <trkpt lat="44.45849" lon="6.51581">
        <ele>2856</ele>
        <time>2021-02-21T08:55:21Z</time>
      </trkpt>
      <trkpt lat="44.45849" lon="6.51581">
        <ele>2856</ele>
        <time>2021-02-21T08:55:22Z</time>
      </trkpt>
      <trkpt lat="44.45849" lon="6.51581">
        <ele>2856</ele>
        <time>2021-02-21T08:55:23Z</time>
      </trkpt>
      <trkpt lat="44.45849" lon="6.51581">
        <ele>2856</ele>
        <time>2021-02-21T08:55:24Z</time>
      </trkpt>
      <trkpt lat="44.45849" lon="6.51581">
        <ele>2856</ele>
        <time>2021-02-21T08:55:25Z</time>
      </trkpt>
      <trkpt lat="44.45849" lon="6.51581">
        <ele>2856</ele>
        <time>2021-02-21T08:55:26Z</time>
      </trkpt>
      <trkpt lat="44.45849" lon="6.51581">
        <ele>2856</ele>
        <time>2021-02-21T08:55:27Z</time>
      </trkpt>
      <trkpt lat="44.45849" lon="6.51581">
        <ele>2856</ele>
        <time>2021-02-21T08:55:28Z</time>
      </trkpt>
      <trkpt lat="44.45849" lon="6.51581">
        <ele>2856</ele>
        <time>2021-02-21T08:55:29Z</time>
      </trkpt>
      <trkpt lat="44.45849" lon="6.51581">
        <ele>2856</ele>
        <time>2021-02-21T08:55:30Z</time>
      </trkpt>
      <trkpt lat="44.45849" lon="6.51581">
        <ele>2856</ele>
        <time>2021-02-21T08:55:31Z</time>
      </trkpt>
      <trkpt lat="44.45849" lon="6.51581">
        <ele>2856</ele>
        <time>2021-02-21T08:55:32Z</time>
      </trkpt>
      <trkpt lat="44.45849" lon="6.51581">
        <ele>2856</ele>
        <time>2021-02-21T08:55:33Z</time>
      </trkpt>
      <trkpt lat="44.45849" lon="6.51581">
        <ele>2856</ele>
        <time>2021-02-21T08:55:34Z</time>
      </trkpt>
      <trkpt lat="44.45849" lon="6.51581">
        <ele>2856</ele>
        <time>2021-02-21T08:55:35Z</time>
      </trkpt>
      <trkpt lat="44.45849" lon="6.51581">
        <ele>2856</ele>
        <time>2021-02-21T08:55:36Z</time>
      </trkpt>
      <trkpt lat="44.45849" lon="6.51581">
        <ele>2856</ele>
        <time>2021-02-21T08:55:37Z</time>
      </trkpt>
      <trkpt lat="44.45849" lon="6.51581">
        <ele>2856</ele>
        <time>2021-02-21T08:55:38Z</time>
      </trkpt>
      <trkpt lat="44.45849" lon="6.51581">
        <ele>2856</ele>
        <time>2021-02-21T08:55:39Z</time>
      </trkpt>
      <trkpt lat="44.45849" lon="6.51581">
        <ele>2856</ele>
        <time>2021-02-21T08:55:40Z</time>
      </trkpt>
      <trkpt lat="44.45849" lon="6.51581">
        <ele>2856</ele>
        <time>2021-02-21T08:55:41Z</time>
      </trkpt>
      <trkpt lat="44.45849" lon="6.51581">
        <ele>2856</ele>
        <time>2021-02-21T08:55:42Z</time>
      </trkpt>
      <trkpt lat="44.45849" lon="6.51581">
        <ele>2856</ele>
        <time>2021-02-21T08:55:43Z</time>
      </trkpt>
      <trkpt lat="44.45849" lon="6.51581">
        <ele>2856</ele>
        <time>2021-02-21T08:55:44Z</time>
      </trkpt>
      <trkpt lat="44.45849" lon="6.51581">
        <ele>2856</ele>
        <time>2021-02-21T08:55:45Z</time>
      </trkpt>
      <trkpt lat="44.45849" lon="6.51581">
        <ele>2856</ele>
        <time>2021-02-21T08:55:46Z</time>
      </trkpt>
      <trkpt lat="44.45849" lon="6.51581">
        <ele>2856</ele>
        <time>2021-02-21T08:55:47Z</time>
      </trkpt>
      <trkpt lat="44.45849" lon="6.51581">
        <ele>2856</ele>
        <time>2021-02-21T08:55:48Z</time>
      </trkpt>
      <trkpt lat="44.45849" lon="6.51581">
        <ele>2856</ele>
        <time>2021-02-21T08:55:49Z</time>
      </trkpt>
      <trkpt lat="44.45849" lon="6.51581">
        <ele>2856</ele>
        <time>2021-02-21T08:55:50Z</time>
      </trkpt>
      <trkpt lat="44.45849" lon="6.51581">
        <ele>2856</ele>
        <time>2021-02-21T08:55:51Z</time>
      </trkpt>
      <trkpt lat="44.45849" lon="6.51581">
        <ele>2856</ele>
        <time>2021-02-21T08:55:52Z</time>
      </trkpt>
      <trkpt lat="44.45849" lon="6.51581">
        <ele>2856</ele>
        <time>2021-02-21T08:55:53Z</time>
      </trkpt>
      <trkpt lat="44.45849" lon="6.51581">
        <ele>2856</ele>
        <time>2021-02-21T08:55:54Z</time>
      </trkpt>
      <trkpt lat="44.45849" lon="6.51581">
        <ele>2856</ele>
        <time>2021-02-21T08:55:55Z</time>
      </trkpt>
      <trkpt lat="44.45849" lon="6.51581">
        <ele>2856</ele>
        <time>2021-02-21T08:55:56Z</time>
      </trkpt>
      <trkpt lat="44.45849" lon="6.51581">
        <ele>2856</ele>
        <time>2021-02-21T08:55:57Z</time>
      </trkpt>
      <trkpt lat="44.45849" lon="6.51581">
        <ele>2856</ele>
        <time>2021-02-21T08:55:58Z</time>
      </trkpt>
      <trkpt lat="44.45849" lon="6.51581">
        <ele>2856</ele>
        <time>2021-02-21T08:55:59Z</time>
      </trkpt>
      <trkpt lat="44.45849" lon="6.51581">
        <ele>2856</ele>
        <time>2021-02-21T08:56:00Z</time>
      </trkpt>
      <trkpt lat="44.45849" lon="6.51581">
        <ele>2856</ele>
        <time>2021-02-21T08:56:01Z</time>
      </trkpt>
      <trkpt lat="44.45849" lon="6.51581">
        <ele>2856</ele>
        <time>2021-02-21T08:56:02Z</time>
      </trkpt>
      <trkpt lat="44.45849" lon="6.51581">
        <ele>2856</ele>
        <time>2021-02-21T08:56:03Z</time>
      </trkpt>
      <trkpt lat="44.45849" lon="6.51581">
        <ele>2856</ele>
        <time>2021-02-21T08:56:04Z</time>
      </trkpt>
      <trkpt lat="44.45849" lon="6.51581">
        <ele>2856</ele>
        <time>2021-02-21T08:56:05Z</time>
      </trkpt>
      <trkpt lat="44.45849" lon="6.51581">
        <ele>2856</ele>
        <time>2021-02-21T08:56:06Z</time>
      </trkpt>
      <trkpt lat="44.45849" lon="6.51581">
        <ele>2856</ele>
        <time>2021-02-21T08:56:07Z</time>
      </trkpt>
      <trkpt lat="44.45849" lon="6.51581">
        <ele>2856</ele>
        <time>2021-02-21T08:56:08Z</time>
      </trkpt>
      <trkpt lat="44.45849" lon="6.51581">
        <ele>2856</ele>
        <time>2021-02-21T08:56:09Z</time>
      </trkpt>
      <trkpt lat="44.45849" lon="6.51581">
        <ele>2856</ele>
        <time>2021-02-21T08:56:10Z</time>
      </trkpt>
      <trkpt lat="44.45849" lon="6.51581">
        <ele>2856</ele>
        <time>2021-02-21T08:56:11Z</time>
      </trkpt>
      <trkpt lat="44.45849" lon="6.51581">
        <ele>2856</ele>
        <time>2021-02-21T08:56:12Z</time>
      </trkpt>
      <trkpt lat="44.45849" lon="6.51581">
        <ele>2856</ele>
        <time>2021-02-21T08:56:13Z</time>
      </trkpt>
      <trkpt lat="44.45849" lon="6.51581">
        <ele>2856</ele>
        <time>2021-02-21T08:56:14Z</time>
      </trkpt>
      <trkpt lat="44.45849" lon="6.51581">
        <ele>2856</ele>
        <time>2021-02-21T08:56:15Z</time>
      </trkpt>
      <trkpt lat="44.45849" lon="6.51581">
        <ele>2856</ele>
        <time>2021-02-21T08:56:16Z</time>
      </trkpt>
      <trkpt lat="44.45849" lon="6.51581">
        <ele>2856</ele>
        <time>2021-02-21T08:56:17Z</time>
      </trkpt>
      <trkpt lat="44.45849" lon="6.51581">
        <ele>2856</ele>
        <time>2021-02-21T08:56:18Z</time>
      </trkpt>
      <trkpt lat="44.45849" lon="6.51581">
        <ele>2856</ele>
        <time>2021-02-21T08:56:19Z</time>
      </trkpt>
      <trkpt lat="44.45849" lon="6.51581">
        <ele>2856</ele>
        <time>2021-02-21T08:56:20Z</time>
      </trkpt>
      <trkpt lat="44.45849" lon="6.51581">
        <ele>2856</ele>
        <time>2021-02-21T08:56:21Z</time>
      </trkpt>
      <trkpt lat="44.45849" lon="6.51581">
        <ele>2856</ele>
        <time>2021-02-21T08:56:22Z</time>
      </trkpt>
      <trkpt lat="44.45849" lon="6.51581">
        <ele>2856</ele>
        <time>2021-02-21T08:56:23Z</time>
      </trkpt>
      <trkpt lat="44.45849" lon="6.51581">
        <ele>2856</ele>
        <time>2021-02-21T08:56:24Z</time>
      </trkpt>
      <trkpt lat="44.45849" lon="6.51581">
        <ele>2856</ele>
        <time>2021-02-21T08:56:25Z</time>
      </trkpt>
      <trkpt lat="44.45852" lon="6.5158">
        <ele>2856</ele>
        <time>2021-02-21T08:56:26Z</time>
      </trkpt>
      <trkpt lat="44.45852" lon="6.5158">
        <ele>2857</ele>
        <time>2021-02-21T08:56:27Z</time>
      </trkpt>
      <trkpt lat="44.45852" lon="6.51579">
        <ele>2857</ele>
        <time>2021-02-21T08:56:28Z</time>
      </trkpt>
      <trkpt lat="44.45852" lon="6.51579">
        <ele>2857</ele>
        <time>2021-02-21T08:56:29Z</time>
      </trkpt>
      <trkpt lat="44.45852" lon="6.51579">
        <ele>2857</ele>
        <time>2021-02-21T08:56:30Z</time>
      </trkpt>
      <trkpt lat="44.45852" lon="6.51579">
        <ele>2857</ele>
        <time>2021-02-21T08:56:31Z</time>
      </trkpt>
      <trkpt lat="44.45852" lon="6.51579">
        <ele>2857</ele>
        <time>2021-02-21T08:56:32Z</time>
      </trkpt>
      <trkpt lat="44.45852" lon="6.51579">
        <ele>2857</ele>
        <time>2021-02-21T08:56:33Z</time>
      </trkpt>
      <trkpt lat="44.45852" lon="6.51579">
        <ele>2857</ele>
        <time>2021-02-21T08:56:34Z</time>
      </trkpt>
      <trkpt lat="44.45852" lon="6.51579">
        <ele>2857</ele>
        <time>2021-02-21T08:56:35Z</time>
      </trkpt>
      <trkpt lat="44.45852" lon="6.51579">
        <ele>2857</ele>
        <time>2021-02-21T08:56:36Z</time>
      </trkpt>
      <trkpt lat="44.45852" lon="6.51579">
        <ele>2857</ele>
        <time>2021-02-21T08:56:37Z</time>
      </trkpt>
      <trkpt lat="44.45852" lon="6.51579">
        <ele>2857</ele>
        <time>2021-02-21T08:56:38Z</time>
      </trkpt>
      <trkpt lat="44.45852" lon="6.51579">
        <ele>2857</ele>
        <time>2021-02-21T08:56:39Z</time>
      </trkpt>
      <trkpt lat="44.45852" lon="6.51579">
        <ele>2857</ele>
        <time>2021-02-21T08:56:40Z</time>
      </trkpt>
      <trkpt lat="44.45852" lon="6.51579">
        <ele>2857</ele>
        <time>2021-02-21T08:56:41Z</time>
      </trkpt>
      <trkpt lat="44.45852" lon="6.51579">
        <ele>2857</ele>
        <time>2021-02-21T08:56:42Z</time>
      </trkpt>
      <trkpt lat="44.45852" lon="6.51579">
        <ele>2857</ele>
        <time>2021-02-21T08:56:43Z</time>
      </trkpt>
      <trkpt lat="44.45852" lon="6.51579">
        <ele>2857</ele>
        <time>2021-02-21T08:56:44Z</time>
      </trkpt>
      <trkpt lat="44.45852" lon="6.51579">
        <ele>2857</ele>
        <time>2021-02-21T08:56:45Z</time>
      </trkpt>
      <trkpt lat="44.45852" lon="6.51579">
        <ele>2857</ele>
        <time>2021-02-21T08:56:46Z</time>
      </trkpt>
      <trkpt lat="44.45852" lon="6.51579">
        <ele>2857</ele>
        <time>2021-02-21T08:56:47Z</time>
      </trkpt>
      <trkpt lat="44.45852" lon="6.51579">
        <ele>2857</ele>
        <time>2021-02-21T08:56:48Z</time>
      </trkpt>
      <trkpt lat="44.45852" lon="6.51579">
        <ele>2857</ele>
        <time>2021-02-21T08:56:49Z</time>
      </trkpt>
      <trkpt lat="44.45852" lon="6.51579">
        <ele>2857</ele>
        <time>2021-02-21T08:56:50Z</time>
      </trkpt>
      <trkpt lat="44.45852" lon="6.51579">
        <ele>2857</ele>
        <time>2021-02-21T08:56:51Z</time>
      </trkpt>
      <trkpt lat="44.45852" lon="6.51579">
        <ele>2857</ele>
        <time>2021-02-21T08:56:52Z</time>
      </trkpt>
      <trkpt lat="44.45852" lon="6.51579">
        <ele>2857</ele>
        <time>2021-02-21T08:56:53Z</time>
      </trkpt>
      <trkpt lat="44.45852" lon="6.51579">
        <ele>2857</ele>
        <time>2021-02-21T08:56:54Z</time>
      </trkpt>
      <trkpt lat="44.45852" lon="6.51579">
        <ele>2857</ele>
        <time>2021-02-21T08:56:55Z</time>
      </trkpt>
      <trkpt lat="44.45852" lon="6.51579">
        <ele>2857</ele>
        <time>2021-02-21T08:56:56Z</time>
      </trkpt>
      <trkpt lat="44.45852" lon="6.51579">
        <ele>2857</ele>
        <time>2021-02-21T08:56:57Z</time>
      </trkpt>
      <trkpt lat="44.45852" lon="6.51579">
        <ele>2857</ele>
        <time>2021-02-21T08:56:58Z</time>
      </trkpt>
      <trkpt lat="44.45852" lon="6.51579">
        <ele>2857</ele>
        <time>2021-02-21T08:56:59Z</time>
      </trkpt>
      <trkpt lat="44.45852" lon="6.51579">
        <ele>2857</ele>
        <time>2021-02-21T08:57:00Z</time>
      </trkpt>
      <trkpt lat="44.45852" lon="6.51579">
        <ele>2857</ele>
        <time>2021-02-21T08:57:01Z</time>
      </trkpt>
      <trkpt lat="44.45852" lon="6.51579">
        <ele>2857</ele>
        <time>2021-02-21T08:57:02Z</time>
      </trkpt>
      <trkpt lat="44.45852" lon="6.51579">
        <ele>2857</ele>
        <time>2021-02-21T08:57:03Z</time>
      </trkpt>
      <trkpt lat="44.45852" lon="6.51579">
        <ele>2857</ele>
        <time>2021-02-21T08:57:04Z</time>
      </trkpt>
      <trkpt lat="44.45852" lon="6.51579">
        <ele>2857</ele>
        <time>2021-02-21T08:57:05Z</time>
      </trkpt>
      <trkpt lat="44.45852" lon="6.51579">
        <ele>2857</ele>
        <time>2021-02-21T08:57:06Z</time>
      </trkpt>
      <trkpt lat="44.45852" lon="6.51579">
        <ele>2857</ele>
        <time>2021-02-21T08:57:07Z</time>
      </trkpt>
      <trkpt lat="44.45852" lon="6.51579">
        <ele>2857</ele>
        <time>2021-02-21T08:57:08Z</time>
      </trkpt>
      <trkpt lat="44.45852" lon="6.51579">
        <ele>2857</ele>
        <time>2021-02-21T08:57:09Z</time>
      </trkpt>
      <trkpt lat="44.45852" lon="6.51579">
        <ele>2857</ele>
        <time>2021-02-21T08:57:10Z</time>
      </trkpt>
      <trkpt lat="44.45852" lon="6.51579">
        <ele>2857</ele>
        <time>2021-02-21T08:57:11Z</time>
      </trkpt>
      <trkpt lat="44.45852" lon="6.51579">
        <ele>2857</ele>
        <time>2021-02-21T08:57:12Z</time>
      </trkpt>
      <trkpt lat="44.45852" lon="6.51579">
        <ele>2857</ele>
        <time>2021-02-21T08:57:13Z</time>
      </trkpt>
      <trkpt lat="44.45852" lon="6.51579">
        <ele>2857</ele>
        <time>2021-02-21T08:57:14Z</time>
      </trkpt>
      <trkpt lat="44.45852" lon="6.51579">
        <ele>2857</ele>
        <time>2021-02-21T08:57:15Z</time>
      </trkpt>
      <trkpt lat="44.45852" lon="6.51579">
        <ele>2857</ele>
        <time>2021-02-21T08:57:16Z</time>
      </trkpt>
      <trkpt lat="44.45852" lon="6.51579">
        <ele>2857</ele>
        <time>2021-02-21T08:57:17Z</time>
      </trkpt>
      <trkpt lat="44.45852" lon="6.51579">
        <ele>2857</ele>
        <time>2021-02-21T08:57:18Z</time>
      </trkpt>
      <trkpt lat="44.45852" lon="6.51579">
        <ele>2857</ele>
        <time>2021-02-21T08:57:19Z</time>
      </trkpt>
      <trkpt lat="44.45852" lon="6.51579">
        <ele>2857</ele>
        <time>2021-02-21T08:57:20Z</time>
      </trkpt>
      <trkpt lat="44.45852" lon="6.51579">
        <ele>2857</ele>
        <time>2021-02-21T08:57:21Z</time>
      </trkpt>
      <trkpt lat="44.45852" lon="6.51579">
        <ele>2857</ele>
        <time>2021-02-21T08:57:22Z</time>
      </trkpt>
      <trkpt lat="44.45852" lon="6.51579">
        <ele>2857</ele>
        <time>2021-02-21T08:57:23Z</time>
      </trkpt>
      <trkpt lat="44.45852" lon="6.51579">
        <ele>2857</ele>
        <time>2021-02-21T08:57:24Z</time>
      </trkpt>
      <trkpt lat="44.45852" lon="6.51579">
        <ele>2857</ele>
        <time>2021-02-21T08:57:25Z</time>
      </trkpt>
      <trkpt lat="44.45852" lon="6.51579">
        <ele>2857</ele>
        <time>2021-02-21T08:57:26Z</time>
      </trkpt>
      <trkpt lat="44.45852" lon="6.51579">
        <ele>2857</ele>
        <time>2021-02-21T08:57:27Z</time>
      </trkpt>
      <trkpt lat="44.45852" lon="6.51579">
        <ele>2857</ele>
        <time>2021-02-21T08:57:28Z</time>
      </trkpt>
      <trkpt lat="44.45852" lon="6.51579">
        <ele>2857</ele>
        <time>2021-02-21T08:57:29Z</time>
      </trkpt>
      <trkpt lat="44.45852" lon="6.51579">
        <ele>2857</ele>
        <time>2021-02-21T08:57:30Z</time>
      </trkpt>
      <trkpt lat="44.45852" lon="6.51579">
        <ele>2857</ele>
        <time>2021-02-21T08:57:31Z</time>
      </trkpt>
      <trkpt lat="44.45852" lon="6.51579">
        <ele>2857</ele>
        <time>2021-02-21T08:57:32Z</time>
      </trkpt>
      <trkpt lat="44.45852" lon="6.51579">
        <ele>2857</ele>
        <time>2021-02-21T08:57:33Z</time>
      </trkpt>
      <trkpt lat="44.45852" lon="6.51579">
        <ele>2857</ele>
        <time>2021-02-21T08:57:34Z</time>
      </trkpt>
      <trkpt lat="44.45852" lon="6.51579">
        <ele>2857</ele>
        <time>2021-02-21T08:57:35Z</time>
      </trkpt>
      <trkpt lat="44.45852" lon="6.51579">
        <ele>2857</ele>
        <time>2021-02-21T08:57:36Z</time>
      </trkpt>
      <trkpt lat="44.45852" lon="6.51579">
        <ele>2857</ele>
        <time>2021-02-21T08:57:37Z</time>
      </trkpt>
      <trkpt lat="44.45852" lon="6.51579">
        <ele>2857</ele>
        <time>2021-02-21T08:57:38Z</time>
      </trkpt>
      <trkpt lat="44.45852" lon="6.51579">
        <ele>2857</ele>
        <time>2021-02-21T08:57:39Z</time>
      </trkpt>
      <trkpt lat="44.45852" lon="6.51579">
        <ele>2857</ele>
        <time>2021-02-21T08:57:40Z</time>
      </trkpt>
      <trkpt lat="44.45852" lon="6.51579">
        <ele>2857</ele>
        <time>2021-02-21T08:57:41Z</time>
      </trkpt>
      <trkpt lat="44.45852" lon="6.51579">
        <ele>2857</ele>
        <time>2021-02-21T08:57:42Z</time>
      </trkpt>
      <trkpt lat="44.45852" lon="6.51579">
        <ele>2857</ele>
        <time>2021-02-21T08:57:43Z</time>
      </trkpt>
      <trkpt lat="44.45852" lon="6.51579">
        <ele>2857</ele>
        <time>2021-02-21T08:57:44Z</time>
      </trkpt>
      <trkpt lat="44.45852" lon="6.51579">
        <ele>2857</ele>
        <time>2021-02-21T08:57:45Z</time>
      </trkpt>
      <trkpt lat="44.45852" lon="6.51579">
        <ele>2857</ele>
        <time>2021-02-21T08:57:46Z</time>
      </trkpt>
      <trkpt lat="44.45852" lon="6.51579">
        <ele>2857</ele>
        <time>2021-02-21T08:57:47Z</time>
      </trkpt>
      <trkpt lat="44.45852" lon="6.51579">
        <ele>2857</ele>
        <time>2021-02-21T08:57:48Z</time>
      </trkpt>
      <trkpt lat="44.45852" lon="6.51579">
        <ele>2857</ele>
        <time>2021-02-21T08:57:49Z</time>
      </trkpt>
      <trkpt lat="44.45852" lon="6.51579">
        <ele>2857</ele>
        <time>2021-02-21T08:57:50Z</time>
      </trkpt>
      <trkpt lat="44.45852" lon="6.51579">
        <ele>2857</ele>
        <time>2021-02-21T08:57:51Z</time>
      </trkpt>
      <trkpt lat="44.45852" lon="6.51579">
        <ele>2857</ele>
        <time>2021-02-21T08:57:52Z</time>
      </trkpt>
      <trkpt lat="44.45852" lon="6.51579">
        <ele>2857</ele>
        <time>2021-02-21T08:57:53Z</time>
      </trkpt>
      <trkpt lat="44.45852" lon="6.51579">
        <ele>2857</ele>
        <time>2021-02-21T08:57:54Z</time>
      </trkpt>
      <trkpt lat="44.45852" lon="6.51579">
        <ele>2857</ele>
        <time>2021-02-21T08:57:55Z</time>
      </trkpt>
      <trkpt lat="44.45852" lon="6.51579">
        <ele>2857</ele>
        <time>2021-02-21T08:57:56Z</time>
      </trkpt>
      <trkpt lat="44.45852" lon="6.51579">
        <ele>2857</ele>
        <time>2021-02-21T08:57:57Z</time>
      </trkpt>
      <trkpt lat="44.45852" lon="6.51579">
        <ele>2857</ele>
        <time>2021-02-21T08:57:58Z</time>
      </trkpt>
      <trkpt lat="44.45852" lon="6.51579">
        <ele>2857</ele>
        <time>2021-02-21T08:57:59Z</time>
      </trkpt>
      <trkpt lat="44.45852" lon="6.51579">
        <ele>2857</ele>
        <time>2021-02-21T08:58:00Z</time>
      </trkpt>
      <trkpt lat="44.45852" lon="6.51579">
        <ele>2857</ele>
        <time>2021-02-21T08:58:01Z</time>
      </trkpt>
      <trkpt lat="44.45852" lon="6.51579">
        <ele>2857</ele>
        <time>2021-02-21T08:58:02Z</time>
      </trkpt>
      <trkpt lat="44.45852" lon="6.51579">
        <ele>2857</ele>
        <time>2021-02-21T08:58:03Z</time>
      </trkpt>
      <trkpt lat="44.45852" lon="6.51579">
        <ele>2857</ele>
        <time>2021-02-21T08:58:04Z</time>
      </trkpt>
      <trkpt lat="44.45852" lon="6.51579">
        <ele>2857</ele>
        <time>2021-02-21T08:58:05Z</time>
      </trkpt>
      <trkpt lat="44.45852" lon="6.51579">
        <ele>2857</ele>
        <time>2021-02-21T08:58:06Z</time>
      </trkpt>
      <trkpt lat="44.45852" lon="6.51579">
        <ele>2857</ele>
        <time>2021-02-21T08:58:07Z</time>
      </trkpt>
      <trkpt lat="44.45852" lon="6.51579">
        <ele>2857</ele>
        <time>2021-02-21T08:58:08Z</time>
      </trkpt>
      <trkpt lat="44.45852" lon="6.51579">
        <ele>2857</ele>
        <time>2021-02-21T08:58:09Z</time>
      </trkpt>
      <trkpt lat="44.45852" lon="6.51579">
        <ele>2857</ele>
        <time>2021-02-21T08:58:10Z</time>
      </trkpt>
      <trkpt lat="44.45852" lon="6.51579">
        <ele>2857</ele>
        <time>2021-02-21T08:58:11Z</time>
      </trkpt>
      <trkpt lat="44.45852" lon="6.51579">
        <ele>2857</ele>
        <time>2021-02-21T08:58:12Z</time>
      </trkpt>
      <trkpt lat="44.45852" lon="6.51579">
        <ele>2857</ele>
        <time>2021-02-21T08:58:13Z</time>
      </trkpt>
      <trkpt lat="44.45852" lon="6.51579">
        <ele>2857</ele>
        <time>2021-02-21T08:58:14Z</time>
      </trkpt>
      <trkpt lat="44.45852" lon="6.51579">
        <ele>2857</ele>
        <time>2021-02-21T08:58:15Z</time>
      </trkpt>
      <trkpt lat="44.45852" lon="6.51579">
        <ele>2857</ele>
        <time>2021-02-21T08:58:16Z</time>
      </trkpt>
      <trkpt lat="44.45852" lon="6.51579">
        <ele>2857</ele>
        <time>2021-02-21T08:58:17Z</time>
      </trkpt>
      <trkpt lat="44.45852" lon="6.51579">
        <ele>2857</ele>
        <time>2021-02-21T08:58:18Z</time>
      </trkpt>
      <trkpt lat="44.45852" lon="6.51579">
        <ele>2857</ele>
        <time>2021-02-21T08:58:19Z</time>
      </trkpt>
      <trkpt lat="44.45852" lon="6.51579">
        <ele>2857</ele>
        <time>2021-02-21T08:58:20Z</time>
      </trkpt>
      <trkpt lat="44.45854" lon="6.51584">
        <ele>2857</ele>
        <time>2021-02-21T08:58:21Z</time>
      </trkpt>
      <trkpt lat="44.45855" lon="6.51584">
        <ele>2857</ele>
        <time>2021-02-21T08:58:22Z</time>
      </trkpt>
      <trkpt lat="44.45856" lon="6.51585">
        <ele>2857</ele>
        <time>2021-02-21T08:58:23Z</time>
      </trkpt>
      <trkpt lat="44.45858" lon="6.51587">
        <ele>2857</ele>
        <time>2021-02-21T08:58:24Z</time>
      </trkpt>
      <trkpt lat="44.45859" lon="6.51588">
        <ele>2857</ele>
        <time>2021-02-21T08:58:25Z</time>
      </trkpt>
      <trkpt lat="44.4586" lon="6.51589">
        <ele>2857</ele>
        <time>2021-02-21T08:58:26Z</time>
      </trkpt>
      <trkpt lat="44.45861" lon="6.51589">
        <ele>2857</ele>
        <time>2021-02-21T08:58:27Z</time>
      </trkpt>
      <trkpt lat="44.45861" lon="6.51589">
        <ele>2857</ele>
        <time>2021-02-21T08:58:28Z</time>
      </trkpt>
      <trkpt lat="44.45861" lon="6.51589">
        <ele>2857</ele>
        <time>2021-02-21T08:58:29Z</time>
      </trkpt>
      <trkpt lat="44.4586" lon="6.51589">
        <ele>2857</ele>
        <time>2021-02-21T08:58:30Z</time>
      </trkpt>
      <trkpt lat="44.4586" lon="6.51589">
        <ele>2857</ele>
        <time>2021-02-21T08:58:31Z</time>
      </trkpt>
      <trkpt lat="44.45861" lon="6.51588">
        <ele>2857</ele>
        <time>2021-02-21T08:58:32Z</time>
      </trkpt>
      <trkpt lat="44.45861" lon="6.51588">
        <ele>2857</ele>
        <time>2021-02-21T08:58:33Z</time>
      </trkpt>
      <trkpt lat="44.45861" lon="6.51588">
        <ele>2856</ele>
        <time>2021-02-21T08:58:34Z</time>
      </trkpt>
      <trkpt lat="44.4586" lon="6.51588">
        <ele>2856</ele>
        <time>2021-02-21T08:58:35Z</time>
      </trkpt>
      <trkpt lat="44.4586" lon="6.51588">
        <ele>2856</ele>
        <time>2021-02-21T08:58:36Z</time>
      </trkpt>
      <trkpt lat="44.4586" lon="6.51588">
        <ele>2856</ele>
        <time>2021-02-21T08:58:37Z</time>
      </trkpt>
      <trkpt lat="44.4586" lon="6.51588">
        <ele>2856</ele>
        <time>2021-02-21T08:58:38Z</time>
      </trkpt>
      <trkpt lat="44.4586" lon="6.51588">
        <ele>2856</ele>
        <time>2021-02-21T08:58:39Z</time>
      </trkpt>
      <trkpt lat="44.4586" lon="6.51588">
        <ele>2856</ele>
        <time>2021-02-21T08:58:40Z</time>
      </trkpt>
      <trkpt lat="44.4586" lon="6.51588">
        <ele>2856</ele>
        <time>2021-02-21T08:58:41Z</time>
      </trkpt>
      <trkpt lat="44.4586" lon="6.51588">
        <ele>2856</ele>
        <time>2021-02-21T08:58:42Z</time>
      </trkpt>
      <trkpt lat="44.4586" lon="6.51588">
        <ele>2856</ele>
        <time>2021-02-21T08:58:43Z</time>
      </trkpt>
      <trkpt lat="44.4586" lon="6.51588">
        <ele>2856</ele>
        <time>2021-02-21T08:58:44Z</time>
      </trkpt>
      <trkpt lat="44.4586" lon="6.51588">
        <ele>2856</ele>
        <time>2021-02-21T08:58:45Z</time>
      </trkpt>
      <trkpt lat="44.4586" lon="6.51588">
        <ele>2856</ele>
        <time>2021-02-21T08:58:46Z</time>
      </trkpt>
      <trkpt lat="44.4586" lon="6.51588">
        <ele>2856</ele>
        <time>2021-02-21T08:58:47Z</time>
      </trkpt>
      <trkpt lat="44.4586" lon="6.51588">
        <ele>2856</ele>
        <time>2021-02-21T08:58:48Z</time>
      </trkpt>
      <trkpt lat="44.4586" lon="6.51588">
        <ele>2856</ele>
        <time>2021-02-21T08:58:49Z</time>
      </trkpt>
      <trkpt lat="44.4586" lon="6.51588">
        <ele>2856</ele>
        <time>2021-02-21T08:58:50Z</time>
      </trkpt>
      <trkpt lat="44.4586" lon="6.51588">
        <ele>2856</ele>
        <time>2021-02-21T08:58:51Z</time>
      </trkpt>
      <trkpt lat="44.4586" lon="6.51588">
        <ele>2856</ele>
        <time>2021-02-21T08:58:52Z</time>
      </trkpt>
      <trkpt lat="44.4586" lon="6.51588">
        <ele>2856</ele>
        <time>2021-02-21T08:58:53Z</time>
      </trkpt>
      <trkpt lat="44.4586" lon="6.51588">
        <ele>2856</ele>
        <time>2021-02-21T08:58:54Z</time>
      </trkpt>
      <trkpt lat="44.4586" lon="6.51588">
        <ele>2856</ele>
        <time>2021-02-21T08:58:55Z</time>
      </trkpt>
      <trkpt lat="44.4586" lon="6.51588">
        <ele>2856</ele>
        <time>2021-02-21T08:58:56Z</time>
      </trkpt>
      <trkpt lat="44.4586" lon="6.51588">
        <ele>2856</ele>
        <time>2021-02-21T08:58:57Z</time>
      </trkpt>
      <trkpt lat="44.4586" lon="6.51588">
        <ele>2856</ele>
        <time>2021-02-21T08:58:58Z</time>
      </trkpt>
      <trkpt lat="44.4586" lon="6.51588">
        <ele>2856</ele>
        <time>2021-02-21T08:58:59Z</time>
      </trkpt>
      <trkpt lat="44.4586" lon="6.51588">
        <ele>2856</ele>
        <time>2021-02-21T08:59:00Z</time>
      </trkpt>
      <trkpt lat="44.4586" lon="6.51588">
        <ele>2856</ele>
        <time>2021-02-21T08:59:01Z</time>
      </trkpt>
      <trkpt lat="44.4586" lon="6.51588">
        <ele>2856</ele>
        <time>2021-02-21T08:59:02Z</time>
      </trkpt>
      <trkpt lat="44.4586" lon="6.51588">
        <ele>2856</ele>
        <time>2021-02-21T08:59:03Z</time>
      </trkpt>
      <trkpt lat="44.4586" lon="6.51588">
        <ele>2856</ele>
        <time>2021-02-21T08:59:04Z</time>
      </trkpt>
      <trkpt lat="44.4586" lon="6.51588">
        <ele>2856</ele>
        <time>2021-02-21T08:59:05Z</time>
      </trkpt>
      <trkpt lat="44.4586" lon="6.51588">
        <ele>2856</ele>
        <time>2021-02-21T08:59:06Z</time>
      </trkpt>
      <trkpt lat="44.4586" lon="6.51588">
        <ele>2856</ele>
        <time>2021-02-21T08:59:07Z</time>
      </trkpt>
      <trkpt lat="44.4586" lon="6.51588">
        <ele>2856</ele>
        <time>2021-02-21T08:59:08Z</time>
      </trkpt>
      <trkpt lat="44.4586" lon="6.51588">
        <ele>2856</ele>
        <time>2021-02-21T08:59:09Z</time>
      </trkpt>
      <trkpt lat="44.4586" lon="6.51588">
        <ele>2856</ele>
        <time>2021-02-21T08:59:10Z</time>
      </trkpt>
      <trkpt lat="44.4586" lon="6.51588">
        <ele>2856</ele>
        <time>2021-02-21T08:59:11Z</time>
      </trkpt>
      <trkpt lat="44.4586" lon="6.51588">
        <ele>2856</ele>
        <time>2021-02-21T08:59:12Z</time>
      </trkpt>
      <trkpt lat="44.4586" lon="6.51588">
        <ele>2856</ele>
        <time>2021-02-21T08:59:13Z</time>
      </trkpt>
      <trkpt lat="44.4586" lon="6.51588">
        <ele>2856</ele>
        <time>2021-02-21T08:59:14Z</time>
      </trkpt>
      <trkpt lat="44.4586" lon="6.51588">
        <ele>2856</ele>
        <time>2021-02-21T08:59:15Z</time>
      </trkpt>
      <trkpt lat="44.4586" lon="6.51588">
        <ele>2856</ele>
        <time>2021-02-21T08:59:16Z</time>
      </trkpt>
      <trkpt lat="44.4586" lon="6.51588">
        <ele>2856</ele>
        <time>2021-02-21T08:59:17Z</time>
      </trkpt>
      <trkpt lat="44.4586" lon="6.51588">
        <ele>2856</ele>
        <time>2021-02-21T08:59:18Z</time>
      </trkpt>
      <trkpt lat="44.4586" lon="6.51588">
        <ele>2856</ele>
        <time>2021-02-21T08:59:19Z</time>
      </trkpt>
      <trkpt lat="44.4586" lon="6.51588">
        <ele>2856</ele>
        <time>2021-02-21T08:59:20Z</time>
      </trkpt>
      <trkpt lat="44.4586" lon="6.51588">
        <ele>2856</ele>
        <time>2021-02-21T08:59:21Z</time>
      </trkpt>
      <trkpt lat="44.4586" lon="6.51588">
        <ele>2856</ele>
        <time>2021-02-21T08:59:22Z</time>
      </trkpt>
      <trkpt lat="44.4586" lon="6.51588">
        <ele>2856</ele>
        <time>2021-02-21T08:59:23Z</time>
      </trkpt>
      <trkpt lat="44.45862" lon="6.5159">
        <ele>2856</ele>
        <time>2021-02-21T08:59:24Z</time>
      </trkpt>
      <trkpt lat="44.45862" lon="6.51591">
        <ele>2856</ele>
        <time>2021-02-21T08:59:25Z</time>
      </trkpt>
      <trkpt lat="44.45862" lon="6.51591">
        <ele>2856</ele>
        <time>2021-02-21T08:59:26Z</time>
      </trkpt>
      <trkpt lat="44.45862" lon="6.51591">
        <ele>2856</ele>
        <time>2021-02-21T08:59:27Z</time>
      </trkpt>
      <trkpt lat="44.45862" lon="6.51591">
        <ele>2856</ele>
        <time>2021-02-21T08:59:28Z</time>
      </trkpt>
      <trkpt lat="44.45862" lon="6.51591">
        <ele>2856</ele>
        <time>2021-02-21T08:59:29Z</time>
      </trkpt>
      <trkpt lat="44.45862" lon="6.51591">
        <ele>2856</ele>
        <time>2021-02-21T08:59:30Z</time>
      </trkpt>
      <trkpt lat="44.45862" lon="6.5159">
        <ele>2856</ele>
        <time>2021-02-21T08:59:31Z</time>
      </trkpt>
      <trkpt lat="44.45863" lon="6.51589">
        <ele>2856</ele>
        <time>2021-02-21T08:59:32Z</time>
      </trkpt>
      <trkpt lat="44.45863" lon="6.51589">
        <ele>2856</ele>
        <time>2021-02-21T08:59:33Z</time>
      </trkpt>
      <trkpt lat="44.45864" lon="6.5159">
        <ele>2856</ele>
        <time>2021-02-21T08:59:34Z</time>
      </trkpt>
      <trkpt lat="44.45864" lon="6.5159">
        <ele>2855</ele>
        <time>2021-02-21T08:59:35Z</time>
      </trkpt>
      <trkpt lat="44.45864" lon="6.5159">
        <ele>2855</ele>
        <time>2021-02-21T08:59:36Z</time>
      </trkpt>
      <trkpt lat="44.45864" lon="6.51591">
        <ele>2854</ele>
        <time>2021-02-21T08:59:37Z</time>
      </trkpt>
      <trkpt lat="44.45864" lon="6.51591">
        <ele>2854</ele>
        <time>2021-02-21T08:59:38Z</time>
      </trkpt>
      <trkpt lat="44.45864" lon="6.51591">
        <ele>2854</ele>
        <time>2021-02-21T08:59:39Z</time>
      </trkpt>
      <trkpt lat="44.45864" lon="6.51591">
        <ele>2854</ele>
        <time>2021-02-21T08:59:40Z</time>
      </trkpt>
      <trkpt lat="44.45864" lon="6.51591">
        <ele>2854</ele>
        <time>2021-02-21T08:59:41Z</time>
      </trkpt>
      <trkpt lat="44.45864" lon="6.51591">
        <ele>2853</ele>
        <time>2021-02-21T08:59:42Z</time>
      </trkpt>
      <trkpt lat="44.45864" lon="6.51591">
        <ele>2853</ele>
        <time>2021-02-21T08:59:43Z</time>
      </trkpt>
      <trkpt lat="44.45865" lon="6.51593">
        <ele>2853</ele>
        <time>2021-02-21T08:59:44Z</time>
      </trkpt>
      <trkpt lat="44.45865" lon="6.51594">
        <ele>2852</ele>
        <time>2021-02-21T08:59:45Z</time>
      </trkpt>
      <trkpt lat="44.45867" lon="6.51595">
        <ele>2852</ele>
        <time>2021-02-21T08:59:46Z</time>
      </trkpt>
      <trkpt lat="44.45868" lon="6.51596">
        <ele>2852</ele>
        <time>2021-02-21T08:59:47Z</time>
      </trkpt>
      <trkpt lat="44.45869" lon="6.51597">
        <ele>2852</ele>
        <time>2021-02-21T08:59:48Z</time>
      </trkpt>
      <trkpt lat="44.4587" lon="6.51598">
        <ele>2851</ele>
        <time>2021-02-21T08:59:49Z</time>
      </trkpt>
      <trkpt lat="44.45871" lon="6.51599">
        <ele>2851</ele>
        <time>2021-02-21T08:59:50Z</time>
      </trkpt>
      <trkpt lat="44.45872" lon="6.516">
        <ele>2851</ele>
        <time>2021-02-21T08:59:51Z</time>
      </trkpt>
      <trkpt lat="44.45873" lon="6.51601">
        <ele>2851</ele>
        <time>2021-02-21T08:59:52Z</time>
      </trkpt>
      <trkpt lat="44.45874" lon="6.51602">
        <ele>2850</ele>
        <time>2021-02-21T08:59:53Z</time>
      </trkpt>
      <trkpt lat="44.45875" lon="6.51603">
        <ele>2850</ele>
        <time>2021-02-21T08:59:54Z</time>
      </trkpt>
      <trkpt lat="44.45875" lon="6.51603">
        <ele>2849</ele>
        <time>2021-02-21T08:59:55Z</time>
      </trkpt>
      <trkpt lat="44.45875" lon="6.51604">
        <ele>2849</ele>
        <time>2021-02-21T08:59:56Z</time>
      </trkpt>
      <trkpt lat="44.45875" lon="6.51604">
        <ele>2849</ele>
        <time>2021-02-21T08:59:57Z</time>
      </trkpt>
      <trkpt lat="44.45875" lon="6.51605">
        <ele>2849</ele>
        <time>2021-02-21T08:59:58Z</time>
      </trkpt>
      <trkpt lat="44.45875" lon="6.51606">
        <ele>2849</ele>
        <time>2021-02-21T08:59:59Z</time>
      </trkpt>
      <trkpt lat="44.45873" lon="6.51606">
        <ele>2849</ele>
        <time>2021-02-21T09:00:00Z</time>
      </trkpt>
      <trkpt lat="44.45872" lon="6.51606">
        <ele>2848</ele>
        <time>2021-02-21T09:00:01Z</time>
      </trkpt>
      <trkpt lat="44.45871" lon="6.51606">
        <ele>2848</ele>
        <time>2021-02-21T09:00:02Z</time>
      </trkpt>
      <trkpt lat="44.4587" lon="6.51606">
        <ele>2848</ele>
        <time>2021-02-21T09:00:03Z</time>
      </trkpt>
      <trkpt lat="44.4587" lon="6.51606">
        <ele>2848</ele>
        <time>2021-02-21T09:00:04Z</time>
      </trkpt>
      <trkpt lat="44.45869" lon="6.51606">
        <ele>2847</ele>
        <time>2021-02-21T09:00:05Z</time>
      </trkpt>
      <trkpt lat="44.45868" lon="6.51606">
        <ele>2847</ele>
        <time>2021-02-21T09:00:06Z</time>
      </trkpt>
      <trkpt lat="44.45868" lon="6.51606">
        <ele>2847</ele>
        <time>2021-02-21T09:00:07Z</time>
      </trkpt>
      <trkpt lat="44.45868" lon="6.51606">
        <ele>2847</ele>
        <time>2021-02-21T09:00:08Z</time>
      </trkpt>
      <trkpt lat="44.45868" lon="6.51606">
        <ele>2846</ele>
        <time>2021-02-21T09:00:09Z</time>
      </trkpt>
      <trkpt lat="44.45868" lon="6.51606">
        <ele>2846</ele>
        <time>2021-02-21T09:00:10Z</time>
      </trkpt>
      <trkpt lat="44.45868" lon="6.51606">
        <ele>2846</ele>
        <time>2021-02-21T09:00:11Z</time>
      </trkpt>
      <trkpt lat="44.45868" lon="6.51606">
        <ele>2846</ele>
        <time>2021-02-21T09:00:12Z</time>
      </trkpt>
      <trkpt lat="44.45868" lon="6.51606">
        <ele>2846</ele>
        <time>2021-02-21T09:00:13Z</time>
      </trkpt>
      <trkpt lat="44.45867" lon="6.51607">
        <ele>2846</ele>
        <time>2021-02-21T09:00:14Z</time>
      </trkpt>
      <trkpt lat="44.45867" lon="6.51607">
        <ele>2846</ele>
        <time>2021-02-21T09:00:15Z</time>
      </trkpt>
      <trkpt lat="44.45866" lon="6.51608">
        <ele>2846</ele>
        <time>2021-02-21T09:00:16Z</time>
      </trkpt>
      <trkpt lat="44.45866" lon="6.51608">
        <ele>2846</ele>
        <time>2021-02-21T09:00:17Z</time>
      </trkpt>
      <trkpt lat="44.45865" lon="6.51608">
        <ele>2846</ele>
        <time>2021-02-21T09:00:18Z</time>
      </trkpt>
      <trkpt lat="44.45865" lon="6.51608">
        <ele>2846</ele>
        <time>2021-02-21T09:00:19Z</time>
      </trkpt>
      <trkpt lat="44.45865" lon="6.51609">
        <ele>2845</ele>
        <time>2021-02-21T09:00:20Z</time>
      </trkpt>
      <trkpt lat="44.45864" lon="6.51609">
        <ele>2845</ele>
        <time>2021-02-21T09:00:21Z</time>
      </trkpt>
      <trkpt lat="44.45863" lon="6.51609">
        <ele>2845</ele>
        <time>2021-02-21T09:00:22Z</time>
      </trkpt>
      <trkpt lat="44.45862" lon="6.51609">
        <ele>2845</ele>
        <time>2021-02-21T09:00:23Z</time>
      </trkpt>
      <trkpt lat="44.45861" lon="6.51609">
        <ele>2845</ele>
        <time>2021-02-21T09:00:24Z</time>
      </trkpt>
      <trkpt lat="44.4586" lon="6.51609">
        <ele>2845</ele>
        <time>2021-02-21T09:00:25Z</time>
      </trkpt>
      <trkpt lat="44.45858" lon="6.51609">
        <ele>2844</ele>
        <time>2021-02-21T09:00:26Z</time>
      </trkpt>
      <trkpt lat="44.45856" lon="6.51608">
        <ele>2844</ele>
        <time>2021-02-21T09:00:27Z</time>
      </trkpt>
      <trkpt lat="44.45853" lon="6.51607">
        <ele>2843</ele>
        <time>2021-02-21T09:00:28Z</time>
      </trkpt>
      <trkpt lat="44.45851" lon="6.51606">
        <ele>2843</ele>
        <time>2021-02-21T09:00:29Z</time>
      </trkpt>
      <trkpt lat="44.4585" lon="6.51606">
        <ele>2842</ele>
        <time>2021-02-21T09:00:30Z</time>
      </trkpt>
      <trkpt lat="44.45849" lon="6.51606">
        <ele>2842</ele>
        <time>2021-02-21T09:00:31Z</time>
      </trkpt>
      <trkpt lat="44.45849" lon="6.51606">
        <ele>2842</ele>
        <time>2021-02-21T09:00:32Z</time>
      </trkpt>
      <trkpt lat="44.45849" lon="6.51606">
        <ele>2842</ele>
        <time>2021-02-21T09:00:33Z</time>
      </trkpt>
      <trkpt lat="44.45848" lon="6.51606">
        <ele>2842</ele>
        <time>2021-02-21T09:00:34Z</time>
      </trkpt>
      <trkpt lat="44.45847" lon="6.51606">
        <ele>2842</ele>
        <time>2021-02-21T09:00:35Z</time>
      </trkpt>
      <trkpt lat="44.45847" lon="6.51606">
        <ele>2841</ele>
        <time>2021-02-21T09:00:36Z</time>
      </trkpt>
      <trkpt lat="44.45846" lon="6.51606">
        <ele>2841</ele>
        <time>2021-02-21T09:00:37Z</time>
      </trkpt>
      <trkpt lat="44.45845" lon="6.51606">
        <ele>2840</ele>
        <time>2021-02-21T09:00:38Z</time>
      </trkpt>
      <trkpt lat="44.45844" lon="6.51606">
        <ele>2840</ele>
        <time>2021-02-21T09:00:39Z</time>
      </trkpt>
      <trkpt lat="44.45843" lon="6.51606">
        <ele>2839</ele>
        <time>2021-02-21T09:00:40Z</time>
      </trkpt>
      <trkpt lat="44.45842" lon="6.51605">
        <ele>2839</ele>
        <time>2021-02-21T09:00:41Z</time>
      </trkpt>
      <trkpt lat="44.45841" lon="6.51605">
        <ele>2839</ele>
        <time>2021-02-21T09:00:42Z</time>
      </trkpt>
      <trkpt lat="44.45841" lon="6.51605">
        <ele>2838</ele>
        <time>2021-02-21T09:00:43Z</time>
      </trkpt>
      <trkpt lat="44.45842" lon="6.51605">
        <ele>2838</ele>
        <time>2021-02-21T09:00:44Z</time>
      </trkpt>
      <trkpt lat="44.45842" lon="6.51605">
        <ele>2838</ele>
        <time>2021-02-21T09:00:45Z</time>
      </trkpt>
      <trkpt lat="44.45842" lon="6.51605">
        <ele>2838</ele>
        <time>2021-02-21T09:00:46Z</time>
      </trkpt>
      <trkpt lat="44.45842" lon="6.51605">
        <ele>2838</ele>
        <time>2021-02-21T09:00:47Z</time>
      </trkpt>
      <trkpt lat="44.45841" lon="6.51605">
        <ele>2838</ele>
        <time>2021-02-21T09:00:48Z</time>
      </trkpt>
      <trkpt lat="44.45841" lon="6.51604">
        <ele>2838</ele>
        <time>2021-02-21T09:00:49Z</time>
      </trkpt>
      <trkpt lat="44.4584" lon="6.51604">
        <ele>2838</ele>
        <time>2021-02-21T09:00:50Z</time>
      </trkpt>
      <trkpt lat="44.45839" lon="6.51604">
        <ele>2838</ele>
        <time>2021-02-21T09:00:51Z</time>
      </trkpt>
      <trkpt lat="44.45839" lon="6.51604">
        <ele>2838</ele>
        <time>2021-02-21T09:00:52Z</time>
      </trkpt>
      <trkpt lat="44.45839" lon="6.51604">
        <ele>2838</ele>
        <time>2021-02-21T09:00:53Z</time>
      </trkpt>
      <trkpt lat="44.45839" lon="6.51604">
        <ele>2838</ele>
        <time>2021-02-21T09:00:54Z</time>
      </trkpt>
      <trkpt lat="44.45839" lon="6.51604">
        <ele>2838</ele>
        <time>2021-02-21T09:00:55Z</time>
      </trkpt>
      <trkpt lat="44.45838" lon="6.51604">
        <ele>2838</ele>
        <time>2021-02-21T09:00:56Z</time>
      </trkpt>
      <trkpt lat="44.45838" lon="6.51604">
        <ele>2838</ele>
        <time>2021-02-21T09:00:57Z</time>
      </trkpt>
      <trkpt lat="44.45838" lon="6.51603">
        <ele>2838</ele>
        <time>2021-02-21T09:00:58Z</time>
      </trkpt>
      <trkpt lat="44.45838" lon="6.51603">
        <ele>2838</ele>
        <time>2021-02-21T09:00:59Z</time>
      </trkpt>
      <trkpt lat="44.45838" lon="6.51603">
        <ele>2838</ele>
        <time>2021-02-21T09:01:00Z</time>
      </trkpt>
      <trkpt lat="44.45838" lon="6.51603">
        <ele>2838</ele>
        <time>2021-02-21T09:01:01Z</time>
      </trkpt>
      <trkpt lat="44.45837" lon="6.51603">
        <ele>2838</ele>
        <time>2021-02-21T09:01:02Z</time>
      </trkpt>
      <trkpt lat="44.45837" lon="6.51602">
        <ele>2838</ele>
        <time>2021-02-21T09:01:03Z</time>
      </trkpt>
      <trkpt lat="44.45836" lon="6.51602">
        <ele>2838</ele>
        <time>2021-02-21T09:01:04Z</time>
      </trkpt>
      <trkpt lat="44.45835" lon="6.51602">
        <ele>2837</ele>
        <time>2021-02-21T09:01:05Z</time>
      </trkpt>
      <trkpt lat="44.45834" lon="6.51601">
        <ele>2837</ele>
        <time>2021-02-21T09:01:06Z</time>
      </trkpt>
      <trkpt lat="44.45834" lon="6.51601">
        <ele>2837</ele>
        <time>2021-02-21T09:01:07Z</time>
      </trkpt>
      <trkpt lat="44.45833" lon="6.516">
        <ele>2836</ele>
        <time>2021-02-21T09:01:08Z</time>
      </trkpt>
      <trkpt lat="44.45832" lon="6.51598">
        <ele>2834</ele>
        <time>2021-02-21T09:01:09Z</time>
      </trkpt>
      <trkpt lat="44.45828" lon="6.51595">
        <ele>2833</ele>
        <time>2021-02-21T09:01:10Z</time>
      </trkpt>
      <trkpt lat="44.45824" lon="6.51592">
        <ele>2832</ele>
        <time>2021-02-21T09:01:11Z</time>
      </trkpt>
      <trkpt lat="44.4582" lon="6.51588">
        <ele>2831</ele>
        <time>2021-02-21T09:01:12Z</time>
      </trkpt>
      <trkpt lat="44.45817" lon="6.51585">
        <ele>2830</ele>
        <time>2021-02-21T09:01:13Z</time>
      </trkpt>
      <trkpt lat="44.45813" lon="6.51583">
        <ele>2830</ele>
        <time>2021-02-21T09:01:14Z</time>
      </trkpt>
      <trkpt lat="44.4581" lon="6.51581">
        <ele>2829</ele>
        <time>2021-02-21T09:01:15Z</time>
      </trkpt>
      <trkpt lat="44.45808" lon="6.5158">
        <ele>2828</ele>
        <time>2021-02-21T09:01:16Z</time>
      </trkpt>
      <trkpt lat="44.45807" lon="6.5158">
        <ele>2828</ele>
        <time>2021-02-21T09:01:17Z</time>
      </trkpt>
      <trkpt lat="44.45808" lon="6.5158">
        <ele>2828</ele>
        <time>2021-02-21T09:01:18Z</time>
      </trkpt>
      <trkpt lat="44.45808" lon="6.5158">
        <ele>2828</ele>
        <time>2021-02-21T09:01:19Z</time>
      </trkpt>
      <trkpt lat="44.45809" lon="6.5158">
        <ele>2828</ele>
        <time>2021-02-21T09:01:20Z</time>
      </trkpt>
      <trkpt lat="44.45809" lon="6.5158">
        <ele>2827</ele>
        <time>2021-02-21T09:01:21Z</time>
      </trkpt>
      <trkpt lat="44.45809" lon="6.5158">
        <ele>2827</ele>
        <time>2021-02-21T09:01:22Z</time>
      </trkpt>
      <trkpt lat="44.45809" lon="6.5158">
        <ele>2827</ele>
        <time>2021-02-21T09:01:23Z</time>
      </trkpt>
      <trkpt lat="44.45809" lon="6.5158">
        <ele>2827</ele>
        <time>2021-02-21T09:01:24Z</time>
      </trkpt>
      <trkpt lat="44.45808" lon="6.51579">
        <ele>2827</ele>
        <time>2021-02-21T09:01:25Z</time>
      </trkpt>
      <trkpt lat="44.45808" lon="6.51579">
        <ele>2827</ele>
        <time>2021-02-21T09:01:26Z</time>
      </trkpt>
      <trkpt lat="44.45807" lon="6.51578">
        <ele>2827</ele>
        <time>2021-02-21T09:01:27Z</time>
      </trkpt>
      <trkpt lat="44.45806" lon="6.51578">
        <ele>2827</ele>
        <time>2021-02-21T09:01:28Z</time>
      </trkpt>
      <trkpt lat="44.45805" lon="6.51577">
        <ele>2827</ele>
        <time>2021-02-21T09:01:29Z</time>
      </trkpt>
      <trkpt lat="44.45803" lon="6.51576">
        <ele>2828</ele>
        <time>2021-02-21T09:01:30Z</time>
      </trkpt>
      <trkpt lat="44.45801" lon="6.51575">
        <ele>2828</ele>
        <time>2021-02-21T09:01:31Z</time>
      </trkpt>
      <trkpt lat="44.45799" lon="6.51573">
        <ele>2827</ele>
        <time>2021-02-21T09:01:32Z</time>
      </trkpt>
      <trkpt lat="44.45798" lon="6.51572">
        <ele>2827</ele>
        <time>2021-02-21T09:01:33Z</time>
      </trkpt>
      <trkpt lat="44.45797" lon="6.51571">
        <ele>2827</ele>
        <time>2021-02-21T09:01:34Z</time>
      </trkpt>
      <trkpt lat="44.45797" lon="6.51571">
        <ele>2827</ele>
        <time>2021-02-21T09:01:35Z</time>
      </trkpt>
      <trkpt lat="44.45797" lon="6.51571">
        <ele>2827</ele>
        <time>2021-02-21T09:01:36Z</time>
      </trkpt>
      <trkpt lat="44.45797" lon="6.51571">
        <ele>2827</ele>
        <time>2021-02-21T09:01:37Z</time>
      </trkpt>
      <trkpt lat="44.45797" lon="6.51571">
        <ele>2827</ele>
        <time>2021-02-21T09:01:38Z</time>
      </trkpt>
      <trkpt lat="44.45797" lon="6.51571">
        <ele>2827</ele>
        <time>2021-02-21T09:01:39Z</time>
      </trkpt>
      <trkpt lat="44.45797" lon="6.51571">
        <ele>2827</ele>
        <time>2021-02-21T09:01:40Z</time>
      </trkpt>
      <trkpt lat="44.45797" lon="6.51571">
        <ele>2827</ele>
        <time>2021-02-21T09:01:41Z</time>
      </trkpt>
      <trkpt lat="44.45797" lon="6.51571">
        <ele>2827</ele>
        <time>2021-02-21T09:01:42Z</time>
      </trkpt>
      <trkpt lat="44.45797" lon="6.51571">
        <ele>2826</ele>
        <time>2021-02-21T09:01:43Z</time>
      </trkpt>
      <trkpt lat="44.45796" lon="6.51571">
        <ele>2826</ele>
        <time>2021-02-21T09:01:44Z</time>
      </trkpt>
      <trkpt lat="44.45796" lon="6.51571">
        <ele>2826</ele>
        <time>2021-02-21T09:01:45Z</time>
      </trkpt>
      <trkpt lat="44.45796" lon="6.51571">
        <ele>2826</ele>
        <time>2021-02-21T09:01:46Z</time>
      </trkpt>
      <trkpt lat="44.45796" lon="6.51571">
        <ele>2826</ele>
        <time>2021-02-21T09:01:47Z</time>
      </trkpt>
      <trkpt lat="44.45796" lon="6.51571">
        <ele>2826</ele>
        <time>2021-02-21T09:01:48Z</time>
      </trkpt>
      <trkpt lat="44.45796" lon="6.51571">
        <ele>2826</ele>
        <time>2021-02-21T09:01:49Z</time>
      </trkpt>
      <trkpt lat="44.45796" lon="6.51571">
        <ele>2826</ele>
        <time>2021-02-21T09:01:50Z</time>
      </trkpt>
      <trkpt lat="44.45796" lon="6.51571">
        <ele>2826</ele>
        <time>2021-02-21T09:01:51Z</time>
      </trkpt>
      <trkpt lat="44.45796" lon="6.51571">
        <ele>2826</ele>
        <time>2021-02-21T09:01:52Z</time>
      </trkpt>
      <trkpt lat="44.45796" lon="6.51571">
        <ele>2826</ele>
        <time>2021-02-21T09:01:53Z</time>
      </trkpt>
      <trkpt lat="44.45796" lon="6.51571">
        <ele>2826</ele>
        <time>2021-02-21T09:01:54Z</time>
      </trkpt>
      <trkpt lat="44.45796" lon="6.51571">
        <ele>2826</ele>
        <time>2021-02-21T09:01:55Z</time>
      </trkpt>
      <trkpt lat="44.45796" lon="6.51571">
        <ele>2826</ele>
        <time>2021-02-21T09:01:56Z</time>
      </trkpt>
      <trkpt lat="44.45796" lon="6.51571">
        <ele>2826</ele>
        <time>2021-02-21T09:01:57Z</time>
      </trkpt>
      <trkpt lat="44.45796" lon="6.51571">
        <ele>2826</ele>
        <time>2021-02-21T09:01:58Z</time>
      </trkpt>
      <trkpt lat="44.45796" lon="6.51571">
        <ele>2826</ele>
        <time>2021-02-21T09:01:59Z</time>
      </trkpt>
      <trkpt lat="44.45796" lon="6.51571">
        <ele>2826</ele>
        <time>2021-02-21T09:02:00Z</time>
      </trkpt>
      <trkpt lat="44.45796" lon="6.51571">
        <ele>2826</ele>
        <time>2021-02-21T09:02:01Z</time>
      </trkpt>
      <trkpt lat="44.45796" lon="6.51571">
        <ele>2826</ele>
        <time>2021-02-21T09:02:02Z</time>
      </trkpt>
      <trkpt lat="44.45796" lon="6.51571">
        <ele>2826</ele>
        <time>2021-02-21T09:02:03Z</time>
      </trkpt>
      <trkpt lat="44.45796" lon="6.51571">
        <ele>2826</ele>
        <time>2021-02-21T09:02:04Z</time>
      </trkpt>
      <trkpt lat="44.45796" lon="6.51571">
        <ele>2826</ele>
        <time>2021-02-21T09:02:05Z</time>
      </trkpt>
      <trkpt lat="44.45796" lon="6.51571">
        <ele>2826</ele>
        <time>2021-02-21T09:02:06Z</time>
      </trkpt>
      <trkpt lat="44.45796" lon="6.51571">
        <ele>2826</ele>
        <time>2021-02-21T09:02:07Z</time>
      </trkpt>
      <trkpt lat="44.45796" lon="6.51571">
        <ele>2826</ele>
        <time>2021-02-21T09:02:08Z</time>
      </trkpt>
      <trkpt lat="44.45796" lon="6.51571">
        <ele>2826</ele>
        <time>2021-02-21T09:02:09Z</time>
      </trkpt>
      <trkpt lat="44.45796" lon="6.51571">
        <ele>2826</ele>
        <time>2021-02-21T09:02:10Z</time>
      </trkpt>
      <trkpt lat="44.45796" lon="6.51571">
        <ele>2826</ele>
        <time>2021-02-21T09:02:11Z</time>
      </trkpt>
      <trkpt lat="44.45796" lon="6.51571">
        <ele>2826</ele>
        <time>2021-02-21T09:02:12Z</time>
      </trkpt>
      <trkpt lat="44.45796" lon="6.51571">
        <ele>2826</ele>
        <time>2021-02-21T09:02:13Z</time>
      </trkpt>
      <trkpt lat="44.45796" lon="6.51571">
        <ele>2826</ele>
        <time>2021-02-21T09:02:14Z</time>
      </trkpt>
      <trkpt lat="44.45796" lon="6.51571">
        <ele>2826</ele>
        <time>2021-02-21T09:02:15Z</time>
      </trkpt>
      <trkpt lat="44.45796" lon="6.51571">
        <ele>2826</ele>
        <time>2021-02-21T09:02:16Z</time>
      </trkpt>
      <trkpt lat="44.45796" lon="6.51571">
        <ele>2826</ele>
        <time>2021-02-21T09:02:17Z</time>
      </trkpt>
      <trkpt lat="44.45796" lon="6.51571">
        <ele>2826</ele>
        <time>2021-02-21T09:02:18Z</time>
      </trkpt>
      <trkpt lat="44.45796" lon="6.51571">
        <ele>2826</ele>
        <time>2021-02-21T09:02:19Z</time>
      </trkpt>
      <trkpt lat="44.45796" lon="6.51571">
        <ele>2826</ele>
        <time>2021-02-21T09:02:20Z</time>
      </trkpt>
      <trkpt lat="44.45796" lon="6.51571">
        <ele>2826</ele>
        <time>2021-02-21T09:02:21Z</time>
      </trkpt>
      <trkpt lat="44.45796" lon="6.51571">
        <ele>2826</ele>
        <time>2021-02-21T09:02:22Z</time>
      </trkpt>
      <trkpt lat="44.45796" lon="6.51571">
        <ele>2826</ele>
        <time>2021-02-21T09:02:23Z</time>
      </trkpt>
      <trkpt lat="44.45796" lon="6.51571">
        <ele>2826</ele>
        <time>2021-02-21T09:02:24Z</time>
      </trkpt>
      <trkpt lat="44.45796" lon="6.51571">
        <ele>2826</ele>
        <time>2021-02-21T09:02:25Z</time>
      </trkpt>
      <trkpt lat="44.45796" lon="6.51571">
        <ele>2826</ele>
        <time>2021-02-21T09:02:26Z</time>
      </trkpt>
      <trkpt lat="44.45796" lon="6.51571">
        <ele>2826</ele>
        <time>2021-02-21T09:02:27Z</time>
      </trkpt>
      <trkpt lat="44.45796" lon="6.51571">
        <ele>2826</ele>
        <time>2021-02-21T09:02:28Z</time>
      </trkpt>
      <trkpt lat="44.45796" lon="6.51571">
        <ele>2826</ele>
        <time>2021-02-21T09:02:29Z</time>
      </trkpt>
      <trkpt lat="44.45796" lon="6.51571">
        <ele>2826</ele>
        <time>2021-02-21T09:02:30Z</time>
      </trkpt>
      <trkpt lat="44.45794" lon="6.5157">
        <ele>2827</ele>
        <time>2021-02-21T09:02:31Z</time>
      </trkpt>
      <trkpt lat="44.45794" lon="6.5157">
        <ele>2827</ele>
        <time>2021-02-21T09:02:32Z</time>
      </trkpt>
      <trkpt lat="44.45793" lon="6.5157">
        <ele>2827</ele>
        <time>2021-02-21T09:02:33Z</time>
      </trkpt>
      <trkpt lat="44.45793" lon="6.5157">
        <ele>2827</ele>
        <time>2021-02-21T09:02:34Z</time>
      </trkpt>
      <trkpt lat="44.45793" lon="6.5157">
        <ele>2828</ele>
        <time>2021-02-21T09:02:35Z</time>
      </trkpt>
      <trkpt lat="44.45793" lon="6.5157">
        <ele>2828</ele>
        <time>2021-02-21T09:02:36Z</time>
      </trkpt>
      <trkpt lat="44.45793" lon="6.5157">
        <ele>2828</ele>
        <time>2021-02-21T09:02:37Z</time>
      </trkpt>
      <trkpt lat="44.45793" lon="6.5157">
        <ele>2828</ele>
        <time>2021-02-21T09:02:38Z</time>
      </trkpt>
      <trkpt lat="44.45793" lon="6.5157">
        <ele>2828</ele>
        <time>2021-02-21T09:02:39Z</time>
      </trkpt>
      <trkpt lat="44.45793" lon="6.5157">
        <ele>2828</ele>
        <time>2021-02-21T09:02:40Z</time>
      </trkpt>
      <trkpt lat="44.45793" lon="6.51571">
        <ele>2828</ele>
        <time>2021-02-21T09:02:41Z</time>
      </trkpt>
      <trkpt lat="44.45792" lon="6.51571">
        <ele>2828</ele>
        <time>2021-02-21T09:02:42Z</time>
      </trkpt>
      <trkpt lat="44.45792" lon="6.51571">
        <ele>2828</ele>
        <time>2021-02-21T09:02:43Z</time>
      </trkpt>
      <trkpt lat="44.45792" lon="6.51571">
        <ele>2828</ele>
        <time>2021-02-21T09:02:44Z</time>
      </trkpt>
      <trkpt lat="44.45792" lon="6.51571">
        <ele>2828</ele>
        <time>2021-02-21T09:02:45Z</time>
      </trkpt>
      <trkpt lat="44.45792" lon="6.5157">
        <ele>2828</ele>
        <time>2021-02-21T09:02:46Z</time>
      </trkpt>
      <trkpt lat="44.45792" lon="6.5157">
        <ele>2828</ele>
        <time>2021-02-21T09:02:47Z</time>
      </trkpt>
      <trkpt lat="44.45792" lon="6.5157">
        <ele>2828</ele>
        <time>2021-02-21T09:02:48Z</time>
      </trkpt>
      <trkpt lat="44.45792" lon="6.5157">
        <ele>2828</ele>
        <time>2021-02-21T09:02:49Z</time>
      </trkpt>
      <trkpt lat="44.45791" lon="6.5157">
        <ele>2828</ele>
        <time>2021-02-21T09:02:50Z</time>
      </trkpt>
      <trkpt lat="44.45791" lon="6.5157">
        <ele>2828</ele>
        <time>2021-02-21T09:02:51Z</time>
      </trkpt>
      <trkpt lat="44.45792" lon="6.5157">
        <ele>2828</ele>
        <time>2021-02-21T09:02:52Z</time>
      </trkpt>
      <trkpt lat="44.45793" lon="6.51571">
        <ele>2828</ele>
        <time>2021-02-21T09:02:53Z</time>
      </trkpt>
      <trkpt lat="44.45794" lon="6.51571">
        <ele>2828</ele>
        <time>2021-02-21T09:02:54Z</time>
      </trkpt>
      <trkpt lat="44.45794" lon="6.51571">
        <ele>2828</ele>
        <time>2021-02-21T09:02:55Z</time>
      </trkpt>
      <trkpt lat="44.45795" lon="6.51572">
        <ele>2828</ele>
        <time>2021-02-21T09:02:56Z</time>
      </trkpt>
      <trkpt lat="44.45795" lon="6.51572">
        <ele>2828</ele>
        <time>2021-02-21T09:02:57Z</time>
      </trkpt>
      <trkpt lat="44.45794" lon="6.51572">
        <ele>2828</ele>
        <time>2021-02-21T09:02:58Z</time>
      </trkpt>
      <trkpt lat="44.45794" lon="6.51572">
        <ele>2828</ele>
        <time>2021-02-21T09:02:59Z</time>
      </trkpt>
      <trkpt lat="44.45794" lon="6.51572">
        <ele>2828</ele>
        <time>2021-02-21T09:03:00Z</time>
      </trkpt>
      <trkpt lat="44.45793" lon="6.51572">
        <ele>2828</ele>
        <time>2021-02-21T09:03:01Z</time>
      </trkpt>
      <trkpt lat="44.45793" lon="6.51571">
        <ele>2828</ele>
        <time>2021-02-21T09:03:02Z</time>
      </trkpt>
      <trkpt lat="44.45793" lon="6.51571">
        <ele>2828</ele>
        <time>2021-02-21T09:03:03Z</time>
      </trkpt>
      <trkpt lat="44.45793" lon="6.51571">
        <ele>2828</ele>
        <time>2021-02-21T09:03:04Z</time>
      </trkpt>
      <trkpt lat="44.45793" lon="6.51571">
        <ele>2828</ele>
        <time>2021-02-21T09:03:05Z</time>
      </trkpt>
      <trkpt lat="44.45792" lon="6.51572">
        <ele>2828</ele>
        <time>2021-02-21T09:03:06Z</time>
      </trkpt>
      <trkpt lat="44.45792" lon="6.51572">
        <ele>2828</ele>
        <time>2021-02-21T09:03:07Z</time>
      </trkpt>
      <trkpt lat="44.45791" lon="6.51572">
        <ele>2828</ele>
        <time>2021-02-21T09:03:08Z</time>
      </trkpt>
      <trkpt lat="44.45789" lon="6.51574">
        <ele>2827</ele>
        <time>2021-02-21T09:03:09Z</time>
      </trkpt>
      <trkpt lat="44.4579" lon="6.51576">
        <ele>2827</ele>
        <time>2021-02-21T09:03:10Z</time>
      </trkpt>
      <trkpt lat="44.45791" lon="6.51579">
        <ele>2826</ele>
        <time>2021-02-21T09:03:11Z</time>
      </trkpt>
      <trkpt lat="44.45792" lon="6.5158">
        <ele>2826</ele>
        <time>2021-02-21T09:03:12Z</time>
      </trkpt>
      <trkpt lat="44.45793" lon="6.51581">
        <ele>2825</ele>
        <time>2021-02-21T09:03:13Z</time>
      </trkpt>
      <trkpt lat="44.45794" lon="6.51582">
        <ele>2824</ele>
        <time>2021-02-21T09:03:14Z</time>
      </trkpt>
      <trkpt lat="44.45795" lon="6.51583">
        <ele>2824</ele>
        <time>2021-02-21T09:03:15Z</time>
      </trkpt>
      <trkpt lat="44.45796" lon="6.51585">
        <ele>2823</ele>
        <time>2021-02-21T09:03:16Z</time>
      </trkpt>
      <trkpt lat="44.45795" lon="6.51587">
        <ele>2823</ele>
        <time>2021-02-21T09:03:17Z</time>
      </trkpt>
      <trkpt lat="44.45793" lon="6.51587">
        <ele>2822</ele>
        <time>2021-02-21T09:03:18Z</time>
      </trkpt>
      <trkpt lat="44.45791" lon="6.51586">
        <ele>2821</ele>
        <time>2021-02-21T09:03:19Z</time>
      </trkpt>
      <trkpt lat="44.4579" lon="6.51587">
        <ele>2821</ele>
        <time>2021-02-21T09:03:20Z</time>
      </trkpt>
      <trkpt lat="44.45789" lon="6.51587">
        <ele>2820</ele>
        <time>2021-02-21T09:03:21Z</time>
      </trkpt>
      <trkpt lat="44.45788" lon="6.51587">
        <ele>2819</ele>
        <time>2021-02-21T09:03:22Z</time>
      </trkpt>
      <trkpt lat="44.45787" lon="6.51588">
        <ele>2818</ele>
        <time>2021-02-21T09:03:23Z</time>
      </trkpt>
      <trkpt lat="44.45786" lon="6.51588">
        <ele>2818</ele>
        <time>2021-02-21T09:03:24Z</time>
      </trkpt>
      <trkpt lat="44.45785" lon="6.51588">
        <ele>2816</ele>
        <time>2021-02-21T09:03:25Z</time>
      </trkpt>
      <trkpt lat="44.45783" lon="6.51588">
        <ele>2815</ele>
        <time>2021-02-21T09:03:26Z</time>
      </trkpt>
      <trkpt lat="44.4578" lon="6.51588">
        <ele>2814</ele>
        <time>2021-02-21T09:03:27Z</time>
      </trkpt>
      <trkpt lat="44.45779" lon="6.51587">
        <ele>2813</ele>
        <time>2021-02-21T09:03:28Z</time>
      </trkpt>
      <trkpt lat="44.45778" lon="6.51587">
        <ele>2813</ele>
        <time>2021-02-21T09:03:29Z</time>
      </trkpt>
      <trkpt lat="44.45778" lon="6.51588">
        <ele>2812</ele>
        <time>2021-02-21T09:03:30Z</time>
      </trkpt>
      <trkpt lat="44.45777" lon="6.51588">
        <ele>2811</ele>
        <time>2021-02-21T09:03:31Z</time>
      </trkpt>
      <trkpt lat="44.45777" lon="6.51589">
        <ele>2810</ele>
        <time>2021-02-21T09:03:32Z</time>
      </trkpt>
      <trkpt lat="44.45777" lon="6.51589">
        <ele>2810</ele>
        <time>2021-02-21T09:03:33Z</time>
      </trkpt>
      <trkpt lat="44.45777" lon="6.5159">
        <ele>2809</ele>
        <time>2021-02-21T09:03:34Z</time>
      </trkpt>
      <trkpt lat="44.45776" lon="6.5159">
        <ele>2809</ele>
        <time>2021-02-21T09:03:35Z</time>
      </trkpt>
      <trkpt lat="44.45776" lon="6.5159">
        <ele>2809</ele>
        <time>2021-02-21T09:03:36Z</time>
      </trkpt>
      <trkpt lat="44.45775" lon="6.51591">
        <ele>2809</ele>
        <time>2021-02-21T09:03:37Z</time>
      </trkpt>
      <trkpt lat="44.45773" lon="6.51591">
        <ele>2808</ele>
        <time>2021-02-21T09:03:38Z</time>
      </trkpt>
      <trkpt lat="44.45771" lon="6.51591">
        <ele>2808</ele>
        <time>2021-02-21T09:03:39Z</time>
      </trkpt>
      <trkpt lat="44.45771" lon="6.51591">
        <ele>2807</ele>
        <time>2021-02-21T09:03:40Z</time>
      </trkpt>
      <trkpt lat="44.45771" lon="6.51591">
        <ele>2807</ele>
        <time>2021-02-21T09:03:41Z</time>
      </trkpt>
      <trkpt lat="44.45771" lon="6.51591">
        <ele>2807</ele>
        <time>2021-02-21T09:03:42Z</time>
      </trkpt>
      <trkpt lat="44.45771" lon="6.51591">
        <ele>2807</ele>
        <time>2021-02-21T09:03:43Z</time>
      </trkpt>
      <trkpt lat="44.45771" lon="6.51591">
        <ele>2807</ele>
        <time>2021-02-21T09:03:44Z</time>
      </trkpt>
      <trkpt lat="44.45771" lon="6.5159">
        <ele>2806</ele>
        <time>2021-02-21T09:03:45Z</time>
      </trkpt>
      <trkpt lat="44.45771" lon="6.5159">
        <ele>2806</ele>
        <time>2021-02-21T09:03:46Z</time>
      </trkpt>
      <trkpt lat="44.45771" lon="6.5159">
        <ele>2806</ele>
        <time>2021-02-21T09:03:47Z</time>
      </trkpt>
      <trkpt lat="44.45771" lon="6.5159">
        <ele>2806</ele>
        <time>2021-02-21T09:03:48Z</time>
      </trkpt>
      <trkpt lat="44.4577" lon="6.5159">
        <ele>2806</ele>
        <time>2021-02-21T09:03:49Z</time>
      </trkpt>
      <trkpt lat="44.45769" lon="6.5159">
        <ele>2806</ele>
        <time>2021-02-21T09:03:50Z</time>
      </trkpt>
      <trkpt lat="44.45769" lon="6.5159">
        <ele>2806</ele>
        <time>2021-02-21T09:03:51Z</time>
      </trkpt>
      <trkpt lat="44.45767" lon="6.5159">
        <ele>2807</ele>
        <time>2021-02-21T09:03:52Z</time>
      </trkpt>
      <trkpt lat="44.45764" lon="6.51591">
        <ele>2807</ele>
        <time>2021-02-21T09:03:53Z</time>
      </trkpt>
      <trkpt lat="44.45761" lon="6.51591">
        <ele>2807</ele>
        <time>2021-02-21T09:03:54Z</time>
      </trkpt>
      <trkpt lat="44.45759" lon="6.51591">
        <ele>2808</ele>
        <time>2021-02-21T09:03:55Z</time>
      </trkpt>
      <trkpt lat="44.45758" lon="6.51591">
        <ele>2808</ele>
        <time>2021-02-21T09:03:56Z</time>
      </trkpt>
      <trkpt lat="44.45757" lon="6.51591">
        <ele>2808</ele>
        <time>2021-02-21T09:03:57Z</time>
      </trkpt>
      <trkpt lat="44.45756" lon="6.51591">
        <ele>2808</ele>
        <time>2021-02-21T09:03:58Z</time>
      </trkpt>
      <trkpt lat="44.45757" lon="6.51593">
        <ele>2808</ele>
        <time>2021-02-21T09:03:59Z</time>
      </trkpt>
      <trkpt lat="44.45757" lon="6.51593">
        <ele>2808</ele>
        <time>2021-02-21T09:04:00Z</time>
      </trkpt>
      <trkpt lat="44.45757" lon="6.51593">
        <ele>2808</ele>
        <time>2021-02-21T09:04:01Z</time>
      </trkpt>
      <trkpt lat="44.45757" lon="6.51593">
        <ele>2808</ele>
        <time>2021-02-21T09:04:02Z</time>
      </trkpt>
      <trkpt lat="44.45756" lon="6.51593">
        <ele>2808</ele>
        <time>2021-02-21T09:04:03Z</time>
      </trkpt>
      <trkpt lat="44.45755" lon="6.51593">
        <ele>2808</ele>
        <time>2021-02-21T09:04:05Z</time>
      </trkpt>
      <trkpt lat="44.45755" lon="6.51592">
        <ele>2808</ele>
        <time>2021-02-21T09:04:06Z</time>
      </trkpt>
      <trkpt lat="44.45754" lon="6.51592">
        <ele>2807</ele>
        <time>2021-02-21T09:04:07Z</time>
      </trkpt>
      <trkpt lat="44.45754" lon="6.51592">
        <ele>2807</ele>
        <time>2021-02-21T09:04:08Z</time>
      </trkpt>
      <trkpt lat="44.45754" lon="6.51592">
        <ele>2807</ele>
        <time>2021-02-21T09:04:09Z</time>
      </trkpt>
      <trkpt lat="44.45754" lon="6.51592">
        <ele>2806</ele>
        <time>2021-02-21T09:04:10Z</time>
      </trkpt>
      <trkpt lat="44.45754" lon="6.51592">
        <ele>2806</ele>
        <time>2021-02-21T09:04:11Z</time>
      </trkpt>
      <trkpt lat="44.45754" lon="6.51592">
        <ele>2806</ele>
        <time>2021-02-21T09:04:12Z</time>
      </trkpt>
      <trkpt lat="44.45754" lon="6.51592">
        <ele>2806</ele>
        <time>2021-02-21T09:04:13Z</time>
      </trkpt>
      <trkpt lat="44.45754" lon="6.51592">
        <ele>2806</ele>
        <time>2021-02-21T09:04:14Z</time>
      </trkpt>
      <trkpt lat="44.45754" lon="6.51592">
        <ele>2806</ele>
        <time>2021-02-21T09:04:15Z</time>
      </trkpt>
      <trkpt lat="44.45754" lon="6.51592">
        <ele>2806</ele>
        <time>2021-02-21T09:04:16Z</time>
      </trkpt>
      <trkpt lat="44.45754" lon="6.51592">
        <ele>2806</ele>
        <time>2021-02-21T09:04:17Z</time>
      </trkpt>
      <trkpt lat="44.45754" lon="6.51592">
        <ele>2806</ele>
        <time>2021-02-21T09:04:18Z</time>
      </trkpt>
      <trkpt lat="44.45754" lon="6.51592">
        <ele>2806</ele>
        <time>2021-02-21T09:04:19Z</time>
      </trkpt>
      <trkpt lat="44.45754" lon="6.51592">
        <ele>2806</ele>
        <time>2021-02-21T09:04:20Z</time>
      </trkpt>
      <trkpt lat="44.45754" lon="6.51592">
        <ele>2806</ele>
        <time>2021-02-21T09:04:21Z</time>
      </trkpt>
      <trkpt lat="44.45754" lon="6.51592">
        <ele>2806</ele>
        <time>2021-02-21T09:04:22Z</time>
      </trkpt>
      <trkpt lat="44.45754" lon="6.51592">
        <ele>2806</ele>
        <time>2021-02-21T09:04:23Z</time>
      </trkpt>
      <trkpt lat="44.45754" lon="6.51592">
        <ele>2806</ele>
        <time>2021-02-21T09:04:24Z</time>
      </trkpt>
      <trkpt lat="44.45754" lon="6.51592">
        <ele>2806</ele>
        <time>2021-02-21T09:04:25Z</time>
      </trkpt>
      <trkpt lat="44.45754" lon="6.51592">
        <ele>2806</ele>
        <time>2021-02-21T09:04:26Z</time>
      </trkpt>
      <trkpt lat="44.45754" lon="6.51592">
        <ele>2806</ele>
        <time>2021-02-21T09:04:27Z</time>
      </trkpt>
      <trkpt lat="44.45754" lon="6.51592">
        <ele>2806</ele>
        <time>2021-02-21T09:04:28Z</time>
      </trkpt>
      <trkpt lat="44.45754" lon="6.51591">
        <ele>2806</ele>
        <time>2021-02-21T09:04:29Z</time>
      </trkpt>
      <trkpt lat="44.45754" lon="6.5159">
        <ele>2806</ele>
        <time>2021-02-21T09:04:30Z</time>
      </trkpt>
      <trkpt lat="44.45754" lon="6.5159">
        <ele>2806</ele>
        <time>2021-02-21T09:04:31Z</time>
      </trkpt>
      <trkpt lat="44.45753" lon="6.5159">
        <ele>2806</ele>
        <time>2021-02-21T09:04:32Z</time>
      </trkpt>
      <trkpt lat="44.45753" lon="6.5159">
        <ele>2806</ele>
        <time>2021-02-21T09:04:33Z</time>
      </trkpt>
      <trkpt lat="44.45753" lon="6.5159">
        <ele>2806</ele>
        <time>2021-02-21T09:04:34Z</time>
      </trkpt>
      <trkpt lat="44.45753" lon="6.5159">
        <ele>2806</ele>
        <time>2021-02-21T09:04:35Z</time>
      </trkpt>
      <trkpt lat="44.45753" lon="6.5159">
        <ele>2806</ele>
        <time>2021-02-21T09:04:36Z</time>
      </trkpt>
      <trkpt lat="44.45753" lon="6.5159">
        <ele>2806</ele>
        <time>2021-02-21T09:04:37Z</time>
      </trkpt>
      <trkpt lat="44.45753" lon="6.5159">
        <ele>2806</ele>
        <time>2021-02-21T09:04:38Z</time>
      </trkpt>
      <trkpt lat="44.45753" lon="6.5159">
        <ele>2806</ele>
        <time>2021-02-21T09:04:39Z</time>
      </trkpt>
      <trkpt lat="44.45753" lon="6.5159">
        <ele>2806</ele>
        <time>2021-02-21T09:04:40Z</time>
      </trkpt>
      <trkpt lat="44.45753" lon="6.5159">
        <ele>2805</ele>
        <time>2021-02-21T09:04:41Z</time>
      </trkpt>
      <trkpt lat="44.45753" lon="6.5159">
        <ele>2805</ele>
        <time>2021-02-21T09:04:42Z</time>
      </trkpt>
      <trkpt lat="44.45753" lon="6.5159">
        <ele>2805</ele>
        <time>2021-02-21T09:04:43Z</time>
      </trkpt>
      <trkpt lat="44.45753" lon="6.5159">
        <ele>2805</ele>
        <time>2021-02-21T09:04:44Z</time>
      </trkpt>
      <trkpt lat="44.45753" lon="6.5159">
        <ele>2805</ele>
        <time>2021-02-21T09:04:45Z</time>
      </trkpt>
      <trkpt lat="44.45753" lon="6.5159">
        <ele>2805</ele>
        <time>2021-02-21T09:04:46Z</time>
      </trkpt>
      <trkpt lat="44.45754" lon="6.51591">
        <ele>2805</ele>
        <time>2021-02-21T09:04:47Z</time>
      </trkpt>
      <trkpt lat="44.45753" lon="6.5159">
        <ele>2805</ele>
        <time>2021-02-21T09:04:48Z</time>
      </trkpt>
      <trkpt lat="44.45753" lon="6.5159">
        <ele>2805</ele>
        <time>2021-02-21T09:04:49Z</time>
      </trkpt>
      <trkpt lat="44.45752" lon="6.5159">
        <ele>2804</ele>
        <time>2021-02-21T09:04:50Z</time>
      </trkpt>
      <trkpt lat="44.45751" lon="6.51589">
        <ele>2804</ele>
        <time>2021-02-21T09:04:51Z</time>
      </trkpt>
      <trkpt lat="44.45751" lon="6.51589">
        <ele>2804</ele>
        <time>2021-02-21T09:04:52Z</time>
      </trkpt>
      <trkpt lat="44.4575" lon="6.51589">
        <ele>2804</ele>
        <time>2021-02-21T09:04:53Z</time>
      </trkpt>
      <trkpt lat="44.45749" lon="6.51589">
        <ele>2804</ele>
        <time>2021-02-21T09:04:54Z</time>
      </trkpt>
      <trkpt lat="44.45748" lon="6.51589">
        <ele>2804</ele>
        <time>2021-02-21T09:04:55Z</time>
      </trkpt>
      <trkpt lat="44.45747" lon="6.51589">
        <ele>2804</ele>
        <time>2021-02-21T09:04:56Z</time>
      </trkpt>
      <trkpt lat="44.45744" lon="6.51588">
        <ele>2803</ele>
        <time>2021-02-21T09:04:57Z</time>
      </trkpt>
      <trkpt lat="44.45741" lon="6.51588">
        <ele>2803</ele>
        <time>2021-02-21T09:04:58Z</time>
      </trkpt>
      <trkpt lat="44.45738" lon="6.51587">
        <ele>2803</ele>
        <time>2021-02-21T09:04:59Z</time>
      </trkpt>
      <trkpt lat="44.45735" lon="6.51587">
        <ele>2802</ele>
        <time>2021-02-21T09:05:00Z</time>
      </trkpt>
      <trkpt lat="44.45732" lon="6.51586">
        <ele>2802</ele>
        <time>2021-02-21T09:05:01Z</time>
      </trkpt>
      <trkpt lat="44.4573" lon="6.51586">
        <ele>2802</ele>
        <time>2021-02-21T09:05:02Z</time>
      </trkpt>
      <trkpt lat="44.45728" lon="6.51585">
        <ele>2801</ele>
        <time>2021-02-21T09:05:03Z</time>
      </trkpt>
      <trkpt lat="44.45726" lon="6.51585">
        <ele>2801</ele>
        <time>2021-02-21T09:05:04Z</time>
      </trkpt>
      <trkpt lat="44.45724" lon="6.51585">
        <ele>2800</ele>
        <time>2021-02-21T09:05:05Z</time>
      </trkpt>
      <trkpt lat="44.45722" lon="6.51584">
        <ele>2800</ele>
        <time>2021-02-21T09:05:06Z</time>
      </trkpt>
      <trkpt lat="44.45721" lon="6.51584">
        <ele>2799</ele>
        <time>2021-02-21T09:05:07Z</time>
      </trkpt>
      <trkpt lat="44.45718" lon="6.51583">
        <ele>2798</ele>
        <time>2021-02-21T09:05:08Z</time>
      </trkpt>
      <trkpt lat="44.45716" lon="6.51581">
        <ele>2798</ele>
        <time>2021-02-21T09:05:09Z</time>
      </trkpt>
      <trkpt lat="44.45713" lon="6.5158">
        <ele>2797</ele>
        <time>2021-02-21T09:05:10Z</time>
      </trkpt>
      <trkpt lat="44.45711" lon="6.51578">
        <ele>2797</ele>
        <time>2021-02-21T09:05:11Z</time>
      </trkpt>
      <trkpt lat="44.45709" lon="6.51577">
        <ele>2796</ele>
        <time>2021-02-21T09:05:12Z</time>
      </trkpt>
      <trkpt lat="44.45708" lon="6.51577">
        <ele>2796</ele>
        <time>2021-02-21T09:05:13Z</time>
      </trkpt>
      <trkpt lat="44.45708" lon="6.51576">
        <ele>2796</ele>
        <time>2021-02-21T09:05:14Z</time>
      </trkpt>
      <trkpt lat="44.45708" lon="6.51576">
        <ele>2796</ele>
        <time>2021-02-21T09:05:15Z</time>
      </trkpt>
      <trkpt lat="44.45707" lon="6.51576">
        <ele>2796</ele>
        <time>2021-02-21T09:05:16Z</time>
      </trkpt>
      <trkpt lat="44.45706" lon="6.51575">
        <ele>2796</ele>
        <time>2021-02-21T09:05:17Z</time>
      </trkpt>
      <trkpt lat="44.45706" lon="6.51575">
        <ele>2795</ele>
        <time>2021-02-21T09:05:18Z</time>
      </trkpt>
      <trkpt lat="44.45704" lon="6.51574">
        <ele>2795</ele>
        <time>2021-02-21T09:05:19Z</time>
      </trkpt>
      <trkpt lat="44.45703" lon="6.51573">
        <ele>2794</ele>
        <time>2021-02-21T09:05:20Z</time>
      </trkpt>
      <trkpt lat="44.45701" lon="6.51572">
        <ele>2794</ele>
        <time>2021-02-21T09:05:21Z</time>
      </trkpt>
      <trkpt lat="44.45699" lon="6.51571">
        <ele>2794</ele>
        <time>2021-02-21T09:05:22Z</time>
      </trkpt>
      <trkpt lat="44.45698" lon="6.51571">
        <ele>2793</ele>
        <time>2021-02-21T09:05:23Z</time>
      </trkpt>
      <trkpt lat="44.45696" lon="6.5157">
        <ele>2793</ele>
        <time>2021-02-21T09:05:24Z</time>
      </trkpt>
      <trkpt lat="44.45695" lon="6.51569">
        <ele>2793</ele>
        <time>2021-02-21T09:05:25Z</time>
      </trkpt>
      <trkpt lat="44.45693" lon="6.51568">
        <ele>2792</ele>
        <time>2021-02-21T09:05:26Z</time>
      </trkpt>
      <trkpt lat="44.45691" lon="6.51567">
        <ele>2792</ele>
        <time>2021-02-21T09:05:27Z</time>
      </trkpt>
      <trkpt lat="44.4569" lon="6.51566">
        <ele>2792</ele>
        <time>2021-02-21T09:05:28Z</time>
      </trkpt>
      <trkpt lat="44.45688" lon="6.51565">
        <ele>2792</ele>
        <time>2021-02-21T09:05:29Z</time>
      </trkpt>
      <trkpt lat="44.45687" lon="6.51563">
        <ele>2791</ele>
        <time>2021-02-21T09:05:30Z</time>
      </trkpt>
      <trkpt lat="44.45686" lon="6.51562">
        <ele>2791</ele>
        <time>2021-02-21T09:05:31Z</time>
      </trkpt>
      <trkpt lat="44.45685" lon="6.51562">
        <ele>2791</ele>
        <time>2021-02-21T09:05:32Z</time>
      </trkpt>
      <trkpt lat="44.45684" lon="6.51561">
        <ele>2791</ele>
        <time>2021-02-21T09:05:33Z</time>
      </trkpt>
      <trkpt lat="44.45682" lon="6.51559">
        <ele>2791</ele>
        <time>2021-02-21T09:05:34Z</time>
      </trkpt>
      <trkpt lat="44.4568" lon="6.51558">
        <ele>2790</ele>
        <time>2021-02-21T09:05:35Z</time>
      </trkpt>
      <trkpt lat="44.45678" lon="6.51557">
        <ele>2790</ele>
        <time>2021-02-21T09:05:36Z</time>
      </trkpt>
      <trkpt lat="44.45677" lon="6.51555">
        <ele>2790</ele>
        <time>2021-02-21T09:05:37Z</time>
      </trkpt>
      <trkpt lat="44.45676" lon="6.51554">
        <ele>2790</ele>
        <time>2021-02-21T09:05:38Z</time>
      </trkpt>
      <trkpt lat="44.45674" lon="6.51554">
        <ele>2790</ele>
        <time>2021-02-21T09:05:39Z</time>
      </trkpt>
      <trkpt lat="44.45674" lon="6.51553">
        <ele>2790</ele>
        <time>2021-02-21T09:05:40Z</time>
      </trkpt>
      <trkpt lat="44.45674" lon="6.51553">
        <ele>2790</ele>
        <time>2021-02-21T09:05:41Z</time>
      </trkpt>
      <trkpt lat="44.45674" lon="6.51553">
        <ele>2790</ele>
        <time>2021-02-21T09:05:42Z</time>
      </trkpt>
      <trkpt lat="44.45674" lon="6.51552">
        <ele>2790</ele>
        <time>2021-02-21T09:05:43Z</time>
      </trkpt>
      <trkpt lat="44.45674" lon="6.51552">
        <ele>2790</ele>
        <time>2021-02-21T09:05:44Z</time>
      </trkpt>
      <trkpt lat="44.45674" lon="6.51552">
        <ele>2790</ele>
        <time>2021-02-21T09:05:45Z</time>
      </trkpt>
      <trkpt lat="44.45674" lon="6.51552">
        <ele>2790</ele>
        <time>2021-02-21T09:05:46Z</time>
      </trkpt>
      <trkpt lat="44.45674" lon="6.51552">
        <ele>2790</ele>
        <time>2021-02-21T09:05:47Z</time>
      </trkpt>
      <trkpt lat="44.45674" lon="6.51552">
        <ele>2790</ele>
        <time>2021-02-21T09:05:48Z</time>
      </trkpt>
      <trkpt lat="44.45674" lon="6.51552">
        <ele>2790</ele>
        <time>2021-02-21T09:05:49Z</time>
      </trkpt>
      <trkpt lat="44.45674" lon="6.51552">
        <ele>2790</ele>
        <time>2021-02-21T09:05:50Z</time>
      </trkpt>
      <trkpt lat="44.45674" lon="6.51552">
        <ele>2790</ele>
        <time>2021-02-21T09:05:51Z</time>
      </trkpt>
      <trkpt lat="44.45674" lon="6.51552">
        <ele>2790</ele>
        <time>2021-02-21T09:05:52Z</time>
      </trkpt>
      <trkpt lat="44.45674" lon="6.51552">
        <ele>2790</ele>
        <time>2021-02-21T09:05:53Z</time>
      </trkpt>
      <trkpt lat="44.45674" lon="6.51552">
        <ele>2790</ele>
        <time>2021-02-21T09:05:54Z</time>
      </trkpt>
      <trkpt lat="44.45673" lon="6.51552">
        <ele>2790</ele>
        <time>2021-02-21T09:05:55Z</time>
      </trkpt>
      <trkpt lat="44.45673" lon="6.51551">
        <ele>2790</ele>
        <time>2021-02-21T09:05:56Z</time>
      </trkpt>
      <trkpt lat="44.45672" lon="6.51551">
        <ele>2790</ele>
        <time>2021-02-21T09:05:57Z</time>
      </trkpt>
      <trkpt lat="44.45672" lon="6.51551">
        <ele>2790</ele>
        <time>2021-02-21T09:05:58Z</time>
      </trkpt>
      <trkpt lat="44.45672" lon="6.51551">
        <ele>2790</ele>
        <time>2021-02-21T09:05:59Z</time>
      </trkpt>
      <trkpt lat="44.45672" lon="6.51551">
        <ele>2790</ele>
        <time>2021-02-21T09:06:00Z</time>
      </trkpt>
      <trkpt lat="44.45672" lon="6.51551">
        <ele>2790</ele>
        <time>2021-02-21T09:06:01Z</time>
      </trkpt>
      <trkpt lat="44.45673" lon="6.5155">
        <ele>2790</ele>
        <time>2021-02-21T09:06:02Z</time>
      </trkpt>
      <trkpt lat="44.45673" lon="6.5155">
        <ele>2790</ele>
        <time>2021-02-21T09:06:03Z</time>
      </trkpt>
      <trkpt lat="44.45673" lon="6.5155">
        <ele>2790</ele>
        <time>2021-02-21T09:06:04Z</time>
      </trkpt>
      <trkpt lat="44.45673" lon="6.5155">
        <ele>2790</ele>
        <time>2021-02-21T09:06:05Z</time>
      </trkpt>
      <trkpt lat="44.45673" lon="6.5155">
        <ele>2790</ele>
        <time>2021-02-21T09:06:06Z</time>
      </trkpt>
      <trkpt lat="44.45673" lon="6.5155">
        <ele>2790</ele>
        <time>2021-02-21T09:06:07Z</time>
      </trkpt>
      <trkpt lat="44.45673" lon="6.5155">
        <ele>2790</ele>
        <time>2021-02-21T09:06:08Z</time>
      </trkpt>
      <trkpt lat="44.45673" lon="6.5155">
        <ele>2790</ele>
        <time>2021-02-21T09:06:09Z</time>
      </trkpt>
      <trkpt lat="44.45673" lon="6.5155">
        <ele>2790</ele>
        <time>2021-02-21T09:06:10Z</time>
      </trkpt>
      <trkpt lat="44.45673" lon="6.5155">
        <ele>2790</ele>
        <time>2021-02-21T09:06:11Z</time>
      </trkpt>
      <trkpt lat="44.45673" lon="6.5155">
        <ele>2790</ele>
        <time>2021-02-21T09:06:12Z</time>
      </trkpt>
      <trkpt lat="44.45673" lon="6.5155">
        <ele>2790</ele>
        <time>2021-02-21T09:06:13Z</time>
      </trkpt>
      <trkpt lat="44.45671" lon="6.51551">
        <ele>2789</ele>
        <time>2021-02-21T09:06:14Z</time>
      </trkpt>
      <trkpt lat="44.45669" lon="6.5155">
        <ele>2789</ele>
        <time>2021-02-21T09:06:15Z</time>
      </trkpt>
      <trkpt lat="44.45666" lon="6.51549">
        <ele>2789</ele>
        <time>2021-02-21T09:06:16Z</time>
      </trkpt>
      <trkpt lat="44.45663" lon="6.51548">
        <ele>2789</ele>
        <time>2021-02-21T09:06:17Z</time>
      </trkpt>
      <trkpt lat="44.4566" lon="6.51547">
        <ele>2788</ele>
        <time>2021-02-21T09:06:18Z</time>
      </trkpt>
      <trkpt lat="44.45659" lon="6.51549">
        <ele>2788</ele>
        <time>2021-02-21T09:06:19Z</time>
      </trkpt>
      <trkpt lat="44.45659" lon="6.51552">
        <ele>2788</ele>
        <time>2021-02-21T09:06:20Z</time>
      </trkpt>
      <trkpt lat="44.45661" lon="6.51554">
        <ele>2787</ele>
        <time>2021-02-21T09:06:21Z</time>
      </trkpt>
      <trkpt lat="44.45662" lon="6.51555">
        <ele>2786</ele>
        <time>2021-02-21T09:06:22Z</time>
      </trkpt>
      <trkpt lat="44.45663" lon="6.51556">
        <ele>2786</ele>
        <time>2021-02-21T09:06:23Z</time>
      </trkpt>
      <trkpt lat="44.45664" lon="6.51557">
        <ele>2785</ele>
        <time>2021-02-21T09:06:24Z</time>
      </trkpt>
      <trkpt lat="44.45665" lon="6.51557">
        <ele>2784</ele>
        <time>2021-02-21T09:06:25Z</time>
      </trkpt>
      <trkpt lat="44.45666" lon="6.51558">
        <ele>2784</ele>
        <time>2021-02-21T09:06:26Z</time>
      </trkpt>
      <trkpt lat="44.45666" lon="6.51558">
        <ele>2783</ele>
        <time>2021-02-21T09:06:27Z</time>
      </trkpt>
      <trkpt lat="44.45666" lon="6.51559">
        <ele>2783</ele>
        <time>2021-02-21T09:06:28Z</time>
      </trkpt>
      <trkpt lat="44.45666" lon="6.51559">
        <ele>2783</ele>
        <time>2021-02-21T09:06:29Z</time>
      </trkpt>
      <trkpt lat="44.45667" lon="6.51558">
        <ele>2782</ele>
        <time>2021-02-21T09:06:30Z</time>
      </trkpt>
      <trkpt lat="44.45667" lon="6.51558">
        <ele>2782</ele>
        <time>2021-02-21T09:06:31Z</time>
      </trkpt>
      <trkpt lat="44.45667" lon="6.51558">
        <ele>2782</ele>
        <time>2021-02-21T09:06:32Z</time>
      </trkpt>
      <trkpt lat="44.45667" lon="6.51558">
        <ele>2782</ele>
        <time>2021-02-21T09:06:33Z</time>
      </trkpt>
      <trkpt lat="44.45667" lon="6.51558">
        <ele>2782</ele>
        <time>2021-02-21T09:06:34Z</time>
      </trkpt>
      <trkpt lat="44.45667" lon="6.51558">
        <ele>2782</ele>
        <time>2021-02-21T09:06:35Z</time>
      </trkpt>
      <trkpt lat="44.45667" lon="6.51558">
        <ele>2782</ele>
        <time>2021-02-21T09:06:36Z</time>
      </trkpt>
      <trkpt lat="44.45667" lon="6.51559">
        <ele>2781</ele>
        <time>2021-02-21T09:06:37Z</time>
      </trkpt>
      <trkpt lat="44.45667" lon="6.51559">
        <ele>2781</ele>
        <time>2021-02-21T09:06:38Z</time>
      </trkpt>
      <trkpt lat="44.45667" lon="6.5156">
        <ele>2781</ele>
        <time>2021-02-21T09:06:39Z</time>
      </trkpt>
      <trkpt lat="44.45667" lon="6.51561">
        <ele>2781</ele>
        <time>2021-02-21T09:06:40Z</time>
      </trkpt>
      <trkpt lat="44.45666" lon="6.51564">
        <ele>2780</ele>
        <time>2021-02-21T09:06:41Z</time>
      </trkpt>
      <trkpt lat="44.45664" lon="6.51565">
        <ele>2780</ele>
        <time>2021-02-21T09:06:42Z</time>
      </trkpt>
      <trkpt lat="44.45663" lon="6.51567">
        <ele>2779</ele>
        <time>2021-02-21T09:06:43Z</time>
      </trkpt>
      <trkpt lat="44.45664" lon="6.51569">
        <ele>2778</ele>
        <time>2021-02-21T09:06:44Z</time>
      </trkpt>
      <trkpt lat="44.45666" lon="6.51571">
        <ele>2777</ele>
        <time>2021-02-21T09:06:45Z</time>
      </trkpt>
      <trkpt lat="44.45666" lon="6.51574">
        <ele>2776</ele>
        <time>2021-02-21T09:06:46Z</time>
      </trkpt>
      <trkpt lat="44.45665" lon="6.51575">
        <ele>2775</ele>
        <time>2021-02-21T09:06:47Z</time>
      </trkpt>
      <trkpt lat="44.45663" lon="6.51576">
        <ele>2773</ele>
        <time>2021-02-21T09:06:48Z</time>
      </trkpt>
      <trkpt lat="44.45661" lon="6.51577">
        <ele>2772</ele>
        <time>2021-02-21T09:06:49Z</time>
      </trkpt>
      <trkpt lat="44.45661" lon="6.51578">
        <ele>2771</ele>
        <time>2021-02-21T09:06:50Z</time>
      </trkpt>
      <trkpt lat="44.45662" lon="6.51579">
        <ele>2770</ele>
        <time>2021-02-21T09:06:51Z</time>
      </trkpt>
      <trkpt lat="44.45663" lon="6.5158">
        <ele>2770</ele>
        <time>2021-02-21T09:06:52Z</time>
      </trkpt>
      <trkpt lat="44.45664" lon="6.51581">
        <ele>2767</ele>
        <time>2021-02-21T09:06:53Z</time>
      </trkpt>
      <trkpt lat="44.45665" lon="6.51583">
        <ele>2766</ele>
        <time>2021-02-21T09:06:54Z</time>
      </trkpt>
      <trkpt lat="44.45666" lon="6.51586">
        <ele>2765</ele>
        <time>2021-02-21T09:06:55Z</time>
      </trkpt>
      <trkpt lat="44.45664" lon="6.51587">
        <ele>2764</ele>
        <time>2021-02-21T09:06:56Z</time>
      </trkpt>
      <trkpt lat="44.45662" lon="6.51588">
        <ele>2762</ele>
        <time>2021-02-21T09:06:57Z</time>
      </trkpt>
      <trkpt lat="44.45659" lon="6.51587">
        <ele>2761</ele>
        <time>2021-02-21T09:06:58Z</time>
      </trkpt>
      <trkpt lat="44.45656" lon="6.51586">
        <ele>2760</ele>
        <time>2021-02-21T09:06:59Z</time>
      </trkpt>
      <trkpt lat="44.45653" lon="6.51584">
        <ele>2758</ele>
        <time>2021-02-21T09:07:00Z</time>
      </trkpt>
      <trkpt lat="44.4565" lon="6.51583">
        <ele>2758</ele>
        <time>2021-02-21T09:07:01Z</time>
      </trkpt>
      <trkpt lat="44.45648" lon="6.51582">
        <ele>2756</ele>
        <time>2021-02-21T09:07:02Z</time>
      </trkpt>
      <trkpt lat="44.45645" lon="6.5158">
        <ele>2756</ele>
        <time>2021-02-21T09:07:03Z</time>
      </trkpt>
      <trkpt lat="44.45643" lon="6.51579">
        <ele>2755</ele>
        <time>2021-02-21T09:07:04Z</time>
      </trkpt>
      <trkpt lat="44.45641" lon="6.51578">
        <ele>2754</ele>
        <time>2021-02-21T09:07:05Z</time>
      </trkpt>
      <trkpt lat="44.45636" lon="6.51575">
        <ele>2753</ele>
        <time>2021-02-21T09:07:06Z</time>
      </trkpt>
      <trkpt lat="44.45633" lon="6.51574">
        <ele>2752</ele>
        <time>2021-02-21T09:07:07Z</time>
      </trkpt>
      <trkpt lat="44.4563" lon="6.51572">
        <ele>2752</ele>
        <time>2021-02-21T09:07:08Z</time>
      </trkpt>
      <trkpt lat="44.45628" lon="6.51572">
        <ele>2752</ele>
        <time>2021-02-21T09:07:09Z</time>
      </trkpt>
      <trkpt lat="44.45628" lon="6.51572">
        <ele>2753</ele>
        <time>2021-02-21T09:07:10Z</time>
      </trkpt>
      <trkpt lat="44.45629" lon="6.51572">
        <ele>2753</ele>
        <time>2021-02-21T09:07:11Z</time>
      </trkpt>
      <trkpt lat="44.45629" lon="6.51572">
        <ele>2753</ele>
        <time>2021-02-21T09:07:12Z</time>
      </trkpt>
      <trkpt lat="44.45629" lon="6.51572">
        <ele>2753</ele>
        <time>2021-02-21T09:07:13Z</time>
      </trkpt>
      <trkpt lat="44.45629" lon="6.51572">
        <ele>2753</ele>
        <time>2021-02-21T09:07:14Z</time>
      </trkpt>
      <trkpt lat="44.4563" lon="6.51573">
        <ele>2753</ele>
        <time>2021-02-21T09:07:15Z</time>
      </trkpt>
      <trkpt lat="44.45629" lon="6.51574">
        <ele>2753</ele>
        <time>2021-02-21T09:07:16Z</time>
      </trkpt>
      <trkpt lat="44.45628" lon="6.51575">
        <ele>2753</ele>
        <time>2021-02-21T09:07:17Z</time>
      </trkpt>
      <trkpt lat="44.45627" lon="6.51575">
        <ele>2753</ele>
        <time>2021-02-21T09:07:18Z</time>
      </trkpt>
      <trkpt lat="44.45628" lon="6.51578">
        <ele>2752</ele>
        <time>2021-02-21T09:07:19Z</time>
      </trkpt>
      <trkpt lat="44.4563" lon="6.51581">
        <ele>2751</ele>
        <time>2021-02-21T09:07:20Z</time>
      </trkpt>
      <trkpt lat="44.45632" lon="6.51583">
        <ele>2750</ele>
        <time>2021-02-21T09:07:21Z</time>
      </trkpt>
      <trkpt lat="44.45634" lon="6.51584">
        <ele>2750</ele>
        <time>2021-02-21T09:07:22Z</time>
      </trkpt>
      <trkpt lat="44.45636" lon="6.51585">
        <ele>2749</ele>
        <time>2021-02-21T09:07:23Z</time>
      </trkpt>
      <trkpt lat="44.45637" lon="6.51586">
        <ele>2748</ele>
        <time>2021-02-21T09:07:24Z</time>
      </trkpt>
      <trkpt lat="44.45637" lon="6.51587">
        <ele>2748</ele>
        <time>2021-02-21T09:07:25Z</time>
      </trkpt>
      <trkpt lat="44.45638" lon="6.51588">
        <ele>2747</ele>
        <time>2021-02-21T09:07:26Z</time>
      </trkpt>
      <trkpt lat="44.45639" lon="6.51589">
        <ele>2747</ele>
        <time>2021-02-21T09:07:27Z</time>
      </trkpt>
      <trkpt lat="44.4564" lon="6.5159">
        <ele>2747</ele>
        <time>2021-02-21T09:07:28Z</time>
      </trkpt>
      <trkpt lat="44.4564" lon="6.51591">
        <ele>2747</ele>
        <time>2021-02-21T09:07:29Z</time>
      </trkpt>
      <trkpt lat="44.4564" lon="6.51591">
        <ele>2746</ele>
        <time>2021-02-21T09:07:30Z</time>
      </trkpt>
      <trkpt lat="44.45641" lon="6.51592">
        <ele>2745</ele>
        <time>2021-02-21T09:07:31Z</time>
      </trkpt>
      <trkpt lat="44.45641" lon="6.51593">
        <ele>2745</ele>
        <time>2021-02-21T09:07:32Z</time>
      </trkpt>
      <trkpt lat="44.45642" lon="6.51594">
        <ele>2745</ele>
        <time>2021-02-21T09:07:33Z</time>
      </trkpt>
      <trkpt lat="44.45643" lon="6.51595">
        <ele>2744</ele>
        <time>2021-02-21T09:07:34Z</time>
      </trkpt>
      <trkpt lat="44.45644" lon="6.51596">
        <ele>2744</ele>
        <time>2021-02-21T09:07:35Z</time>
      </trkpt>
      <trkpt lat="44.45645" lon="6.51597">
        <ele>2743</ele>
        <time>2021-02-21T09:07:36Z</time>
      </trkpt>
      <trkpt lat="44.45645" lon="6.51599">
        <ele>2743</ele>
        <time>2021-02-21T09:07:37Z</time>
      </trkpt>
      <trkpt lat="44.45646" lon="6.51599">
        <ele>2742</ele>
        <time>2021-02-21T09:07:38Z</time>
      </trkpt>
      <trkpt lat="44.45648" lon="6.51601">
        <ele>2742</ele>
        <time>2021-02-21T09:07:39Z</time>
      </trkpt>
      <trkpt lat="44.45646" lon="6.51604">
        <ele>2741</ele>
        <time>2021-02-21T09:07:40Z</time>
      </trkpt>
      <trkpt lat="44.45645" lon="6.51606">
        <ele>2740</ele>
        <time>2021-02-21T09:07:41Z</time>
      </trkpt>
      <trkpt lat="44.45643" lon="6.51607">
        <ele>2739</ele>
        <time>2021-02-21T09:07:42Z</time>
      </trkpt>
      <trkpt lat="44.45642" lon="6.5161">
        <ele>2738</ele>
        <time>2021-02-21T09:07:43Z</time>
      </trkpt>
      <trkpt lat="44.45643" lon="6.51614">
        <ele>2737</ele>
        <time>2021-02-21T09:07:44Z</time>
      </trkpt>
      <trkpt lat="44.45643" lon="6.51617">
        <ele>2737</ele>
        <time>2021-02-21T09:07:45Z</time>
      </trkpt>
      <trkpt lat="44.45643" lon="6.51621">
        <ele>2735</ele>
        <time>2021-02-21T09:07:46Z</time>
      </trkpt>
      <trkpt lat="44.4564" lon="6.51622">
        <ele>2734</ele>
        <time>2021-02-21T09:07:47Z</time>
      </trkpt>
      <trkpt lat="44.45636" lon="6.51622">
        <ele>2732</ele>
        <time>2021-02-21T09:07:48Z</time>
      </trkpt>
      <trkpt lat="44.45633" lon="6.51622">
        <ele>2730</ele>
        <time>2021-02-21T09:07:49Z</time>
      </trkpt>
      <trkpt lat="44.4563" lon="6.51621">
        <ele>2728</ele>
        <time>2021-02-21T09:07:50Z</time>
      </trkpt>
      <trkpt lat="44.45629" lon="6.51621">
        <ele>2727</ele>
        <time>2021-02-21T09:07:51Z</time>
      </trkpt>
      <trkpt lat="44.45628" lon="6.5162">
        <ele>2726</ele>
        <time>2021-02-21T09:07:52Z</time>
      </trkpt>
      <trkpt lat="44.45627" lon="6.51621">
        <ele>2725</ele>
        <time>2021-02-21T09:07:53Z</time>
      </trkpt>
      <trkpt lat="44.45628" lon="6.51623">
        <ele>2724</ele>
        <time>2021-02-21T09:07:54Z</time>
      </trkpt>
      <trkpt lat="44.45629" lon="6.51625">
        <ele>2722</ele>
        <time>2021-02-21T09:07:55Z</time>
      </trkpt>
      <trkpt lat="44.4563" lon="6.51627">
        <ele>2721</ele>
        <time>2021-02-21T09:07:56Z</time>
      </trkpt>
      <trkpt lat="44.45631" lon="6.51628">
        <ele>2720</ele>
        <time>2021-02-21T09:07:57Z</time>
      </trkpt>
      <trkpt lat="44.45631" lon="6.51629">
        <ele>2719</ele>
        <time>2021-02-21T09:07:58Z</time>
      </trkpt>
      <trkpt lat="44.4563" lon="6.5163">
        <ele>2718</ele>
        <time>2021-02-21T09:07:59Z</time>
      </trkpt>
      <trkpt lat="44.45631" lon="6.51633">
        <ele>2717</ele>
        <time>2021-02-21T09:08:00Z</time>
      </trkpt>
      <trkpt lat="44.45629" lon="6.51637">
        <ele>2717</ele>
        <time>2021-02-21T09:08:01Z</time>
      </trkpt>
      <trkpt lat="44.45625" lon="6.51639">
        <ele>2715</ele>
        <time>2021-02-21T09:08:02Z</time>
      </trkpt>
      <trkpt lat="44.45621" lon="6.51639">
        <ele>2714</ele>
        <time>2021-02-21T09:08:03Z</time>
      </trkpt>
      <trkpt lat="44.45618" lon="6.5164">
        <ele>2713</ele>
        <time>2021-02-21T09:08:04Z</time>
      </trkpt>
      <trkpt lat="44.45615" lon="6.5164">
        <ele>2713</ele>
        <time>2021-02-21T09:08:05Z</time>
      </trkpt>
      <trkpt lat="44.45613" lon="6.5164">
        <ele>2711</ele>
        <time>2021-02-21T09:08:06Z</time>
      </trkpt>
      <trkpt lat="44.45611" lon="6.5164">
        <ele>2710</ele>
        <time>2021-02-21T09:08:07Z</time>
      </trkpt>
      <trkpt lat="44.45609" lon="6.5164">
        <ele>2708</ele>
        <time>2021-02-21T09:08:08Z</time>
      </trkpt>
      <trkpt lat="44.45607" lon="6.5164">
        <ele>2707</ele>
        <time>2021-02-21T09:08:09Z</time>
      </trkpt>
      <trkpt lat="44.45606" lon="6.51641">
        <ele>2707</ele>
        <time>2021-02-21T09:08:10Z</time>
      </trkpt>
      <trkpt lat="44.45605" lon="6.51642">
        <ele>2705</ele>
        <time>2021-02-21T09:08:11Z</time>
      </trkpt>
      <trkpt lat="44.45604" lon="6.51642">
        <ele>2704</ele>
        <time>2021-02-21T09:08:12Z</time>
      </trkpt>
      <trkpt lat="44.45603" lon="6.51643">
        <ele>2703</ele>
        <time>2021-02-21T09:08:13Z</time>
      </trkpt>
      <trkpt lat="44.45603" lon="6.51643">
        <ele>2703</ele>
        <time>2021-02-21T09:08:14Z</time>
      </trkpt>
      <trkpt lat="44.45603" lon="6.51643">
        <ele>2703</ele>
        <time>2021-02-21T09:08:15Z</time>
      </trkpt>
      <trkpt lat="44.45603" lon="6.51643">
        <ele>2702</ele>
        <time>2021-02-21T09:08:16Z</time>
      </trkpt>
      <trkpt lat="44.45603" lon="6.51643">
        <ele>2702</ele>
        <time>2021-02-21T09:08:17Z</time>
      </trkpt>
      <trkpt lat="44.45603" lon="6.51643">
        <ele>2702</ele>
        <time>2021-02-21T09:08:18Z</time>
      </trkpt>
      <trkpt lat="44.45603" lon="6.51642">
        <ele>2702</ele>
        <time>2021-02-21T09:08:19Z</time>
      </trkpt>
      <trkpt lat="44.45603" lon="6.51642">
        <ele>2702</ele>
        <time>2021-02-21T09:08:20Z</time>
      </trkpt>
      <trkpt lat="44.45603" lon="6.51642">
        <ele>2702</ele>
        <time>2021-02-21T09:08:21Z</time>
      </trkpt>
      <trkpt lat="44.45603" lon="6.51642">
        <ele>2702</ele>
        <time>2021-02-21T09:08:22Z</time>
      </trkpt>
      <trkpt lat="44.45603" lon="6.51642">
        <ele>2701</ele>
        <time>2021-02-21T09:08:23Z</time>
      </trkpt>
      <trkpt lat="44.45603" lon="6.51642">
        <ele>2701</ele>
        <time>2021-02-21T09:08:24Z</time>
      </trkpt>
      <trkpt lat="44.45603" lon="6.51642">
        <ele>2701</ele>
        <time>2021-02-21T09:08:25Z</time>
      </trkpt>
      <trkpt lat="44.45603" lon="6.51642">
        <ele>2701</ele>
        <time>2021-02-21T09:08:26Z</time>
      </trkpt>
      <trkpt lat="44.45603" lon="6.51642">
        <ele>2701</ele>
        <time>2021-02-21T09:08:27Z</time>
      </trkpt>
      <trkpt lat="44.45603" lon="6.51642">
        <ele>2701</ele>
        <time>2021-02-21T09:08:28Z</time>
      </trkpt>
      <trkpt lat="44.45603" lon="6.51642">
        <ele>2701</ele>
        <time>2021-02-21T09:08:29Z</time>
      </trkpt>
      <trkpt lat="44.45603" lon="6.51642">
        <ele>2701</ele>
        <time>2021-02-21T09:08:30Z</time>
      </trkpt>
      <trkpt lat="44.45603" lon="6.51642">
        <ele>2701</ele>
        <time>2021-02-21T09:08:31Z</time>
      </trkpt>
      <trkpt lat="44.45603" lon="6.51642">
        <ele>2701</ele>
        <time>2021-02-21T09:08:32Z</time>
      </trkpt>
      <trkpt lat="44.45603" lon="6.51642">
        <ele>2701</ele>
        <time>2021-02-21T09:08:33Z</time>
      </trkpt>
      <trkpt lat="44.45603" lon="6.51642">
        <ele>2701</ele>
        <time>2021-02-21T09:08:34Z</time>
      </trkpt>
      <trkpt lat="44.45603" lon="6.51642">
        <ele>2701</ele>
        <time>2021-02-21T09:08:35Z</time>
      </trkpt>
      <trkpt lat="44.45603" lon="6.51642">
        <ele>2701</ele>
        <time>2021-02-21T09:08:36Z</time>
      </trkpt>
      <trkpt lat="44.45603" lon="6.51642">
        <ele>2701</ele>
        <time>2021-02-21T09:08:37Z</time>
      </trkpt>
      <trkpt lat="44.45603" lon="6.51642">
        <ele>2701</ele>
        <time>2021-02-21T09:08:38Z</time>
      </trkpt>
      <trkpt lat="44.45603" lon="6.51642">
        <ele>2701</ele>
        <time>2021-02-21T09:08:39Z</time>
      </trkpt>
      <trkpt lat="44.45603" lon="6.51642">
        <ele>2701</ele>
        <time>2021-02-21T09:08:40Z</time>
      </trkpt>
      <trkpt lat="44.45603" lon="6.51642">
        <ele>2701</ele>
        <time>2021-02-21T09:08:41Z</time>
      </trkpt>
      <trkpt lat="44.45603" lon="6.51642">
        <ele>2701</ele>
        <time>2021-02-21T09:08:42Z</time>
      </trkpt>
      <trkpt lat="44.45603" lon="6.51642">
        <ele>2701</ele>
        <time>2021-02-21T09:08:43Z</time>
      </trkpt>
      <trkpt lat="44.45603" lon="6.51642">
        <ele>2701</ele>
        <time>2021-02-21T09:08:44Z</time>
      </trkpt>
      <trkpt lat="44.45603" lon="6.51642">
        <ele>2701</ele>
        <time>2021-02-21T09:08:45Z</time>
      </trkpt>
      <trkpt lat="44.45603" lon="6.51642">
        <ele>2701</ele>
        <time>2021-02-21T09:08:46Z</time>
      </trkpt>
      <trkpt lat="44.45603" lon="6.51642">
        <ele>2701</ele>
        <time>2021-02-21T09:08:47Z</time>
      </trkpt>
      <trkpt lat="44.45603" lon="6.51642">
        <ele>2701</ele>
        <time>2021-02-21T09:08:48Z</time>
      </trkpt>
      <trkpt lat="44.45603" lon="6.51642">
        <ele>2701</ele>
        <time>2021-02-21T09:08:49Z</time>
      </trkpt>
      <trkpt lat="44.45603" lon="6.51642">
        <ele>2701</ele>
        <time>2021-02-21T09:08:50Z</time>
      </trkpt>
      <trkpt lat="44.45603" lon="6.51642">
        <ele>2701</ele>
        <time>2021-02-21T09:08:51Z</time>
      </trkpt>
      <trkpt lat="44.45603" lon="6.51642">
        <ele>2701</ele>
        <time>2021-02-21T09:08:52Z</time>
      </trkpt>
      <trkpt lat="44.45603" lon="6.51642">
        <ele>2701</ele>
        <time>2021-02-21T09:08:53Z</time>
      </trkpt>
      <trkpt lat="44.45603" lon="6.51642">
        <ele>2701</ele>
        <time>2021-02-21T09:08:54Z</time>
      </trkpt>
      <trkpt lat="44.45603" lon="6.51642">
        <ele>2701</ele>
        <time>2021-02-21T09:08:55Z</time>
      </trkpt>
      <trkpt lat="44.45603" lon="6.51642">
        <ele>2701</ele>
        <time>2021-02-21T09:08:56Z</time>
      </trkpt>
      <trkpt lat="44.45603" lon="6.51642">
        <ele>2701</ele>
        <time>2021-02-21T09:08:57Z</time>
      </trkpt>
      <trkpt lat="44.45603" lon="6.51642">
        <ele>2701</ele>
        <time>2021-02-21T09:08:58Z</time>
      </trkpt>
      <trkpt lat="44.45603" lon="6.51642">
        <ele>2701</ele>
        <time>2021-02-21T09:08:59Z</time>
      </trkpt>
      <trkpt lat="44.45603" lon="6.51642">
        <ele>2701</ele>
        <time>2021-02-21T09:09:00Z</time>
      </trkpt>
      <trkpt lat="44.45603" lon="6.51642">
        <ele>2701</ele>
        <time>2021-02-21T09:09:01Z</time>
      </trkpt>
      <trkpt lat="44.45603" lon="6.51642">
        <ele>2701</ele>
        <time>2021-02-21T09:09:02Z</time>
      </trkpt>
      <trkpt lat="44.45603" lon="6.51642">
        <ele>2701</ele>
        <time>2021-02-21T09:09:03Z</time>
      </trkpt>
      <trkpt lat="44.45603" lon="6.51642">
        <ele>2701</ele>
        <time>2021-02-21T09:09:04Z</time>
      </trkpt>
      <trkpt lat="44.45603" lon="6.51642">
        <ele>2701</ele>
        <time>2021-02-21T09:09:05Z</time>
      </trkpt>
      <trkpt lat="44.45603" lon="6.51642">
        <ele>2701</ele>
        <time>2021-02-21T09:09:06Z</time>
      </trkpt>
      <trkpt lat="44.45603" lon="6.51642">
        <ele>2701</ele>
        <time>2021-02-21T09:09:07Z</time>
      </trkpt>
      <trkpt lat="44.45603" lon="6.51642">
        <ele>2701</ele>
        <time>2021-02-21T09:09:08Z</time>
      </trkpt>
      <trkpt lat="44.45603" lon="6.51642">
        <ele>2701</ele>
        <time>2021-02-21T09:09:09Z</time>
      </trkpt>
      <trkpt lat="44.45603" lon="6.51641">
        <ele>2701</ele>
        <time>2021-02-21T09:09:10Z</time>
      </trkpt>
      <trkpt lat="44.45602" lon="6.51641">
        <ele>2701</ele>
        <time>2021-02-21T09:09:11Z</time>
      </trkpt>
      <trkpt lat="44.45602" lon="6.51641">
        <ele>2701</ele>
        <time>2021-02-21T09:09:12Z</time>
      </trkpt>
      <trkpt lat="44.45602" lon="6.51641">
        <ele>2701</ele>
        <time>2021-02-21T09:09:13Z</time>
      </trkpt>
      <trkpt lat="44.45602" lon="6.51641">
        <ele>2701</ele>
        <time>2021-02-21T09:09:14Z</time>
      </trkpt>
      <trkpt lat="44.45603" lon="6.51641">
        <ele>2702</ele>
        <time>2021-02-21T09:09:15Z</time>
      </trkpt>
      <trkpt lat="44.45604" lon="6.51641">
        <ele>2702</ele>
        <time>2021-02-21T09:09:16Z</time>
      </trkpt>
      <trkpt lat="44.45604" lon="6.51642">
        <ele>2702</ele>
        <time>2021-02-21T09:09:17Z</time>
      </trkpt>
      <trkpt lat="44.45604" lon="6.51642">
        <ele>2702</ele>
        <time>2021-02-21T09:09:18Z</time>
      </trkpt>
      <trkpt lat="44.45604" lon="6.51642">
        <ele>2702</ele>
        <time>2021-02-21T09:09:19Z</time>
      </trkpt>
      <trkpt lat="44.45604" lon="6.51642">
        <ele>2702</ele>
        <time>2021-02-21T09:09:20Z</time>
      </trkpt>
      <trkpt lat="44.45605" lon="6.51642">
        <ele>2702</ele>
        <time>2021-02-21T09:09:21Z</time>
      </trkpt>
      <trkpt lat="44.45605" lon="6.51642">
        <ele>2702</ele>
        <time>2021-02-21T09:09:22Z</time>
      </trkpt>
      <trkpt lat="44.45605" lon="6.51642">
        <ele>2702</ele>
        <time>2021-02-21T09:09:23Z</time>
      </trkpt>
      <trkpt lat="44.45605" lon="6.51642">
        <ele>2702</ele>
        <time>2021-02-21T09:09:24Z</time>
      </trkpt>
      <trkpt lat="44.45605" lon="6.51643">
        <ele>2702</ele>
        <time>2021-02-21T09:09:25Z</time>
      </trkpt>
      <trkpt lat="44.45605" lon="6.51643">
        <ele>2702</ele>
        <time>2021-02-21T09:09:26Z</time>
      </trkpt>
      <trkpt lat="44.45605" lon="6.51644">
        <ele>2702</ele>
        <time>2021-02-21T09:09:27Z</time>
      </trkpt>
      <trkpt lat="44.45606" lon="6.51644">
        <ele>2702</ele>
        <time>2021-02-21T09:09:28Z</time>
      </trkpt>
      <trkpt lat="44.45606" lon="6.51645">
        <ele>2703</ele>
        <time>2021-02-21T09:09:29Z</time>
      </trkpt>
      <trkpt lat="44.45606" lon="6.51646">
        <ele>2703</ele>
        <time>2021-02-21T09:09:30Z</time>
      </trkpt>
      <trkpt lat="44.45607" lon="6.51647">
        <ele>2703</ele>
        <time>2021-02-21T09:09:31Z</time>
      </trkpt>
      <trkpt lat="44.45609" lon="6.51649">
        <ele>2703</ele>
        <time>2021-02-21T09:09:32Z</time>
      </trkpt>
      <trkpt lat="44.4561" lon="6.5165">
        <ele>2703</ele>
        <time>2021-02-21T09:09:33Z</time>
      </trkpt>
      <trkpt lat="44.45611" lon="6.51651">
        <ele>2703</ele>
        <time>2021-02-21T09:09:34Z</time>
      </trkpt>
      <trkpt lat="44.45613" lon="6.51651">
        <ele>2702</ele>
        <time>2021-02-21T09:09:35Z</time>
      </trkpt>
      <trkpt lat="44.45615" lon="6.51652">
        <ele>2702</ele>
        <time>2021-02-21T09:09:36Z</time>
      </trkpt>
      <trkpt lat="44.45616" lon="6.51653">
        <ele>2701</ele>
        <time>2021-02-21T09:09:37Z</time>
      </trkpt>
      <trkpt lat="44.45618" lon="6.51655">
        <ele>2701</ele>
        <time>2021-02-21T09:09:38Z</time>
      </trkpt>
      <trkpt lat="44.45621" lon="6.51656">
        <ele>2700</ele>
        <time>2021-02-21T09:09:39Z</time>
      </trkpt>
      <trkpt lat="44.45622" lon="6.51657">
        <ele>2699</ele>
        <time>2021-02-21T09:09:40Z</time>
      </trkpt>
      <trkpt lat="44.45623" lon="6.51657">
        <ele>2699</ele>
        <time>2021-02-21T09:09:41Z</time>
      </trkpt>
      <trkpt lat="44.45625" lon="6.51658">
        <ele>2698</ele>
        <time>2021-02-21T09:09:42Z</time>
      </trkpt>
      <trkpt lat="44.45626" lon="6.51658">
        <ele>2698</ele>
        <time>2021-02-21T09:09:43Z</time>
      </trkpt>
      <trkpt lat="44.45627" lon="6.51659">
        <ele>2697</ele>
        <time>2021-02-21T09:09:44Z</time>
      </trkpt>
      <trkpt lat="44.45627" lon="6.5166">
        <ele>2697</ele>
        <time>2021-02-21T09:09:45Z</time>
      </trkpt>
      <trkpt lat="44.45628" lon="6.51661">
        <ele>2696</ele>
        <time>2021-02-21T09:09:46Z</time>
      </trkpt>
      <trkpt lat="44.45628" lon="6.51661">
        <ele>2696</ele>
        <time>2021-02-21T09:09:47Z</time>
      </trkpt>
      <trkpt lat="44.45628" lon="6.51661">
        <ele>2695</ele>
        <time>2021-02-21T09:09:48Z</time>
      </trkpt>
      <trkpt lat="44.45628" lon="6.51661">
        <ele>2695</ele>
        <time>2021-02-21T09:09:49Z</time>
      </trkpt>
      <trkpt lat="44.45628" lon="6.51662">
        <ele>2695</ele>
        <time>2021-02-21T09:09:50Z</time>
      </trkpt>
      <trkpt lat="44.45628" lon="6.51662">
        <ele>2695</ele>
        <time>2021-02-21T09:09:51Z</time>
      </trkpt>
      <trkpt lat="44.45628" lon="6.51662">
        <ele>2695</ele>
        <time>2021-02-21T09:09:52Z</time>
      </trkpt>
      <trkpt lat="44.45628" lon="6.51662">
        <ele>2695</ele>
        <time>2021-02-21T09:09:53Z</time>
      </trkpt>
      <trkpt lat="44.45627" lon="6.51662">
        <ele>2695</ele>
        <time>2021-02-21T09:09:54Z</time>
      </trkpt>
      <trkpt lat="44.45627" lon="6.51662">
        <ele>2695</ele>
        <time>2021-02-21T09:09:55Z</time>
      </trkpt>
      <trkpt lat="44.45627" lon="6.51662">
        <ele>2695</ele>
        <time>2021-02-21T09:09:56Z</time>
      </trkpt>
      <trkpt lat="44.45627" lon="6.51662">
        <ele>2695</ele>
        <time>2021-02-21T09:09:57Z</time>
      </trkpt>
      <trkpt lat="44.45627" lon="6.51662">
        <ele>2695</ele>
        <time>2021-02-21T09:09:58Z</time>
      </trkpt>
      <trkpt lat="44.45627" lon="6.51662">
        <ele>2694</ele>
        <time>2021-02-21T09:09:59Z</time>
      </trkpt>
      <trkpt lat="44.45628" lon="6.51664">
        <ele>2694</ele>
        <time>2021-02-21T09:10:00Z</time>
      </trkpt>
      <trkpt lat="44.45628" lon="6.51664">
        <ele>2694</ele>
        <time>2021-02-21T09:10:01Z</time>
      </trkpt>
      <trkpt lat="44.45628" lon="6.51665">
        <ele>2694</ele>
        <time>2021-02-21T09:10:02Z</time>
      </trkpt>
      <trkpt lat="44.45628" lon="6.51665">
        <ele>2694</ele>
        <time>2021-02-21T09:10:03Z</time>
      </trkpt>
      <trkpt lat="44.45628" lon="6.51665">
        <ele>2694</ele>
        <time>2021-02-21T09:10:04Z</time>
      </trkpt>
      <trkpt lat="44.45627" lon="6.51666">
        <ele>2694</ele>
        <time>2021-02-21T09:10:05Z</time>
      </trkpt>
      <trkpt lat="44.45627" lon="6.51667">
        <ele>2694</ele>
        <time>2021-02-21T09:10:06Z</time>
      </trkpt>
      <trkpt lat="44.45627" lon="6.51667">
        <ele>2694</ele>
        <time>2021-02-21T09:10:07Z</time>
      </trkpt>
      <trkpt lat="44.45627" lon="6.51668">
        <ele>2694</ele>
        <time>2021-02-21T09:10:08Z</time>
      </trkpt>
      <trkpt lat="44.45627" lon="6.51668">
        <ele>2694</ele>
        <time>2021-02-21T09:10:09Z</time>
      </trkpt>
      <trkpt lat="44.45628" lon="6.51669">
        <ele>2693</ele>
        <time>2021-02-21T09:10:10Z</time>
      </trkpt>
      <trkpt lat="44.45628" lon="6.51669">
        <ele>2693</ele>
        <time>2021-02-21T09:10:11Z</time>
      </trkpt>
      <trkpt lat="44.45628" lon="6.5167">
        <ele>2693</ele>
        <time>2021-02-21T09:10:12Z</time>
      </trkpt>
      <trkpt lat="44.45628" lon="6.5167">
        <ele>2693</ele>
        <time>2021-02-21T09:10:13Z</time>
      </trkpt>
      <trkpt lat="44.45627" lon="6.5167">
        <ele>2693</ele>
        <time>2021-02-21T09:10:14Z</time>
      </trkpt>
      <trkpt lat="44.45628" lon="6.51669">
        <ele>2693</ele>
        <time>2021-02-21T09:10:15Z</time>
      </trkpt>
      <trkpt lat="44.45628" lon="6.51668">
        <ele>2693</ele>
        <time>2021-02-21T09:10:16Z</time>
      </trkpt>
      <trkpt lat="44.45627" lon="6.51668">
        <ele>2693</ele>
        <time>2021-02-21T09:10:17Z</time>
      </trkpt>
      <trkpt lat="44.45627" lon="6.51668">
        <ele>2692</ele>
        <time>2021-02-21T09:10:18Z</time>
      </trkpt>
      <trkpt lat="44.45628" lon="6.51669">
        <ele>2692</ele>
        <time>2021-02-21T09:10:19Z</time>
      </trkpt>
      <trkpt lat="44.45628" lon="6.51671">
        <ele>2692</ele>
        <time>2021-02-21T09:10:20Z</time>
      </trkpt>
      <trkpt lat="44.4563" lon="6.51673">
        <ele>2692</ele>
        <time>2021-02-21T09:10:21Z</time>
      </trkpt>
      <trkpt lat="44.4563" lon="6.51674">
        <ele>2691</ele>
        <time>2021-02-21T09:10:22Z</time>
      </trkpt>
      <trkpt lat="44.45631" lon="6.51674">
        <ele>2691</ele>
        <time>2021-02-21T09:10:23Z</time>
      </trkpt>
      <trkpt lat="44.45631" lon="6.51675">
        <ele>2691</ele>
        <time>2021-02-21T09:10:24Z</time>
      </trkpt>
      <trkpt lat="44.45631" lon="6.51675">
        <ele>2691</ele>
        <time>2021-02-21T09:10:25Z</time>
      </trkpt>
      <trkpt lat="44.45631" lon="6.51676">
        <ele>2690</ele>
        <time>2021-02-21T09:10:26Z</time>
      </trkpt>
      <trkpt lat="44.45631" lon="6.51675">
        <ele>2690</ele>
        <time>2021-02-21T09:10:27Z</time>
      </trkpt>
      <trkpt lat="44.45631" lon="6.51675">
        <ele>2690</ele>
        <time>2021-02-21T09:10:28Z</time>
      </trkpt>
      <trkpt lat="44.45632" lon="6.51676">
        <ele>2690</ele>
        <time>2021-02-21T09:10:29Z</time>
      </trkpt>
      <trkpt lat="44.45632" lon="6.51676">
        <ele>2690</ele>
        <time>2021-02-21T09:10:30Z</time>
      </trkpt>
      <trkpt lat="44.45632" lon="6.51677">
        <ele>2690</ele>
        <time>2021-02-21T09:10:31Z</time>
      </trkpt>
      <trkpt lat="44.45632" lon="6.51677">
        <ele>2689</ele>
        <time>2021-02-21T09:10:32Z</time>
      </trkpt>
      <trkpt lat="44.45633" lon="6.51678">
        <ele>2689</ele>
        <time>2021-02-21T09:10:33Z</time>
      </trkpt>
      <trkpt lat="44.45633" lon="6.51678">
        <ele>2689</ele>
        <time>2021-02-21T09:10:34Z</time>
      </trkpt>
      <trkpt lat="44.45634" lon="6.51678">
        <ele>2688</ele>
        <time>2021-02-21T09:10:35Z</time>
      </trkpt>
      <trkpt lat="44.45634" lon="6.51679">
        <ele>2688</ele>
        <time>2021-02-21T09:10:36Z</time>
      </trkpt>
      <trkpt lat="44.45633" lon="6.51682">
        <ele>2687</ele>
        <time>2021-02-21T09:10:37Z</time>
      </trkpt>
      <trkpt lat="44.45632" lon="6.51684">
        <ele>2687</ele>
        <time>2021-02-21T09:10:38Z</time>
      </trkpt>
      <trkpt lat="44.45631" lon="6.51686">
        <ele>2686</ele>
        <time>2021-02-21T09:10:39Z</time>
      </trkpt>
      <trkpt lat="44.45632" lon="6.51687">
        <ele>2686</ele>
        <time>2021-02-21T09:10:40Z</time>
      </trkpt>
      <trkpt lat="44.45632" lon="6.51688">
        <ele>2685</ele>
        <time>2021-02-21T09:10:41Z</time>
      </trkpt>
      <trkpt lat="44.45633" lon="6.51689">
        <ele>2685</ele>
        <time>2021-02-21T09:10:42Z</time>
      </trkpt>
      <trkpt lat="44.45633" lon="6.51691">
        <ele>2684</ele>
        <time>2021-02-21T09:10:43Z</time>
      </trkpt>
      <trkpt lat="44.45631" lon="6.51693">
        <ele>2683</ele>
        <time>2021-02-21T09:10:44Z</time>
      </trkpt>
      <trkpt lat="44.4563" lon="6.51696">
        <ele>2682</ele>
        <time>2021-02-21T09:10:45Z</time>
      </trkpt>
      <trkpt lat="44.45631" lon="6.51699">
        <ele>2680</ele>
        <time>2021-02-21T09:10:46Z</time>
      </trkpt>
      <trkpt lat="44.4563" lon="6.51702">
        <ele>2678</ele>
        <time>2021-02-21T09:10:47Z</time>
      </trkpt>
      <trkpt lat="44.45629" lon="6.51704">
        <ele>2677</ele>
        <time>2021-02-21T09:10:48Z</time>
      </trkpt>
      <trkpt lat="44.45628" lon="6.51705">
        <ele>2675</ele>
        <time>2021-02-21T09:10:49Z</time>
      </trkpt>
      <trkpt lat="44.45628" lon="6.51705">
        <ele>2673</ele>
        <time>2021-02-21T09:10:50Z</time>
      </trkpt>
      <trkpt lat="44.45628" lon="6.51705">
        <ele>2672</ele>
        <time>2021-02-21T09:10:51Z</time>
      </trkpt>
      <trkpt lat="44.45628" lon="6.51705">
        <ele>2672</ele>
        <time>2021-02-21T09:10:52Z</time>
      </trkpt>
      <trkpt lat="44.45628" lon="6.51704">
        <ele>2672</ele>
        <time>2021-02-21T09:10:53Z</time>
      </trkpt>
      <trkpt lat="44.45628" lon="6.51704">
        <ele>2672</ele>
        <time>2021-02-21T09:10:54Z</time>
      </trkpt>
      <trkpt lat="44.45628" lon="6.51704">
        <ele>2672</ele>
        <time>2021-02-21T09:10:55Z</time>
      </trkpt>
      <trkpt lat="44.45628" lon="6.51704">
        <ele>2672</ele>
        <time>2021-02-21T09:10:56Z</time>
      </trkpt>
      <trkpt lat="44.45628" lon="6.51704">
        <ele>2671</ele>
        <time>2021-02-21T09:10:57Z</time>
      </trkpt>
      <trkpt lat="44.45628" lon="6.51704">
        <ele>2671</ele>
        <time>2021-02-21T09:10:58Z</time>
      </trkpt>
      <trkpt lat="44.45629" lon="6.51703">
        <ele>2671</ele>
        <time>2021-02-21T09:10:59Z</time>
      </trkpt>
      <trkpt lat="44.45629" lon="6.51703">
        <ele>2671</ele>
        <time>2021-02-21T09:11:00Z</time>
      </trkpt>
      <trkpt lat="44.45629" lon="6.51703">
        <ele>2671</ele>
        <time>2021-02-21T09:11:01Z</time>
      </trkpt>
      <trkpt lat="44.45629" lon="6.51703">
        <ele>2671</ele>
        <time>2021-02-21T09:11:02Z</time>
      </trkpt>
      <trkpt lat="44.45629" lon="6.51703">
        <ele>2671</ele>
        <time>2021-02-21T09:11:03Z</time>
      </trkpt>
      <trkpt lat="44.45629" lon="6.51703">
        <ele>2671</ele>
        <time>2021-02-21T09:11:04Z</time>
      </trkpt>
      <trkpt lat="44.45629" lon="6.51703">
        <ele>2671</ele>
        <time>2021-02-21T09:11:05Z</time>
      </trkpt>
      <trkpt lat="44.45629" lon="6.51703">
        <ele>2671</ele>
        <time>2021-02-21T09:11:06Z</time>
      </trkpt>
      <trkpt lat="44.45629" lon="6.51703">
        <ele>2671</ele>
        <time>2021-02-21T09:11:07Z</time>
      </trkpt>
      <trkpt lat="44.45629" lon="6.51703">
        <ele>2671</ele>
        <time>2021-02-21T09:11:08Z</time>
      </trkpt>
      <trkpt lat="44.45629" lon="6.51703">
        <ele>2671</ele>
        <time>2021-02-21T09:11:09Z</time>
      </trkpt>
      <trkpt lat="44.45629" lon="6.51703">
        <ele>2671</ele>
        <time>2021-02-21T09:11:10Z</time>
      </trkpt>
      <trkpt lat="44.45629" lon="6.51703">
        <ele>2671</ele>
        <time>2021-02-21T09:11:11Z</time>
      </trkpt>
      <trkpt lat="44.45629" lon="6.51703">
        <ele>2671</ele>
        <time>2021-02-21T09:11:12Z</time>
      </trkpt>
      <trkpt lat="44.45629" lon="6.51703">
        <ele>2671</ele>
        <time>2021-02-21T09:11:13Z</time>
      </trkpt>
      <trkpt lat="44.45629" lon="6.51703">
        <ele>2671</ele>
        <time>2021-02-21T09:11:14Z</time>
      </trkpt>
      <trkpt lat="44.45629" lon="6.51703">
        <ele>2671</ele>
        <time>2021-02-21T09:11:15Z</time>
      </trkpt>
      <trkpt lat="44.45629" lon="6.51703">
        <ele>2671</ele>
        <time>2021-02-21T09:11:16Z</time>
      </trkpt>
      <trkpt lat="44.45629" lon="6.51703">
        <ele>2671</ele>
        <time>2021-02-21T09:11:17Z</time>
      </trkpt>
      <trkpt lat="44.45629" lon="6.51703">
        <ele>2671</ele>
        <time>2021-02-21T09:11:18Z</time>
      </trkpt>
      <trkpt lat="44.45629" lon="6.51703">
        <ele>2671</ele>
        <time>2021-02-21T09:11:19Z</time>
      </trkpt>
      <trkpt lat="44.45629" lon="6.51703">
        <ele>2671</ele>
        <time>2021-02-21T09:11:20Z</time>
      </trkpt>
      <trkpt lat="44.45629" lon="6.51703">
        <ele>2671</ele>
        <time>2021-02-21T09:11:21Z</time>
      </trkpt>
      <trkpt lat="44.45629" lon="6.51703">
        <ele>2671</ele>
        <time>2021-02-21T09:11:22Z</time>
      </trkpt>
      <trkpt lat="44.45629" lon="6.51703">
        <ele>2671</ele>
        <time>2021-02-21T09:11:23Z</time>
      </trkpt>
      <trkpt lat="44.45632" lon="6.51702">
        <ele>2670</ele>
        <time>2021-02-21T09:11:24Z</time>
      </trkpt>
      <trkpt lat="44.45634" lon="6.51702">
        <ele>2669</ele>
        <time>2021-02-21T09:11:25Z</time>
      </trkpt>
      <trkpt lat="44.45634" lon="6.51702">
        <ele>2669</ele>
        <time>2021-02-21T09:11:26Z</time>
      </trkpt>
      <trkpt lat="44.45635" lon="6.51702">
        <ele>2668</ele>
        <time>2021-02-21T09:11:27Z</time>
      </trkpt>
      <trkpt lat="44.45635" lon="6.51701">
        <ele>2668</ele>
        <time>2021-02-21T09:11:28Z</time>
      </trkpt>
      <trkpt lat="44.45635" lon="6.51701">
        <ele>2668</ele>
        <time>2021-02-21T09:11:29Z</time>
      </trkpt>
      <trkpt lat="44.45636" lon="6.51701">
        <ele>2667</ele>
        <time>2021-02-21T09:11:30Z</time>
      </trkpt>
      <trkpt lat="44.45635" lon="6.51701">
        <ele>2667</ele>
        <time>2021-02-21T09:11:31Z</time>
      </trkpt>
      <trkpt lat="44.45635" lon="6.51701">
        <ele>2667</ele>
        <time>2021-02-21T09:11:32Z</time>
      </trkpt>
      <trkpt lat="44.45635" lon="6.51701">
        <ele>2667</ele>
        <time>2021-02-21T09:11:33Z</time>
      </trkpt>
      <trkpt lat="44.45635" lon="6.51701">
        <ele>2667</ele>
        <time>2021-02-21T09:11:34Z</time>
      </trkpt>
      <trkpt lat="44.45635" lon="6.51701">
        <ele>2667</ele>
        <time>2021-02-21T09:11:35Z</time>
      </trkpt>
      <trkpt lat="44.45635" lon="6.51701">
        <ele>2667</ele>
        <time>2021-02-21T09:11:36Z</time>
      </trkpt>
      <trkpt lat="44.45635" lon="6.51701">
        <ele>2667</ele>
        <time>2021-02-21T09:11:37Z</time>
      </trkpt>
      <trkpt lat="44.45635" lon="6.51701">
        <ele>2667</ele>
        <time>2021-02-21T09:11:38Z</time>
      </trkpt>
      <trkpt lat="44.45635" lon="6.51701">
        <ele>2667</ele>
        <time>2021-02-21T09:11:39Z</time>
      </trkpt>
      <trkpt lat="44.45635" lon="6.51701">
        <ele>2667</ele>
        <time>2021-02-21T09:11:40Z</time>
      </trkpt>
      <trkpt lat="44.45635" lon="6.51701">
        <ele>2667</ele>
        <time>2021-02-21T09:11:41Z</time>
      </trkpt>
      <trkpt lat="44.45635" lon="6.51701">
        <ele>2667</ele>
        <time>2021-02-21T09:11:42Z</time>
      </trkpt>
      <trkpt lat="44.45635" lon="6.51701">
        <ele>2667</ele>
        <time>2021-02-21T09:11:43Z</time>
      </trkpt>
      <trkpt lat="44.45635" lon="6.51701">
        <ele>2667</ele>
        <time>2021-02-21T09:11:44Z</time>
      </trkpt>
      <trkpt lat="44.45635" lon="6.51701">
        <ele>2667</ele>
        <time>2021-02-21T09:11:45Z</time>
      </trkpt>
      <trkpt lat="44.45635" lon="6.51701">
        <ele>2667</ele>
        <time>2021-02-21T09:11:46Z</time>
      </trkpt>
      <trkpt lat="44.45635" lon="6.51701">
        <ele>2667</ele>
        <time>2021-02-21T09:11:47Z</time>
      </trkpt>
      <trkpt lat="44.45635" lon="6.51701">
        <ele>2667</ele>
        <time>2021-02-21T09:11:48Z</time>
      </trkpt>
      <trkpt lat="44.45635" lon="6.51701">
        <ele>2667</ele>
        <time>2021-02-21T09:11:49Z</time>
      </trkpt>
      <trkpt lat="44.45635" lon="6.51701">
        <ele>2667</ele>
        <time>2021-02-21T09:11:50Z</time>
      </trkpt>
      <trkpt lat="44.45635" lon="6.51701">
        <ele>2667</ele>
        <time>2021-02-21T09:11:51Z</time>
      </trkpt>
      <trkpt lat="44.45635" lon="6.51701">
        <ele>2667</ele>
        <time>2021-02-21T09:11:52Z</time>
      </trkpt>
      <trkpt lat="44.45635" lon="6.51701">
        <ele>2667</ele>
        <time>2021-02-21T09:11:53Z</time>
      </trkpt>
      <trkpt lat="44.45635" lon="6.51701">
        <ele>2667</ele>
        <time>2021-02-21T09:11:54Z</time>
      </trkpt>
      <trkpt lat="44.45635" lon="6.51701">
        <ele>2667</ele>
        <time>2021-02-21T09:11:55Z</time>
      </trkpt>
      <trkpt lat="44.45635" lon="6.51701">
        <ele>2667</ele>
        <time>2021-02-21T09:11:56Z</time>
      </trkpt>
      <trkpt lat="44.45635" lon="6.51701">
        <ele>2667</ele>
        <time>2021-02-21T09:11:57Z</time>
      </trkpt>
      <trkpt lat="44.45635" lon="6.51701">
        <ele>2667</ele>
        <time>2021-02-21T09:11:58Z</time>
      </trkpt>
      <trkpt lat="44.45635" lon="6.51701">
        <ele>2667</ele>
        <time>2021-02-21T09:11:59Z</time>
      </trkpt>
      <trkpt lat="44.45635" lon="6.51701">
        <ele>2667</ele>
        <time>2021-02-21T09:12:00Z</time>
      </trkpt>
      <trkpt lat="44.45635" lon="6.51701">
        <ele>2667</ele>
        <time>2021-02-21T09:12:01Z</time>
      </trkpt>
      <trkpt lat="44.45635" lon="6.51701">
        <ele>2667</ele>
        <time>2021-02-21T09:12:02Z</time>
      </trkpt>
      <trkpt lat="44.45635" lon="6.51701">
        <ele>2667</ele>
        <time>2021-02-21T09:12:03Z</time>
      </trkpt>
      <trkpt lat="44.45639" lon="6.51705">
        <ele>2665</ele>
        <time>2021-02-21T09:12:04Z</time>
      </trkpt>
      <trkpt lat="44.4564" lon="6.51705">
        <ele>2665</ele>
        <time>2021-02-21T09:12:05Z</time>
      </trkpt>
      <trkpt lat="44.45641" lon="6.51705">
        <ele>2665</ele>
        <time>2021-02-21T09:12:06Z</time>
      </trkpt>
      <trkpt lat="44.45642" lon="6.51704">
        <ele>2665</ele>
        <time>2021-02-21T09:12:07Z</time>
      </trkpt>
      <trkpt lat="44.45643" lon="6.51704">
        <ele>2665</ele>
        <time>2021-02-21T09:12:08Z</time>
      </trkpt>
      <trkpt lat="44.45645" lon="6.51704">
        <ele>2664</ele>
        <time>2021-02-21T09:12:09Z</time>
      </trkpt>
      <trkpt lat="44.45645" lon="6.51704">
        <ele>2664</ele>
        <time>2021-02-21T09:12:10Z</time>
      </trkpt>
      <trkpt lat="44.45645" lon="6.51705">
        <ele>2664</ele>
        <time>2021-02-21T09:12:11Z</time>
      </trkpt>
      <trkpt lat="44.45645" lon="6.51705">
        <ele>2664</ele>
        <time>2021-02-21T09:12:12Z</time>
      </trkpt>
      <trkpt lat="44.45645" lon="6.51705">
        <ele>2664</ele>
        <time>2021-02-21T09:12:13Z</time>
      </trkpt>
      <trkpt lat="44.45645" lon="6.51705">
        <ele>2664</ele>
        <time>2021-02-21T09:12:14Z</time>
      </trkpt>
      <trkpt lat="44.45645" lon="6.51705">
        <ele>2664</ele>
        <time>2021-02-21T09:12:15Z</time>
      </trkpt>
      <trkpt lat="44.45644" lon="6.51705">
        <ele>2664</ele>
        <time>2021-02-21T09:12:16Z</time>
      </trkpt>
      <trkpt lat="44.45645" lon="6.51705">
        <ele>2664</ele>
        <time>2021-02-21T09:12:17Z</time>
      </trkpt>
      <trkpt lat="44.45644" lon="6.51705">
        <ele>2664</ele>
        <time>2021-02-21T09:12:18Z</time>
      </trkpt>
      <trkpt lat="44.45644" lon="6.51705">
        <ele>2664</ele>
        <time>2021-02-21T09:12:19Z</time>
      </trkpt>
      <trkpt lat="44.45644" lon="6.51705">
        <ele>2664</ele>
        <time>2021-02-21T09:12:20Z</time>
      </trkpt>
      <trkpt lat="44.45644" lon="6.51705">
        <ele>2664</ele>
        <time>2021-02-21T09:12:21Z</time>
      </trkpt>
      <trkpt lat="44.45644" lon="6.51705">
        <ele>2664</ele>
        <time>2021-02-21T09:12:22Z</time>
      </trkpt>
      <trkpt lat="44.45644" lon="6.51705">
        <ele>2664</ele>
        <time>2021-02-21T09:12:23Z</time>
      </trkpt>
      <trkpt lat="44.45644" lon="6.51705">
        <ele>2664</ele>
        <time>2021-02-21T09:12:24Z</time>
      </trkpt>
      <trkpt lat="44.45644" lon="6.51705">
        <ele>2664</ele>
        <time>2021-02-21T09:12:25Z</time>
      </trkpt>
      <trkpt lat="44.45644" lon="6.51705">
        <ele>2664</ele>
        <time>2021-02-21T09:12:26Z</time>
      </trkpt>
      <trkpt lat="44.45644" lon="6.51705">
        <ele>2664</ele>
        <time>2021-02-21T09:12:27Z</time>
      </trkpt>
      <trkpt lat="44.45644" lon="6.51705">
        <ele>2664</ele>
        <time>2021-02-21T09:12:28Z</time>
      </trkpt>
      <trkpt lat="44.45644" lon="6.51705">
        <ele>2664</ele>
        <time>2021-02-21T09:12:29Z</time>
      </trkpt>
      <trkpt lat="44.45644" lon="6.51705">
        <ele>2664</ele>
        <time>2021-02-21T09:12:30Z</time>
      </trkpt>
      <trkpt lat="44.45644" lon="6.51705">
        <ele>2664</ele>
        <time>2021-02-21T09:12:31Z</time>
      </trkpt>
      <trkpt lat="44.45644" lon="6.51705">
        <ele>2664</ele>
        <time>2021-02-21T09:12:32Z</time>
      </trkpt>
      <trkpt lat="44.45644" lon="6.51705">
        <ele>2664</ele>
        <time>2021-02-21T09:12:33Z</time>
      </trkpt>
      <trkpt lat="44.45644" lon="6.51705">
        <ele>2664</ele>
        <time>2021-02-21T09:12:34Z</time>
      </trkpt>
      <trkpt lat="44.45644" lon="6.51705">
        <ele>2664</ele>
        <time>2021-02-21T09:12:35Z</time>
      </trkpt>
      <trkpt lat="44.45644" lon="6.51705">
        <ele>2664</ele>
        <time>2021-02-21T09:12:36Z</time>
      </trkpt>
      <trkpt lat="44.45644" lon="6.51705">
        <ele>2664</ele>
        <time>2021-02-21T09:12:37Z</time>
      </trkpt>
      <trkpt lat="44.45644" lon="6.51705">
        <ele>2664</ele>
        <time>2021-02-21T09:12:38Z</time>
      </trkpt>
      <trkpt lat="44.45644" lon="6.51705">
        <ele>2664</ele>
        <time>2021-02-21T09:12:39Z</time>
      </trkpt>
      <trkpt lat="44.45644" lon="6.51705">
        <ele>2664</ele>
        <time>2021-02-21T09:12:40Z</time>
      </trkpt>
      <trkpt lat="44.45644" lon="6.51705">
        <ele>2664</ele>
        <time>2021-02-21T09:12:41Z</time>
      </trkpt>
      <trkpt lat="44.45644" lon="6.51705">
        <ele>2664</ele>
        <time>2021-02-21T09:12:42Z</time>
      </trkpt>
      <trkpt lat="44.45644" lon="6.51705">
        <ele>2664</ele>
        <time>2021-02-21T09:12:43Z</time>
      </trkpt>
      <trkpt lat="44.45644" lon="6.51705">
        <ele>2664</ele>
        <time>2021-02-21T09:12:44Z</time>
      </trkpt>
      <trkpt lat="44.45644" lon="6.51705">
        <ele>2664</ele>
        <time>2021-02-21T09:12:45Z</time>
      </trkpt>
      <trkpt lat="44.45644" lon="6.51705">
        <ele>2664</ele>
        <time>2021-02-21T09:12:46Z</time>
      </trkpt>
      <trkpt lat="44.45644" lon="6.51705">
        <ele>2664</ele>
        <time>2021-02-21T09:12:47Z</time>
      </trkpt>
      <trkpt lat="44.45644" lon="6.51705">
        <ele>2664</ele>
        <time>2021-02-21T09:12:48Z</time>
      </trkpt>
      <trkpt lat="44.45644" lon="6.51705">
        <ele>2664</ele>
        <time>2021-02-21T09:12:49Z</time>
      </trkpt>
      <trkpt lat="44.45644" lon="6.51705">
        <ele>2664</ele>
        <time>2021-02-21T09:12:50Z</time>
      </trkpt>
      <trkpt lat="44.45644" lon="6.51705">
        <ele>2664</ele>
        <time>2021-02-21T09:12:51Z</time>
      </trkpt>
      <trkpt lat="44.45644" lon="6.51705">
        <ele>2664</ele>
        <time>2021-02-21T09:12:52Z</time>
      </trkpt>
      <trkpt lat="44.45644" lon="6.51705">
        <ele>2664</ele>
        <time>2021-02-21T09:12:53Z</time>
      </trkpt>
      <trkpt lat="44.45646" lon="6.51704">
        <ele>2664</ele>
        <time>2021-02-21T09:12:54Z</time>
      </trkpt>
      <trkpt lat="44.45645" lon="6.51704">
        <ele>2664</ele>
        <time>2021-02-21T09:12:55Z</time>
      </trkpt>
      <trkpt lat="44.45645" lon="6.51704">
        <ele>2664</ele>
        <time>2021-02-21T09:12:56Z</time>
      </trkpt>
      <trkpt lat="44.45645" lon="6.51705">
        <ele>2664</ele>
        <time>2021-02-21T09:12:57Z</time>
      </trkpt>
      <trkpt lat="44.45644" lon="6.51705">
        <ele>2664</ele>
        <time>2021-02-21T09:12:58Z</time>
      </trkpt>
      <trkpt lat="44.45644" lon="6.51705">
        <ele>2664</ele>
        <time>2021-02-21T09:12:59Z</time>
      </trkpt>
      <trkpt lat="44.45644" lon="6.51705">
        <ele>2664</ele>
        <time>2021-02-21T09:13:00Z</time>
      </trkpt>
      <trkpt lat="44.45644" lon="6.51705">
        <ele>2664</ele>
        <time>2021-02-21T09:13:01Z</time>
      </trkpt>
      <trkpt lat="44.45644" lon="6.51705">
        <ele>2664</ele>
        <time>2021-02-21T09:13:02Z</time>
      </trkpt>
      <trkpt lat="44.45644" lon="6.51705">
        <ele>2664</ele>
        <time>2021-02-21T09:13:03Z</time>
      </trkpt>
      <trkpt lat="44.45644" lon="6.51705">
        <ele>2664</ele>
        <time>2021-02-21T09:13:04Z</time>
      </trkpt>
      <trkpt lat="44.45644" lon="6.51705">
        <ele>2664</ele>
        <time>2021-02-21T09:13:05Z</time>
      </trkpt>
      <trkpt lat="44.45644" lon="6.51705">
        <ele>2664</ele>
        <time>2021-02-21T09:13:06Z</time>
      </trkpt>
      <trkpt lat="44.45644" lon="6.51705">
        <ele>2664</ele>
        <time>2021-02-21T09:13:07Z</time>
      </trkpt>
      <trkpt lat="44.45645" lon="6.51705">
        <ele>2664</ele>
        <time>2021-02-21T09:13:08Z</time>
      </trkpt>
      <trkpt lat="44.45645" lon="6.51704">
        <ele>2664</ele>
        <time>2021-02-21T09:13:09Z</time>
      </trkpt>
      <trkpt lat="44.45646" lon="6.51705">
        <ele>2664</ele>
        <time>2021-02-21T09:13:10Z</time>
      </trkpt>
      <trkpt lat="44.45646" lon="6.51704">
        <ele>2664</ele>
        <time>2021-02-21T09:13:11Z</time>
      </trkpt>
      <trkpt lat="44.45646" lon="6.51704">
        <ele>2664</ele>
        <time>2021-02-21T09:13:12Z</time>
      </trkpt>
      <trkpt lat="44.45646" lon="6.51703">
        <ele>2664</ele>
        <time>2021-02-21T09:13:13Z</time>
      </trkpt>
      <trkpt lat="44.45646" lon="6.51702">
        <ele>2664</ele>
        <time>2021-02-21T09:13:14Z</time>
      </trkpt>
      <trkpt lat="44.45647" lon="6.51701">
        <ele>2663</ele>
        <time>2021-02-21T09:13:15Z</time>
      </trkpt>
      <trkpt lat="44.45647" lon="6.51702">
        <ele>2662</ele>
        <time>2021-02-21T09:13:16Z</time>
      </trkpt>
      <trkpt lat="44.45648" lon="6.51705">
        <ele>2662</ele>
        <time>2021-02-21T09:13:17Z</time>
      </trkpt>
      <trkpt lat="44.45647" lon="6.51708">
        <ele>2662</ele>
        <time>2021-02-21T09:13:18Z</time>
      </trkpt>
      <trkpt lat="44.45646" lon="6.51711">
        <ele>2662</ele>
        <time>2021-02-21T09:13:19Z</time>
      </trkpt>
      <trkpt lat="44.45646" lon="6.51712">
        <ele>2662</ele>
        <time>2021-02-21T09:13:20Z</time>
      </trkpt>
      <trkpt lat="44.45645" lon="6.51714">
        <ele>2661</ele>
        <time>2021-02-21T09:13:21Z</time>
      </trkpt>
      <trkpt lat="44.45644" lon="6.51714">
        <ele>2660</ele>
        <time>2021-02-21T09:13:22Z</time>
      </trkpt>
      <trkpt lat="44.45643" lon="6.51713">
        <ele>2660</ele>
        <time>2021-02-21T09:13:23Z</time>
      </trkpt>
      <trkpt lat="44.45643" lon="6.51712">
        <ele>2660</ele>
        <time>2021-02-21T09:13:24Z</time>
      </trkpt>
      <trkpt lat="44.45642" lon="6.5171">
        <ele>2660</ele>
        <time>2021-02-21T09:13:25Z</time>
      </trkpt>
      <trkpt lat="44.45642" lon="6.5171">
        <ele>2660</ele>
        <time>2021-02-21T09:13:26Z</time>
      </trkpt>
      <trkpt lat="44.45642" lon="6.5171">
        <ele>2659</ele>
        <time>2021-02-21T09:13:27Z</time>
      </trkpt>
      <trkpt lat="44.45641" lon="6.51711">
        <ele>2659</ele>
        <time>2021-02-21T09:13:28Z</time>
      </trkpt>
      <trkpt lat="44.45641" lon="6.51712">
        <ele>2659</ele>
        <time>2021-02-21T09:13:29Z</time>
      </trkpt>
      <trkpt lat="44.45641" lon="6.51713">
        <ele>2659</ele>
        <time>2021-02-21T09:13:30Z</time>
      </trkpt>
      <trkpt lat="44.45641" lon="6.51713">
        <ele>2659</ele>
        <time>2021-02-21T09:13:31Z</time>
      </trkpt>
      <trkpt lat="44.45642" lon="6.51713">
        <ele>2659</ele>
        <time>2021-02-21T09:13:32Z</time>
      </trkpt>
      <trkpt lat="44.45642" lon="6.51714">
        <ele>2658</ele>
        <time>2021-02-21T09:13:33Z</time>
      </trkpt>
      <trkpt lat="44.45641" lon="6.51715">
        <ele>2658</ele>
        <time>2021-02-21T09:13:34Z</time>
      </trkpt>
      <trkpt lat="44.45641" lon="6.51716">
        <ele>2658</ele>
        <time>2021-02-21T09:13:35Z</time>
      </trkpt>
      <trkpt lat="44.45641" lon="6.51717">
        <ele>2658</ele>
        <time>2021-02-21T09:13:36Z</time>
      </trkpt>
      <trkpt lat="44.45642" lon="6.51717">
        <ele>2658</ele>
        <time>2021-02-21T09:13:37Z</time>
      </trkpt>
      <trkpt lat="44.45642" lon="6.51718">
        <ele>2658</ele>
        <time>2021-02-21T09:13:38Z</time>
      </trkpt>
      <trkpt lat="44.45642" lon="6.51719">
        <ele>2658</ele>
        <time>2021-02-21T09:13:39Z</time>
      </trkpt>
      <trkpt lat="44.45642" lon="6.51721">
        <ele>2658</ele>
        <time>2021-02-21T09:13:40Z</time>
      </trkpt>
      <trkpt lat="44.45641" lon="6.51722">
        <ele>2658</ele>
        <time>2021-02-21T09:13:41Z</time>
      </trkpt>
      <trkpt lat="44.4564" lon="6.51723">
        <ele>2658</ele>
        <time>2021-02-21T09:13:42Z</time>
      </trkpt>
      <trkpt lat="44.4564" lon="6.51724">
        <ele>2658</ele>
        <time>2021-02-21T09:13:43Z</time>
      </trkpt>
      <trkpt lat="44.4564" lon="6.51724">
        <ele>2658</ele>
        <time>2021-02-21T09:13:44Z</time>
      </trkpt>
      <trkpt lat="44.4564" lon="6.51725">
        <ele>2658</ele>
        <time>2021-02-21T09:13:45Z</time>
      </trkpt>
      <trkpt lat="44.45642" lon="6.51723">
        <ele>2658</ele>
        <time>2021-02-21T09:13:46Z</time>
      </trkpt>
      <trkpt lat="44.45642" lon="6.51724">
        <ele>2657</ele>
        <time>2021-02-21T09:13:47Z</time>
      </trkpt>
      <trkpt lat="44.45641" lon="6.51724">
        <ele>2657</ele>
        <time>2021-02-21T09:13:48Z</time>
      </trkpt>
      <trkpt lat="44.45641" lon="6.51724">
        <ele>2657</ele>
        <time>2021-02-21T09:13:49Z</time>
      </trkpt>
      <trkpt lat="44.45642" lon="6.51725">
        <ele>2657</ele>
        <time>2021-02-21T09:13:50Z</time>
      </trkpt>
      <trkpt lat="44.45642" lon="6.51726">
        <ele>2657</ele>
        <time>2021-02-21T09:13:51Z</time>
      </trkpt>
      <trkpt lat="44.45643" lon="6.51727">
        <ele>2657</ele>
        <time>2021-02-21T09:13:52Z</time>
      </trkpt>
      <trkpt lat="44.45644" lon="6.51727">
        <ele>2657</ele>
        <time>2021-02-21T09:13:53Z</time>
      </trkpt>
      <trkpt lat="44.45644" lon="6.51727">
        <ele>2657</ele>
        <time>2021-02-21T09:13:54Z</time>
      </trkpt>
      <trkpt lat="44.45644" lon="6.51728">
        <ele>2657</ele>
        <time>2021-02-21T09:13:55Z</time>
      </trkpt>
      <trkpt lat="44.45644" lon="6.51728">
        <ele>2657</ele>
        <time>2021-02-21T09:13:56Z</time>
      </trkpt>
      <trkpt lat="44.45644" lon="6.51729">
        <ele>2658</ele>
        <time>2021-02-21T09:13:57Z</time>
      </trkpt>
      <trkpt lat="44.45643" lon="6.51729">
        <ele>2658</ele>
        <time>2021-02-21T09:13:58Z</time>
      </trkpt>
      <trkpt lat="44.45643" lon="6.51729">
        <ele>2658</ele>
        <time>2021-02-21T09:13:59Z</time>
      </trkpt>
      <trkpt lat="44.45642" lon="6.51728">
        <ele>2658</ele>
        <time>2021-02-21T09:14:00Z</time>
      </trkpt>
      <trkpt lat="44.45642" lon="6.51728">
        <ele>2658</ele>
        <time>2021-02-21T09:14:01Z</time>
      </trkpt>
      <trkpt lat="44.45641" lon="6.51727">
        <ele>2658</ele>
        <time>2021-02-21T09:14:02Z</time>
      </trkpt>
      <trkpt lat="44.45641" lon="6.51726">
        <ele>2658</ele>
        <time>2021-02-21T09:14:03Z</time>
      </trkpt>
      <trkpt lat="44.4564" lon="6.51725">
        <ele>2658</ele>
        <time>2021-02-21T09:14:04Z</time>
      </trkpt>
      <trkpt lat="44.4564" lon="6.51725">
        <ele>2658</ele>
        <time>2021-02-21T09:14:05Z</time>
      </trkpt>
      <trkpt lat="44.45639" lon="6.51724">
        <ele>2658</ele>
        <time>2021-02-21T09:14:06Z</time>
      </trkpt>
      <trkpt lat="44.45639" lon="6.51724">
        <ele>2657</ele>
        <time>2021-02-21T09:14:07Z</time>
      </trkpt>
      <trkpt lat="44.45639" lon="6.51723">
        <ele>2657</ele>
        <time>2021-02-21T09:14:08Z</time>
      </trkpt>
      <trkpt lat="44.45639" lon="6.51723">
        <ele>2657</ele>
        <time>2021-02-21T09:14:09Z</time>
      </trkpt>
      <trkpt lat="44.45639" lon="6.51723">
        <ele>2657</ele>
        <time>2021-02-21T09:14:10Z</time>
      </trkpt>
      <trkpt lat="44.45639" lon="6.51723">
        <ele>2657</ele>
        <time>2021-02-21T09:14:11Z</time>
      </trkpt>
      <trkpt lat="44.45638" lon="6.51723">
        <ele>2657</ele>
        <time>2021-02-21T09:14:12Z</time>
      </trkpt>
      <trkpt lat="44.45639" lon="6.51723">
        <ele>2657</ele>
        <time>2021-02-21T09:14:13Z</time>
      </trkpt>
      <trkpt lat="44.45639" lon="6.51722">
        <ele>2657</ele>
        <time>2021-02-21T09:14:14Z</time>
      </trkpt>
      <trkpt lat="44.45639" lon="6.51721">
        <ele>2657</ele>
        <time>2021-02-21T09:14:15Z</time>
      </trkpt>
      <trkpt lat="44.4564" lon="6.51721">
        <ele>2657</ele>
        <time>2021-02-21T09:14:16Z</time>
      </trkpt>
      <trkpt lat="44.45639" lon="6.51721">
        <ele>2657</ele>
        <time>2021-02-21T09:14:17Z</time>
      </trkpt>
      <trkpt lat="44.45639" lon="6.51721">
        <ele>2657</ele>
        <time>2021-02-21T09:14:18Z</time>
      </trkpt>
      <trkpt lat="44.45639" lon="6.51721">
        <ele>2657</ele>
        <time>2021-02-21T09:14:19Z</time>
      </trkpt>
      <trkpt lat="44.45639" lon="6.51722">
        <ele>2657</ele>
        <time>2021-02-21T09:14:20Z</time>
      </trkpt>
      <trkpt lat="44.45639" lon="6.51721">
        <ele>2657</ele>
        <time>2021-02-21T09:14:21Z</time>
      </trkpt>
      <trkpt lat="44.45639" lon="6.51722">
        <ele>2657</ele>
        <time>2021-02-21T09:14:22Z</time>
      </trkpt>
      <trkpt lat="44.45639" lon="6.51721">
        <ele>2657</ele>
        <time>2021-02-21T09:14:23Z</time>
      </trkpt>
      <trkpt lat="44.45639" lon="6.5172">
        <ele>2657</ele>
        <time>2021-02-21T09:14:24Z</time>
      </trkpt>
      <trkpt lat="44.45639" lon="6.51719">
        <ele>2657</ele>
        <time>2021-02-21T09:14:25Z</time>
      </trkpt>
      <trkpt lat="44.45638" lon="6.51719">
        <ele>2657</ele>
        <time>2021-02-21T09:14:26Z</time>
      </trkpt>
      <trkpt lat="44.45638" lon="6.51717">
        <ele>2657</ele>
        <time>2021-02-21T09:14:27Z</time>
      </trkpt>
      <trkpt lat="44.45639" lon="6.51717">
        <ele>2657</ele>
        <time>2021-02-21T09:14:28Z</time>
      </trkpt>
      <trkpt lat="44.45639" lon="6.51716">
        <ele>2657</ele>
        <time>2021-02-21T09:14:29Z</time>
      </trkpt>
      <trkpt lat="44.45639" lon="6.51714">
        <ele>2656</ele>
        <time>2021-02-21T09:14:30Z</time>
      </trkpt>
      <trkpt lat="44.45643" lon="6.517">
        <ele>2655</ele>
        <time>2021-02-21T09:14:31Z</time>
      </trkpt>
      <trkpt lat="44.45644" lon="6.517">
        <ele>2655</ele>
        <time>2021-02-21T09:14:32Z</time>
      </trkpt>
      <trkpt lat="44.45647" lon="6.51698">
        <ele>2654</ele>
        <time>2021-02-21T09:14:33Z</time>
      </trkpt>
      <trkpt lat="44.45651" lon="6.51697">
        <ele>2654</ele>
        <time>2021-02-21T09:14:34Z</time>
      </trkpt>
      <trkpt lat="44.45655" lon="6.51697">
        <ele>2654</ele>
        <time>2021-02-21T09:14:35Z</time>
      </trkpt>
      <trkpt lat="44.45658" lon="6.51698">
        <ele>2653</ele>
        <time>2021-02-21T09:14:36Z</time>
      </trkpt>
      <trkpt lat="44.45655" lon="6.51701">
        <ele>2653</ele>
        <time>2021-02-21T09:14:37Z</time>
      </trkpt>
      <trkpt lat="44.45654" lon="6.51703">
        <ele>2653</ele>
        <time>2021-02-21T09:14:38Z</time>
      </trkpt>
      <trkpt lat="44.45655" lon="6.51702">
        <ele>2653</ele>
        <time>2021-02-21T09:14:39Z</time>
      </trkpt>
      <trkpt lat="44.45659" lon="6.51705">
        <ele>2653</ele>
        <time>2021-02-21T09:14:40Z</time>
      </trkpt>
      <trkpt lat="44.45652" lon="6.51716">
        <ele>2652</ele>
        <time>2021-02-21T09:14:41Z</time>
      </trkpt>
      <trkpt lat="44.45647" lon="6.51719">
        <ele>2652</ele>
        <time>2021-02-21T09:14:42Z</time>
      </trkpt>
      <trkpt lat="44.45645" lon="6.51722">
        <ele>2652</ele>
        <time>2021-02-21T09:14:43Z</time>
      </trkpt>
      <trkpt lat="44.45644" lon="6.51721">
        <ele>2651</ele>
        <time>2021-02-21T09:14:44Z</time>
      </trkpt>
      <trkpt lat="44.45645" lon="6.5172">
        <ele>2651</ele>
        <time>2021-02-21T09:14:45Z</time>
      </trkpt>
      <trkpt lat="44.45646" lon="6.5172">
        <ele>2651</ele>
        <time>2021-02-21T09:14:46Z</time>
      </trkpt>
      <trkpt lat="44.45645" lon="6.51719">
        <ele>2651</ele>
        <time>2021-02-21T09:14:47Z</time>
      </trkpt>
      <trkpt lat="44.45642" lon="6.51717">
        <ele>2650</ele>
        <time>2021-02-21T09:14:48Z</time>
      </trkpt>
      <trkpt lat="44.45639" lon="6.51714">
        <ele>2650</ele>
        <time>2021-02-21T09:14:49Z</time>
      </trkpt>
      <trkpt lat="44.45644" lon="6.51713">
        <ele>2648</ele>
        <time>2021-02-21T09:14:50Z</time>
      </trkpt>
      <trkpt lat="44.45643" lon="6.51714">
        <ele>2648</ele>
        <time>2021-02-21T09:14:51Z</time>
      </trkpt>
      <trkpt lat="44.45643" lon="6.51714">
        <ele>2647</ele>
        <time>2021-02-21T09:14:52Z</time>
      </trkpt>
      <trkpt lat="44.45644" lon="6.51714">
        <ele>2647</ele>
        <time>2021-02-21T09:14:53Z</time>
      </trkpt>
      <trkpt lat="44.45645" lon="6.51714">
        <ele>2647</ele>
        <time>2021-02-21T09:14:54Z</time>
      </trkpt>
      <trkpt lat="44.45645" lon="6.51715">
        <ele>2647</ele>
        <time>2021-02-21T09:14:55Z</time>
      </trkpt>
      <trkpt lat="44.45645" lon="6.51715">
        <ele>2646</ele>
        <time>2021-02-21T09:14:56Z</time>
      </trkpt>
      <trkpt lat="44.45645" lon="6.51716">
        <ele>2646</ele>
        <time>2021-02-21T09:14:57Z</time>
      </trkpt>
      <trkpt lat="44.45645" lon="6.51717">
        <ele>2646</ele>
        <time>2021-02-21T09:14:58Z</time>
      </trkpt>
      <trkpt lat="44.45645" lon="6.51717">
        <ele>2646</ele>
        <time>2021-02-21T09:14:59Z</time>
      </trkpt>
      <trkpt lat="44.45645" lon="6.51717">
        <ele>2646</ele>
        <time>2021-02-21T09:15:00Z</time>
      </trkpt>
      <trkpt lat="44.45645" lon="6.51718">
        <ele>2646</ele>
        <time>2021-02-21T09:15:01Z</time>
      </trkpt>
      <trkpt lat="44.45645" lon="6.51717">
        <ele>2646</ele>
        <time>2021-02-21T09:15:02Z</time>
      </trkpt>
      <trkpt lat="44.45646" lon="6.51716">
        <ele>2646</ele>
        <time>2021-02-21T09:15:03Z</time>
      </trkpt>
      <trkpt lat="44.45646" lon="6.51716">
        <ele>2646</ele>
        <time>2021-02-21T09:15:04Z</time>
      </trkpt>
      <trkpt lat="44.45645" lon="6.51716">
        <ele>2646</ele>
        <time>2021-02-21T09:15:05Z</time>
      </trkpt>
      <trkpt lat="44.45645" lon="6.51716">
        <ele>2646</ele>
        <time>2021-02-21T09:15:06Z</time>
      </trkpt>
      <trkpt lat="44.45645" lon="6.51716">
        <ele>2646</ele>
        <time>2021-02-21T09:15:07Z</time>
      </trkpt>
      <trkpt lat="44.45645" lon="6.51716">
        <ele>2646</ele>
        <time>2021-02-21T09:15:08Z</time>
      </trkpt>
      <trkpt lat="44.45645" lon="6.51716">
        <ele>2645</ele>
        <time>2021-02-21T09:15:09Z</time>
      </trkpt>
      <trkpt lat="44.45646" lon="6.51717">
        <ele>2645</ele>
        <time>2021-02-21T09:15:10Z</time>
      </trkpt>
      <trkpt lat="44.45646" lon="6.51717">
        <ele>2644</ele>
        <time>2021-02-21T09:15:11Z</time>
      </trkpt>
      <trkpt lat="44.45646" lon="6.51717">
        <ele>2644</ele>
        <time>2021-02-21T09:15:12Z</time>
      </trkpt>
      <trkpt lat="44.45645" lon="6.51718">
        <ele>2644</ele>
        <time>2021-02-21T09:15:13Z</time>
      </trkpt>
      <trkpt lat="44.45645" lon="6.51717">
        <ele>2644</ele>
        <time>2021-02-21T09:15:14Z</time>
      </trkpt>
      <trkpt lat="44.45645" lon="6.51717">
        <ele>2644</ele>
        <time>2021-02-21T09:15:15Z</time>
      </trkpt>
      <trkpt lat="44.45644" lon="6.51717">
        <ele>2644</ele>
        <time>2021-02-21T09:15:16Z</time>
      </trkpt>
      <trkpt lat="44.45644" lon="6.51719">
        <ele>2644</ele>
        <time>2021-02-21T09:15:17Z</time>
      </trkpt>
      <trkpt lat="44.45644" lon="6.5172">
        <ele>2644</ele>
        <time>2021-02-21T09:15:18Z</time>
      </trkpt>
      <trkpt lat="44.45644" lon="6.51722">
        <ele>2644</ele>
        <time>2021-02-21T09:15:19Z</time>
      </trkpt>
      <trkpt lat="44.45643" lon="6.51722">
        <ele>2645</ele>
        <time>2021-02-21T09:15:20Z</time>
      </trkpt>
      <trkpt lat="44.45643" lon="6.51722">
        <ele>2646</ele>
        <time>2021-02-21T09:15:21Z</time>
      </trkpt>
      <trkpt lat="44.45644" lon="6.51722">
        <ele>2646</ele>
        <time>2021-02-21T09:15:22Z</time>
      </trkpt>
      <trkpt lat="44.45646" lon="6.51722">
        <ele>2646</ele>
        <time>2021-02-21T09:15:23Z</time>
      </trkpt>
      <trkpt lat="44.45646" lon="6.51721">
        <ele>2646</ele>
        <time>2021-02-21T09:15:24Z</time>
      </trkpt>
      <trkpt lat="44.45646" lon="6.51722">
        <ele>2646</ele>
        <time>2021-02-21T09:15:25Z</time>
      </trkpt>
      <trkpt lat="44.45647" lon="6.51721">
        <ele>2646</ele>
        <time>2021-02-21T09:15:26Z</time>
      </trkpt>
      <trkpt lat="44.45647" lon="6.51721">
        <ele>2646</ele>
        <time>2021-02-21T09:15:27Z</time>
      </trkpt>
      <trkpt lat="44.45647" lon="6.51721">
        <ele>2646</ele>
        <time>2021-02-21T09:15:28Z</time>
      </trkpt>
      <trkpt lat="44.45647" lon="6.51721">
        <ele>2646</ele>
        <time>2021-02-21T09:15:29Z</time>
      </trkpt>
      <trkpt lat="44.45647" lon="6.51721">
        <ele>2646</ele>
        <time>2021-02-21T09:15:30Z</time>
      </trkpt>
      <trkpt lat="44.45647" lon="6.5172">
        <ele>2646</ele>
        <time>2021-02-21T09:15:31Z</time>
      </trkpt>
      <trkpt lat="44.45647" lon="6.5172">
        <ele>2646</ele>
        <time>2021-02-21T09:15:32Z</time>
      </trkpt>
      <trkpt lat="44.45647" lon="6.51719">
        <ele>2646</ele>
        <time>2021-02-21T09:15:33Z</time>
      </trkpt>
      <trkpt lat="44.45646" lon="6.51719">
        <ele>2646</ele>
        <time>2021-02-21T09:15:34Z</time>
      </trkpt>
      <trkpt lat="44.45646" lon="6.51719">
        <ele>2646</ele>
        <time>2021-02-21T09:15:35Z</time>
      </trkpt>
      <trkpt lat="44.45645" lon="6.51719">
        <ele>2646</ele>
        <time>2021-02-21T09:15:36Z</time>
      </trkpt>
      <trkpt lat="44.45645" lon="6.5172">
        <ele>2646</ele>
        <time>2021-02-21T09:15:37Z</time>
      </trkpt>
      <trkpt lat="44.45645" lon="6.5172">
        <ele>2647</ele>
        <time>2021-02-21T09:15:38Z</time>
      </trkpt>
      <trkpt lat="44.45646" lon="6.51721">
        <ele>2647</ele>
        <time>2021-02-21T09:15:39Z</time>
      </trkpt>
      <trkpt lat="44.45646" lon="6.5172">
        <ele>2647</ele>
        <time>2021-02-21T09:15:40Z</time>
      </trkpt>
      <trkpt lat="44.45646" lon="6.51721">
        <ele>2647</ele>
        <time>2021-02-21T09:15:41Z</time>
      </trkpt>
      <trkpt lat="44.45647" lon="6.5172">
        <ele>2647</ele>
        <time>2021-02-21T09:15:42Z</time>
      </trkpt>
      <trkpt lat="44.45648" lon="6.5172">
        <ele>2647</ele>
        <time>2021-02-21T09:15:43Z</time>
      </trkpt>
      <trkpt lat="44.45649" lon="6.51719">
        <ele>2647</ele>
        <time>2021-02-21T09:15:44Z</time>
      </trkpt>
      <trkpt lat="44.45651" lon="6.51719">
        <ele>2647</ele>
        <time>2021-02-21T09:15:45Z</time>
      </trkpt>
      <trkpt lat="44.45652" lon="6.51719">
        <ele>2646</ele>
        <time>2021-02-21T09:15:46Z</time>
      </trkpt>
      <trkpt lat="44.45652" lon="6.51719">
        <ele>2646</ele>
        <time>2021-02-21T09:15:47Z</time>
      </trkpt>
      <trkpt lat="44.45652" lon="6.51719">
        <ele>2646</ele>
        <time>2021-02-21T09:15:48Z</time>
      </trkpt>
      <trkpt lat="44.45652" lon="6.51719">
        <ele>2646</ele>
        <time>2021-02-21T09:15:49Z</time>
      </trkpt>
      <trkpt lat="44.45653" lon="6.5172">
        <ele>2646</ele>
        <time>2021-02-21T09:15:50Z</time>
      </trkpt>
      <trkpt lat="44.45652" lon="6.5172">
        <ele>2646</ele>
        <time>2021-02-21T09:15:51Z</time>
      </trkpt>
      <trkpt lat="44.45653" lon="6.51719">
        <ele>2646</ele>
        <time>2021-02-21T09:15:52Z</time>
      </trkpt>
      <trkpt lat="44.45652" lon="6.5172">
        <ele>2646</ele>
        <time>2021-02-21T09:15:53Z</time>
      </trkpt>
      <trkpt lat="44.45652" lon="6.5172">
        <ele>2646</ele>
        <time>2021-02-21T09:15:54Z</time>
      </trkpt>
      <trkpt lat="44.45652" lon="6.5172">
        <ele>2646</ele>
        <time>2021-02-21T09:15:55Z</time>
      </trkpt>
      <trkpt lat="44.45652" lon="6.5172">
        <ele>2646</ele>
        <time>2021-02-21T09:15:56Z</time>
      </trkpt>
      <trkpt lat="44.45652" lon="6.5172">
        <ele>2645</ele>
        <time>2021-02-21T09:15:57Z</time>
      </trkpt>
      <trkpt lat="44.45652" lon="6.5172">
        <ele>2645</ele>
        <time>2021-02-21T09:15:58Z</time>
      </trkpt>
      <trkpt lat="44.45652" lon="6.5172">
        <ele>2645</ele>
        <time>2021-02-21T09:15:59Z</time>
      </trkpt>
      <trkpt lat="44.45652" lon="6.5172">
        <ele>2645</ele>
        <time>2021-02-21T09:16:00Z</time>
      </trkpt>
      <trkpt lat="44.45652" lon="6.5172">
        <ele>2645</ele>
        <time>2021-02-21T09:16:01Z</time>
      </trkpt>
      <trkpt lat="44.45652" lon="6.5172">
        <ele>2645</ele>
        <time>2021-02-21T09:16:02Z</time>
      </trkpt>
      <trkpt lat="44.45652" lon="6.5172">
        <ele>2645</ele>
        <time>2021-02-21T09:16:03Z</time>
      </trkpt>
      <trkpt lat="44.45652" lon="6.5172">
        <ele>2645</ele>
        <time>2021-02-21T09:16:04Z</time>
      </trkpt>
      <trkpt lat="44.45652" lon="6.5172">
        <ele>2645</ele>
        <time>2021-02-21T09:16:05Z</time>
      </trkpt>
      <trkpt lat="44.45652" lon="6.5172">
        <ele>2645</ele>
        <time>2021-02-21T09:16:06Z</time>
      </trkpt>
      <trkpt lat="44.45652" lon="6.5172">
        <ele>2645</ele>
        <time>2021-02-21T09:16:07Z</time>
      </trkpt>
      <trkpt lat="44.45652" lon="6.5172">
        <ele>2645</ele>
        <time>2021-02-21T09:16:08Z</time>
      </trkpt>
      <trkpt lat="44.45652" lon="6.5172">
        <ele>2645</ele>
        <time>2021-02-21T09:16:09Z</time>
      </trkpt>
      <trkpt lat="44.45652" lon="6.5172">
        <ele>2645</ele>
        <time>2021-02-21T09:16:10Z</time>
      </trkpt>
      <trkpt lat="44.45652" lon="6.5172">
        <ele>2645</ele>
        <time>2021-02-21T09:16:11Z</time>
      </trkpt>
      <trkpt lat="44.45652" lon="6.5172">
        <ele>2645</ele>
        <time>2021-02-21T09:16:12Z</time>
      </trkpt>
      <trkpt lat="44.45652" lon="6.5172">
        <ele>2645</ele>
        <time>2021-02-21T09:16:13Z</time>
      </trkpt>
      <trkpt lat="44.45652" lon="6.5172">
        <ele>2645</ele>
        <time>2021-02-21T09:16:14Z</time>
      </trkpt>
      <trkpt lat="44.45652" lon="6.5172">
        <ele>2645</ele>
        <time>2021-02-21T09:16:15Z</time>
      </trkpt>
      <trkpt lat="44.45652" lon="6.5172">
        <ele>2645</ele>
        <time>2021-02-21T09:16:16Z</time>
      </trkpt>
      <trkpt lat="44.45648" lon="6.51721">
        <ele>2646</ele>
        <time>2021-02-21T09:16:17Z</time>
      </trkpt>
      <trkpt lat="44.45647" lon="6.51722">
        <ele>2646</ele>
        <time>2021-02-21T09:16:18Z</time>
      </trkpt>
      <trkpt lat="44.45646" lon="6.51723">
        <ele>2647</ele>
        <time>2021-02-21T09:16:19Z</time>
      </trkpt>
      <trkpt lat="44.45645" lon="6.51723">
        <ele>2647</ele>
        <time>2021-02-21T09:16:20Z</time>
      </trkpt>
      <trkpt lat="44.45644" lon="6.51722">
        <ele>2647</ele>
        <time>2021-02-21T09:16:21Z</time>
      </trkpt>
      <trkpt lat="44.45644" lon="6.51722">
        <ele>2648</ele>
        <time>2021-02-21T09:16:22Z</time>
      </trkpt>
      <trkpt lat="44.45644" lon="6.51722">
        <ele>2648</ele>
        <time>2021-02-21T09:16:23Z</time>
      </trkpt>
      <trkpt lat="44.45644" lon="6.51722">
        <ele>2648</ele>
        <time>2021-02-21T09:16:24Z</time>
      </trkpt>
      <trkpt lat="44.45645" lon="6.51722">
        <ele>2648</ele>
        <time>2021-02-21T09:16:25Z</time>
      </trkpt>
      <trkpt lat="44.45645" lon="6.51721">
        <ele>2648</ele>
        <time>2021-02-21T09:16:26Z</time>
      </trkpt>
      <trkpt lat="44.45645" lon="6.51722">
        <ele>2648</ele>
        <time>2021-02-21T09:16:27Z</time>
      </trkpt>
      <trkpt lat="44.45645" lon="6.51722">
        <ele>2648</ele>
        <time>2021-02-21T09:16:28Z</time>
      </trkpt>
      <trkpt lat="44.45645" lon="6.51722">
        <ele>2648</ele>
        <time>2021-02-21T09:16:29Z</time>
      </trkpt>
      <trkpt lat="44.45646" lon="6.51722">
        <ele>2648</ele>
        <time>2021-02-21T09:16:30Z</time>
      </trkpt>
      <trkpt lat="44.45646" lon="6.51722">
        <ele>2648</ele>
        <time>2021-02-21T09:16:31Z</time>
      </trkpt>
      <trkpt lat="44.45646" lon="6.51723">
        <ele>2648</ele>
        <time>2021-02-21T09:16:32Z</time>
      </trkpt>
      <trkpt lat="44.45645" lon="6.51723">
        <ele>2648</ele>
        <time>2021-02-21T09:16:33Z</time>
      </trkpt>
      <trkpt lat="44.45645" lon="6.51723">
        <ele>2648</ele>
        <time>2021-02-21T09:16:34Z</time>
      </trkpt>
      <trkpt lat="44.45645" lon="6.51723">
        <ele>2648</ele>
        <time>2021-02-21T09:16:35Z</time>
      </trkpt>
      <trkpt lat="44.45646" lon="6.51723">
        <ele>2648</ele>
        <time>2021-02-21T09:16:36Z</time>
      </trkpt>
      <trkpt lat="44.45646" lon="6.51722">
        <ele>2648</ele>
        <time>2021-02-21T09:16:37Z</time>
      </trkpt>
      <trkpt lat="44.45648" lon="6.51721">
        <ele>2648</ele>
        <time>2021-02-21T09:16:38Z</time>
      </trkpt>
      <trkpt lat="44.45649" lon="6.5172">
        <ele>2648</ele>
        <time>2021-02-21T09:16:39Z</time>
      </trkpt>
      <trkpt lat="44.45649" lon="6.5172">
        <ele>2648</ele>
        <time>2021-02-21T09:16:40Z</time>
      </trkpt>
      <trkpt lat="44.45649" lon="6.51718">
        <ele>2647</ele>
        <time>2021-02-21T09:16:41Z</time>
      </trkpt>
      <trkpt lat="44.45649" lon="6.51717">
        <ele>2647</ele>
        <time>2021-02-21T09:16:42Z</time>
      </trkpt>
      <trkpt lat="44.45648" lon="6.51717">
        <ele>2647</ele>
        <time>2021-02-21T09:16:43Z</time>
      </trkpt>
      <trkpt lat="44.45648" lon="6.51717">
        <ele>2647</ele>
        <time>2021-02-21T09:16:44Z</time>
      </trkpt>
      <trkpt lat="44.45647" lon="6.51717">
        <ele>2647</ele>
        <time>2021-02-21T09:16:45Z</time>
      </trkpt>
      <trkpt lat="44.45647" lon="6.51717">
        <ele>2647</ele>
        <time>2021-02-21T09:16:46Z</time>
      </trkpt>
      <trkpt lat="44.45646" lon="6.51717">
        <ele>2647</ele>
        <time>2021-02-21T09:16:47Z</time>
      </trkpt>
      <trkpt lat="44.45646" lon="6.51717">
        <ele>2647</ele>
        <time>2021-02-21T09:16:48Z</time>
      </trkpt>
      <trkpt lat="44.45645" lon="6.51716">
        <ele>2646</ele>
        <time>2021-02-21T09:16:49Z</time>
      </trkpt>
      <trkpt lat="44.45645" lon="6.51716">
        <ele>2647</ele>
        <time>2021-02-21T09:16:50Z</time>
      </trkpt>
      <trkpt lat="44.45645" lon="6.51716">
        <ele>2647</ele>
        <time>2021-02-21T09:16:51Z</time>
      </trkpt>
      <trkpt lat="44.45645" lon="6.51716">
        <ele>2647</ele>
        <time>2021-02-21T09:16:52Z</time>
      </trkpt>
      <trkpt lat="44.45645" lon="6.51716">
        <ele>2647</ele>
        <time>2021-02-21T09:16:53Z</time>
      </trkpt>
      <trkpt lat="44.45645" lon="6.51716">
        <ele>2647</ele>
        <time>2021-02-21T09:16:54Z</time>
      </trkpt>
      <trkpt lat="44.45645" lon="6.51716">
        <ele>2647</ele>
        <time>2021-02-21T09:16:55Z</time>
      </trkpt>
      <trkpt lat="44.45645" lon="6.51716">
        <ele>2647</ele>
        <time>2021-02-21T09:16:56Z</time>
      </trkpt>
      <trkpt lat="44.45645" lon="6.51716">
        <ele>2647</ele>
        <time>2021-02-21T09:16:57Z</time>
      </trkpt>
      <trkpt lat="44.45645" lon="6.51716">
        <ele>2647</ele>
        <time>2021-02-21T09:16:58Z</time>
      </trkpt>
      <trkpt lat="44.45645" lon="6.51716">
        <ele>2647</ele>
        <time>2021-02-21T09:16:59Z</time>
      </trkpt>
      <trkpt lat="44.45645" lon="6.51716">
        <ele>2647</ele>
        <time>2021-02-21T09:17:00Z</time>
      </trkpt>
      <trkpt lat="44.45645" lon="6.51716">
        <ele>2647</ele>
        <time>2021-02-21T09:17:01Z</time>
      </trkpt>
      <trkpt lat="44.45645" lon="6.51716">
        <ele>2647</ele>
        <time>2021-02-21T09:17:02Z</time>
      </trkpt>
      <trkpt lat="44.45645" lon="6.51716">
        <ele>2647</ele>
        <time>2021-02-21T09:17:03Z</time>
      </trkpt>
      <trkpt lat="44.45645" lon="6.51716">
        <ele>2647</ele>
        <time>2021-02-21T09:17:04Z</time>
      </trkpt>
      <trkpt lat="44.45645" lon="6.51716">
        <ele>2647</ele>
        <time>2021-02-21T09:17:05Z</time>
      </trkpt>
      <trkpt lat="44.45645" lon="6.51716">
        <ele>2647</ele>
        <time>2021-02-21T09:17:06Z</time>
      </trkpt>
      <trkpt lat="44.45645" lon="6.51716">
        <ele>2647</ele>
        <time>2021-02-21T09:17:07Z</time>
      </trkpt>
      <trkpt lat="44.45645" lon="6.51716">
        <ele>2647</ele>
        <time>2021-02-21T09:17:08Z</time>
      </trkpt>
      <trkpt lat="44.45645" lon="6.51716">
        <ele>2647</ele>
        <time>2021-02-21T09:17:09Z</time>
      </trkpt>
      <trkpt lat="44.45645" lon="6.51716">
        <ele>2647</ele>
        <time>2021-02-21T09:17:10Z</time>
      </trkpt>
      <trkpt lat="44.45645" lon="6.51716">
        <ele>2647</ele>
        <time>2021-02-21T09:17:11Z</time>
      </trkpt>
      <trkpt lat="44.45645" lon="6.51716">
        <ele>2647</ele>
        <time>2021-02-21T09:17:12Z</time>
      </trkpt>
      <trkpt lat="44.45645" lon="6.51716">
        <ele>2647</ele>
        <time>2021-02-21T09:17:13Z</time>
      </trkpt>
      <trkpt lat="44.45645" lon="6.51716">
        <ele>2647</ele>
        <time>2021-02-21T09:17:14Z</time>
      </trkpt>
      <trkpt lat="44.45645" lon="6.51716">
        <ele>2647</ele>
        <time>2021-02-21T09:17:15Z</time>
      </trkpt>
      <trkpt lat="44.45645" lon="6.51716">
        <ele>2647</ele>
        <time>2021-02-21T09:17:16Z</time>
      </trkpt>
      <trkpt lat="44.45645" lon="6.51716">
        <ele>2647</ele>
        <time>2021-02-21T09:17:17Z</time>
      </trkpt>
      <trkpt lat="44.45645" lon="6.51716">
        <ele>2647</ele>
        <time>2021-02-21T09:17:18Z</time>
      </trkpt>
      <trkpt lat="44.45645" lon="6.51716">
        <ele>2647</ele>
        <time>2021-02-21T09:17:19Z</time>
      </trkpt>
      <trkpt lat="44.45644" lon="6.51719">
        <ele>2647</ele>
        <time>2021-02-21T09:17:20Z</time>
      </trkpt>
      <trkpt lat="44.45644" lon="6.5172">
        <ele>2647</ele>
        <time>2021-02-21T09:17:21Z</time>
      </trkpt>
      <trkpt lat="44.45643" lon="6.5172">
        <ele>2647</ele>
        <time>2021-02-21T09:17:22Z</time>
      </trkpt>
      <trkpt lat="44.45643" lon="6.5172">
        <ele>2647</ele>
        <time>2021-02-21T09:17:23Z</time>
      </trkpt>
      <trkpt lat="44.45643" lon="6.5172">
        <ele>2647</ele>
        <time>2021-02-21T09:17:24Z</time>
      </trkpt>
      <trkpt lat="44.45643" lon="6.51719">
        <ele>2647</ele>
        <time>2021-02-21T09:17:25Z</time>
      </trkpt>
      <trkpt lat="44.45643" lon="6.51719">
        <ele>2647</ele>
        <time>2021-02-21T09:17:26Z</time>
      </trkpt>
      <trkpt lat="44.45643" lon="6.51719">
        <ele>2647</ele>
        <time>2021-02-21T09:17:27Z</time>
      </trkpt>
      <trkpt lat="44.45643" lon="6.51719">
        <ele>2648</ele>
        <time>2021-02-21T09:17:28Z</time>
      </trkpt>
      <trkpt lat="44.45643" lon="6.51719">
        <ele>2648</ele>
        <time>2021-02-21T09:17:29Z</time>
      </trkpt>
      <trkpt lat="44.45643" lon="6.51719">
        <ele>2648</ele>
        <time>2021-02-21T09:17:30Z</time>
      </trkpt>
      <trkpt lat="44.45643" lon="6.51719">
        <ele>2648</ele>
        <time>2021-02-21T09:17:31Z</time>
      </trkpt>
      <trkpt lat="44.45643" lon="6.51719">
        <ele>2648</ele>
        <time>2021-02-21T09:17:32Z</time>
      </trkpt>
      <trkpt lat="44.45643" lon="6.51718">
        <ele>2648</ele>
        <time>2021-02-21T09:17:33Z</time>
      </trkpt>
      <trkpt lat="44.45643" lon="6.51719">
        <ele>2648</ele>
        <time>2021-02-21T09:17:34Z</time>
      </trkpt>
      <trkpt lat="44.45643" lon="6.51719">
        <ele>2648</ele>
        <time>2021-02-21T09:17:35Z</time>
      </trkpt>
      <trkpt lat="44.45643" lon="6.51719">
        <ele>2648</ele>
        <time>2021-02-21T09:17:36Z</time>
      </trkpt>
      <trkpt lat="44.45643" lon="6.51719">
        <ele>2648</ele>
        <time>2021-02-21T09:17:37Z</time>
      </trkpt>
      <trkpt lat="44.45643" lon="6.51719">
        <ele>2648</ele>
        <time>2021-02-21T09:17:38Z</time>
      </trkpt>
      <trkpt lat="44.45643" lon="6.51719">
        <ele>2648</ele>
        <time>2021-02-21T09:17:39Z</time>
      </trkpt>
      <trkpt lat="44.45643" lon="6.51719">
        <ele>2648</ele>
        <time>2021-02-21T09:17:40Z</time>
      </trkpt>
      <trkpt lat="44.45643" lon="6.51719">
        <ele>2648</ele>
        <time>2021-02-21T09:17:41Z</time>
      </trkpt>
      <trkpt lat="44.45643" lon="6.51719">
        <ele>2648</ele>
        <time>2021-02-21T09:17:42Z</time>
      </trkpt>
      <trkpt lat="44.45643" lon="6.51719">
        <ele>2648</ele>
        <time>2021-02-21T09:17:43Z</time>
      </trkpt>
      <trkpt lat="44.45643" lon="6.51719">
        <ele>2648</ele>
        <time>2021-02-21T09:17:44Z</time>
      </trkpt>
      <trkpt lat="44.45643" lon="6.51719">
        <ele>2648</ele>
        <time>2021-02-21T09:17:45Z</time>
      </trkpt>
      <trkpt lat="44.45643" lon="6.51719">
        <ele>2648</ele>
        <time>2021-02-21T09:17:46Z</time>
      </trkpt>
      <trkpt lat="44.45643" lon="6.51719">
        <ele>2648</ele>
        <time>2021-02-21T09:17:47Z</time>
      </trkpt>
      <trkpt lat="44.45643" lon="6.51719">
        <ele>2648</ele>
        <time>2021-02-21T09:17:48Z</time>
      </trkpt>
      <trkpt lat="44.45643" lon="6.51719">
        <ele>2648</ele>
        <time>2021-02-21T09:17:49Z</time>
      </trkpt>
      <trkpt lat="44.45643" lon="6.51719">
        <ele>2648</ele>
        <time>2021-02-21T09:17:50Z</time>
      </trkpt>
      <trkpt lat="44.45643" lon="6.51719">
        <ele>2648</ele>
        <time>2021-02-21T09:17:51Z</time>
      </trkpt>
      <trkpt lat="44.45642" lon="6.51719">
        <ele>2648</ele>
        <time>2021-02-21T09:17:52Z</time>
      </trkpt>
      <trkpt lat="44.45642" lon="6.51719">
        <ele>2648</ele>
        <time>2021-02-21T09:17:53Z</time>
      </trkpt>
      <trkpt lat="44.45642" lon="6.51719">
        <ele>2648</ele>
        <time>2021-02-21T09:17:54Z</time>
      </trkpt>
      <trkpt lat="44.45642" lon="6.51719">
        <ele>2648</ele>
        <time>2021-02-21T09:17:55Z</time>
      </trkpt>
      <trkpt lat="44.45643" lon="6.51719">
        <ele>2648</ele>
        <time>2021-02-21T09:17:56Z</time>
      </trkpt>
      <trkpt lat="44.45643" lon="6.51719">
        <ele>2648</ele>
        <time>2021-02-21T09:17:57Z</time>
      </trkpt>
      <trkpt lat="44.45643" lon="6.5172">
        <ele>2648</ele>
        <time>2021-02-21T09:17:58Z</time>
      </trkpt>
      <trkpt lat="44.45643" lon="6.5172">
        <ele>2648</ele>
        <time>2021-02-21T09:17:59Z</time>
      </trkpt>
      <trkpt lat="44.45644" lon="6.5172">
        <ele>2648</ele>
        <time>2021-02-21T09:18:00Z</time>
      </trkpt>
      <trkpt lat="44.45644" lon="6.5172">
        <ele>2648</ele>
        <time>2021-02-21T09:18:01Z</time>
      </trkpt>
      <trkpt lat="44.45644" lon="6.5172">
        <ele>2648</ele>
        <time>2021-02-21T09:18:02Z</time>
      </trkpt>
      <trkpt lat="44.45645" lon="6.5172">
        <ele>2648</ele>
        <time>2021-02-21T09:18:03Z</time>
      </trkpt>
      <trkpt lat="44.45645" lon="6.5172">
        <ele>2648</ele>
        <time>2021-02-21T09:18:04Z</time>
      </trkpt>
      <trkpt lat="44.45645" lon="6.5172">
        <ele>2648</ele>
        <time>2021-02-21T09:18:05Z</time>
      </trkpt>
      <trkpt lat="44.45645" lon="6.5172">
        <ele>2648</ele>
        <time>2021-02-21T09:18:06Z</time>
      </trkpt>
      <trkpt lat="44.45645" lon="6.5172">
        <ele>2648</ele>
        <time>2021-02-21T09:18:07Z</time>
      </trkpt>
      <trkpt lat="44.45645" lon="6.5172">
        <ele>2648</ele>
        <time>2021-02-21T09:18:08Z</time>
      </trkpt>
      <trkpt lat="44.45645" lon="6.5172">
        <ele>2648</ele>
        <time>2021-02-21T09:18:09Z</time>
      </trkpt>
      <trkpt lat="44.45645" lon="6.5172">
        <ele>2648</ele>
        <time>2021-02-21T09:18:10Z</time>
      </trkpt>
      <trkpt lat="44.45645" lon="6.5172">
        <ele>2648</ele>
        <time>2021-02-21T09:18:11Z</time>
      </trkpt>
      <trkpt lat="44.45645" lon="6.5172">
        <ele>2648</ele>
        <time>2021-02-21T09:18:12Z</time>
      </trkpt>
      <trkpt lat="44.45645" lon="6.5172">
        <ele>2648</ele>
        <time>2021-02-21T09:18:13Z</time>
      </trkpt>
      <trkpt lat="44.45645" lon="6.5172">
        <ele>2648</ele>
        <time>2021-02-21T09:18:14Z</time>
      </trkpt>
      <trkpt lat="44.45642" lon="6.51717">
        <ele>2649</ele>
        <time>2021-02-21T09:18:15Z</time>
      </trkpt>
      <trkpt lat="44.45642" lon="6.51717">
        <ele>2649</ele>
        <time>2021-02-21T09:18:16Z</time>
      </trkpt>
      <trkpt lat="44.45641" lon="6.51717">
        <ele>2649</ele>
        <time>2021-02-21T09:18:17Z</time>
      </trkpt>
      <trkpt lat="44.45641" lon="6.51717">
        <ele>2649</ele>
        <time>2021-02-21T09:18:18Z</time>
      </trkpt>
      <trkpt lat="44.45641" lon="6.51717">
        <ele>2649</ele>
        <time>2021-02-21T09:18:19Z</time>
      </trkpt>
      <trkpt lat="44.45641" lon="6.51717">
        <ele>2649</ele>
        <time>2021-02-21T09:18:20Z</time>
      </trkpt>
      <trkpt lat="44.45641" lon="6.51717">
        <ele>2649</ele>
        <time>2021-02-21T09:18:21Z</time>
      </trkpt>
      <trkpt lat="44.45641" lon="6.51717">
        <ele>2649</ele>
        <time>2021-02-21T09:18:22Z</time>
      </trkpt>
      <trkpt lat="44.45641" lon="6.51717">
        <ele>2650</ele>
        <time>2021-02-21T09:18:23Z</time>
      </trkpt>
      <trkpt lat="44.45641" lon="6.51717">
        <ele>2650</ele>
        <time>2021-02-21T09:18:24Z</time>
      </trkpt>
      <trkpt lat="44.45641" lon="6.51717">
        <ele>2650</ele>
        <time>2021-02-21T09:18:25Z</time>
      </trkpt>
      <trkpt lat="44.45641" lon="6.51717">
        <ele>2650</ele>
        <time>2021-02-21T09:18:26Z</time>
      </trkpt>
      <trkpt lat="44.45641" lon="6.51717">
        <ele>2650</ele>
        <time>2021-02-21T09:18:27Z</time>
      </trkpt>
      <trkpt lat="44.45641" lon="6.51717">
        <ele>2650</ele>
        <time>2021-02-21T09:18:28Z</time>
      </trkpt>
      <trkpt lat="44.45641" lon="6.51717">
        <ele>2650</ele>
        <time>2021-02-21T09:18:29Z</time>
      </trkpt>
      <trkpt lat="44.45641" lon="6.51717">
        <ele>2650</ele>
        <time>2021-02-21T09:18:30Z</time>
      </trkpt>
      <trkpt lat="44.45641" lon="6.51717">
        <ele>2650</ele>
        <time>2021-02-21T09:18:31Z</time>
      </trkpt>
      <trkpt lat="44.45641" lon="6.51717">
        <ele>2650</ele>
        <time>2021-02-21T09:18:32Z</time>
      </trkpt>
      <trkpt lat="44.45641" lon="6.51717">
        <ele>2650</ele>
        <time>2021-02-21T09:18:33Z</time>
      </trkpt>
      <trkpt lat="44.45641" lon="6.51717">
        <ele>2650</ele>
        <time>2021-02-21T09:18:34Z</time>
      </trkpt>
      <trkpt lat="44.45641" lon="6.51717">
        <ele>2650</ele>
        <time>2021-02-21T09:18:35Z</time>
      </trkpt>
      <trkpt lat="44.45641" lon="6.51717">
        <ele>2650</ele>
        <time>2021-02-21T09:18:36Z</time>
      </trkpt>
      <trkpt lat="44.45641" lon="6.51717">
        <ele>2650</ele>
        <time>2021-02-21T09:18:37Z</time>
      </trkpt>
      <trkpt lat="44.45641" lon="6.51717">
        <ele>2650</ele>
        <time>2021-02-21T09:18:38Z</time>
      </trkpt>
      <trkpt lat="44.45641" lon="6.51717">
        <ele>2650</ele>
        <time>2021-02-21T09:18:39Z</time>
      </trkpt>
      <trkpt lat="44.45641" lon="6.51717">
        <ele>2650</ele>
        <time>2021-02-21T09:18:40Z</time>
      </trkpt>
      <trkpt lat="44.45641" lon="6.51717">
        <ele>2650</ele>
        <time>2021-02-21T09:18:41Z</time>
      </trkpt>
      <trkpt lat="44.45641" lon="6.51717">
        <ele>2650</ele>
        <time>2021-02-21T09:18:42Z</time>
      </trkpt>
      <trkpt lat="44.45641" lon="6.51717">
        <ele>2650</ele>
        <time>2021-02-21T09:18:43Z</time>
      </trkpt>
      <trkpt lat="44.45641" lon="6.51717">
        <ele>2650</ele>
        <time>2021-02-21T09:18:44Z</time>
      </trkpt>
      <trkpt lat="44.45641" lon="6.51717">
        <ele>2650</ele>
        <time>2021-02-21T09:18:45Z</time>
      </trkpt>
      <trkpt lat="44.45641" lon="6.51717">
        <ele>2650</ele>
        <time>2021-02-21T09:18:46Z</time>
      </trkpt>
      <trkpt lat="44.45641" lon="6.51717">
        <ele>2650</ele>
        <time>2021-02-21T09:18:47Z</time>
      </trkpt>
      <trkpt lat="44.45641" lon="6.51717">
        <ele>2650</ele>
        <time>2021-02-21T09:18:48Z</time>
      </trkpt>
      <trkpt lat="44.45641" lon="6.51717">
        <ele>2650</ele>
        <time>2021-02-21T09:18:49Z</time>
      </trkpt>
      <trkpt lat="44.45641" lon="6.51717">
        <ele>2650</ele>
        <time>2021-02-21T09:18:50Z</time>
      </trkpt>
      <trkpt lat="44.45641" lon="6.51717">
        <ele>2650</ele>
        <time>2021-02-21T09:18:51Z</time>
      </trkpt>
      <trkpt lat="44.45641" lon="6.51717">
        <ele>2650</ele>
        <time>2021-02-21T09:18:52Z</time>
      </trkpt>
      <trkpt lat="44.45641" lon="6.51717">
        <ele>2650</ele>
        <time>2021-02-21T09:18:53Z</time>
      </trkpt>
      <trkpt lat="44.45641" lon="6.51717">
        <ele>2650</ele>
        <time>2021-02-21T09:18:54Z</time>
      </trkpt>
      <trkpt lat="44.45641" lon="6.51717">
        <ele>2650</ele>
        <time>2021-02-21T09:18:55Z</time>
      </trkpt>
      <trkpt lat="44.45641" lon="6.51717">
        <ele>2650</ele>
        <time>2021-02-21T09:18:56Z</time>
      </trkpt>
      <trkpt lat="44.45641" lon="6.51717">
        <ele>2650</ele>
        <time>2021-02-21T09:18:57Z</time>
      </trkpt>
      <trkpt lat="44.45641" lon="6.51717">
        <ele>2650</ele>
        <time>2021-02-21T09:18:58Z</time>
      </trkpt>
      <trkpt lat="44.45641" lon="6.51717">
        <ele>2650</ele>
        <time>2021-02-21T09:18:59Z</time>
      </trkpt>
      <trkpt lat="44.45641" lon="6.51717">
        <ele>2650</ele>
        <time>2021-02-21T09:19:00Z</time>
      </trkpt>
      <trkpt lat="44.45641" lon="6.51717">
        <ele>2650</ele>
        <time>2021-02-21T09:19:01Z</time>
      </trkpt>
      <trkpt lat="44.45641" lon="6.51717">
        <ele>2650</ele>
        <time>2021-02-21T09:19:02Z</time>
      </trkpt>
      <trkpt lat="44.45641" lon="6.51717">
        <ele>2650</ele>
        <time>2021-02-21T09:19:03Z</time>
      </trkpt>
      <trkpt lat="44.45641" lon="6.51717">
        <ele>2650</ele>
        <time>2021-02-21T09:19:04Z</time>
      </trkpt>
      <trkpt lat="44.45641" lon="6.51717">
        <ele>2650</ele>
        <time>2021-02-21T09:19:05Z</time>
      </trkpt>
      <trkpt lat="44.45641" lon="6.51717">
        <ele>2650</ele>
        <time>2021-02-21T09:19:06Z</time>
      </trkpt>
      <trkpt lat="44.45641" lon="6.51717">
        <ele>2650</ele>
        <time>2021-02-21T09:19:07Z</time>
      </trkpt>
      <trkpt lat="44.45645" lon="6.51718">
        <ele>2650</ele>
        <time>2021-02-21T09:19:08Z</time>
      </trkpt>
      <trkpt lat="44.45645" lon="6.51718">
        <ele>2650</ele>
        <time>2021-02-21T09:19:09Z</time>
      </trkpt>
      <trkpt lat="44.45646" lon="6.51718">
        <ele>2650</ele>
        <time>2021-02-21T09:19:10Z</time>
      </trkpt>
      <trkpt lat="44.45646" lon="6.51718">
        <ele>2650</ele>
        <time>2021-02-21T09:19:11Z</time>
      </trkpt>
      <trkpt lat="44.45646" lon="6.51718">
        <ele>2650</ele>
        <time>2021-02-21T09:19:12Z</time>
      </trkpt>
      <trkpt lat="44.45646" lon="6.5172">
        <ele>2649</ele>
        <time>2021-02-21T09:19:13Z</time>
      </trkpt>
      <trkpt lat="44.45646" lon="6.5172">
        <ele>2648</ele>
        <time>2021-02-21T09:19:14Z</time>
      </trkpt>
      <trkpt lat="44.45646" lon="6.5172">
        <ele>2648</ele>
        <time>2021-02-21T09:19:15Z</time>
      </trkpt>
      <trkpt lat="44.45647" lon="6.5172">
        <ele>2648</ele>
        <time>2021-02-21T09:19:16Z</time>
      </trkpt>
      <trkpt lat="44.45647" lon="6.51721">
        <ele>2648</ele>
        <time>2021-02-21T09:19:17Z</time>
      </trkpt>
      <trkpt lat="44.45647" lon="6.51721">
        <ele>2648</ele>
        <time>2021-02-21T09:19:18Z</time>
      </trkpt>
      <trkpt lat="44.45648" lon="6.51721">
        <ele>2648</ele>
        <time>2021-02-21T09:19:19Z</time>
      </trkpt>
      <trkpt lat="44.45648" lon="6.51721">
        <ele>2648</ele>
        <time>2021-02-21T09:19:20Z</time>
      </trkpt>
      <trkpt lat="44.45648" lon="6.51721">
        <ele>2648</ele>
        <time>2021-02-21T09:19:21Z</time>
      </trkpt>
      <trkpt lat="44.45648" lon="6.51721">
        <ele>2648</ele>
        <time>2021-02-21T09:19:22Z</time>
      </trkpt>
      <trkpt lat="44.45647" lon="6.5172">
        <ele>2648</ele>
        <time>2021-02-21T09:19:23Z</time>
      </trkpt>
      <trkpt lat="44.45647" lon="6.5172">
        <ele>2648</ele>
        <time>2021-02-21T09:19:24Z</time>
      </trkpt>
      <trkpt lat="44.45646" lon="6.5172">
        <ele>2648</ele>
        <time>2021-02-21T09:19:25Z</time>
      </trkpt>
      <trkpt lat="44.45646" lon="6.5172">
        <ele>2648</ele>
        <time>2021-02-21T09:19:26Z</time>
      </trkpt>
      <trkpt lat="44.45646" lon="6.5172">
        <ele>2648</ele>
        <time>2021-02-21T09:19:27Z</time>
      </trkpt>
      <trkpt lat="44.45646" lon="6.5172">
        <ele>2648</ele>
        <time>2021-02-21T09:19:28Z</time>
      </trkpt>
      <trkpt lat="44.45646" lon="6.5172">
        <ele>2648</ele>
        <time>2021-02-21T09:19:29Z</time>
      </trkpt>
      <trkpt lat="44.45646" lon="6.5172">
        <ele>2647</ele>
        <time>2021-02-21T09:19:30Z</time>
      </trkpt>
      <trkpt lat="44.45646" lon="6.5172">
        <ele>2647</ele>
        <time>2021-02-21T09:19:31Z</time>
      </trkpt>
      <trkpt lat="44.45646" lon="6.5172">
        <ele>2647</ele>
        <time>2021-02-21T09:19:32Z</time>
      </trkpt>
      <trkpt lat="44.45646" lon="6.5172">
        <ele>2647</ele>
        <time>2021-02-21T09:19:33Z</time>
      </trkpt>
      <trkpt lat="44.45646" lon="6.5172">
        <ele>2647</ele>
        <time>2021-02-21T09:19:34Z</time>
      </trkpt>
      <trkpt lat="44.45646" lon="6.5172">
        <ele>2647</ele>
        <time>2021-02-21T09:19:35Z</time>
      </trkpt>
      <trkpt lat="44.45646" lon="6.5172">
        <ele>2647</ele>
        <time>2021-02-21T09:19:36Z</time>
      </trkpt>
      <trkpt lat="44.45646" lon="6.5172">
        <ele>2647</ele>
        <time>2021-02-21T09:19:37Z</time>
      </trkpt>
      <trkpt lat="44.45646" lon="6.5172">
        <ele>2647</ele>
        <time>2021-02-21T09:19:38Z</time>
      </trkpt>
      <trkpt lat="44.45646" lon="6.5172">
        <ele>2647</ele>
        <time>2021-02-21T09:19:39Z</time>
      </trkpt>
      <trkpt lat="44.45646" lon="6.5172">
        <ele>2647</ele>
        <time>2021-02-21T09:19:40Z</time>
      </trkpt>
      <trkpt lat="44.45646" lon="6.5172">
        <ele>2647</ele>
        <time>2021-02-21T09:19:41Z</time>
      </trkpt>
      <trkpt lat="44.45646" lon="6.5172">
        <ele>2647</ele>
        <time>2021-02-21T09:19:42Z</time>
      </trkpt>
      <trkpt lat="44.45646" lon="6.5172">
        <ele>2647</ele>
        <time>2021-02-21T09:19:43Z</time>
      </trkpt>
      <trkpt lat="44.45646" lon="6.5172">
        <ele>2647</ele>
        <time>2021-02-21T09:19:44Z</time>
      </trkpt>
      <trkpt lat="44.45646" lon="6.5172">
        <ele>2647</ele>
        <time>2021-02-21T09:19:45Z</time>
      </trkpt>
      <trkpt lat="44.45646" lon="6.5172">
        <ele>2647</ele>
        <time>2021-02-21T09:19:46Z</time>
      </trkpt>
      <trkpt lat="44.45646" lon="6.5172">
        <ele>2647</ele>
        <time>2021-02-21T09:19:47Z</time>
      </trkpt>
      <trkpt lat="44.45646" lon="6.5172">
        <ele>2647</ele>
        <time>2021-02-21T09:19:48Z</time>
      </trkpt>
      <trkpt lat="44.45646" lon="6.5172">
        <ele>2647</ele>
        <time>2021-02-21T09:19:49Z</time>
      </trkpt>
      <trkpt lat="44.45646" lon="6.5172">
        <ele>2647</ele>
        <time>2021-02-21T09:19:50Z</time>
      </trkpt>
      <trkpt lat="44.45646" lon="6.5172">
        <ele>2647</ele>
        <time>2021-02-21T09:19:51Z</time>
      </trkpt>
      <trkpt lat="44.45646" lon="6.5172">
        <ele>2647</ele>
        <time>2021-02-21T09:19:52Z</time>
      </trkpt>
      <trkpt lat="44.45646" lon="6.5172">
        <ele>2647</ele>
        <time>2021-02-21T09:19:53Z</time>
      </trkpt>
      <trkpt lat="44.45645" lon="6.5172">
        <ele>2647</ele>
        <time>2021-02-21T09:19:54Z</time>
      </trkpt>
      <trkpt lat="44.45645" lon="6.5172">
        <ele>2647</ele>
        <time>2021-02-21T09:19:55Z</time>
      </trkpt>
      <trkpt lat="44.45645" lon="6.5172">
        <ele>2647</ele>
        <time>2021-02-21T09:19:56Z</time>
      </trkpt>
      <trkpt lat="44.45644" lon="6.5172">
        <ele>2647</ele>
        <time>2021-02-21T09:19:57Z</time>
      </trkpt>
      <trkpt lat="44.45644" lon="6.5172">
        <ele>2647</ele>
        <time>2021-02-21T09:19:58Z</time>
      </trkpt>
      <trkpt lat="44.45644" lon="6.5172">
        <ele>2647</ele>
        <time>2021-02-21T09:19:59Z</time>
      </trkpt>
      <trkpt lat="44.45644" lon="6.5172">
        <ele>2647</ele>
        <time>2021-02-21T09:20:00Z</time>
      </trkpt>
      <trkpt lat="44.45644" lon="6.5172">
        <ele>2647</ele>
        <time>2021-02-21T09:20:01Z</time>
      </trkpt>
      <trkpt lat="44.45644" lon="6.5172">
        <ele>2647</ele>
        <time>2021-02-21T09:20:02Z</time>
      </trkpt>
      <trkpt lat="44.45644" lon="6.5172">
        <ele>2647</ele>
        <time>2021-02-21T09:20:03Z</time>
      </trkpt>
      <trkpt lat="44.45644" lon="6.5172">
        <ele>2647</ele>
        <time>2021-02-21T09:20:04Z</time>
      </trkpt>
      <trkpt lat="44.45644" lon="6.5172">
        <ele>2647</ele>
        <time>2021-02-21T09:20:05Z</time>
      </trkpt>
      <trkpt lat="44.45644" lon="6.5172">
        <ele>2647</ele>
        <time>2021-02-21T09:20:06Z</time>
      </trkpt>
      <trkpt lat="44.45644" lon="6.5172">
        <ele>2647</ele>
        <time>2021-02-21T09:20:07Z</time>
      </trkpt>
      <trkpt lat="44.45644" lon="6.5172">
        <ele>2647</ele>
        <time>2021-02-21T09:20:08Z</time>
      </trkpt>
      <trkpt lat="44.45644" lon="6.5172">
        <ele>2647</ele>
        <time>2021-02-21T09:20:09Z</time>
      </trkpt>
      <trkpt lat="44.45644" lon="6.5172">
        <ele>2647</ele>
        <time>2021-02-21T09:20:10Z</time>
      </trkpt>
      <trkpt lat="44.45644" lon="6.5172">
        <ele>2647</ele>
        <time>2021-02-21T09:20:11Z</time>
      </trkpt>
      <trkpt lat="44.45644" lon="6.5172">
        <ele>2647</ele>
        <time>2021-02-21T09:20:12Z</time>
      </trkpt>
      <trkpt lat="44.45644" lon="6.5172">
        <ele>2647</ele>
        <time>2021-02-21T09:20:13Z</time>
      </trkpt>
      <trkpt lat="44.45644" lon="6.5172">
        <ele>2647</ele>
        <time>2021-02-21T09:20:14Z</time>
      </trkpt>
      <trkpt lat="44.45644" lon="6.5172">
        <ele>2647</ele>
        <time>2021-02-21T09:20:15Z</time>
      </trkpt>
      <trkpt lat="44.45644" lon="6.5172">
        <ele>2647</ele>
        <time>2021-02-21T09:20:16Z</time>
      </trkpt>
      <trkpt lat="44.45644" lon="6.5172">
        <ele>2647</ele>
        <time>2021-02-21T09:20:17Z</time>
      </trkpt>
      <trkpt lat="44.45644" lon="6.5172">
        <ele>2647</ele>
        <time>2021-02-21T09:20:18Z</time>
      </trkpt>
      <trkpt lat="44.45644" lon="6.5172">
        <ele>2647</ele>
        <time>2021-02-21T09:20:19Z</time>
      </trkpt>
      <trkpt lat="44.45644" lon="6.5172">
        <ele>2647</ele>
        <time>2021-02-21T09:20:20Z</time>
      </trkpt>
      <trkpt lat="44.45644" lon="6.5172">
        <ele>2647</ele>
        <time>2021-02-21T09:20:21Z</time>
      </trkpt>
      <trkpt lat="44.45644" lon="6.5172">
        <ele>2647</ele>
        <time>2021-02-21T09:20:22Z</time>
      </trkpt>
      <trkpt lat="44.45644" lon="6.5172">
        <ele>2647</ele>
        <time>2021-02-21T09:20:23Z</time>
      </trkpt>
      <trkpt lat="44.45644" lon="6.5172">
        <ele>2647</ele>
        <time>2021-02-21T09:20:24Z</time>
      </trkpt>
      <trkpt lat="44.45644" lon="6.5172">
        <ele>2647</ele>
        <time>2021-02-21T09:20:25Z</time>
      </trkpt>
      <trkpt lat="44.45644" lon="6.5172">
        <ele>2647</ele>
        <time>2021-02-21T09:20:26Z</time>
      </trkpt>
      <trkpt lat="44.45644" lon="6.5172">
        <ele>2647</ele>
        <time>2021-02-21T09:20:27Z</time>
      </trkpt>
      <trkpt lat="44.45644" lon="6.5172">
        <ele>2647</ele>
        <time>2021-02-21T09:20:28Z</time>
      </trkpt>
      <trkpt lat="44.45644" lon="6.5172">
        <ele>2647</ele>
        <time>2021-02-21T09:20:29Z</time>
      </trkpt>
      <trkpt lat="44.45644" lon="6.5172">
        <ele>2647</ele>
        <time>2021-02-21T09:20:30Z</time>
      </trkpt>
      <trkpt lat="44.45644" lon="6.5172">
        <ele>2647</ele>
        <time>2021-02-21T09:20:31Z</time>
      </trkpt>
      <trkpt lat="44.45642" lon="6.51721">
        <ele>2647</ele>
        <time>2021-02-21T09:20:32Z</time>
      </trkpt>
      <trkpt lat="44.45642" lon="6.51721">
        <ele>2647</ele>
        <time>2021-02-21T09:20:33Z</time>
      </trkpt>
      <trkpt lat="44.45643" lon="6.51721">
        <ele>2647</ele>
        <time>2021-02-21T09:20:34Z</time>
      </trkpt>
      <trkpt lat="44.45643" lon="6.51721">
        <ele>2647</ele>
        <time>2021-02-21T09:20:35Z</time>
      </trkpt>
      <trkpt lat="44.45643" lon="6.5172">
        <ele>2647</ele>
        <time>2021-02-21T09:20:36Z</time>
      </trkpt>
      <trkpt lat="44.45643" lon="6.5172">
        <ele>2647</ele>
        <time>2021-02-21T09:20:37Z</time>
      </trkpt>
      <trkpt lat="44.45643" lon="6.5172">
        <ele>2647</ele>
        <time>2021-02-21T09:20:38Z</time>
      </trkpt>
      <trkpt lat="44.45643" lon="6.5172">
        <ele>2647</ele>
        <time>2021-02-21T09:20:39Z</time>
      </trkpt>
      <trkpt lat="44.45643" lon="6.5172">
        <ele>2647</ele>
        <time>2021-02-21T09:20:40Z</time>
      </trkpt>
      <trkpt lat="44.45644" lon="6.51719">
        <ele>2647</ele>
        <time>2021-02-21T09:20:41Z</time>
      </trkpt>
      <trkpt lat="44.45644" lon="6.51719">
        <ele>2647</ele>
        <time>2021-02-21T09:20:42Z</time>
      </trkpt>
      <trkpt lat="44.45645" lon="6.51718">
        <ele>2647</ele>
        <time>2021-02-21T09:20:43Z</time>
      </trkpt>
      <trkpt lat="44.45645" lon="6.51717">
        <ele>2647</ele>
        <time>2021-02-21T09:20:44Z</time>
      </trkpt>
      <trkpt lat="44.45645" lon="6.51716">
        <ele>2647</ele>
        <time>2021-02-21T09:20:45Z</time>
      </trkpt>
      <trkpt lat="44.45645" lon="6.51715">
        <ele>2647</ele>
        <time>2021-02-21T09:20:46Z</time>
      </trkpt>
      <trkpt lat="44.45645" lon="6.51714">
        <ele>2646</ele>
        <time>2021-02-21T09:20:47Z</time>
      </trkpt>
      <trkpt lat="44.45645" lon="6.51714">
        <ele>2646</ele>
        <time>2021-02-21T09:20:48Z</time>
      </trkpt>
      <trkpt lat="44.45645" lon="6.51715">
        <ele>2646</ele>
        <time>2021-02-21T09:20:49Z</time>
      </trkpt>
      <trkpt lat="44.45645" lon="6.51715">
        <ele>2646</ele>
        <time>2021-02-21T09:20:50Z</time>
      </trkpt>
      <trkpt lat="44.45645" lon="6.51715">
        <ele>2646</ele>
        <time>2021-02-21T09:20:51Z</time>
      </trkpt>
      <trkpt lat="44.45645" lon="6.51714">
        <ele>2646</ele>
        <time>2021-02-21T09:20:52Z</time>
      </trkpt>
      <trkpt lat="44.45644" lon="6.51715">
        <ele>2646</ele>
        <time>2021-02-21T09:20:53Z</time>
      </trkpt>
      <trkpt lat="44.45642" lon="6.51716">
        <ele>2646</ele>
        <time>2021-02-21T09:20:54Z</time>
      </trkpt>
      <trkpt lat="44.4564" lon="6.51718">
        <ele>2646</ele>
        <time>2021-02-21T09:20:55Z</time>
      </trkpt>
      <trkpt lat="44.45639" lon="6.5172">
        <ele>2646</ele>
        <time>2021-02-21T09:20:56Z</time>
      </trkpt>
      <trkpt lat="44.45638" lon="6.51721">
        <ele>2646</ele>
        <time>2021-02-21T09:20:57Z</time>
      </trkpt>
      <trkpt lat="44.45638" lon="6.51719">
        <ele>2646</ele>
        <time>2021-02-21T09:20:58Z</time>
      </trkpt>
      <trkpt lat="44.45639" lon="6.51719">
        <ele>2646</ele>
        <time>2021-02-21T09:20:59Z</time>
      </trkpt>
      <trkpt lat="44.4564" lon="6.51719">
        <ele>2646</ele>
        <time>2021-02-21T09:21:00Z</time>
      </trkpt>
      <trkpt lat="44.45642" lon="6.5172">
        <ele>2646</ele>
        <time>2021-02-21T09:21:01Z</time>
      </trkpt>
      <trkpt lat="44.45643" lon="6.5172">
        <ele>2646</ele>
        <time>2021-02-21T09:21:02Z</time>
      </trkpt>
      <trkpt lat="44.45643" lon="6.51719">
        <ele>2646</ele>
        <time>2021-02-21T09:21:03Z</time>
      </trkpt>
      <trkpt lat="44.45644" lon="6.5172">
        <ele>2645</ele>
        <time>2021-02-21T09:21:04Z</time>
      </trkpt>
      <trkpt lat="44.45645" lon="6.5172">
        <ele>2645</ele>
        <time>2021-02-21T09:21:05Z</time>
      </trkpt>
      <trkpt lat="44.45645" lon="6.51719">
        <ele>2644</ele>
        <time>2021-02-21T09:21:06Z</time>
      </trkpt>
      <trkpt lat="44.45646" lon="6.5172">
        <ele>2644</ele>
        <time>2021-02-21T09:21:07Z</time>
      </trkpt>
      <trkpt lat="44.45646" lon="6.5172">
        <ele>2644</ele>
        <time>2021-02-21T09:21:08Z</time>
      </trkpt>
      <trkpt lat="44.45647" lon="6.51721">
        <ele>2644</ele>
        <time>2021-02-21T09:21:09Z</time>
      </trkpt>
      <trkpt lat="44.45647" lon="6.5172">
        <ele>2644</ele>
        <time>2021-02-21T09:21:10Z</time>
      </trkpt>
      <trkpt lat="44.45648" lon="6.51716">
        <ele>2643</ele>
        <time>2021-02-21T09:21:11Z</time>
      </trkpt>
      <trkpt lat="44.45648" lon="6.51714">
        <ele>2641</ele>
        <time>2021-02-21T09:21:12Z</time>
      </trkpt>
      <trkpt lat="44.45648" lon="6.51714">
        <ele>2640</ele>
        <time>2021-02-21T09:21:13Z</time>
      </trkpt>
      <trkpt lat="44.45648" lon="6.51714">
        <ele>2639</ele>
        <time>2021-02-21T09:21:14Z</time>
      </trkpt>
      <trkpt lat="44.45648" lon="6.51714">
        <ele>2639</ele>
        <time>2021-02-21T09:21:15Z</time>
      </trkpt>
      <trkpt lat="44.45648" lon="6.51712">
        <ele>2639</ele>
        <time>2021-02-21T09:21:16Z</time>
      </trkpt>
      <trkpt lat="44.45649" lon="6.51713">
        <ele>2639</ele>
        <time>2021-02-21T09:21:17Z</time>
      </trkpt>
      <trkpt lat="44.4565" lon="6.51713">
        <ele>2638</ele>
        <time>2021-02-21T09:21:18Z</time>
      </trkpt>
      <trkpt lat="44.45653" lon="6.51711">
        <ele>2638</ele>
        <time>2021-02-21T09:21:19Z</time>
      </trkpt>
      <trkpt lat="44.45655" lon="6.51711">
        <ele>2637</ele>
        <time>2021-02-21T09:21:20Z</time>
      </trkpt>
      <trkpt lat="44.45657" lon="6.51712">
        <ele>2637</ele>
        <time>2021-02-21T09:21:21Z</time>
      </trkpt>
      <trkpt lat="44.45659" lon="6.51713">
        <ele>2637</ele>
        <time>2021-02-21T09:21:22Z</time>
      </trkpt>
      <trkpt lat="44.4566" lon="6.51714">
        <ele>2636</ele>
        <time>2021-02-21T09:21:23Z</time>
      </trkpt>
      <trkpt lat="44.45659" lon="6.51713">
        <ele>2636</ele>
        <time>2021-02-21T09:21:24Z</time>
      </trkpt>
      <trkpt lat="44.45657" lon="6.51709">
        <ele>2636</ele>
        <time>2021-02-21T09:21:25Z</time>
      </trkpt>
      <trkpt lat="44.45655" lon="6.51708">
        <ele>2636</ele>
        <time>2021-02-21T09:21:26Z</time>
      </trkpt>
      <trkpt lat="44.45654" lon="6.51708">
        <ele>2636</ele>
        <time>2021-02-21T09:21:27Z</time>
      </trkpt>
      <trkpt lat="44.45653" lon="6.5171">
        <ele>2636</ele>
        <time>2021-02-21T09:21:28Z</time>
      </trkpt>
      <trkpt lat="44.45653" lon="6.51711">
        <ele>2636</ele>
        <time>2021-02-21T09:21:29Z</time>
      </trkpt>
      <trkpt lat="44.45654" lon="6.51715">
        <ele>2636</ele>
        <time>2021-02-21T09:21:30Z</time>
      </trkpt>
      <trkpt lat="44.45655" lon="6.51715">
        <ele>2636</ele>
        <time>2021-02-21T09:21:31Z</time>
      </trkpt>
      <trkpt lat="44.45656" lon="6.51716">
        <ele>2635</ele>
        <time>2021-02-21T09:21:32Z</time>
      </trkpt>
      <trkpt lat="44.45656" lon="6.51716">
        <ele>2635</ele>
        <time>2021-02-21T09:21:33Z</time>
      </trkpt>
      <trkpt lat="44.45654" lon="6.51717">
        <ele>2635</ele>
        <time>2021-02-21T09:21:34Z</time>
      </trkpt>
      <trkpt lat="44.45651" lon="6.51715">
        <ele>2635</ele>
        <time>2021-02-21T09:21:35Z</time>
      </trkpt>
      <trkpt lat="44.4565" lon="6.51715">
        <ele>2635</ele>
        <time>2021-02-21T09:21:36Z</time>
      </trkpt>
      <trkpt lat="44.4565" lon="6.51714">
        <ele>2635</ele>
        <time>2021-02-21T09:21:37Z</time>
      </trkpt>
      <trkpt lat="44.45649" lon="6.51714">
        <ele>2635</ele>
        <time>2021-02-21T09:21:38Z</time>
      </trkpt>
      <trkpt lat="44.45649" lon="6.51714">
        <ele>2635</ele>
        <time>2021-02-21T09:21:39Z</time>
      </trkpt>
      <trkpt lat="44.45649" lon="6.51714">
        <ele>2634</ele>
        <time>2021-02-21T09:21:40Z</time>
      </trkpt>
      <trkpt lat="44.45649" lon="6.51713">
        <ele>2634</ele>
        <time>2021-02-21T09:21:41Z</time>
      </trkpt>
      <trkpt lat="44.45649" lon="6.51713">
        <ele>2634</ele>
        <time>2021-02-21T09:21:42Z</time>
      </trkpt>
      <trkpt lat="44.45649" lon="6.51714">
        <ele>2634</ele>
        <time>2021-02-21T09:21:43Z</time>
      </trkpt>
      <trkpt lat="44.45649" lon="6.51714">
        <ele>2634</ele>
        <time>2021-02-21T09:21:44Z</time>
      </trkpt>
      <trkpt lat="44.45649" lon="6.51714">
        <ele>2634</ele>
        <time>2021-02-21T09:21:45Z</time>
      </trkpt>
      <trkpt lat="44.45649" lon="6.51714">
        <ele>2634</ele>
        <time>2021-02-21T09:21:46Z</time>
      </trkpt>
      <trkpt lat="44.45649" lon="6.51714">
        <ele>2634</ele>
        <time>2021-02-21T09:21:47Z</time>
      </trkpt>
      <trkpt lat="44.45649" lon="6.51714">
        <ele>2634</ele>
        <time>2021-02-21T09:21:48Z</time>
      </trkpt>
      <trkpt lat="44.45649" lon="6.51714">
        <ele>2634</ele>
        <time>2021-02-21T09:21:49Z</time>
      </trkpt>
      <trkpt lat="44.45649" lon="6.51714">
        <ele>2634</ele>
        <time>2021-02-21T09:21:50Z</time>
      </trkpt>
      <trkpt lat="44.4565" lon="6.51713">
        <ele>2634</ele>
        <time>2021-02-21T09:21:51Z</time>
      </trkpt>
      <trkpt lat="44.45651" lon="6.51715">
        <ele>2634</ele>
        <time>2021-02-21T09:21:52Z</time>
      </trkpt>
      <trkpt lat="44.45649" lon="6.51717">
        <ele>2634</ele>
        <time>2021-02-21T09:21:53Z</time>
      </trkpt>
      <trkpt lat="44.45647" lon="6.5172">
        <ele>2634</ele>
        <time>2021-02-21T09:21:54Z</time>
      </trkpt>
      <trkpt lat="44.45647" lon="6.51723">
        <ele>2634</ele>
        <time>2021-02-21T09:21:55Z</time>
      </trkpt>
      <trkpt lat="44.45647" lon="6.51725">
        <ele>2634</ele>
        <time>2021-02-21T09:21:56Z</time>
      </trkpt>
      <trkpt lat="44.45648" lon="6.51727">
        <ele>2634</ele>
        <time>2021-02-21T09:21:57Z</time>
      </trkpt>
      <trkpt lat="44.45646" lon="6.51731">
        <ele>2634</ele>
        <time>2021-02-21T09:21:58Z</time>
      </trkpt>
      <trkpt lat="44.45643" lon="6.51734">
        <ele>2634</ele>
        <time>2021-02-21T09:21:59Z</time>
      </trkpt>
      <trkpt lat="44.45643" lon="6.51736">
        <ele>2634</ele>
        <time>2021-02-21T09:22:00Z</time>
      </trkpt>
      <trkpt lat="44.45643" lon="6.51737">
        <ele>2634</ele>
        <time>2021-02-21T09:22:01Z</time>
      </trkpt>
      <trkpt lat="44.45643" lon="6.51737">
        <ele>2634</ele>
        <time>2021-02-21T09:22:02Z</time>
      </trkpt>
      <trkpt lat="44.45643" lon="6.51738">
        <ele>2635</ele>
        <time>2021-02-21T09:22:03Z</time>
      </trkpt>
      <trkpt lat="44.45643" lon="6.51739">
        <ele>2635</ele>
        <time>2021-02-21T09:22:04Z</time>
      </trkpt>
      <trkpt lat="44.45643" lon="6.51739">
        <ele>2635</ele>
        <time>2021-02-21T09:22:05Z</time>
      </trkpt>
      <trkpt lat="44.45643" lon="6.5174">
        <ele>2635</ele>
        <time>2021-02-21T09:22:06Z</time>
      </trkpt>
      <trkpt lat="44.45644" lon="6.5174">
        <ele>2635</ele>
        <time>2021-02-21T09:22:07Z</time>
      </trkpt>
      <trkpt lat="44.45643" lon="6.5174">
        <ele>2635</ele>
        <time>2021-02-21T09:22:08Z</time>
      </trkpt>
      <trkpt lat="44.45643" lon="6.5174">
        <ele>2635</ele>
        <time>2021-02-21T09:22:09Z</time>
      </trkpt>
      <trkpt lat="44.45644" lon="6.51741">
        <ele>2634</ele>
        <time>2021-02-21T09:22:10Z</time>
      </trkpt>
      <trkpt lat="44.45644" lon="6.51741">
        <ele>2634</ele>
        <time>2021-02-21T09:22:11Z</time>
      </trkpt>
      <trkpt lat="44.45644" lon="6.51741">
        <ele>2634</ele>
        <time>2021-02-21T09:22:12Z</time>
      </trkpt>
      <trkpt lat="44.45644" lon="6.51741">
        <ele>2634</ele>
        <time>2021-02-21T09:22:13Z</time>
      </trkpt>
      <trkpt lat="44.45644" lon="6.51741">
        <ele>2634</ele>
        <time>2021-02-21T09:22:14Z</time>
      </trkpt>
      <trkpt lat="44.45644" lon="6.51741">
        <ele>2634</ele>
        <time>2021-02-21T09:22:15Z</time>
      </trkpt>
      <trkpt lat="44.45644" lon="6.51741">
        <ele>2634</ele>
        <time>2021-02-21T09:22:16Z</time>
      </trkpt>
      <trkpt lat="44.45644" lon="6.51741">
        <ele>2634</ele>
        <time>2021-02-21T09:22:17Z</time>
      </trkpt>
      <trkpt lat="44.45644" lon="6.51741">
        <ele>2634</ele>
        <time>2021-02-21T09:22:18Z</time>
      </trkpt>
      <trkpt lat="44.45644" lon="6.51741">
        <ele>2634</ele>
        <time>2021-02-21T09:22:19Z</time>
      </trkpt>
      <trkpt lat="44.45644" lon="6.51741">
        <ele>2634</ele>
        <time>2021-02-21T09:22:20Z</time>
      </trkpt>
      <trkpt lat="44.45644" lon="6.51741">
        <ele>2634</ele>
        <time>2021-02-21T09:22:21Z</time>
      </trkpt>
      <trkpt lat="44.45644" lon="6.51741">
        <ele>2634</ele>
        <time>2021-02-21T09:22:22Z</time>
      </trkpt>
      <trkpt lat="44.45644" lon="6.51741">
        <ele>2634</ele>
        <time>2021-02-21T09:22:23Z</time>
      </trkpt>
      <trkpt lat="44.45644" lon="6.51741">
        <ele>2634</ele>
        <time>2021-02-21T09:22:24Z</time>
      </trkpt>
      <trkpt lat="44.45644" lon="6.51741">
        <ele>2634</ele>
        <time>2021-02-21T09:22:25Z</time>
      </trkpt>
      <trkpt lat="44.45644" lon="6.51741">
        <ele>2634</ele>
        <time>2021-02-21T09:22:26Z</time>
      </trkpt>
      <trkpt lat="44.45644" lon="6.51741">
        <ele>2634</ele>
        <time>2021-02-21T09:22:27Z</time>
      </trkpt>
      <trkpt lat="44.45644" lon="6.51741">
        <ele>2634</ele>
        <time>2021-02-21T09:22:28Z</time>
      </trkpt>
      <trkpt lat="44.45644" lon="6.51741">
        <ele>2634</ele>
        <time>2021-02-21T09:22:29Z</time>
      </trkpt>
      <trkpt lat="44.45646" lon="6.51746">
        <ele>2634</ele>
        <time>2021-02-21T09:22:30Z</time>
      </trkpt>
      <trkpt lat="44.45646" lon="6.51746">
        <ele>2634</ele>
        <time>2021-02-21T09:22:31Z</time>
      </trkpt>
      <trkpt lat="44.45646" lon="6.51745">
        <ele>2634</ele>
        <time>2021-02-21T09:22:32Z</time>
      </trkpt>
      <trkpt lat="44.45646" lon="6.51746">
        <ele>2634</ele>
        <time>2021-02-21T09:22:33Z</time>
      </trkpt>
      <trkpt lat="44.45646" lon="6.51746">
        <ele>2633</ele>
        <time>2021-02-21T09:22:34Z</time>
      </trkpt>
      <trkpt lat="44.45646" lon="6.51746">
        <ele>2633</ele>
        <time>2021-02-21T09:22:35Z</time>
      </trkpt>
      <trkpt lat="44.45646" lon="6.51746">
        <ele>2633</ele>
        <time>2021-02-21T09:22:36Z</time>
      </trkpt>
      <trkpt lat="44.45646" lon="6.51746">
        <ele>2633</ele>
        <time>2021-02-21T09:22:37Z</time>
      </trkpt>
      <trkpt lat="44.45646" lon="6.51746">
        <ele>2633</ele>
        <time>2021-02-21T09:22:38Z</time>
      </trkpt>
      <trkpt lat="44.45646" lon="6.51746">
        <ele>2633</ele>
        <time>2021-02-21T09:22:39Z</time>
      </trkpt>
      <trkpt lat="44.45646" lon="6.51746">
        <ele>2633</ele>
        <time>2021-02-21T09:22:40Z</time>
      </trkpt>
      <trkpt lat="44.45646" lon="6.51746">
        <ele>2633</ele>
        <time>2021-02-21T09:22:41Z</time>
      </trkpt>
      <trkpt lat="44.45646" lon="6.51746">
        <ele>2633</ele>
        <time>2021-02-21T09:22:42Z</time>
      </trkpt>
      <trkpt lat="44.45646" lon="6.51746">
        <ele>2633</ele>
        <time>2021-02-21T09:22:43Z</time>
      </trkpt>
      <trkpt lat="44.45646" lon="6.51746">
        <ele>2633</ele>
        <time>2021-02-21T09:22:44Z</time>
      </trkpt>
      <trkpt lat="44.45646" lon="6.51746">
        <ele>2633</ele>
        <time>2021-02-21T09:22:45Z</time>
      </trkpt>
      <trkpt lat="44.45646" lon="6.51746">
        <ele>2633</ele>
        <time>2021-02-21T09:22:46Z</time>
      </trkpt>
      <trkpt lat="44.45646" lon="6.51746">
        <ele>2633</ele>
        <time>2021-02-21T09:22:47Z</time>
      </trkpt>
      <trkpt lat="44.45646" lon="6.51746">
        <ele>2633</ele>
        <time>2021-02-21T09:22:48Z</time>
      </trkpt>
      <trkpt lat="44.45646" lon="6.51746">
        <ele>2633</ele>
        <time>2021-02-21T09:22:49Z</time>
      </trkpt>
      <trkpt lat="44.45646" lon="6.51746">
        <ele>2633</ele>
        <time>2021-02-21T09:22:50Z</time>
      </trkpt>
      <trkpt lat="44.45646" lon="6.51746">
        <ele>2633</ele>
        <time>2021-02-21T09:22:51Z</time>
      </trkpt>
      <trkpt lat="44.45646" lon="6.51746">
        <ele>2633</ele>
        <time>2021-02-21T09:22:52Z</time>
      </trkpt>
      <trkpt lat="44.45646" lon="6.51746">
        <ele>2633</ele>
        <time>2021-02-21T09:22:53Z</time>
      </trkpt>
      <trkpt lat="44.45646" lon="6.51746">
        <ele>2633</ele>
        <time>2021-02-21T09:22:54Z</time>
      </trkpt>
      <trkpt lat="44.45646" lon="6.51746">
        <ele>2633</ele>
        <time>2021-02-21T09:22:55Z</time>
      </trkpt>
      <trkpt lat="44.45646" lon="6.51746">
        <ele>2633</ele>
        <time>2021-02-21T09:22:56Z</time>
      </trkpt>
      <trkpt lat="44.45646" lon="6.51746">
        <ele>2633</ele>
        <time>2021-02-21T09:22:57Z</time>
      </trkpt>
      <trkpt lat="44.45646" lon="6.51746">
        <ele>2633</ele>
        <time>2021-02-21T09:22:58Z</time>
      </trkpt>
      <trkpt lat="44.45646" lon="6.51746">
        <ele>2633</ele>
        <time>2021-02-21T09:22:59Z</time>
      </trkpt>
      <trkpt lat="44.45646" lon="6.51746">
        <ele>2633</ele>
        <time>2021-02-21T09:23:00Z</time>
      </trkpt>
      <trkpt lat="44.45646" lon="6.51746">
        <ele>2633</ele>
        <time>2021-02-21T09:23:01Z</time>
      </trkpt>
      <trkpt lat="44.45646" lon="6.51746">
        <ele>2633</ele>
        <time>2021-02-21T09:23:02Z</time>
      </trkpt>
      <trkpt lat="44.45646" lon="6.51746">
        <ele>2633</ele>
        <time>2021-02-21T09:23:03Z</time>
      </trkpt>
      <trkpt lat="44.45644" lon="6.51744">
        <ele>2633</ele>
        <time>2021-02-21T09:23:04Z</time>
      </trkpt>
      <trkpt lat="44.45644" lon="6.51744">
        <ele>2633</ele>
        <time>2021-02-21T09:23:05Z</time>
      </trkpt>
      <trkpt lat="44.45644" lon="6.51744">
        <ele>2633</ele>
        <time>2021-02-21T09:23:06Z</time>
      </trkpt>
      <trkpt lat="44.45644" lon="6.51744">
        <ele>2633</ele>
        <time>2021-02-21T09:23:07Z</time>
      </trkpt>
      <trkpt lat="44.45644" lon="6.51744">
        <ele>2633</ele>
        <time>2021-02-21T09:23:08Z</time>
      </trkpt>
      <trkpt lat="44.45644" lon="6.51744">
        <ele>2633</ele>
        <time>2021-02-21T09:23:09Z</time>
      </trkpt>
      <trkpt lat="44.45644" lon="6.51744">
        <ele>2632</ele>
        <time>2021-02-21T09:23:10Z</time>
      </trkpt>
      <trkpt lat="44.45644" lon="6.51744">
        <ele>2632</ele>
        <time>2021-02-21T09:23:11Z</time>
      </trkpt>
      <trkpt lat="44.45644" lon="6.51744">
        <ele>2632</ele>
        <time>2021-02-21T09:23:12Z</time>
      </trkpt>
      <trkpt lat="44.45644" lon="6.51744">
        <ele>2632</ele>
        <time>2021-02-21T09:23:13Z</time>
      </trkpt>
      <trkpt lat="44.45644" lon="6.51744">
        <ele>2632</ele>
        <time>2021-02-21T09:23:14Z</time>
      </trkpt>
      <trkpt lat="44.45644" lon="6.51742">
        <ele>2632</ele>
        <time>2021-02-21T09:23:15Z</time>
      </trkpt>
      <trkpt lat="44.45644" lon="6.51743">
        <ele>2632</ele>
        <time>2021-02-21T09:23:16Z</time>
      </trkpt>
      <trkpt lat="44.45643" lon="6.51744">
        <ele>2632</ele>
        <time>2021-02-21T09:23:17Z</time>
      </trkpt>
      <trkpt lat="44.45643" lon="6.51744">
        <ele>2632</ele>
        <time>2021-02-21T09:23:18Z</time>
      </trkpt>
      <trkpt lat="44.45643" lon="6.51744">
        <ele>2632</ele>
        <time>2021-02-21T09:23:19Z</time>
      </trkpt>
      <trkpt lat="44.45644" lon="6.51744">
        <ele>2632</ele>
        <time>2021-02-21T09:23:20Z</time>
      </trkpt>
      <trkpt lat="44.45644" lon="6.51746">
        <ele>2632</ele>
        <time>2021-02-21T09:23:21Z</time>
      </trkpt>
      <trkpt lat="44.45642" lon="6.51749">
        <ele>2632</ele>
        <time>2021-02-21T09:23:22Z</time>
      </trkpt>
      <trkpt lat="44.45641" lon="6.51752">
        <ele>2631</ele>
        <time>2021-02-21T09:23:23Z</time>
      </trkpt>
      <trkpt lat="44.45641" lon="6.51754">
        <ele>2631</ele>
        <time>2021-02-21T09:23:24Z</time>
      </trkpt>
      <trkpt lat="44.4564" lon="6.51757">
        <ele>2631</ele>
        <time>2021-02-21T09:23:25Z</time>
      </trkpt>
      <trkpt lat="44.45641" lon="6.51759">
        <ele>2631</ele>
        <time>2021-02-21T09:23:26Z</time>
      </trkpt>
      <trkpt lat="44.45642" lon="6.5176">
        <ele>2631</ele>
        <time>2021-02-21T09:23:27Z</time>
      </trkpt>
      <trkpt lat="44.45642" lon="6.5176">
        <ele>2631</ele>
        <time>2021-02-21T09:23:28Z</time>
      </trkpt>
      <trkpt lat="44.45642" lon="6.5176">
        <ele>2631</ele>
        <time>2021-02-21T09:23:29Z</time>
      </trkpt>
      <trkpt lat="44.45642" lon="6.5176">
        <ele>2631</ele>
        <time>2021-02-21T09:23:30Z</time>
      </trkpt>
      <trkpt lat="44.45643" lon="6.51761">
        <ele>2631</ele>
        <time>2021-02-21T09:23:31Z</time>
      </trkpt>
      <trkpt lat="44.45643" lon="6.51761">
        <ele>2631</ele>
        <time>2021-02-21T09:23:32Z</time>
      </trkpt>
      <trkpt lat="44.45645" lon="6.5176">
        <ele>2631</ele>
        <time>2021-02-21T09:23:33Z</time>
      </trkpt>
      <trkpt lat="44.45646" lon="6.51759">
        <ele>2629</ele>
        <time>2021-02-21T09:23:34Z</time>
      </trkpt>
      <trkpt lat="44.45648" lon="6.51759">
        <ele>2628</ele>
        <time>2021-02-21T09:23:35Z</time>
      </trkpt>
      <trkpt lat="44.45649" lon="6.51758">
        <ele>2627</ele>
        <time>2021-02-21T09:23:36Z</time>
      </trkpt>
      <trkpt lat="44.45651" lon="6.51757">
        <ele>2625</ele>
        <time>2021-02-21T09:23:37Z</time>
      </trkpt>
      <trkpt lat="44.45652" lon="6.51756">
        <ele>2624</ele>
        <time>2021-02-21T09:23:38Z</time>
      </trkpt>
      <trkpt lat="44.45653" lon="6.51756">
        <ele>2623</ele>
        <time>2021-02-21T09:23:39Z</time>
      </trkpt>
      <trkpt lat="44.45653" lon="6.51756">
        <ele>2623</ele>
        <time>2021-02-21T09:23:40Z</time>
      </trkpt>
      <trkpt lat="44.45653" lon="6.51756">
        <ele>2622</ele>
        <time>2021-02-21T09:23:41Z</time>
      </trkpt>
      <trkpt lat="44.45652" lon="6.51757">
        <ele>2622</ele>
        <time>2021-02-21T09:23:42Z</time>
      </trkpt>
      <trkpt lat="44.45652" lon="6.51759">
        <ele>2622</ele>
        <time>2021-02-21T09:23:43Z</time>
      </trkpt>
      <trkpt lat="44.45651" lon="6.5176">
        <ele>2622</ele>
        <time>2021-02-21T09:23:44Z</time>
      </trkpt>
      <trkpt lat="44.45651" lon="6.51762">
        <ele>2622</ele>
        <time>2021-02-21T09:23:45Z</time>
      </trkpt>
      <trkpt lat="44.4565" lon="6.51765">
        <ele>2620</ele>
        <time>2021-02-21T09:23:46Z</time>
      </trkpt>
      <trkpt lat="44.4565" lon="6.51767">
        <ele>2620</ele>
        <time>2021-02-21T09:23:47Z</time>
      </trkpt>
      <trkpt lat="44.45649" lon="6.51771">
        <ele>2619</ele>
        <time>2021-02-21T09:23:48Z</time>
      </trkpt>
      <trkpt lat="44.4565" lon="6.51774">
        <ele>2618</ele>
        <time>2021-02-21T09:23:49Z</time>
      </trkpt>
      <trkpt lat="44.4565" lon="6.51777">
        <ele>2616</ele>
        <time>2021-02-21T09:23:50Z</time>
      </trkpt>
      <trkpt lat="44.45648" lon="6.5178">
        <ele>2615</ele>
        <time>2021-02-21T09:23:51Z</time>
      </trkpt>
      <trkpt lat="44.45647" lon="6.51783">
        <ele>2613</ele>
        <time>2021-02-21T09:23:52Z</time>
      </trkpt>
      <trkpt lat="44.45647" lon="6.51785">
        <ele>2613</ele>
        <time>2021-02-21T09:23:53Z</time>
      </trkpt>
      <trkpt lat="44.45647" lon="6.51785">
        <ele>2612</ele>
        <time>2021-02-21T09:23:54Z</time>
      </trkpt>
      <trkpt lat="44.45647" lon="6.51785">
        <ele>2612</ele>
        <time>2021-02-21T09:23:55Z</time>
      </trkpt>
      <trkpt lat="44.45646" lon="6.51784">
        <ele>2612</ele>
        <time>2021-02-21T09:23:56Z</time>
      </trkpt>
      <trkpt lat="44.45645" lon="6.51784">
        <ele>2612</ele>
        <time>2021-02-21T09:23:57Z</time>
      </trkpt>
      <trkpt lat="44.45645" lon="6.51784">
        <ele>2612</ele>
        <time>2021-02-21T09:23:58Z</time>
      </trkpt>
      <trkpt lat="44.45645" lon="6.51784">
        <ele>2611</ele>
        <time>2021-02-21T09:23:59Z</time>
      </trkpt>
      <trkpt lat="44.45645" lon="6.51786">
        <ele>2611</ele>
        <time>2021-02-21T09:24:00Z</time>
      </trkpt>
      <trkpt lat="44.45645" lon="6.51789">
        <ele>2610</ele>
        <time>2021-02-21T09:24:01Z</time>
      </trkpt>
      <trkpt lat="44.45644" lon="6.5179">
        <ele>2610</ele>
        <time>2021-02-21T09:24:02Z</time>
      </trkpt>
      <trkpt lat="44.45643" lon="6.51792">
        <ele>2610</ele>
        <time>2021-02-21T09:24:03Z</time>
      </trkpt>
      <trkpt lat="44.45643" lon="6.51795">
        <ele>2609</ele>
        <time>2021-02-21T09:24:04Z</time>
      </trkpt>
      <trkpt lat="44.45643" lon="6.51796">
        <ele>2609</ele>
        <time>2021-02-21T09:24:05Z</time>
      </trkpt>
      <trkpt lat="44.45643" lon="6.51796">
        <ele>2609</ele>
        <time>2021-02-21T09:24:06Z</time>
      </trkpt>
      <trkpt lat="44.45643" lon="6.51796">
        <ele>2609</ele>
        <time>2021-02-21T09:24:07Z</time>
      </trkpt>
      <trkpt lat="44.45642" lon="6.51796">
        <ele>2608</ele>
        <time>2021-02-21T09:24:08Z</time>
      </trkpt>
      <trkpt lat="44.45642" lon="6.51799">
        <ele>2608</ele>
        <time>2021-02-21T09:24:09Z</time>
      </trkpt>
      <trkpt lat="44.45642" lon="6.51802">
        <ele>2608</ele>
        <time>2021-02-21T09:24:10Z</time>
      </trkpt>
      <trkpt lat="44.45641" lon="6.51805">
        <ele>2607</ele>
        <time>2021-02-21T09:24:11Z</time>
      </trkpt>
      <trkpt lat="44.4564" lon="6.51807">
        <ele>2607</ele>
        <time>2021-02-21T09:24:12Z</time>
      </trkpt>
      <trkpt lat="44.45639" lon="6.51809">
        <ele>2606</ele>
        <time>2021-02-21T09:24:13Z</time>
      </trkpt>
      <trkpt lat="44.45638" lon="6.51812">
        <ele>2605</ele>
        <time>2021-02-21T09:24:14Z</time>
      </trkpt>
      <trkpt lat="44.45638" lon="6.51814">
        <ele>2605</ele>
        <time>2021-02-21T09:24:15Z</time>
      </trkpt>
      <trkpt lat="44.45638" lon="6.51813">
        <ele>2604</ele>
        <time>2021-02-21T09:24:16Z</time>
      </trkpt>
      <trkpt lat="44.45637" lon="6.51813">
        <ele>2604</ele>
        <time>2021-02-21T09:24:17Z</time>
      </trkpt>
      <trkpt lat="44.45636" lon="6.51812">
        <ele>2604</ele>
        <time>2021-02-21T09:24:18Z</time>
      </trkpt>
      <trkpt lat="44.45636" lon="6.51811">
        <ele>2603</ele>
        <time>2021-02-21T09:24:19Z</time>
      </trkpt>
      <trkpt lat="44.45636" lon="6.51811">
        <ele>2603</ele>
        <time>2021-02-21T09:24:20Z</time>
      </trkpt>
      <trkpt lat="44.45636" lon="6.51811">
        <ele>2603</ele>
        <time>2021-02-21T09:24:21Z</time>
      </trkpt>
      <trkpt lat="44.45636" lon="6.51811">
        <ele>2602</ele>
        <time>2021-02-21T09:24:22Z</time>
      </trkpt>
      <trkpt lat="44.45635" lon="6.51811">
        <ele>2601</ele>
        <time>2021-02-21T09:24:23Z</time>
      </trkpt>
      <trkpt lat="44.45635" lon="6.51811">
        <ele>2600</ele>
        <time>2021-02-21T09:24:24Z</time>
      </trkpt>
      <trkpt lat="44.45635" lon="6.51812">
        <ele>2600</ele>
        <time>2021-02-21T09:24:25Z</time>
      </trkpt>
      <trkpt lat="44.45635" lon="6.51814">
        <ele>2600</ele>
        <time>2021-02-21T09:24:26Z</time>
      </trkpt>
      <trkpt lat="44.45636" lon="6.51815">
        <ele>2599</ele>
        <time>2021-02-21T09:24:27Z</time>
      </trkpt>
      <trkpt lat="44.45635" lon="6.51818">
        <ele>2599</ele>
        <time>2021-02-21T09:24:28Z</time>
      </trkpt>
      <trkpt lat="44.45633" lon="6.5182">
        <ele>2598</ele>
        <time>2021-02-21T09:24:29Z</time>
      </trkpt>
      <trkpt lat="44.45633" lon="6.51824">
        <ele>2596</ele>
        <time>2021-02-21T09:24:30Z</time>
      </trkpt>
      <trkpt lat="44.45632" lon="6.5183">
        <ele>2595</ele>
        <time>2021-02-21T09:24:31Z</time>
      </trkpt>
      <trkpt lat="44.45632" lon="6.51834">
        <ele>2594</ele>
        <time>2021-02-21T09:24:32Z</time>
      </trkpt>
      <trkpt lat="44.45631" lon="6.51837">
        <ele>2592</ele>
        <time>2021-02-21T09:24:33Z</time>
      </trkpt>
      <trkpt lat="44.45628" lon="6.51837">
        <ele>2591</ele>
        <time>2021-02-21T09:24:34Z</time>
      </trkpt>
      <trkpt lat="44.45628" lon="6.5184">
        <ele>2589</ele>
        <time>2021-02-21T09:24:35Z</time>
      </trkpt>
      <trkpt lat="44.45629" lon="6.51843">
        <ele>2586</ele>
        <time>2021-02-21T09:24:36Z</time>
      </trkpt>
      <trkpt lat="44.45632" lon="6.51845">
        <ele>2585</ele>
        <time>2021-02-21T09:24:37Z</time>
      </trkpt>
      <trkpt lat="44.45634" lon="6.51845">
        <ele>2582</ele>
        <time>2021-02-21T09:24:38Z</time>
      </trkpt>
      <trkpt lat="44.45638" lon="6.51844">
        <ele>2579</ele>
        <time>2021-02-21T09:24:39Z</time>
      </trkpt>
      <trkpt lat="44.45641" lon="6.51844">
        <ele>2575</ele>
        <time>2021-02-21T09:24:40Z</time>
      </trkpt>
      <trkpt lat="44.45643" lon="6.51843">
        <ele>2573</ele>
        <time>2021-02-21T09:24:41Z</time>
      </trkpt>
      <trkpt lat="44.45645" lon="6.51844">
        <ele>2569</ele>
        <time>2021-02-21T09:24:42Z</time>
      </trkpt>
      <trkpt lat="44.45647" lon="6.51845">
        <ele>2567</ele>
        <time>2021-02-21T09:24:43Z</time>
      </trkpt>
      <trkpt lat="44.45648" lon="6.51847">
        <ele>2564</ele>
        <time>2021-02-21T09:24:44Z</time>
      </trkpt>
      <trkpt lat="44.45651" lon="6.51849">
        <ele>2563</ele>
        <time>2021-02-21T09:24:45Z</time>
      </trkpt>
      <trkpt lat="44.45654" lon="6.51851">
        <ele>2561</ele>
        <time>2021-02-21T09:24:46Z</time>
      </trkpt>
      <trkpt lat="44.45656" lon="6.51852">
        <ele>2561</ele>
        <time>2021-02-21T09:24:47Z</time>
      </trkpt>
      <trkpt lat="44.45658" lon="6.51854">
        <ele>2560</ele>
        <time>2021-02-21T09:24:48Z</time>
      </trkpt>
      <trkpt lat="44.45661" lon="6.51854">
        <ele>2560</ele>
        <time>2021-02-21T09:24:49Z</time>
      </trkpt>
      <trkpt lat="44.45663" lon="6.51854">
        <ele>2558</ele>
        <time>2021-02-21T09:24:50Z</time>
      </trkpt>
      <trkpt lat="44.45665" lon="6.51855">
        <ele>2557</ele>
        <time>2021-02-21T09:24:51Z</time>
      </trkpt>
      <trkpt lat="44.45666" lon="6.51857">
        <ele>2556</ele>
        <time>2021-02-21T09:24:52Z</time>
      </trkpt>
      <trkpt lat="44.45668" lon="6.5186">
        <ele>2554</ele>
        <time>2021-02-21T09:24:53Z</time>
      </trkpt>
      <trkpt lat="44.45666" lon="6.51862">
        <ele>2552</ele>
        <time>2021-02-21T09:24:54Z</time>
      </trkpt>
      <trkpt lat="44.45665" lon="6.51864">
        <ele>2550</ele>
        <time>2021-02-21T09:24:55Z</time>
      </trkpt>
      <trkpt lat="44.45665" lon="6.51869">
        <ele>2547</ele>
        <time>2021-02-21T09:24:56Z</time>
      </trkpt>
      <trkpt lat="44.45667" lon="6.51872">
        <ele>2546</ele>
        <time>2021-02-21T09:24:57Z</time>
      </trkpt>
      <trkpt lat="44.45669" lon="6.51874">
        <ele>2543</ele>
        <time>2021-02-21T09:24:58Z</time>
      </trkpt>
      <trkpt lat="44.45669" lon="6.51877">
        <ele>2541</ele>
        <time>2021-02-21T09:24:59Z</time>
      </trkpt>
      <trkpt lat="44.45667" lon="6.51879">
        <ele>2540</ele>
        <time>2021-02-21T09:25:00Z</time>
      </trkpt>
      <trkpt lat="44.45666" lon="6.51883">
        <ele>2537</ele>
        <time>2021-02-21T09:25:01Z</time>
      </trkpt>
      <trkpt lat="44.45668" lon="6.51889">
        <ele>2534</ele>
        <time>2021-02-21T09:25:02Z</time>
      </trkpt>
      <trkpt lat="44.45669" lon="6.51893">
        <ele>2533</ele>
        <time>2021-02-21T09:25:03Z</time>
      </trkpt>
      <trkpt lat="44.45666" lon="6.51894">
        <ele>2530</ele>
        <time>2021-02-21T09:25:04Z</time>
      </trkpt>
      <trkpt lat="44.45663" lon="6.51895">
        <ele>2529</ele>
        <time>2021-02-21T09:25:05Z</time>
      </trkpt>
      <trkpt lat="44.45659" lon="6.51896">
        <ele>2526</ele>
        <time>2021-02-21T09:25:06Z</time>
      </trkpt>
      <trkpt lat="44.45653" lon="6.51899">
        <ele>2524</ele>
        <time>2021-02-21T09:25:07Z</time>
      </trkpt>
      <trkpt lat="44.45647" lon="6.51901">
        <ele>2523</ele>
        <time>2021-02-21T09:25:08Z</time>
      </trkpt>
      <trkpt lat="44.45642" lon="6.51904">
        <ele>2522</ele>
        <time>2021-02-21T09:25:09Z</time>
      </trkpt>
      <trkpt lat="44.45638" lon="6.51907">
        <ele>2521</ele>
        <time>2021-02-21T09:25:10Z</time>
      </trkpt>
      <trkpt lat="44.45637" lon="6.51909">
        <ele>2521</ele>
        <time>2021-02-21T09:25:11Z</time>
      </trkpt>
      <trkpt lat="44.45637" lon="6.51911">
        <ele>2521</ele>
        <time>2021-02-21T09:25:12Z</time>
      </trkpt>
      <trkpt lat="44.45636" lon="6.51911">
        <ele>2520</ele>
        <time>2021-02-21T09:25:13Z</time>
      </trkpt>
      <trkpt lat="44.45635" lon="6.51911">
        <ele>2520</ele>
        <time>2021-02-21T09:25:14Z</time>
      </trkpt>
      <trkpt lat="44.45636" lon="6.51911">
        <ele>2519</ele>
        <time>2021-02-21T09:25:15Z</time>
      </trkpt>
      <trkpt lat="44.45636" lon="6.51911">
        <ele>2519</ele>
        <time>2021-02-21T09:25:16Z</time>
      </trkpt>
      <trkpt lat="44.45636" lon="6.51911">
        <ele>2518</ele>
        <time>2021-02-21T09:25:17Z</time>
      </trkpt>
      <trkpt lat="44.45636" lon="6.51912">
        <ele>2518</ele>
        <time>2021-02-21T09:25:18Z</time>
      </trkpt>
      <trkpt lat="44.45636" lon="6.51912">
        <ele>2518</ele>
        <time>2021-02-21T09:25:19Z</time>
      </trkpt>
      <trkpt lat="44.45636" lon="6.51913">
        <ele>2518</ele>
        <time>2021-02-21T09:25:20Z</time>
      </trkpt>
      <trkpt lat="44.45636" lon="6.51912">
        <ele>2518</ele>
        <time>2021-02-21T09:25:21Z</time>
      </trkpt>
      <trkpt lat="44.45636" lon="6.51912">
        <ele>2518</ele>
        <time>2021-02-21T09:25:22Z</time>
      </trkpt>
      <trkpt lat="44.45635" lon="6.51912">
        <ele>2518</ele>
        <time>2021-02-21T09:25:23Z</time>
      </trkpt>
      <trkpt lat="44.45635" lon="6.51912">
        <ele>2518</ele>
        <time>2021-02-21T09:25:24Z</time>
      </trkpt>
      <trkpt lat="44.45635" lon="6.51912">
        <ele>2518</ele>
        <time>2021-02-21T09:25:25Z</time>
      </trkpt>
      <trkpt lat="44.45635" lon="6.51911">
        <ele>2518</ele>
        <time>2021-02-21T09:25:26Z</time>
      </trkpt>
      <trkpt lat="44.45635" lon="6.5191">
        <ele>2518</ele>
        <time>2021-02-21T09:25:27Z</time>
      </trkpt>
      <trkpt lat="44.45635" lon="6.51909">
        <ele>2518</ele>
        <time>2021-02-21T09:25:28Z</time>
      </trkpt>
      <trkpt lat="44.45635" lon="6.51909">
        <ele>2518</ele>
        <time>2021-02-21T09:25:29Z</time>
      </trkpt>
      <trkpt lat="44.45635" lon="6.5191">
        <ele>2518</ele>
        <time>2021-02-21T09:25:30Z</time>
      </trkpt>
      <trkpt lat="44.45636" lon="6.5191">
        <ele>2518</ele>
        <time>2021-02-21T09:25:31Z</time>
      </trkpt>
      <trkpt lat="44.45636" lon="6.51911">
        <ele>2518</ele>
        <time>2021-02-21T09:25:32Z</time>
      </trkpt>
      <trkpt lat="44.45636" lon="6.51911">
        <ele>2518</ele>
        <time>2021-02-21T09:25:33Z</time>
      </trkpt>
      <trkpt lat="44.45636" lon="6.51911">
        <ele>2518</ele>
        <time>2021-02-21T09:25:34Z</time>
      </trkpt>
      <trkpt lat="44.45637" lon="6.51911">
        <ele>2518</ele>
        <time>2021-02-21T09:25:35Z</time>
      </trkpt>
      <trkpt lat="44.45637" lon="6.5191">
        <ele>2518</ele>
        <time>2021-02-21T09:25:36Z</time>
      </trkpt>
      <trkpt lat="44.45637" lon="6.5191">
        <ele>2518</ele>
        <time>2021-02-21T09:25:37Z</time>
      </trkpt>
      <trkpt lat="44.45637" lon="6.51909">
        <ele>2518</ele>
        <time>2021-02-21T09:25:38Z</time>
      </trkpt>
      <trkpt lat="44.45637" lon="6.51908">
        <ele>2518</ele>
        <time>2021-02-21T09:25:39Z</time>
      </trkpt>
      <trkpt lat="44.45637" lon="6.51908">
        <ele>2518</ele>
        <time>2021-02-21T09:25:40Z</time>
      </trkpt>
      <trkpt lat="44.45637" lon="6.51908">
        <ele>2518</ele>
        <time>2021-02-21T09:25:41Z</time>
      </trkpt>
      <trkpt lat="44.45637" lon="6.51907">
        <ele>2518</ele>
        <time>2021-02-21T09:25:42Z</time>
      </trkpt>
      <trkpt lat="44.45637" lon="6.51907">
        <ele>2518</ele>
        <time>2021-02-21T09:25:43Z</time>
      </trkpt>
      <trkpt lat="44.45636" lon="6.51907">
        <ele>2518</ele>
        <time>2021-02-21T09:25:44Z</time>
      </trkpt>
      <trkpt lat="44.45636" lon="6.51907">
        <ele>2518</ele>
        <time>2021-02-21T09:25:45Z</time>
      </trkpt>
      <trkpt lat="44.45636" lon="6.51907">
        <ele>2518</ele>
        <time>2021-02-21T09:25:46Z</time>
      </trkpt>
      <trkpt lat="44.45636" lon="6.51907">
        <ele>2518</ele>
        <time>2021-02-21T09:25:47Z</time>
      </trkpt>
      <trkpt lat="44.45636" lon="6.51907">
        <ele>2518</ele>
        <time>2021-02-21T09:25:48Z</time>
      </trkpt>
      <trkpt lat="44.45636" lon="6.51907">
        <ele>2518</ele>
        <time>2021-02-21T09:25:49Z</time>
      </trkpt>
      <trkpt lat="44.45636" lon="6.51907">
        <ele>2518</ele>
        <time>2021-02-21T09:25:50Z</time>
      </trkpt>
      <trkpt lat="44.45636" lon="6.51907">
        <ele>2518</ele>
        <time>2021-02-21T09:25:51Z</time>
      </trkpt>
      <trkpt lat="44.45636" lon="6.51907">
        <ele>2518</ele>
        <time>2021-02-21T09:25:52Z</time>
      </trkpt>
      <trkpt lat="44.45636" lon="6.51907">
        <ele>2518</ele>
        <time>2021-02-21T09:25:53Z</time>
      </trkpt>
      <trkpt lat="44.45636" lon="6.51907">
        <ele>2518</ele>
        <time>2021-02-21T09:25:54Z</time>
      </trkpt>
      <trkpt lat="44.45636" lon="6.51907">
        <ele>2518</ele>
        <time>2021-02-21T09:25:55Z</time>
      </trkpt>
      <trkpt lat="44.45636" lon="6.51907">
        <ele>2518</ele>
        <time>2021-02-21T09:25:56Z</time>
      </trkpt>
      <trkpt lat="44.45636" lon="6.51907">
        <ele>2518</ele>
        <time>2021-02-21T09:25:57Z</time>
      </trkpt>
      <trkpt lat="44.45636" lon="6.51907">
        <ele>2518</ele>
        <time>2021-02-21T09:25:58Z</time>
      </trkpt>
      <trkpt lat="44.45636" lon="6.51907">
        <ele>2518</ele>
        <time>2021-02-21T09:25:59Z</time>
      </trkpt>
      <trkpt lat="44.45636" lon="6.51907">
        <ele>2518</ele>
        <time>2021-02-21T09:26:00Z</time>
      </trkpt>
      <trkpt lat="44.45636" lon="6.51907">
        <ele>2518</ele>
        <time>2021-02-21T09:26:01Z</time>
      </trkpt>
      <trkpt lat="44.45636" lon="6.51907">
        <ele>2518</ele>
        <time>2021-02-21T09:26:02Z</time>
      </trkpt>
      <trkpt lat="44.45636" lon="6.51907">
        <ele>2518</ele>
        <time>2021-02-21T09:26:03Z</time>
      </trkpt>
      <trkpt lat="44.45636" lon="6.51907">
        <ele>2518</ele>
        <time>2021-02-21T09:26:04Z</time>
      </trkpt>
      <trkpt lat="44.45636" lon="6.51907">
        <ele>2518</ele>
        <time>2021-02-21T09:26:05Z</time>
      </trkpt>
      <trkpt lat="44.45636" lon="6.51907">
        <ele>2518</ele>
        <time>2021-02-21T09:26:06Z</time>
      </trkpt>
      <trkpt lat="44.45636" lon="6.51907">
        <ele>2518</ele>
        <time>2021-02-21T09:26:07Z</time>
      </trkpt>
      <trkpt lat="44.45637" lon="6.51908">
        <ele>2518</ele>
        <time>2021-02-21T09:26:08Z</time>
      </trkpt>
      <trkpt lat="44.45637" lon="6.51907">
        <ele>2518</ele>
        <time>2021-02-21T09:26:09Z</time>
      </trkpt>
      <trkpt lat="44.45637" lon="6.51905">
        <ele>2518</ele>
        <time>2021-02-21T09:26:10Z</time>
      </trkpt>
      <trkpt lat="44.45637" lon="6.51905">
        <ele>2518</ele>
        <time>2021-02-21T09:26:11Z</time>
      </trkpt>
      <trkpt lat="44.45638" lon="6.51904">
        <ele>2518</ele>
        <time>2021-02-21T09:26:12Z</time>
      </trkpt>
      <trkpt lat="44.45638" lon="6.51905">
        <ele>2518</ele>
        <time>2021-02-21T09:26:13Z</time>
      </trkpt>
      <trkpt lat="44.45638" lon="6.51905">
        <ele>2518</ele>
        <time>2021-02-21T09:26:14Z</time>
      </trkpt>
      <trkpt lat="44.45638" lon="6.51904">
        <ele>2518</ele>
        <time>2021-02-21T09:26:15Z</time>
      </trkpt>
      <trkpt lat="44.45637" lon="6.51904">
        <ele>2518</ele>
        <time>2021-02-21T09:26:16Z</time>
      </trkpt>
      <trkpt lat="44.45638" lon="6.51904">
        <ele>2518</ele>
        <time>2021-02-21T09:26:17Z</time>
      </trkpt>
      <trkpt lat="44.45638" lon="6.51904">
        <ele>2518</ele>
        <time>2021-02-21T09:26:18Z</time>
      </trkpt>
      <trkpt lat="44.45637" lon="6.51905">
        <ele>2518</ele>
        <time>2021-02-21T09:26:19Z</time>
      </trkpt>
      <trkpt lat="44.45637" lon="6.51905">
        <ele>2518</ele>
        <time>2021-02-21T09:26:20Z</time>
      </trkpt>
      <trkpt lat="44.45637" lon="6.51905">
        <ele>2518</ele>
        <time>2021-02-21T09:26:21Z</time>
      </trkpt>
      <trkpt lat="44.45637" lon="6.51905">
        <ele>2518</ele>
        <time>2021-02-21T09:26:22Z</time>
      </trkpt>
      <trkpt lat="44.45637" lon="6.51905">
        <ele>2518</ele>
        <time>2021-02-21T09:26:23Z</time>
      </trkpt>
      <trkpt lat="44.45637" lon="6.51905">
        <ele>2518</ele>
        <time>2021-02-21T09:26:24Z</time>
      </trkpt>
      <trkpt lat="44.45637" lon="6.51905">
        <ele>2518</ele>
        <time>2021-02-21T09:26:25Z</time>
      </trkpt>
      <trkpt lat="44.45637" lon="6.51905">
        <ele>2518</ele>
        <time>2021-02-21T09:26:26Z</time>
      </trkpt>
      <trkpt lat="44.45637" lon="6.51905">
        <ele>2518</ele>
        <time>2021-02-21T09:26:27Z</time>
      </trkpt>
      <trkpt lat="44.45637" lon="6.51905">
        <ele>2518</ele>
        <time>2021-02-21T09:26:28Z</time>
      </trkpt>
      <trkpt lat="44.45637" lon="6.51905">
        <ele>2518</ele>
        <time>2021-02-21T09:26:29Z</time>
      </trkpt>
      <trkpt lat="44.45637" lon="6.51905">
        <ele>2518</ele>
        <time>2021-02-21T09:26:30Z</time>
      </trkpt>
      <trkpt lat="44.45637" lon="6.51905">
        <ele>2518</ele>
        <time>2021-02-21T09:26:31Z</time>
      </trkpt>
      <trkpt lat="44.45637" lon="6.51905">
        <ele>2518</ele>
        <time>2021-02-21T09:26:32Z</time>
      </trkpt>
      <trkpt lat="44.45638" lon="6.51905">
        <ele>2518</ele>
        <time>2021-02-21T09:26:33Z</time>
      </trkpt>
      <trkpt lat="44.45638" lon="6.51906">
        <ele>2519</ele>
        <time>2021-02-21T09:26:34Z</time>
      </trkpt>
      <trkpt lat="44.45639" lon="6.51906">
        <ele>2519</ele>
        <time>2021-02-21T09:26:35Z</time>
      </trkpt>
      <trkpt lat="44.45639" lon="6.51906">
        <ele>2519</ele>
        <time>2021-02-21T09:26:36Z</time>
      </trkpt>
      <trkpt lat="44.45639" lon="6.51906">
        <ele>2519</ele>
        <time>2021-02-21T09:26:37Z</time>
      </trkpt>
      <trkpt lat="44.45639" lon="6.51906">
        <ele>2519</ele>
        <time>2021-02-21T09:26:38Z</time>
      </trkpt>
      <trkpt lat="44.45639" lon="6.51906">
        <ele>2519</ele>
        <time>2021-02-21T09:26:39Z</time>
      </trkpt>
      <trkpt lat="44.45639" lon="6.51906">
        <ele>2519</ele>
        <time>2021-02-21T09:26:40Z</time>
      </trkpt>
      <trkpt lat="44.45637" lon="6.51906">
        <ele>2519</ele>
        <time>2021-02-21T09:26:41Z</time>
      </trkpt>
      <trkpt lat="44.45637" lon="6.51906">
        <ele>2519</ele>
        <time>2021-02-21T09:26:42Z</time>
      </trkpt>
      <trkpt lat="44.45637" lon="6.51905">
        <ele>2519</ele>
        <time>2021-02-21T09:26:43Z</time>
      </trkpt>
      <trkpt lat="44.45637" lon="6.51905">
        <ele>2519</ele>
        <time>2021-02-21T09:26:44Z</time>
      </trkpt>
      <trkpt lat="44.45637" lon="6.51905">
        <ele>2519</ele>
        <time>2021-02-21T09:26:45Z</time>
      </trkpt>
      <trkpt lat="44.45637" lon="6.51905">
        <ele>2519</ele>
        <time>2021-02-21T09:26:46Z</time>
      </trkpt>
      <trkpt lat="44.45637" lon="6.51905">
        <ele>2519</ele>
        <time>2021-02-21T09:26:47Z</time>
      </trkpt>
      <trkpt lat="44.45637" lon="6.51905">
        <ele>2519</ele>
        <time>2021-02-21T09:26:48Z</time>
      </trkpt>
      <trkpt lat="44.45637" lon="6.51905">
        <ele>2519</ele>
        <time>2021-02-21T09:26:49Z</time>
      </trkpt>
      <trkpt lat="44.45637" lon="6.51905">
        <ele>2519</ele>
        <time>2021-02-21T09:26:50Z</time>
      </trkpt>
      <trkpt lat="44.45637" lon="6.51905">
        <ele>2519</ele>
        <time>2021-02-21T09:26:51Z</time>
      </trkpt>
      <trkpt lat="44.45637" lon="6.51905">
        <ele>2519</ele>
        <time>2021-02-21T09:26:52Z</time>
      </trkpt>
      <trkpt lat="44.45637" lon="6.51905">
        <ele>2519</ele>
        <time>2021-02-21T09:26:53Z</time>
      </trkpt>
      <trkpt lat="44.45637" lon="6.51905">
        <ele>2519</ele>
        <time>2021-02-21T09:26:54Z</time>
      </trkpt>
      <trkpt lat="44.45637" lon="6.51905">
        <ele>2519</ele>
        <time>2021-02-21T09:26:55Z</time>
      </trkpt>
      <trkpt lat="44.45637" lon="6.51905">
        <ele>2519</ele>
        <time>2021-02-21T09:26:56Z</time>
      </trkpt>
      <trkpt lat="44.45637" lon="6.51905">
        <ele>2519</ele>
        <time>2021-02-21T09:26:57Z</time>
      </trkpt>
      <trkpt lat="44.45637" lon="6.51905">
        <ele>2519</ele>
        <time>2021-02-21T09:26:58Z</time>
      </trkpt>
      <trkpt lat="44.45637" lon="6.51905">
        <ele>2519</ele>
        <time>2021-02-21T09:26:59Z</time>
      </trkpt>
      <trkpt lat="44.45637" lon="6.51905">
        <ele>2519</ele>
        <time>2021-02-21T09:27:00Z</time>
      </trkpt>
      <trkpt lat="44.45637" lon="6.51905">
        <ele>2519</ele>
        <time>2021-02-21T09:27:01Z</time>
      </trkpt>
      <trkpt lat="44.45637" lon="6.51905">
        <ele>2519</ele>
        <time>2021-02-21T09:27:02Z</time>
      </trkpt>
      <trkpt lat="44.45637" lon="6.51905">
        <ele>2519</ele>
        <time>2021-02-21T09:27:03Z</time>
      </trkpt>
      <trkpt lat="44.45637" lon="6.51905">
        <ele>2519</ele>
        <time>2021-02-21T09:27:04Z</time>
      </trkpt>
      <trkpt lat="44.45637" lon="6.51905">
        <ele>2519</ele>
        <time>2021-02-21T09:27:05Z</time>
      </trkpt>
      <trkpt lat="44.45637" lon="6.51905">
        <ele>2519</ele>
        <time>2021-02-21T09:27:06Z</time>
      </trkpt>
      <trkpt lat="44.45637" lon="6.51905">
        <ele>2519</ele>
        <time>2021-02-21T09:27:07Z</time>
      </trkpt>
      <trkpt lat="44.45637" lon="6.51905">
        <ele>2519</ele>
        <time>2021-02-21T09:27:08Z</time>
      </trkpt>
      <trkpt lat="44.45637" lon="6.51905">
        <ele>2519</ele>
        <time>2021-02-21T09:27:09Z</time>
      </trkpt>
      <trkpt lat="44.45637" lon="6.51905">
        <ele>2519</ele>
        <time>2021-02-21T09:27:10Z</time>
      </trkpt>
      <trkpt lat="44.45637" lon="6.51905">
        <ele>2519</ele>
        <time>2021-02-21T09:27:11Z</time>
      </trkpt>
      <trkpt lat="44.45637" lon="6.51905">
        <ele>2519</ele>
        <time>2021-02-21T09:27:12Z</time>
      </trkpt>
      <trkpt lat="44.45637" lon="6.51905">
        <ele>2519</ele>
        <time>2021-02-21T09:27:13Z</time>
      </trkpt>
      <trkpt lat="44.45637" lon="6.51905">
        <ele>2519</ele>
        <time>2021-02-21T09:27:14Z</time>
      </trkpt>
      <trkpt lat="44.45637" lon="6.51905">
        <ele>2519</ele>
        <time>2021-02-21T09:27:15Z</time>
      </trkpt>
      <trkpt lat="44.45637" lon="6.51905">
        <ele>2519</ele>
        <time>2021-02-21T09:27:16Z</time>
      </trkpt>
      <trkpt lat="44.45637" lon="6.51905">
        <ele>2519</ele>
        <time>2021-02-21T09:27:17Z</time>
      </trkpt>
      <trkpt lat="44.45637" lon="6.51905">
        <ele>2519</ele>
        <time>2021-02-21T09:27:18Z</time>
      </trkpt>
      <trkpt lat="44.45637" lon="6.51905">
        <ele>2519</ele>
        <time>2021-02-21T09:27:19Z</time>
      </trkpt>
      <trkpt lat="44.45637" lon="6.51905">
        <ele>2519</ele>
        <time>2021-02-21T09:27:20Z</time>
      </trkpt>
      <trkpt lat="44.45637" lon="6.51905">
        <ele>2519</ele>
        <time>2021-02-21T09:27:21Z</time>
      </trkpt>
      <trkpt lat="44.45637" lon="6.51905">
        <ele>2519</ele>
        <time>2021-02-21T09:27:22Z</time>
      </trkpt>
      <trkpt lat="44.45637" lon="6.51905">
        <ele>2519</ele>
        <time>2021-02-21T09:27:23Z</time>
      </trkpt>
      <trkpt lat="44.45637" lon="6.51905">
        <ele>2519</ele>
        <time>2021-02-21T09:27:24Z</time>
      </trkpt>
      <trkpt lat="44.45637" lon="6.51905">
        <ele>2519</ele>
        <time>2021-02-21T09:27:25Z</time>
      </trkpt>
      <trkpt lat="44.45637" lon="6.51905">
        <ele>2519</ele>
        <time>2021-02-21T09:27:26Z</time>
      </trkpt>
      <trkpt lat="44.45637" lon="6.51905">
        <ele>2519</ele>
        <time>2021-02-21T09:27:27Z</time>
      </trkpt>
      <trkpt lat="44.45637" lon="6.51905">
        <ele>2519</ele>
        <time>2021-02-21T09:27:28Z</time>
      </trkpt>
      <trkpt lat="44.45637" lon="6.51905">
        <ele>2519</ele>
        <time>2021-02-21T09:27:29Z</time>
      </trkpt>
      <trkpt lat="44.45637" lon="6.51905">
        <ele>2519</ele>
        <time>2021-02-21T09:27:30Z</time>
      </trkpt>
      <trkpt lat="44.45637" lon="6.51905">
        <ele>2519</ele>
        <time>2021-02-21T09:27:31Z</time>
      </trkpt>
      <trkpt lat="44.45637" lon="6.51905">
        <ele>2519</ele>
        <time>2021-02-21T09:27:32Z</time>
      </trkpt>
      <trkpt lat="44.45637" lon="6.51905">
        <ele>2519</ele>
        <time>2021-02-21T09:27:33Z</time>
      </trkpt>
      <trkpt lat="44.45637" lon="6.51905">
        <ele>2519</ele>
        <time>2021-02-21T09:27:34Z</time>
      </trkpt>
      <trkpt lat="44.45637" lon="6.51905">
        <ele>2519</ele>
        <time>2021-02-21T09:27:35Z</time>
      </trkpt>
      <trkpt lat="44.45637" lon="6.51905">
        <ele>2519</ele>
        <time>2021-02-21T09:27:36Z</time>
      </trkpt>
      <trkpt lat="44.45637" lon="6.51905">
        <ele>2519</ele>
        <time>2021-02-21T09:27:37Z</time>
      </trkpt>
      <trkpt lat="44.45637" lon="6.51905">
        <ele>2519</ele>
        <time>2021-02-21T09:27:38Z</time>
      </trkpt>
      <trkpt lat="44.45637" lon="6.51905">
        <ele>2519</ele>
        <time>2021-02-21T09:27:39Z</time>
      </trkpt>
      <trkpt lat="44.45637" lon="6.51905">
        <ele>2519</ele>
        <time>2021-02-21T09:27:40Z</time>
      </trkpt>
      <trkpt lat="44.45637" lon="6.51905">
        <ele>2519</ele>
        <time>2021-02-21T09:27:41Z</time>
      </trkpt>
      <trkpt lat="44.45637" lon="6.51905">
        <ele>2519</ele>
        <time>2021-02-21T09:27:42Z</time>
      </trkpt>
      <trkpt lat="44.45637" lon="6.51905">
        <ele>2519</ele>
        <time>2021-02-21T09:27:43Z</time>
      </trkpt>
      <trkpt lat="44.45637" lon="6.51905">
        <ele>2519</ele>
        <time>2021-02-21T09:27:44Z</time>
      </trkpt>
      <trkpt lat="44.45637" lon="6.51905">
        <ele>2519</ele>
        <time>2021-02-21T09:27:45Z</time>
      </trkpt>
      <trkpt lat="44.45637" lon="6.51905">
        <ele>2519</ele>
        <time>2021-02-21T09:27:46Z</time>
      </trkpt>
      <trkpt lat="44.45637" lon="6.51905">
        <ele>2519</ele>
        <time>2021-02-21T09:27:47Z</time>
      </trkpt>
      <trkpt lat="44.45637" lon="6.51905">
        <ele>2519</ele>
        <time>2021-02-21T09:27:48Z</time>
      </trkpt>
      <trkpt lat="44.45637" lon="6.51905">
        <ele>2519</ele>
        <time>2021-02-21T09:27:49Z</time>
      </trkpt>
      <trkpt lat="44.45637" lon="6.51905">
        <ele>2519</ele>
        <time>2021-02-21T09:27:50Z</time>
      </trkpt>
      <trkpt lat="44.45637" lon="6.51905">
        <ele>2519</ele>
        <time>2021-02-21T09:27:51Z</time>
      </trkpt>
      <trkpt lat="44.45637" lon="6.51905">
        <ele>2519</ele>
        <time>2021-02-21T09:27:52Z</time>
      </trkpt>
      <trkpt lat="44.45637" lon="6.51905">
        <ele>2519</ele>
        <time>2021-02-21T09:27:53Z</time>
      </trkpt>
      <trkpt lat="44.45637" lon="6.51905">
        <ele>2519</ele>
        <time>2021-02-21T09:27:54Z</time>
      </trkpt>
      <trkpt lat="44.45637" lon="6.51905">
        <ele>2519</ele>
        <time>2021-02-21T09:27:55Z</time>
      </trkpt>
      <trkpt lat="44.45637" lon="6.51905">
        <ele>2519</ele>
        <time>2021-02-21T09:27:56Z</time>
      </trkpt>
      <trkpt lat="44.45637" lon="6.51905">
        <ele>2519</ele>
        <time>2021-02-21T09:27:57Z</time>
      </trkpt>
      <trkpt lat="44.45637" lon="6.51905">
        <ele>2519</ele>
        <time>2021-02-21T09:27:58Z</time>
      </trkpt>
      <trkpt lat="44.45637" lon="6.51905">
        <ele>2519</ele>
        <time>2021-02-21T09:27:59Z</time>
      </trkpt>
      <trkpt lat="44.45637" lon="6.51905">
        <ele>2519</ele>
        <time>2021-02-21T09:28:00Z</time>
      </trkpt>
      <trkpt lat="44.45637" lon="6.51905">
        <ele>2519</ele>
        <time>2021-02-21T09:28:01Z</time>
      </trkpt>
      <trkpt lat="44.45637" lon="6.51905">
        <ele>2519</ele>
        <time>2021-02-21T09:28:02Z</time>
      </trkpt>
      <trkpt lat="44.45637" lon="6.51905">
        <ele>2519</ele>
        <time>2021-02-21T09:28:03Z</time>
      </trkpt>
      <trkpt lat="44.45637" lon="6.51905">
        <ele>2519</ele>
        <time>2021-02-21T09:28:04Z</time>
      </trkpt>
      <trkpt lat="44.45637" lon="6.51905">
        <ele>2519</ele>
        <time>2021-02-21T09:28:05Z</time>
      </trkpt>
      <trkpt lat="44.45637" lon="6.51905">
        <ele>2519</ele>
        <time>2021-02-21T09:28:06Z</time>
      </trkpt>
      <trkpt lat="44.45637" lon="6.51905">
        <ele>2519</ele>
        <time>2021-02-21T09:28:07Z</time>
      </trkpt>
      <trkpt lat="44.45637" lon="6.51905">
        <ele>2519</ele>
        <time>2021-02-21T09:28:08Z</time>
      </trkpt>
      <trkpt lat="44.45637" lon="6.51905">
        <ele>2519</ele>
        <time>2021-02-21T09:28:09Z</time>
      </trkpt>
      <trkpt lat="44.45637" lon="6.51905">
        <ele>2519</ele>
        <time>2021-02-21T09:28:10Z</time>
      </trkpt>
      <trkpt lat="44.45637" lon="6.51905">
        <ele>2519</ele>
        <time>2021-02-21T09:28:11Z</time>
      </trkpt>
      <trkpt lat="44.45637" lon="6.51905">
        <ele>2519</ele>
        <time>2021-02-21T09:28:12Z</time>
      </trkpt>
      <trkpt lat="44.45637" lon="6.51905">
        <ele>2519</ele>
        <time>2021-02-21T09:28:13Z</time>
      </trkpt>
      <trkpt lat="44.45637" lon="6.51905">
        <ele>2519</ele>
        <time>2021-02-21T09:28:14Z</time>
      </trkpt>
      <trkpt lat="44.45637" lon="6.51905">
        <ele>2519</ele>
        <time>2021-02-21T09:28:15Z</time>
      </trkpt>
      <trkpt lat="44.45637" lon="6.51905">
        <ele>2519</ele>
        <time>2021-02-21T09:28:16Z</time>
      </trkpt>
      <trkpt lat="44.45637" lon="6.51905">
        <ele>2519</ele>
        <time>2021-02-21T09:28:17Z</time>
      </trkpt>
      <trkpt lat="44.45637" lon="6.51905">
        <ele>2519</ele>
        <time>2021-02-21T09:28:18Z</time>
      </trkpt>
      <trkpt lat="44.45637" lon="6.51905">
        <ele>2519</ele>
        <time>2021-02-21T09:28:19Z</time>
      </trkpt>
      <trkpt lat="44.45637" lon="6.51905">
        <ele>2519</ele>
        <time>2021-02-21T09:28:20Z</time>
      </trkpt>
      <trkpt lat="44.45637" lon="6.51905">
        <ele>2519</ele>
        <time>2021-02-21T09:28:21Z</time>
      </trkpt>
      <trkpt lat="44.45637" lon="6.51905">
        <ele>2519</ele>
        <time>2021-02-21T09:28:22Z</time>
      </trkpt>
      <trkpt lat="44.45637" lon="6.51905">
        <ele>2519</ele>
        <time>2021-02-21T09:28:23Z</time>
      </trkpt>
      <trkpt lat="44.45637" lon="6.51905">
        <ele>2519</ele>
        <time>2021-02-21T09:28:24Z</time>
      </trkpt>
      <trkpt lat="44.45637" lon="6.51905">
        <ele>2519</ele>
        <time>2021-02-21T09:28:25Z</time>
      </trkpt>
      <trkpt lat="44.45636" lon="6.51908">
        <ele>2519</ele>
        <time>2021-02-21T09:28:26Z</time>
      </trkpt>
      <trkpt lat="44.45636" lon="6.51907">
        <ele>2520</ele>
        <time>2021-02-21T09:28:27Z</time>
      </trkpt>
      <trkpt lat="44.45636" lon="6.51907">
        <ele>2520</ele>
        <time>2021-02-21T09:28:28Z</time>
      </trkpt>
      <trkpt lat="44.45636" lon="6.51907">
        <ele>2520</ele>
        <time>2021-02-21T09:28:29Z</time>
      </trkpt>
      <trkpt lat="44.45636" lon="6.51907">
        <ele>2520</ele>
        <time>2021-02-21T09:28:30Z</time>
      </trkpt>
      <trkpt lat="44.45636" lon="6.51907">
        <ele>2520</ele>
        <time>2021-02-21T09:28:31Z</time>
      </trkpt>
      <trkpt lat="44.45636" lon="6.51907">
        <ele>2520</ele>
        <time>2021-02-21T09:28:32Z</time>
      </trkpt>
      <trkpt lat="44.45636" lon="6.51907">
        <ele>2520</ele>
        <time>2021-02-21T09:28:33Z</time>
      </trkpt>
      <trkpt lat="44.45636" lon="6.51907">
        <ele>2520</ele>
        <time>2021-02-21T09:28:34Z</time>
      </trkpt>
      <trkpt lat="44.45636" lon="6.51907">
        <ele>2520</ele>
        <time>2021-02-21T09:28:35Z</time>
      </trkpt>
      <trkpt lat="44.45636" lon="6.51907">
        <ele>2520</ele>
        <time>2021-02-21T09:28:36Z</time>
      </trkpt>
      <trkpt lat="44.45636" lon="6.51907">
        <ele>2520</ele>
        <time>2021-02-21T09:28:37Z</time>
      </trkpt>
      <trkpt lat="44.45636" lon="6.51907">
        <ele>2520</ele>
        <time>2021-02-21T09:28:38Z</time>
      </trkpt>
      <trkpt lat="44.45636" lon="6.51907">
        <ele>2520</ele>
        <time>2021-02-21T09:28:39Z</time>
      </trkpt>
      <trkpt lat="44.45636" lon="6.51907">
        <ele>2520</ele>
        <time>2021-02-21T09:28:40Z</time>
      </trkpt>
      <trkpt lat="44.45636" lon="6.51907">
        <ele>2520</ele>
        <time>2021-02-21T09:28:41Z</time>
      </trkpt>
      <trkpt lat="44.45636" lon="6.51907">
        <ele>2520</ele>
        <time>2021-02-21T09:28:42Z</time>
      </trkpt>
      <trkpt lat="44.45636" lon="6.51907">
        <ele>2520</ele>
        <time>2021-02-21T09:28:43Z</time>
      </trkpt>
      <trkpt lat="44.45636" lon="6.51907">
        <ele>2520</ele>
        <time>2021-02-21T09:28:44Z</time>
      </trkpt>
      <trkpt lat="44.45636" lon="6.51907">
        <ele>2520</ele>
        <time>2021-02-21T09:28:45Z</time>
      </trkpt>
      <trkpt lat="44.45636" lon="6.51907">
        <ele>2520</ele>
        <time>2021-02-21T09:28:46Z</time>
      </trkpt>
      <trkpt lat="44.45636" lon="6.51907">
        <ele>2520</ele>
        <time>2021-02-21T09:28:47Z</time>
      </trkpt>
      <trkpt lat="44.45636" lon="6.51907">
        <ele>2520</ele>
        <time>2021-02-21T09:28:48Z</time>
      </trkpt>
      <trkpt lat="44.45636" lon="6.51907">
        <ele>2520</ele>
        <time>2021-02-21T09:28:49Z</time>
      </trkpt>
      <trkpt lat="44.45636" lon="6.51907">
        <ele>2520</ele>
        <time>2021-02-21T09:28:50Z</time>
      </trkpt>
      <trkpt lat="44.45636" lon="6.51907">
        <ele>2520</ele>
        <time>2021-02-21T09:28:51Z</time>
      </trkpt>
      <trkpt lat="44.45636" lon="6.51907">
        <ele>2520</ele>
        <time>2021-02-21T09:28:52Z</time>
      </trkpt>
      <trkpt lat="44.45636" lon="6.51907">
        <ele>2520</ele>
        <time>2021-02-21T09:28:53Z</time>
      </trkpt>
      <trkpt lat="44.45636" lon="6.51907">
        <ele>2520</ele>
        <time>2021-02-21T09:28:54Z</time>
      </trkpt>
      <trkpt lat="44.45636" lon="6.51907">
        <ele>2520</ele>
        <time>2021-02-21T09:28:55Z</time>
      </trkpt>
      <trkpt lat="44.45636" lon="6.51907">
        <ele>2520</ele>
        <time>2021-02-21T09:28:56Z</time>
      </trkpt>
      <trkpt lat="44.45636" lon="6.51907">
        <ele>2520</ele>
        <time>2021-02-21T09:28:57Z</time>
      </trkpt>
      <trkpt lat="44.45636" lon="6.51907">
        <ele>2520</ele>
        <time>2021-02-21T09:28:58Z</time>
      </trkpt>
      <trkpt lat="44.45636" lon="6.51907">
        <ele>2520</ele>
        <time>2021-02-21T09:28:59Z</time>
      </trkpt>
      <trkpt lat="44.45636" lon="6.51907">
        <ele>2520</ele>
        <time>2021-02-21T09:29:00Z</time>
      </trkpt>
      <trkpt lat="44.45636" lon="6.51907">
        <ele>2520</ele>
        <time>2021-02-21T09:29:01Z</time>
      </trkpt>
      <trkpt lat="44.45636" lon="6.51907">
        <ele>2520</ele>
        <time>2021-02-21T09:29:02Z</time>
      </trkpt>
      <trkpt lat="44.45636" lon="6.51907">
        <ele>2520</ele>
        <time>2021-02-21T09:29:03Z</time>
      </trkpt>
      <trkpt lat="44.45636" lon="6.51907">
        <ele>2520</ele>
        <time>2021-02-21T09:29:04Z</time>
      </trkpt>
      <trkpt lat="44.45636" lon="6.51907">
        <ele>2520</ele>
        <time>2021-02-21T09:29:05Z</time>
      </trkpt>
      <trkpt lat="44.45636" lon="6.51907">
        <ele>2520</ele>
        <time>2021-02-21T09:29:06Z</time>
      </trkpt>
      <trkpt lat="44.45636" lon="6.51907">
        <ele>2520</ele>
        <time>2021-02-21T09:29:07Z</time>
      </trkpt>
      <trkpt lat="44.45636" lon="6.51907">
        <ele>2520</ele>
        <time>2021-02-21T09:29:08Z</time>
      </trkpt>
      <trkpt lat="44.45636" lon="6.51907">
        <ele>2520</ele>
        <time>2021-02-21T09:29:09Z</time>
      </trkpt>
      <trkpt lat="44.45636" lon="6.51907">
        <ele>2520</ele>
        <time>2021-02-21T09:29:10Z</time>
      </trkpt>
      <trkpt lat="44.45636" lon="6.51907">
        <ele>2520</ele>
        <time>2021-02-21T09:29:11Z</time>
      </trkpt>
      <trkpt lat="44.45636" lon="6.51907">
        <ele>2520</ele>
        <time>2021-02-21T09:29:12Z</time>
      </trkpt>
      <trkpt lat="44.45636" lon="6.51907">
        <ele>2520</ele>
        <time>2021-02-21T09:29:13Z</time>
      </trkpt>
      <trkpt lat="44.45636" lon="6.51907">
        <ele>2520</ele>
        <time>2021-02-21T09:29:14Z</time>
      </trkpt>
      <trkpt lat="44.45636" lon="6.51907">
        <ele>2520</ele>
        <time>2021-02-21T09:29:15Z</time>
      </trkpt>
      <trkpt lat="44.45636" lon="6.51907">
        <ele>2520</ele>
        <time>2021-02-21T09:29:16Z</time>
      </trkpt>
      <trkpt lat="44.45636" lon="6.51907">
        <ele>2520</ele>
        <time>2021-02-21T09:29:17Z</time>
      </trkpt>
      <trkpt lat="44.45636" lon="6.51907">
        <ele>2520</ele>
        <time>2021-02-21T09:29:18Z</time>
      </trkpt>
      <trkpt lat="44.45636" lon="6.51907">
        <ele>2520</ele>
        <time>2021-02-21T09:29:19Z</time>
      </trkpt>
      <trkpt lat="44.45636" lon="6.51907">
        <ele>2520</ele>
        <time>2021-02-21T09:29:20Z</time>
      </trkpt>
      <trkpt lat="44.45636" lon="6.51907">
        <ele>2520</ele>
        <time>2021-02-21T09:29:21Z</time>
      </trkpt>
      <trkpt lat="44.45636" lon="6.51907">
        <ele>2520</ele>
        <time>2021-02-21T09:29:22Z</time>
      </trkpt>
      <trkpt lat="44.45636" lon="6.51907">
        <ele>2520</ele>
        <time>2021-02-21T09:29:23Z</time>
      </trkpt>
      <trkpt lat="44.45636" lon="6.51907">
        <ele>2520</ele>
        <time>2021-02-21T09:29:24Z</time>
      </trkpt>
      <trkpt lat="44.45636" lon="6.51907">
        <ele>2520</ele>
        <time>2021-02-21T09:29:25Z</time>
      </trkpt>
      <trkpt lat="44.45636" lon="6.51907">
        <ele>2520</ele>
        <time>2021-02-21T09:29:26Z</time>
      </trkpt>
      <trkpt lat="44.45636" lon="6.51907">
        <ele>2520</ele>
        <time>2021-02-21T09:29:27Z</time>
      </trkpt>
      <trkpt lat="44.45636" lon="6.51907">
        <ele>2520</ele>
        <time>2021-02-21T09:29:28Z</time>
      </trkpt>
      <trkpt lat="44.45636" lon="6.51907">
        <ele>2520</ele>
        <time>2021-02-21T09:29:29Z</time>
      </trkpt>
      <trkpt lat="44.45636" lon="6.51907">
        <ele>2520</ele>
        <time>2021-02-21T09:29:30Z</time>
      </trkpt>
      <trkpt lat="44.45636" lon="6.51907">
        <ele>2520</ele>
        <time>2021-02-21T09:29:31Z</time>
      </trkpt>
      <trkpt lat="44.45636" lon="6.51907">
        <ele>2520</ele>
        <time>2021-02-21T09:29:32Z</time>
      </trkpt>
      <trkpt lat="44.45636" lon="6.51907">
        <ele>2520</ele>
        <time>2021-02-21T09:29:33Z</time>
      </trkpt>
      <trkpt lat="44.45636" lon="6.51907">
        <ele>2520</ele>
        <time>2021-02-21T09:29:34Z</time>
      </trkpt>
      <trkpt lat="44.45636" lon="6.51907">
        <ele>2520</ele>
        <time>2021-02-21T09:29:35Z</time>
      </trkpt>
      <trkpt lat="44.45636" lon="6.51907">
        <ele>2520</ele>
        <time>2021-02-21T09:29:36Z</time>
      </trkpt>
      <trkpt lat="44.45636" lon="6.51907">
        <ele>2520</ele>
        <time>2021-02-21T09:29:37Z</time>
      </trkpt>
      <trkpt lat="44.45636" lon="6.51907">
        <ele>2520</ele>
        <time>2021-02-21T09:29:38Z</time>
      </trkpt>
      <trkpt lat="44.45636" lon="6.51907">
        <ele>2520</ele>
        <time>2021-02-21T09:29:39Z</time>
      </trkpt>
      <trkpt lat="44.45636" lon="6.51907">
        <ele>2520</ele>
        <time>2021-02-21T09:29:40Z</time>
      </trkpt>
      <trkpt lat="44.45636" lon="6.51907">
        <ele>2520</ele>
        <time>2021-02-21T09:29:41Z</time>
      </trkpt>
      <trkpt lat="44.45636" lon="6.51907">
        <ele>2520</ele>
        <time>2021-02-21T09:29:42Z</time>
      </trkpt>
      <trkpt lat="44.45636" lon="6.51907">
        <ele>2520</ele>
        <time>2021-02-21T09:29:43Z</time>
      </trkpt>
      <trkpt lat="44.45636" lon="6.51907">
        <ele>2520</ele>
        <time>2021-02-21T09:29:44Z</time>
      </trkpt>
      <trkpt lat="44.45636" lon="6.51907">
        <ele>2520</ele>
        <time>2021-02-21T09:29:45Z</time>
      </trkpt>
      <trkpt lat="44.45636" lon="6.51907">
        <ele>2520</ele>
        <time>2021-02-21T09:29:46Z</time>
      </trkpt>
      <trkpt lat="44.45636" lon="6.51907">
        <ele>2520</ele>
        <time>2021-02-21T09:29:47Z</time>
      </trkpt>
      <trkpt lat="44.45636" lon="6.51907">
        <ele>2520</ele>
        <time>2021-02-21T09:29:48Z</time>
      </trkpt>
      <trkpt lat="44.45636" lon="6.51907">
        <ele>2520</ele>
        <time>2021-02-21T09:29:49Z</time>
      </trkpt>
      <trkpt lat="44.45641" lon="6.51908">
        <ele>2520</ele>
        <time>2021-02-21T09:29:50Z</time>
      </trkpt>
      <trkpt lat="44.45641" lon="6.51908">
        <ele>2520</ele>
        <time>2021-02-21T09:29:51Z</time>
      </trkpt>
      <trkpt lat="44.4564" lon="6.51908">
        <ele>2520</ele>
        <time>2021-02-21T09:29:52Z</time>
      </trkpt>
      <trkpt lat="44.4564" lon="6.51908">
        <ele>2520</ele>
        <time>2021-02-21T09:29:53Z</time>
      </trkpt>
      <trkpt lat="44.4564" lon="6.51908">
        <ele>2520</ele>
        <time>2021-02-21T09:29:54Z</time>
      </trkpt>
      <trkpt lat="44.4564" lon="6.51908">
        <ele>2520</ele>
        <time>2021-02-21T09:29:55Z</time>
      </trkpt>
      <trkpt lat="44.4564" lon="6.51908">
        <ele>2520</ele>
        <time>2021-02-21T09:29:56Z</time>
      </trkpt>
      <trkpt lat="44.4564" lon="6.51908">
        <ele>2521</ele>
        <time>2021-02-21T09:29:57Z</time>
      </trkpt>
      <trkpt lat="44.4564" lon="6.51908">
        <ele>2521</ele>
        <time>2021-02-21T09:29:58Z</time>
      </trkpt>
      <trkpt lat="44.4564" lon="6.51908">
        <ele>2521</ele>
        <time>2021-02-21T09:29:59Z</time>
      </trkpt>
      <trkpt lat="44.4564" lon="6.51908">
        <ele>2521</ele>
        <time>2021-02-21T09:30:00Z</time>
      </trkpt>
      <trkpt lat="44.4564" lon="6.51908">
        <ele>2521</ele>
        <time>2021-02-21T09:30:01Z</time>
      </trkpt>
      <trkpt lat="44.4564" lon="6.51908">
        <ele>2521</ele>
        <time>2021-02-21T09:30:02Z</time>
      </trkpt>
      <trkpt lat="44.4564" lon="6.51908">
        <ele>2521</ele>
        <time>2021-02-21T09:30:03Z</time>
      </trkpt>
      <trkpt lat="44.4564" lon="6.51908">
        <ele>2521</ele>
        <time>2021-02-21T09:30:04Z</time>
      </trkpt>
      <trkpt lat="44.4564" lon="6.51908">
        <ele>2521</ele>
        <time>2021-02-21T09:30:05Z</time>
      </trkpt>
      <trkpt lat="44.4564" lon="6.51908">
        <ele>2521</ele>
        <time>2021-02-21T09:30:06Z</time>
      </trkpt>
      <trkpt lat="44.4564" lon="6.51908">
        <ele>2521</ele>
        <time>2021-02-21T09:30:07Z</time>
      </trkpt>
      <trkpt lat="44.4564" lon="6.51908">
        <ele>2521</ele>
        <time>2021-02-21T09:30:08Z</time>
      </trkpt>
      <trkpt lat="44.4564" lon="6.51908">
        <ele>2521</ele>
        <time>2021-02-21T09:30:09Z</time>
      </trkpt>
      <trkpt lat="44.4564" lon="6.51908">
        <ele>2521</ele>
        <time>2021-02-21T09:30:10Z</time>
      </trkpt>
      <trkpt lat="44.4564" lon="6.51908">
        <ele>2521</ele>
        <time>2021-02-21T09:30:11Z</time>
      </trkpt>
      <trkpt lat="44.4564" lon="6.51908">
        <ele>2521</ele>
        <time>2021-02-21T09:30:12Z</time>
      </trkpt>
      <trkpt lat="44.4564" lon="6.51908">
        <ele>2521</ele>
        <time>2021-02-21T09:30:13Z</time>
      </trkpt>
      <trkpt lat="44.4564" lon="6.51908">
        <ele>2521</ele>
        <time>2021-02-21T09:30:14Z</time>
      </trkpt>
      <trkpt lat="44.4564" lon="6.51908">
        <ele>2521</ele>
        <time>2021-02-21T09:30:15Z</time>
      </trkpt>
      <trkpt lat="44.4564" lon="6.51908">
        <ele>2521</ele>
        <time>2021-02-21T09:30:16Z</time>
      </trkpt>
      <trkpt lat="44.4564" lon="6.51908">
        <ele>2521</ele>
        <time>2021-02-21T09:30:17Z</time>
      </trkpt>
      <trkpt lat="44.4564" lon="6.51908">
        <ele>2521</ele>
        <time>2021-02-21T09:30:18Z</time>
      </trkpt>
      <trkpt lat="44.4564" lon="6.51908">
        <ele>2521</ele>
        <time>2021-02-21T09:30:19Z</time>
      </trkpt>
      <trkpt lat="44.4564" lon="6.51908">
        <ele>2521</ele>
        <time>2021-02-21T09:30:20Z</time>
      </trkpt>
      <trkpt lat="44.4564" lon="6.51908">
        <ele>2521</ele>
        <time>2021-02-21T09:30:21Z</time>
      </trkpt>
      <trkpt lat="44.4564" lon="6.51908">
        <ele>2521</ele>
        <time>2021-02-21T09:30:22Z</time>
      </trkpt>
      <trkpt lat="44.4564" lon="6.51908">
        <ele>2521</ele>
        <time>2021-02-21T09:30:23Z</time>
      </trkpt>
      <trkpt lat="44.4564" lon="6.51908">
        <ele>2521</ele>
        <time>2021-02-21T09:30:24Z</time>
      </trkpt>
      <trkpt lat="44.4564" lon="6.51908">
        <ele>2521</ele>
        <time>2021-02-21T09:30:25Z</time>
      </trkpt>
      <trkpt lat="44.4564" lon="6.51908">
        <ele>2521</ele>
        <time>2021-02-21T09:30:26Z</time>
      </trkpt>
      <trkpt lat="44.4564" lon="6.51908">
        <ele>2521</ele>
        <time>2021-02-21T09:30:27Z</time>
      </trkpt>
      <trkpt lat="44.4564" lon="6.51908">
        <ele>2521</ele>
        <time>2021-02-21T09:30:28Z</time>
      </trkpt>
      <trkpt lat="44.4564" lon="6.51908">
        <ele>2521</ele>
        <time>2021-02-21T09:30:29Z</time>
      </trkpt>
      <trkpt lat="44.4564" lon="6.51908">
        <ele>2521</ele>
        <time>2021-02-21T09:30:30Z</time>
      </trkpt>
      <trkpt lat="44.4564" lon="6.51908">
        <ele>2521</ele>
        <time>2021-02-21T09:30:31Z</time>
      </trkpt>
      <trkpt lat="44.4564" lon="6.51908">
        <ele>2521</ele>
        <time>2021-02-21T09:30:32Z</time>
      </trkpt>
      <trkpt lat="44.4564" lon="6.51908">
        <ele>2521</ele>
        <time>2021-02-21T09:30:33Z</time>
      </trkpt>
      <trkpt lat="44.4564" lon="6.51908">
        <ele>2521</ele>
        <time>2021-02-21T09:30:34Z</time>
      </trkpt>
      <trkpt lat="44.4564" lon="6.51908">
        <ele>2521</ele>
        <time>2021-02-21T09:30:35Z</time>
      </trkpt>
      <trkpt lat="44.45637" lon="6.51908">
        <ele>2521</ele>
        <time>2021-02-21T09:30:36Z</time>
      </trkpt>
      <trkpt lat="44.45637" lon="6.51909">
        <ele>2521</ele>
        <time>2021-02-21T09:30:37Z</time>
      </trkpt>
      <trkpt lat="44.45637" lon="6.51909">
        <ele>2521</ele>
        <time>2021-02-21T09:30:38Z</time>
      </trkpt>
      <trkpt lat="44.45637" lon="6.51909">
        <ele>2521</ele>
        <time>2021-02-21T09:30:39Z</time>
      </trkpt>
      <trkpt lat="44.45637" lon="6.51909">
        <ele>2521</ele>
        <time>2021-02-21T09:30:40Z</time>
      </trkpt>
      <trkpt lat="44.45637" lon="6.51909">
        <ele>2521</ele>
        <time>2021-02-21T09:30:41Z</time>
      </trkpt>
      <trkpt lat="44.45637" lon="6.51909">
        <ele>2521</ele>
        <time>2021-02-21T09:30:42Z</time>
      </trkpt>
      <trkpt lat="44.45637" lon="6.51909">
        <ele>2521</ele>
        <time>2021-02-21T09:30:43Z</time>
      </trkpt>
      <trkpt lat="44.45637" lon="6.51909">
        <ele>2521</ele>
        <time>2021-02-21T09:30:44Z</time>
      </trkpt>
      <trkpt lat="44.45637" lon="6.51909">
        <ele>2521</ele>
        <time>2021-02-21T09:30:45Z</time>
      </trkpt>
      <trkpt lat="44.45637" lon="6.51909">
        <ele>2521</ele>
        <time>2021-02-21T09:30:46Z</time>
      </trkpt>
      <trkpt lat="44.45637" lon="6.51909">
        <ele>2521</ele>
        <time>2021-02-21T09:30:47Z</time>
      </trkpt>
      <trkpt lat="44.45637" lon="6.51909">
        <ele>2521</ele>
        <time>2021-02-21T09:30:48Z</time>
      </trkpt>
      <trkpt lat="44.45637" lon="6.51909">
        <ele>2521</ele>
        <time>2021-02-21T09:30:49Z</time>
      </trkpt>
      <trkpt lat="44.45637" lon="6.51909">
        <ele>2521</ele>
        <time>2021-02-21T09:30:50Z</time>
      </trkpt>
      <trkpt lat="44.45637" lon="6.51909">
        <ele>2521</ele>
        <time>2021-02-21T09:30:51Z</time>
      </trkpt>
      <trkpt lat="44.45637" lon="6.51909">
        <ele>2521</ele>
        <time>2021-02-21T09:30:52Z</time>
      </trkpt>
      <trkpt lat="44.45637" lon="6.51909">
        <ele>2521</ele>
        <time>2021-02-21T09:30:53Z</time>
      </trkpt>
      <trkpt lat="44.45637" lon="6.51909">
        <ele>2521</ele>
        <time>2021-02-21T09:30:54Z</time>
      </trkpt>
      <trkpt lat="44.45637" lon="6.51909">
        <ele>2521</ele>
        <time>2021-02-21T09:30:55Z</time>
      </trkpt>
      <trkpt lat="44.45637" lon="6.51909">
        <ele>2521</ele>
        <time>2021-02-21T09:30:56Z</time>
      </trkpt>
      <trkpt lat="44.45637" lon="6.51909">
        <ele>2521</ele>
        <time>2021-02-21T09:30:57Z</time>
      </trkpt>
      <trkpt lat="44.45637" lon="6.51909">
        <ele>2521</ele>
        <time>2021-02-21T09:30:58Z</time>
      </trkpt>
      <trkpt lat="44.45637" lon="6.51909">
        <ele>2521</ele>
        <time>2021-02-21T09:30:59Z</time>
      </trkpt>
      <trkpt lat="44.45637" lon="6.51909">
        <ele>2521</ele>
        <time>2021-02-21T09:31:00Z</time>
      </trkpt>
      <trkpt lat="44.45637" lon="6.51909">
        <ele>2521</ele>
        <time>2021-02-21T09:31:01Z</time>
      </trkpt>
      <trkpt lat="44.45637" lon="6.51909">
        <ele>2521</ele>
        <time>2021-02-21T09:31:02Z</time>
      </trkpt>
      <trkpt lat="44.45637" lon="6.51909">
        <ele>2521</ele>
        <time>2021-02-21T09:31:03Z</time>
      </trkpt>
      <trkpt lat="44.45637" lon="6.51909">
        <ele>2521</ele>
        <time>2021-02-21T09:31:04Z</time>
      </trkpt>
      <trkpt lat="44.45637" lon="6.51909">
        <ele>2521</ele>
        <time>2021-02-21T09:31:05Z</time>
      </trkpt>
      <trkpt lat="44.45639" lon="6.51908">
        <ele>2521</ele>
        <time>2021-02-21T09:31:06Z</time>
      </trkpt>
      <trkpt lat="44.4564" lon="6.51907">
        <ele>2521</ele>
        <time>2021-02-21T09:31:07Z</time>
      </trkpt>
      <trkpt lat="44.4564" lon="6.51906">
        <ele>2521</ele>
        <time>2021-02-21T09:31:08Z</time>
      </trkpt>
      <trkpt lat="44.4564" lon="6.51906">
        <ele>2521</ele>
        <time>2021-02-21T09:31:09Z</time>
      </trkpt>
      <trkpt lat="44.4564" lon="6.51905">
        <ele>2520</ele>
        <time>2021-02-21T09:31:10Z</time>
      </trkpt>
      <trkpt lat="44.4564" lon="6.51905">
        <ele>2520</ele>
        <time>2021-02-21T09:31:11Z</time>
      </trkpt>
      <trkpt lat="44.4564" lon="6.51904">
        <ele>2520</ele>
        <time>2021-02-21T09:31:12Z</time>
      </trkpt>
      <trkpt lat="44.4564" lon="6.51902">
        <ele>2520</ele>
        <time>2021-02-21T09:31:13Z</time>
      </trkpt>
      <trkpt lat="44.4564" lon="6.51901">
        <ele>2520</ele>
        <time>2021-02-21T09:31:14Z</time>
      </trkpt>
      <trkpt lat="44.45639" lon="6.51901">
        <ele>2520</ele>
        <time>2021-02-21T09:31:15Z</time>
      </trkpt>
      <trkpt lat="44.45639" lon="6.51902">
        <ele>2520</ele>
        <time>2021-02-21T09:31:16Z</time>
      </trkpt>
      <trkpt lat="44.45638" lon="6.51902">
        <ele>2520</ele>
        <time>2021-02-21T09:31:17Z</time>
      </trkpt>
      <trkpt lat="44.45638" lon="6.51903">
        <ele>2520</ele>
        <time>2021-02-21T09:31:18Z</time>
      </trkpt>
      <trkpt lat="44.45638" lon="6.51903">
        <ele>2520</ele>
        <time>2021-02-21T09:31:19Z</time>
      </trkpt>
      <trkpt lat="44.45637" lon="6.51904">
        <ele>2520</ele>
        <time>2021-02-21T09:31:20Z</time>
      </trkpt>
      <trkpt lat="44.45637" lon="6.51904">
        <ele>2519</ele>
        <time>2021-02-21T09:31:21Z</time>
      </trkpt>
      <trkpt lat="44.45636" lon="6.51904">
        <ele>2519</ele>
        <time>2021-02-21T09:31:22Z</time>
      </trkpt>
      <trkpt lat="44.45637" lon="6.51903">
        <ele>2519</ele>
        <time>2021-02-21T09:31:23Z</time>
      </trkpt>
      <trkpt lat="44.45637" lon="6.51903">
        <ele>2519</ele>
        <time>2021-02-21T09:31:24Z</time>
      </trkpt>
      <trkpt lat="44.45637" lon="6.51903">
        <ele>2519</ele>
        <time>2021-02-21T09:31:25Z</time>
      </trkpt>
      <trkpt lat="44.45637" lon="6.51904">
        <ele>2519</ele>
        <time>2021-02-21T09:31:26Z</time>
      </trkpt>
      <trkpt lat="44.45637" lon="6.51904">
        <ele>2518</ele>
        <time>2021-02-21T09:31:27Z</time>
      </trkpt>
      <trkpt lat="44.45638" lon="6.51905">
        <ele>2518</ele>
        <time>2021-02-21T09:31:28Z</time>
      </trkpt>
      <trkpt lat="44.45638" lon="6.51905">
        <ele>2518</ele>
        <time>2021-02-21T09:31:29Z</time>
      </trkpt>
      <trkpt lat="44.45638" lon="6.51905">
        <ele>2518</ele>
        <time>2021-02-21T09:31:30Z</time>
      </trkpt>
      <trkpt lat="44.45638" lon="6.51905">
        <ele>2518</ele>
        <time>2021-02-21T09:31:31Z</time>
      </trkpt>
      <trkpt lat="44.45638" lon="6.51905">
        <ele>2518</ele>
        <time>2021-02-21T09:31:32Z</time>
      </trkpt>
      <trkpt lat="44.45638" lon="6.51905">
        <ele>2518</ele>
        <time>2021-02-21T09:31:33Z</time>
      </trkpt>
      <trkpt lat="44.45638" lon="6.51905">
        <ele>2518</ele>
        <time>2021-02-21T09:31:34Z</time>
      </trkpt>
      <trkpt lat="44.45638" lon="6.51905">
        <ele>2518</ele>
        <time>2021-02-21T09:31:35Z</time>
      </trkpt>
      <trkpt lat="44.45641" lon="6.51907">
        <ele>2517</ele>
        <time>2021-02-21T09:31:36Z</time>
      </trkpt>
      <trkpt lat="44.45641" lon="6.51907">
        <ele>2517</ele>
        <time>2021-02-21T09:31:37Z</time>
      </trkpt>
      <trkpt lat="44.4564" lon="6.51907">
        <ele>2517</ele>
        <time>2021-02-21T09:31:38Z</time>
      </trkpt>
      <trkpt lat="44.45639" lon="6.51907">
        <ele>2517</ele>
        <time>2021-02-21T09:31:39Z</time>
      </trkpt>
      <trkpt lat="44.45637" lon="6.51907">
        <ele>2517</ele>
        <time>2021-02-21T09:31:40Z</time>
      </trkpt>
      <trkpt lat="44.45637" lon="6.51907">
        <ele>2517</ele>
        <time>2021-02-21T09:31:41Z</time>
      </trkpt>
      <trkpt lat="44.45637" lon="6.51907">
        <ele>2517</ele>
        <time>2021-02-21T09:31:42Z</time>
      </trkpt>
      <trkpt lat="44.45637" lon="6.51907">
        <ele>2517</ele>
        <time>2021-02-21T09:31:43Z</time>
      </trkpt>
      <trkpt lat="44.45637" lon="6.51907">
        <ele>2517</ele>
        <time>2021-02-21T09:31:44Z</time>
      </trkpt>
      <trkpt lat="44.45637" lon="6.51907">
        <ele>2517</ele>
        <time>2021-02-21T09:31:45Z</time>
      </trkpt>
      <trkpt lat="44.45637" lon="6.51907">
        <ele>2517</ele>
        <time>2021-02-21T09:31:46Z</time>
      </trkpt>
      <trkpt lat="44.45637" lon="6.51907">
        <ele>2517</ele>
        <time>2021-02-21T09:31:47Z</time>
      </trkpt>
      <trkpt lat="44.45637" lon="6.51907">
        <ele>2517</ele>
        <time>2021-02-21T09:31:48Z</time>
      </trkpt>
      <trkpt lat="44.45637" lon="6.51907">
        <ele>2517</ele>
        <time>2021-02-21T09:31:49Z</time>
      </trkpt>
      <trkpt lat="44.45637" lon="6.51907">
        <ele>2517</ele>
        <time>2021-02-21T09:31:50Z</time>
      </trkpt>
      <trkpt lat="44.45637" lon="6.51907">
        <ele>2517</ele>
        <time>2021-02-21T09:31:51Z</time>
      </trkpt>
      <trkpt lat="44.45637" lon="6.51907">
        <ele>2517</ele>
        <time>2021-02-21T09:31:52Z</time>
      </trkpt>
      <trkpt lat="44.45637" lon="6.51907">
        <ele>2517</ele>
        <time>2021-02-21T09:31:53Z</time>
      </trkpt>
      <trkpt lat="44.45637" lon="6.51907">
        <ele>2517</ele>
        <time>2021-02-21T09:31:54Z</time>
      </trkpt>
      <trkpt lat="44.45637" lon="6.51907">
        <ele>2516</ele>
        <time>2021-02-21T09:31:55Z</time>
      </trkpt>
      <trkpt lat="44.45637" lon="6.51907">
        <ele>2516</ele>
        <time>2021-02-21T09:31:56Z</time>
      </trkpt>
      <trkpt lat="44.45637" lon="6.51907">
        <ele>2516</ele>
        <time>2021-02-21T09:31:57Z</time>
      </trkpt>
      <trkpt lat="44.45637" lon="6.51907">
        <ele>2516</ele>
        <time>2021-02-21T09:31:58Z</time>
      </trkpt>
      <trkpt lat="44.45637" lon="6.51907">
        <ele>2516</ele>
        <time>2021-02-21T09:31:59Z</time>
      </trkpt>
      <trkpt lat="44.45637" lon="6.51907">
        <ele>2516</ele>
        <time>2021-02-21T09:32:00Z</time>
      </trkpt>
      <trkpt lat="44.45637" lon="6.51907">
        <ele>2516</ele>
        <time>2021-02-21T09:32:01Z</time>
      </trkpt>
      <trkpt lat="44.45637" lon="6.51907">
        <ele>2516</ele>
        <time>2021-02-21T09:32:02Z</time>
      </trkpt>
      <trkpt lat="44.45637" lon="6.51907">
        <ele>2516</ele>
        <time>2021-02-21T09:32:03Z</time>
      </trkpt>
      <trkpt lat="44.45637" lon="6.51907">
        <ele>2516</ele>
        <time>2021-02-21T09:32:04Z</time>
      </trkpt>
      <trkpt lat="44.45637" lon="6.51907">
        <ele>2516</ele>
        <time>2021-02-21T09:32:05Z</time>
      </trkpt>
      <trkpt lat="44.45637" lon="6.51907">
        <ele>2516</ele>
        <time>2021-02-21T09:32:06Z</time>
      </trkpt>
      <trkpt lat="44.45637" lon="6.51907">
        <ele>2516</ele>
        <time>2021-02-21T09:32:07Z</time>
      </trkpt>
      <trkpt lat="44.45637" lon="6.51907">
        <ele>2516</ele>
        <time>2021-02-21T09:32:08Z</time>
      </trkpt>
      <trkpt lat="44.45637" lon="6.51907">
        <ele>2516</ele>
        <time>2021-02-21T09:32:09Z</time>
      </trkpt>
      <trkpt lat="44.45637" lon="6.51907">
        <ele>2516</ele>
        <time>2021-02-21T09:32:10Z</time>
      </trkpt>
      <trkpt lat="44.4564" lon="6.51906">
        <ele>2516</ele>
        <time>2021-02-21T09:32:11Z</time>
      </trkpt>
      <trkpt lat="44.45639" lon="6.51906">
        <ele>2516</ele>
        <time>2021-02-21T09:32:12Z</time>
      </trkpt>
      <trkpt lat="44.45639" lon="6.51907">
        <ele>2516</ele>
        <time>2021-02-21T09:32:13Z</time>
      </trkpt>
      <trkpt lat="44.45639" lon="6.51907">
        <ele>2516</ele>
        <time>2021-02-21T09:32:14Z</time>
      </trkpt>
      <trkpt lat="44.4564" lon="6.51907">
        <ele>2516</ele>
        <time>2021-02-21T09:32:15Z</time>
      </trkpt>
      <trkpt lat="44.4564" lon="6.51907">
        <ele>2516</ele>
        <time>2021-02-21T09:32:16Z</time>
      </trkpt>
      <trkpt lat="44.4564" lon="6.51907">
        <ele>2516</ele>
        <time>2021-02-21T09:32:17Z</time>
      </trkpt>
      <trkpt lat="44.4564" lon="6.51907">
        <ele>2516</ele>
        <time>2021-02-21T09:32:18Z</time>
      </trkpt>
      <trkpt lat="44.4564" lon="6.51907">
        <ele>2516</ele>
        <time>2021-02-21T09:32:19Z</time>
      </trkpt>
      <trkpt lat="44.4564" lon="6.51907">
        <ele>2516</ele>
        <time>2021-02-21T09:32:20Z</time>
      </trkpt>
      <trkpt lat="44.4564" lon="6.51907">
        <ele>2516</ele>
        <time>2021-02-21T09:32:21Z</time>
      </trkpt>
      <trkpt lat="44.4564" lon="6.51907">
        <ele>2516</ele>
        <time>2021-02-21T09:32:22Z</time>
      </trkpt>
      <trkpt lat="44.4564" lon="6.51907">
        <ele>2516</ele>
        <time>2021-02-21T09:32:23Z</time>
      </trkpt>
      <trkpt lat="44.4564" lon="6.51907">
        <ele>2516</ele>
        <time>2021-02-21T09:32:24Z</time>
      </trkpt>
      <trkpt lat="44.4564" lon="6.51907">
        <ele>2516</ele>
        <time>2021-02-21T09:32:25Z</time>
      </trkpt>
      <trkpt lat="44.4564" lon="6.51907">
        <ele>2516</ele>
        <time>2021-02-21T09:32:26Z</time>
      </trkpt>
      <trkpt lat="44.4564" lon="6.51907">
        <ele>2516</ele>
        <time>2021-02-21T09:32:27Z</time>
      </trkpt>
      <trkpt lat="44.45639" lon="6.51907">
        <ele>2516</ele>
        <time>2021-02-21T09:32:28Z</time>
      </trkpt>
      <trkpt lat="44.45639" lon="6.51906">
        <ele>2516</ele>
        <time>2021-02-21T09:32:29Z</time>
      </trkpt>
      <trkpt lat="44.45639" lon="6.51906">
        <ele>2516</ele>
        <time>2021-02-21T09:32:30Z</time>
      </trkpt>
      <trkpt lat="44.45639" lon="6.51906">
        <ele>2516</ele>
        <time>2021-02-21T09:32:31Z</time>
      </trkpt>
      <trkpt lat="44.45639" lon="6.51906">
        <ele>2516</ele>
        <time>2021-02-21T09:32:32Z</time>
      </trkpt>
      <trkpt lat="44.45639" lon="6.51906">
        <ele>2516</ele>
        <time>2021-02-21T09:32:33Z</time>
      </trkpt>
      <trkpt lat="44.45639" lon="6.51906">
        <ele>2516</ele>
        <time>2021-02-21T09:32:34Z</time>
      </trkpt>
      <trkpt lat="44.45639" lon="6.51906">
        <ele>2516</ele>
        <time>2021-02-21T09:32:35Z</time>
      </trkpt>
      <trkpt lat="44.45639" lon="6.51906">
        <ele>2516</ele>
        <time>2021-02-21T09:32:36Z</time>
      </trkpt>
      <trkpt lat="44.45639" lon="6.51906">
        <ele>2516</ele>
        <time>2021-02-21T09:32:37Z</time>
      </trkpt>
      <trkpt lat="44.45639" lon="6.51906">
        <ele>2516</ele>
        <time>2021-02-21T09:32:38Z</time>
      </trkpt>
      <trkpt lat="44.45639" lon="6.51906">
        <ele>2516</ele>
        <time>2021-02-21T09:32:39Z</time>
      </trkpt>
      <trkpt lat="44.45639" lon="6.51906">
        <ele>2516</ele>
        <time>2021-02-21T09:32:40Z</time>
      </trkpt>
      <trkpt lat="44.45639" lon="6.51906">
        <ele>2516</ele>
        <time>2021-02-21T09:32:41Z</time>
      </trkpt>
      <trkpt lat="44.45639" lon="6.51906">
        <ele>2516</ele>
        <time>2021-02-21T09:32:42Z</time>
      </trkpt>
      <trkpt lat="44.45639" lon="6.51906">
        <ele>2516</ele>
        <time>2021-02-21T09:32:43Z</time>
      </trkpt>
      <trkpt lat="44.45639" lon="6.51906">
        <ele>2516</ele>
        <time>2021-02-21T09:32:44Z</time>
      </trkpt>
      <trkpt lat="44.45639" lon="6.51906">
        <ele>2516</ele>
        <time>2021-02-21T09:32:45Z</time>
      </trkpt>
      <trkpt lat="44.45639" lon="6.51906">
        <ele>2516</ele>
        <time>2021-02-21T09:32:46Z</time>
      </trkpt>
      <trkpt lat="44.45639" lon="6.51906">
        <ele>2516</ele>
        <time>2021-02-21T09:32:47Z</time>
      </trkpt>
      <trkpt lat="44.45639" lon="6.51906">
        <ele>2516</ele>
        <time>2021-02-21T09:32:48Z</time>
      </trkpt>
      <trkpt lat="44.45639" lon="6.51906">
        <ele>2516</ele>
        <time>2021-02-21T09:32:49Z</time>
      </trkpt>
      <trkpt lat="44.45639" lon="6.51906">
        <ele>2516</ele>
        <time>2021-02-21T09:32:50Z</time>
      </trkpt>
      <trkpt lat="44.45639" lon="6.51906">
        <ele>2516</ele>
        <time>2021-02-21T09:32:51Z</time>
      </trkpt>
      <trkpt lat="44.45639" lon="6.51906">
        <ele>2516</ele>
        <time>2021-02-21T09:32:52Z</time>
      </trkpt>
      <trkpt lat="44.45639" lon="6.51906">
        <ele>2516</ele>
        <time>2021-02-21T09:32:53Z</time>
      </trkpt>
      <trkpt lat="44.45639" lon="6.51906">
        <ele>2516</ele>
        <time>2021-02-21T09:32:54Z</time>
      </trkpt>
      <trkpt lat="44.45639" lon="6.51906">
        <ele>2516</ele>
        <time>2021-02-21T09:32:55Z</time>
      </trkpt>
      <trkpt lat="44.45639" lon="6.51906">
        <ele>2516</ele>
        <time>2021-02-21T09:32:56Z</time>
      </trkpt>
      <trkpt lat="44.45639" lon="6.51907">
        <ele>2516</ele>
        <time>2021-02-21T09:32:57Z</time>
      </trkpt>
      <trkpt lat="44.4564" lon="6.51907">
        <ele>2516</ele>
        <time>2021-02-21T09:32:58Z</time>
      </trkpt>
      <trkpt lat="44.45641" lon="6.51906">
        <ele>2516</ele>
        <time>2021-02-21T09:32:59Z</time>
      </trkpt>
      <trkpt lat="44.45642" lon="6.51905">
        <ele>2516</ele>
        <time>2021-02-21T09:33:00Z</time>
      </trkpt>
      <trkpt lat="44.45642" lon="6.51905">
        <ele>2516</ele>
        <time>2021-02-21T09:33:01Z</time>
      </trkpt>
      <trkpt lat="44.45643" lon="6.51905">
        <ele>2516</ele>
        <time>2021-02-21T09:33:02Z</time>
      </trkpt>
      <trkpt lat="44.45643" lon="6.51905">
        <ele>2516</ele>
        <time>2021-02-21T09:33:03Z</time>
      </trkpt>
      <trkpt lat="44.45643" lon="6.51905">
        <ele>2516</ele>
        <time>2021-02-21T09:33:04Z</time>
      </trkpt>
      <trkpt lat="44.45643" lon="6.51905">
        <ele>2516</ele>
        <time>2021-02-21T09:33:05Z</time>
      </trkpt>
      <trkpt lat="44.45644" lon="6.51905">
        <ele>2516</ele>
        <time>2021-02-21T09:33:06Z</time>
      </trkpt>
      <trkpt lat="44.45644" lon="6.51905">
        <ele>2516</ele>
        <time>2021-02-21T09:33:07Z</time>
      </trkpt>
      <trkpt lat="44.45645" lon="6.51905">
        <ele>2516</ele>
        <time>2021-02-21T09:33:08Z</time>
      </trkpt>
      <trkpt lat="44.45645" lon="6.51905">
        <ele>2516</ele>
        <time>2021-02-21T09:33:09Z</time>
      </trkpt>
      <trkpt lat="44.45645" lon="6.51905">
        <ele>2517</ele>
        <time>2021-02-21T09:33:10Z</time>
      </trkpt>
      <trkpt lat="44.45646" lon="6.51904">
        <ele>2517</ele>
        <time>2021-02-21T09:33:11Z</time>
      </trkpt>
      <trkpt lat="44.45646" lon="6.51904">
        <ele>2517</ele>
        <time>2021-02-21T09:33:12Z</time>
      </trkpt>
      <trkpt lat="44.45646" lon="6.51904">
        <ele>2517</ele>
        <time>2021-02-21T09:33:13Z</time>
      </trkpt>
      <trkpt lat="44.45646" lon="6.51904">
        <ele>2517</ele>
        <time>2021-02-21T09:33:14Z</time>
      </trkpt>
      <trkpt lat="44.45646" lon="6.51904">
        <ele>2517</ele>
        <time>2021-02-21T09:33:15Z</time>
      </trkpt>
      <trkpt lat="44.45646" lon="6.51904">
        <ele>2517</ele>
        <time>2021-02-21T09:33:16Z</time>
      </trkpt>
      <trkpt lat="44.45646" lon="6.51904">
        <ele>2517</ele>
        <time>2021-02-21T09:33:17Z</time>
      </trkpt>
      <trkpt lat="44.45646" lon="6.51904">
        <ele>2517</ele>
        <time>2021-02-21T09:33:18Z</time>
      </trkpt>
      <trkpt lat="44.45646" lon="6.51904">
        <ele>2517</ele>
        <time>2021-02-21T09:33:19Z</time>
      </trkpt>
      <trkpt lat="44.45646" lon="6.51904">
        <ele>2517</ele>
        <time>2021-02-21T09:33:20Z</time>
      </trkpt>
      <trkpt lat="44.45646" lon="6.51904">
        <ele>2517</ele>
        <time>2021-02-21T09:33:21Z</time>
      </trkpt>
      <trkpt lat="44.45646" lon="6.51904">
        <ele>2517</ele>
        <time>2021-02-21T09:33:22Z</time>
      </trkpt>
      <trkpt lat="44.45646" lon="6.51904">
        <ele>2517</ele>
        <time>2021-02-21T09:33:23Z</time>
      </trkpt>
      <trkpt lat="44.45646" lon="6.51904">
        <ele>2517</ele>
        <time>2021-02-21T09:33:24Z</time>
      </trkpt>
      <trkpt lat="44.45646" lon="6.51904">
        <ele>2517</ele>
        <time>2021-02-21T09:33:25Z</time>
      </trkpt>
      <trkpt lat="44.45646" lon="6.51904">
        <ele>2517</ele>
        <time>2021-02-21T09:33:26Z</time>
      </trkpt>
      <trkpt lat="44.45646" lon="6.51904">
        <ele>2517</ele>
        <time>2021-02-21T09:33:27Z</time>
      </trkpt>
      <trkpt lat="44.45646" lon="6.51904">
        <ele>2517</ele>
        <time>2021-02-21T09:33:28Z</time>
      </trkpt>
      <trkpt lat="44.45648" lon="6.51907">
        <ele>2517</ele>
        <time>2021-02-21T09:33:29Z</time>
      </trkpt>
      <trkpt lat="44.45648" lon="6.51908">
        <ele>2516</ele>
        <time>2021-02-21T09:33:30Z</time>
      </trkpt>
      <trkpt lat="44.45649" lon="6.5191">
        <ele>2516</ele>
        <time>2021-02-21T09:33:31Z</time>
      </trkpt>
      <trkpt lat="44.45649" lon="6.51911">
        <ele>2516</ele>
        <time>2021-02-21T09:33:32Z</time>
      </trkpt>
      <trkpt lat="44.45649" lon="6.51911">
        <ele>2516</ele>
        <time>2021-02-21T09:33:33Z</time>
      </trkpt>
      <trkpt lat="44.45649" lon="6.51911">
        <ele>2516</ele>
        <time>2021-02-21T09:33:34Z</time>
      </trkpt>
      <trkpt lat="44.45649" lon="6.51911">
        <ele>2516</ele>
        <time>2021-02-21T09:33:35Z</time>
      </trkpt>
      <trkpt lat="44.45649" lon="6.51912">
        <ele>2516</ele>
        <time>2021-02-21T09:33:36Z</time>
      </trkpt>
      <trkpt lat="44.45649" lon="6.51912">
        <ele>2515</ele>
        <time>2021-02-21T09:33:37Z</time>
      </trkpt>
      <trkpt lat="44.45649" lon="6.51913">
        <ele>2515</ele>
        <time>2021-02-21T09:33:38Z</time>
      </trkpt>
      <trkpt lat="44.45649" lon="6.51913">
        <ele>2515</ele>
        <time>2021-02-21T09:33:39Z</time>
      </trkpt>
      <trkpt lat="44.45649" lon="6.51914">
        <ele>2515</ele>
        <time>2021-02-21T09:33:40Z</time>
      </trkpt>
      <trkpt lat="44.45649" lon="6.51914">
        <ele>2515</ele>
        <time>2021-02-21T09:33:41Z</time>
      </trkpt>
      <trkpt lat="44.45648" lon="6.51916">
        <ele>2514</ele>
        <time>2021-02-21T09:33:42Z</time>
      </trkpt>
      <trkpt lat="44.45648" lon="6.51918">
        <ele>2514</ele>
        <time>2021-02-21T09:33:43Z</time>
      </trkpt>
      <trkpt lat="44.45648" lon="6.51918">
        <ele>2514</ele>
        <time>2021-02-21T09:33:44Z</time>
      </trkpt>
      <trkpt lat="44.45649" lon="6.51918">
        <ele>2514</ele>
        <time>2021-02-21T09:33:45Z</time>
      </trkpt>
      <trkpt lat="44.45649" lon="6.51919">
        <ele>2513</ele>
        <time>2021-02-21T09:33:46Z</time>
      </trkpt>
      <trkpt lat="44.45649" lon="6.51921">
        <ele>2513</ele>
        <time>2021-02-21T09:33:47Z</time>
      </trkpt>
      <trkpt lat="44.4565" lon="6.51922">
        <ele>2513</ele>
        <time>2021-02-21T09:33:48Z</time>
      </trkpt>
      <trkpt lat="44.45651" lon="6.51922">
        <ele>2512</ele>
        <time>2021-02-21T09:33:49Z</time>
      </trkpt>
      <trkpt lat="44.45652" lon="6.51923">
        <ele>2511</ele>
        <time>2021-02-21T09:33:50Z</time>
      </trkpt>
      <trkpt lat="44.45652" lon="6.51923">
        <ele>2511</ele>
        <time>2021-02-21T09:33:51Z</time>
      </trkpt>
      <trkpt lat="44.45653" lon="6.51924">
        <ele>2511</ele>
        <time>2021-02-21T09:33:52Z</time>
      </trkpt>
      <trkpt lat="44.45652" lon="6.51925">
        <ele>2510</ele>
        <time>2021-02-21T09:33:53Z</time>
      </trkpt>
      <trkpt lat="44.45652" lon="6.51925">
        <ele>2510</ele>
        <time>2021-02-21T09:33:54Z</time>
      </trkpt>
      <trkpt lat="44.45652" lon="6.51925">
        <ele>2510</ele>
        <time>2021-02-21T09:33:55Z</time>
      </trkpt>
      <trkpt lat="44.45652" lon="6.51926">
        <ele>2509</ele>
        <time>2021-02-21T09:33:56Z</time>
      </trkpt>
      <trkpt lat="44.45652" lon="6.51926">
        <ele>2509</ele>
        <time>2021-02-21T09:33:57Z</time>
      </trkpt>
      <trkpt lat="44.45652" lon="6.51927">
        <ele>2509</ele>
        <time>2021-02-21T09:33:58Z</time>
      </trkpt>
      <trkpt lat="44.45652" lon="6.51928">
        <ele>2507</ele>
        <time>2021-02-21T09:33:59Z</time>
      </trkpt>
      <trkpt lat="44.45652" lon="6.51929">
        <ele>2507</ele>
        <time>2021-02-21T09:34:00Z</time>
      </trkpt>
      <trkpt lat="44.45653" lon="6.51931">
        <ele>2507</ele>
        <time>2021-02-21T09:34:01Z</time>
      </trkpt>
      <trkpt lat="44.45653" lon="6.51932">
        <ele>2506</ele>
        <time>2021-02-21T09:34:02Z</time>
      </trkpt>
      <trkpt lat="44.45653" lon="6.51932">
        <ele>2506</ele>
        <time>2021-02-21T09:34:03Z</time>
      </trkpt>
      <trkpt lat="44.45653" lon="6.51932">
        <ele>2506</ele>
        <time>2021-02-21T09:34:04Z</time>
      </trkpt>
      <trkpt lat="44.45653" lon="6.51933">
        <ele>2506</ele>
        <time>2021-02-21T09:34:05Z</time>
      </trkpt>
      <trkpt lat="44.45653" lon="6.51933">
        <ele>2505</ele>
        <time>2021-02-21T09:34:06Z</time>
      </trkpt>
      <trkpt lat="44.45654" lon="6.51934">
        <ele>2504</ele>
        <time>2021-02-21T09:34:07Z</time>
      </trkpt>
      <trkpt lat="44.45654" lon="6.51934">
        <ele>2504</ele>
        <time>2021-02-21T09:34:08Z</time>
      </trkpt>
      <trkpt lat="44.45655" lon="6.51934">
        <ele>2504</ele>
        <time>2021-02-21T09:34:09Z</time>
      </trkpt>
      <trkpt lat="44.45655" lon="6.51935">
        <ele>2504</ele>
        <time>2021-02-21T09:34:10Z</time>
      </trkpt>
      <trkpt lat="44.45655" lon="6.51935">
        <ele>2504</ele>
        <time>2021-02-21T09:34:11Z</time>
      </trkpt>
      <trkpt lat="44.45655" lon="6.51935">
        <ele>2503</ele>
        <time>2021-02-21T09:34:12Z</time>
      </trkpt>
      <trkpt lat="44.45656" lon="6.51935">
        <ele>2503</ele>
        <time>2021-02-21T09:34:13Z</time>
      </trkpt>
      <trkpt lat="44.45656" lon="6.51934">
        <ele>2503</ele>
        <time>2021-02-21T09:34:14Z</time>
      </trkpt>
      <trkpt lat="44.45657" lon="6.51935">
        <ele>2503</ele>
        <time>2021-02-21T09:34:15Z</time>
      </trkpt>
      <trkpt lat="44.45658" lon="6.51935">
        <ele>2502</ele>
        <time>2021-02-21T09:34:16Z</time>
      </trkpt>
      <trkpt lat="44.45659" lon="6.51937">
        <ele>2502</ele>
        <time>2021-02-21T09:34:17Z</time>
      </trkpt>
      <trkpt lat="44.45661" lon="6.5194">
        <ele>2502</ele>
        <time>2021-02-21T09:34:18Z</time>
      </trkpt>
      <trkpt lat="44.45663" lon="6.51942">
        <ele>2501</ele>
        <time>2021-02-21T09:34:19Z</time>
      </trkpt>
      <trkpt lat="44.45666" lon="6.51945">
        <ele>2501</ele>
        <time>2021-02-21T09:34:20Z</time>
      </trkpt>
      <trkpt lat="44.45668" lon="6.51948">
        <ele>2500</ele>
        <time>2021-02-21T09:34:21Z</time>
      </trkpt>
      <trkpt lat="44.45669" lon="6.5195">
        <ele>2500</ele>
        <time>2021-02-21T09:34:22Z</time>
      </trkpt>
      <trkpt lat="44.45671" lon="6.51951">
        <ele>2499</ele>
        <time>2021-02-21T09:34:23Z</time>
      </trkpt>
      <trkpt lat="44.45673" lon="6.51952">
        <ele>2498</ele>
        <time>2021-02-21T09:34:24Z</time>
      </trkpt>
      <trkpt lat="44.45674" lon="6.51954">
        <ele>2498</ele>
        <time>2021-02-21T09:34:25Z</time>
      </trkpt>
      <trkpt lat="44.45676" lon="6.51958">
        <ele>2497</ele>
        <time>2021-02-21T09:34:26Z</time>
      </trkpt>
      <trkpt lat="44.45674" lon="6.51959">
        <ele>2496</ele>
        <time>2021-02-21T09:34:27Z</time>
      </trkpt>
      <trkpt lat="44.45672" lon="6.51959">
        <ele>2495</ele>
        <time>2021-02-21T09:34:28Z</time>
      </trkpt>
      <trkpt lat="44.45669" lon="6.51959">
        <ele>2495</ele>
        <time>2021-02-21T09:34:29Z</time>
      </trkpt>
      <trkpt lat="44.45666" lon="6.5196">
        <ele>2494</ele>
        <time>2021-02-21T09:34:30Z</time>
      </trkpt>
      <trkpt lat="44.45666" lon="6.51962">
        <ele>2493</ele>
        <time>2021-02-21T09:34:31Z</time>
      </trkpt>
      <trkpt lat="44.45667" lon="6.51965">
        <ele>2492</ele>
        <time>2021-02-21T09:34:32Z</time>
      </trkpt>
      <trkpt lat="44.45667" lon="6.51968">
        <ele>2490</ele>
        <time>2021-02-21T09:34:33Z</time>
      </trkpt>
      <trkpt lat="44.45666" lon="6.51972">
        <ele>2489</ele>
        <time>2021-02-21T09:34:34Z</time>
      </trkpt>
      <trkpt lat="44.45663" lon="6.51975">
        <ele>2487</ele>
        <time>2021-02-21T09:34:35Z</time>
      </trkpt>
      <trkpt lat="44.4566" lon="6.51976">
        <ele>2486</ele>
        <time>2021-02-21T09:34:36Z</time>
      </trkpt>
      <trkpt lat="44.45657" lon="6.51976">
        <ele>2483</ele>
        <time>2021-02-21T09:34:37Z</time>
      </trkpt>
      <trkpt lat="44.45653" lon="6.51977">
        <ele>2482</ele>
        <time>2021-02-21T09:34:38Z</time>
      </trkpt>
      <trkpt lat="44.4565" lon="6.51977">
        <ele>2480</ele>
        <time>2021-02-21T09:34:39Z</time>
      </trkpt>
      <trkpt lat="44.45648" lon="6.51978">
        <ele>2479</ele>
        <time>2021-02-21T09:34:40Z</time>
      </trkpt>
      <trkpt lat="44.45646" lon="6.51979">
        <ele>2477</ele>
        <time>2021-02-21T09:34:41Z</time>
      </trkpt>
      <trkpt lat="44.45644" lon="6.51981">
        <ele>2476</ele>
        <time>2021-02-21T09:34:42Z</time>
      </trkpt>
      <trkpt lat="44.45644" lon="6.51984">
        <ele>2475</ele>
        <time>2021-02-21T09:34:43Z</time>
      </trkpt>
      <trkpt lat="44.45646" lon="6.51984">
        <ele>2474</ele>
        <time>2021-02-21T09:34:44Z</time>
      </trkpt>
      <trkpt lat="44.45648" lon="6.51984">
        <ele>2471</ele>
        <time>2021-02-21T09:34:45Z</time>
      </trkpt>
      <trkpt lat="44.45649" lon="6.51987">
        <ele>2469</ele>
        <time>2021-02-21T09:34:46Z</time>
      </trkpt>
      <trkpt lat="44.45647" lon="6.5199">
        <ele>2467</ele>
        <time>2021-02-21T09:34:47Z</time>
      </trkpt>
      <trkpt lat="44.45646" lon="6.51992">
        <ele>2465</ele>
        <time>2021-02-21T09:34:48Z</time>
      </trkpt>
      <trkpt lat="44.45646" lon="6.51995">
        <ele>2463</ele>
        <time>2021-02-21T09:34:49Z</time>
      </trkpt>
      <trkpt lat="44.45648" lon="6.51997">
        <ele>2461</ele>
        <time>2021-02-21T09:34:50Z</time>
      </trkpt>
      <trkpt lat="44.45651" lon="6.51998">
        <ele>2458</ele>
        <time>2021-02-21T09:34:51Z</time>
      </trkpt>
      <trkpt lat="44.45656" lon="6.51999">
        <ele>2456</ele>
        <time>2021-02-21T09:34:52Z</time>
      </trkpt>
      <trkpt lat="44.45662" lon="6.52003">
        <ele>2454</ele>
        <time>2021-02-21T09:34:53Z</time>
      </trkpt>
      <trkpt lat="44.45669" lon="6.52007">
        <ele>2453</ele>
        <time>2021-02-21T09:34:54Z</time>
      </trkpt>
      <trkpt lat="44.45677" lon="6.52011">
        <ele>2451</ele>
        <time>2021-02-21T09:34:55Z</time>
      </trkpt>
      <trkpt lat="44.45682" lon="6.52016">
        <ele>2450</ele>
        <time>2021-02-21T09:34:56Z</time>
      </trkpt>
      <trkpt lat="44.45685" lon="6.5202">
        <ele>2449</ele>
        <time>2021-02-21T09:34:57Z</time>
      </trkpt>
      <trkpt lat="44.45687" lon="6.52024">
        <ele>2448</ele>
        <time>2021-02-21T09:34:58Z</time>
      </trkpt>
      <trkpt lat="44.45688" lon="6.52027">
        <ele>2446</ele>
        <time>2021-02-21T09:34:59Z</time>
      </trkpt>
      <trkpt lat="44.45688" lon="6.52028">
        <ele>2445</ele>
        <time>2021-02-21T09:35:00Z</time>
      </trkpt>
      <trkpt lat="44.45687" lon="6.52029">
        <ele>2446</ele>
        <time>2021-02-21T09:35:01Z</time>
      </trkpt>
      <trkpt lat="44.45687" lon="6.52029">
        <ele>2445</ele>
        <time>2021-02-21T09:35:02Z</time>
      </trkpt>
      <trkpt lat="44.45687" lon="6.52029">
        <ele>2445</ele>
        <time>2021-02-21T09:35:03Z</time>
      </trkpt>
      <trkpt lat="44.45687" lon="6.52029">
        <ele>2445</ele>
        <time>2021-02-21T09:35:04Z</time>
      </trkpt>
      <trkpt lat="44.45687" lon="6.52029">
        <ele>2445</ele>
        <time>2021-02-21T09:35:05Z</time>
      </trkpt>
      <trkpt lat="44.45687" lon="6.52029">
        <ele>2445</ele>
        <time>2021-02-21T09:35:06Z</time>
      </trkpt>
      <trkpt lat="44.45687" lon="6.52029">
        <ele>2445</ele>
        <time>2021-02-21T09:35:07Z</time>
      </trkpt>
      <trkpt lat="44.45687" lon="6.52029">
        <ele>2445</ele>
        <time>2021-02-21T09:35:08Z</time>
      </trkpt>
      <trkpt lat="44.45687" lon="6.52029">
        <ele>2445</ele>
        <time>2021-02-21T09:35:09Z</time>
      </trkpt>
      <trkpt lat="44.45687" lon="6.52029">
        <ele>2445</ele>
        <time>2021-02-21T09:35:10Z</time>
      </trkpt>
      <trkpt lat="44.45687" lon="6.52029">
        <ele>2445</ele>
        <time>2021-02-21T09:35:11Z</time>
      </trkpt>
      <trkpt lat="44.45687" lon="6.52029">
        <ele>2445</ele>
        <time>2021-02-21T09:35:12Z</time>
      </trkpt>
      <trkpt lat="44.45687" lon="6.52029">
        <ele>2445</ele>
        <time>2021-02-21T09:35:13Z</time>
      </trkpt>
      <trkpt lat="44.45687" lon="6.52029">
        <ele>2445</ele>
        <time>2021-02-21T09:35:14Z</time>
      </trkpt>
      <trkpt lat="44.45687" lon="6.52029">
        <ele>2445</ele>
        <time>2021-02-21T09:35:15Z</time>
      </trkpt>
      <trkpt lat="44.45687" lon="6.52029">
        <ele>2445</ele>
        <time>2021-02-21T09:35:16Z</time>
      </trkpt>
      <trkpt lat="44.45687" lon="6.52029">
        <ele>2445</ele>
        <time>2021-02-21T09:35:17Z</time>
      </trkpt>
      <trkpt lat="44.45687" lon="6.52029">
        <ele>2445</ele>
        <time>2021-02-21T09:35:18Z</time>
      </trkpt>
      <trkpt lat="44.45687" lon="6.52029">
        <ele>2445</ele>
        <time>2021-02-21T09:35:19Z</time>
      </trkpt>
      <trkpt lat="44.45687" lon="6.52029">
        <ele>2445</ele>
        <time>2021-02-21T09:35:20Z</time>
      </trkpt>
      <trkpt lat="44.45687" lon="6.52029">
        <ele>2445</ele>
        <time>2021-02-21T09:35:21Z</time>
      </trkpt>
      <trkpt lat="44.45687" lon="6.52029">
        <ele>2445</ele>
        <time>2021-02-21T09:35:22Z</time>
      </trkpt>
      <trkpt lat="44.45687" lon="6.52029">
        <ele>2445</ele>
        <time>2021-02-21T09:35:23Z</time>
      </trkpt>
      <trkpt lat="44.45687" lon="6.52029">
        <ele>2445</ele>
        <time>2021-02-21T09:35:24Z</time>
      </trkpt>
      <trkpt lat="44.45687" lon="6.52029">
        <ele>2445</ele>
        <time>2021-02-21T09:35:25Z</time>
      </trkpt>
      <trkpt lat="44.45687" lon="6.52029">
        <ele>2445</ele>
        <time>2021-02-21T09:35:26Z</time>
      </trkpt>
      <trkpt lat="44.45687" lon="6.52029">
        <ele>2445</ele>
        <time>2021-02-21T09:35:27Z</time>
      </trkpt>
      <trkpt lat="44.45687" lon="6.52029">
        <ele>2445</ele>
        <time>2021-02-21T09:35:28Z</time>
      </trkpt>
      <trkpt lat="44.45687" lon="6.52029">
        <ele>2445</ele>
        <time>2021-02-21T09:35:29Z</time>
      </trkpt>
      <trkpt lat="44.45687" lon="6.52029">
        <ele>2445</ele>
        <time>2021-02-21T09:35:30Z</time>
      </trkpt>
      <trkpt lat="44.45687" lon="6.52029">
        <ele>2445</ele>
        <time>2021-02-21T09:35:31Z</time>
      </trkpt>
      <trkpt lat="44.45682" lon="6.52042">
        <ele>2447</ele>
        <time>2021-02-21T09:35:32Z</time>
      </trkpt>
      <trkpt lat="44.45681" lon="6.52047">
        <ele>2447</ele>
        <time>2021-02-21T09:35:33Z</time>
      </trkpt>
      <trkpt lat="44.45681" lon="6.5205">
        <ele>2447</ele>
        <time>2021-02-21T09:35:34Z</time>
      </trkpt>
      <trkpt lat="44.45681" lon="6.52053">
        <ele>2447</ele>
        <time>2021-02-21T09:35:35Z</time>
      </trkpt>
      <trkpt lat="44.4568" lon="6.52057">
        <ele>2447</ele>
        <time>2021-02-21T09:35:36Z</time>
      </trkpt>
      <trkpt lat="44.45677" lon="6.5206">
        <ele>2448</ele>
        <time>2021-02-21T09:35:37Z</time>
      </trkpt>
      <trkpt lat="44.45675" lon="6.5206">
        <ele>2448</ele>
        <time>2021-02-21T09:35:38Z</time>
      </trkpt>
      <trkpt lat="44.45671" lon="6.52058">
        <ele>2448</ele>
        <time>2021-02-21T09:35:39Z</time>
      </trkpt>
      <trkpt lat="44.45668" lon="6.52052">
        <ele>2448</ele>
        <time>2021-02-21T09:35:40Z</time>
      </trkpt>
      <trkpt lat="44.45664" lon="6.52046">
        <ele>2448</ele>
        <time>2021-02-21T09:35:41Z</time>
      </trkpt>
      <trkpt lat="44.45659" lon="6.52038">
        <ele>2448</ele>
        <time>2021-02-21T09:35:42Z</time>
      </trkpt>
      <trkpt lat="44.45653" lon="6.5203">
        <ele>2448</ele>
        <time>2021-02-21T09:35:43Z</time>
      </trkpt>
      <trkpt lat="44.45647" lon="6.52026">
        <ele>2448</ele>
        <time>2021-02-21T09:35:44Z</time>
      </trkpt>
      <trkpt lat="44.45643" lon="6.52024">
        <ele>2447</ele>
        <time>2021-02-21T09:35:45Z</time>
      </trkpt>
      <trkpt lat="44.45638" lon="6.52024">
        <ele>2446</ele>
        <time>2021-02-21T09:35:46Z</time>
      </trkpt>
      <trkpt lat="44.45636" lon="6.52023">
        <ele>2445</ele>
        <time>2021-02-21T09:35:47Z</time>
      </trkpt>
      <trkpt lat="44.45633" lon="6.52024">
        <ele>2444</ele>
        <time>2021-02-21T09:35:48Z</time>
      </trkpt>
      <trkpt lat="44.45631" lon="6.52025">
        <ele>2443</ele>
        <time>2021-02-21T09:35:49Z</time>
      </trkpt>
      <trkpt lat="44.45628" lon="6.52026">
        <ele>2442</ele>
        <time>2021-02-21T09:35:50Z</time>
      </trkpt>
      <trkpt lat="44.45626" lon="6.52026">
        <ele>2442</ele>
        <time>2021-02-21T09:35:51Z</time>
      </trkpt>
      <trkpt lat="44.45626" lon="6.52025">
        <ele>2441</ele>
        <time>2021-02-21T09:35:52Z</time>
      </trkpt>
      <trkpt lat="44.45625" lon="6.52025">
        <ele>2440</ele>
        <time>2021-02-21T09:35:53Z</time>
      </trkpt>
      <trkpt lat="44.45624" lon="6.52024">
        <ele>2438</ele>
        <time>2021-02-21T09:35:54Z</time>
      </trkpt>
      <trkpt lat="44.45623" lon="6.52023">
        <ele>2438</ele>
        <time>2021-02-21T09:35:55Z</time>
      </trkpt>
      <trkpt lat="44.45623" lon="6.52023">
        <ele>2437</ele>
        <time>2021-02-21T09:35:56Z</time>
      </trkpt>
      <trkpt lat="44.45623" lon="6.52023">
        <ele>2437</ele>
        <time>2021-02-21T09:35:57Z</time>
      </trkpt>
      <trkpt lat="44.45623" lon="6.52023">
        <ele>2436</ele>
        <time>2021-02-21T09:35:58Z</time>
      </trkpt>
      <trkpt lat="44.45623" lon="6.52023">
        <ele>2436</ele>
        <time>2021-02-21T09:35:59Z</time>
      </trkpt>
      <trkpt lat="44.45623" lon="6.52023">
        <ele>2436</ele>
        <time>2021-02-21T09:36:00Z</time>
      </trkpt>
      <trkpt lat="44.45623" lon="6.52023">
        <ele>2436</ele>
        <time>2021-02-21T09:36:01Z</time>
      </trkpt>
      <trkpt lat="44.45623" lon="6.52023">
        <ele>2436</ele>
        <time>2021-02-21T09:36:02Z</time>
      </trkpt>
      <trkpt lat="44.45623" lon="6.52023">
        <ele>2436</ele>
        <time>2021-02-21T09:36:03Z</time>
      </trkpt>
      <trkpt lat="44.45623" lon="6.52023">
        <ele>2436</ele>
        <time>2021-02-21T09:36:04Z</time>
      </trkpt>
      <trkpt lat="44.45623" lon="6.52023">
        <ele>2436</ele>
        <time>2021-02-21T09:36:05Z</time>
      </trkpt>
      <trkpt lat="44.45623" lon="6.52023">
        <ele>2436</ele>
        <time>2021-02-21T09:36:06Z</time>
      </trkpt>
      <trkpt lat="44.45623" lon="6.52023">
        <ele>2436</ele>
        <time>2021-02-21T09:36:07Z</time>
      </trkpt>
      <trkpt lat="44.45623" lon="6.52023">
        <ele>2436</ele>
        <time>2021-02-21T09:36:08Z</time>
      </trkpt>
      <trkpt lat="44.45623" lon="6.52023">
        <ele>2436</ele>
        <time>2021-02-21T09:36:09Z</time>
      </trkpt>
      <trkpt lat="44.45623" lon="6.52023">
        <ele>2436</ele>
        <time>2021-02-21T09:36:10Z</time>
      </trkpt>
      <trkpt lat="44.45623" lon="6.52023">
        <ele>2436</ele>
        <time>2021-02-21T09:36:11Z</time>
      </trkpt>
      <trkpt lat="44.45623" lon="6.52023">
        <ele>2436</ele>
        <time>2021-02-21T09:36:12Z</time>
      </trkpt>
      <trkpt lat="44.45623" lon="6.52023">
        <ele>2436</ele>
        <time>2021-02-21T09:36:13Z</time>
      </trkpt>
      <trkpt lat="44.45623" lon="6.52023">
        <ele>2436</ele>
        <time>2021-02-21T09:36:14Z</time>
      </trkpt>
      <trkpt lat="44.45623" lon="6.52023">
        <ele>2436</ele>
        <time>2021-02-21T09:36:15Z</time>
      </trkpt>
      <trkpt lat="44.45623" lon="6.52023">
        <ele>2436</ele>
        <time>2021-02-21T09:36:16Z</time>
      </trkpt>
      <trkpt lat="44.45623" lon="6.52023">
        <ele>2436</ele>
        <time>2021-02-21T09:36:17Z</time>
      </trkpt>
      <trkpt lat="44.45623" lon="6.52023">
        <ele>2436</ele>
        <time>2021-02-21T09:36:18Z</time>
      </trkpt>
      <trkpt lat="44.45623" lon="6.52023">
        <ele>2436</ele>
        <time>2021-02-21T09:36:19Z</time>
      </trkpt>
      <trkpt lat="44.45623" lon="6.52023">
        <ele>2436</ele>
        <time>2021-02-21T09:36:20Z</time>
      </trkpt>
      <trkpt lat="44.45623" lon="6.52023">
        <ele>2436</ele>
        <time>2021-02-21T09:36:21Z</time>
      </trkpt>
      <trkpt lat="44.45623" lon="6.52023">
        <ele>2436</ele>
        <time>2021-02-21T09:36:22Z</time>
      </trkpt>
      <trkpt lat="44.45623" lon="6.52023">
        <ele>2436</ele>
        <time>2021-02-21T09:36:23Z</time>
      </trkpt>
      <trkpt lat="44.45616" lon="6.52028">
        <ele>2436</ele>
        <time>2021-02-21T09:36:24Z</time>
      </trkpt>
      <trkpt lat="44.45616" lon="6.52033">
        <ele>2435</ele>
        <time>2021-02-21T09:36:25Z</time>
      </trkpt>
      <trkpt lat="44.45611" lon="6.52037">
        <ele>2434</ele>
        <time>2021-02-21T09:36:26Z</time>
      </trkpt>
      <trkpt lat="44.45606" lon="6.52039">
        <ele>2433</ele>
        <time>2021-02-21T09:36:27Z</time>
      </trkpt>
      <trkpt lat="44.45601" lon="6.52044">
        <ele>2432</ele>
        <time>2021-02-21T09:36:28Z</time>
      </trkpt>
      <trkpt lat="44.45598" lon="6.52049">
        <ele>2430</ele>
        <time>2021-02-21T09:36:29Z</time>
      </trkpt>
      <trkpt lat="44.45592" lon="6.52051">
        <ele>2429</ele>
        <time>2021-02-21T09:36:30Z</time>
      </trkpt>
      <trkpt lat="44.45586" lon="6.52053">
        <ele>2427</ele>
        <time>2021-02-21T09:36:31Z</time>
      </trkpt>
      <trkpt lat="44.45581" lon="6.52057">
        <ele>2425</ele>
        <time>2021-02-21T09:36:32Z</time>
      </trkpt>
      <trkpt lat="44.45577" lon="6.52062">
        <ele>2423</ele>
        <time>2021-02-21T09:36:33Z</time>
      </trkpt>
      <trkpt lat="44.45571" lon="6.52066">
        <ele>2421</ele>
        <time>2021-02-21T09:36:34Z</time>
      </trkpt>
      <trkpt lat="44.45562" lon="6.52067">
        <ele>2419</ele>
        <time>2021-02-21T09:36:35Z</time>
      </trkpt>
      <trkpt lat="44.45557" lon="6.52069">
        <ele>2416</ele>
        <time>2021-02-21T09:36:36Z</time>
      </trkpt>
      <trkpt lat="44.45557" lon="6.5208">
        <ele>2410</ele>
        <time>2021-02-21T09:36:37Z</time>
      </trkpt>
      <trkpt lat="44.45558" lon="6.52093">
        <ele>2405</ele>
        <time>2021-02-21T09:36:38Z</time>
      </trkpt>
      <trkpt lat="44.45561" lon="6.52103">
        <ele>2400</ele>
        <time>2021-02-21T09:36:39Z</time>
      </trkpt>
      <trkpt lat="44.45565" lon="6.52111">
        <ele>2397</ele>
        <time>2021-02-21T09:36:40Z</time>
      </trkpt>
      <trkpt lat="44.45567" lon="6.52116">
        <ele>2393</ele>
        <time>2021-02-21T09:36:41Z</time>
      </trkpt>
      <trkpt lat="44.45566" lon="6.5212">
        <ele>2393</ele>
        <time>2021-02-21T09:36:42Z</time>
      </trkpt>
      <trkpt lat="44.45566" lon="6.5212">
        <ele>2392</ele>
        <time>2021-02-21T09:36:43Z</time>
      </trkpt>
      <trkpt lat="44.45567" lon="6.52122">
        <ele>2389</ele>
        <time>2021-02-21T09:36:44Z</time>
      </trkpt>
      <trkpt lat="44.45566" lon="6.52126">
        <ele>2388</ele>
        <time>2021-02-21T09:36:45Z</time>
      </trkpt>
      <trkpt lat="44.45563" lon="6.5213">
        <ele>2385</ele>
        <time>2021-02-21T09:36:46Z</time>
      </trkpt>
      <trkpt lat="44.4556" lon="6.52131">
        <ele>2382</ele>
        <time>2021-02-21T09:36:47Z</time>
      </trkpt>
      <trkpt lat="44.45554" lon="6.52129">
        <ele>2379</ele>
        <time>2021-02-21T09:36:48Z</time>
      </trkpt>
      <trkpt lat="44.45549" lon="6.5213">
        <ele>2376</ele>
        <time>2021-02-21T09:36:49Z</time>
      </trkpt>
      <trkpt lat="44.45547" lon="6.52133">
        <ele>2373</ele>
        <time>2021-02-21T09:36:50Z</time>
      </trkpt>
      <trkpt lat="44.45546" lon="6.52138">
        <ele>2371</ele>
        <time>2021-02-21T09:36:51Z</time>
      </trkpt>
      <trkpt lat="44.45547" lon="6.52139">
        <ele>2367</ele>
        <time>2021-02-21T09:36:52Z</time>
      </trkpt>
      <trkpt lat="44.45547" lon="6.5214">
        <ele>2367</ele>
        <time>2021-02-21T09:36:53Z</time>
      </trkpt>
      <trkpt lat="44.45547" lon="6.5214">
        <ele>2367</ele>
        <time>2021-02-21T09:36:54Z</time>
      </trkpt>
      <trkpt lat="44.45547" lon="6.52139">
        <ele>2367</ele>
        <time>2021-02-21T09:36:55Z</time>
      </trkpt>
      <trkpt lat="44.45547" lon="6.52139">
        <ele>2367</ele>
        <time>2021-02-21T09:36:56Z</time>
      </trkpt>
      <trkpt lat="44.45547" lon="6.52139">
        <ele>2367</ele>
        <time>2021-02-21T09:36:57Z</time>
      </trkpt>
      <trkpt lat="44.45547" lon="6.52139">
        <ele>2367</ele>
        <time>2021-02-21T09:36:58Z</time>
      </trkpt>
      <trkpt lat="44.45547" lon="6.52139">
        <ele>2367</ele>
        <time>2021-02-21T09:36:59Z</time>
      </trkpt>
      <trkpt lat="44.45547" lon="6.52139">
        <ele>2367</ele>
        <time>2021-02-21T09:37:00Z</time>
      </trkpt>
      <trkpt lat="44.45547" lon="6.52139">
        <ele>2367</ele>
        <time>2021-02-21T09:37:01Z</time>
      </trkpt>
      <trkpt lat="44.45547" lon="6.52139">
        <ele>2367</ele>
        <time>2021-02-21T09:37:02Z</time>
      </trkpt>
      <trkpt lat="44.45547" lon="6.52139">
        <ele>2367</ele>
        <time>2021-02-21T09:37:03Z</time>
      </trkpt>
      <trkpt lat="44.45547" lon="6.52139">
        <ele>2367</ele>
        <time>2021-02-21T09:37:04Z</time>
      </trkpt>
      <trkpt lat="44.45547" lon="6.52139">
        <ele>2367</ele>
        <time>2021-02-21T09:37:05Z</time>
      </trkpt>
      <trkpt lat="44.45547" lon="6.52139">
        <ele>2367</ele>
        <time>2021-02-21T09:37:06Z</time>
      </trkpt>
      <trkpt lat="44.45547" lon="6.52139">
        <ele>2367</ele>
        <time>2021-02-21T09:37:07Z</time>
      </trkpt>
      <trkpt lat="44.45547" lon="6.52139">
        <ele>2367</ele>
        <time>2021-02-21T09:37:08Z</time>
      </trkpt>
      <trkpt lat="44.45547" lon="6.52139">
        <ele>2367</ele>
        <time>2021-02-21T09:37:09Z</time>
      </trkpt>
      <trkpt lat="44.45547" lon="6.52139">
        <ele>2367</ele>
        <time>2021-02-21T09:37:10Z</time>
      </trkpt>
      <trkpt lat="44.45547" lon="6.52139">
        <ele>2367</ele>
        <time>2021-02-21T09:37:11Z</time>
      </trkpt>
      <trkpt lat="44.45547" lon="6.52139">
        <ele>2367</ele>
        <time>2021-02-21T09:37:12Z</time>
      </trkpt>
      <trkpt lat="44.45547" lon="6.52139">
        <ele>2367</ele>
        <time>2021-02-21T09:37:13Z</time>
      </trkpt>
      <trkpt lat="44.45547" lon="6.52139">
        <ele>2367</ele>
        <time>2021-02-21T09:37:14Z</time>
      </trkpt>
      <trkpt lat="44.45547" lon="6.52139">
        <ele>2366</ele>
        <time>2021-02-21T09:37:15Z</time>
      </trkpt>
      <trkpt lat="44.45547" lon="6.52139">
        <ele>2366</ele>
        <time>2021-02-21T09:37:16Z</time>
      </trkpt>
      <trkpt lat="44.45547" lon="6.52139">
        <ele>2366</ele>
        <time>2021-02-21T09:37:17Z</time>
      </trkpt>
      <trkpt lat="44.45547" lon="6.52139">
        <ele>2366</ele>
        <time>2021-02-21T09:37:18Z</time>
      </trkpt>
      <trkpt lat="44.45547" lon="6.52139">
        <ele>2366</ele>
        <time>2021-02-21T09:37:19Z</time>
      </trkpt>
      <trkpt lat="44.45547" lon="6.52139">
        <ele>2366</ele>
        <time>2021-02-21T09:37:20Z</time>
      </trkpt>
      <trkpt lat="44.45547" lon="6.52139">
        <ele>2366</ele>
        <time>2021-02-21T09:37:21Z</time>
      </trkpt>
      <trkpt lat="44.45547" lon="6.52139">
        <ele>2366</ele>
        <time>2021-02-21T09:37:22Z</time>
      </trkpt>
      <trkpt lat="44.45547" lon="6.52139">
        <ele>2366</ele>
        <time>2021-02-21T09:37:23Z</time>
      </trkpt>
      <trkpt lat="44.45547" lon="6.52139">
        <ele>2366</ele>
        <time>2021-02-21T09:37:24Z</time>
      </trkpt>
      <trkpt lat="44.45547" lon="6.52139">
        <ele>2366</ele>
        <time>2021-02-21T09:37:25Z</time>
      </trkpt>
      <trkpt lat="44.45547" lon="6.52139">
        <ele>2366</ele>
        <time>2021-02-21T09:37:26Z</time>
      </trkpt>
      <trkpt lat="44.45547" lon="6.52139">
        <ele>2366</ele>
        <time>2021-02-21T09:37:27Z</time>
      </trkpt>
      <trkpt lat="44.45547" lon="6.52139">
        <ele>2366</ele>
        <time>2021-02-21T09:37:28Z</time>
      </trkpt>
      <trkpt lat="44.45547" lon="6.52139">
        <ele>2366</ele>
        <time>2021-02-21T09:37:29Z</time>
      </trkpt>
      <trkpt lat="44.45547" lon="6.52139">
        <ele>2366</ele>
        <time>2021-02-21T09:37:30Z</time>
      </trkpt>
      <trkpt lat="44.45547" lon="6.52139">
        <ele>2366</ele>
        <time>2021-02-21T09:37:31Z</time>
      </trkpt>
      <trkpt lat="44.45547" lon="6.52139">
        <ele>2366</ele>
        <time>2021-02-21T09:37:32Z</time>
      </trkpt>
      <trkpt lat="44.45547" lon="6.52139">
        <ele>2366</ele>
        <time>2021-02-21T09:37:33Z</time>
      </trkpt>
      <trkpt lat="44.45547" lon="6.52139">
        <ele>2366</ele>
        <time>2021-02-21T09:37:34Z</time>
      </trkpt>
      <trkpt lat="44.45547" lon="6.52139">
        <ele>2366</ele>
        <time>2021-02-21T09:37:35Z</time>
      </trkpt>
      <trkpt lat="44.45547" lon="6.52139">
        <ele>2366</ele>
        <time>2021-02-21T09:37:36Z</time>
      </trkpt>
      <trkpt lat="44.45547" lon="6.52139">
        <ele>2366</ele>
        <time>2021-02-21T09:37:37Z</time>
      </trkpt>
      <trkpt lat="44.45547" lon="6.52139">
        <ele>2366</ele>
        <time>2021-02-21T09:37:38Z</time>
      </trkpt>
      <trkpt lat="44.45547" lon="6.52139">
        <ele>2366</ele>
        <time>2021-02-21T09:37:39Z</time>
      </trkpt>
      <trkpt lat="44.45547" lon="6.52139">
        <ele>2366</ele>
        <time>2021-02-21T09:37:40Z</time>
      </trkpt>
      <trkpt lat="44.45547" lon="6.52139">
        <ele>2366</ele>
        <time>2021-02-21T09:37:41Z</time>
      </trkpt>
      <trkpt lat="44.45547" lon="6.52139">
        <ele>2366</ele>
        <time>2021-02-21T09:37:42Z</time>
      </trkpt>
      <trkpt lat="44.45547" lon="6.52139">
        <ele>2366</ele>
        <time>2021-02-21T09:37:43Z</time>
      </trkpt>
      <trkpt lat="44.45547" lon="6.52139">
        <ele>2366</ele>
        <time>2021-02-21T09:37:44Z</time>
      </trkpt>
      <trkpt lat="44.45547" lon="6.52139">
        <ele>2366</ele>
        <time>2021-02-21T09:37:45Z</time>
      </trkpt>
      <trkpt lat="44.45547" lon="6.52139">
        <ele>2366</ele>
        <time>2021-02-21T09:37:46Z</time>
      </trkpt>
      <trkpt lat="44.45547" lon="6.52139">
        <ele>2366</ele>
        <time>2021-02-21T09:37:47Z</time>
      </trkpt>
      <trkpt lat="44.45547" lon="6.52139">
        <ele>2366</ele>
        <time>2021-02-21T09:37:48Z</time>
      </trkpt>
      <trkpt lat="44.45547" lon="6.52139">
        <ele>2366</ele>
        <time>2021-02-21T09:37:49Z</time>
      </trkpt>
      <trkpt lat="44.45547" lon="6.52139">
        <ele>2366</ele>
        <time>2021-02-21T09:37:50Z</time>
      </trkpt>
      <trkpt lat="44.45547" lon="6.52139">
        <ele>2366</ele>
        <time>2021-02-21T09:37:51Z</time>
      </trkpt>
      <trkpt lat="44.45547" lon="6.52139">
        <ele>2366</ele>
        <time>2021-02-21T09:37:52Z</time>
      </trkpt>
      <trkpt lat="44.45547" lon="6.52139">
        <ele>2366</ele>
        <time>2021-02-21T09:37:53Z</time>
      </trkpt>
      <trkpt lat="44.45547" lon="6.52139">
        <ele>2366</ele>
        <time>2021-02-21T09:37:54Z</time>
      </trkpt>
      <trkpt lat="44.45547" lon="6.52139">
        <ele>2366</ele>
        <time>2021-02-21T09:37:55Z</time>
      </trkpt>
      <trkpt lat="44.45547" lon="6.52139">
        <ele>2366</ele>
        <time>2021-02-21T09:37:56Z</time>
      </trkpt>
      <trkpt lat="44.45547" lon="6.52139">
        <ele>2366</ele>
        <time>2021-02-21T09:37:57Z</time>
      </trkpt>
      <trkpt lat="44.45547" lon="6.52139">
        <ele>2366</ele>
        <time>2021-02-21T09:37:58Z</time>
      </trkpt>
      <trkpt lat="44.45547" lon="6.52139">
        <ele>2366</ele>
        <time>2021-02-21T09:37:59Z</time>
      </trkpt>
      <trkpt lat="44.45547" lon="6.52139">
        <ele>2366</ele>
        <time>2021-02-21T09:38:00Z</time>
      </trkpt>
      <trkpt lat="44.45547" lon="6.52139">
        <ele>2366</ele>
        <time>2021-02-21T09:38:01Z</time>
      </trkpt>
      <trkpt lat="44.45547" lon="6.52139">
        <ele>2366</ele>
        <time>2021-02-21T09:38:02Z</time>
      </trkpt>
      <trkpt lat="44.45547" lon="6.52139">
        <ele>2366</ele>
        <time>2021-02-21T09:38:03Z</time>
      </trkpt>
      <trkpt lat="44.45547" lon="6.52139">
        <ele>2366</ele>
        <time>2021-02-21T09:38:04Z</time>
      </trkpt>
      <trkpt lat="44.45547" lon="6.52139">
        <ele>2366</ele>
        <time>2021-02-21T09:38:05Z</time>
      </trkpt>
      <trkpt lat="44.45547" lon="6.52139">
        <ele>2366</ele>
        <time>2021-02-21T09:38:06Z</time>
      </trkpt>
      <trkpt lat="44.45547" lon="6.52139">
        <ele>2366</ele>
        <time>2021-02-21T09:38:07Z</time>
      </trkpt>
      <trkpt lat="44.45547" lon="6.52139">
        <ele>2366</ele>
        <time>2021-02-21T09:38:08Z</time>
      </trkpt>
      <trkpt lat="44.45547" lon="6.52139">
        <ele>2366</ele>
        <time>2021-02-21T09:38:09Z</time>
      </trkpt>
      <trkpt lat="44.45547" lon="6.52139">
        <ele>2366</ele>
        <time>2021-02-21T09:38:10Z</time>
      </trkpt>
      <trkpt lat="44.45547" lon="6.52139">
        <ele>2366</ele>
        <time>2021-02-21T09:38:11Z</time>
      </trkpt>
      <trkpt lat="44.45547" lon="6.52139">
        <ele>2366</ele>
        <time>2021-02-21T09:38:12Z</time>
      </trkpt>
      <trkpt lat="44.45547" lon="6.52139">
        <ele>2366</ele>
        <time>2021-02-21T09:38:13Z</time>
      </trkpt>
      <trkpt lat="44.45547" lon="6.52139">
        <ele>2366</ele>
        <time>2021-02-21T09:38:14Z</time>
      </trkpt>
      <trkpt lat="44.45547" lon="6.52139">
        <ele>2366</ele>
        <time>2021-02-21T09:38:15Z</time>
      </trkpt>
      <trkpt lat="44.45547" lon="6.52139">
        <ele>2366</ele>
        <time>2021-02-21T09:38:16Z</time>
      </trkpt>
      <trkpt lat="44.45547" lon="6.52139">
        <ele>2366</ele>
        <time>2021-02-21T09:38:17Z</time>
      </trkpt>
      <trkpt lat="44.45547" lon="6.52139">
        <ele>2366</ele>
        <time>2021-02-21T09:38:18Z</time>
      </trkpt>
      <trkpt lat="44.45547" lon="6.52139">
        <ele>2366</ele>
        <time>2021-02-21T09:38:19Z</time>
      </trkpt>
      <trkpt lat="44.45547" lon="6.52139">
        <ele>2366</ele>
        <time>2021-02-21T09:38:20Z</time>
      </trkpt>
      <trkpt lat="44.45547" lon="6.52139">
        <ele>2366</ele>
        <time>2021-02-21T09:38:21Z</time>
      </trkpt>
      <trkpt lat="44.45547" lon="6.52139">
        <ele>2366</ele>
        <time>2021-02-21T09:38:22Z</time>
      </trkpt>
      <trkpt lat="44.45547" lon="6.52139">
        <ele>2366</ele>
        <time>2021-02-21T09:38:23Z</time>
      </trkpt>
      <trkpt lat="44.45547" lon="6.52139">
        <ele>2366</ele>
        <time>2021-02-21T09:38:24Z</time>
      </trkpt>
      <trkpt lat="44.45547" lon="6.52139">
        <ele>2366</ele>
        <time>2021-02-21T09:38:25Z</time>
      </trkpt>
      <trkpt lat="44.45547" lon="6.52139">
        <ele>2366</ele>
        <time>2021-02-21T09:38:26Z</time>
      </trkpt>
      <trkpt lat="44.45547" lon="6.52139">
        <ele>2366</ele>
        <time>2021-02-21T09:38:27Z</time>
      </trkpt>
      <trkpt lat="44.45547" lon="6.52139">
        <ele>2366</ele>
        <time>2021-02-21T09:38:28Z</time>
      </trkpt>
      <trkpt lat="44.45547" lon="6.52139">
        <ele>2366</ele>
        <time>2021-02-21T09:38:29Z</time>
      </trkpt>
      <trkpt lat="44.45547" lon="6.52139">
        <ele>2366</ele>
        <time>2021-02-21T09:38:30Z</time>
      </trkpt>
      <trkpt lat="44.45547" lon="6.52139">
        <ele>2366</ele>
        <time>2021-02-21T09:38:31Z</time>
      </trkpt>
      <trkpt lat="44.45547" lon="6.52139">
        <ele>2366</ele>
        <time>2021-02-21T09:38:32Z</time>
      </trkpt>
      <trkpt lat="44.45547" lon="6.52139">
        <ele>2366</ele>
        <time>2021-02-21T09:38:33Z</time>
      </trkpt>
      <trkpt lat="44.45547" lon="6.52139">
        <ele>2366</ele>
        <time>2021-02-21T09:38:34Z</time>
      </trkpt>
      <trkpt lat="44.45547" lon="6.52139">
        <ele>2366</ele>
        <time>2021-02-21T09:38:35Z</time>
      </trkpt>
      <trkpt lat="44.45547" lon="6.52139">
        <ele>2366</ele>
        <time>2021-02-21T09:38:36Z</time>
      </trkpt>
      <trkpt lat="44.45547" lon="6.52139">
        <ele>2366</ele>
        <time>2021-02-21T09:38:37Z</time>
      </trkpt>
      <trkpt lat="44.45547" lon="6.52139">
        <ele>2366</ele>
        <time>2021-02-21T09:38:38Z</time>
      </trkpt>
      <trkpt lat="44.45547" lon="6.52139">
        <ele>2366</ele>
        <time>2021-02-21T09:38:39Z</time>
      </trkpt>
      <trkpt lat="44.45547" lon="6.52139">
        <ele>2366</ele>
        <time>2021-02-21T09:38:40Z</time>
      </trkpt>
      <trkpt lat="44.45547" lon="6.52139">
        <ele>2366</ele>
        <time>2021-02-21T09:38:41Z</time>
      </trkpt>
      <trkpt lat="44.45547" lon="6.52139">
        <ele>2366</ele>
        <time>2021-02-21T09:38:42Z</time>
      </trkpt>
      <trkpt lat="44.45547" lon="6.52139">
        <ele>2366</ele>
        <time>2021-02-21T09:38:43Z</time>
      </trkpt>
      <trkpt lat="44.45547" lon="6.52139">
        <ele>2366</ele>
        <time>2021-02-21T09:38:44Z</time>
      </trkpt>
      <trkpt lat="44.45547" lon="6.52139">
        <ele>2366</ele>
        <time>2021-02-21T09:38:45Z</time>
      </trkpt>
      <trkpt lat="44.45547" lon="6.52139">
        <ele>2366</ele>
        <time>2021-02-21T09:38:46Z</time>
      </trkpt>
      <trkpt lat="44.45547" lon="6.52139">
        <ele>2366</ele>
        <time>2021-02-21T09:38:47Z</time>
      </trkpt>
      <trkpt lat="44.45547" lon="6.52139">
        <ele>2366</ele>
        <time>2021-02-21T09:38:48Z</time>
      </trkpt>
      <trkpt lat="44.45547" lon="6.52139">
        <ele>2366</ele>
        <time>2021-02-21T09:38:49Z</time>
      </trkpt>
      <trkpt lat="44.45547" lon="6.52139">
        <ele>2366</ele>
        <time>2021-02-21T09:38:50Z</time>
      </trkpt>
      <trkpt lat="44.45547" lon="6.52139">
        <ele>2366</ele>
        <time>2021-02-21T09:38:51Z</time>
      </trkpt>
      <trkpt lat="44.45547" lon="6.52139">
        <ele>2366</ele>
        <time>2021-02-21T09:38:52Z</time>
      </trkpt>
      <trkpt lat="44.45547" lon="6.52139">
        <ele>2366</ele>
        <time>2021-02-21T09:38:53Z</time>
      </trkpt>
      <trkpt lat="44.45547" lon="6.52139">
        <ele>2366</ele>
        <time>2021-02-21T09:38:54Z</time>
      </trkpt>
      <trkpt lat="44.45547" lon="6.52139">
        <ele>2366</ele>
        <time>2021-02-21T09:38:55Z</time>
      </trkpt>
      <trkpt lat="44.45547" lon="6.52139">
        <ele>2366</ele>
        <time>2021-02-21T09:38:56Z</time>
      </trkpt>
      <trkpt lat="44.45547" lon="6.52139">
        <ele>2366</ele>
        <time>2021-02-21T09:38:57Z</time>
      </trkpt>
      <trkpt lat="44.45547" lon="6.52139">
        <ele>2366</ele>
        <time>2021-02-21T09:38:58Z</time>
      </trkpt>
      <trkpt lat="44.45547" lon="6.52139">
        <ele>2366</ele>
        <time>2021-02-21T09:38:59Z</time>
      </trkpt>
      <trkpt lat="44.45547" lon="6.52139">
        <ele>2366</ele>
        <time>2021-02-21T09:39:00Z</time>
      </trkpt>
      <trkpt lat="44.45547" lon="6.52139">
        <ele>2366</ele>
        <time>2021-02-21T09:39:01Z</time>
      </trkpt>
      <trkpt lat="44.45547" lon="6.52139">
        <ele>2366</ele>
        <time>2021-02-21T09:39:02Z</time>
      </trkpt>
      <trkpt lat="44.45547" lon="6.52139">
        <ele>2366</ele>
        <time>2021-02-21T09:39:03Z</time>
      </trkpt>
      <trkpt lat="44.45547" lon="6.52139">
        <ele>2366</ele>
        <time>2021-02-21T09:39:04Z</time>
      </trkpt>
      <trkpt lat="44.45547" lon="6.52139">
        <ele>2366</ele>
        <time>2021-02-21T09:39:05Z</time>
      </trkpt>
      <trkpt lat="44.45547" lon="6.52139">
        <ele>2366</ele>
        <time>2021-02-21T09:39:06Z</time>
      </trkpt>
      <trkpt lat="44.45547" lon="6.52139">
        <ele>2366</ele>
        <time>2021-02-21T09:39:07Z</time>
      </trkpt>
      <trkpt lat="44.45547" lon="6.52139">
        <ele>2366</ele>
        <time>2021-02-21T09:39:08Z</time>
      </trkpt>
      <trkpt lat="44.45547" lon="6.52139">
        <ele>2366</ele>
        <time>2021-02-21T09:39:09Z</time>
      </trkpt>
      <trkpt lat="44.45547" lon="6.52139">
        <ele>2366</ele>
        <time>2021-02-21T09:39:10Z</time>
      </trkpt>
      <trkpt lat="44.45547" lon="6.52139">
        <ele>2366</ele>
        <time>2021-02-21T09:39:11Z</time>
      </trkpt>
      <trkpt lat="44.45547" lon="6.52139">
        <ele>2366</ele>
        <time>2021-02-21T09:39:12Z</time>
      </trkpt>
      <trkpt lat="44.45547" lon="6.52139">
        <ele>2366</ele>
        <time>2021-02-21T09:39:13Z</time>
      </trkpt>
      <trkpt lat="44.45547" lon="6.52139">
        <ele>2366</ele>
        <time>2021-02-21T09:39:14Z</time>
      </trkpt>
      <trkpt lat="44.45547" lon="6.52139">
        <ele>2366</ele>
        <time>2021-02-21T09:39:15Z</time>
      </trkpt>
      <trkpt lat="44.45547" lon="6.52139">
        <ele>2366</ele>
        <time>2021-02-21T09:39:16Z</time>
      </trkpt>
      <trkpt lat="44.45547" lon="6.52139">
        <ele>2366</ele>
        <time>2021-02-21T09:39:17Z</time>
      </trkpt>
      <trkpt lat="44.45547" lon="6.52139">
        <ele>2366</ele>
        <time>2021-02-21T09:39:18Z</time>
      </trkpt>
      <trkpt lat="44.45547" lon="6.52139">
        <ele>2366</ele>
        <time>2021-02-21T09:39:19Z</time>
      </trkpt>
      <trkpt lat="44.45547" lon="6.52139">
        <ele>2366</ele>
        <time>2021-02-21T09:39:20Z</time>
      </trkpt>
      <trkpt lat="44.45547" lon="6.52139">
        <ele>2366</ele>
        <time>2021-02-21T09:39:21Z</time>
      </trkpt>
      <trkpt lat="44.45547" lon="6.52139">
        <ele>2366</ele>
        <time>2021-02-21T09:39:22Z</time>
      </trkpt>
      <trkpt lat="44.45547" lon="6.52139">
        <ele>2366</ele>
        <time>2021-02-21T09:39:23Z</time>
      </trkpt>
      <trkpt lat="44.45547" lon="6.52139">
        <ele>2366</ele>
        <time>2021-02-21T09:39:24Z</time>
      </trkpt>
      <trkpt lat="44.45547" lon="6.52139">
        <ele>2366</ele>
        <time>2021-02-21T09:39:25Z</time>
      </trkpt>
      <trkpt lat="44.45547" lon="6.52139">
        <ele>2366</ele>
        <time>2021-02-21T09:39:26Z</time>
      </trkpt>
      <trkpt lat="44.45547" lon="6.52139">
        <ele>2366</ele>
        <time>2021-02-21T09:39:27Z</time>
      </trkpt>
      <trkpt lat="44.45547" lon="6.52139">
        <ele>2366</ele>
        <time>2021-02-21T09:39:28Z</time>
      </trkpt>
      <trkpt lat="44.45547" lon="6.52139">
        <ele>2366</ele>
        <time>2021-02-21T09:39:29Z</time>
      </trkpt>
      <trkpt lat="44.45547" lon="6.52139">
        <ele>2366</ele>
        <time>2021-02-21T09:39:30Z</time>
      </trkpt>
      <trkpt lat="44.45547" lon="6.52139">
        <ele>2366</ele>
        <time>2021-02-21T09:39:31Z</time>
      </trkpt>
      <trkpt lat="44.45547" lon="6.52139">
        <ele>2366</ele>
        <time>2021-02-21T09:39:32Z</time>
      </trkpt>
      <trkpt lat="44.45547" lon="6.52139">
        <ele>2366</ele>
        <time>2021-02-21T09:39:33Z</time>
      </trkpt>
      <trkpt lat="44.45547" lon="6.52139">
        <ele>2366</ele>
        <time>2021-02-21T09:39:34Z</time>
      </trkpt>
      <trkpt lat="44.45547" lon="6.52139">
        <ele>2366</ele>
        <time>2021-02-21T09:39:35Z</time>
      </trkpt>
      <trkpt lat="44.45547" lon="6.52139">
        <ele>2366</ele>
        <time>2021-02-21T09:39:36Z</time>
      </trkpt>
      <trkpt lat="44.45547" lon="6.52139">
        <ele>2366</ele>
        <time>2021-02-21T09:39:37Z</time>
      </trkpt>
      <trkpt lat="44.45547" lon="6.52139">
        <ele>2366</ele>
        <time>2021-02-21T09:39:38Z</time>
      </trkpt>
      <trkpt lat="44.45547" lon="6.52139">
        <ele>2366</ele>
        <time>2021-02-21T09:39:39Z</time>
      </trkpt>
      <trkpt lat="44.45547" lon="6.52139">
        <ele>2366</ele>
        <time>2021-02-21T09:39:40Z</time>
      </trkpt>
      <trkpt lat="44.45547" lon="6.52139">
        <ele>2366</ele>
        <time>2021-02-21T09:39:41Z</time>
      </trkpt>
      <trkpt lat="44.45547" lon="6.52139">
        <ele>2366</ele>
        <time>2021-02-21T09:39:42Z</time>
      </trkpt>
      <trkpt lat="44.45547" lon="6.52139">
        <ele>2366</ele>
        <time>2021-02-21T09:39:43Z</time>
      </trkpt>
      <trkpt lat="44.45547" lon="6.52139">
        <ele>2366</ele>
        <time>2021-02-21T09:39:44Z</time>
      </trkpt>
      <trkpt lat="44.45547" lon="6.52139">
        <ele>2366</ele>
        <time>2021-02-21T09:39:45Z</time>
      </trkpt>
      <trkpt lat="44.45547" lon="6.52139">
        <ele>2366</ele>
        <time>2021-02-21T09:39:46Z</time>
      </trkpt>
      <trkpt lat="44.45547" lon="6.52139">
        <ele>2366</ele>
        <time>2021-02-21T09:39:47Z</time>
      </trkpt>
      <trkpt lat="44.45547" lon="6.52139">
        <ele>2366</ele>
        <time>2021-02-21T09:39:48Z</time>
      </trkpt>
      <trkpt lat="44.45547" lon="6.52139">
        <ele>2366</ele>
        <time>2021-02-21T09:39:49Z</time>
      </trkpt>
      <trkpt lat="44.45547" lon="6.52139">
        <ele>2366</ele>
        <time>2021-02-21T09:39:50Z</time>
      </trkpt>
      <trkpt lat="44.45547" lon="6.52139">
        <ele>2366</ele>
        <time>2021-02-21T09:39:51Z</time>
      </trkpt>
      <trkpt lat="44.45547" lon="6.52139">
        <ele>2366</ele>
        <time>2021-02-21T09:39:52Z</time>
      </trkpt>
      <trkpt lat="44.45547" lon="6.52139">
        <ele>2366</ele>
        <time>2021-02-21T09:39:53Z</time>
      </trkpt>
      <trkpt lat="44.45547" lon="6.52139">
        <ele>2366</ele>
        <time>2021-02-21T09:39:54Z</time>
      </trkpt>
      <trkpt lat="44.45547" lon="6.52139">
        <ele>2366</ele>
        <time>2021-02-21T09:39:55Z</time>
      </trkpt>
      <trkpt lat="44.45547" lon="6.52139">
        <ele>2366</ele>
        <time>2021-02-21T09:39:56Z</time>
      </trkpt>
      <trkpt lat="44.45547" lon="6.52139">
        <ele>2366</ele>
        <time>2021-02-21T09:39:57Z</time>
      </trkpt>
      <trkpt lat="44.45547" lon="6.52139">
        <ele>2366</ele>
        <time>2021-02-21T09:39:58Z</time>
      </trkpt>
      <trkpt lat="44.45547" lon="6.52139">
        <ele>2366</ele>
        <time>2021-02-21T09:39:59Z</time>
      </trkpt>
      <trkpt lat="44.45547" lon="6.52139">
        <ele>2366</ele>
        <time>2021-02-21T09:40:00Z</time>
      </trkpt>
      <trkpt lat="44.45547" lon="6.52139">
        <ele>2366</ele>
        <time>2021-02-21T09:40:01Z</time>
      </trkpt>
      <trkpt lat="44.45547" lon="6.52139">
        <ele>2366</ele>
        <time>2021-02-21T09:40:02Z</time>
      </trkpt>
      <trkpt lat="44.45547" lon="6.52139">
        <ele>2366</ele>
        <time>2021-02-21T09:40:03Z</time>
      </trkpt>
      <trkpt lat="44.45547" lon="6.52139">
        <ele>2366</ele>
        <time>2021-02-21T09:40:04Z</time>
      </trkpt>
      <trkpt lat="44.45547" lon="6.52139">
        <ele>2366</ele>
        <time>2021-02-21T09:40:05Z</time>
      </trkpt>
      <trkpt lat="44.45547" lon="6.52139">
        <ele>2366</ele>
        <time>2021-02-21T09:40:06Z</time>
      </trkpt>
      <trkpt lat="44.45547" lon="6.52139">
        <ele>2366</ele>
        <time>2021-02-21T09:40:07Z</time>
      </trkpt>
      <trkpt lat="44.45547" lon="6.52139">
        <ele>2366</ele>
        <time>2021-02-21T09:40:08Z</time>
      </trkpt>
      <trkpt lat="44.45547" lon="6.52139">
        <ele>2366</ele>
        <time>2021-02-21T09:40:09Z</time>
      </trkpt>
      <trkpt lat="44.45547" lon="6.52139">
        <ele>2366</ele>
        <time>2021-02-21T09:40:10Z</time>
      </trkpt>
      <trkpt lat="44.45547" lon="6.52139">
        <ele>2366</ele>
        <time>2021-02-21T09:40:11Z</time>
      </trkpt>
      <trkpt lat="44.45547" lon="6.52139">
        <ele>2366</ele>
        <time>2021-02-21T09:40:12Z</time>
      </trkpt>
      <trkpt lat="44.45547" lon="6.52139">
        <ele>2366</ele>
        <time>2021-02-21T09:40:13Z</time>
      </trkpt>
      <trkpt lat="44.45547" lon="6.52139">
        <ele>2366</ele>
        <time>2021-02-21T09:40:14Z</time>
      </trkpt>
      <trkpt lat="44.45547" lon="6.52139">
        <ele>2366</ele>
        <time>2021-02-21T09:40:15Z</time>
      </trkpt>
      <trkpt lat="44.45547" lon="6.52139">
        <ele>2366</ele>
        <time>2021-02-21T09:40:16Z</time>
      </trkpt>
      <trkpt lat="44.45547" lon="6.52139">
        <ele>2366</ele>
        <time>2021-02-21T09:40:17Z</time>
      </trkpt>
      <trkpt lat="44.45547" lon="6.52139">
        <ele>2366</ele>
        <time>2021-02-21T09:40:18Z</time>
      </trkpt>
      <trkpt lat="44.45547" lon="6.52139">
        <ele>2366</ele>
        <time>2021-02-21T09:40:19Z</time>
      </trkpt>
      <trkpt lat="44.45547" lon="6.52139">
        <ele>2366</ele>
        <time>2021-02-21T09:40:20Z</time>
      </trkpt>
      <trkpt lat="44.45547" lon="6.52139">
        <ele>2366</ele>
        <time>2021-02-21T09:40:21Z</time>
      </trkpt>
      <trkpt lat="44.45547" lon="6.52139">
        <ele>2366</ele>
        <time>2021-02-21T09:40:22Z</time>
      </trkpt>
      <trkpt lat="44.45547" lon="6.52139">
        <ele>2366</ele>
        <time>2021-02-21T09:40:23Z</time>
      </trkpt>
      <trkpt lat="44.45547" lon="6.52139">
        <ele>2366</ele>
        <time>2021-02-21T09:40:24Z</time>
      </trkpt>
      <trkpt lat="44.45547" lon="6.52139">
        <ele>2366</ele>
        <time>2021-02-21T09:40:25Z</time>
      </trkpt>
      <trkpt lat="44.45547" lon="6.52139">
        <ele>2366</ele>
        <time>2021-02-21T09:40:26Z</time>
      </trkpt>
      <trkpt lat="44.45547" lon="6.52139">
        <ele>2366</ele>
        <time>2021-02-21T09:40:27Z</time>
      </trkpt>
      <trkpt lat="44.45547" lon="6.52139">
        <ele>2366</ele>
        <time>2021-02-21T09:40:28Z</time>
      </trkpt>
      <trkpt lat="44.45547" lon="6.52139">
        <ele>2366</ele>
        <time>2021-02-21T09:40:29Z</time>
      </trkpt>
      <trkpt lat="44.45547" lon="6.52139">
        <ele>2366</ele>
        <time>2021-02-21T09:40:30Z</time>
      </trkpt>
      <trkpt lat="44.45547" lon="6.52139">
        <ele>2366</ele>
        <time>2021-02-21T09:40:31Z</time>
      </trkpt>
      <trkpt lat="44.45547" lon="6.52139">
        <ele>2366</ele>
        <time>2021-02-21T09:40:32Z</time>
      </trkpt>
      <trkpt lat="44.45547" lon="6.52139">
        <ele>2366</ele>
        <time>2021-02-21T09:40:33Z</time>
      </trkpt>
      <trkpt lat="44.45547" lon="6.52139">
        <ele>2366</ele>
        <time>2021-02-21T09:40:34Z</time>
      </trkpt>
      <trkpt lat="44.45547" lon="6.52139">
        <ele>2366</ele>
        <time>2021-02-21T09:40:35Z</time>
      </trkpt>
      <trkpt lat="44.45547" lon="6.52139">
        <ele>2366</ele>
        <time>2021-02-21T09:40:36Z</time>
      </trkpt>
      <trkpt lat="44.45547" lon="6.52139">
        <ele>2366</ele>
        <time>2021-02-21T09:40:37Z</time>
      </trkpt>
      <trkpt lat="44.45547" lon="6.52139">
        <ele>2366</ele>
        <time>2021-02-21T09:40:38Z</time>
      </trkpt>
      <trkpt lat="44.45547" lon="6.52139">
        <ele>2366</ele>
        <time>2021-02-21T09:40:39Z</time>
      </trkpt>
      <trkpt lat="44.45547" lon="6.52139">
        <ele>2366</ele>
        <time>2021-02-21T09:40:40Z</time>
      </trkpt>
      <trkpt lat="44.45547" lon="6.52139">
        <ele>2366</ele>
        <time>2021-02-21T09:40:41Z</time>
      </trkpt>
      <trkpt lat="44.45547" lon="6.52139">
        <ele>2366</ele>
        <time>2021-02-21T09:40:42Z</time>
      </trkpt>
      <trkpt lat="44.45547" lon="6.52139">
        <ele>2366</ele>
        <time>2021-02-21T09:40:43Z</time>
      </trkpt>
      <trkpt lat="44.45547" lon="6.52139">
        <ele>2366</ele>
        <time>2021-02-21T09:40:44Z</time>
      </trkpt>
      <trkpt lat="44.45547" lon="6.52139">
        <ele>2366</ele>
        <time>2021-02-21T09:40:45Z</time>
      </trkpt>
      <trkpt lat="44.45547" lon="6.52139">
        <ele>2366</ele>
        <time>2021-02-21T09:40:46Z</time>
      </trkpt>
      <trkpt lat="44.45547" lon="6.52139">
        <ele>2366</ele>
        <time>2021-02-21T09:40:47Z</time>
      </trkpt>
      <trkpt lat="44.45548" lon="6.52147">
        <ele>2367</ele>
        <time>2021-02-21T09:40:48Z</time>
      </trkpt>
      <trkpt lat="44.45547" lon="6.52147">
        <ele>2367</ele>
        <time>2021-02-21T09:40:49Z</time>
      </trkpt>
      <trkpt lat="44.45547" lon="6.52148">
        <ele>2367</ele>
        <time>2021-02-21T09:40:50Z</time>
      </trkpt>
      <trkpt lat="44.45547" lon="6.52148">
        <ele>2367</ele>
        <time>2021-02-21T09:40:51Z</time>
      </trkpt>
      <trkpt lat="44.45547" lon="6.52149">
        <ele>2368</ele>
        <time>2021-02-21T09:40:52Z</time>
      </trkpt>
      <trkpt lat="44.45547" lon="6.52148">
        <ele>2368</ele>
        <time>2021-02-21T09:40:53Z</time>
      </trkpt>
      <trkpt lat="44.45547" lon="6.52148">
        <ele>2368</ele>
        <time>2021-02-21T09:40:54Z</time>
      </trkpt>
      <trkpt lat="44.45547" lon="6.52148">
        <ele>2369</ele>
        <time>2021-02-21T09:40:55Z</time>
      </trkpt>
      <trkpt lat="44.45547" lon="6.52148">
        <ele>2369</ele>
        <time>2021-02-21T09:40:56Z</time>
      </trkpt>
      <trkpt lat="44.45547" lon="6.52148">
        <ele>2369</ele>
        <time>2021-02-21T09:40:57Z</time>
      </trkpt>
      <trkpt lat="44.45547" lon="6.52148">
        <ele>2369</ele>
        <time>2021-02-21T09:40:58Z</time>
      </trkpt>
      <trkpt lat="44.45547" lon="6.52148">
        <ele>2369</ele>
        <time>2021-02-21T09:40:59Z</time>
      </trkpt>
      <trkpt lat="44.45547" lon="6.52148">
        <ele>2369</ele>
        <time>2021-02-21T09:41:00Z</time>
      </trkpt>
      <trkpt lat="44.45547" lon="6.52148">
        <ele>2369</ele>
        <time>2021-02-21T09:41:01Z</time>
      </trkpt>
      <trkpt lat="44.45547" lon="6.52148">
        <ele>2369</ele>
        <time>2021-02-21T09:41:02Z</time>
      </trkpt>
      <trkpt lat="44.45547" lon="6.52148">
        <ele>2369</ele>
        <time>2021-02-21T09:41:03Z</time>
      </trkpt>
      <trkpt lat="44.45547" lon="6.52148">
        <ele>2369</ele>
        <time>2021-02-21T09:41:04Z</time>
      </trkpt>
      <trkpt lat="44.45547" lon="6.52148">
        <ele>2369</ele>
        <time>2021-02-21T09:41:05Z</time>
      </trkpt>
      <trkpt lat="44.45547" lon="6.52148">
        <ele>2369</ele>
        <time>2021-02-21T09:41:06Z</time>
      </trkpt>
      <trkpt lat="44.45547" lon="6.52148">
        <ele>2369</ele>
        <time>2021-02-21T09:41:07Z</time>
      </trkpt>
      <trkpt lat="44.45547" lon="6.52148">
        <ele>2369</ele>
        <time>2021-02-21T09:41:08Z</time>
      </trkpt>
      <trkpt lat="44.45547" lon="6.52148">
        <ele>2370</ele>
        <time>2021-02-21T09:41:09Z</time>
      </trkpt>
      <trkpt lat="44.45547" lon="6.52148">
        <ele>2370</ele>
        <time>2021-02-21T09:41:10Z</time>
      </trkpt>
      <trkpt lat="44.45547" lon="6.52148">
        <ele>2370</ele>
        <time>2021-02-21T09:41:11Z</time>
      </trkpt>
      <trkpt lat="44.45547" lon="6.52148">
        <ele>2370</ele>
        <time>2021-02-21T09:41:12Z</time>
      </trkpt>
      <trkpt lat="44.45547" lon="6.52148">
        <ele>2370</ele>
        <time>2021-02-21T09:41:13Z</time>
      </trkpt>
      <trkpt lat="44.45547" lon="6.52148">
        <ele>2370</ele>
        <time>2021-02-21T09:41:14Z</time>
      </trkpt>
      <trkpt lat="44.45547" lon="6.52148">
        <ele>2370</ele>
        <time>2021-02-21T09:41:15Z</time>
      </trkpt>
      <trkpt lat="44.45547" lon="6.52148">
        <ele>2370</ele>
        <time>2021-02-21T09:41:16Z</time>
      </trkpt>
      <trkpt lat="44.45547" lon="6.52148">
        <ele>2370</ele>
        <time>2021-02-21T09:41:17Z</time>
      </trkpt>
      <trkpt lat="44.45547" lon="6.52148">
        <ele>2370</ele>
        <time>2021-02-21T09:41:18Z</time>
      </trkpt>
      <trkpt lat="44.45547" lon="6.52148">
        <ele>2370</ele>
        <time>2021-02-21T09:41:19Z</time>
      </trkpt>
      <trkpt lat="44.45547" lon="6.52148">
        <ele>2370</ele>
        <time>2021-02-21T09:41:20Z</time>
      </trkpt>
      <trkpt lat="44.45547" lon="6.52148">
        <ele>2370</ele>
        <time>2021-02-21T09:41:21Z</time>
      </trkpt>
      <trkpt lat="44.45548" lon="6.52146">
        <ele>2370</ele>
        <time>2021-02-21T09:41:22Z</time>
      </trkpt>
      <trkpt lat="44.45548" lon="6.52149">
        <ele>2370</ele>
        <time>2021-02-21T09:41:23Z</time>
      </trkpt>
      <trkpt lat="44.45548" lon="6.52154">
        <ele>2368</ele>
        <time>2021-02-21T09:41:24Z</time>
      </trkpt>
      <trkpt lat="44.45546" lon="6.52159">
        <ele>2367</ele>
        <time>2021-02-21T09:41:25Z</time>
      </trkpt>
      <trkpt lat="44.45543" lon="6.52163">
        <ele>2367</ele>
        <time>2021-02-21T09:41:26Z</time>
      </trkpt>
      <trkpt lat="44.45537" lon="6.52167">
        <ele>2366</ele>
        <time>2021-02-21T09:41:27Z</time>
      </trkpt>
      <trkpt lat="44.45532" lon="6.52174">
        <ele>2364</ele>
        <time>2021-02-21T09:41:28Z</time>
      </trkpt>
      <trkpt lat="44.45529" lon="6.52183">
        <ele>2362</ele>
        <time>2021-02-21T09:41:29Z</time>
      </trkpt>
      <trkpt lat="44.45525" lon="6.52192">
        <ele>2360</ele>
        <time>2021-02-21T09:41:30Z</time>
      </trkpt>
      <trkpt lat="44.45517" lon="6.52195">
        <ele>2357</ele>
        <time>2021-02-21T09:41:31Z</time>
      </trkpt>
      <trkpt lat="44.45509" lon="6.52198">
        <ele>2355</ele>
        <time>2021-02-21T09:41:32Z</time>
      </trkpt>
      <trkpt lat="44.45503" lon="6.52204">
        <ele>2353</ele>
        <time>2021-02-21T09:41:33Z</time>
      </trkpt>
      <trkpt lat="44.45498" lon="6.52213">
        <ele>2351</ele>
        <time>2021-02-21T09:41:34Z</time>
      </trkpt>
      <trkpt lat="44.45494" lon="6.52221">
        <ele>2348</ele>
        <time>2021-02-21T09:41:35Z</time>
      </trkpt>
      <trkpt lat="44.45486" lon="6.5223">
        <ele>2346</ele>
        <time>2021-02-21T09:41:36Z</time>
      </trkpt>
      <trkpt lat="44.45473" lon="6.52233">
        <ele>2343</ele>
        <time>2021-02-21T09:41:37Z</time>
      </trkpt>
      <trkpt lat="44.45461" lon="6.5224">
        <ele>2342</ele>
        <time>2021-02-21T09:41:38Z</time>
      </trkpt>
      <trkpt lat="44.45451" lon="6.52248">
        <ele>2341</ele>
        <time>2021-02-21T09:41:39Z</time>
      </trkpt>
      <trkpt lat="44.45446" lon="6.52258">
        <ele>2340</ele>
        <time>2021-02-21T09:41:40Z</time>
      </trkpt>
      <trkpt lat="44.45441" lon="6.52272">
        <ele>2339</ele>
        <time>2021-02-21T09:41:41Z</time>
      </trkpt>
      <trkpt lat="44.45438" lon="6.52289">
        <ele>2337</ele>
        <time>2021-02-21T09:41:42Z</time>
      </trkpt>
      <trkpt lat="44.45438" lon="6.52307">
        <ele>2336</ele>
        <time>2021-02-21T09:41:43Z</time>
      </trkpt>
      <trkpt lat="44.45443" lon="6.52319">
        <ele>2334</ele>
        <time>2021-02-21T09:41:44Z</time>
      </trkpt>
      <trkpt lat="44.45448" lon="6.5233">
        <ele>2332</ele>
        <time>2021-02-21T09:41:45Z</time>
      </trkpt>
      <trkpt lat="44.45452" lon="6.52336">
        <ele>2330</ele>
        <time>2021-02-21T09:41:46Z</time>
      </trkpt>
      <trkpt lat="44.45459" lon="6.5234">
        <ele>2328</ele>
        <time>2021-02-21T09:41:47Z</time>
      </trkpt>
      <trkpt lat="44.45464" lon="6.52344">
        <ele>2326</ele>
        <time>2021-02-21T09:41:48Z</time>
      </trkpt>
      <trkpt lat="44.45469" lon="6.52347">
        <ele>2323</ele>
        <time>2021-02-21T09:41:49Z</time>
      </trkpt>
      <trkpt lat="44.45474" lon="6.5235">
        <ele>2320</ele>
        <time>2021-02-21T09:41:50Z</time>
      </trkpt>
      <trkpt lat="44.45477" lon="6.52352">
        <ele>2318</ele>
        <time>2021-02-21T09:41:51Z</time>
      </trkpt>
      <trkpt lat="44.4548" lon="6.52353">
        <ele>2315</ele>
        <time>2021-02-21T09:41:52Z</time>
      </trkpt>
      <trkpt lat="44.45481" lon="6.52354">
        <ele>2314</ele>
        <time>2021-02-21T09:41:53Z</time>
      </trkpt>
      <trkpt lat="44.45482" lon="6.52354">
        <ele>2312</ele>
        <time>2021-02-21T09:41:54Z</time>
      </trkpt>
      <trkpt lat="44.45481" lon="6.52354">
        <ele>2312</ele>
        <time>2021-02-21T09:41:55Z</time>
      </trkpt>
      <trkpt lat="44.45481" lon="6.52354">
        <ele>2312</ele>
        <time>2021-02-21T09:41:56Z</time>
      </trkpt>
      <trkpt lat="44.45481" lon="6.52354">
        <ele>2312</ele>
        <time>2021-02-21T09:41:57Z</time>
      </trkpt>
      <trkpt lat="44.45481" lon="6.52354">
        <ele>2312</ele>
        <time>2021-02-21T09:41:58Z</time>
      </trkpt>
      <trkpt lat="44.45481" lon="6.52354">
        <ele>2312</ele>
        <time>2021-02-21T09:41:59Z</time>
      </trkpt>
      <trkpt lat="44.45481" lon="6.52354">
        <ele>2311</ele>
        <time>2021-02-21T09:42:00Z</time>
      </trkpt>
      <trkpt lat="44.45481" lon="6.52354">
        <ele>2311</ele>
        <time>2021-02-21T09:42:01Z</time>
      </trkpt>
      <trkpt lat="44.45481" lon="6.52354">
        <ele>2311</ele>
        <time>2021-02-21T09:42:02Z</time>
      </trkpt>
      <trkpt lat="44.45481" lon="6.52354">
        <ele>2311</ele>
        <time>2021-02-21T09:42:03Z</time>
      </trkpt>
      <trkpt lat="44.45481" lon="6.52354">
        <ele>2311</ele>
        <time>2021-02-21T09:42:04Z</time>
      </trkpt>
      <trkpt lat="44.45481" lon="6.52354">
        <ele>2311</ele>
        <time>2021-02-21T09:42:05Z</time>
      </trkpt>
      <trkpt lat="44.45481" lon="6.52354">
        <ele>2311</ele>
        <time>2021-02-21T09:42:06Z</time>
      </trkpt>
      <trkpt lat="44.45481" lon="6.52354">
        <ele>2311</ele>
        <time>2021-02-21T09:42:07Z</time>
      </trkpt>
      <trkpt lat="44.45481" lon="6.52354">
        <ele>2311</ele>
        <time>2021-02-21T09:42:08Z</time>
      </trkpt>
      <trkpt lat="44.45481" lon="6.52354">
        <ele>2311</ele>
        <time>2021-02-21T09:42:09Z</time>
      </trkpt>
      <trkpt lat="44.45481" lon="6.52354">
        <ele>2311</ele>
        <time>2021-02-21T09:42:10Z</time>
      </trkpt>
      <trkpt lat="44.45481" lon="6.52354">
        <ele>2311</ele>
        <time>2021-02-21T09:42:11Z</time>
      </trkpt>
      <trkpt lat="44.45481" lon="6.52354">
        <ele>2311</ele>
        <time>2021-02-21T09:42:12Z</time>
      </trkpt>
      <trkpt lat="44.45481" lon="6.52354">
        <ele>2311</ele>
        <time>2021-02-21T09:42:13Z</time>
      </trkpt>
      <trkpt lat="44.45481" lon="6.52354">
        <ele>2311</ele>
        <time>2021-02-21T09:42:14Z</time>
      </trkpt>
      <trkpt lat="44.45481" lon="6.52354">
        <ele>2311</ele>
        <time>2021-02-21T09:42:15Z</time>
      </trkpt>
      <trkpt lat="44.45481" lon="6.52354">
        <ele>2311</ele>
        <time>2021-02-21T09:42:16Z</time>
      </trkpt>
      <trkpt lat="44.45481" lon="6.52354">
        <ele>2311</ele>
        <time>2021-02-21T09:42:17Z</time>
      </trkpt>
      <trkpt lat="44.45481" lon="6.52354">
        <ele>2311</ele>
        <time>2021-02-21T09:42:18Z</time>
      </trkpt>
      <trkpt lat="44.45481" lon="6.52354">
        <ele>2311</ele>
        <time>2021-02-21T09:42:19Z</time>
      </trkpt>
      <trkpt lat="44.45481" lon="6.52354">
        <ele>2311</ele>
        <time>2021-02-21T09:42:20Z</time>
      </trkpt>
      <trkpt lat="44.45481" lon="6.52354">
        <ele>2311</ele>
        <time>2021-02-21T09:42:21Z</time>
      </trkpt>
      <trkpt lat="44.45481" lon="6.52354">
        <ele>2311</ele>
        <time>2021-02-21T09:42:22Z</time>
      </trkpt>
      <trkpt lat="44.45481" lon="6.52354">
        <ele>2311</ele>
        <time>2021-02-21T09:42:23Z</time>
      </trkpt>
      <trkpt lat="44.45481" lon="6.52354">
        <ele>2311</ele>
        <time>2021-02-21T09:42:24Z</time>
      </trkpt>
      <trkpt lat="44.45481" lon="6.52354">
        <ele>2311</ele>
        <time>2021-02-21T09:42:25Z</time>
      </trkpt>
      <trkpt lat="44.45481" lon="6.52354">
        <ele>2311</ele>
        <time>2021-02-21T09:42:26Z</time>
      </trkpt>
      <trkpt lat="44.45481" lon="6.52354">
        <ele>2311</ele>
        <time>2021-02-21T09:42:27Z</time>
      </trkpt>
      <trkpt lat="44.45481" lon="6.52354">
        <ele>2311</ele>
        <time>2021-02-21T09:42:28Z</time>
      </trkpt>
      <trkpt lat="44.45481" lon="6.52354">
        <ele>2311</ele>
        <time>2021-02-21T09:42:29Z</time>
      </trkpt>
      <trkpt lat="44.45481" lon="6.52354">
        <ele>2311</ele>
        <time>2021-02-21T09:42:30Z</time>
      </trkpt>
      <trkpt lat="44.45481" lon="6.52354">
        <ele>2311</ele>
        <time>2021-02-21T09:42:31Z</time>
      </trkpt>
      <trkpt lat="44.45481" lon="6.52354">
        <ele>2311</ele>
        <time>2021-02-21T09:42:32Z</time>
      </trkpt>
      <trkpt lat="44.45481" lon="6.52354">
        <ele>2311</ele>
        <time>2021-02-21T09:42:33Z</time>
      </trkpt>
      <trkpt lat="44.45481" lon="6.52354">
        <ele>2311</ele>
        <time>2021-02-21T09:42:34Z</time>
      </trkpt>
      <trkpt lat="44.45481" lon="6.52354">
        <ele>2311</ele>
        <time>2021-02-21T09:42:35Z</time>
      </trkpt>
      <trkpt lat="44.45481" lon="6.52354">
        <ele>2311</ele>
        <time>2021-02-21T09:42:36Z</time>
      </trkpt>
      <trkpt lat="44.45481" lon="6.52354">
        <ele>2311</ele>
        <time>2021-02-21T09:42:37Z</time>
      </trkpt>
      <trkpt lat="44.45481" lon="6.52354">
        <ele>2311</ele>
        <time>2021-02-21T09:42:38Z</time>
      </trkpt>
      <trkpt lat="44.45481" lon="6.52354">
        <ele>2311</ele>
        <time>2021-02-21T09:42:39Z</time>
      </trkpt>
      <trkpt lat="44.45481" lon="6.52354">
        <ele>2311</ele>
        <time>2021-02-21T09:42:40Z</time>
      </trkpt>
      <trkpt lat="44.45481" lon="6.52354">
        <ele>2311</ele>
        <time>2021-02-21T09:42:41Z</time>
      </trkpt>
      <trkpt lat="44.45481" lon="6.52354">
        <ele>2311</ele>
        <time>2021-02-21T09:42:42Z</time>
      </trkpt>
      <trkpt lat="44.45481" lon="6.52354">
        <ele>2311</ele>
        <time>2021-02-21T09:42:43Z</time>
      </trkpt>
      <trkpt lat="44.45481" lon="6.52354">
        <ele>2311</ele>
        <time>2021-02-21T09:42:44Z</time>
      </trkpt>
      <trkpt lat="44.45481" lon="6.52354">
        <ele>2311</ele>
        <time>2021-02-21T09:42:45Z</time>
      </trkpt>
      <trkpt lat="44.45481" lon="6.52354">
        <ele>2311</ele>
        <time>2021-02-21T09:42:46Z</time>
      </trkpt>
      <trkpt lat="44.45481" lon="6.52354">
        <ele>2311</ele>
        <time>2021-02-21T09:42:47Z</time>
      </trkpt>
      <trkpt lat="44.45481" lon="6.52354">
        <ele>2311</ele>
        <time>2021-02-21T09:42:48Z</time>
      </trkpt>
      <trkpt lat="44.45481" lon="6.52354">
        <ele>2311</ele>
        <time>2021-02-21T09:42:49Z</time>
      </trkpt>
      <trkpt lat="44.45481" lon="6.52354">
        <ele>2311</ele>
        <time>2021-02-21T09:42:50Z</time>
      </trkpt>
      <trkpt lat="44.45481" lon="6.52354">
        <ele>2311</ele>
        <time>2021-02-21T09:42:51Z</time>
      </trkpt>
      <trkpt lat="44.45481" lon="6.52354">
        <ele>2311</ele>
        <time>2021-02-21T09:42:52Z</time>
      </trkpt>
      <trkpt lat="44.45481" lon="6.52354">
        <ele>2311</ele>
        <time>2021-02-21T09:42:53Z</time>
      </trkpt>
      <trkpt lat="44.45481" lon="6.52354">
        <ele>2311</ele>
        <time>2021-02-21T09:42:54Z</time>
      </trkpt>
      <trkpt lat="44.45481" lon="6.52354">
        <ele>2311</ele>
        <time>2021-02-21T09:42:55Z</time>
      </trkpt>
      <trkpt lat="44.45481" lon="6.52354">
        <ele>2311</ele>
        <time>2021-02-21T09:42:56Z</time>
      </trkpt>
      <trkpt lat="44.45481" lon="6.52354">
        <ele>2311</ele>
        <time>2021-02-21T09:42:57Z</time>
      </trkpt>
      <trkpt lat="44.45481" lon="6.52354">
        <ele>2311</ele>
        <time>2021-02-21T09:42:58Z</time>
      </trkpt>
      <trkpt lat="44.45481" lon="6.52354">
        <ele>2311</ele>
        <time>2021-02-21T09:42:59Z</time>
      </trkpt>
      <trkpt lat="44.45481" lon="6.52354">
        <ele>2311</ele>
        <time>2021-02-21T09:43:00Z</time>
      </trkpt>
      <trkpt lat="44.45481" lon="6.52354">
        <ele>2311</ele>
        <time>2021-02-21T09:43:01Z</time>
      </trkpt>
      <trkpt lat="44.45481" lon="6.52354">
        <ele>2311</ele>
        <time>2021-02-21T09:43:02Z</time>
      </trkpt>
      <trkpt lat="44.45481" lon="6.52354">
        <ele>2311</ele>
        <time>2021-02-21T09:43:03Z</time>
      </trkpt>
      <trkpt lat="44.45481" lon="6.52354">
        <ele>2311</ele>
        <time>2021-02-21T09:43:04Z</time>
      </trkpt>
      <trkpt lat="44.45481" lon="6.52354">
        <ele>2311</ele>
        <time>2021-02-21T09:43:05Z</time>
      </trkpt>
      <trkpt lat="44.45481" lon="6.52354">
        <ele>2311</ele>
        <time>2021-02-21T09:43:06Z</time>
      </trkpt>
      <trkpt lat="44.45481" lon="6.52354">
        <ele>2311</ele>
        <time>2021-02-21T09:43:07Z</time>
      </trkpt>
      <trkpt lat="44.45481" lon="6.52354">
        <ele>2311</ele>
        <time>2021-02-21T09:43:08Z</time>
      </trkpt>
      <trkpt lat="44.45481" lon="6.52354">
        <ele>2311</ele>
        <time>2021-02-21T09:43:09Z</time>
      </trkpt>
      <trkpt lat="44.45481" lon="6.52354">
        <ele>2311</ele>
        <time>2021-02-21T09:43:10Z</time>
      </trkpt>
      <trkpt lat="44.45481" lon="6.52354">
        <ele>2311</ele>
        <time>2021-02-21T09:43:11Z</time>
      </trkpt>
      <trkpt lat="44.45481" lon="6.52354">
        <ele>2311</ele>
        <time>2021-02-21T09:43:12Z</time>
      </trkpt>
      <trkpt lat="44.45481" lon="6.52354">
        <ele>2311</ele>
        <time>2021-02-21T09:43:13Z</time>
      </trkpt>
      <trkpt lat="44.45481" lon="6.52354">
        <ele>2311</ele>
        <time>2021-02-21T09:43:14Z</time>
      </trkpt>
      <trkpt lat="44.45481" lon="6.52354">
        <ele>2311</ele>
        <time>2021-02-21T09:43:15Z</time>
      </trkpt>
      <trkpt lat="44.45481" lon="6.52354">
        <ele>2311</ele>
        <time>2021-02-21T09:43:16Z</time>
      </trkpt>
      <trkpt lat="44.45481" lon="6.52354">
        <ele>2311</ele>
        <time>2021-02-21T09:43:17Z</time>
      </trkpt>
      <trkpt lat="44.45481" lon="6.52354">
        <ele>2311</ele>
        <time>2021-02-21T09:43:18Z</time>
      </trkpt>
      <trkpt lat="44.45481" lon="6.52354">
        <ele>2311</ele>
        <time>2021-02-21T09:43:19Z</time>
      </trkpt>
      <trkpt lat="44.45481" lon="6.52354">
        <ele>2311</ele>
        <time>2021-02-21T09:43:20Z</time>
      </trkpt>
      <trkpt lat="44.45481" lon="6.52354">
        <ele>2311</ele>
        <time>2021-02-21T09:43:21Z</time>
      </trkpt>
      <trkpt lat="44.45481" lon="6.52354">
        <ele>2311</ele>
        <time>2021-02-21T09:43:22Z</time>
      </trkpt>
      <trkpt lat="44.45481" lon="6.52354">
        <ele>2311</ele>
        <time>2021-02-21T09:43:23Z</time>
      </trkpt>
      <trkpt lat="44.45481" lon="6.52354">
        <ele>2311</ele>
        <time>2021-02-21T09:43:24Z</time>
      </trkpt>
      <trkpt lat="44.45481" lon="6.52354">
        <ele>2311</ele>
        <time>2021-02-21T09:43:25Z</time>
      </trkpt>
      <trkpt lat="44.45481" lon="6.52354">
        <ele>2311</ele>
        <time>2021-02-21T09:43:26Z</time>
      </trkpt>
      <trkpt lat="44.45481" lon="6.52354">
        <ele>2311</ele>
        <time>2021-02-21T09:43:27Z</time>
      </trkpt>
      <trkpt lat="44.45481" lon="6.52354">
        <ele>2311</ele>
        <time>2021-02-21T09:43:28Z</time>
      </trkpt>
      <trkpt lat="44.45487" lon="6.52355">
        <ele>2307</ele>
        <time>2021-02-21T09:43:29Z</time>
      </trkpt>
      <trkpt lat="44.45489" lon="6.52358">
        <ele>2305</ele>
        <time>2021-02-21T09:43:30Z</time>
      </trkpt>
      <trkpt lat="44.4549" lon="6.52361">
        <ele>2304</ele>
        <time>2021-02-21T09:43:31Z</time>
      </trkpt>
      <trkpt lat="44.45492" lon="6.52364">
        <ele>2304</ele>
        <time>2021-02-21T09:43:32Z</time>
      </trkpt>
      <trkpt lat="44.45495" lon="6.52368">
        <ele>2303</ele>
        <time>2021-02-21T09:43:33Z</time>
      </trkpt>
      <trkpt lat="44.45498" lon="6.5237">
        <ele>2303</ele>
        <time>2021-02-21T09:43:34Z</time>
      </trkpt>
      <trkpt lat="44.455" lon="6.52372">
        <ele>2303</ele>
        <time>2021-02-21T09:43:35Z</time>
      </trkpt>
      <trkpt lat="44.45502" lon="6.52373">
        <ele>2303</ele>
        <time>2021-02-21T09:43:36Z</time>
      </trkpt>
      <trkpt lat="44.45505" lon="6.52375">
        <ele>2303</ele>
        <time>2021-02-21T09:43:37Z</time>
      </trkpt>
      <trkpt lat="44.45507" lon="6.52377">
        <ele>2304</ele>
        <time>2021-02-21T09:43:38Z</time>
      </trkpt>
      <trkpt lat="44.45508" lon="6.52379">
        <ele>2304</ele>
        <time>2021-02-21T09:43:39Z</time>
      </trkpt>
      <trkpt lat="44.4551" lon="6.52382">
        <ele>2304</ele>
        <time>2021-02-21T09:43:40Z</time>
      </trkpt>
      <trkpt lat="44.45512" lon="6.52384">
        <ele>2304</ele>
        <time>2021-02-21T09:43:41Z</time>
      </trkpt>
      <trkpt lat="44.45514" lon="6.52386">
        <ele>2304</ele>
        <time>2021-02-21T09:43:42Z</time>
      </trkpt>
      <trkpt lat="44.45516" lon="6.52389">
        <ele>2304</ele>
        <time>2021-02-21T09:43:43Z</time>
      </trkpt>
      <trkpt lat="44.45517" lon="6.52392">
        <ele>2305</ele>
        <time>2021-02-21T09:43:44Z</time>
      </trkpt>
      <trkpt lat="44.45519" lon="6.52395">
        <ele>2305</ele>
        <time>2021-02-21T09:43:45Z</time>
      </trkpt>
      <trkpt lat="44.4552" lon="6.52398">
        <ele>2305</ele>
        <time>2021-02-21T09:43:46Z</time>
      </trkpt>
      <trkpt lat="44.45521" lon="6.52399">
        <ele>2305</ele>
        <time>2021-02-21T09:43:47Z</time>
      </trkpt>
      <trkpt lat="44.45523" lon="6.52401">
        <ele>2304</ele>
        <time>2021-02-21T09:43:48Z</time>
      </trkpt>
      <trkpt lat="44.45524" lon="6.52403">
        <ele>2304</ele>
        <time>2021-02-21T09:43:49Z</time>
      </trkpt>
      <trkpt lat="44.45526" lon="6.52404">
        <ele>2303</ele>
        <time>2021-02-21T09:43:50Z</time>
      </trkpt>
      <trkpt lat="44.45528" lon="6.52405">
        <ele>2303</ele>
        <time>2021-02-21T09:43:51Z</time>
      </trkpt>
      <trkpt lat="44.4553" lon="6.52406">
        <ele>2302</ele>
        <time>2021-02-21T09:43:52Z</time>
      </trkpt>
      <trkpt lat="44.45531" lon="6.52407">
        <ele>2301</ele>
        <time>2021-02-21T09:43:53Z</time>
      </trkpt>
      <trkpt lat="44.45532" lon="6.52408">
        <ele>2301</ele>
        <time>2021-02-21T09:43:54Z</time>
      </trkpt>
      <trkpt lat="44.45534" lon="6.5241">
        <ele>2302</ele>
        <time>2021-02-21T09:43:55Z</time>
      </trkpt>
      <trkpt lat="44.45535" lon="6.52411">
        <ele>2302</ele>
        <time>2021-02-21T09:43:56Z</time>
      </trkpt>
      <trkpt lat="44.45536" lon="6.52413">
        <ele>2302</ele>
        <time>2021-02-21T09:43:57Z</time>
      </trkpt>
      <trkpt lat="44.45537" lon="6.52413">
        <ele>2302</ele>
        <time>2021-02-21T09:43:58Z</time>
      </trkpt>
      <trkpt lat="44.45538" lon="6.52415">
        <ele>2302</ele>
        <time>2021-02-21T09:43:59Z</time>
      </trkpt>
      <trkpt lat="44.45538" lon="6.52416">
        <ele>2302</ele>
        <time>2021-02-21T09:44:00Z</time>
      </trkpt>
      <trkpt lat="44.45538" lon="6.52416">
        <ele>2301</ele>
        <time>2021-02-21T09:44:01Z</time>
      </trkpt>
      <trkpt lat="44.45538" lon="6.52417">
        <ele>2301</ele>
        <time>2021-02-21T09:44:02Z</time>
      </trkpt>
      <trkpt lat="44.45538" lon="6.52417">
        <ele>2301</ele>
        <time>2021-02-21T09:44:03Z</time>
      </trkpt>
      <trkpt lat="44.45538" lon="6.52417">
        <ele>2301</ele>
        <time>2021-02-21T09:44:04Z</time>
      </trkpt>
      <trkpt lat="44.45538" lon="6.52417">
        <ele>2301</ele>
        <time>2021-02-21T09:44:05Z</time>
      </trkpt>
      <trkpt lat="44.45538" lon="6.52417">
        <ele>2301</ele>
        <time>2021-02-21T09:44:06Z</time>
      </trkpt>
      <trkpt lat="44.45538" lon="6.52417">
        <ele>2301</ele>
        <time>2021-02-21T09:44:07Z</time>
      </trkpt>
      <trkpt lat="44.45538" lon="6.52417">
        <ele>2301</ele>
        <time>2021-02-21T09:44:08Z</time>
      </trkpt>
      <trkpt lat="44.45538" lon="6.52417">
        <ele>2301</ele>
        <time>2021-02-21T09:44:09Z</time>
      </trkpt>
      <trkpt lat="44.45538" lon="6.52417">
        <ele>2301</ele>
        <time>2021-02-21T09:44:10Z</time>
      </trkpt>
      <trkpt lat="44.45538" lon="6.52417">
        <ele>2301</ele>
        <time>2021-02-21T09:44:11Z</time>
      </trkpt>
      <trkpt lat="44.45538" lon="6.52417">
        <ele>2301</ele>
        <time>2021-02-21T09:44:12Z</time>
      </trkpt>
      <trkpt lat="44.45538" lon="6.52417">
        <ele>2301</ele>
        <time>2021-02-21T09:44:13Z</time>
      </trkpt>
      <trkpt lat="44.45538" lon="6.52417">
        <ele>2301</ele>
        <time>2021-02-21T09:44:14Z</time>
      </trkpt>
      <trkpt lat="44.45538" lon="6.52417">
        <ele>2301</ele>
        <time>2021-02-21T09:44:15Z</time>
      </trkpt>
      <trkpt lat="44.45538" lon="6.52417">
        <ele>2301</ele>
        <time>2021-02-21T09:44:16Z</time>
      </trkpt>
      <trkpt lat="44.45538" lon="6.52417">
        <ele>2301</ele>
        <time>2021-02-21T09:44:17Z</time>
      </trkpt>
      <trkpt lat="44.45548" lon="6.52421">
        <ele>2300</ele>
        <time>2021-02-21T09:44:18Z</time>
      </trkpt>
      <trkpt lat="44.45549" lon="6.52421">
        <ele>2300</ele>
        <time>2021-02-21T09:44:19Z</time>
      </trkpt>
      <trkpt lat="44.45549" lon="6.52421">
        <ele>2300</ele>
        <time>2021-02-21T09:44:20Z</time>
      </trkpt>
      <trkpt lat="44.4555" lon="6.52421">
        <ele>2300</ele>
        <time>2021-02-21T09:44:21Z</time>
      </trkpt>
      <trkpt lat="44.4555" lon="6.52421">
        <ele>2300</ele>
        <time>2021-02-21T09:44:22Z</time>
      </trkpt>
      <trkpt lat="44.45552" lon="6.52422">
        <ele>2300</ele>
        <time>2021-02-21T09:44:23Z</time>
      </trkpt>
      <trkpt lat="44.45552" lon="6.52422">
        <ele>2300</ele>
        <time>2021-02-21T09:44:24Z</time>
      </trkpt>
      <trkpt lat="44.45553" lon="6.52422">
        <ele>2300</ele>
        <time>2021-02-21T09:44:25Z</time>
      </trkpt>
      <trkpt lat="44.45554" lon="6.52424">
        <ele>2300</ele>
        <time>2021-02-21T09:44:26Z</time>
      </trkpt>
      <trkpt lat="44.45554" lon="6.52424">
        <ele>2301</ele>
        <time>2021-02-21T09:44:27Z</time>
      </trkpt>
      <trkpt lat="44.45554" lon="6.52424">
        <ele>2301</ele>
        <time>2021-02-21T09:44:28Z</time>
      </trkpt>
      <trkpt lat="44.45554" lon="6.52424">
        <ele>2301</ele>
        <time>2021-02-21T09:44:29Z</time>
      </trkpt>
      <trkpt lat="44.45554" lon="6.52424">
        <ele>2301</ele>
        <time>2021-02-21T09:44:30Z</time>
      </trkpt>
      <trkpt lat="44.45554" lon="6.52424">
        <ele>2301</ele>
        <time>2021-02-21T09:44:31Z</time>
      </trkpt>
      <trkpt lat="44.45554" lon="6.52424">
        <ele>2301</ele>
        <time>2021-02-21T09:44:32Z</time>
      </trkpt>
      <trkpt lat="44.45554" lon="6.52424">
        <ele>2301</ele>
        <time>2021-02-21T09:44:33Z</time>
      </trkpt>
      <trkpt lat="44.45554" lon="6.52424">
        <ele>2301</ele>
        <time>2021-02-21T09:44:34Z</time>
      </trkpt>
      <trkpt lat="44.45554" lon="6.52424">
        <ele>2301</ele>
        <time>2021-02-21T09:44:35Z</time>
      </trkpt>
      <trkpt lat="44.45554" lon="6.52424">
        <ele>2301</ele>
        <time>2021-02-21T09:44:36Z</time>
      </trkpt>
      <trkpt lat="44.45554" lon="6.52424">
        <ele>2301</ele>
        <time>2021-02-21T09:44:37Z</time>
      </trkpt>
      <trkpt lat="44.45554" lon="6.52424">
        <ele>2301</ele>
        <time>2021-02-21T09:44:38Z</time>
      </trkpt>
      <trkpt lat="44.45554" lon="6.52424">
        <ele>2301</ele>
        <time>2021-02-21T09:44:39Z</time>
      </trkpt>
      <trkpt lat="44.45554" lon="6.52424">
        <ele>2301</ele>
        <time>2021-02-21T09:44:40Z</time>
      </trkpt>
      <trkpt lat="44.45554" lon="6.52424">
        <ele>2301</ele>
        <time>2021-02-21T09:44:41Z</time>
      </trkpt>
      <trkpt lat="44.45554" lon="6.52424">
        <ele>2301</ele>
        <time>2021-02-21T09:44:42Z</time>
      </trkpt>
      <trkpt lat="44.45554" lon="6.52424">
        <ele>2301</ele>
        <time>2021-02-21T09:44:43Z</time>
      </trkpt>
      <trkpt lat="44.45554" lon="6.52424">
        <ele>2301</ele>
        <time>2021-02-21T09:44:44Z</time>
      </trkpt>
      <trkpt lat="44.45554" lon="6.52424">
        <ele>2301</ele>
        <time>2021-02-21T09:44:45Z</time>
      </trkpt>
      <trkpt lat="44.45554" lon="6.52424">
        <ele>2301</ele>
        <time>2021-02-21T09:44:46Z</time>
      </trkpt>
      <trkpt lat="44.45554" lon="6.52424">
        <ele>2301</ele>
        <time>2021-02-21T09:44:47Z</time>
      </trkpt>
      <trkpt lat="44.45554" lon="6.52424">
        <ele>2301</ele>
        <time>2021-02-21T09:44:48Z</time>
      </trkpt>
      <trkpt lat="44.45554" lon="6.52424">
        <ele>2301</ele>
        <time>2021-02-21T09:44:49Z</time>
      </trkpt>
      <trkpt lat="44.45557" lon="6.52435">
        <ele>2301</ele>
        <time>2021-02-21T09:44:50Z</time>
      </trkpt>
      <trkpt lat="44.45558" lon="6.52435">
        <ele>2302</ele>
        <time>2021-02-21T09:44:51Z</time>
      </trkpt>
      <trkpt lat="44.45558" lon="6.52436">
        <ele>2302</ele>
        <time>2021-02-21T09:44:52Z</time>
      </trkpt>
      <trkpt lat="44.45558" lon="6.52435">
        <ele>2302</ele>
        <time>2021-02-21T09:44:53Z</time>
      </trkpt>
      <trkpt lat="44.45558" lon="6.52435">
        <ele>2302</ele>
        <time>2021-02-21T09:44:54Z</time>
      </trkpt>
      <trkpt lat="44.45558" lon="6.52435">
        <ele>2303</ele>
        <time>2021-02-21T09:44:55Z</time>
      </trkpt>
      <trkpt lat="44.45558" lon="6.52435">
        <ele>2303</ele>
        <time>2021-02-21T09:44:56Z</time>
      </trkpt>
      <trkpt lat="44.45558" lon="6.52435">
        <ele>2303</ele>
        <time>2021-02-21T09:44:57Z</time>
      </trkpt>
      <trkpt lat="44.45558" lon="6.52435">
        <ele>2303</ele>
        <time>2021-02-21T09:44:58Z</time>
      </trkpt>
      <trkpt lat="44.45558" lon="6.52435">
        <ele>2303</ele>
        <time>2021-02-21T09:44:59Z</time>
      </trkpt>
      <trkpt lat="44.45558" lon="6.52435">
        <ele>2303</ele>
        <time>2021-02-21T09:45:00Z</time>
      </trkpt>
      <trkpt lat="44.45558" lon="6.52435">
        <ele>2303</ele>
        <time>2021-02-21T09:45:01Z</time>
      </trkpt>
      <trkpt lat="44.45558" lon="6.52435">
        <ele>2303</ele>
        <time>2021-02-21T09:45:02Z</time>
      </trkpt>
      <trkpt lat="44.45558" lon="6.52435">
        <ele>2303</ele>
        <time>2021-02-21T09:45:03Z</time>
      </trkpt>
      <trkpt lat="44.45558" lon="6.52435">
        <ele>2303</ele>
        <time>2021-02-21T09:45:04Z</time>
      </trkpt>
      <trkpt lat="44.45558" lon="6.52435">
        <ele>2303</ele>
        <time>2021-02-21T09:45:05Z</time>
      </trkpt>
      <trkpt lat="44.45558" lon="6.52435">
        <ele>2303</ele>
        <time>2021-02-21T09:45:06Z</time>
      </trkpt>
      <trkpt lat="44.45558" lon="6.52435">
        <ele>2303</ele>
        <time>2021-02-21T09:45:07Z</time>
      </trkpt>
      <trkpt lat="44.45558" lon="6.52435">
        <ele>2303</ele>
        <time>2021-02-21T09:45:08Z</time>
      </trkpt>
      <trkpt lat="44.45558" lon="6.52435">
        <ele>2303</ele>
        <time>2021-02-21T09:45:09Z</time>
      </trkpt>
      <trkpt lat="44.45558" lon="6.52435">
        <ele>2303</ele>
        <time>2021-02-21T09:45:10Z</time>
      </trkpt>
      <trkpt lat="44.45558" lon="6.52435">
        <ele>2303</ele>
        <time>2021-02-21T09:45:11Z</time>
      </trkpt>
      <trkpt lat="44.45558" lon="6.52435">
        <ele>2303</ele>
        <time>2021-02-21T09:45:12Z</time>
      </trkpt>
      <trkpt lat="44.45558" lon="6.52435">
        <ele>2303</ele>
        <time>2021-02-21T09:45:13Z</time>
      </trkpt>
      <trkpt lat="44.45558" lon="6.52435">
        <ele>2303</ele>
        <time>2021-02-21T09:45:14Z</time>
      </trkpt>
      <trkpt lat="44.45558" lon="6.52435">
        <ele>2303</ele>
        <time>2021-02-21T09:45:15Z</time>
      </trkpt>
      <trkpt lat="44.45558" lon="6.52435">
        <ele>2303</ele>
        <time>2021-02-21T09:45:16Z</time>
      </trkpt>
      <trkpt lat="44.45558" lon="6.52435">
        <ele>2303</ele>
        <time>2021-02-21T09:45:17Z</time>
      </trkpt>
      <trkpt lat="44.45558" lon="6.52435">
        <ele>2303</ele>
        <time>2021-02-21T09:45:18Z</time>
      </trkpt>
      <trkpt lat="44.45558" lon="6.52435">
        <ele>2303</ele>
        <time>2021-02-21T09:45:19Z</time>
      </trkpt>
      <trkpt lat="44.45558" lon="6.52435">
        <ele>2303</ele>
        <time>2021-02-21T09:45:20Z</time>
      </trkpt>
      <trkpt lat="44.45558" lon="6.52435">
        <ele>2303</ele>
        <time>2021-02-21T09:45:21Z</time>
      </trkpt>
      <trkpt lat="44.45558" lon="6.52435">
        <ele>2303</ele>
        <time>2021-02-21T09:45:22Z</time>
      </trkpt>
      <trkpt lat="44.45558" lon="6.52435">
        <ele>2303</ele>
        <time>2021-02-21T09:45:23Z</time>
      </trkpt>
      <trkpt lat="44.45558" lon="6.52435">
        <ele>2303</ele>
        <time>2021-02-21T09:45:24Z</time>
      </trkpt>
      <trkpt lat="44.45558" lon="6.52435">
        <ele>2303</ele>
        <time>2021-02-21T09:45:25Z</time>
      </trkpt>
      <trkpt lat="44.45558" lon="6.52435">
        <ele>2303</ele>
        <time>2021-02-21T09:45:26Z</time>
      </trkpt>
      <trkpt lat="44.45558" lon="6.52435">
        <ele>2303</ele>
        <time>2021-02-21T09:45:27Z</time>
      </trkpt>
      <trkpt lat="44.45558" lon="6.52435">
        <ele>2303</ele>
        <time>2021-02-21T09:45:28Z</time>
      </trkpt>
      <trkpt lat="44.45558" lon="6.52435">
        <ele>2303</ele>
        <time>2021-02-21T09:45:29Z</time>
      </trkpt>
      <trkpt lat="44.45558" lon="6.52435">
        <ele>2303</ele>
        <time>2021-02-21T09:45:30Z</time>
      </trkpt>
      <trkpt lat="44.45558" lon="6.52435">
        <ele>2303</ele>
        <time>2021-02-21T09:45:31Z</time>
      </trkpt>
      <trkpt lat="44.45558" lon="6.52435">
        <ele>2303</ele>
        <time>2021-02-21T09:45:32Z</time>
      </trkpt>
      <trkpt lat="44.45558" lon="6.52435">
        <ele>2303</ele>
        <time>2021-02-21T09:45:33Z</time>
      </trkpt>
      <trkpt lat="44.45558" lon="6.52435">
        <ele>2303</ele>
        <time>2021-02-21T09:45:34Z</time>
      </trkpt>
      <trkpt lat="44.45558" lon="6.52435">
        <ele>2303</ele>
        <time>2021-02-21T09:45:35Z</time>
      </trkpt>
      <trkpt lat="44.45558" lon="6.52435">
        <ele>2303</ele>
        <time>2021-02-21T09:45:36Z</time>
      </trkpt>
      <trkpt lat="44.45558" lon="6.52435">
        <ele>2303</ele>
        <time>2021-02-21T09:45:37Z</time>
      </trkpt>
      <trkpt lat="44.45558" lon="6.52435">
        <ele>2303</ele>
        <time>2021-02-21T09:45:38Z</time>
      </trkpt>
      <trkpt lat="44.45558" lon="6.52435">
        <ele>2303</ele>
        <time>2021-02-21T09:45:39Z</time>
      </trkpt>
      <trkpt lat="44.45558" lon="6.52435">
        <ele>2303</ele>
        <time>2021-02-21T09:45:40Z</time>
      </trkpt>
      <trkpt lat="44.45558" lon="6.52435">
        <ele>2303</ele>
        <time>2021-02-21T09:45:41Z</time>
      </trkpt>
      <trkpt lat="44.45558" lon="6.52435">
        <ele>2303</ele>
        <time>2021-02-21T09:45:42Z</time>
      </trkpt>
      <trkpt lat="44.45558" lon="6.52435">
        <ele>2303</ele>
        <time>2021-02-21T09:45:43Z</time>
      </trkpt>
      <trkpt lat="44.45558" lon="6.52435">
        <ele>2303</ele>
        <time>2021-02-21T09:45:44Z</time>
      </trkpt>
      <trkpt lat="44.45558" lon="6.52435">
        <ele>2303</ele>
        <time>2021-02-21T09:45:45Z</time>
      </trkpt>
      <trkpt lat="44.45558" lon="6.52435">
        <ele>2303</ele>
        <time>2021-02-21T09:45:46Z</time>
      </trkpt>
      <trkpt lat="44.45558" lon="6.52435">
        <ele>2303</ele>
        <time>2021-02-21T09:45:47Z</time>
      </trkpt>
      <trkpt lat="44.45558" lon="6.52435">
        <ele>2303</ele>
        <time>2021-02-21T09:45:48Z</time>
      </trkpt>
      <trkpt lat="44.45558" lon="6.52435">
        <ele>2303</ele>
        <time>2021-02-21T09:45:49Z</time>
      </trkpt>
      <trkpt lat="44.45558" lon="6.52435">
        <ele>2303</ele>
        <time>2021-02-21T09:45:50Z</time>
      </trkpt>
      <trkpt lat="44.45558" lon="6.52435">
        <ele>2303</ele>
        <time>2021-02-21T09:45:51Z</time>
      </trkpt>
      <trkpt lat="44.45558" lon="6.52435">
        <ele>2303</ele>
        <time>2021-02-21T09:45:52Z</time>
      </trkpt>
      <trkpt lat="44.45558" lon="6.52435">
        <ele>2303</ele>
        <time>2021-02-21T09:45:53Z</time>
      </trkpt>
      <trkpt lat="44.45558" lon="6.52435">
        <ele>2303</ele>
        <time>2021-02-21T09:45:54Z</time>
      </trkpt>
      <trkpt lat="44.45558" lon="6.52435">
        <ele>2303</ele>
        <time>2021-02-21T09:45:55Z</time>
      </trkpt>
      <trkpt lat="44.45558" lon="6.52435">
        <ele>2303</ele>
        <time>2021-02-21T09:45:56Z</time>
      </trkpt>
      <trkpt lat="44.45558" lon="6.52435">
        <ele>2303</ele>
        <time>2021-02-21T09:45:57Z</time>
      </trkpt>
      <trkpt lat="44.45558" lon="6.52435">
        <ele>2303</ele>
        <time>2021-02-21T09:45:58Z</time>
      </trkpt>
      <trkpt lat="44.45558" lon="6.52435">
        <ele>2303</ele>
        <time>2021-02-21T09:45:59Z</time>
      </trkpt>
      <trkpt lat="44.45558" lon="6.52435">
        <ele>2303</ele>
        <time>2021-02-21T09:46:00Z</time>
      </trkpt>
      <trkpt lat="44.45558" lon="6.52435">
        <ele>2303</ele>
        <time>2021-02-21T09:46:01Z</time>
      </trkpt>
      <trkpt lat="44.45558" lon="6.52435">
        <ele>2303</ele>
        <time>2021-02-21T09:46:02Z</time>
      </trkpt>
      <trkpt lat="44.45558" lon="6.52435">
        <ele>2303</ele>
        <time>2021-02-21T09:46:03Z</time>
      </trkpt>
      <trkpt lat="44.45558" lon="6.52435">
        <ele>2303</ele>
        <time>2021-02-21T09:46:04Z</time>
      </trkpt>
      <trkpt lat="44.45558" lon="6.52435">
        <ele>2303</ele>
        <time>2021-02-21T09:46:05Z</time>
      </trkpt>
      <trkpt lat="44.45558" lon="6.52435">
        <ele>2303</ele>
        <time>2021-02-21T09:46:06Z</time>
      </trkpt>
      <trkpt lat="44.45558" lon="6.52435">
        <ele>2303</ele>
        <time>2021-02-21T09:46:07Z</time>
      </trkpt>
      <trkpt lat="44.45558" lon="6.52435">
        <ele>2303</ele>
        <time>2021-02-21T09:46:08Z</time>
      </trkpt>
      <trkpt lat="44.45558" lon="6.52435">
        <ele>2303</ele>
        <time>2021-02-21T09:46:09Z</time>
      </trkpt>
      <trkpt lat="44.45558" lon="6.52435">
        <ele>2303</ele>
        <time>2021-02-21T09:46:10Z</time>
      </trkpt>
      <trkpt lat="44.45558" lon="6.52435">
        <ele>2303</ele>
        <time>2021-02-21T09:46:11Z</time>
      </trkpt>
      <trkpt lat="44.45558" lon="6.52435">
        <ele>2303</ele>
        <time>2021-02-21T09:46:12Z</time>
      </trkpt>
      <trkpt lat="44.45558" lon="6.52435">
        <ele>2303</ele>
        <time>2021-02-21T09:46:13Z</time>
      </trkpt>
      <trkpt lat="44.45558" lon="6.52435">
        <ele>2303</ele>
        <time>2021-02-21T09:46:14Z</time>
      </trkpt>
      <trkpt lat="44.45558" lon="6.52435">
        <ele>2303</ele>
        <time>2021-02-21T09:46:15Z</time>
      </trkpt>
      <trkpt lat="44.45558" lon="6.52435">
        <ele>2303</ele>
        <time>2021-02-21T09:46:16Z</time>
      </trkpt>
      <trkpt lat="44.45558" lon="6.52435">
        <ele>2303</ele>
        <time>2021-02-21T09:46:17Z</time>
      </trkpt>
      <trkpt lat="44.45558" lon="6.52435">
        <ele>2303</ele>
        <time>2021-02-21T09:46:18Z</time>
      </trkpt>
      <trkpt lat="44.45558" lon="6.52435">
        <ele>2303</ele>
        <time>2021-02-21T09:46:19Z</time>
      </trkpt>
      <trkpt lat="44.45558" lon="6.52435">
        <ele>2303</ele>
        <time>2021-02-21T09:46:20Z</time>
      </trkpt>
      <trkpt lat="44.45558" lon="6.52435">
        <ele>2303</ele>
        <time>2021-02-21T09:46:21Z</time>
      </trkpt>
      <trkpt lat="44.45558" lon="6.52435">
        <ele>2303</ele>
        <time>2021-02-21T09:46:22Z</time>
      </trkpt>
      <trkpt lat="44.45558" lon="6.52435">
        <ele>2303</ele>
        <time>2021-02-21T09:46:23Z</time>
      </trkpt>
      <trkpt lat="44.45558" lon="6.52435">
        <ele>2303</ele>
        <time>2021-02-21T09:46:24Z</time>
      </trkpt>
      <trkpt lat="44.45558" lon="6.52435">
        <ele>2303</ele>
        <time>2021-02-21T09:46:25Z</time>
      </trkpt>
      <trkpt lat="44.45558" lon="6.52435">
        <ele>2303</ele>
        <time>2021-02-21T09:46:26Z</time>
      </trkpt>
      <trkpt lat="44.45558" lon="6.52435">
        <ele>2303</ele>
        <time>2021-02-21T09:46:27Z</time>
      </trkpt>
      <trkpt lat="44.45565" lon="6.52437">
        <ele>2303</ele>
        <time>2021-02-21T09:46:28Z</time>
      </trkpt>
      <trkpt lat="44.45566" lon="6.52437">
        <ele>2302</ele>
        <time>2021-02-21T09:46:29Z</time>
      </trkpt>
      <trkpt lat="44.45567" lon="6.52437">
        <ele>2302</ele>
        <time>2021-02-21T09:46:30Z</time>
      </trkpt>
      <trkpt lat="44.45567" lon="6.52437">
        <ele>2302</ele>
        <time>2021-02-21T09:46:31Z</time>
      </trkpt>
      <trkpt lat="44.45567" lon="6.52437">
        <ele>2302</ele>
        <time>2021-02-21T09:46:32Z</time>
      </trkpt>
      <trkpt lat="44.45567" lon="6.52437">
        <ele>2302</ele>
        <time>2021-02-21T09:46:33Z</time>
      </trkpt>
      <trkpt lat="44.45567" lon="6.52437">
        <ele>2302</ele>
        <time>2021-02-21T09:46:34Z</time>
      </trkpt>
      <trkpt lat="44.45567" lon="6.52437">
        <ele>2302</ele>
        <time>2021-02-21T09:46:35Z</time>
      </trkpt>
      <trkpt lat="44.45567" lon="6.52437">
        <ele>2302</ele>
        <time>2021-02-21T09:46:36Z</time>
      </trkpt>
      <trkpt lat="44.45567" lon="6.52437">
        <ele>2302</ele>
        <time>2021-02-21T09:46:37Z</time>
      </trkpt>
      <trkpt lat="44.45567" lon="6.52437">
        <ele>2302</ele>
        <time>2021-02-21T09:46:38Z</time>
      </trkpt>
      <trkpt lat="44.45567" lon="6.52437">
        <ele>2302</ele>
        <time>2021-02-21T09:46:39Z</time>
      </trkpt>
      <trkpt lat="44.45567" lon="6.52437">
        <ele>2302</ele>
        <time>2021-02-21T09:46:40Z</time>
      </trkpt>
      <trkpt lat="44.45567" lon="6.52437">
        <ele>2302</ele>
        <time>2021-02-21T09:46:41Z</time>
      </trkpt>
      <trkpt lat="44.45567" lon="6.52437">
        <ele>2302</ele>
        <time>2021-02-21T09:46:42Z</time>
      </trkpt>
      <trkpt lat="44.45567" lon="6.52437">
        <ele>2302</ele>
        <time>2021-02-21T09:46:43Z</time>
      </trkpt>
      <trkpt lat="44.45567" lon="6.52437">
        <ele>2302</ele>
        <time>2021-02-21T09:46:44Z</time>
      </trkpt>
      <trkpt lat="44.45567" lon="6.52437">
        <ele>2302</ele>
        <time>2021-02-21T09:46:45Z</time>
      </trkpt>
      <trkpt lat="44.45567" lon="6.52437">
        <ele>2302</ele>
        <time>2021-02-21T09:46:46Z</time>
      </trkpt>
      <trkpt lat="44.45567" lon="6.52437">
        <ele>2302</ele>
        <time>2021-02-21T09:46:47Z</time>
      </trkpt>
      <trkpt lat="44.45567" lon="6.52437">
        <ele>2302</ele>
        <time>2021-02-21T09:46:48Z</time>
      </trkpt>
      <trkpt lat="44.45567" lon="6.52437">
        <ele>2302</ele>
        <time>2021-02-21T09:46:49Z</time>
      </trkpt>
      <trkpt lat="44.45567" lon="6.52437">
        <ele>2302</ele>
        <time>2021-02-21T09:46:50Z</time>
      </trkpt>
      <trkpt lat="44.45567" lon="6.52437">
        <ele>2302</ele>
        <time>2021-02-21T09:46:51Z</time>
      </trkpt>
      <trkpt lat="44.45567" lon="6.52437">
        <ele>2302</ele>
        <time>2021-02-21T09:46:52Z</time>
      </trkpt>
      <trkpt lat="44.45567" lon="6.52437">
        <ele>2302</ele>
        <time>2021-02-21T09:46:53Z</time>
      </trkpt>
      <trkpt lat="44.45567" lon="6.52437">
        <ele>2302</ele>
        <time>2021-02-21T09:46:54Z</time>
      </trkpt>
      <trkpt lat="44.45567" lon="6.52437">
        <ele>2302</ele>
        <time>2021-02-21T09:46:55Z</time>
      </trkpt>
      <trkpt lat="44.45567" lon="6.52437">
        <ele>2302</ele>
        <time>2021-02-21T09:46:56Z</time>
      </trkpt>
      <trkpt lat="44.45567" lon="6.52437">
        <ele>2302</ele>
        <time>2021-02-21T09:46:57Z</time>
      </trkpt>
      <trkpt lat="44.45567" lon="6.52437">
        <ele>2302</ele>
        <time>2021-02-21T09:46:58Z</time>
      </trkpt>
      <trkpt lat="44.45567" lon="6.52437">
        <ele>2302</ele>
        <time>2021-02-21T09:46:59Z</time>
      </trkpt>
      <trkpt lat="44.45567" lon="6.52437">
        <ele>2302</ele>
        <time>2021-02-21T09:47:00Z</time>
      </trkpt>
      <trkpt lat="44.45567" lon="6.52437">
        <ele>2302</ele>
        <time>2021-02-21T09:47:01Z</time>
      </trkpt>
      <trkpt lat="44.45567" lon="6.52437">
        <ele>2302</ele>
        <time>2021-02-21T09:47:02Z</time>
      </trkpt>
      <trkpt lat="44.45567" lon="6.52437">
        <ele>2302</ele>
        <time>2021-02-21T09:47:03Z</time>
      </trkpt>
      <trkpt lat="44.45567" lon="6.52437">
        <ele>2302</ele>
        <time>2021-02-21T09:47:04Z</time>
      </trkpt>
      <trkpt lat="44.45567" lon="6.52437">
        <ele>2302</ele>
        <time>2021-02-21T09:47:05Z</time>
      </trkpt>
      <trkpt lat="44.45567" lon="6.52437">
        <ele>2302</ele>
        <time>2021-02-21T09:47:06Z</time>
      </trkpt>
      <trkpt lat="44.45567" lon="6.52437">
        <ele>2302</ele>
        <time>2021-02-21T09:47:07Z</time>
      </trkpt>
      <trkpt lat="44.45568" lon="6.52447">
        <ele>2301</ele>
        <time>2021-02-21T09:47:08Z</time>
      </trkpt>
      <trkpt lat="44.45569" lon="6.52449">
        <ele>2301</ele>
        <time>2021-02-21T09:47:09Z</time>
      </trkpt>
      <trkpt lat="44.45571" lon="6.5245">
        <ele>2301</ele>
        <time>2021-02-21T09:47:10Z</time>
      </trkpt>
      <trkpt lat="44.45571" lon="6.52451">
        <ele>2301</ele>
        <time>2021-02-21T09:47:11Z</time>
      </trkpt>
      <trkpt lat="44.45573" lon="6.52452">
        <ele>2301</ele>
        <time>2021-02-21T09:47:12Z</time>
      </trkpt>
      <trkpt lat="44.45573" lon="6.52453">
        <ele>2301</ele>
        <time>2021-02-21T09:47:13Z</time>
      </trkpt>
      <trkpt lat="44.45574" lon="6.52454">
        <ele>2301</ele>
        <time>2021-02-21T09:47:14Z</time>
      </trkpt>
      <trkpt lat="44.45574" lon="6.52455">
        <ele>2302</ele>
        <time>2021-02-21T09:47:15Z</time>
      </trkpt>
      <trkpt lat="44.45575" lon="6.52456">
        <ele>2302</ele>
        <time>2021-02-21T09:47:16Z</time>
      </trkpt>
      <trkpt lat="44.45575" lon="6.52456">
        <ele>2303</ele>
        <time>2021-02-21T09:47:17Z</time>
      </trkpt>
      <trkpt lat="44.45575" lon="6.52456">
        <ele>2303</ele>
        <time>2021-02-21T09:47:18Z</time>
      </trkpt>
      <trkpt lat="44.45575" lon="6.52456">
        <ele>2303</ele>
        <time>2021-02-21T09:47:19Z</time>
      </trkpt>
      <trkpt lat="44.45575" lon="6.52456">
        <ele>2303</ele>
        <time>2021-02-21T09:47:20Z</time>
      </trkpt>
      <trkpt lat="44.45575" lon="6.52456">
        <ele>2303</ele>
        <time>2021-02-21T09:47:21Z</time>
      </trkpt>
      <trkpt lat="44.45575" lon="6.52456">
        <ele>2303</ele>
        <time>2021-02-21T09:47:22Z</time>
      </trkpt>
      <trkpt lat="44.45575" lon="6.52456">
        <ele>2303</ele>
        <time>2021-02-21T09:47:23Z</time>
      </trkpt>
      <trkpt lat="44.45575" lon="6.52456">
        <ele>2303</ele>
        <time>2021-02-21T09:47:24Z</time>
      </trkpt>
      <trkpt lat="44.45579" lon="6.52463">
        <ele>2303</ele>
        <time>2021-02-21T09:47:25Z</time>
      </trkpt>
      <trkpt lat="44.4558" lon="6.52464">
        <ele>2303</ele>
        <time>2021-02-21T09:47:26Z</time>
      </trkpt>
      <trkpt lat="44.45581" lon="6.52466">
        <ele>2304</ele>
        <time>2021-02-21T09:47:27Z</time>
      </trkpt>
      <trkpt lat="44.45582" lon="6.52468">
        <ele>2304</ele>
        <time>2021-02-21T09:47:28Z</time>
      </trkpt>
      <trkpt lat="44.45583" lon="6.52469">
        <ele>2303</ele>
        <time>2021-02-21T09:47:29Z</time>
      </trkpt>
      <trkpt lat="44.45584" lon="6.5247">
        <ele>2303</ele>
        <time>2021-02-21T09:47:30Z</time>
      </trkpt>
      <trkpt lat="44.45584" lon="6.52471">
        <ele>2303</ele>
        <time>2021-02-21T09:47:31Z</time>
      </trkpt>
      <trkpt lat="44.45585" lon="6.52471">
        <ele>2303</ele>
        <time>2021-02-21T09:47:32Z</time>
      </trkpt>
      <trkpt lat="44.45586" lon="6.52472">
        <ele>2303</ele>
        <time>2021-02-21T09:47:33Z</time>
      </trkpt>
      <trkpt lat="44.45586" lon="6.52472">
        <ele>2303</ele>
        <time>2021-02-21T09:47:34Z</time>
      </trkpt>
      <trkpt lat="44.45586" lon="6.52472">
        <ele>2303</ele>
        <time>2021-02-21T09:47:35Z</time>
      </trkpt>
      <trkpt lat="44.45586" lon="6.52472">
        <ele>2303</ele>
        <time>2021-02-21T09:47:36Z</time>
      </trkpt>
      <trkpt lat="44.45586" lon="6.52472">
        <ele>2303</ele>
        <time>2021-02-21T09:47:37Z</time>
      </trkpt>
      <trkpt lat="44.45586" lon="6.52472">
        <ele>2302</ele>
        <time>2021-02-21T09:47:38Z</time>
      </trkpt>
      <trkpt lat="44.45586" lon="6.52472">
        <ele>2302</ele>
        <time>2021-02-21T09:47:39Z</time>
      </trkpt>
      <trkpt lat="44.45586" lon="6.52472">
        <ele>2302</ele>
        <time>2021-02-21T09:47:40Z</time>
      </trkpt>
      <trkpt lat="44.45586" lon="6.52472">
        <ele>2302</ele>
        <time>2021-02-21T09:47:41Z</time>
      </trkpt>
      <trkpt lat="44.45586" lon="6.52472">
        <ele>2302</ele>
        <time>2021-02-21T09:47:42Z</time>
      </trkpt>
      <trkpt lat="44.45586" lon="6.52472">
        <ele>2302</ele>
        <time>2021-02-21T09:47:43Z</time>
      </trkpt>
      <trkpt lat="44.45586" lon="6.52472">
        <ele>2302</ele>
        <time>2021-02-21T09:47:44Z</time>
      </trkpt>
      <trkpt lat="44.45586" lon="6.52472">
        <ele>2302</ele>
        <time>2021-02-21T09:47:45Z</time>
      </trkpt>
      <trkpt lat="44.45586" lon="6.52472">
        <ele>2302</ele>
        <time>2021-02-21T09:47:46Z</time>
      </trkpt>
      <trkpt lat="44.45586" lon="6.52472">
        <ele>2302</ele>
        <time>2021-02-21T09:47:47Z</time>
      </trkpt>
      <trkpt lat="44.45586" lon="6.52472">
        <ele>2302</ele>
        <time>2021-02-21T09:47:48Z</time>
      </trkpt>
      <trkpt lat="44.45586" lon="6.52472">
        <ele>2302</ele>
        <time>2021-02-21T09:47:49Z</time>
      </trkpt>
      <trkpt lat="44.45586" lon="6.52472">
        <ele>2302</ele>
        <time>2021-02-21T09:47:50Z</time>
      </trkpt>
      <trkpt lat="44.45586" lon="6.52472">
        <ele>2302</ele>
        <time>2021-02-21T09:47:51Z</time>
      </trkpt>
      <trkpt lat="44.45586" lon="6.52472">
        <ele>2302</ele>
        <time>2021-02-21T09:47:52Z</time>
      </trkpt>
      <trkpt lat="44.45586" lon="6.52472">
        <ele>2302</ele>
        <time>2021-02-21T09:47:53Z</time>
      </trkpt>
      <trkpt lat="44.45586" lon="6.52472">
        <ele>2302</ele>
        <time>2021-02-21T09:47:54Z</time>
      </trkpt>
      <trkpt lat="44.45586" lon="6.52472">
        <ele>2302</ele>
        <time>2021-02-21T09:47:55Z</time>
      </trkpt>
      <trkpt lat="44.45586" lon="6.52472">
        <ele>2302</ele>
        <time>2021-02-21T09:47:56Z</time>
      </trkpt>
      <trkpt lat="44.45586" lon="6.52472">
        <ele>2302</ele>
        <time>2021-02-21T09:47:57Z</time>
      </trkpt>
      <trkpt lat="44.45586" lon="6.52472">
        <ele>2302</ele>
        <time>2021-02-21T09:47:58Z</time>
      </trkpt>
      <trkpt lat="44.45586" lon="6.52472">
        <ele>2302</ele>
        <time>2021-02-21T09:47:59Z</time>
      </trkpt>
      <trkpt lat="44.45586" lon="6.52472">
        <ele>2302</ele>
        <time>2021-02-21T09:48:00Z</time>
      </trkpt>
      <trkpt lat="44.45586" lon="6.52472">
        <ele>2302</ele>
        <time>2021-02-21T09:48:01Z</time>
      </trkpt>
      <trkpt lat="44.45586" lon="6.52472">
        <ele>2302</ele>
        <time>2021-02-21T09:48:02Z</time>
      </trkpt>
      <trkpt lat="44.45586" lon="6.52472">
        <ele>2302</ele>
        <time>2021-02-21T09:48:03Z</time>
      </trkpt>
      <trkpt lat="44.45586" lon="6.52472">
        <ele>2302</ele>
        <time>2021-02-21T09:48:04Z</time>
      </trkpt>
      <trkpt lat="44.45586" lon="6.52472">
        <ele>2302</ele>
        <time>2021-02-21T09:48:05Z</time>
      </trkpt>
      <trkpt lat="44.45586" lon="6.52472">
        <ele>2302</ele>
        <time>2021-02-21T09:48:06Z</time>
      </trkpt>
      <trkpt lat="44.45586" lon="6.52472">
        <ele>2302</ele>
        <time>2021-02-21T09:48:07Z</time>
      </trkpt>
      <trkpt lat="44.45586" lon="6.52472">
        <ele>2302</ele>
        <time>2021-02-21T09:48:08Z</time>
      </trkpt>
      <trkpt lat="44.45586" lon="6.52472">
        <ele>2302</ele>
        <time>2021-02-21T09:48:09Z</time>
      </trkpt>
      <trkpt lat="44.45586" lon="6.52472">
        <ele>2302</ele>
        <time>2021-02-21T09:48:10Z</time>
      </trkpt>
      <trkpt lat="44.45586" lon="6.52472">
        <ele>2302</ele>
        <time>2021-02-21T09:48:11Z</time>
      </trkpt>
      <trkpt lat="44.45586" lon="6.52472">
        <ele>2302</ele>
        <time>2021-02-21T09:48:12Z</time>
      </trkpt>
      <trkpt lat="44.45586" lon="6.52472">
        <ele>2302</ele>
        <time>2021-02-21T09:48:13Z</time>
      </trkpt>
      <trkpt lat="44.45586" lon="6.52472">
        <ele>2302</ele>
        <time>2021-02-21T09:48:14Z</time>
      </trkpt>
      <trkpt lat="44.45586" lon="6.52472">
        <ele>2302</ele>
        <time>2021-02-21T09:48:15Z</time>
      </trkpt>
      <trkpt lat="44.45586" lon="6.52472">
        <ele>2302</ele>
        <time>2021-02-21T09:48:16Z</time>
      </trkpt>
      <trkpt lat="44.45587" lon="6.52486">
        <ele>2303</ele>
        <time>2021-02-21T09:48:17Z</time>
      </trkpt>
      <trkpt lat="44.45588" lon="6.52487">
        <ele>2303</ele>
        <time>2021-02-21T09:48:18Z</time>
      </trkpt>
      <trkpt lat="44.45589" lon="6.52488">
        <ele>2303</ele>
        <time>2021-02-21T09:48:19Z</time>
      </trkpt>
      <trkpt lat="44.45589" lon="6.52489">
        <ele>2303</ele>
        <time>2021-02-21T09:48:20Z</time>
      </trkpt>
      <trkpt lat="44.45589" lon="6.52489">
        <ele>2303</ele>
        <time>2021-02-21T09:48:21Z</time>
      </trkpt>
      <trkpt lat="44.45589" lon="6.52489">
        <ele>2303</ele>
        <time>2021-02-21T09:48:22Z</time>
      </trkpt>
      <trkpt lat="44.45589" lon="6.52489">
        <ele>2303</ele>
        <time>2021-02-21T09:48:23Z</time>
      </trkpt>
      <trkpt lat="44.45589" lon="6.52489">
        <ele>2303</ele>
        <time>2021-02-21T09:48:24Z</time>
      </trkpt>
      <trkpt lat="44.45589" lon="6.52489">
        <ele>2303</ele>
        <time>2021-02-21T09:48:25Z</time>
      </trkpt>
      <trkpt lat="44.45589" lon="6.52489">
        <ele>2303</ele>
        <time>2021-02-21T09:48:26Z</time>
      </trkpt>
      <trkpt lat="44.45593" lon="6.52492">
        <ele>2303</ele>
        <time>2021-02-21T09:48:27Z</time>
      </trkpt>
      <trkpt lat="44.45597" lon="6.52493">
        <ele>2302</ele>
        <time>2021-02-21T09:48:28Z</time>
      </trkpt>
      <trkpt lat="44.45601" lon="6.52496">
        <ele>2302</ele>
        <time>2021-02-21T09:48:29Z</time>
      </trkpt>
      <trkpt lat="44.45605" lon="6.52502">
        <ele>2301</ele>
        <time>2021-02-21T09:48:30Z</time>
      </trkpt>
      <trkpt lat="44.45609" lon="6.52512">
        <ele>2300</ele>
        <time>2021-02-21T09:48:31Z</time>
      </trkpt>
      <trkpt lat="44.45613" lon="6.52524">
        <ele>2299</ele>
        <time>2021-02-21T09:48:32Z</time>
      </trkpt>
      <trkpt lat="44.45619" lon="6.52534">
        <ele>2298</ele>
        <time>2021-02-21T09:48:33Z</time>
      </trkpt>
      <trkpt lat="44.45625" lon="6.52543">
        <ele>2298</ele>
        <time>2021-02-21T09:48:34Z</time>
      </trkpt>
      <trkpt lat="44.45631" lon="6.5255">
        <ele>2297</ele>
        <time>2021-02-21T09:48:35Z</time>
      </trkpt>
      <trkpt lat="44.45636" lon="6.52551">
        <ele>2295</ele>
        <time>2021-02-21T09:48:36Z</time>
      </trkpt>
      <trkpt lat="44.45642" lon="6.52552">
        <ele>2294</ele>
        <time>2021-02-21T09:48:37Z</time>
      </trkpt>
      <trkpt lat="44.45649" lon="6.52551">
        <ele>2293</ele>
        <time>2021-02-21T09:48:38Z</time>
      </trkpt>
      <trkpt lat="44.45657" lon="6.52549">
        <ele>2291</ele>
        <time>2021-02-21T09:48:39Z</time>
      </trkpt>
      <trkpt lat="44.45665" lon="6.52547">
        <ele>2290</ele>
        <time>2021-02-21T09:48:40Z</time>
      </trkpt>
      <trkpt lat="44.45674" lon="6.52545">
        <ele>2288</ele>
        <time>2021-02-21T09:48:41Z</time>
      </trkpt>
      <trkpt lat="44.45683" lon="6.52542">
        <ele>2286</ele>
        <time>2021-02-21T09:48:42Z</time>
      </trkpt>
      <trkpt lat="44.45692" lon="6.52542">
        <ele>2285</ele>
        <time>2021-02-21T09:48:43Z</time>
      </trkpt>
      <trkpt lat="44.45701" lon="6.52545">
        <ele>2283</ele>
        <time>2021-02-21T09:48:44Z</time>
      </trkpt>
      <trkpt lat="44.45709" lon="6.52547">
        <ele>2281</ele>
        <time>2021-02-21T09:48:45Z</time>
      </trkpt>
      <trkpt lat="44.45718" lon="6.5255">
        <ele>2280</ele>
        <time>2021-02-21T09:48:46Z</time>
      </trkpt>
      <trkpt lat="44.45726" lon="6.52552">
        <ele>2279</ele>
        <time>2021-02-21T09:48:47Z</time>
      </trkpt>
      <trkpt lat="44.45733" lon="6.52554">
        <ele>2278</ele>
        <time>2021-02-21T09:48:48Z</time>
      </trkpt>
      <trkpt lat="44.45738" lon="6.52556">
        <ele>2277</ele>
        <time>2021-02-21T09:48:49Z</time>
      </trkpt>
      <trkpt lat="44.45744" lon="6.52557">
        <ele>2276</ele>
        <time>2021-02-21T09:48:50Z</time>
      </trkpt>
      <trkpt lat="44.45749" lon="6.52558">
        <ele>2275</ele>
        <time>2021-02-21T09:48:51Z</time>
      </trkpt>
      <trkpt lat="44.45753" lon="6.52558">
        <ele>2275</ele>
        <time>2021-02-21T09:48:52Z</time>
      </trkpt>
      <trkpt lat="44.45757" lon="6.52558">
        <ele>2274</ele>
        <time>2021-02-21T09:48:53Z</time>
      </trkpt>
      <trkpt lat="44.4576" lon="6.52558">
        <ele>2273</ele>
        <time>2021-02-21T09:48:54Z</time>
      </trkpt>
      <trkpt lat="44.45762" lon="6.5256">
        <ele>2274</ele>
        <time>2021-02-21T09:48:55Z</time>
      </trkpt>
      <trkpt lat="44.45764" lon="6.52561">
        <ele>2274</ele>
        <time>2021-02-21T09:48:56Z</time>
      </trkpt>
      <trkpt lat="44.45765" lon="6.52562">
        <ele>2274</ele>
        <time>2021-02-21T09:48:57Z</time>
      </trkpt>
      <trkpt lat="44.45767" lon="6.52562">
        <ele>2274</ele>
        <time>2021-02-21T09:48:58Z</time>
      </trkpt>
      <trkpt lat="44.45768" lon="6.52563">
        <ele>2274</ele>
        <time>2021-02-21T09:48:59Z</time>
      </trkpt>
      <trkpt lat="44.45769" lon="6.52564">
        <ele>2274</ele>
        <time>2021-02-21T09:49:00Z</time>
      </trkpt>
      <trkpt lat="44.45771" lon="6.52565">
        <ele>2274</ele>
        <time>2021-02-21T09:49:01Z</time>
      </trkpt>
      <trkpt lat="44.45772" lon="6.52567">
        <ele>2274</ele>
        <time>2021-02-21T09:49:02Z</time>
      </trkpt>
      <trkpt lat="44.45773" lon="6.52568">
        <ele>2274</ele>
        <time>2021-02-21T09:49:03Z</time>
      </trkpt>
      <trkpt lat="44.45774" lon="6.52569">
        <ele>2274</ele>
        <time>2021-02-21T09:49:04Z</time>
      </trkpt>
      <trkpt lat="44.45775" lon="6.5257">
        <ele>2274</ele>
        <time>2021-02-21T09:49:05Z</time>
      </trkpt>
      <trkpt lat="44.45776" lon="6.52571">
        <ele>2275</ele>
        <time>2021-02-21T09:49:06Z</time>
      </trkpt>
      <trkpt lat="44.45776" lon="6.52572">
        <ele>2275</ele>
        <time>2021-02-21T09:49:07Z</time>
      </trkpt>
      <trkpt lat="44.45776" lon="6.52573">
        <ele>2276</ele>
        <time>2021-02-21T09:49:08Z</time>
      </trkpt>
      <trkpt lat="44.45776" lon="6.52573">
        <ele>2276</ele>
        <time>2021-02-21T09:49:09Z</time>
      </trkpt>
      <trkpt lat="44.45776" lon="6.52573">
        <ele>2276</ele>
        <time>2021-02-21T09:49:10Z</time>
      </trkpt>
      <trkpt lat="44.45776" lon="6.52573">
        <ele>2276</ele>
        <time>2021-02-21T09:49:11Z</time>
      </trkpt>
      <trkpt lat="44.45776" lon="6.52573">
        <ele>2276</ele>
        <time>2021-02-21T09:49:12Z</time>
      </trkpt>
      <trkpt lat="44.45776" lon="6.52573">
        <ele>2276</ele>
        <time>2021-02-21T09:49:13Z</time>
      </trkpt>
      <trkpt lat="44.45776" lon="6.52573">
        <ele>2276</ele>
        <time>2021-02-21T09:49:14Z</time>
      </trkpt>
      <trkpt lat="44.45776" lon="6.52573">
        <ele>2276</ele>
        <time>2021-02-21T09:49:15Z</time>
      </trkpt>
      <trkpt lat="44.45776" lon="6.52573">
        <ele>2276</ele>
        <time>2021-02-21T09:49:16Z</time>
      </trkpt>
      <trkpt lat="44.45776" lon="6.52573">
        <ele>2276</ele>
        <time>2021-02-21T09:49:17Z</time>
      </trkpt>
      <trkpt lat="44.45776" lon="6.52573">
        <ele>2276</ele>
        <time>2021-02-21T09:49:18Z</time>
      </trkpt>
      <trkpt lat="44.45776" lon="6.52573">
        <ele>2276</ele>
        <time>2021-02-21T09:49:19Z</time>
      </trkpt>
      <trkpt lat="44.45776" lon="6.52573">
        <ele>2276</ele>
        <time>2021-02-21T09:49:20Z</time>
      </trkpt>
      <trkpt lat="44.45776" lon="6.52573">
        <ele>2276</ele>
        <time>2021-02-21T09:49:21Z</time>
      </trkpt>
      <trkpt lat="44.45776" lon="6.52573">
        <ele>2276</ele>
        <time>2021-02-21T09:49:22Z</time>
      </trkpt>
      <trkpt lat="44.45783" lon="6.52582">
        <ele>2277</ele>
        <time>2021-02-21T09:49:23Z</time>
      </trkpt>
      <trkpt lat="44.45784" lon="6.52583">
        <ele>2277</ele>
        <time>2021-02-21T09:49:24Z</time>
      </trkpt>
      <trkpt lat="44.45784" lon="6.52584">
        <ele>2277</ele>
        <time>2021-02-21T09:49:25Z</time>
      </trkpt>
      <trkpt lat="44.45784" lon="6.52584">
        <ele>2277</ele>
        <time>2021-02-21T09:49:26Z</time>
      </trkpt>
      <trkpt lat="44.45784" lon="6.52584">
        <ele>2277</ele>
        <time>2021-02-21T09:49:27Z</time>
      </trkpt>
      <trkpt lat="44.45786" lon="6.52586">
        <ele>2277</ele>
        <time>2021-02-21T09:49:28Z</time>
      </trkpt>
      <trkpt lat="44.45786" lon="6.52588">
        <ele>2278</ele>
        <time>2021-02-21T09:49:29Z</time>
      </trkpt>
      <trkpt lat="44.45787" lon="6.5259">
        <ele>2278</ele>
        <time>2021-02-21T09:49:30Z</time>
      </trkpt>
      <trkpt lat="44.45788" lon="6.52591">
        <ele>2278</ele>
        <time>2021-02-21T09:49:31Z</time>
      </trkpt>
      <trkpt lat="44.4579" lon="6.52592">
        <ele>2278</ele>
        <time>2021-02-21T09:49:32Z</time>
      </trkpt>
      <trkpt lat="44.45791" lon="6.52593">
        <ele>2278</ele>
        <time>2021-02-21T09:49:33Z</time>
      </trkpt>
      <trkpt lat="44.45791" lon="6.52594">
        <ele>2278</ele>
        <time>2021-02-21T09:49:34Z</time>
      </trkpt>
      <trkpt lat="44.45792" lon="6.52594">
        <ele>2278</ele>
        <time>2021-02-21T09:49:35Z</time>
      </trkpt>
      <trkpt lat="44.45792" lon="6.52594">
        <ele>2278</ele>
        <time>2021-02-21T09:49:36Z</time>
      </trkpt>
      <trkpt lat="44.45792" lon="6.52594">
        <ele>2278</ele>
        <time>2021-02-21T09:49:37Z</time>
      </trkpt>
      <trkpt lat="44.45792" lon="6.52594">
        <ele>2278</ele>
        <time>2021-02-21T09:49:38Z</time>
      </trkpt>
      <trkpt lat="44.45792" lon="6.52594">
        <ele>2278</ele>
        <time>2021-02-21T09:49:39Z</time>
      </trkpt>
      <trkpt lat="44.45792" lon="6.52594">
        <ele>2279</ele>
        <time>2021-02-21T09:49:40Z</time>
      </trkpt>
      <trkpt lat="44.45792" lon="6.52594">
        <ele>2279</ele>
        <time>2021-02-21T09:49:41Z</time>
      </trkpt>
      <trkpt lat="44.45792" lon="6.52594">
        <ele>2279</ele>
        <time>2021-02-21T09:49:42Z</time>
      </trkpt>
      <trkpt lat="44.45792" lon="6.52594">
        <ele>2279</ele>
        <time>2021-02-21T09:49:43Z</time>
      </trkpt>
      <trkpt lat="44.45792" lon="6.52594">
        <ele>2279</ele>
        <time>2021-02-21T09:49:44Z</time>
      </trkpt>
      <trkpt lat="44.45792" lon="6.52594">
        <ele>2279</ele>
        <time>2021-02-21T09:49:45Z</time>
      </trkpt>
      <trkpt lat="44.45792" lon="6.52594">
        <ele>2279</ele>
        <time>2021-02-21T09:49:46Z</time>
      </trkpt>
      <trkpt lat="44.45791" lon="6.52607">
        <ele>2279</ele>
        <time>2021-02-21T09:49:47Z</time>
      </trkpt>
      <trkpt lat="44.45792" lon="6.52608">
        <ele>2279</ele>
        <time>2021-02-21T09:49:48Z</time>
      </trkpt>
      <trkpt lat="44.45792" lon="6.5261">
        <ele>2279</ele>
        <time>2021-02-21T09:49:49Z</time>
      </trkpt>
      <trkpt lat="44.45792" lon="6.5261">
        <ele>2279</ele>
        <time>2021-02-21T09:49:50Z</time>
      </trkpt>
      <trkpt lat="44.45792" lon="6.52612">
        <ele>2279</ele>
        <time>2021-02-21T09:49:51Z</time>
      </trkpt>
      <trkpt lat="44.45792" lon="6.52613">
        <ele>2279</ele>
        <time>2021-02-21T09:49:52Z</time>
      </trkpt>
      <trkpt lat="44.45792" lon="6.52614">
        <ele>2279</ele>
        <time>2021-02-21T09:49:53Z</time>
      </trkpt>
      <trkpt lat="44.45792" lon="6.52614">
        <ele>2279</ele>
        <time>2021-02-21T09:49:54Z</time>
      </trkpt>
      <trkpt lat="44.45792" lon="6.52614">
        <ele>2279</ele>
        <time>2021-02-21T09:49:55Z</time>
      </trkpt>
      <trkpt lat="44.45792" lon="6.52614">
        <ele>2279</ele>
        <time>2021-02-21T09:49:56Z</time>
      </trkpt>
      <trkpt lat="44.45792" lon="6.52614">
        <ele>2279</ele>
        <time>2021-02-21T09:49:57Z</time>
      </trkpt>
      <trkpt lat="44.45792" lon="6.52614">
        <ele>2279</ele>
        <time>2021-02-21T09:49:58Z</time>
      </trkpt>
      <trkpt lat="44.45792" lon="6.52614">
        <ele>2279</ele>
        <time>2021-02-21T09:49:59Z</time>
      </trkpt>
      <trkpt lat="44.45792" lon="6.52614">
        <ele>2279</ele>
        <time>2021-02-21T09:50:00Z</time>
      </trkpt>
      <trkpt lat="44.45792" lon="6.52614">
        <ele>2279</ele>
        <time>2021-02-21T09:50:01Z</time>
      </trkpt>
      <trkpt lat="44.45792" lon="6.52614">
        <ele>2279</ele>
        <time>2021-02-21T09:50:02Z</time>
      </trkpt>
      <trkpt lat="44.45792" lon="6.52614">
        <ele>2279</ele>
        <time>2021-02-21T09:50:03Z</time>
      </trkpt>
      <trkpt lat="44.45792" lon="6.52614">
        <ele>2279</ele>
        <time>2021-02-21T09:50:04Z</time>
      </trkpt>
      <trkpt lat="44.45792" lon="6.52614">
        <ele>2279</ele>
        <time>2021-02-21T09:50:05Z</time>
      </trkpt>
      <trkpt lat="44.45792" lon="6.52614">
        <ele>2279</ele>
        <time>2021-02-21T09:50:06Z</time>
      </trkpt>
      <trkpt lat="44.45792" lon="6.52614">
        <ele>2279</ele>
        <time>2021-02-21T09:50:07Z</time>
      </trkpt>
      <trkpt lat="44.45792" lon="6.52614">
        <ele>2279</ele>
        <time>2021-02-21T09:50:08Z</time>
      </trkpt>
      <trkpt lat="44.45792" lon="6.52614">
        <ele>2279</ele>
        <time>2021-02-21T09:50:09Z</time>
      </trkpt>
      <trkpt lat="44.45792" lon="6.52614">
        <ele>2279</ele>
        <time>2021-02-21T09:50:10Z</time>
      </trkpt>
      <trkpt lat="44.45792" lon="6.52614">
        <ele>2279</ele>
        <time>2021-02-21T09:50:11Z</time>
      </trkpt>
      <trkpt lat="44.45792" lon="6.52614">
        <ele>2279</ele>
        <time>2021-02-21T09:50:12Z</time>
      </trkpt>
      <trkpt lat="44.45792" lon="6.52614">
        <ele>2279</ele>
        <time>2021-02-21T09:50:13Z</time>
      </trkpt>
      <trkpt lat="44.45792" lon="6.52614">
        <ele>2279</ele>
        <time>2021-02-21T09:50:14Z</time>
      </trkpt>
      <trkpt lat="44.45792" lon="6.52614">
        <ele>2279</ele>
        <time>2021-02-21T09:50:15Z</time>
      </trkpt>
      <trkpt lat="44.45792" lon="6.52614">
        <ele>2279</ele>
        <time>2021-02-21T09:50:16Z</time>
      </trkpt>
      <trkpt lat="44.45792" lon="6.52614">
        <ele>2279</ele>
        <time>2021-02-21T09:50:17Z</time>
      </trkpt>
      <trkpt lat="44.45792" lon="6.52614">
        <ele>2279</ele>
        <time>2021-02-21T09:50:18Z</time>
      </trkpt>
      <trkpt lat="44.45792" lon="6.52614">
        <ele>2279</ele>
        <time>2021-02-21T09:50:19Z</time>
      </trkpt>
      <trkpt lat="44.45792" lon="6.52614">
        <ele>2279</ele>
        <time>2021-02-21T09:50:20Z</time>
      </trkpt>
      <trkpt lat="44.45792" lon="6.52614">
        <ele>2279</ele>
        <time>2021-02-21T09:50:21Z</time>
      </trkpt>
      <trkpt lat="44.45798" lon="6.52623">
        <ele>2278</ele>
        <time>2021-02-21T09:50:22Z</time>
      </trkpt>
      <trkpt lat="44.45799" lon="6.52623">
        <ele>2278</ele>
        <time>2021-02-21T09:50:23Z</time>
      </trkpt>
      <trkpt lat="44.458" lon="6.52624">
        <ele>2278</ele>
        <time>2021-02-21T09:50:24Z</time>
      </trkpt>
      <trkpt lat="44.45801" lon="6.52624">
        <ele>2278</ele>
        <time>2021-02-21T09:50:25Z</time>
      </trkpt>
      <trkpt lat="44.45801" lon="6.52624">
        <ele>2278</ele>
        <time>2021-02-21T09:50:26Z</time>
      </trkpt>
      <trkpt lat="44.45801" lon="6.52624">
        <ele>2278</ele>
        <time>2021-02-21T09:50:27Z</time>
      </trkpt>
      <trkpt lat="44.45801" lon="6.52624">
        <ele>2278</ele>
        <time>2021-02-21T09:50:28Z</time>
      </trkpt>
      <trkpt lat="44.45801" lon="6.52624">
        <ele>2278</ele>
        <time>2021-02-21T09:50:29Z</time>
      </trkpt>
      <trkpt lat="44.45801" lon="6.52624">
        <ele>2278</ele>
        <time>2021-02-21T09:50:30Z</time>
      </trkpt>
      <trkpt lat="44.45801" lon="6.52624">
        <ele>2278</ele>
        <time>2021-02-21T09:50:31Z</time>
      </trkpt>
      <trkpt lat="44.45801" lon="6.52624">
        <ele>2278</ele>
        <time>2021-02-21T09:50:32Z</time>
      </trkpt>
      <trkpt lat="44.45801" lon="6.52624">
        <ele>2278</ele>
        <time>2021-02-21T09:50:33Z</time>
      </trkpt>
      <trkpt lat="44.45801" lon="6.52624">
        <ele>2278</ele>
        <time>2021-02-21T09:50:34Z</time>
      </trkpt>
      <trkpt lat="44.45801" lon="6.52624">
        <ele>2278</ele>
        <time>2021-02-21T09:50:35Z</time>
      </trkpt>
      <trkpt lat="44.45801" lon="6.52624">
        <ele>2278</ele>
        <time>2021-02-21T09:50:36Z</time>
      </trkpt>
      <trkpt lat="44.45801" lon="6.52624">
        <ele>2278</ele>
        <time>2021-02-21T09:50:37Z</time>
      </trkpt>
      <trkpt lat="44.45801" lon="6.52624">
        <ele>2278</ele>
        <time>2021-02-21T09:50:38Z</time>
      </trkpt>
      <trkpt lat="44.45801" lon="6.52624">
        <ele>2278</ele>
        <time>2021-02-21T09:50:39Z</time>
      </trkpt>
      <trkpt lat="44.45801" lon="6.52624">
        <ele>2278</ele>
        <time>2021-02-21T09:50:40Z</time>
      </trkpt>
      <trkpt lat="44.45801" lon="6.52624">
        <ele>2278</ele>
        <time>2021-02-21T09:50:41Z</time>
      </trkpt>
      <trkpt lat="44.45801" lon="6.52624">
        <ele>2278</ele>
        <time>2021-02-21T09:50:42Z</time>
      </trkpt>
      <trkpt lat="44.45801" lon="6.52624">
        <ele>2278</ele>
        <time>2021-02-21T09:50:43Z</time>
      </trkpt>
      <trkpt lat="44.45801" lon="6.52624">
        <ele>2278</ele>
        <time>2021-02-21T09:50:44Z</time>
      </trkpt>
      <trkpt lat="44.45801" lon="6.52624">
        <ele>2278</ele>
        <time>2021-02-21T09:50:45Z</time>
      </trkpt>
      <trkpt lat="44.45801" lon="6.52624">
        <ele>2278</ele>
        <time>2021-02-21T09:50:46Z</time>
      </trkpt>
      <trkpt lat="44.45807" lon="6.52634">
        <ele>2275</ele>
        <time>2021-02-21T09:50:47Z</time>
      </trkpt>
      <trkpt lat="44.45808" lon="6.52636">
        <ele>2274</ele>
        <time>2021-02-21T09:50:48Z</time>
      </trkpt>
      <trkpt lat="44.45809" lon="6.52638">
        <ele>2274</ele>
        <time>2021-02-21T09:50:49Z</time>
      </trkpt>
      <trkpt lat="44.4581" lon="6.5264">
        <ele>2274</ele>
        <time>2021-02-21T09:50:50Z</time>
      </trkpt>
      <trkpt lat="44.45811" lon="6.52642">
        <ele>2274</ele>
        <time>2021-02-21T09:50:51Z</time>
      </trkpt>
      <trkpt lat="44.45811" lon="6.52643">
        <ele>2274</ele>
        <time>2021-02-21T09:50:52Z</time>
      </trkpt>
      <trkpt lat="44.45812" lon="6.52644">
        <ele>2274</ele>
        <time>2021-02-21T09:50:53Z</time>
      </trkpt>
      <trkpt lat="44.45812" lon="6.52645">
        <ele>2274</ele>
        <time>2021-02-21T09:50:54Z</time>
      </trkpt>
      <trkpt lat="44.45812" lon="6.52645">
        <ele>2274</ele>
        <time>2021-02-21T09:50:55Z</time>
      </trkpt>
      <trkpt lat="44.45812" lon="6.52645">
        <ele>2274</ele>
        <time>2021-02-21T09:50:56Z</time>
      </trkpt>
      <trkpt lat="44.45812" lon="6.52645">
        <ele>2274</ele>
        <time>2021-02-21T09:50:57Z</time>
      </trkpt>
      <trkpt lat="44.45812" lon="6.52645">
        <ele>2274</ele>
        <time>2021-02-21T09:50:58Z</time>
      </trkpt>
      <trkpt lat="44.45816" lon="6.52649">
        <ele>2274</ele>
        <time>2021-02-21T09:50:59Z</time>
      </trkpt>
      <trkpt lat="44.45818" lon="6.52651">
        <ele>2274</ele>
        <time>2021-02-21T09:51:00Z</time>
      </trkpt>
      <trkpt lat="44.45821" lon="6.52655">
        <ele>2274</ele>
        <time>2021-02-21T09:51:01Z</time>
      </trkpt>
      <trkpt lat="44.45825" lon="6.5266">
        <ele>2274</ele>
        <time>2021-02-21T09:51:02Z</time>
      </trkpt>
      <trkpt lat="44.45831" lon="6.52666">
        <ele>2273</ele>
        <time>2021-02-21T09:51:03Z</time>
      </trkpt>
      <trkpt lat="44.4584" lon="6.52671">
        <ele>2273</ele>
        <time>2021-02-21T09:51:04Z</time>
      </trkpt>
      <trkpt lat="44.45847" lon="6.52677">
        <ele>2272</ele>
        <time>2021-02-21T09:51:05Z</time>
      </trkpt>
      <trkpt lat="44.45855" lon="6.5268">
        <ele>2271</ele>
        <time>2021-02-21T09:51:06Z</time>
      </trkpt>
      <trkpt lat="44.45862" lon="6.52682">
        <ele>2270</ele>
        <time>2021-02-21T09:51:07Z</time>
      </trkpt>
      <trkpt lat="44.4587" lon="6.52682">
        <ele>2268</ele>
        <time>2021-02-21T09:51:08Z</time>
      </trkpt>
      <trkpt lat="44.45876" lon="6.52681">
        <ele>2267</ele>
        <time>2021-02-21T09:51:09Z</time>
      </trkpt>
      <trkpt lat="44.45881" lon="6.5268">
        <ele>2266</ele>
        <time>2021-02-21T09:51:10Z</time>
      </trkpt>
      <trkpt lat="44.45886" lon="6.52679">
        <ele>2265</ele>
        <time>2021-02-21T09:51:11Z</time>
      </trkpt>
      <trkpt lat="44.45892" lon="6.52679">
        <ele>2263</ele>
        <time>2021-02-21T09:51:12Z</time>
      </trkpt>
      <trkpt lat="44.45897" lon="6.5268">
        <ele>2262</ele>
        <time>2021-02-21T09:51:13Z</time>
      </trkpt>
      <trkpt lat="44.45902" lon="6.52684">
        <ele>2260</ele>
        <time>2021-02-21T09:51:14Z</time>
      </trkpt>
      <trkpt lat="44.45906" lon="6.52691">
        <ele>2259</ele>
        <time>2021-02-21T09:51:15Z</time>
      </trkpt>
      <trkpt lat="44.4591" lon="6.52699">
        <ele>2258</ele>
        <time>2021-02-21T09:51:16Z</time>
      </trkpt>
      <trkpt lat="44.45915" lon="6.52706">
        <ele>2256</ele>
        <time>2021-02-21T09:51:17Z</time>
      </trkpt>
      <trkpt lat="44.45919" lon="6.52715">
        <ele>2254</ele>
        <time>2021-02-21T09:51:18Z</time>
      </trkpt>
      <trkpt lat="44.45924" lon="6.52724">
        <ele>2252</ele>
        <time>2021-02-21T09:51:19Z</time>
      </trkpt>
      <trkpt lat="44.45929" lon="6.52733">
        <ele>2250</ele>
        <time>2021-02-21T09:51:20Z</time>
      </trkpt>
      <trkpt lat="44.45933" lon="6.52744">
        <ele>2248</ele>
        <time>2021-02-21T09:51:21Z</time>
      </trkpt>
      <trkpt lat="44.45936" lon="6.52754">
        <ele>2247</ele>
        <time>2021-02-21T09:51:22Z</time>
      </trkpt>
      <trkpt lat="44.45935" lon="6.52762">
        <ele>2245</ele>
        <time>2021-02-21T09:51:23Z</time>
      </trkpt>
      <trkpt lat="44.45929" lon="6.5277">
        <ele>2243</ele>
        <time>2021-02-21T09:51:24Z</time>
      </trkpt>
      <trkpt lat="44.45924" lon="6.52778">
        <ele>2242</ele>
        <time>2021-02-21T09:51:25Z</time>
      </trkpt>
      <trkpt lat="44.45919" lon="6.52786">
        <ele>2240</ele>
        <time>2021-02-21T09:51:26Z</time>
      </trkpt>
      <trkpt lat="44.45922" lon="6.52794">
        <ele>2238</ele>
        <time>2021-02-21T09:51:27Z</time>
      </trkpt>
      <trkpt lat="44.45926" lon="6.52802">
        <ele>2236</ele>
        <time>2021-02-21T09:51:28Z</time>
      </trkpt>
      <trkpt lat="44.4593" lon="6.5281">
        <ele>2233</ele>
        <time>2021-02-21T09:51:29Z</time>
      </trkpt>
      <trkpt lat="44.45934" lon="6.52819">
        <ele>2231</ele>
        <time>2021-02-21T09:51:30Z</time>
      </trkpt>
      <trkpt lat="44.45938" lon="6.52828">
        <ele>2230</ele>
        <time>2021-02-21T09:51:31Z</time>
      </trkpt>
      <trkpt lat="44.45941" lon="6.52837">
        <ele>2229</ele>
        <time>2021-02-21T09:51:32Z</time>
      </trkpt>
      <trkpt lat="44.45945" lon="6.52847">
        <ele>2229</ele>
        <time>2021-02-21T09:51:33Z</time>
      </trkpt>
      <trkpt lat="44.45948" lon="6.52855">
        <ele>2229</ele>
        <time>2021-02-21T09:51:34Z</time>
      </trkpt>
      <trkpt lat="44.45951" lon="6.52864">
        <ele>2229</ele>
        <time>2021-02-21T09:51:35Z</time>
      </trkpt>
      <trkpt lat="44.45955" lon="6.52871">
        <ele>2228</ele>
        <time>2021-02-21T09:51:36Z</time>
      </trkpt>
      <trkpt lat="44.45958" lon="6.52879">
        <ele>2228</ele>
        <time>2021-02-21T09:51:37Z</time>
      </trkpt>
      <trkpt lat="44.45962" lon="6.52887">
        <ele>2228</ele>
        <time>2021-02-21T09:51:38Z</time>
      </trkpt>
      <trkpt lat="44.45966" lon="6.52895">
        <ele>2227</ele>
        <time>2021-02-21T09:51:39Z</time>
      </trkpt>
      <trkpt lat="44.45969" lon="6.52904">
        <ele>2227</ele>
        <time>2021-02-21T09:51:40Z</time>
      </trkpt>
      <trkpt lat="44.45972" lon="6.52912">
        <ele>2226</ele>
        <time>2021-02-21T09:51:41Z</time>
      </trkpt>
      <trkpt lat="44.45976" lon="6.52919">
        <ele>2225</ele>
        <time>2021-02-21T09:51:42Z</time>
      </trkpt>
      <trkpt lat="44.45979" lon="6.52926">
        <ele>2225</ele>
        <time>2021-02-21T09:51:43Z</time>
      </trkpt>
      <trkpt lat="44.45983" lon="6.52933">
        <ele>2224</ele>
        <time>2021-02-21T09:51:44Z</time>
      </trkpt>
      <trkpt lat="44.45985" lon="6.52939">
        <ele>2224</ele>
        <time>2021-02-21T09:51:45Z</time>
      </trkpt>
      <trkpt lat="44.45988" lon="6.52945">
        <ele>2224</ele>
        <time>2021-02-21T09:51:46Z</time>
      </trkpt>
      <trkpt lat="44.4599" lon="6.52951">
        <ele>2223</ele>
        <time>2021-02-21T09:51:47Z</time>
      </trkpt>
      <trkpt lat="44.45993" lon="6.52958">
        <ele>2223</ele>
        <time>2021-02-21T09:51:48Z</time>
      </trkpt>
      <trkpt lat="44.45995" lon="6.52966">
        <ele>2223</ele>
        <time>2021-02-21T09:51:49Z</time>
      </trkpt>
      <trkpt lat="44.45998" lon="6.52972">
        <ele>2223</ele>
        <time>2021-02-21T09:51:50Z</time>
      </trkpt>
      <trkpt lat="44.46" lon="6.52977">
        <ele>2224</ele>
        <time>2021-02-21T09:51:51Z</time>
      </trkpt>
      <trkpt lat="44.46003" lon="6.52981">
        <ele>2224</ele>
        <time>2021-02-21T09:51:52Z</time>
      </trkpt>
      <trkpt lat="44.46005" lon="6.52985">
        <ele>2223</ele>
        <time>2021-02-21T09:51:53Z</time>
      </trkpt>
      <trkpt lat="44.46009" lon="6.52991">
        <ele>2223</ele>
        <time>2021-02-21T09:51:54Z</time>
      </trkpt>
      <trkpt lat="44.46012" lon="6.52997">
        <ele>2222</ele>
        <time>2021-02-21T09:51:55Z</time>
      </trkpt>
      <trkpt lat="44.46015" lon="6.53004">
        <ele>2222</ele>
        <time>2021-02-21T09:51:56Z</time>
      </trkpt>
      <trkpt lat="44.46018" lon="6.53011">
        <ele>2221</ele>
        <time>2021-02-21T09:51:57Z</time>
      </trkpt>
      <trkpt lat="44.46022" lon="6.53018">
        <ele>2221</ele>
        <time>2021-02-21T09:51:58Z</time>
      </trkpt>
      <trkpt lat="44.46025" lon="6.53024">
        <ele>2220</ele>
        <time>2021-02-21T09:51:59Z</time>
      </trkpt>
      <trkpt lat="44.46028" lon="6.5303">
        <ele>2220</ele>
        <time>2021-02-21T09:52:00Z</time>
      </trkpt>
      <trkpt lat="44.4603" lon="6.53036">
        <ele>2219</ele>
        <time>2021-02-21T09:52:01Z</time>
      </trkpt>
      <trkpt lat="44.46032" lon="6.53041">
        <ele>2218</ele>
        <time>2021-02-21T09:52:02Z</time>
      </trkpt>
      <trkpt lat="44.46034" lon="6.53046">
        <ele>2218</ele>
        <time>2021-02-21T09:52:03Z</time>
      </trkpt>
      <trkpt lat="44.46036" lon="6.53052">
        <ele>2217</ele>
        <time>2021-02-21T09:52:04Z</time>
      </trkpt>
      <trkpt lat="44.46038" lon="6.53056">
        <ele>2217</ele>
        <time>2021-02-21T09:52:05Z</time>
      </trkpt>
      <trkpt lat="44.4604" lon="6.5306">
        <ele>2217</ele>
        <time>2021-02-21T09:52:06Z</time>
      </trkpt>
      <trkpt lat="44.46043" lon="6.53064">
        <ele>2216</ele>
        <time>2021-02-21T09:52:07Z</time>
      </trkpt>
      <trkpt lat="44.46045" lon="6.53068">
        <ele>2215</ele>
        <time>2021-02-21T09:52:08Z</time>
      </trkpt>
      <trkpt lat="44.46047" lon="6.53073">
        <ele>2215</ele>
        <time>2021-02-21T09:52:09Z</time>
      </trkpt>
      <trkpt lat="44.4605" lon="6.53077">
        <ele>2214</ele>
        <time>2021-02-21T09:52:10Z</time>
      </trkpt>
      <trkpt lat="44.46051" lon="6.53083">
        <ele>2214</ele>
        <time>2021-02-21T09:52:11Z</time>
      </trkpt>
      <trkpt lat="44.46053" lon="6.53087">
        <ele>2214</ele>
        <time>2021-02-21T09:52:12Z</time>
      </trkpt>
      <trkpt lat="44.46055" lon="6.53092">
        <ele>2214</ele>
        <time>2021-02-21T09:52:13Z</time>
      </trkpt>
      <trkpt lat="44.46057" lon="6.53097">
        <ele>2214</ele>
        <time>2021-02-21T09:52:14Z</time>
      </trkpt>
      <trkpt lat="44.46059" lon="6.53104">
        <ele>2214</ele>
        <time>2021-02-21T09:52:15Z</time>
      </trkpt>
      <trkpt lat="44.46061" lon="6.53109">
        <ele>2213</ele>
        <time>2021-02-21T09:52:16Z</time>
      </trkpt>
      <trkpt lat="44.46062" lon="6.53114">
        <ele>2213</ele>
        <time>2021-02-21T09:52:17Z</time>
      </trkpt>
      <trkpt lat="44.46064" lon="6.53117">
        <ele>2213</ele>
        <time>2021-02-21T09:52:18Z</time>
      </trkpt>
      <trkpt lat="44.46065" lon="6.53118">
        <ele>2213</ele>
        <time>2021-02-21T09:52:19Z</time>
      </trkpt>
      <trkpt lat="44.46065" lon="6.53118">
        <ele>2212</ele>
        <time>2021-02-21T09:52:20Z</time>
      </trkpt>
      <trkpt lat="44.46065" lon="6.53119">
        <ele>2212</ele>
        <time>2021-02-21T09:52:21Z</time>
      </trkpt>
      <trkpt lat="44.46065" lon="6.53122">
        <ele>2212</ele>
        <time>2021-02-21T09:52:22Z</time>
      </trkpt>
      <trkpt lat="44.46064" lon="6.53124">
        <ele>2211</ele>
        <time>2021-02-21T09:52:23Z</time>
      </trkpt>
      <trkpt lat="44.46063" lon="6.53133">
        <ele>2211</ele>
        <time>2021-02-21T09:52:24Z</time>
      </trkpt>
      <trkpt lat="44.46064" lon="6.53143">
        <ele>2211</ele>
        <time>2021-02-21T09:52:25Z</time>
      </trkpt>
      <trkpt lat="44.46064" lon="6.53154">
        <ele>2210</ele>
        <time>2021-02-21T09:52:26Z</time>
      </trkpt>
      <trkpt lat="44.46065" lon="6.53165">
        <ele>2210</ele>
        <time>2021-02-21T09:52:27Z</time>
      </trkpt>
      <trkpt lat="44.46068" lon="6.53175">
        <ele>2209</ele>
        <time>2021-02-21T09:52:28Z</time>
      </trkpt>
      <trkpt lat="44.4607" lon="6.53184">
        <ele>2209</ele>
        <time>2021-02-21T09:52:29Z</time>
      </trkpt>
      <trkpt lat="44.46072" lon="6.53191">
        <ele>2208</ele>
        <time>2021-02-21T09:52:30Z</time>
      </trkpt>
      <trkpt lat="44.46074" lon="6.53197">
        <ele>2208</ele>
        <time>2021-02-21T09:52:31Z</time>
      </trkpt>
      <trkpt lat="44.46076" lon="6.53203">
        <ele>2208</ele>
        <time>2021-02-21T09:52:32Z</time>
      </trkpt>
      <trkpt lat="44.46077" lon="6.53207">
        <ele>2208</ele>
        <time>2021-02-21T09:52:33Z</time>
      </trkpt>
      <trkpt lat="44.46078" lon="6.53211">
        <ele>2208</ele>
        <time>2021-02-21T09:52:34Z</time>
      </trkpt>
      <trkpt lat="44.46078" lon="6.53216">
        <ele>2208</ele>
        <time>2021-02-21T09:52:35Z</time>
      </trkpt>
      <trkpt lat="44.46079" lon="6.53219">
        <ele>2208</ele>
        <time>2021-02-21T09:52:36Z</time>
      </trkpt>
      <trkpt lat="44.4608" lon="6.53222">
        <ele>2208</ele>
        <time>2021-02-21T09:52:37Z</time>
      </trkpt>
      <trkpt lat="44.46081" lon="6.53225">
        <ele>2208</ele>
        <time>2021-02-21T09:52:38Z</time>
      </trkpt>
      <trkpt lat="44.46082" lon="6.53229">
        <ele>2207</ele>
        <time>2021-02-21T09:52:39Z</time>
      </trkpt>
      <trkpt lat="44.46083" lon="6.53233">
        <ele>2207</ele>
        <time>2021-02-21T09:52:40Z</time>
      </trkpt>
      <trkpt lat="44.46083" lon="6.53237">
        <ele>2206</ele>
        <time>2021-02-21T09:52:41Z</time>
      </trkpt>
      <trkpt lat="44.46084" lon="6.53241">
        <ele>2206</ele>
        <time>2021-02-21T09:52:42Z</time>
      </trkpt>
      <trkpt lat="44.46083" lon="6.53244">
        <ele>2205</ele>
        <time>2021-02-21T09:52:43Z</time>
      </trkpt>
      <trkpt lat="44.46083" lon="6.53248">
        <ele>2205</ele>
        <time>2021-02-21T09:52:44Z</time>
      </trkpt>
      <trkpt lat="44.46083" lon="6.53251">
        <ele>2205</ele>
        <time>2021-02-21T09:52:45Z</time>
      </trkpt>
      <trkpt lat="44.46083" lon="6.53255">
        <ele>2204</ele>
        <time>2021-02-21T09:52:46Z</time>
      </trkpt>
      <trkpt lat="44.46083" lon="6.53258">
        <ele>2204</ele>
        <time>2021-02-21T09:52:47Z</time>
      </trkpt>
      <trkpt lat="44.46082" lon="6.53261">
        <ele>2203</ele>
        <time>2021-02-21T09:52:48Z</time>
      </trkpt>
      <trkpt lat="44.46082" lon="6.53263">
        <ele>2203</ele>
        <time>2021-02-21T09:52:49Z</time>
      </trkpt>
      <trkpt lat="44.46082" lon="6.53266">
        <ele>2202</ele>
        <time>2021-02-21T09:52:50Z</time>
      </trkpt>
      <trkpt lat="44.46082" lon="6.53269">
        <ele>2202</ele>
        <time>2021-02-21T09:52:51Z</time>
      </trkpt>
      <trkpt lat="44.46081" lon="6.53273">
        <ele>2201</ele>
        <time>2021-02-21T09:52:52Z</time>
      </trkpt>
      <trkpt lat="44.46081" lon="6.53276">
        <ele>2201</ele>
        <time>2021-02-21T09:52:53Z</time>
      </trkpt>
      <trkpt lat="44.4608" lon="6.53279">
        <ele>2201</ele>
        <time>2021-02-21T09:52:54Z</time>
      </trkpt>
      <trkpt lat="44.4608" lon="6.53283">
        <ele>2200</ele>
        <time>2021-02-21T09:52:55Z</time>
      </trkpt>
      <trkpt lat="44.46079" lon="6.53286">
        <ele>2200</ele>
        <time>2021-02-21T09:52:56Z</time>
      </trkpt>
      <trkpt lat="44.46078" lon="6.53289">
        <ele>2199</ele>
        <time>2021-02-21T09:52:57Z</time>
      </trkpt>
      <trkpt lat="44.46077" lon="6.5329">
        <ele>2199</ele>
        <time>2021-02-21T09:52:58Z</time>
      </trkpt>
      <trkpt lat="44.46077" lon="6.53292">
        <ele>2199</ele>
        <time>2021-02-21T09:52:59Z</time>
      </trkpt>
      <trkpt lat="44.46077" lon="6.53292">
        <ele>2199</ele>
        <time>2021-02-21T09:53:00Z</time>
      </trkpt>
      <trkpt lat="44.46077" lon="6.53292">
        <ele>2199</ele>
        <time>2021-02-21T09:53:01Z</time>
      </trkpt>
      <trkpt lat="44.46077" lon="6.53292">
        <ele>2199</ele>
        <time>2021-02-21T09:53:02Z</time>
      </trkpt>
      <trkpt lat="44.46077" lon="6.53292">
        <ele>2199</ele>
        <time>2021-02-21T09:53:03Z</time>
      </trkpt>
      <trkpt lat="44.46077" lon="6.53292">
        <ele>2199</ele>
        <time>2021-02-21T09:53:04Z</time>
      </trkpt>
      <trkpt lat="44.46077" lon="6.53292">
        <ele>2199</ele>
        <time>2021-02-21T09:53:05Z</time>
      </trkpt>
      <trkpt lat="44.46079" lon="6.53298">
        <ele>2199</ele>
        <time>2021-02-21T09:53:06Z</time>
      </trkpt>
      <trkpt lat="44.46081" lon="6.53302">
        <ele>2200</ele>
        <time>2021-02-21T09:53:07Z</time>
      </trkpt>
      <trkpt lat="44.46082" lon="6.53306">
        <ele>2200</ele>
        <time>2021-02-21T09:53:08Z</time>
      </trkpt>
      <trkpt lat="44.46084" lon="6.53312">
        <ele>2200</ele>
        <time>2021-02-21T09:53:09Z</time>
      </trkpt>
      <trkpt lat="44.46086" lon="6.53317">
        <ele>2200</ele>
        <time>2021-02-21T09:53:10Z</time>
      </trkpt>
      <trkpt lat="44.46088" lon="6.53323">
        <ele>2200</ele>
        <time>2021-02-21T09:53:11Z</time>
      </trkpt>
      <trkpt lat="44.4609" lon="6.53328">
        <ele>2199</ele>
        <time>2021-02-21T09:53:12Z</time>
      </trkpt>
      <trkpt lat="44.46092" lon="6.53334">
        <ele>2199</ele>
        <time>2021-02-21T09:53:13Z</time>
      </trkpt>
      <trkpt lat="44.46095" lon="6.5334">
        <ele>2199</ele>
        <time>2021-02-21T09:53:14Z</time>
      </trkpt>
      <trkpt lat="44.46097" lon="6.53346">
        <ele>2198</ele>
        <time>2021-02-21T09:53:15Z</time>
      </trkpt>
      <trkpt lat="44.46097" lon="6.53352">
        <ele>2197</ele>
        <time>2021-02-21T09:53:16Z</time>
      </trkpt>
      <trkpt lat="44.46097" lon="6.53361">
        <ele>2197</ele>
        <time>2021-02-21T09:53:17Z</time>
      </trkpt>
      <trkpt lat="44.46098" lon="6.53371">
        <ele>2197</ele>
        <time>2021-02-21T09:53:18Z</time>
      </trkpt>
      <trkpt lat="44.461" lon="6.53382">
        <ele>2196</ele>
        <time>2021-02-21T09:53:19Z</time>
      </trkpt>
      <trkpt lat="44.46102" lon="6.53394">
        <ele>2195</ele>
        <time>2021-02-21T09:53:20Z</time>
      </trkpt>
      <trkpt lat="44.46105" lon="6.53406">
        <ele>2194</ele>
        <time>2021-02-21T09:53:21Z</time>
      </trkpt>
      <trkpt lat="44.46109" lon="6.53417">
        <ele>2193</ele>
        <time>2021-02-21T09:53:22Z</time>
      </trkpt>
      <trkpt lat="44.46115" lon="6.53428">
        <ele>2192</ele>
        <time>2021-02-21T09:53:23Z</time>
      </trkpt>
      <trkpt lat="44.46124" lon="6.53434">
        <ele>2191</ele>
        <time>2021-02-21T09:53:24Z</time>
      </trkpt>
      <trkpt lat="44.46132" lon="6.53438">
        <ele>2189</ele>
        <time>2021-02-21T09:53:25Z</time>
      </trkpt>
      <trkpt lat="44.4614" lon="6.53443">
        <ele>2187</ele>
        <time>2021-02-21T09:53:26Z</time>
      </trkpt>
      <trkpt lat="44.46148" lon="6.53448">
        <ele>2185</ele>
        <time>2021-02-21T09:53:27Z</time>
      </trkpt>
      <trkpt lat="44.46155" lon="6.53453">
        <ele>2183</ele>
        <time>2021-02-21T09:53:28Z</time>
      </trkpt>
      <trkpt lat="44.46162" lon="6.53457">
        <ele>2182</ele>
        <time>2021-02-21T09:53:29Z</time>
      </trkpt>
      <trkpt lat="44.46168" lon="6.53462">
        <ele>2181</ele>
        <time>2021-02-21T09:53:30Z</time>
      </trkpt>
      <trkpt lat="44.46173" lon="6.53467">
        <ele>2180</ele>
        <time>2021-02-21T09:53:31Z</time>
      </trkpt>
      <trkpt lat="44.46179" lon="6.53472">
        <ele>2179</ele>
        <time>2021-02-21T09:53:32Z</time>
      </trkpt>
      <trkpt lat="44.46184" lon="6.53478">
        <ele>2179</ele>
        <time>2021-02-21T09:53:33Z</time>
      </trkpt>
      <trkpt lat="44.46189" lon="6.53484">
        <ele>2178</ele>
        <time>2021-02-21T09:53:34Z</time>
      </trkpt>
      <trkpt lat="44.46195" lon="6.5349">
        <ele>2177</ele>
        <time>2021-02-21T09:53:35Z</time>
      </trkpt>
      <trkpt lat="44.46199" lon="6.53499">
        <ele>2176</ele>
        <time>2021-02-21T09:53:36Z</time>
      </trkpt>
      <trkpt lat="44.46204" lon="6.53508">
        <ele>2176</ele>
        <time>2021-02-21T09:53:37Z</time>
      </trkpt>
      <trkpt lat="44.46208" lon="6.5352">
        <ele>2175</ele>
        <time>2021-02-21T09:53:38Z</time>
      </trkpt>
      <trkpt lat="44.46212" lon="6.53532">
        <ele>2173</ele>
        <time>2021-02-21T09:53:39Z</time>
      </trkpt>
      <trkpt lat="44.46215" lon="6.53544">
        <ele>2172</ele>
        <time>2021-02-21T09:53:40Z</time>
      </trkpt>
      <trkpt lat="44.46219" lon="6.53555">
        <ele>2170</ele>
        <time>2021-02-21T09:53:41Z</time>
      </trkpt>
      <trkpt lat="44.46224" lon="6.53565">
        <ele>2169</ele>
        <time>2021-02-21T09:53:42Z</time>
      </trkpt>
      <trkpt lat="44.46228" lon="6.53575">
        <ele>2167</ele>
        <time>2021-02-21T09:53:43Z</time>
      </trkpt>
      <trkpt lat="44.46233" lon="6.53585">
        <ele>2165</ele>
        <time>2021-02-21T09:53:44Z</time>
      </trkpt>
      <trkpt lat="44.46237" lon="6.53595">
        <ele>2164</ele>
        <time>2021-02-21T09:53:45Z</time>
      </trkpt>
      <trkpt lat="44.4624" lon="6.53605">
        <ele>2163</ele>
        <time>2021-02-21T09:53:46Z</time>
      </trkpt>
      <trkpt lat="44.46242" lon="6.53615">
        <ele>2162</ele>
        <time>2021-02-21T09:53:47Z</time>
      </trkpt>
      <trkpt lat="44.46242" lon="6.53625">
        <ele>2161</ele>
        <time>2021-02-21T09:53:48Z</time>
      </trkpt>
      <trkpt lat="44.46241" lon="6.53633">
        <ele>2161</ele>
        <time>2021-02-21T09:53:49Z</time>
      </trkpt>
      <trkpt lat="44.46239" lon="6.5364">
        <ele>2160</ele>
        <time>2021-02-21T09:53:50Z</time>
      </trkpt>
      <trkpt lat="44.46239" lon="6.53646">
        <ele>2159</ele>
        <time>2021-02-21T09:53:51Z</time>
      </trkpt>
      <trkpt lat="44.4624" lon="6.53653">
        <ele>2158</ele>
        <time>2021-02-21T09:53:52Z</time>
      </trkpt>
      <trkpt lat="44.46243" lon="6.5366">
        <ele>2157</ele>
        <time>2021-02-21T09:53:53Z</time>
      </trkpt>
      <trkpt lat="44.46246" lon="6.53669">
        <ele>2156</ele>
        <time>2021-02-21T09:53:54Z</time>
      </trkpt>
      <trkpt lat="44.46249" lon="6.53679">
        <ele>2155</ele>
        <time>2021-02-21T09:53:55Z</time>
      </trkpt>
      <trkpt lat="44.46252" lon="6.5369">
        <ele>2154</ele>
        <time>2021-02-21T09:53:56Z</time>
      </trkpt>
      <trkpt lat="44.46253" lon="6.53701">
        <ele>2152</ele>
        <time>2021-02-21T09:53:57Z</time>
      </trkpt>
      <trkpt lat="44.46252" lon="6.53712">
        <ele>2151</ele>
        <time>2021-02-21T09:53:58Z</time>
      </trkpt>
      <trkpt lat="44.4625" lon="6.53721">
        <ele>2150</ele>
        <time>2021-02-21T09:53:59Z</time>
      </trkpt>
      <trkpt lat="44.46248" lon="6.53729">
        <ele>2149</ele>
        <time>2021-02-21T09:54:00Z</time>
      </trkpt>
      <trkpt lat="44.46244" lon="6.53735">
        <ele>2149</ele>
        <time>2021-02-21T09:54:01Z</time>
      </trkpt>
      <trkpt lat="44.46239" lon="6.5374">
        <ele>2148</ele>
        <time>2021-02-21T09:54:02Z</time>
      </trkpt>
      <trkpt lat="44.46234" lon="6.53745">
        <ele>2148</ele>
        <time>2021-02-21T09:54:03Z</time>
      </trkpt>
      <trkpt lat="44.46228" lon="6.53751">
        <ele>2147</ele>
        <time>2021-02-21T09:54:04Z</time>
      </trkpt>
      <trkpt lat="44.46223" lon="6.53756">
        <ele>2147</ele>
        <time>2021-02-21T09:54:05Z</time>
      </trkpt>
      <trkpt lat="44.46219" lon="6.53761">
        <ele>2146</ele>
        <time>2021-02-21T09:54:06Z</time>
      </trkpt>
      <trkpt lat="44.46217" lon="6.53766">
        <ele>2145</ele>
        <time>2021-02-21T09:54:07Z</time>
      </trkpt>
      <trkpt lat="44.46216" lon="6.53771">
        <ele>2143</ele>
        <time>2021-02-21T09:54:08Z</time>
      </trkpt>
      <trkpt lat="44.46218" lon="6.53778">
        <ele>2143</ele>
        <time>2021-02-21T09:54:09Z</time>
      </trkpt>
      <trkpt lat="44.46221" lon="6.53785">
        <ele>2141</ele>
        <time>2021-02-21T09:54:10Z</time>
      </trkpt>
      <trkpt lat="44.46226" lon="6.53793">
        <ele>2140</ele>
        <time>2021-02-21T09:54:11Z</time>
      </trkpt>
      <trkpt lat="44.46232" lon="6.53802">
        <ele>2138</ele>
        <time>2021-02-21T09:54:12Z</time>
      </trkpt>
      <trkpt lat="44.46238" lon="6.53809">
        <ele>2137</ele>
        <time>2021-02-21T09:54:13Z</time>
      </trkpt>
      <trkpt lat="44.46243" lon="6.53815">
        <ele>2135</ele>
        <time>2021-02-21T09:54:14Z</time>
      </trkpt>
      <trkpt lat="44.46248" lon="6.5382">
        <ele>2133</ele>
        <time>2021-02-21T09:54:15Z</time>
      </trkpt>
      <trkpt lat="44.46251" lon="6.53825">
        <ele>2131</ele>
        <time>2021-02-21T09:54:16Z</time>
      </trkpt>
      <trkpt lat="44.46254" lon="6.53829">
        <ele>2129</ele>
        <time>2021-02-21T09:54:17Z</time>
      </trkpt>
      <trkpt lat="44.46257" lon="6.53834">
        <ele>2128</ele>
        <time>2021-02-21T09:54:18Z</time>
      </trkpt>
      <trkpt lat="44.46261" lon="6.5384">
        <ele>2127</ele>
        <time>2021-02-21T09:54:19Z</time>
      </trkpt>
      <trkpt lat="44.46263" lon="6.53847">
        <ele>2125</ele>
        <time>2021-02-21T09:54:20Z</time>
      </trkpt>
      <trkpt lat="44.46264" lon="6.53856">
        <ele>2124</ele>
        <time>2021-02-21T09:54:21Z</time>
      </trkpt>
      <trkpt lat="44.46266" lon="6.53862">
        <ele>2123</ele>
        <time>2021-02-21T09:54:22Z</time>
      </trkpt>
      <trkpt lat="44.46267" lon="6.53868">
        <ele>2122</ele>
        <time>2021-02-21T09:54:23Z</time>
      </trkpt>
      <trkpt lat="44.46269" lon="6.53871">
        <ele>2121</ele>
        <time>2021-02-21T09:54:24Z</time>
      </trkpt>
      <trkpt lat="44.4627" lon="6.53873">
        <ele>2120</ele>
        <time>2021-02-21T09:54:25Z</time>
      </trkpt>
      <trkpt lat="44.4627" lon="6.53873">
        <ele>2119</ele>
        <time>2021-02-21T09:54:26Z</time>
      </trkpt>
      <trkpt lat="44.4627" lon="6.53874">
        <ele>2119</ele>
        <time>2021-02-21T09:54:27Z</time>
      </trkpt>
      <trkpt lat="44.4627" lon="6.53874">
        <ele>2119</ele>
        <time>2021-02-21T09:54:28Z</time>
      </trkpt>
      <trkpt lat="44.4627" lon="6.53874">
        <ele>2119</ele>
        <time>2021-02-21T09:54:29Z</time>
      </trkpt>
      <trkpt lat="44.46263" lon="6.53885">
        <ele>2122</ele>
        <time>2021-02-21T09:54:30Z</time>
      </trkpt>
      <trkpt lat="44.46262" lon="6.53885">
        <ele>2122</ele>
        <time>2021-02-21T09:54:31Z</time>
      </trkpt>
      <trkpt lat="44.46263" lon="6.53885">
        <ele>2123</ele>
        <time>2021-02-21T09:54:32Z</time>
      </trkpt>
      <trkpt lat="44.46263" lon="6.53886">
        <ele>2123</ele>
        <time>2021-02-21T09:54:33Z</time>
      </trkpt>
      <trkpt lat="44.46263" lon="6.53886">
        <ele>2123</ele>
        <time>2021-02-21T09:54:34Z</time>
      </trkpt>
      <trkpt lat="44.46263" lon="6.53886">
        <ele>2123</ele>
        <time>2021-02-21T09:54:35Z</time>
      </trkpt>
      <trkpt lat="44.46263" lon="6.53886">
        <ele>2123</ele>
        <time>2021-02-21T09:54:36Z</time>
      </trkpt>
      <trkpt lat="44.46263" lon="6.53886">
        <ele>2123</ele>
        <time>2021-02-21T09:54:37Z</time>
      </trkpt>
      <trkpt lat="44.46263" lon="6.53886">
        <ele>2123</ele>
        <time>2021-02-21T09:54:38Z</time>
      </trkpt>
      <trkpt lat="44.46263" lon="6.53886">
        <ele>2123</ele>
        <time>2021-02-21T09:54:39Z</time>
      </trkpt>
      <trkpt lat="44.46263" lon="6.53886">
        <ele>2123</ele>
        <time>2021-02-21T09:54:40Z</time>
      </trkpt>
      <trkpt lat="44.46263" lon="6.53886">
        <ele>2123</ele>
        <time>2021-02-21T09:54:41Z</time>
      </trkpt>
      <trkpt lat="44.46263" lon="6.53886">
        <ele>2123</ele>
        <time>2021-02-21T09:54:42Z</time>
      </trkpt>
      <trkpt lat="44.46263" lon="6.53886">
        <ele>2123</ele>
        <time>2021-02-21T09:54:43Z</time>
      </trkpt>
      <trkpt lat="44.46263" lon="6.53886">
        <ele>2123</ele>
        <time>2021-02-21T09:54:44Z</time>
      </trkpt>
      <trkpt lat="44.46263" lon="6.53886">
        <ele>2123</ele>
        <time>2021-02-21T09:54:45Z</time>
      </trkpt>
      <trkpt lat="44.46263" lon="6.53886">
        <ele>2123</ele>
        <time>2021-02-21T09:54:46Z</time>
      </trkpt>
      <trkpt lat="44.46263" lon="6.53886">
        <ele>2123</ele>
        <time>2021-02-21T09:54:47Z</time>
      </trkpt>
      <trkpt lat="44.46263" lon="6.53886">
        <ele>2124</ele>
        <time>2021-02-21T09:54:48Z</time>
      </trkpt>
      <trkpt lat="44.46263" lon="6.53886">
        <ele>2124</ele>
        <time>2021-02-21T09:54:49Z</time>
      </trkpt>
      <trkpt lat="44.46263" lon="6.53886">
        <ele>2124</ele>
        <time>2021-02-21T09:54:50Z</time>
      </trkpt>
      <trkpt lat="44.46268" lon="6.53885">
        <ele>2123</ele>
        <time>2021-02-21T09:54:51Z</time>
      </trkpt>
      <trkpt lat="44.46273" lon="6.53884">
        <ele>2122</ele>
        <time>2021-02-21T09:54:52Z</time>
      </trkpt>
      <trkpt lat="44.46277" lon="6.53883">
        <ele>2121</ele>
        <time>2021-02-21T09:54:53Z</time>
      </trkpt>
      <trkpt lat="44.46281" lon="6.53883">
        <ele>2121</ele>
        <time>2021-02-21T09:54:54Z</time>
      </trkpt>
      <trkpt lat="44.46284" lon="6.53883">
        <ele>2120</ele>
        <time>2021-02-21T09:54:55Z</time>
      </trkpt>
      <trkpt lat="44.46285" lon="6.53884">
        <ele>2120</ele>
        <time>2021-02-21T09:54:56Z</time>
      </trkpt>
      <trkpt lat="44.46286" lon="6.53885">
        <ele>2119</ele>
        <time>2021-02-21T09:54:57Z</time>
      </trkpt>
      <trkpt lat="44.46288" lon="6.53886">
        <ele>2119</ele>
        <time>2021-02-21T09:54:58Z</time>
      </trkpt>
      <trkpt lat="44.4629" lon="6.53887">
        <ele>2118</ele>
        <time>2021-02-21T09:54:59Z</time>
      </trkpt>
      <trkpt lat="44.46292" lon="6.53888">
        <ele>2118</ele>
        <time>2021-02-21T09:55:00Z</time>
      </trkpt>
      <trkpt lat="44.46295" lon="6.5389">
        <ele>2118</ele>
        <time>2021-02-21T09:55:01Z</time>
      </trkpt>
      <trkpt lat="44.46299" lon="6.53893">
        <ele>2118</ele>
        <time>2021-02-21T09:55:02Z</time>
      </trkpt>
      <trkpt lat="44.46304" lon="6.53896">
        <ele>2117</ele>
        <time>2021-02-21T09:55:03Z</time>
      </trkpt>
      <trkpt lat="44.46309" lon="6.539">
        <ele>2117</ele>
        <time>2021-02-21T09:55:04Z</time>
      </trkpt>
      <trkpt lat="44.46314" lon="6.53903">
        <ele>2117</ele>
        <time>2021-02-21T09:55:05Z</time>
      </trkpt>
      <trkpt lat="44.46319" lon="6.53905">
        <ele>2116</ele>
        <time>2021-02-21T09:55:06Z</time>
      </trkpt>
      <trkpt lat="44.46325" lon="6.53908">
        <ele>2115</ele>
        <time>2021-02-21T09:55:07Z</time>
      </trkpt>
      <trkpt lat="44.4633" lon="6.5391">
        <ele>2114</ele>
        <time>2021-02-21T09:55:08Z</time>
      </trkpt>
      <trkpt lat="44.46336" lon="6.53915">
        <ele>2113</ele>
        <time>2021-02-21T09:55:09Z</time>
      </trkpt>
      <trkpt lat="44.46341" lon="6.53922">
        <ele>2112</ele>
        <time>2021-02-21T09:55:10Z</time>
      </trkpt>
      <trkpt lat="44.46345" lon="6.53931">
        <ele>2110</ele>
        <time>2021-02-21T09:55:11Z</time>
      </trkpt>
      <trkpt lat="44.46351" lon="6.5394">
        <ele>2109</ele>
        <time>2021-02-21T09:55:12Z</time>
      </trkpt>
      <trkpt lat="44.46356" lon="6.53947">
        <ele>2107</ele>
        <time>2021-02-21T09:55:13Z</time>
      </trkpt>
      <trkpt lat="44.46361" lon="6.53954">
        <ele>2104</ele>
        <time>2021-02-21T09:55:14Z</time>
      </trkpt>
      <trkpt lat="44.46365" lon="6.53961">
        <ele>2101</ele>
        <time>2021-02-21T09:55:15Z</time>
      </trkpt>
      <trkpt lat="44.4637" lon="6.53967">
        <ele>2099</ele>
        <time>2021-02-21T09:55:16Z</time>
      </trkpt>
      <trkpt lat="44.46376" lon="6.53974">
        <ele>2097</ele>
        <time>2021-02-21T09:55:17Z</time>
      </trkpt>
      <trkpt lat="44.46381" lon="6.5398">
        <ele>2094</ele>
        <time>2021-02-21T09:55:18Z</time>
      </trkpt>
      <trkpt lat="44.46387" lon="6.53985">
        <ele>2092</ele>
        <time>2021-02-21T09:55:19Z</time>
      </trkpt>
      <trkpt lat="44.46393" lon="6.53991">
        <ele>2090</ele>
        <time>2021-02-21T09:55:20Z</time>
      </trkpt>
      <trkpt lat="44.46399" lon="6.53997">
        <ele>2088</ele>
        <time>2021-02-21T09:55:21Z</time>
      </trkpt>
      <trkpt lat="44.46403" lon="6.54003">
        <ele>2087</ele>
        <time>2021-02-21T09:55:22Z</time>
      </trkpt>
      <trkpt lat="44.46405" lon="6.54011">
        <ele>2086</ele>
        <time>2021-02-21T09:55:23Z</time>
      </trkpt>
      <trkpt lat="44.46406" lon="6.5402">
        <ele>2085</ele>
        <time>2021-02-21T09:55:24Z</time>
      </trkpt>
      <trkpt lat="44.46408" lon="6.54029">
        <ele>2084</ele>
        <time>2021-02-21T09:55:25Z</time>
      </trkpt>
      <trkpt lat="44.4641" lon="6.54037">
        <ele>2083</ele>
        <time>2021-02-21T09:55:26Z</time>
      </trkpt>
      <trkpt lat="44.46414" lon="6.54045">
        <ele>2082</ele>
        <time>2021-02-21T09:55:27Z</time>
      </trkpt>
      <trkpt lat="44.46419" lon="6.54053">
        <ele>2080</ele>
        <time>2021-02-21T09:55:28Z</time>
      </trkpt>
      <trkpt lat="44.46425" lon="6.54061">
        <ele>2079</ele>
        <time>2021-02-21T09:55:29Z</time>
      </trkpt>
      <trkpt lat="44.46431" lon="6.5407">
        <ele>2077</ele>
        <time>2021-02-21T09:55:30Z</time>
      </trkpt>
      <trkpt lat="44.46436" lon="6.5408">
        <ele>2076</ele>
        <time>2021-02-21T09:55:31Z</time>
      </trkpt>
      <trkpt lat="44.4644" lon="6.54091">
        <ele>2075</ele>
        <time>2021-02-21T09:55:32Z</time>
      </trkpt>
      <trkpt lat="44.46445" lon="6.54103">
        <ele>2074</ele>
        <time>2021-02-21T09:55:33Z</time>
      </trkpt>
      <trkpt lat="44.4645" lon="6.54115">
        <ele>2073</ele>
        <time>2021-02-21T09:55:34Z</time>
      </trkpt>
      <trkpt lat="44.46456" lon="6.54126">
        <ele>2072</ele>
        <time>2021-02-21T09:55:35Z</time>
      </trkpt>
      <trkpt lat="44.46462" lon="6.54136">
        <ele>2071</ele>
        <time>2021-02-21T09:55:36Z</time>
      </trkpt>
      <trkpt lat="44.46468" lon="6.54145">
        <ele>2070</ele>
        <time>2021-02-21T09:55:37Z</time>
      </trkpt>
      <trkpt lat="44.46473" lon="6.54155">
        <ele>2070</ele>
        <time>2021-02-21T09:55:38Z</time>
      </trkpt>
      <trkpt lat="44.46478" lon="6.54164">
        <ele>2070</ele>
        <time>2021-02-21T09:55:39Z</time>
      </trkpt>
      <trkpt lat="44.46483" lon="6.54173">
        <ele>2070</ele>
        <time>2021-02-21T09:55:40Z</time>
      </trkpt>
      <trkpt lat="44.46486" lon="6.54181">
        <ele>2070</ele>
        <time>2021-02-21T09:55:41Z</time>
      </trkpt>
      <trkpt lat="44.46488" lon="6.54187">
        <ele>2070</ele>
        <time>2021-02-21T09:55:42Z</time>
      </trkpt>
      <trkpt lat="44.46489" lon="6.54192">
        <ele>2071</ele>
        <time>2021-02-21T09:55:43Z</time>
      </trkpt>
      <trkpt lat="44.46489" lon="6.54196">
        <ele>2071</ele>
        <time>2021-02-21T09:55:44Z</time>
      </trkpt>
      <trkpt lat="44.46489" lon="6.542">
        <ele>2072</ele>
        <time>2021-02-21T09:55:45Z</time>
      </trkpt>
      <trkpt lat="44.4649" lon="6.54206">
        <ele>2073</ele>
        <time>2021-02-21T09:55:46Z</time>
      </trkpt>
      <trkpt lat="44.46492" lon="6.54212">
        <ele>2073</ele>
        <time>2021-02-21T09:55:47Z</time>
      </trkpt>
      <trkpt lat="44.46494" lon="6.54217">
        <ele>2073</ele>
        <time>2021-02-21T09:55:48Z</time>
      </trkpt>
      <trkpt lat="44.46495" lon="6.54221">
        <ele>2073</ele>
        <time>2021-02-21T09:55:49Z</time>
      </trkpt>
      <trkpt lat="44.46497" lon="6.54223">
        <ele>2073</ele>
        <time>2021-02-21T09:55:50Z</time>
      </trkpt>
      <trkpt lat="44.46497" lon="6.54224">
        <ele>2073</ele>
        <time>2021-02-21T09:55:51Z</time>
      </trkpt>
      <trkpt lat="44.46498" lon="6.54224">
        <ele>2073</ele>
        <time>2021-02-21T09:55:52Z</time>
      </trkpt>
      <trkpt lat="44.46498" lon="6.54224">
        <ele>2072</ele>
        <time>2021-02-21T09:55:53Z</time>
      </trkpt>
      <trkpt lat="44.46498" lon="6.54224">
        <ele>2072</ele>
        <time>2021-02-21T09:55:54Z</time>
      </trkpt>
      <trkpt lat="44.46498" lon="6.54224">
        <ele>2072</ele>
        <time>2021-02-21T09:55:55Z</time>
      </trkpt>
      <trkpt lat="44.46498" lon="6.54224">
        <ele>2072</ele>
        <time>2021-02-21T09:55:56Z</time>
      </trkpt>
      <trkpt lat="44.46498" lon="6.54224">
        <ele>2072</ele>
        <time>2021-02-21T09:55:57Z</time>
      </trkpt>
      <trkpt lat="44.46498" lon="6.54224">
        <ele>2072</ele>
        <time>2021-02-21T09:55:58Z</time>
      </trkpt>
      <trkpt lat="44.46498" lon="6.54224">
        <ele>2072</ele>
        <time>2021-02-21T09:55:59Z</time>
      </trkpt>
      <trkpt lat="44.46498" lon="6.54224">
        <ele>2072</ele>
        <time>2021-02-21T09:56:00Z</time>
      </trkpt>
      <trkpt lat="44.46498" lon="6.54224">
        <ele>2072</ele>
        <time>2021-02-21T09:56:01Z</time>
      </trkpt>
      <trkpt lat="44.46498" lon="6.54224">
        <ele>2072</ele>
        <time>2021-02-21T09:56:02Z</time>
      </trkpt>
      <trkpt lat="44.46498" lon="6.54224">
        <ele>2072</ele>
        <time>2021-02-21T09:56:03Z</time>
      </trkpt>
      <trkpt lat="44.46498" lon="6.54224">
        <ele>2072</ele>
        <time>2021-02-21T09:56:04Z</time>
      </trkpt>
      <trkpt lat="44.46498" lon="6.54224">
        <ele>2072</ele>
        <time>2021-02-21T09:56:05Z</time>
      </trkpt>
      <trkpt lat="44.46498" lon="6.54224">
        <ele>2072</ele>
        <time>2021-02-21T09:56:06Z</time>
      </trkpt>
      <trkpt lat="44.46498" lon="6.54224">
        <ele>2072</ele>
        <time>2021-02-21T09:56:07Z</time>
      </trkpt>
      <trkpt lat="44.46498" lon="6.54224">
        <ele>2072</ele>
        <time>2021-02-21T09:56:08Z</time>
      </trkpt>
      <trkpt lat="44.46509" lon="6.54229">
        <ele>2073</ele>
        <time>2021-02-21T09:56:09Z</time>
      </trkpt>
      <trkpt lat="44.46511" lon="6.5423">
        <ele>2073</ele>
        <time>2021-02-21T09:56:10Z</time>
      </trkpt>
      <trkpt lat="44.46512" lon="6.54231">
        <ele>2073</ele>
        <time>2021-02-21T09:56:11Z</time>
      </trkpt>
      <trkpt lat="44.46513" lon="6.54232">
        <ele>2073</ele>
        <time>2021-02-21T09:56:12Z</time>
      </trkpt>
      <trkpt lat="44.46514" lon="6.54231">
        <ele>2073</ele>
        <time>2021-02-21T09:56:13Z</time>
      </trkpt>
      <trkpt lat="44.46514" lon="6.54231">
        <ele>2073</ele>
        <time>2021-02-21T09:56:14Z</time>
      </trkpt>
      <trkpt lat="44.46514" lon="6.54231">
        <ele>2074</ele>
        <time>2021-02-21T09:56:15Z</time>
      </trkpt>
      <trkpt lat="44.46514" lon="6.54231">
        <ele>2074</ele>
        <time>2021-02-21T09:56:16Z</time>
      </trkpt>
      <trkpt lat="44.46514" lon="6.54231">
        <ele>2074</ele>
        <time>2021-02-21T09:56:17Z</time>
      </trkpt>
      <trkpt lat="44.46514" lon="6.54231">
        <ele>2074</ele>
        <time>2021-02-21T09:56:18Z</time>
      </trkpt>
      <trkpt lat="44.46514" lon="6.54231">
        <ele>2074</ele>
        <time>2021-02-21T09:56:19Z</time>
      </trkpt>
      <trkpt lat="44.46514" lon="6.54231">
        <ele>2074</ele>
        <time>2021-02-21T09:56:20Z</time>
      </trkpt>
      <trkpt lat="44.46514" lon="6.54231">
        <ele>2074</ele>
        <time>2021-02-21T09:56:21Z</time>
      </trkpt>
      <trkpt lat="44.46514" lon="6.54231">
        <ele>2074</ele>
        <time>2021-02-21T09:56:22Z</time>
      </trkpt>
      <trkpt lat="44.46514" lon="6.54231">
        <ele>2074</ele>
        <time>2021-02-21T09:56:23Z</time>
      </trkpt>
      <trkpt lat="44.46514" lon="6.54231">
        <ele>2074</ele>
        <time>2021-02-21T09:56:24Z</time>
      </trkpt>
      <trkpt lat="44.46514" lon="6.54231">
        <ele>2074</ele>
        <time>2021-02-21T09:56:25Z</time>
      </trkpt>
      <trkpt lat="44.46514" lon="6.54231">
        <ele>2074</ele>
        <time>2021-02-21T09:56:26Z</time>
      </trkpt>
      <trkpt lat="44.46524" lon="6.5422">
        <ele>2073</ele>
        <time>2021-02-21T09:56:27Z</time>
      </trkpt>
      <trkpt lat="44.46526" lon="6.54217">
        <ele>2073</ele>
        <time>2021-02-21T09:56:28Z</time>
      </trkpt>
      <trkpt lat="44.46528" lon="6.54215">
        <ele>2073</ele>
        <time>2021-02-21T09:56:29Z</time>
      </trkpt>
      <trkpt lat="44.4653" lon="6.54212">
        <ele>2073</ele>
        <time>2021-02-21T09:56:30Z</time>
      </trkpt>
      <trkpt lat="44.46531" lon="6.5421">
        <ele>2072</ele>
        <time>2021-02-21T09:56:31Z</time>
      </trkpt>
      <trkpt lat="44.46533" lon="6.54207">
        <ele>2071</ele>
        <time>2021-02-21T09:56:32Z</time>
      </trkpt>
      <trkpt lat="44.46535" lon="6.54205">
        <ele>2070</ele>
        <time>2021-02-21T09:56:33Z</time>
      </trkpt>
      <trkpt lat="44.46537" lon="6.54202">
        <ele>2069</ele>
        <time>2021-02-21T09:56:34Z</time>
      </trkpt>
      <trkpt lat="44.4654" lon="6.542">
        <ele>2068</ele>
        <time>2021-02-21T09:56:35Z</time>
      </trkpt>
      <trkpt lat="44.46543" lon="6.54197">
        <ele>2067</ele>
        <time>2021-02-21T09:56:36Z</time>
      </trkpt>
      <trkpt lat="44.46547" lon="6.54195">
        <ele>2066</ele>
        <time>2021-02-21T09:56:37Z</time>
      </trkpt>
      <trkpt lat="44.46552" lon="6.54193">
        <ele>2065</ele>
        <time>2021-02-21T09:56:38Z</time>
      </trkpt>
      <trkpt lat="44.46558" lon="6.54191">
        <ele>2065</ele>
        <time>2021-02-21T09:56:39Z</time>
      </trkpt>
      <trkpt lat="44.46564" lon="6.54189">
        <ele>2064</ele>
        <time>2021-02-21T09:56:40Z</time>
      </trkpt>
      <trkpt lat="44.4657" lon="6.54186">
        <ele>2064</ele>
        <time>2021-02-21T09:56:41Z</time>
      </trkpt>
      <trkpt lat="44.46573" lon="6.54184">
        <ele>2064</ele>
        <time>2021-02-21T09:56:42Z</time>
      </trkpt>
      <trkpt lat="44.46576" lon="6.54184">
        <ele>2063</ele>
        <time>2021-02-21T09:56:43Z</time>
      </trkpt>
      <trkpt lat="44.46578" lon="6.54183">
        <ele>2062</ele>
        <time>2021-02-21T09:56:44Z</time>
      </trkpt>
      <trkpt lat="44.46581" lon="6.54181">
        <ele>2060</ele>
        <time>2021-02-21T09:56:45Z</time>
      </trkpt>
      <trkpt lat="44.46584" lon="6.54178">
        <ele>2059</ele>
        <time>2021-02-21T09:56:46Z</time>
      </trkpt>
      <trkpt lat="44.46587" lon="6.54174">
        <ele>2057</ele>
        <time>2021-02-21T09:56:47Z</time>
      </trkpt>
      <trkpt lat="44.4659" lon="6.54171">
        <ele>2056</ele>
        <time>2021-02-21T09:56:48Z</time>
      </trkpt>
      <trkpt lat="44.46592" lon="6.54168">
        <ele>2055</ele>
        <time>2021-02-21T09:56:49Z</time>
      </trkpt>
      <trkpt lat="44.46594" lon="6.54165">
        <ele>2053</ele>
        <time>2021-02-21T09:56:50Z</time>
      </trkpt>
      <trkpt lat="44.46597" lon="6.54163">
        <ele>2053</ele>
        <time>2021-02-21T09:56:51Z</time>
      </trkpt>
      <trkpt lat="44.466" lon="6.54161">
        <ele>2051</ele>
        <time>2021-02-21T09:56:52Z</time>
      </trkpt>
      <trkpt lat="44.46602" lon="6.5416">
        <ele>2050</ele>
        <time>2021-02-21T09:56:53Z</time>
      </trkpt>
      <trkpt lat="44.46604" lon="6.54159">
        <ele>2049</ele>
        <time>2021-02-21T09:56:54Z</time>
      </trkpt>
      <trkpt lat="44.46604" lon="6.54159">
        <ele>2049</ele>
        <time>2021-02-21T09:56:55Z</time>
      </trkpt>
      <trkpt lat="44.46605" lon="6.54158">
        <ele>2048</ele>
        <time>2021-02-21T09:56:56Z</time>
      </trkpt>
      <trkpt lat="44.46605" lon="6.54158">
        <ele>2048</ele>
        <time>2021-02-21T09:56:57Z</time>
      </trkpt>
      <trkpt lat="44.46605" lon="6.54158">
        <ele>2048</ele>
        <time>2021-02-21T09:56:58Z</time>
      </trkpt>
      <trkpt lat="44.46605" lon="6.54158">
        <ele>2048</ele>
        <time>2021-02-21T09:56:59Z</time>
      </trkpt>
      <trkpt lat="44.46605" lon="6.54158">
        <ele>2047</ele>
        <time>2021-02-21T09:57:00Z</time>
      </trkpt>
      <trkpt lat="44.46605" lon="6.54158">
        <ele>2047</ele>
        <time>2021-02-21T09:57:01Z</time>
      </trkpt>
      <trkpt lat="44.46605" lon="6.54158">
        <ele>2047</ele>
        <time>2021-02-21T09:57:02Z</time>
      </trkpt>
      <trkpt lat="44.46605" lon="6.54158">
        <ele>2047</ele>
        <time>2021-02-21T09:57:03Z</time>
      </trkpt>
      <trkpt lat="44.46605" lon="6.54158">
        <ele>2047</ele>
        <time>2021-02-21T09:57:04Z</time>
      </trkpt>
      <trkpt lat="44.46605" lon="6.54158">
        <ele>2047</ele>
        <time>2021-02-21T09:57:05Z</time>
      </trkpt>
      <trkpt lat="44.46605" lon="6.54158">
        <ele>2047</ele>
        <time>2021-02-21T09:57:06Z</time>
      </trkpt>
      <trkpt lat="44.46605" lon="6.54158">
        <ele>2047</ele>
        <time>2021-02-21T09:57:07Z</time>
      </trkpt>
      <trkpt lat="44.46605" lon="6.54158">
        <ele>2047</ele>
        <time>2021-02-21T09:57:08Z</time>
      </trkpt>
      <trkpt lat="44.46605" lon="6.54158">
        <ele>2047</ele>
        <time>2021-02-21T09:57:09Z</time>
      </trkpt>
      <trkpt lat="44.46615" lon="6.54157">
        <ele>2048</ele>
        <time>2021-02-21T09:57:10Z</time>
      </trkpt>
      <trkpt lat="44.46618" lon="6.54156">
        <ele>2048</ele>
        <time>2021-02-21T09:57:11Z</time>
      </trkpt>
      <trkpt lat="44.46623" lon="6.54154">
        <ele>2048</ele>
        <time>2021-02-21T09:57:12Z</time>
      </trkpt>
      <trkpt lat="44.46626" lon="6.54153">
        <ele>2048</ele>
        <time>2021-02-21T09:57:13Z</time>
      </trkpt>
      <trkpt lat="44.4663" lon="6.54151">
        <ele>2047</ele>
        <time>2021-02-21T09:57:14Z</time>
      </trkpt>
      <trkpt lat="44.46633" lon="6.54149">
        <ele>2046</ele>
        <time>2021-02-21T09:57:15Z</time>
      </trkpt>
      <trkpt lat="44.46638" lon="6.54146">
        <ele>2044</ele>
        <time>2021-02-21T09:57:16Z</time>
      </trkpt>
      <trkpt lat="44.46642" lon="6.54144">
        <ele>2043</ele>
        <time>2021-02-21T09:57:17Z</time>
      </trkpt>
      <trkpt lat="44.46648" lon="6.54141">
        <ele>2042</ele>
        <time>2021-02-21T09:57:18Z</time>
      </trkpt>
      <trkpt lat="44.46654" lon="6.54138">
        <ele>2040</ele>
        <time>2021-02-21T09:57:19Z</time>
      </trkpt>
      <trkpt lat="44.46659" lon="6.54135">
        <ele>2038</ele>
        <time>2021-02-21T09:57:20Z</time>
      </trkpt>
      <trkpt lat="44.46665" lon="6.54131">
        <ele>2037</ele>
        <time>2021-02-21T09:57:21Z</time>
      </trkpt>
      <trkpt lat="44.46668" lon="6.54128">
        <ele>2035</ele>
        <time>2021-02-21T09:57:22Z</time>
      </trkpt>
      <trkpt lat="44.46671" lon="6.54127">
        <ele>2034</ele>
        <time>2021-02-21T09:57:23Z</time>
      </trkpt>
      <trkpt lat="44.46673" lon="6.54128">
        <ele>2034</ele>
        <time>2021-02-21T09:57:24Z</time>
      </trkpt>
      <trkpt lat="44.46672" lon="6.54128">
        <ele>2033</ele>
        <time>2021-02-21T09:57:25Z</time>
      </trkpt>
      <trkpt lat="44.46672" lon="6.54128">
        <ele>2033</ele>
        <time>2021-02-21T09:57:26Z</time>
      </trkpt>
      <trkpt lat="44.46672" lon="6.54128">
        <ele>2033</ele>
        <time>2021-02-21T09:57:27Z</time>
      </trkpt>
      <trkpt lat="44.46672" lon="6.54128">
        <ele>2033</ele>
        <time>2021-02-21T09:57:28Z</time>
      </trkpt>
      <trkpt lat="44.46672" lon="6.54128">
        <ele>2033</ele>
        <time>2021-02-21T09:57:29Z</time>
      </trkpt>
      <trkpt lat="44.46676" lon="6.54126">
        <ele>2032</ele>
        <time>2021-02-21T09:57:30Z</time>
      </trkpt>
      <trkpt lat="44.46679" lon="6.54123">
        <ele>2032</ele>
        <time>2021-02-21T09:57:31Z</time>
      </trkpt>
      <trkpt lat="44.46683" lon="6.5412">
        <ele>2031</ele>
        <time>2021-02-21T09:57:32Z</time>
      </trkpt>
      <trkpt lat="44.46686" lon="6.54118">
        <ele>2031</ele>
        <time>2021-02-21T09:57:33Z</time>
      </trkpt>
      <trkpt lat="44.46689" lon="6.54117">
        <ele>2030</ele>
        <time>2021-02-21T09:57:34Z</time>
      </trkpt>
      <trkpt lat="44.46692" lon="6.54116">
        <ele>2029</ele>
        <time>2021-02-21T09:57:35Z</time>
      </trkpt>
      <trkpt lat="44.46694" lon="6.54116">
        <ele>2029</ele>
        <time>2021-02-21T09:57:36Z</time>
      </trkpt>
      <trkpt lat="44.46695" lon="6.54116">
        <ele>2029</ele>
        <time>2021-02-21T09:57:37Z</time>
      </trkpt>
      <trkpt lat="44.46696" lon="6.54116">
        <ele>2028</ele>
        <time>2021-02-21T09:57:38Z</time>
      </trkpt>
      <trkpt lat="44.46697" lon="6.54116">
        <ele>2027</ele>
        <time>2021-02-21T09:57:39Z</time>
      </trkpt>
      <trkpt lat="44.46698" lon="6.54117">
        <ele>2027</ele>
        <time>2021-02-21T09:57:40Z</time>
      </trkpt>
      <trkpt lat="44.467" lon="6.54116">
        <ele>2027</ele>
        <time>2021-02-21T09:57:41Z</time>
      </trkpt>
      <trkpt lat="44.46702" lon="6.54116">
        <ele>2027</ele>
        <time>2021-02-21T09:57:42Z</time>
      </trkpt>
      <trkpt lat="44.46704" lon="6.54116">
        <ele>2027</ele>
        <time>2021-02-21T09:57:43Z</time>
      </trkpt>
      <trkpt lat="44.46704" lon="6.54116">
        <ele>2027</ele>
        <time>2021-02-21T09:57:44Z</time>
      </trkpt>
      <trkpt lat="44.46705" lon="6.54115">
        <ele>2027</ele>
        <time>2021-02-21T09:57:45Z</time>
      </trkpt>
      <trkpt lat="44.46705" lon="6.54115">
        <ele>2026</ele>
        <time>2021-02-21T09:57:46Z</time>
      </trkpt>
      <trkpt lat="44.46708" lon="6.54113">
        <ele>2026</ele>
        <time>2021-02-21T09:57:47Z</time>
      </trkpt>
      <trkpt lat="44.4671" lon="6.54112">
        <ele>2026</ele>
        <time>2021-02-21T09:57:48Z</time>
      </trkpt>
      <trkpt lat="44.46711" lon="6.54111">
        <ele>2026</ele>
        <time>2021-02-21T09:57:49Z</time>
      </trkpt>
      <trkpt lat="44.46712" lon="6.5411">
        <ele>2026</ele>
        <time>2021-02-21T09:57:50Z</time>
      </trkpt>
      <trkpt lat="44.46712" lon="6.54109">
        <ele>2026</ele>
        <time>2021-02-21T09:57:51Z</time>
      </trkpt>
      <trkpt lat="44.46713" lon="6.54108">
        <ele>2025</ele>
        <time>2021-02-21T09:57:52Z</time>
      </trkpt>
      <trkpt lat="44.46713" lon="6.54108">
        <ele>2025</ele>
        <time>2021-02-21T09:57:53Z</time>
      </trkpt>
      <trkpt lat="44.46713" lon="6.54108">
        <ele>2025</ele>
        <time>2021-02-21T09:57:54Z</time>
      </trkpt>
      <trkpt lat="44.46717" lon="6.54105">
        <ele>2025</ele>
        <time>2021-02-21T09:57:55Z</time>
      </trkpt>
      <trkpt lat="44.46719" lon="6.54102">
        <ele>2024</ele>
        <time>2021-02-21T09:57:56Z</time>
      </trkpt>
      <trkpt lat="44.46722" lon="6.541">
        <ele>2023</ele>
        <time>2021-02-21T09:57:57Z</time>
      </trkpt>
      <trkpt lat="44.46726" lon="6.54099">
        <ele>2023</ele>
        <time>2021-02-21T09:57:58Z</time>
      </trkpt>
      <trkpt lat="44.46732" lon="6.54095">
        <ele>2018</ele>
        <time>2021-02-21T09:57:59Z</time>
      </trkpt>
      <trkpt lat="44.46739" lon="6.54096">
        <ele>2015</ele>
        <time>2021-02-21T09:58:00Z</time>
      </trkpt>
      <trkpt lat="44.46745" lon="6.541">
        <ele>2013</ele>
        <time>2021-02-21T09:58:01Z</time>
      </trkpt>
      <trkpt lat="44.4675" lon="6.54105">
        <ele>2011</ele>
        <time>2021-02-21T09:58:02Z</time>
      </trkpt>
      <trkpt lat="44.46754" lon="6.5411">
        <ele>2010</ele>
        <time>2021-02-21T09:58:03Z</time>
      </trkpt>
      <trkpt lat="44.46757" lon="6.54116">
        <ele>2009</ele>
        <time>2021-02-21T09:58:04Z</time>
      </trkpt>
      <trkpt lat="44.46762" lon="6.54121">
        <ele>2007</ele>
        <time>2021-02-21T09:58:05Z</time>
      </trkpt>
      <trkpt lat="44.46766" lon="6.54126">
        <ele>2006</ele>
        <time>2021-02-21T09:58:06Z</time>
      </trkpt>
      <trkpt lat="44.4677" lon="6.54128">
        <ele>2005</ele>
        <time>2021-02-21T09:58:07Z</time>
      </trkpt>
      <trkpt lat="44.46774" lon="6.54128">
        <ele>2004</ele>
        <time>2021-02-21T09:58:08Z</time>
      </trkpt>
      <trkpt lat="44.46773" lon="6.54128">
        <ele>2004</ele>
        <time>2021-02-21T09:58:09Z</time>
      </trkpt>
      <trkpt lat="44.46773" lon="6.54127">
        <ele>2003</ele>
        <time>2021-02-21T09:58:10Z</time>
      </trkpt>
      <trkpt lat="44.46773" lon="6.54128">
        <ele>2002</ele>
        <time>2021-02-21T09:58:11Z</time>
      </trkpt>
      <trkpt lat="44.46774" lon="6.54128">
        <ele>2002</ele>
        <time>2021-02-21T09:58:12Z</time>
      </trkpt>
      <trkpt lat="44.46774" lon="6.54128">
        <ele>2001</ele>
        <time>2021-02-21T09:58:13Z</time>
      </trkpt>
      <trkpt lat="44.46774" lon="6.54128">
        <ele>2001</ele>
        <time>2021-02-21T09:58:14Z</time>
      </trkpt>
      <trkpt lat="44.46774" lon="6.54128">
        <ele>2001</ele>
        <time>2021-02-21T09:58:15Z</time>
      </trkpt>
      <trkpt lat="44.46774" lon="6.54128">
        <ele>2001</ele>
        <time>2021-02-21T09:58:16Z</time>
      </trkpt>
      <trkpt lat="44.46774" lon="6.54128">
        <ele>2001</ele>
        <time>2021-02-21T09:58:17Z</time>
      </trkpt>
      <trkpt lat="44.46774" lon="6.54128">
        <ele>2000</ele>
        <time>2021-02-21T09:58:18Z</time>
      </trkpt>
      <trkpt lat="44.46774" lon="6.54128">
        <ele>2000</ele>
        <time>2021-02-21T09:58:19Z</time>
      </trkpt>
      <trkpt lat="44.46774" lon="6.54128">
        <ele>2000</ele>
        <time>2021-02-21T09:58:20Z</time>
      </trkpt>
      <trkpt lat="44.46776" lon="6.54132">
        <ele>1999</ele>
        <time>2021-02-21T09:58:21Z</time>
      </trkpt>
      <trkpt lat="44.46775" lon="6.54135">
        <ele>1999</ele>
        <time>2021-02-21T09:58:22Z</time>
      </trkpt>
      <trkpt lat="44.46776" lon="6.5414">
        <ele>1998</ele>
        <time>2021-02-21T09:58:23Z</time>
      </trkpt>
      <trkpt lat="44.46776" lon="6.54146">
        <ele>1997</ele>
        <time>2021-02-21T09:58:24Z</time>
      </trkpt>
      <trkpt lat="44.46776" lon="6.54152">
        <ele>1996</ele>
        <time>2021-02-21T09:58:25Z</time>
      </trkpt>
      <trkpt lat="44.46775" lon="6.5416">
        <ele>1995</ele>
        <time>2021-02-21T09:58:26Z</time>
      </trkpt>
      <trkpt lat="44.46772" lon="6.54168">
        <ele>1994</ele>
        <time>2021-02-21T09:58:27Z</time>
      </trkpt>
      <trkpt lat="44.4677" lon="6.54174">
        <ele>1993</ele>
        <time>2021-02-21T09:58:28Z</time>
      </trkpt>
      <trkpt lat="44.46769" lon="6.54179">
        <ele>1992</ele>
        <time>2021-02-21T09:58:29Z</time>
      </trkpt>
      <trkpt lat="44.46768" lon="6.54182">
        <ele>1991</ele>
        <time>2021-02-21T09:58:30Z</time>
      </trkpt>
      <trkpt lat="44.46769" lon="6.54183">
        <ele>1991</ele>
        <time>2021-02-21T09:58:31Z</time>
      </trkpt>
      <trkpt lat="44.4677" lon="6.54184">
        <ele>1990</ele>
        <time>2021-02-21T09:58:32Z</time>
      </trkpt>
      <trkpt lat="44.4677" lon="6.54184">
        <ele>1990</ele>
        <time>2021-02-21T09:58:33Z</time>
      </trkpt>
      <trkpt lat="44.4677" lon="6.54184">
        <ele>1989</ele>
        <time>2021-02-21T09:58:34Z</time>
      </trkpt>
      <trkpt lat="44.4677" lon="6.54184">
        <ele>1989</ele>
        <time>2021-02-21T09:58:35Z</time>
      </trkpt>
      <trkpt lat="44.4677" lon="6.54184">
        <ele>1989</ele>
        <time>2021-02-21T09:58:36Z</time>
      </trkpt>
      <trkpt lat="44.4677" lon="6.54184">
        <ele>1989</ele>
        <time>2021-02-21T09:58:37Z</time>
      </trkpt>
      <trkpt lat="44.4677" lon="6.54184">
        <ele>1989</ele>
        <time>2021-02-21T09:58:38Z</time>
      </trkpt>
      <trkpt lat="44.4677" lon="6.54198">
        <ele>1988</ele>
        <time>2021-02-21T09:58:39Z</time>
      </trkpt>
      <trkpt lat="44.4677" lon="6.542">
        <ele>1988</ele>
        <time>2021-02-21T09:58:40Z</time>
      </trkpt>
      <trkpt lat="44.4677" lon="6.54201">
        <ele>1988</ele>
        <time>2021-02-21T09:58:41Z</time>
      </trkpt>
      <trkpt lat="44.46771" lon="6.54202">
        <ele>1988</ele>
        <time>2021-02-21T09:58:42Z</time>
      </trkpt>
      <trkpt lat="44.46771" lon="6.54204">
        <ele>1987</ele>
        <time>2021-02-21T09:58:43Z</time>
      </trkpt>
      <trkpt lat="44.46772" lon="6.54204">
        <ele>1987</ele>
        <time>2021-02-21T09:58:44Z</time>
      </trkpt>
      <trkpt lat="44.46772" lon="6.54204">
        <ele>1987</ele>
        <time>2021-02-21T09:58:45Z</time>
      </trkpt>
      <trkpt lat="44.46772" lon="6.54204">
        <ele>1987</ele>
        <time>2021-02-21T09:58:46Z</time>
      </trkpt>
      <trkpt lat="44.46772" lon="6.54204">
        <ele>1987</ele>
        <time>2021-02-21T09:58:47Z</time>
      </trkpt>
      <trkpt lat="44.46772" lon="6.54204">
        <ele>1987</ele>
        <time>2021-02-21T09:58:48Z</time>
      </trkpt>
      <trkpt lat="44.46772" lon="6.54204">
        <ele>1987</ele>
        <time>2021-02-21T09:58:49Z</time>
      </trkpt>
      <trkpt lat="44.46772" lon="6.54204">
        <ele>1987</ele>
        <time>2021-02-21T09:58:50Z</time>
      </trkpt>
      <trkpt lat="44.46772" lon="6.54204">
        <ele>1987</ele>
        <time>2021-02-21T09:58:51Z</time>
      </trkpt>
      <trkpt lat="44.46772" lon="6.54204">
        <ele>1987</ele>
        <time>2021-02-21T09:58:52Z</time>
      </trkpt>
      <trkpt lat="44.46772" lon="6.54204">
        <ele>1987</ele>
        <time>2021-02-21T09:58:53Z</time>
      </trkpt>
      <trkpt lat="44.46772" lon="6.54204">
        <ele>1987</ele>
        <time>2021-02-21T09:58:54Z</time>
      </trkpt>
      <trkpt lat="44.46772" lon="6.54204">
        <ele>1987</ele>
        <time>2021-02-21T09:58:55Z</time>
      </trkpt>
      <trkpt lat="44.46772" lon="6.54204">
        <ele>1987</ele>
        <time>2021-02-21T09:58:56Z</time>
      </trkpt>
      <trkpt lat="44.46772" lon="6.54204">
        <ele>1987</ele>
        <time>2021-02-21T09:58:57Z</time>
      </trkpt>
      <trkpt lat="44.46772" lon="6.54204">
        <ele>1987</ele>
        <time>2021-02-21T09:58:58Z</time>
      </trkpt>
      <trkpt lat="44.46772" lon="6.54204">
        <ele>1987</ele>
        <time>2021-02-21T09:58:59Z</time>
      </trkpt>
      <trkpt lat="44.46772" lon="6.54204">
        <ele>1987</ele>
        <time>2021-02-21T09:59:00Z</time>
      </trkpt>
      <trkpt lat="44.46772" lon="6.54204">
        <ele>1987</ele>
        <time>2021-02-21T09:59:01Z</time>
      </trkpt>
      <trkpt lat="44.46772" lon="6.54204">
        <ele>1987</ele>
        <time>2021-02-21T09:59:02Z</time>
      </trkpt>
      <trkpt lat="44.46772" lon="6.54204">
        <ele>1987</ele>
        <time>2021-02-21T09:59:03Z</time>
      </trkpt>
      <trkpt lat="44.46772" lon="6.54204">
        <ele>1987</ele>
        <time>2021-02-21T09:59:04Z</time>
      </trkpt>
      <trkpt lat="44.46772" lon="6.54204">
        <ele>1987</ele>
        <time>2021-02-21T09:59:05Z</time>
      </trkpt>
      <trkpt lat="44.46772" lon="6.54204">
        <ele>1987</ele>
        <time>2021-02-21T09:59:06Z</time>
      </trkpt>
      <trkpt lat="44.46772" lon="6.54204">
        <ele>1987</ele>
        <time>2021-02-21T09:59:07Z</time>
      </trkpt>
      <trkpt lat="44.46772" lon="6.54204">
        <ele>1987</ele>
        <time>2021-02-21T09:59:08Z</time>
      </trkpt>
      <trkpt lat="44.46772" lon="6.54204">
        <ele>1987</ele>
        <time>2021-02-21T09:59:09Z</time>
      </trkpt>
      <trkpt lat="44.46772" lon="6.54204">
        <ele>1987</ele>
        <time>2021-02-21T09:59:10Z</time>
      </trkpt>
      <trkpt lat="44.46772" lon="6.54204">
        <ele>1987</ele>
        <time>2021-02-21T09:59:11Z</time>
      </trkpt>
      <trkpt lat="44.46772" lon="6.54204">
        <ele>1987</ele>
        <time>2021-02-21T09:59:12Z</time>
      </trkpt>
      <trkpt lat="44.46772" lon="6.54204">
        <ele>1987</ele>
        <time>2021-02-21T09:59:13Z</time>
      </trkpt>
      <trkpt lat="44.46772" lon="6.54204">
        <ele>1987</ele>
        <time>2021-02-21T09:59:14Z</time>
      </trkpt>
      <trkpt lat="44.46772" lon="6.54204">
        <ele>1987</ele>
        <time>2021-02-21T09:59:15Z</time>
      </trkpt>
      <trkpt lat="44.46772" lon="6.54204">
        <ele>1987</ele>
        <time>2021-02-21T09:59:16Z</time>
      </trkpt>
      <trkpt lat="44.46772" lon="6.54204">
        <ele>1987</ele>
        <time>2021-02-21T09:59:17Z</time>
      </trkpt>
      <trkpt lat="44.46772" lon="6.54204">
        <ele>1987</ele>
        <time>2021-02-21T09:59:18Z</time>
      </trkpt>
      <trkpt lat="44.46772" lon="6.54204">
        <ele>1987</ele>
        <time>2021-02-21T09:59:19Z</time>
      </trkpt>
      <trkpt lat="44.46772" lon="6.54204">
        <ele>1987</ele>
        <time>2021-02-21T09:59:20Z</time>
      </trkpt>
      <trkpt lat="44.46772" lon="6.54204">
        <ele>1987</ele>
        <time>2021-02-21T09:59:21Z</time>
      </trkpt>
      <trkpt lat="44.46772" lon="6.54204">
        <ele>1987</ele>
        <time>2021-02-21T09:59:22Z</time>
      </trkpt>
      <trkpt lat="44.46772" lon="6.54204">
        <ele>1987</ele>
        <time>2021-02-21T09:59:23Z</time>
      </trkpt>
      <trkpt lat="44.46772" lon="6.54204">
        <ele>1987</ele>
        <time>2021-02-21T09:59:24Z</time>
      </trkpt>
      <trkpt lat="44.46772" lon="6.54204">
        <ele>1987</ele>
        <time>2021-02-21T09:59:25Z</time>
      </trkpt>
      <trkpt lat="44.46772" lon="6.54204">
        <ele>1987</ele>
        <time>2021-02-21T09:59:26Z</time>
      </trkpt>
      <trkpt lat="44.46772" lon="6.54204">
        <ele>1987</ele>
        <time>2021-02-21T09:59:27Z</time>
      </trkpt>
      <trkpt lat="44.46762" lon="6.54207">
        <ele>1987</ele>
        <time>2021-02-21T09:59:28Z</time>
      </trkpt>
      <trkpt lat="44.46762" lon="6.54207">
        <ele>1987</ele>
        <time>2021-02-21T09:59:29Z</time>
      </trkpt>
      <trkpt lat="44.46761" lon="6.54206">
        <ele>1987</ele>
        <time>2021-02-21T09:59:30Z</time>
      </trkpt>
      <trkpt lat="44.46761" lon="6.54206">
        <ele>1987</ele>
        <time>2021-02-21T09:59:31Z</time>
      </trkpt>
      <trkpt lat="44.46761" lon="6.54206">
        <ele>1987</ele>
        <time>2021-02-21T09:59:32Z</time>
      </trkpt>
      <trkpt lat="44.46761" lon="6.54206">
        <ele>1987</ele>
        <time>2021-02-21T09:59:33Z</time>
      </trkpt>
      <trkpt lat="44.46761" lon="6.54206">
        <ele>1987</ele>
        <time>2021-02-21T09:59:34Z</time>
      </trkpt>
      <trkpt lat="44.46761" lon="6.54206">
        <ele>1987</ele>
        <time>2021-02-21T09:59:35Z</time>
      </trkpt>
      <trkpt lat="44.46761" lon="6.54206">
        <ele>1987</ele>
        <time>2021-02-21T09:59:36Z</time>
      </trkpt>
      <trkpt lat="44.46761" lon="6.54206">
        <ele>1987</ele>
        <time>2021-02-21T09:59:37Z</time>
      </trkpt>
      <trkpt lat="44.46761" lon="6.54206">
        <ele>1987</ele>
        <time>2021-02-21T09:59:38Z</time>
      </trkpt>
      <trkpt lat="44.46761" lon="6.54206">
        <ele>1987</ele>
        <time>2021-02-21T09:59:39Z</time>
      </trkpt>
      <trkpt lat="44.46761" lon="6.54206">
        <ele>1987</ele>
        <time>2021-02-21T09:59:40Z</time>
      </trkpt>
      <trkpt lat="44.46761" lon="6.54206">
        <ele>1987</ele>
        <time>2021-02-21T09:59:41Z</time>
      </trkpt>
      <trkpt lat="44.46754" lon="6.54195">
        <ele>1986</ele>
        <time>2021-02-21T09:59:42Z</time>
      </trkpt>
      <trkpt lat="44.46753" lon="6.54195">
        <ele>1986</ele>
        <time>2021-02-21T09:59:43Z</time>
      </trkpt>
      <trkpt lat="44.46752" lon="6.54195">
        <ele>1986</ele>
        <time>2021-02-21T09:59:44Z</time>
      </trkpt>
      <trkpt lat="44.46751" lon="6.54195">
        <ele>1986</ele>
        <time>2021-02-21T09:59:45Z</time>
      </trkpt>
      <trkpt lat="44.46751" lon="6.54195">
        <ele>1986</ele>
        <time>2021-02-21T09:59:46Z</time>
      </trkpt>
      <trkpt lat="44.46751" lon="6.54195">
        <ele>1986</ele>
        <time>2021-02-21T09:59:47Z</time>
      </trkpt>
      <trkpt lat="44.46751" lon="6.54195">
        <ele>1986</ele>
        <time>2021-02-21T09:59:48Z</time>
      </trkpt>
      <trkpt lat="44.46751" lon="6.54195">
        <ele>1986</ele>
        <time>2021-02-21T09:59:49Z</time>
      </trkpt>
      <trkpt lat="44.46751" lon="6.54195">
        <ele>1986</ele>
        <time>2021-02-21T09:59:50Z</time>
      </trkpt>
      <trkpt lat="44.46751" lon="6.54195">
        <ele>1986</ele>
        <time>2021-02-21T09:59:51Z</time>
      </trkpt>
      <trkpt lat="44.46751" lon="6.54195">
        <ele>1986</ele>
        <time>2021-02-21T09:59:52Z</time>
      </trkpt>
      <trkpt lat="44.46751" lon="6.54195">
        <ele>1986</ele>
        <time>2021-02-21T09:59:53Z</time>
      </trkpt>
      <trkpt lat="44.46751" lon="6.54195">
        <ele>1986</ele>
        <time>2021-02-21T09:59:54Z</time>
      </trkpt>
      <trkpt lat="44.46751" lon="6.54195">
        <ele>1986</ele>
        <time>2021-02-21T09:59:55Z</time>
      </trkpt>
      <trkpt lat="44.46751" lon="6.54195">
        <ele>1986</ele>
        <time>2021-02-21T09:59:56Z</time>
      </trkpt>
      <trkpt lat="44.46751" lon="6.54195">
        <ele>1986</ele>
        <time>2021-02-21T09:59:57Z</time>
      </trkpt>
      <trkpt lat="44.46751" lon="6.54195">
        <ele>1986</ele>
        <time>2021-02-21T09:59:58Z</time>
      </trkpt>
      <trkpt lat="44.46751" lon="6.54195">
        <ele>1986</ele>
        <time>2021-02-21T09:59:59Z</time>
      </trkpt>
      <trkpt lat="44.46751" lon="6.54195">
        <ele>1986</ele>
        <time>2021-02-21T10:00:00Z</time>
      </trkpt>
      <trkpt lat="44.46751" lon="6.54195">
        <ele>1986</ele>
        <time>2021-02-21T10:00:01Z</time>
      </trkpt>
      <trkpt lat="44.46751" lon="6.54195">
        <ele>1986</ele>
        <time>2021-02-21T10:00:02Z</time>
      </trkpt>
      <trkpt lat="44.46751" lon="6.54195">
        <ele>1986</ele>
        <time>2021-02-21T10:00:03Z</time>
      </trkpt>
      <trkpt lat="44.46751" lon="6.54195">
        <ele>1986</ele>
        <time>2021-02-21T10:00:04Z</time>
      </trkpt>
      <trkpt lat="44.46751" lon="6.54195">
        <ele>1986</ele>
        <time>2021-02-21T10:00:05Z</time>
      </trkpt>
      <trkpt lat="44.46751" lon="6.54195">
        <ele>1986</ele>
        <time>2021-02-21T10:00:06Z</time>
      </trkpt>
      <trkpt lat="44.46751" lon="6.54195">
        <ele>1986</ele>
        <time>2021-02-21T10:00:07Z</time>
      </trkpt>
      <trkpt lat="44.46751" lon="6.54195">
        <ele>1986</ele>
        <time>2021-02-21T10:00:08Z</time>
      </trkpt>
      <trkpt lat="44.46751" lon="6.54195">
        <ele>1986</ele>
        <time>2021-02-21T10:00:09Z</time>
      </trkpt>
      <trkpt lat="44.46742" lon="6.54199">
        <ele>1986</ele>
        <time>2021-02-21T10:00:10Z</time>
      </trkpt>
      <trkpt lat="44.46741" lon="6.54199">
        <ele>1986</ele>
        <time>2021-02-21T10:00:11Z</time>
      </trkpt>
      <trkpt lat="44.4674" lon="6.542">
        <ele>1986</ele>
        <time>2021-02-21T10:00:12Z</time>
      </trkpt>
      <trkpt lat="44.4674" lon="6.542">
        <ele>1986</ele>
        <time>2021-02-21T10:00:13Z</time>
      </trkpt>
      <trkpt lat="44.4674" lon="6.542">
        <ele>1986</ele>
        <time>2021-02-21T10:00:14Z</time>
      </trkpt>
      <trkpt lat="44.4674" lon="6.542">
        <ele>1986</ele>
        <time>2021-02-21T10:00:15Z</time>
      </trkpt>
      <trkpt lat="44.4674" lon="6.542">
        <ele>1986</ele>
        <time>2021-02-21T10:00:16Z</time>
      </trkpt>
      <trkpt lat="44.4674" lon="6.542">
        <ele>1986</ele>
        <time>2021-02-21T10:00:17Z</time>
      </trkpt>
      <trkpt lat="44.4674" lon="6.542">
        <ele>1986</ele>
        <time>2021-02-21T10:00:18Z</time>
      </trkpt>
      <trkpt lat="44.4674" lon="6.542">
        <ele>1986</ele>
        <time>2021-02-21T10:00:19Z</time>
      </trkpt>
      <trkpt lat="44.4674" lon="6.542">
        <ele>1986</ele>
        <time>2021-02-21T10:00:20Z</time>
      </trkpt>
      <trkpt lat="44.4674" lon="6.542">
        <ele>1986</ele>
        <time>2021-02-21T10:00:21Z</time>
      </trkpt>
      <trkpt lat="44.4674" lon="6.542">
        <ele>1986</ele>
        <time>2021-02-21T10:00:22Z</time>
      </trkpt>
      <trkpt lat="44.46731" lon="6.54203">
        <ele>1987</ele>
        <time>2021-02-21T10:00:23Z</time>
      </trkpt>
      <trkpt lat="44.4673" lon="6.54205">
        <ele>1988</ele>
        <time>2021-02-21T10:00:24Z</time>
      </trkpt>
      <trkpt lat="44.46729" lon="6.54208">
        <ele>1988</ele>
        <time>2021-02-21T10:00:25Z</time>
      </trkpt>
      <trkpt lat="44.46727" lon="6.54209">
        <ele>1988</ele>
        <time>2021-02-21T10:00:26Z</time>
      </trkpt>
      <trkpt lat="44.46726" lon="6.5421">
        <ele>1987</ele>
        <time>2021-02-21T10:00:27Z</time>
      </trkpt>
      <trkpt lat="44.46724" lon="6.54211">
        <ele>1987</ele>
        <time>2021-02-21T10:00:28Z</time>
      </trkpt>
      <trkpt lat="44.46723" lon="6.54212">
        <ele>1987</ele>
        <time>2021-02-21T10:00:29Z</time>
      </trkpt>
      <trkpt lat="44.46723" lon="6.54213">
        <ele>1987</ele>
        <time>2021-02-21T10:00:30Z</time>
      </trkpt>
      <trkpt lat="44.46722" lon="6.54213">
        <ele>1987</ele>
        <time>2021-02-21T10:00:31Z</time>
      </trkpt>
      <trkpt lat="44.46722" lon="6.54213">
        <ele>1987</ele>
        <time>2021-02-21T10:00:32Z</time>
      </trkpt>
      <trkpt lat="44.46722" lon="6.54213">
        <ele>1987</ele>
        <time>2021-02-21T10:00:33Z</time>
      </trkpt>
      <trkpt lat="44.46722" lon="6.54213">
        <ele>1986</ele>
        <time>2021-02-21T10:00:34Z</time>
      </trkpt>
      <trkpt lat="44.46722" lon="6.54213">
        <ele>1986</ele>
        <time>2021-02-21T10:00:35Z</time>
      </trkpt>
      <trkpt lat="44.46722" lon="6.54213">
        <ele>1986</ele>
        <time>2021-02-21T10:00:36Z</time>
      </trkpt>
      <trkpt lat="44.46722" lon="6.54213">
        <ele>1986</ele>
        <time>2021-02-21T10:00:37Z</time>
      </trkpt>
      <trkpt lat="44.46722" lon="6.54213">
        <ele>1986</ele>
        <time>2021-02-21T10:00:38Z</time>
      </trkpt>
      <trkpt lat="44.46722" lon="6.54213">
        <ele>1986</ele>
        <time>2021-02-21T10:00:39Z</time>
      </trkpt>
      <trkpt lat="44.46722" lon="6.54213">
        <ele>1986</ele>
        <time>2021-02-21T10:00:40Z</time>
      </trkpt>
      <trkpt lat="44.46722" lon="6.54213">
        <ele>1986</ele>
        <time>2021-02-21T10:00:41Z</time>
      </trkpt>
      <trkpt lat="44.46722" lon="6.54213">
        <ele>1986</ele>
        <time>2021-02-21T10:00:42Z</time>
      </trkpt>
      <trkpt lat="44.46715" lon="6.54219">
        <ele>1985</ele>
        <time>2021-02-21T10:00:43Z</time>
      </trkpt>
      <trkpt lat="44.46714" lon="6.54221">
        <ele>1985</ele>
        <time>2021-02-21T10:00:44Z</time>
      </trkpt>
      <trkpt lat="44.46713" lon="6.54222">
        <ele>1985</ele>
        <time>2021-02-21T10:00:45Z</time>
      </trkpt>
      <trkpt lat="44.46712" lon="6.54225">
        <ele>1984</ele>
        <time>2021-02-21T10:00:46Z</time>
      </trkpt>
      <trkpt lat="44.46711" lon="6.54228">
        <ele>1984</ele>
        <time>2021-02-21T10:00:47Z</time>
      </trkpt>
      <trkpt lat="44.46709" lon="6.54231">
        <ele>1983</ele>
        <time>2021-02-21T10:00:48Z</time>
      </trkpt>
      <trkpt lat="44.46708" lon="6.54232">
        <ele>1983</ele>
        <time>2021-02-21T10:00:49Z</time>
      </trkpt>
      <trkpt lat="44.46708" lon="6.54232">
        <ele>1983</ele>
        <time>2021-02-21T10:00:50Z</time>
      </trkpt>
      <trkpt lat="44.46708" lon="6.54233">
        <ele>1983</ele>
        <time>2021-02-21T10:00:51Z</time>
      </trkpt>
      <trkpt lat="44.46708" lon="6.54233">
        <ele>1983</ele>
        <time>2021-02-21T10:00:52Z</time>
      </trkpt>
      <trkpt lat="44.46708" lon="6.54233">
        <ele>1983</ele>
        <time>2021-02-21T10:00:53Z</time>
      </trkpt>
      <trkpt lat="44.46708" lon="6.54233">
        <ele>1983</ele>
        <time>2021-02-21T10:00:54Z</time>
      </trkpt>
      <trkpt lat="44.46708" lon="6.54233">
        <ele>1983</ele>
        <time>2021-02-21T10:00:55Z</time>
      </trkpt>
      <trkpt lat="44.46708" lon="6.54233">
        <ele>1983</ele>
        <time>2021-02-21T10:00:56Z</time>
      </trkpt>
      <trkpt lat="44.46708" lon="6.54233">
        <ele>1983</ele>
        <time>2021-02-21T10:00:57Z</time>
      </trkpt>
      <trkpt lat="44.46708" lon="6.54233">
        <ele>1983</ele>
        <time>2021-02-21T10:00:58Z</time>
      </trkpt>
      <trkpt lat="44.46708" lon="6.54233">
        <ele>1983</ele>
        <time>2021-02-21T10:00:59Z</time>
      </trkpt>
      <trkpt lat="44.46708" lon="6.54233">
        <ele>1983</ele>
        <time>2021-02-21T10:01:00Z</time>
      </trkpt>
      <trkpt lat="44.46708" lon="6.54233">
        <ele>1983</ele>
        <time>2021-02-21T10:01:01Z</time>
      </trkpt>
      <trkpt lat="44.46708" lon="6.54233">
        <ele>1983</ele>
        <time>2021-02-21T10:01:02Z</time>
      </trkpt>
      <trkpt lat="44.46708" lon="6.54233">
        <ele>1983</ele>
        <time>2021-02-21T10:01:03Z</time>
      </trkpt>
      <trkpt lat="44.46708" lon="6.54233">
        <ele>1983</ele>
        <time>2021-02-21T10:01:04Z</time>
      </trkpt>
      <trkpt lat="44.46708" lon="6.54233">
        <ele>1983</ele>
        <time>2021-02-21T10:01:05Z</time>
      </trkpt>
      <trkpt lat="44.46708" lon="6.54233">
        <ele>1983</ele>
        <time>2021-02-21T10:01:06Z</time>
      </trkpt>
      <trkpt lat="44.46708" lon="6.54233">
        <ele>1983</ele>
        <time>2021-02-21T10:01:07Z</time>
      </trkpt>
      <trkpt lat="44.46708" lon="6.54233">
        <ele>1983</ele>
        <time>2021-02-21T10:01:08Z</time>
      </trkpt>
      <trkpt lat="44.46708" lon="6.54233">
        <ele>1983</ele>
        <time>2021-02-21T10:01:09Z</time>
      </trkpt>
      <trkpt lat="44.46708" lon="6.54233">
        <ele>1983</ele>
        <time>2021-02-21T10:01:10Z</time>
      </trkpt>
      <trkpt lat="44.46695" lon="6.54246">
        <ele>1984</ele>
        <time>2021-02-21T10:01:11Z</time>
      </trkpt>
      <trkpt lat="44.46694" lon="6.54247">
        <ele>1984</ele>
        <time>2021-02-21T10:01:12Z</time>
      </trkpt>
      <trkpt lat="44.46694" lon="6.54248">
        <ele>1984</ele>
        <time>2021-02-21T10:01:13Z</time>
      </trkpt>
      <trkpt lat="44.46694" lon="6.54248">
        <ele>1984</ele>
        <time>2021-02-21T10:01:14Z</time>
      </trkpt>
      <trkpt lat="44.46694" lon="6.54248">
        <ele>1984</ele>
        <time>2021-02-21T10:01:15Z</time>
      </trkpt>
      <trkpt lat="44.46695" lon="6.54248">
        <ele>1984</ele>
        <time>2021-02-21T10:01:16Z</time>
      </trkpt>
      <trkpt lat="44.46695" lon="6.54248">
        <ele>1984</ele>
        <time>2021-02-21T10:01:17Z</time>
      </trkpt>
      <trkpt lat="44.46694" lon="6.54249">
        <ele>1984</ele>
        <time>2021-02-21T10:01:18Z</time>
      </trkpt>
      <trkpt lat="44.46694" lon="6.54249">
        <ele>1984</ele>
        <time>2021-02-21T10:01:19Z</time>
      </trkpt>
      <trkpt lat="44.46693" lon="6.54248">
        <ele>1984</ele>
        <time>2021-02-21T10:01:20Z</time>
      </trkpt>
      <trkpt lat="44.46692" lon="6.54247">
        <ele>1984</ele>
        <time>2021-02-21T10:01:21Z</time>
      </trkpt>
      <trkpt lat="44.46691" lon="6.54247">
        <ele>1983</ele>
        <time>2021-02-21T10:01:22Z</time>
      </trkpt>
      <trkpt lat="44.46691" lon="6.54247">
        <ele>1982</ele>
        <time>2021-02-21T10:01:23Z</time>
      </trkpt>
      <trkpt lat="44.4669" lon="6.54248">
        <ele>1982</ele>
        <time>2021-02-21T10:01:24Z</time>
      </trkpt>
      <trkpt lat="44.4669" lon="6.54248">
        <ele>1982</ele>
        <time>2021-02-21T10:01:25Z</time>
      </trkpt>
      <trkpt lat="44.4669" lon="6.54248">
        <ele>1982</ele>
        <time>2021-02-21T10:01:26Z</time>
      </trkpt>
      <trkpt lat="44.4669" lon="6.54248">
        <ele>1982</ele>
        <time>2021-02-21T10:01:27Z</time>
      </trkpt>
      <trkpt lat="44.4669" lon="6.54248">
        <ele>1982</ele>
        <time>2021-02-21T10:01:28Z</time>
      </trkpt>
      <trkpt lat="44.4669" lon="6.54248">
        <ele>1982</ele>
        <time>2021-02-21T10:01:29Z</time>
      </trkpt>
      <trkpt lat="44.46693" lon="6.54247">
        <ele>1981</ele>
        <time>2021-02-21T10:01:30Z</time>
      </trkpt>
      <trkpt lat="44.46696" lon="6.54248">
        <ele>1980</ele>
        <time>2021-02-21T10:01:31Z</time>
      </trkpt>
      <trkpt lat="44.46698" lon="6.54248">
        <ele>1979</ele>
        <time>2021-02-21T10:01:32Z</time>
      </trkpt>
      <trkpt lat="44.467" lon="6.54248">
        <ele>1979</ele>
        <time>2021-02-21T10:01:33Z</time>
      </trkpt>
      <trkpt lat="44.46703" lon="6.5425">
        <ele>1978</ele>
        <time>2021-02-21T10:01:34Z</time>
      </trkpt>
      <trkpt lat="44.46705" lon="6.54253">
        <ele>1978</ele>
        <time>2021-02-21T10:01:35Z</time>
      </trkpt>
      <trkpt lat="44.46706" lon="6.54257">
        <ele>1977</ele>
        <time>2021-02-21T10:01:36Z</time>
      </trkpt>
      <trkpt lat="44.46708" lon="6.54259">
        <ele>1977</ele>
        <time>2021-02-21T10:01:37Z</time>
      </trkpt>
      <trkpt lat="44.4671" lon="6.54262">
        <ele>1976</ele>
        <time>2021-02-21T10:01:38Z</time>
      </trkpt>
      <trkpt lat="44.46712" lon="6.54265">
        <ele>1975</ele>
        <time>2021-02-21T10:01:39Z</time>
      </trkpt>
      <trkpt lat="44.46714" lon="6.54269">
        <ele>1973</ele>
        <time>2021-02-21T10:01:40Z</time>
      </trkpt>
      <trkpt lat="44.46715" lon="6.54271">
        <ele>1973</ele>
        <time>2021-02-21T10:01:41Z</time>
      </trkpt>
      <trkpt lat="44.46717" lon="6.5427">
        <ele>1972</ele>
        <time>2021-02-21T10:01:42Z</time>
      </trkpt>
      <trkpt lat="44.46719" lon="6.54272">
        <ele>1969</ele>
        <time>2021-02-21T10:01:43Z</time>
      </trkpt>
      <trkpt lat="44.46721" lon="6.54275">
        <ele>1968</ele>
        <time>2021-02-21T10:01:44Z</time>
      </trkpt>
      <trkpt lat="44.46723" lon="6.54278">
        <ele>1965</ele>
        <time>2021-02-21T10:01:45Z</time>
      </trkpt>
      <trkpt lat="44.46726" lon="6.54279">
        <ele>1963</ele>
        <time>2021-02-21T10:01:46Z</time>
      </trkpt>
      <trkpt lat="44.46728" lon="6.54282">
        <ele>1960</ele>
        <time>2021-02-21T10:01:47Z</time>
      </trkpt>
      <trkpt lat="44.46729" lon="6.54283">
        <ele>1958</ele>
        <time>2021-02-21T10:01:48Z</time>
      </trkpt>
      <trkpt lat="44.46731" lon="6.54285">
        <ele>1957</ele>
        <time>2021-02-21T10:01:49Z</time>
      </trkpt>
      <trkpt lat="44.46734" lon="6.54288">
        <ele>1953</ele>
        <time>2021-02-21T10:01:50Z</time>
      </trkpt>
      <trkpt lat="44.46737" lon="6.54292">
        <ele>1950</ele>
        <time>2021-02-21T10:01:51Z</time>
      </trkpt>
      <trkpt lat="44.46739" lon="6.54296">
        <ele>1947</ele>
        <time>2021-02-21T10:01:52Z</time>
      </trkpt>
      <trkpt lat="44.46742" lon="6.54296">
        <ele>1946</ele>
        <time>2021-02-21T10:01:53Z</time>
      </trkpt>
      <trkpt lat="44.46745" lon="6.54298">
        <ele>1943</ele>
        <time>2021-02-21T10:01:54Z</time>
      </trkpt>
      <trkpt lat="44.46747" lon="6.54302">
        <ele>1941</ele>
        <time>2021-02-21T10:01:55Z</time>
      </trkpt>
      <trkpt lat="44.4675" lon="6.54305">
        <ele>1939</ele>
        <time>2021-02-21T10:01:56Z</time>
      </trkpt>
      <trkpt lat="44.46751" lon="6.54306">
        <ele>1938</ele>
        <time>2021-02-21T10:01:57Z</time>
      </trkpt>
      <trkpt lat="44.46751" lon="6.54307">
        <ele>1937</ele>
        <time>2021-02-21T10:01:58Z</time>
      </trkpt>
      <trkpt lat="44.4675" lon="6.54307">
        <ele>1936</ele>
        <time>2021-02-21T10:01:59Z</time>
      </trkpt>
      <trkpt lat="44.4675" lon="6.54306">
        <ele>1935</ele>
        <time>2021-02-21T10:02:00Z</time>
      </trkpt>
      <trkpt lat="44.46751" lon="6.54306">
        <ele>1934</ele>
        <time>2021-02-21T10:02:01Z</time>
      </trkpt>
      <trkpt lat="44.46751" lon="6.54306">
        <ele>1934</ele>
        <time>2021-02-21T10:02:02Z</time>
      </trkpt>
      <trkpt lat="44.46751" lon="6.54306">
        <ele>1933</ele>
        <time>2021-02-21T10:02:03Z</time>
      </trkpt>
      <trkpt lat="44.46751" lon="6.54306">
        <ele>1933</ele>
        <time>2021-02-21T10:02:04Z</time>
      </trkpt>
      <trkpt lat="44.46751" lon="6.54306">
        <ele>1933</ele>
        <time>2021-02-21T10:02:05Z</time>
      </trkpt>
      <trkpt lat="44.46751" lon="6.54306">
        <ele>1933</ele>
        <time>2021-02-21T10:02:06Z</time>
      </trkpt>
      <trkpt lat="44.46751" lon="6.54306">
        <ele>1933</ele>
        <time>2021-02-21T10:02:07Z</time>
      </trkpt>
      <trkpt lat="44.46751" lon="6.54306">
        <ele>1933</ele>
        <time>2021-02-21T10:02:08Z</time>
      </trkpt>
      <trkpt lat="44.46751" lon="6.54306">
        <ele>1932</ele>
        <time>2021-02-21T10:02:09Z</time>
      </trkpt>
      <trkpt lat="44.46751" lon="6.54306">
        <ele>1932</ele>
        <time>2021-02-21T10:02:10Z</time>
      </trkpt>
      <trkpt lat="44.46751" lon="6.54306">
        <ele>1932</ele>
        <time>2021-02-21T10:02:11Z</time>
      </trkpt>
      <trkpt lat="44.46751" lon="6.54306">
        <ele>1932</ele>
        <time>2021-02-21T10:02:12Z</time>
      </trkpt>
      <trkpt lat="44.46751" lon="6.54306">
        <ele>1932</ele>
        <time>2021-02-21T10:02:13Z</time>
      </trkpt>
      <trkpt lat="44.46751" lon="6.54306">
        <ele>1932</ele>
        <time>2021-02-21T10:02:14Z</time>
      </trkpt>
      <trkpt lat="44.46751" lon="6.54306">
        <ele>1932</ele>
        <time>2021-02-21T10:02:15Z</time>
      </trkpt>
      <trkpt lat="44.46751" lon="6.54306">
        <ele>1932</ele>
        <time>2021-02-21T10:02:16Z</time>
      </trkpt>
      <trkpt lat="44.46751" lon="6.54306">
        <ele>1932</ele>
        <time>2021-02-21T10:02:17Z</time>
      </trkpt>
      <trkpt lat="44.46751" lon="6.54306">
        <ele>1932</ele>
        <time>2021-02-21T10:02:18Z</time>
      </trkpt>
      <trkpt lat="44.46751" lon="6.54306">
        <ele>1932</ele>
        <time>2021-02-21T10:02:19Z</time>
      </trkpt>
      <trkpt lat="44.46751" lon="6.54306">
        <ele>1932</ele>
        <time>2021-02-21T10:02:20Z</time>
      </trkpt>
      <trkpt lat="44.46748" lon="6.54314">
        <ele>1930</ele>
        <time>2021-02-21T10:02:21Z</time>
      </trkpt>
      <trkpt lat="44.46747" lon="6.54316">
        <ele>1929</ele>
        <time>2021-02-21T10:02:22Z</time>
      </trkpt>
      <trkpt lat="44.46747" lon="6.54316">
        <ele>1929</ele>
        <time>2021-02-21T10:02:23Z</time>
      </trkpt>
      <trkpt lat="44.46747" lon="6.54316">
        <ele>1929</ele>
        <time>2021-02-21T10:02:24Z</time>
      </trkpt>
      <trkpt lat="44.46747" lon="6.54316">
        <ele>1929</ele>
        <time>2021-02-21T10:02:25Z</time>
      </trkpt>
      <trkpt lat="44.46747" lon="6.54316">
        <ele>1928</ele>
        <time>2021-02-21T10:02:26Z</time>
      </trkpt>
      <trkpt lat="44.46747" lon="6.54316">
        <ele>1928</ele>
        <time>2021-02-21T10:02:27Z</time>
      </trkpt>
      <trkpt lat="44.46747" lon="6.54316">
        <ele>1928</ele>
        <time>2021-02-21T10:02:28Z</time>
      </trkpt>
      <trkpt lat="44.46747" lon="6.54316">
        <ele>1928</ele>
        <time>2021-02-21T10:02:29Z</time>
      </trkpt>
      <trkpt lat="44.46747" lon="6.54316">
        <ele>1928</ele>
        <time>2021-02-21T10:02:30Z</time>
      </trkpt>
      <trkpt lat="44.46747" lon="6.54316">
        <ele>1928</ele>
        <time>2021-02-21T10:02:31Z</time>
      </trkpt>
      <trkpt lat="44.46747" lon="6.54316">
        <ele>1928</ele>
        <time>2021-02-21T10:02:32Z</time>
      </trkpt>
      <trkpt lat="44.46747" lon="6.54316">
        <ele>1928</ele>
        <time>2021-02-21T10:02:33Z</time>
      </trkpt>
      <trkpt lat="44.46747" lon="6.54316">
        <ele>1928</ele>
        <time>2021-02-21T10:02:34Z</time>
      </trkpt>
      <trkpt lat="44.46747" lon="6.54316">
        <ele>1928</ele>
        <time>2021-02-21T10:02:35Z</time>
      </trkpt>
      <trkpt lat="44.46747" lon="6.54316">
        <ele>1928</ele>
        <time>2021-02-21T10:02:36Z</time>
      </trkpt>
      <trkpt lat="44.46747" lon="6.54316">
        <ele>1928</ele>
        <time>2021-02-21T10:02:37Z</time>
      </trkpt>
      <trkpt lat="44.46747" lon="6.54316">
        <ele>1928</ele>
        <time>2021-02-21T10:02:38Z</time>
      </trkpt>
      <trkpt lat="44.46747" lon="6.54316">
        <ele>1928</ele>
        <time>2021-02-21T10:02:39Z</time>
      </trkpt>
      <trkpt lat="44.46747" lon="6.54316">
        <ele>1928</ele>
        <time>2021-02-21T10:02:40Z</time>
      </trkpt>
      <trkpt lat="44.46747" lon="6.54316">
        <ele>1928</ele>
        <time>2021-02-21T10:02:41Z</time>
      </trkpt>
      <trkpt lat="44.46747" lon="6.54316">
        <ele>1928</ele>
        <time>2021-02-21T10:02:42Z</time>
      </trkpt>
      <trkpt lat="44.46747" lon="6.54316">
        <ele>1928</ele>
        <time>2021-02-21T10:02:43Z</time>
      </trkpt>
      <trkpt lat="44.46747" lon="6.54316">
        <ele>1928</ele>
        <time>2021-02-21T10:02:44Z</time>
      </trkpt>
      <trkpt lat="44.46747" lon="6.54316">
        <ele>1928</ele>
        <time>2021-02-21T10:02:45Z</time>
      </trkpt>
      <trkpt lat="44.46747" lon="6.54316">
        <ele>1928</ele>
        <time>2021-02-21T10:02:46Z</time>
      </trkpt>
      <trkpt lat="44.46747" lon="6.54316">
        <ele>1928</ele>
        <time>2021-02-21T10:02:47Z</time>
      </trkpt>
      <trkpt lat="44.46747" lon="6.54316">
        <ele>1928</ele>
        <time>2021-02-21T10:02:48Z</time>
      </trkpt>
      <trkpt lat="44.46747" lon="6.54316">
        <ele>1928</ele>
        <time>2021-02-21T10:02:49Z</time>
      </trkpt>
      <trkpt lat="44.46747" lon="6.54316">
        <ele>1928</ele>
        <time>2021-02-21T10:02:50Z</time>
      </trkpt>
      <trkpt lat="44.46747" lon="6.54316">
        <ele>1928</ele>
        <time>2021-02-21T10:02:51Z</time>
      </trkpt>
      <trkpt lat="44.46752" lon="6.54328">
        <ele>1931</ele>
        <time>2021-02-21T10:02:52Z</time>
      </trkpt>
      <trkpt lat="44.46759" lon="6.5435">
        <ele>1933</ele>
        <time>2021-02-21T10:02:53Z</time>
      </trkpt>
      <trkpt lat="44.46763" lon="6.54352">
        <ele>1934</ele>
        <time>2021-02-21T10:02:54Z</time>
      </trkpt>
      <trkpt lat="44.46766" lon="6.54357">
        <ele>1935</ele>
        <time>2021-02-21T10:02:55Z</time>
      </trkpt>
      <trkpt lat="44.46766" lon="6.54357">
        <ele>1936</ele>
        <time>2021-02-21T10:02:56Z</time>
      </trkpt>
      <trkpt lat="44.46766" lon="6.54357">
        <ele>1936</ele>
        <time>2021-02-21T10:02:57Z</time>
      </trkpt>
      <trkpt lat="44.46766" lon="6.54357">
        <ele>1936</ele>
        <time>2021-02-21T10:02:58Z</time>
      </trkpt>
      <trkpt lat="44.46766" lon="6.54357">
        <ele>1936</ele>
        <time>2021-02-21T10:02:59Z</time>
      </trkpt>
      <trkpt lat="44.46766" lon="6.54357">
        <ele>1936</ele>
        <time>2021-02-21T10:03:00Z</time>
      </trkpt>
      <trkpt lat="44.46763" lon="6.54345">
        <ele>1938</ele>
        <time>2021-02-21T10:03:01Z</time>
      </trkpt>
      <trkpt lat="44.46763" lon="6.54343">
        <ele>1939</ele>
        <time>2021-02-21T10:03:02Z</time>
      </trkpt>
      <trkpt lat="44.46763" lon="6.54342">
        <ele>1939</ele>
        <time>2021-02-21T10:03:03Z</time>
      </trkpt>
      <trkpt lat="44.46762" lon="6.54342">
        <ele>1939</ele>
        <time>2021-02-21T10:03:04Z</time>
      </trkpt>
      <trkpt lat="44.46762" lon="6.54342">
        <ele>1939</ele>
        <time>2021-02-21T10:03:05Z</time>
      </trkpt>
      <trkpt lat="44.46762" lon="6.54342">
        <ele>1939</ele>
        <time>2021-02-21T10:03:06Z</time>
      </trkpt>
      <trkpt lat="44.46762" lon="6.54342">
        <ele>1940</ele>
        <time>2021-02-21T10:03:07Z</time>
      </trkpt>
      <trkpt lat="44.46762" lon="6.54342">
        <ele>1940</ele>
        <time>2021-02-21T10:03:08Z</time>
      </trkpt>
      <trkpt lat="44.46762" lon="6.54342">
        <ele>1940</ele>
        <time>2021-02-21T10:03:09Z</time>
      </trkpt>
      <trkpt lat="44.46762" lon="6.54342">
        <ele>1940</ele>
        <time>2021-02-21T10:03:10Z</time>
      </trkpt>
      <trkpt lat="44.46762" lon="6.54342">
        <ele>1940</ele>
        <time>2021-02-21T10:03:11Z</time>
      </trkpt>
      <trkpt lat="44.46756" lon="6.54333">
        <ele>1939</ele>
        <time>2021-02-21T10:03:12Z</time>
      </trkpt>
      <trkpt lat="44.46755" lon="6.54333">
        <ele>1939</ele>
        <time>2021-02-21T10:03:13Z</time>
      </trkpt>
      <trkpt lat="44.46754" lon="6.54333">
        <ele>1939</ele>
        <time>2021-02-21T10:03:14Z</time>
      </trkpt>
      <trkpt lat="44.46754" lon="6.54333">
        <ele>1938</ele>
        <time>2021-02-21T10:03:15Z</time>
      </trkpt>
      <trkpt lat="44.46754" lon="6.54333">
        <ele>1938</ele>
        <time>2021-02-21T10:03:16Z</time>
      </trkpt>
      <trkpt lat="44.46754" lon="6.54333">
        <ele>1938</ele>
        <time>2021-02-21T10:03:17Z</time>
      </trkpt>
      <trkpt lat="44.46754" lon="6.54333">
        <ele>1938</ele>
        <time>2021-02-21T10:03:18Z</time>
      </trkpt>
      <trkpt lat="44.46754" lon="6.54333">
        <ele>1938</ele>
        <time>2021-02-21T10:03:19Z</time>
      </trkpt>
      <trkpt lat="44.46754" lon="6.54333">
        <ele>1938</ele>
        <time>2021-02-21T10:03:20Z</time>
      </trkpt>
      <trkpt lat="44.46754" lon="6.54333">
        <ele>1938</ele>
        <time>2021-02-21T10:03:21Z</time>
      </trkpt>
      <trkpt lat="44.46754" lon="6.54333">
        <ele>1938</ele>
        <time>2021-02-21T10:03:22Z</time>
      </trkpt>
      <trkpt lat="44.46754" lon="6.54333">
        <ele>1938</ele>
        <time>2021-02-21T10:03:23Z</time>
      </trkpt>
      <trkpt lat="44.46754" lon="6.54333">
        <ele>1938</ele>
        <time>2021-02-21T10:03:24Z</time>
      </trkpt>
      <trkpt lat="44.46754" lon="6.54333">
        <ele>1938</ele>
        <time>2021-02-21T10:03:25Z</time>
      </trkpt>
      <trkpt lat="44.46754" lon="6.54333">
        <ele>1938</ele>
        <time>2021-02-21T10:03:26Z</time>
      </trkpt>
      <trkpt lat="44.46754" lon="6.54333">
        <ele>1938</ele>
        <time>2021-02-21T10:03:27Z</time>
      </trkpt>
      <trkpt lat="44.46754" lon="6.54333">
        <ele>1938</ele>
        <time>2021-02-21T10:03:28Z</time>
      </trkpt>
      <trkpt lat="44.46754" lon="6.54333">
        <ele>1938</ele>
        <time>2021-02-21T10:03:29Z</time>
      </trkpt>
      <trkpt lat="44.46754" lon="6.54333">
        <ele>1938</ele>
        <time>2021-02-21T10:03:30Z</time>
      </trkpt>
      <trkpt lat="44.46754" lon="6.54333">
        <ele>1938</ele>
        <time>2021-02-21T10:03:31Z</time>
      </trkpt>
      <trkpt lat="44.46754" lon="6.54333">
        <ele>1938</ele>
        <time>2021-02-21T10:03:32Z</time>
      </trkpt>
      <trkpt lat="44.46754" lon="6.54333">
        <ele>1938</ele>
        <time>2021-02-21T10:03:33Z</time>
      </trkpt>
      <trkpt lat="44.46754" lon="6.54333">
        <ele>1938</ele>
        <time>2021-02-21T10:03:34Z</time>
      </trkpt>
      <trkpt lat="44.46754" lon="6.54333">
        <ele>1938</ele>
        <time>2021-02-21T10:03:35Z</time>
      </trkpt>
      <trkpt lat="44.46754" lon="6.54333">
        <ele>1938</ele>
        <time>2021-02-21T10:03:36Z</time>
      </trkpt>
      <trkpt lat="44.46754" lon="6.54333">
        <ele>1938</ele>
        <time>2021-02-21T10:03:37Z</time>
      </trkpt>
      <trkpt lat="44.46754" lon="6.54333">
        <ele>1938</ele>
        <time>2021-02-21T10:03:38Z</time>
      </trkpt>
      <trkpt lat="44.46754" lon="6.54333">
        <ele>1938</ele>
        <time>2021-02-21T10:03:39Z</time>
      </trkpt>
      <trkpt lat="44.46754" lon="6.54333">
        <ele>1938</ele>
        <time>2021-02-21T10:03:40Z</time>
      </trkpt>
      <trkpt lat="44.46752" lon="6.54319">
        <ele>1936</ele>
        <time>2021-02-21T10:03:41Z</time>
      </trkpt>
      <trkpt lat="44.46752" lon="6.54319">
        <ele>1935</ele>
        <time>2021-02-21T10:03:42Z</time>
      </trkpt>
      <trkpt lat="44.46752" lon="6.54318">
        <ele>1935</ele>
        <time>2021-02-21T10:03:43Z</time>
      </trkpt>
      <trkpt lat="44.46752" lon="6.54317">
        <ele>1934</ele>
        <time>2021-02-21T10:03:44Z</time>
      </trkpt>
      <trkpt lat="44.46752" lon="6.54317">
        <ele>1934</ele>
        <time>2021-02-21T10:03:45Z</time>
      </trkpt>
      <trkpt lat="44.46752" lon="6.54317">
        <ele>1934</ele>
        <time>2021-02-21T10:03:46Z</time>
      </trkpt>
      <trkpt lat="44.46752" lon="6.54317">
        <ele>1934</ele>
        <time>2021-02-21T10:03:47Z</time>
      </trkpt>
      <trkpt lat="44.46752" lon="6.54317">
        <ele>1934</ele>
        <time>2021-02-21T10:03:48Z</time>
      </trkpt>
      <trkpt lat="44.46752" lon="6.54317">
        <ele>1934</ele>
        <time>2021-02-21T10:03:49Z</time>
      </trkpt>
      <trkpt lat="44.46752" lon="6.54317">
        <ele>1934</ele>
        <time>2021-02-21T10:03:50Z</time>
      </trkpt>
      <trkpt lat="44.46752" lon="6.54317">
        <ele>1934</ele>
        <time>2021-02-21T10:03:51Z</time>
      </trkpt>
      <trkpt lat="44.46752" lon="6.54317">
        <ele>1934</ele>
        <time>2021-02-21T10:03:52Z</time>
      </trkpt>
      <trkpt lat="44.46752" lon="6.54317">
        <ele>1934</ele>
        <time>2021-02-21T10:03:53Z</time>
      </trkpt>
      <trkpt lat="44.46752" lon="6.54317">
        <ele>1934</ele>
        <time>2021-02-21T10:03:54Z</time>
      </trkpt>
      <trkpt lat="44.46752" lon="6.54317">
        <ele>1933</ele>
        <time>2021-02-21T10:03:55Z</time>
      </trkpt>
      <trkpt lat="44.46757" lon="6.54322">
        <ele>1932</ele>
        <time>2021-02-21T10:03:56Z</time>
      </trkpt>
      <trkpt lat="44.4676" lon="6.54328">
        <ele>1931</ele>
        <time>2021-02-21T10:03:57Z</time>
      </trkpt>
      <trkpt lat="44.46764" lon="6.54333">
        <ele>1929</ele>
        <time>2021-02-21T10:03:58Z</time>
      </trkpt>
      <trkpt lat="44.46768" lon="6.54338">
        <ele>1927</ele>
        <time>2021-02-21T10:03:59Z</time>
      </trkpt>
      <trkpt lat="44.46772" lon="6.54343">
        <ele>1925</ele>
        <time>2021-02-21T10:04:00Z</time>
      </trkpt>
      <trkpt lat="44.46775" lon="6.54349">
        <ele>1923</ele>
        <time>2021-02-21T10:04:01Z</time>
      </trkpt>
      <trkpt lat="44.46777" lon="6.54356">
        <ele>1921</ele>
        <time>2021-02-21T10:04:02Z</time>
      </trkpt>
      <trkpt lat="44.46782" lon="6.54361">
        <ele>1919</ele>
        <time>2021-02-21T10:04:03Z</time>
      </trkpt>
      <trkpt lat="44.46786" lon="6.54365">
        <ele>1916</ele>
        <time>2021-02-21T10:04:04Z</time>
      </trkpt>
      <trkpt lat="44.46789" lon="6.54369">
        <ele>1914</ele>
        <time>2021-02-21T10:04:05Z</time>
      </trkpt>
      <trkpt lat="44.46791" lon="6.54373">
        <ele>1911</ele>
        <time>2021-02-21T10:04:06Z</time>
      </trkpt>
      <trkpt lat="44.46794" lon="6.54376">
        <ele>1909</ele>
        <time>2021-02-21T10:04:07Z</time>
      </trkpt>
      <trkpt lat="44.46796" lon="6.54379">
        <ele>1905</ele>
        <time>2021-02-21T10:04:08Z</time>
      </trkpt>
      <trkpt lat="44.46797" lon="6.54383">
        <ele>1903</ele>
        <time>2021-02-21T10:04:09Z</time>
      </trkpt>
      <trkpt lat="44.468" lon="6.54386">
        <ele>1899</ele>
        <time>2021-02-21T10:04:10Z</time>
      </trkpt>
      <trkpt lat="44.46801" lon="6.5439">
        <ele>1898</ele>
        <time>2021-02-21T10:04:11Z</time>
      </trkpt>
      <trkpt lat="44.46802" lon="6.54393">
        <ele>1895</ele>
        <time>2021-02-21T10:04:12Z</time>
      </trkpt>
      <trkpt lat="44.46803" lon="6.54394">
        <ele>1893</ele>
        <time>2021-02-21T10:04:13Z</time>
      </trkpt>
      <trkpt lat="44.46805" lon="6.54394">
        <ele>1890</ele>
        <time>2021-02-21T10:04:14Z</time>
      </trkpt>
      <trkpt lat="44.46807" lon="6.5439">
        <ele>1888</ele>
        <time>2021-02-21T10:04:15Z</time>
      </trkpt>
      <trkpt lat="44.46811" lon="6.54386">
        <ele>1884</ele>
        <time>2021-02-21T10:04:16Z</time>
      </trkpt>
      <trkpt lat="44.46815" lon="6.54386">
        <ele>1881</ele>
        <time>2021-02-21T10:04:17Z</time>
      </trkpt>
      <trkpt lat="44.46818" lon="6.5439">
        <ele>1878</ele>
        <time>2021-02-21T10:04:18Z</time>
      </trkpt>
      <trkpt lat="44.46821" lon="6.54392">
        <ele>1876</ele>
        <time>2021-02-21T10:04:19Z</time>
      </trkpt>
      <trkpt lat="44.46826" lon="6.5439">
        <ele>1873</ele>
        <time>2021-02-21T10:04:20Z</time>
      </trkpt>
      <trkpt lat="44.46828" lon="6.54385">
        <ele>1870</ele>
        <time>2021-02-21T10:04:21Z</time>
      </trkpt>
      <trkpt lat="44.4683" lon="6.54379">
        <ele>1867</ele>
        <time>2021-02-21T10:04:22Z</time>
      </trkpt>
      <trkpt lat="44.46833" lon="6.54374">
        <ele>1864</ele>
        <time>2021-02-21T10:04:23Z</time>
      </trkpt>
      <trkpt lat="44.46835" lon="6.5437">
        <ele>1863</ele>
        <time>2021-02-21T10:04:24Z</time>
      </trkpt>
      <trkpt lat="44.46835" lon="6.54369">
        <ele>1861</ele>
        <time>2021-02-21T10:04:25Z</time>
      </trkpt>
      <trkpt lat="44.46835" lon="6.54368">
        <ele>1861</ele>
        <time>2021-02-21T10:04:26Z</time>
      </trkpt>
      <trkpt lat="44.46835" lon="6.54369">
        <ele>1860</ele>
        <time>2021-02-21T10:04:27Z</time>
      </trkpt>
      <trkpt lat="44.46835" lon="6.54369">
        <ele>1860</ele>
        <time>2021-02-21T10:04:28Z</time>
      </trkpt>
      <trkpt lat="44.46835" lon="6.54369">
        <ele>1860</ele>
        <time>2021-02-21T10:04:29Z</time>
      </trkpt>
      <trkpt lat="44.46835" lon="6.54369">
        <ele>1860</ele>
        <time>2021-02-21T10:04:30Z</time>
      </trkpt>
      <trkpt lat="44.46835" lon="6.54369">
        <ele>1860</ele>
        <time>2021-02-21T10:04:31Z</time>
      </trkpt>
      <trkpt lat="44.46835" lon="6.54369">
        <ele>1859</ele>
        <time>2021-02-21T10:04:32Z</time>
      </trkpt>
      <trkpt lat="44.46835" lon="6.54369">
        <ele>1859</ele>
        <time>2021-02-21T10:04:33Z</time>
      </trkpt>
      <trkpt lat="44.46835" lon="6.54369">
        <ele>1859</ele>
        <time>2021-02-21T10:04:34Z</time>
      </trkpt>
      <trkpt lat="44.46835" lon="6.54369">
        <ele>1859</ele>
        <time>2021-02-21T10:04:35Z</time>
      </trkpt>
      <trkpt lat="44.46835" lon="6.54369">
        <ele>1859</ele>
        <time>2021-02-21T10:04:36Z</time>
      </trkpt>
      <trkpt lat="44.46835" lon="6.54369">
        <ele>1859</ele>
        <time>2021-02-21T10:04:37Z</time>
      </trkpt>
      <trkpt lat="44.46835" lon="6.54369">
        <ele>1859</ele>
        <time>2021-02-21T10:04:38Z</time>
      </trkpt>
      <trkpt lat="44.46835" lon="6.54369">
        <ele>1859</ele>
        <time>2021-02-21T10:04:39Z</time>
      </trkpt>
      <trkpt lat="44.46835" lon="6.54369">
        <ele>1859</ele>
        <time>2021-02-21T10:04:40Z</time>
      </trkpt>
      <trkpt lat="44.46835" lon="6.54369">
        <ele>1859</ele>
        <time>2021-02-21T10:04:41Z</time>
      </trkpt>
      <trkpt lat="44.46835" lon="6.54369">
        <ele>1859</ele>
        <time>2021-02-21T10:04:42Z</time>
      </trkpt>
      <trkpt lat="44.46835" lon="6.54369">
        <ele>1859</ele>
        <time>2021-02-21T10:04:43Z</time>
      </trkpt>
      <trkpt lat="44.46835" lon="6.54369">
        <ele>1859</ele>
        <time>2021-02-21T10:04:44Z</time>
      </trkpt>
      <trkpt lat="44.46835" lon="6.54369">
        <ele>1859</ele>
        <time>2021-02-21T10:04:45Z</time>
      </trkpt>
      <trkpt lat="44.46835" lon="6.54369">
        <ele>1859</ele>
        <time>2021-02-21T10:04:46Z</time>
      </trkpt>
      <trkpt lat="44.46835" lon="6.54369">
        <ele>1859</ele>
        <time>2021-02-21T10:04:47Z</time>
      </trkpt>
      <trkpt lat="44.46835" lon="6.54369">
        <ele>1859</ele>
        <time>2021-02-21T10:04:48Z</time>
      </trkpt>
      <trkpt lat="44.46835" lon="6.54369">
        <ele>1859</ele>
        <time>2021-02-21T10:04:49Z</time>
      </trkpt>
      <trkpt lat="44.46835" lon="6.54369">
        <ele>1859</ele>
        <time>2021-02-21T10:04:50Z</time>
      </trkpt>
      <trkpt lat="44.46835" lon="6.54369">
        <ele>1859</ele>
        <time>2021-02-21T10:04:51Z</time>
      </trkpt>
      <trkpt lat="44.46835" lon="6.54369">
        <ele>1859</ele>
        <time>2021-02-21T10:04:52Z</time>
      </trkpt>
      <trkpt lat="44.46835" lon="6.54369">
        <ele>1859</ele>
        <time>2021-02-21T10:04:53Z</time>
      </trkpt>
      <trkpt lat="44.46835" lon="6.54369">
        <ele>1859</ele>
        <time>2021-02-21T10:04:54Z</time>
      </trkpt>
      <trkpt lat="44.46835" lon="6.54369">
        <ele>1859</ele>
        <time>2021-02-21T10:04:55Z</time>
      </trkpt>
      <trkpt lat="44.46835" lon="6.54369">
        <ele>1859</ele>
        <time>2021-02-21T10:04:56Z</time>
      </trkpt>
      <trkpt lat="44.46835" lon="6.54369">
        <ele>1859</ele>
        <time>2021-02-21T10:04:57Z</time>
      </trkpt>
      <trkpt lat="44.46835" lon="6.54369">
        <ele>1859</ele>
        <time>2021-02-21T10:04:58Z</time>
      </trkpt>
      <trkpt lat="44.46835" lon="6.54369">
        <ele>1859</ele>
        <time>2021-02-21T10:04:59Z</time>
      </trkpt>
      <trkpt lat="44.46835" lon="6.54369">
        <ele>1859</ele>
        <time>2021-02-21T10:05:00Z</time>
      </trkpt>
      <trkpt lat="44.46835" lon="6.54369">
        <ele>1859</ele>
        <time>2021-02-21T10:05:01Z</time>
      </trkpt>
      <trkpt lat="44.46835" lon="6.54369">
        <ele>1859</ele>
        <time>2021-02-21T10:05:02Z</time>
      </trkpt>
      <trkpt lat="44.46835" lon="6.54369">
        <ele>1859</ele>
        <time>2021-02-21T10:05:03Z</time>
      </trkpt>
      <trkpt lat="44.46835" lon="6.54369">
        <ele>1859</ele>
        <time>2021-02-21T10:05:04Z</time>
      </trkpt>
      <trkpt lat="44.46835" lon="6.54369">
        <ele>1859</ele>
        <time>2021-02-21T10:05:05Z</time>
      </trkpt>
      <trkpt lat="44.46835" lon="6.54369">
        <ele>1859</ele>
        <time>2021-02-21T10:05:06Z</time>
      </trkpt>
      <trkpt lat="44.46835" lon="6.54369">
        <ele>1859</ele>
        <time>2021-02-21T10:05:07Z</time>
      </trkpt>
      <trkpt lat="44.46835" lon="6.54369">
        <ele>1859</ele>
        <time>2021-02-21T10:05:08Z</time>
      </trkpt>
      <trkpt lat="44.46835" lon="6.54369">
        <ele>1859</ele>
        <time>2021-02-21T10:05:09Z</time>
      </trkpt>
      <trkpt lat="44.46835" lon="6.54369">
        <ele>1859</ele>
        <time>2021-02-21T10:05:10Z</time>
      </trkpt>
      <trkpt lat="44.46835" lon="6.54369">
        <ele>1859</ele>
        <time>2021-02-21T10:05:11Z</time>
      </trkpt>
      <trkpt lat="44.46835" lon="6.54369">
        <ele>1859</ele>
        <time>2021-02-21T10:05:12Z</time>
      </trkpt>
      <trkpt lat="44.46829" lon="6.5437">
        <ele>1854</ele>
        <time>2021-02-21T10:05:13Z</time>
      </trkpt>
      <trkpt lat="44.46829" lon="6.54375">
        <ele>1852</ele>
        <time>2021-02-21T10:05:14Z</time>
      </trkpt>
      <trkpt lat="44.4683" lon="6.54381">
        <ele>1849</ele>
        <time>2021-02-21T10:05:15Z</time>
      </trkpt>
      <trkpt lat="44.46831" lon="6.54388">
        <ele>1847</ele>
        <time>2021-02-21T10:05:16Z</time>
      </trkpt>
      <trkpt lat="44.46833" lon="6.54396">
        <ele>1846</ele>
        <time>2021-02-21T10:05:17Z</time>
      </trkpt>
      <trkpt lat="44.46834" lon="6.54403">
        <ele>1845</ele>
        <time>2021-02-21T10:05:18Z</time>
      </trkpt>
      <trkpt lat="44.46834" lon="6.54406">
        <ele>1844</ele>
        <time>2021-02-21T10:05:19Z</time>
      </trkpt>
      <trkpt lat="44.46834" lon="6.54407">
        <ele>1844</ele>
        <time>2021-02-21T10:05:20Z</time>
      </trkpt>
      <trkpt lat="44.46834" lon="6.54409">
        <ele>1844</ele>
        <time>2021-02-21T10:05:21Z</time>
      </trkpt>
      <trkpt lat="44.46835" lon="6.5441">
        <ele>1843</ele>
        <time>2021-02-21T10:05:22Z</time>
      </trkpt>
      <trkpt lat="44.46835" lon="6.5441">
        <ele>1843</ele>
        <time>2021-02-21T10:05:23Z</time>
      </trkpt>
      <trkpt lat="44.46838" lon="6.54408">
        <ele>1843</ele>
        <time>2021-02-21T10:05:24Z</time>
      </trkpt>
      <trkpt lat="44.46839" lon="6.54408">
        <ele>1843</ele>
        <time>2021-02-21T10:05:25Z</time>
      </trkpt>
      <trkpt lat="44.46839" lon="6.54409">
        <ele>1842</ele>
        <time>2021-02-21T10:05:26Z</time>
      </trkpt>
      <trkpt lat="44.4684" lon="6.54409">
        <ele>1842</ele>
        <time>2021-02-21T10:05:27Z</time>
      </trkpt>
      <trkpt lat="44.4684" lon="6.54409">
        <ele>1842</ele>
        <time>2021-02-21T10:05:28Z</time>
      </trkpt>
      <trkpt lat="44.4684" lon="6.54409">
        <ele>1842</ele>
        <time>2021-02-21T10:05:29Z</time>
      </trkpt>
      <trkpt lat="44.4684" lon="6.54409">
        <ele>1842</ele>
        <time>2021-02-21T10:05:30Z</time>
      </trkpt>
      <trkpt lat="44.4684" lon="6.54409">
        <ele>1841</ele>
        <time>2021-02-21T10:05:31Z</time>
      </trkpt>
      <trkpt lat="44.4684" lon="6.54409">
        <ele>1841</ele>
        <time>2021-02-21T10:05:32Z</time>
      </trkpt>
      <trkpt lat="44.4684" lon="6.54409">
        <ele>1841</ele>
        <time>2021-02-21T10:05:33Z</time>
      </trkpt>
      <trkpt lat="44.4684" lon="6.54409">
        <ele>1841</ele>
        <time>2021-02-21T10:05:34Z</time>
      </trkpt>
      <trkpt lat="44.4684" lon="6.54409">
        <ele>1841</ele>
        <time>2021-02-21T10:05:35Z</time>
      </trkpt>
      <trkpt lat="44.4684" lon="6.54409">
        <ele>1841</ele>
        <time>2021-02-21T10:05:36Z</time>
      </trkpt>
      <trkpt lat="44.46845" lon="6.54414">
        <ele>1840</ele>
        <time>2021-02-21T10:05:37Z</time>
      </trkpt>
      <trkpt lat="44.46845" lon="6.54417">
        <ele>1839</ele>
        <time>2021-02-21T10:05:38Z</time>
      </trkpt>
      <trkpt lat="44.46847" lon="6.54422">
        <ele>1838</ele>
        <time>2021-02-21T10:05:39Z</time>
      </trkpt>
      <trkpt lat="44.46849" lon="6.54428">
        <ele>1838</ele>
        <time>2021-02-21T10:05:40Z</time>
      </trkpt>
      <trkpt lat="44.46849" lon="6.54434">
        <ele>1837</ele>
        <time>2021-02-21T10:05:41Z</time>
      </trkpt>
      <trkpt lat="44.46849" lon="6.54439">
        <ele>1837</ele>
        <time>2021-02-21T10:05:42Z</time>
      </trkpt>
      <trkpt lat="44.46848" lon="6.54445">
        <ele>1836</ele>
        <time>2021-02-21T10:05:43Z</time>
      </trkpt>
      <trkpt lat="44.46848" lon="6.5445">
        <ele>1835</ele>
        <time>2021-02-21T10:05:44Z</time>
      </trkpt>
      <trkpt lat="44.46847" lon="6.54453">
        <ele>1835</ele>
        <time>2021-02-21T10:05:45Z</time>
      </trkpt>
      <trkpt lat="44.46846" lon="6.54456">
        <ele>1834</ele>
        <time>2021-02-21T10:05:46Z</time>
      </trkpt>
      <trkpt lat="44.46844" lon="6.54458">
        <ele>1834</ele>
        <time>2021-02-21T10:05:47Z</time>
      </trkpt>
      <trkpt lat="44.46842" lon="6.54461">
        <ele>1832</ele>
        <time>2021-02-21T10:05:48Z</time>
      </trkpt>
      <trkpt lat="44.46842" lon="6.54465">
        <ele>1830</ele>
        <time>2021-02-21T10:05:49Z</time>
      </trkpt>
      <trkpt lat="44.46843" lon="6.54471">
        <ele>1829</ele>
        <time>2021-02-21T10:05:50Z</time>
      </trkpt>
      <trkpt lat="44.46849" lon="6.54475">
        <ele>1827</ele>
        <time>2021-02-21T10:05:51Z</time>
      </trkpt>
      <trkpt lat="44.46854" lon="6.54477">
        <ele>1825</ele>
        <time>2021-02-21T10:05:52Z</time>
      </trkpt>
      <trkpt lat="44.46859" lon="6.54478">
        <ele>1824</ele>
        <time>2021-02-21T10:05:53Z</time>
      </trkpt>
      <trkpt lat="44.46862" lon="6.54479">
        <ele>1823</ele>
        <time>2021-02-21T10:05:54Z</time>
      </trkpt>
      <trkpt lat="44.46864" lon="6.54482">
        <ele>1822</ele>
        <time>2021-02-21T10:05:55Z</time>
      </trkpt>
      <trkpt lat="44.46866" lon="6.54486">
        <ele>1821</ele>
        <time>2021-02-21T10:05:56Z</time>
      </trkpt>
      <trkpt lat="44.46866" lon="6.54491">
        <ele>1819</ele>
        <time>2021-02-21T10:05:57Z</time>
      </trkpt>
      <trkpt lat="44.46867" lon="6.54496">
        <ele>1817</ele>
        <time>2021-02-21T10:05:58Z</time>
      </trkpt>
      <trkpt lat="44.46868" lon="6.54504">
        <ele>1816</ele>
        <time>2021-02-21T10:05:59Z</time>
      </trkpt>
      <trkpt lat="44.46869" lon="6.5451">
        <ele>1814</ele>
        <time>2021-02-21T10:06:00Z</time>
      </trkpt>
      <trkpt lat="44.4687" lon="6.54517">
        <ele>1812</ele>
        <time>2021-02-21T10:06:01Z</time>
      </trkpt>
      <trkpt lat="44.46873" lon="6.54525">
        <ele>1810</ele>
        <time>2021-02-21T10:06:02Z</time>
      </trkpt>
      <trkpt lat="44.46875" lon="6.54533">
        <ele>1808</ele>
        <time>2021-02-21T10:06:03Z</time>
      </trkpt>
      <trkpt lat="44.46879" lon="6.54541">
        <ele>1807</ele>
        <time>2021-02-21T10:06:04Z</time>
      </trkpt>
      <trkpt lat="44.46883" lon="6.54547">
        <ele>1805</ele>
        <time>2021-02-21T10:06:05Z</time>
      </trkpt>
      <trkpt lat="44.46886" lon="6.54555">
        <ele>1803</ele>
        <time>2021-02-21T10:06:06Z</time>
      </trkpt>
      <trkpt lat="44.46889" lon="6.54563">
        <ele>1801</ele>
        <time>2021-02-21T10:06:07Z</time>
      </trkpt>
      <trkpt lat="44.46893" lon="6.54571">
        <ele>1801</ele>
        <time>2021-02-21T10:06:08Z</time>
      </trkpt>
      <trkpt lat="44.46896" lon="6.54577">
        <ele>1800</ele>
        <time>2021-02-21T10:06:09Z</time>
      </trkpt>
      <trkpt lat="44.46895" lon="6.54582">
        <ele>1800</ele>
        <time>2021-02-21T10:06:10Z</time>
      </trkpt>
      <trkpt lat="44.46893" lon="6.54584">
        <ele>1799</ele>
        <time>2021-02-21T10:06:11Z</time>
      </trkpt>
      <trkpt lat="44.4689" lon="6.54587">
        <ele>1798</ele>
        <time>2021-02-21T10:06:12Z</time>
      </trkpt>
      <trkpt lat="44.46887" lon="6.54589">
        <ele>1797</ele>
        <time>2021-02-21T10:06:13Z</time>
      </trkpt>
      <trkpt lat="44.46886" lon="6.5459">
        <ele>1796</ele>
        <time>2021-02-21T10:06:14Z</time>
      </trkpt>
      <trkpt lat="44.46884" lon="6.5459">
        <ele>1796</ele>
        <time>2021-02-21T10:06:15Z</time>
      </trkpt>
      <trkpt lat="44.46884" lon="6.5459">
        <ele>1796</ele>
        <time>2021-02-21T10:06:16Z</time>
      </trkpt>
      <trkpt lat="44.46883" lon="6.5459">
        <ele>1795</ele>
        <time>2021-02-21T10:06:17Z</time>
      </trkpt>
      <trkpt lat="44.46883" lon="6.5459">
        <ele>1795</ele>
        <time>2021-02-21T10:06:18Z</time>
      </trkpt>
      <trkpt lat="44.46883" lon="6.5459">
        <ele>1795</ele>
        <time>2021-02-21T10:06:19Z</time>
      </trkpt>
      <trkpt lat="44.46883" lon="6.5459">
        <ele>1794</ele>
        <time>2021-02-21T10:06:20Z</time>
      </trkpt>
      <trkpt lat="44.46881" lon="6.54589">
        <ele>1792</ele>
        <time>2021-02-21T10:06:21Z</time>
      </trkpt>
      <trkpt lat="44.4688" lon="6.54589">
        <ele>1792</ele>
        <time>2021-02-21T10:06:22Z</time>
      </trkpt>
      <trkpt lat="44.46878" lon="6.5459">
        <ele>1792</ele>
        <time>2021-02-21T10:06:23Z</time>
      </trkpt>
      <trkpt lat="44.46875" lon="6.54593">
        <ele>1791</ele>
        <time>2021-02-21T10:06:24Z</time>
      </trkpt>
      <trkpt lat="44.46874" lon="6.54597">
        <ele>1791</ele>
        <time>2021-02-21T10:06:25Z</time>
      </trkpt>
      <trkpt lat="44.46872" lon="6.54603">
        <ele>1791</ele>
        <time>2021-02-21T10:06:26Z</time>
      </trkpt>
      <trkpt lat="44.46872" lon="6.54609">
        <ele>1791</ele>
        <time>2021-02-21T10:06:27Z</time>
      </trkpt>
      <trkpt lat="44.46872" lon="6.54614">
        <ele>1791</ele>
        <time>2021-02-21T10:06:28Z</time>
      </trkpt>
      <trkpt lat="44.46875" lon="6.5462">
        <ele>1790</ele>
        <time>2021-02-21T10:06:29Z</time>
      </trkpt>
      <trkpt lat="44.46878" lon="6.54624">
        <ele>1789</ele>
        <time>2021-02-21T10:06:30Z</time>
      </trkpt>
      <trkpt lat="44.46882" lon="6.54629">
        <ele>1788</ele>
        <time>2021-02-21T10:06:31Z</time>
      </trkpt>
      <trkpt lat="44.46885" lon="6.54637">
        <ele>1787</ele>
        <time>2021-02-21T10:06:32Z</time>
      </trkpt>
      <trkpt lat="44.46888" lon="6.54647">
        <ele>1785</ele>
        <time>2021-02-21T10:06:33Z</time>
      </trkpt>
      <trkpt lat="44.46889" lon="6.54659">
        <ele>1784</ele>
        <time>2021-02-21T10:06:34Z</time>
      </trkpt>
      <trkpt lat="44.46891" lon="6.5467">
        <ele>1783</ele>
        <time>2021-02-21T10:06:35Z</time>
      </trkpt>
      <trkpt lat="44.46894" lon="6.54679">
        <ele>1782</ele>
        <time>2021-02-21T10:06:36Z</time>
      </trkpt>
      <trkpt lat="44.469" lon="6.54683">
        <ele>1780</ele>
        <time>2021-02-21T10:06:37Z</time>
      </trkpt>
      <trkpt lat="44.46906" lon="6.54687">
        <ele>1778</ele>
        <time>2021-02-21T10:06:38Z</time>
      </trkpt>
      <trkpt lat="44.46913" lon="6.54689">
        <ele>1776</ele>
        <time>2021-02-21T10:06:39Z</time>
      </trkpt>
      <trkpt lat="44.4692" lon="6.54691">
        <ele>1774</ele>
        <time>2021-02-21T10:06:40Z</time>
      </trkpt>
      <trkpt lat="44.46927" lon="6.54694">
        <ele>1772</ele>
        <time>2021-02-21T10:06:41Z</time>
      </trkpt>
      <trkpt lat="44.46934" lon="6.54697">
        <ele>1771</ele>
        <time>2021-02-21T10:06:42Z</time>
      </trkpt>
      <trkpt lat="44.4694" lon="6.54701">
        <ele>1769</ele>
        <time>2021-02-21T10:06:43Z</time>
      </trkpt>
      <trkpt lat="44.46944" lon="6.54709">
        <ele>1767</ele>
        <time>2021-02-21T10:06:44Z</time>
      </trkpt>
      <trkpt lat="44.4695" lon="6.54715">
        <ele>1766</ele>
        <time>2021-02-21T10:06:45Z</time>
      </trkpt>
      <trkpt lat="44.46956" lon="6.54721">
        <ele>1764</ele>
        <time>2021-02-21T10:06:46Z</time>
      </trkpt>
      <trkpt lat="44.46962" lon="6.54727">
        <ele>1763</ele>
        <time>2021-02-21T10:06:47Z</time>
      </trkpt>
      <trkpt lat="44.46965" lon="6.54737">
        <ele>1761</ele>
        <time>2021-02-21T10:06:48Z</time>
      </trkpt>
      <trkpt lat="44.46964" lon="6.54748">
        <ele>1760</ele>
        <time>2021-02-21T10:06:49Z</time>
      </trkpt>
      <trkpt lat="44.46964" lon="6.5476">
        <ele>1759</ele>
        <time>2021-02-21T10:06:50Z</time>
      </trkpt>
      <trkpt lat="44.46966" lon="6.5477">
        <ele>1758</ele>
        <time>2021-02-21T10:06:51Z</time>
      </trkpt>
      <trkpt lat="44.46971" lon="6.5478">
        <ele>1757</ele>
        <time>2021-02-21T10:06:52Z</time>
      </trkpt>
      <trkpt lat="44.46975" lon="6.5479">
        <ele>1755</ele>
        <time>2021-02-21T10:06:53Z</time>
      </trkpt>
      <trkpt lat="44.46978" lon="6.54801">
        <ele>1754</ele>
        <time>2021-02-21T10:06:54Z</time>
      </trkpt>
      <trkpt lat="44.46982" lon="6.54806">
        <ele>1753</ele>
        <time>2021-02-21T10:06:55Z</time>
      </trkpt>
      <trkpt lat="44.46984" lon="6.54806">
        <ele>1752</ele>
        <time>2021-02-21T10:06:56Z</time>
      </trkpt>
      <trkpt lat="44.46985" lon="6.54806">
        <ele>1752</ele>
        <time>2021-02-21T10:06:57Z</time>
      </trkpt>
      <trkpt lat="44.46984" lon="6.54806">
        <ele>1751</ele>
        <time>2021-02-21T10:06:58Z</time>
      </trkpt>
      <trkpt lat="44.46985" lon="6.54806">
        <ele>1751</ele>
        <time>2021-02-21T10:06:59Z</time>
      </trkpt>
      <trkpt lat="44.46985" lon="6.54806">
        <ele>1751</ele>
        <time>2021-02-21T10:07:00Z</time>
      </trkpt>
      <trkpt lat="44.46985" lon="6.54806">
        <ele>1751</ele>
        <time>2021-02-21T10:07:01Z</time>
      </trkpt>
      <trkpt lat="44.46985" lon="6.54806">
        <ele>1751</ele>
        <time>2021-02-21T10:07:02Z</time>
      </trkpt>
      <trkpt lat="44.46985" lon="6.54806">
        <ele>1751</ele>
        <time>2021-02-21T10:07:03Z</time>
      </trkpt>
      <trkpt lat="44.46985" lon="6.54806">
        <ele>1751</ele>
        <time>2021-02-21T10:07:04Z</time>
      </trkpt>
      <trkpt lat="44.46985" lon="6.54806">
        <ele>1751</ele>
        <time>2021-02-21T10:07:05Z</time>
      </trkpt>
      <trkpt lat="44.46985" lon="6.54806">
        <ele>1751</ele>
        <time>2021-02-21T10:07:06Z</time>
      </trkpt>
      <trkpt lat="44.46985" lon="6.54806">
        <ele>1751</ele>
        <time>2021-02-21T10:07:07Z</time>
      </trkpt>
      <trkpt lat="44.46985" lon="6.54806">
        <ele>1751</ele>
        <time>2021-02-21T10:07:08Z</time>
      </trkpt>
      <trkpt lat="44.46985" lon="6.54806">
        <ele>1751</ele>
        <time>2021-02-21T10:07:09Z</time>
      </trkpt>
      <trkpt lat="44.46985" lon="6.54806">
        <ele>1751</ele>
        <time>2021-02-21T10:07:10Z</time>
      </trkpt>
      <trkpt lat="44.46985" lon="6.54806">
        <ele>1751</ele>
        <time>2021-02-21T10:07:11Z</time>
      </trkpt>
      <trkpt lat="44.46985" lon="6.54806">
        <ele>1751</ele>
        <time>2021-02-21T10:07:12Z</time>
      </trkpt>
      <trkpt lat="44.46985" lon="6.54806">
        <ele>1751</ele>
        <time>2021-02-21T10:07:13Z</time>
      </trkpt>
      <trkpt lat="44.46985" lon="6.54806">
        <ele>1751</ele>
        <time>2021-02-21T10:07:14Z</time>
      </trkpt>
      <trkpt lat="44.46985" lon="6.54806">
        <ele>1751</ele>
        <time>2021-02-21T10:07:15Z</time>
      </trkpt>
      <trkpt lat="44.46985" lon="6.54806">
        <ele>1751</ele>
        <time>2021-02-21T10:07:16Z</time>
      </trkpt>
      <trkpt lat="44.46985" lon="6.54806">
        <ele>1751</ele>
        <time>2021-02-21T10:07:17Z</time>
      </trkpt>
      <trkpt lat="44.46985" lon="6.54806">
        <ele>1751</ele>
        <time>2021-02-21T10:07:18Z</time>
      </trkpt>
      <trkpt lat="44.46985" lon="6.54806">
        <ele>1751</ele>
        <time>2021-02-21T10:07:19Z</time>
      </trkpt>
      <trkpt lat="44.46985" lon="6.54806">
        <ele>1751</ele>
        <time>2021-02-21T10:07:20Z</time>
      </trkpt>
      <trkpt lat="44.46985" lon="6.54806">
        <ele>1751</ele>
        <time>2021-02-21T10:07:21Z</time>
      </trkpt>
      <trkpt lat="44.46985" lon="6.54806">
        <ele>1751</ele>
        <time>2021-02-21T10:07:22Z</time>
      </trkpt>
      <trkpt lat="44.46985" lon="6.54806">
        <ele>1751</ele>
        <time>2021-02-21T10:07:23Z</time>
      </trkpt>
      <trkpt lat="44.46985" lon="6.54806">
        <ele>1751</ele>
        <time>2021-02-21T10:07:24Z</time>
      </trkpt>
      <trkpt lat="44.46985" lon="6.54806">
        <ele>1751</ele>
        <time>2021-02-21T10:07:25Z</time>
      </trkpt>
      <trkpt lat="44.46985" lon="6.54806">
        <ele>1751</ele>
        <time>2021-02-21T10:07:26Z</time>
      </trkpt>
      <trkpt lat="44.46985" lon="6.54806">
        <ele>1751</ele>
        <time>2021-02-21T10:07:27Z</time>
      </trkpt>
      <trkpt lat="44.46985" lon="6.54806">
        <ele>1751</ele>
        <time>2021-02-21T10:07:28Z</time>
      </trkpt>
      <trkpt lat="44.46985" lon="6.54806">
        <ele>1751</ele>
        <time>2021-02-21T10:07:29Z</time>
      </trkpt>
      <trkpt lat="44.46985" lon="6.54806">
        <ele>1751</ele>
        <time>2021-02-21T10:07:30Z</time>
      </trkpt>
      <trkpt lat="44.46985" lon="6.54806">
        <ele>1751</ele>
        <time>2021-02-21T10:07:31Z</time>
      </trkpt>
      <trkpt lat="44.46985" lon="6.54806">
        <ele>1751</ele>
        <time>2021-02-21T10:07:32Z</time>
      </trkpt>
      <trkpt lat="44.46985" lon="6.54806">
        <ele>1751</ele>
        <time>2021-02-21T10:07:33Z</time>
      </trkpt>
      <trkpt lat="44.46985" lon="6.54806">
        <ele>1751</ele>
        <time>2021-02-21T10:07:34Z</time>
      </trkpt>
      <trkpt lat="44.46985" lon="6.54806">
        <ele>1751</ele>
        <time>2021-02-21T10:07:35Z</time>
      </trkpt>
      <trkpt lat="44.46985" lon="6.54806">
        <ele>1751</ele>
        <time>2021-02-21T10:07:36Z</time>
      </trkpt>
      <trkpt lat="44.46985" lon="6.54806">
        <ele>1751</ele>
        <time>2021-02-21T10:07:37Z</time>
      </trkpt>
      <trkpt lat="44.46985" lon="6.54806">
        <ele>1751</ele>
        <time>2021-02-21T10:07:38Z</time>
      </trkpt>
      <trkpt lat="44.46985" lon="6.54806">
        <ele>1751</ele>
        <time>2021-02-21T10:07:39Z</time>
      </trkpt>
      <trkpt lat="44.46985" lon="6.54806">
        <ele>1751</ele>
        <time>2021-02-21T10:07:40Z</time>
      </trkpt>
      <trkpt lat="44.46985" lon="6.54806">
        <ele>1751</ele>
        <time>2021-02-21T10:07:41Z</time>
      </trkpt>
      <trkpt lat="44.46985" lon="6.54806">
        <ele>1751</ele>
        <time>2021-02-21T10:07:42Z</time>
      </trkpt>
      <trkpt lat="44.46985" lon="6.54806">
        <ele>1751</ele>
        <time>2021-02-21T10:07:43Z</time>
      </trkpt>
      <trkpt lat="44.46985" lon="6.54806">
        <ele>1751</ele>
        <time>2021-02-21T10:07:44Z</time>
      </trkpt>
      <trkpt lat="44.46985" lon="6.54806">
        <ele>1751</ele>
        <time>2021-02-21T10:07:45Z</time>
      </trkpt>
      <trkpt lat="44.46985" lon="6.54806">
        <ele>1751</ele>
        <time>2021-02-21T10:07:46Z</time>
      </trkpt>
      <trkpt lat="44.46987" lon="6.54801">
        <ele>1750</ele>
        <time>2021-02-21T10:07:47Z</time>
      </trkpt>
      <trkpt lat="44.46989" lon="6.54805">
        <ele>1749</ele>
        <time>2021-02-21T10:07:48Z</time>
      </trkpt>
      <trkpt lat="44.46991" lon="6.5481">
        <ele>1749</ele>
        <time>2021-02-21T10:07:49Z</time>
      </trkpt>
      <trkpt lat="44.46994" lon="6.54815">
        <ele>1748</ele>
        <time>2021-02-21T10:07:50Z</time>
      </trkpt>
      <trkpt lat="44.46998" lon="6.5482">
        <ele>1746</ele>
        <time>2021-02-21T10:07:51Z</time>
      </trkpt>
      <trkpt lat="44.47003" lon="6.54823">
        <ele>1745</ele>
        <time>2021-02-21T10:07:52Z</time>
      </trkpt>
      <trkpt lat="44.47008" lon="6.54824">
        <ele>1744</ele>
        <time>2021-02-21T10:07:53Z</time>
      </trkpt>
      <trkpt lat="44.47012" lon="6.54822">
        <ele>1744</ele>
        <time>2021-02-21T10:07:54Z</time>
      </trkpt>
      <trkpt lat="44.47016" lon="6.54819">
        <ele>1744</ele>
        <time>2021-02-21T10:07:55Z</time>
      </trkpt>
      <trkpt lat="44.47019" lon="6.54817">
        <ele>1743</ele>
        <time>2021-02-21T10:07:56Z</time>
      </trkpt>
      <trkpt lat="44.47023" lon="6.54815">
        <ele>1741</ele>
        <time>2021-02-21T10:07:57Z</time>
      </trkpt>
      <trkpt lat="44.47028" lon="6.54818">
        <ele>1739</ele>
        <time>2021-02-21T10:07:58Z</time>
      </trkpt>
      <trkpt lat="44.47031" lon="6.54824">
        <ele>1737</ele>
        <time>2021-02-21T10:07:59Z</time>
      </trkpt>
      <trkpt lat="44.47032" lon="6.5483">
        <ele>1735</ele>
        <time>2021-02-21T10:08:00Z</time>
      </trkpt>
      <trkpt lat="44.4703" lon="6.54836">
        <ele>1734</ele>
        <time>2021-02-21T10:08:01Z</time>
      </trkpt>
      <trkpt lat="44.47028" lon="6.54839">
        <ele>1733</ele>
        <time>2021-02-21T10:08:02Z</time>
      </trkpt>
      <trkpt lat="44.47026" lon="6.54842">
        <ele>1732</ele>
        <time>2021-02-21T10:08:03Z</time>
      </trkpt>
      <trkpt lat="44.47026" lon="6.54844">
        <ele>1731</ele>
        <time>2021-02-21T10:08:04Z</time>
      </trkpt>
      <trkpt lat="44.47026" lon="6.54847">
        <ele>1731</ele>
        <time>2021-02-21T10:08:05Z</time>
      </trkpt>
      <trkpt lat="44.47027" lon="6.5485">
        <ele>1730</ele>
        <time>2021-02-21T10:08:06Z</time>
      </trkpt>
      <trkpt lat="44.47029" lon="6.54853">
        <ele>1729</ele>
        <time>2021-02-21T10:08:07Z</time>
      </trkpt>
      <trkpt lat="44.47032" lon="6.54856">
        <ele>1728</ele>
        <time>2021-02-21T10:08:08Z</time>
      </trkpt>
      <trkpt lat="44.47035" lon="6.54859">
        <ele>1728</ele>
        <time>2021-02-21T10:08:09Z</time>
      </trkpt>
      <trkpt lat="44.47041" lon="6.5486">
        <ele>1728</ele>
        <time>2021-02-21T10:08:10Z</time>
      </trkpt>
      <trkpt lat="44.47048" lon="6.54859">
        <ele>1727</ele>
        <time>2021-02-21T10:08:11Z</time>
      </trkpt>
      <trkpt lat="44.47055" lon="6.54857">
        <ele>1727</ele>
        <time>2021-02-21T10:08:12Z</time>
      </trkpt>
      <trkpt lat="44.47061" lon="6.54853">
        <ele>1726</ele>
        <time>2021-02-21T10:08:13Z</time>
      </trkpt>
      <trkpt lat="44.47068" lon="6.54849">
        <ele>1725</ele>
        <time>2021-02-21T10:08:14Z</time>
      </trkpt>
      <trkpt lat="44.47074" lon="6.54844">
        <ele>1725</ele>
        <time>2021-02-21T10:08:15Z</time>
      </trkpt>
      <trkpt lat="44.47079" lon="6.54837">
        <ele>1723</ele>
        <time>2021-02-21T10:08:16Z</time>
      </trkpt>
      <trkpt lat="44.47085" lon="6.5483">
        <ele>1722</ele>
        <time>2021-02-21T10:08:17Z</time>
      </trkpt>
      <trkpt lat="44.47092" lon="6.54824">
        <ele>1721</ele>
        <time>2021-02-21T10:08:18Z</time>
      </trkpt>
      <trkpt lat="44.47099" lon="6.54819">
        <ele>1720</ele>
        <time>2021-02-21T10:08:19Z</time>
      </trkpt>
      <trkpt lat="44.47105" lon="6.54813">
        <ele>1719</ele>
        <time>2021-02-21T10:08:20Z</time>
      </trkpt>
      <trkpt lat="44.47112" lon="6.54809">
        <ele>1719</ele>
        <time>2021-02-21T10:08:21Z</time>
      </trkpt>
      <trkpt lat="44.47119" lon="6.54807">
        <ele>1718</ele>
        <time>2021-02-21T10:08:22Z</time>
      </trkpt>
      <trkpt lat="44.47126" lon="6.54804">
        <ele>1717</ele>
        <time>2021-02-21T10:08:23Z</time>
      </trkpt>
      <trkpt lat="44.47133" lon="6.54801">
        <ele>1717</ele>
        <time>2021-02-21T10:08:24Z</time>
      </trkpt>
      <trkpt lat="44.4714" lon="6.54798">
        <ele>1716</ele>
        <time>2021-02-21T10:08:25Z</time>
      </trkpt>
      <trkpt lat="44.47147" lon="6.54796">
        <ele>1715</ele>
        <time>2021-02-21T10:08:26Z</time>
      </trkpt>
      <trkpt lat="44.47154" lon="6.54792">
        <ele>1714</ele>
        <time>2021-02-21T10:08:27Z</time>
      </trkpt>
      <trkpt lat="44.47161" lon="6.54787">
        <ele>1713</ele>
        <time>2021-02-21T10:08:28Z</time>
      </trkpt>
      <trkpt lat="44.47168" lon="6.54785">
        <ele>1712</ele>
        <time>2021-02-21T10:08:29Z</time>
      </trkpt>
      <trkpt lat="44.47175" lon="6.54781">
        <ele>1711</ele>
        <time>2021-02-21T10:08:30Z</time>
      </trkpt>
      <trkpt lat="44.47182" lon="6.54781">
        <ele>1710</ele>
        <time>2021-02-21T10:08:31Z</time>
      </trkpt>
      <trkpt lat="44.47189" lon="6.54781">
        <ele>1709</ele>
        <time>2021-02-21T10:08:32Z</time>
      </trkpt>
      <trkpt lat="44.47196" lon="6.54779">
        <ele>1708</ele>
        <time>2021-02-21T10:08:33Z</time>
      </trkpt>
      <trkpt lat="44.47203" lon="6.54779">
        <ele>1707</ele>
        <time>2021-02-21T10:08:34Z</time>
      </trkpt>
      <trkpt lat="44.47212" lon="6.5478">
        <ele>1706</ele>
        <time>2021-02-21T10:08:35Z</time>
      </trkpt>
      <trkpt lat="44.4722" lon="6.54779">
        <ele>1705</ele>
        <time>2021-02-21T10:08:36Z</time>
      </trkpt>
      <trkpt lat="44.47229" lon="6.54779">
        <ele>1704</ele>
        <time>2021-02-21T10:08:37Z</time>
      </trkpt>
      <trkpt lat="44.47237" lon="6.54779">
        <ele>1703</ele>
        <time>2021-02-21T10:08:38Z</time>
      </trkpt>
      <trkpt lat="44.47245" lon="6.54774">
        <ele>1702</ele>
        <time>2021-02-21T10:08:39Z</time>
      </trkpt>
      <trkpt lat="44.47253" lon="6.54771">
        <ele>1700</ele>
        <time>2021-02-21T10:08:40Z</time>
      </trkpt>
      <trkpt lat="44.4726" lon="6.54764">
        <ele>1699</ele>
        <time>2021-02-21T10:08:41Z</time>
      </trkpt>
      <trkpt lat="44.47268" lon="6.54758">
        <ele>1698</ele>
        <time>2021-02-21T10:08:42Z</time>
      </trkpt>
      <trkpt lat="44.47276" lon="6.54753">
        <ele>1697</ele>
        <time>2021-02-21T10:08:43Z</time>
      </trkpt>
      <trkpt lat="44.47285" lon="6.54747">
        <ele>1695</ele>
        <time>2021-02-21T10:08:44Z</time>
      </trkpt>
      <trkpt lat="44.47294" lon="6.54746">
        <ele>1693</ele>
        <time>2021-02-21T10:08:45Z</time>
      </trkpt>
      <trkpt lat="44.47304" lon="6.5475">
        <ele>1690</ele>
        <time>2021-02-21T10:08:46Z</time>
      </trkpt>
      <trkpt lat="44.47313" lon="6.54759">
        <ele>1687</ele>
        <time>2021-02-21T10:08:47Z</time>
      </trkpt>
      <trkpt lat="44.47323" lon="6.54769">
        <ele>1685</ele>
        <time>2021-02-21T10:08:48Z</time>
      </trkpt>
      <trkpt lat="44.47331" lon="6.54779">
        <ele>1683</ele>
        <time>2021-02-21T10:08:49Z</time>
      </trkpt>
      <trkpt lat="44.4734" lon="6.54788">
        <ele>1682</ele>
        <time>2021-02-21T10:08:50Z</time>
      </trkpt>
      <trkpt lat="44.47349" lon="6.54797">
        <ele>1680</ele>
        <time>2021-02-21T10:08:51Z</time>
      </trkpt>
      <trkpt lat="44.47358" lon="6.54802">
        <ele>1679</ele>
        <time>2021-02-21T10:08:52Z</time>
      </trkpt>
      <trkpt lat="44.47367" lon="6.54804">
        <ele>1677</ele>
        <time>2021-02-21T10:08:53Z</time>
      </trkpt>
      <trkpt lat="44.47375" lon="6.54806">
        <ele>1676</ele>
        <time>2021-02-21T10:08:54Z</time>
      </trkpt>
      <trkpt lat="44.47382" lon="6.54807">
        <ele>1674</ele>
        <time>2021-02-21T10:08:55Z</time>
      </trkpt>
      <trkpt lat="44.4739" lon="6.54807">
        <ele>1673</ele>
        <time>2021-02-21T10:08:56Z</time>
      </trkpt>
      <trkpt lat="44.47398" lon="6.54807">
        <ele>1672</ele>
        <time>2021-02-21T10:08:57Z</time>
      </trkpt>
      <trkpt lat="44.47405" lon="6.54806">
        <ele>1671</ele>
        <time>2021-02-21T10:08:58Z</time>
      </trkpt>
      <trkpt lat="44.4741" lon="6.54806">
        <ele>1671</ele>
        <time>2021-02-21T10:08:59Z</time>
      </trkpt>
      <trkpt lat="44.47416" lon="6.54806">
        <ele>1670</ele>
        <time>2021-02-21T10:09:00Z</time>
      </trkpt>
      <trkpt lat="44.47423" lon="6.54806">
        <ele>1669</ele>
        <time>2021-02-21T10:09:01Z</time>
      </trkpt>
      <trkpt lat="44.47428" lon="6.54806">
        <ele>1669</ele>
        <time>2021-02-21T10:09:02Z</time>
      </trkpt>
      <trkpt lat="44.47433" lon="6.54807">
        <ele>1669</ele>
        <time>2021-02-21T10:09:03Z</time>
      </trkpt>
      <trkpt lat="44.47437" lon="6.54809">
        <ele>1668</ele>
        <time>2021-02-21T10:09:04Z</time>
      </trkpt>
      <trkpt lat="44.47442" lon="6.54813">
        <ele>1667</ele>
        <time>2021-02-21T10:09:05Z</time>
      </trkpt>
      <trkpt lat="44.47446" lon="6.54818">
        <ele>1666</ele>
        <time>2021-02-21T10:09:06Z</time>
      </trkpt>
      <trkpt lat="44.4745" lon="6.54823">
        <ele>1665</ele>
        <time>2021-02-21T10:09:07Z</time>
      </trkpt>
      <trkpt lat="44.47453" lon="6.54827">
        <ele>1663</ele>
        <time>2021-02-21T10:09:08Z</time>
      </trkpt>
      <trkpt lat="44.47457" lon="6.54832">
        <ele>1661</ele>
        <time>2021-02-21T10:09:09Z</time>
      </trkpt>
      <trkpt lat="44.4746" lon="6.54835">
        <ele>1660</ele>
        <time>2021-02-21T10:09:10Z</time>
      </trkpt>
      <trkpt lat="44.47465" lon="6.54837">
        <ele>1659</ele>
        <time>2021-02-21T10:09:11Z</time>
      </trkpt>
      <trkpt lat="44.47469" lon="6.54837">
        <ele>1657</ele>
        <time>2021-02-21T10:09:12Z</time>
      </trkpt>
      <trkpt lat="44.47474" lon="6.54837">
        <ele>1656</ele>
        <time>2021-02-21T10:09:13Z</time>
      </trkpt>
      <trkpt lat="44.47479" lon="6.54837">
        <ele>1656</ele>
        <time>2021-02-21T10:09:14Z</time>
      </trkpt>
      <trkpt lat="44.47484" lon="6.54838">
        <ele>1656</ele>
        <time>2021-02-21T10:09:15Z</time>
      </trkpt>
      <trkpt lat="44.47488" lon="6.54839">
        <ele>1656</ele>
        <time>2021-02-21T10:09:16Z</time>
      </trkpt>
      <trkpt lat="44.47493" lon="6.54839">
        <ele>1656</ele>
        <time>2021-02-21T10:09:17Z</time>
      </trkpt>
      <trkpt lat="44.47498" lon="6.54838">
        <ele>1656</ele>
        <time>2021-02-21T10:09:18Z</time>
      </trkpt>
      <trkpt lat="44.47502" lon="6.54838">
        <ele>1657</ele>
        <time>2021-02-21T10:09:19Z</time>
      </trkpt>
      <trkpt lat="44.47507" lon="6.54838">
        <ele>1657</ele>
        <time>2021-02-21T10:09:20Z</time>
      </trkpt>
      <trkpt lat="44.47511" lon="6.54838">
        <ele>1658</ele>
        <time>2021-02-21T10:09:21Z</time>
      </trkpt>
      <trkpt lat="44.47515" lon="6.54838">
        <ele>1658</ele>
        <time>2021-02-21T10:09:22Z</time>
      </trkpt>
      <trkpt lat="44.47519" lon="6.54839">
        <ele>1658</ele>
        <time>2021-02-21T10:09:23Z</time>
      </trkpt>
      <trkpt lat="44.47523" lon="6.5484">
        <ele>1658</ele>
        <time>2021-02-21T10:09:24Z</time>
      </trkpt>
      <trkpt lat="44.47527" lon="6.54841">
        <ele>1658</ele>
        <time>2021-02-21T10:09:25Z</time>
      </trkpt>
      <trkpt lat="44.47531" lon="6.54841">
        <ele>1659</ele>
        <time>2021-02-21T10:09:26Z</time>
      </trkpt>
      <trkpt lat="44.47535" lon="6.54841">
        <ele>1659</ele>
        <time>2021-02-21T10:09:27Z</time>
      </trkpt>
      <trkpt lat="44.47539" lon="6.54842">
        <ele>1660</ele>
        <time>2021-02-21T10:09:28Z</time>
      </trkpt>
      <trkpt lat="44.47543" lon="6.54843">
        <ele>1661</ele>
        <time>2021-02-21T10:09:29Z</time>
      </trkpt>
      <trkpt lat="44.47546" lon="6.54845">
        <ele>1661</ele>
        <time>2021-02-21T10:09:30Z</time>
      </trkpt>
      <trkpt lat="44.4755" lon="6.54846">
        <ele>1662</ele>
        <time>2021-02-21T10:09:31Z</time>
      </trkpt>
      <trkpt lat="44.47553" lon="6.54848">
        <ele>1662</ele>
        <time>2021-02-21T10:09:32Z</time>
      </trkpt>
      <trkpt lat="44.47556" lon="6.5485">
        <ele>1662</ele>
        <time>2021-02-21T10:09:33Z</time>
      </trkpt>
      <trkpt lat="44.47559" lon="6.54851">
        <ele>1662</ele>
        <time>2021-02-21T10:09:34Z</time>
      </trkpt>
      <trkpt lat="44.47562" lon="6.54852">
        <ele>1662</ele>
        <time>2021-02-21T10:09:35Z</time>
      </trkpt>
      <trkpt lat="44.47566" lon="6.54854">
        <ele>1662</ele>
        <time>2021-02-21T10:09:36Z</time>
      </trkpt>
      <trkpt lat="44.47569" lon="6.54855">
        <ele>1662</ele>
        <time>2021-02-21T10:09:37Z</time>
      </trkpt>
      <trkpt lat="44.47572" lon="6.54857">
        <ele>1662</ele>
        <time>2021-02-21T10:09:38Z</time>
      </trkpt>
      <trkpt lat="44.47575" lon="6.54858">
        <ele>1663</ele>
        <time>2021-02-21T10:09:39Z</time>
      </trkpt>
      <trkpt lat="44.47578" lon="6.5486">
        <ele>1663</ele>
        <time>2021-02-21T10:09:40Z</time>
      </trkpt>
      <trkpt lat="44.47581" lon="6.54861">
        <ele>1663</ele>
        <time>2021-02-21T10:09:41Z</time>
      </trkpt>
      <trkpt lat="44.47583" lon="6.54862">
        <ele>1663</ele>
        <time>2021-02-21T10:09:42Z</time>
      </trkpt>
      <trkpt lat="44.47586" lon="6.54863">
        <ele>1663</ele>
        <time>2021-02-21T10:09:43Z</time>
      </trkpt>
      <trkpt lat="44.4759" lon="6.54864">
        <ele>1664</ele>
        <time>2021-02-21T10:09:44Z</time>
      </trkpt>
      <trkpt lat="44.47593" lon="6.54865">
        <ele>1664</ele>
        <time>2021-02-21T10:09:45Z</time>
      </trkpt>
      <trkpt lat="44.47596" lon="6.54867">
        <ele>1665</ele>
        <time>2021-02-21T10:09:46Z</time>
      </trkpt>
      <trkpt lat="44.47599" lon="6.54869">
        <ele>1665</ele>
        <time>2021-02-21T10:09:47Z</time>
      </trkpt>
      <trkpt lat="44.47602" lon="6.5487">
        <ele>1666</ele>
        <time>2021-02-21T10:09:48Z</time>
      </trkpt>
      <trkpt lat="44.47605" lon="6.54873">
        <ele>1666</ele>
        <time>2021-02-21T10:09:49Z</time>
      </trkpt>
      <trkpt lat="44.47607" lon="6.54875">
        <ele>1667</ele>
        <time>2021-02-21T10:09:50Z</time>
      </trkpt>
      <trkpt lat="44.4761" lon="6.54877">
        <ele>1668</ele>
        <time>2021-02-21T10:09:51Z</time>
      </trkpt>
      <trkpt lat="44.47613" lon="6.54879">
        <ele>1668</ele>
        <time>2021-02-21T10:09:52Z</time>
      </trkpt>
      <trkpt lat="44.47616" lon="6.54881">
        <ele>1668</ele>
        <time>2021-02-21T10:09:53Z</time>
      </trkpt>
      <trkpt lat="44.47619" lon="6.54883">
        <ele>1668</ele>
        <time>2021-02-21T10:09:54Z</time>
      </trkpt>
      <trkpt lat="44.47623" lon="6.54887">
        <ele>1667</ele>
        <time>2021-02-21T10:09:55Z</time>
      </trkpt>
      <trkpt lat="44.47627" lon="6.5489">
        <ele>1667</ele>
        <time>2021-02-21T10:09:56Z</time>
      </trkpt>
      <trkpt lat="44.47632" lon="6.54893">
        <ele>1666</ele>
        <time>2021-02-21T10:09:57Z</time>
      </trkpt>
      <trkpt lat="44.47635" lon="6.54896">
        <ele>1666</ele>
        <time>2021-02-21T10:09:58Z</time>
      </trkpt>
      <trkpt lat="44.4764" lon="6.54898">
        <ele>1666</ele>
        <time>2021-02-21T10:09:59Z</time>
      </trkpt>
      <trkpt lat="44.47644" lon="6.54899">
        <ele>1667</ele>
        <time>2021-02-21T10:10:00Z</time>
      </trkpt>
      <trkpt lat="44.47649" lon="6.549">
        <ele>1668</ele>
        <time>2021-02-21T10:10:01Z</time>
      </trkpt>
      <trkpt lat="44.47653" lon="6.54902">
        <ele>1669</ele>
        <time>2021-02-21T10:10:02Z</time>
      </trkpt>
      <trkpt lat="44.47656" lon="6.54903">
        <ele>1669</ele>
        <time>2021-02-21T10:10:03Z</time>
      </trkpt>
      <trkpt lat="44.4766" lon="6.54904">
        <ele>1669</ele>
        <time>2021-02-21T10:10:04Z</time>
      </trkpt>
      <trkpt lat="44.47664" lon="6.54905">
        <ele>1669</ele>
        <time>2021-02-21T10:10:05Z</time>
      </trkpt>
      <trkpt lat="44.47667" lon="6.54906">
        <ele>1668</ele>
        <time>2021-02-21T10:10:06Z</time>
      </trkpt>
      <trkpt lat="44.47672" lon="6.54906">
        <ele>1668</ele>
        <time>2021-02-21T10:10:07Z</time>
      </trkpt>
      <trkpt lat="44.47676" lon="6.54907">
        <ele>1668</ele>
        <time>2021-02-21T10:10:08Z</time>
      </trkpt>
      <trkpt lat="44.4768" lon="6.54907">
        <ele>1668</ele>
        <time>2021-02-21T10:10:09Z</time>
      </trkpt>
      <trkpt lat="44.47684" lon="6.54908">
        <ele>1668</ele>
        <time>2021-02-21T10:10:10Z</time>
      </trkpt>
      <trkpt lat="44.47687" lon="6.54908">
        <ele>1668</ele>
        <time>2021-02-21T10:10:11Z</time>
      </trkpt>
      <trkpt lat="44.4769" lon="6.54909">
        <ele>1667</ele>
        <time>2021-02-21T10:10:12Z</time>
      </trkpt>
      <trkpt lat="44.47694" lon="6.54909">
        <ele>1668</ele>
        <time>2021-02-21T10:10:13Z</time>
      </trkpt>
      <trkpt lat="44.47697" lon="6.54909">
        <ele>1668</ele>
        <time>2021-02-21T10:10:14Z</time>
      </trkpt>
      <trkpt lat="44.477" lon="6.54908">
        <ele>1668</ele>
        <time>2021-02-21T10:10:15Z</time>
      </trkpt>
      <trkpt lat="44.47704" lon="6.54909">
        <ele>1668</ele>
        <time>2021-02-21T10:10:16Z</time>
      </trkpt>
      <trkpt lat="44.47706" lon="6.5491">
        <ele>1668</ele>
        <time>2021-02-21T10:10:17Z</time>
      </trkpt>
      <trkpt lat="44.47709" lon="6.5491">
        <ele>1669</ele>
        <time>2021-02-21T10:10:18Z</time>
      </trkpt>
      <trkpt lat="44.47712" lon="6.54911">
        <ele>1669</ele>
        <time>2021-02-21T10:10:19Z</time>
      </trkpt>
      <trkpt lat="44.47714" lon="6.54911">
        <ele>1670</ele>
        <time>2021-02-21T10:10:20Z</time>
      </trkpt>
      <trkpt lat="44.47715" lon="6.54912">
        <ele>1669</ele>
        <time>2021-02-21T10:10:21Z</time>
      </trkpt>
      <trkpt lat="44.47717" lon="6.54913">
        <ele>1669</ele>
        <time>2021-02-21T10:10:22Z</time>
      </trkpt>
      <trkpt lat="44.47717" lon="6.54915">
        <ele>1669</ele>
        <time>2021-02-21T10:10:23Z</time>
      </trkpt>
      <trkpt lat="44.47718" lon="6.54915">
        <ele>1668</ele>
        <time>2021-02-21T10:10:24Z</time>
      </trkpt>
      <trkpt lat="44.47718" lon="6.54916">
        <ele>1668</ele>
        <time>2021-02-21T10:10:25Z</time>
      </trkpt>
      <trkpt lat="44.47718" lon="6.54916">
        <ele>1668</ele>
        <time>2021-02-21T10:10:26Z</time>
      </trkpt>
      <trkpt lat="44.47719" lon="6.54917">
        <ele>1668</ele>
        <time>2021-02-21T10:10:27Z</time>
      </trkpt>
      <trkpt lat="44.47719" lon="6.54917">
        <ele>1668</ele>
        <time>2021-02-21T10:10:28Z</time>
      </trkpt>
      <trkpt lat="44.47719" lon="6.54917">
        <ele>1668</ele>
        <time>2021-02-21T10:10:29Z</time>
      </trkpt>
      <trkpt lat="44.47719" lon="6.54917">
        <ele>1668</ele>
        <time>2021-02-21T10:10:30Z</time>
      </trkpt>
      <trkpt lat="44.47719" lon="6.54917">
        <ele>1668</ele>
        <time>2021-02-21T10:10:31Z</time>
      </trkpt>
      <trkpt lat="44.47719" lon="6.54917">
        <ele>1668</ele>
        <time>2021-02-21T10:10:32Z</time>
      </trkpt>
      <trkpt lat="44.47719" lon="6.54917">
        <ele>1668</ele>
        <time>2021-02-21T10:10:33Z</time>
      </trkpt>
      <trkpt lat="44.47719" lon="6.54917">
        <ele>1668</ele>
        <time>2021-02-21T10:10:34Z</time>
      </trkpt>
      <trkpt lat="44.47719" lon="6.54917">
        <ele>1668</ele>
        <time>2021-02-21T10:10:35Z</time>
      </trkpt>
      <trkpt lat="44.47719" lon="6.54917">
        <ele>1668</ele>
        <time>2021-02-21T10:10:36Z</time>
      </trkpt>
      <trkpt lat="44.47719" lon="6.54917">
        <ele>1668</ele>
        <time>2021-02-21T10:10:37Z</time>
      </trkpt>
      <trkpt lat="44.47719" lon="6.54917">
        <ele>1668</ele>
        <time>2021-02-21T10:10:38Z</time>
      </trkpt>
      <trkpt lat="44.47719" lon="6.54917">
        <ele>1668</ele>
        <time>2021-02-21T10:10:39Z</time>
      </trkpt>
      <trkpt lat="44.47719" lon="6.54917">
        <ele>1668</ele>
        <time>2021-02-21T10:10:40Z</time>
      </trkpt>
      <trkpt lat="44.47719" lon="6.54917">
        <ele>1668</ele>
        <time>2021-02-21T10:10:41Z</time>
      </trkpt>
      <trkpt lat="44.47719" lon="6.54917">
        <ele>1668</ele>
        <time>2021-02-21T10:10:42Z</time>
      </trkpt>
      <trkpt lat="44.47719" lon="6.54917">
        <ele>1668</ele>
        <time>2021-02-21T10:10:43Z</time>
      </trkpt>
      <trkpt lat="44.47719" lon="6.54917">
        <ele>1668</ele>
        <time>2021-02-21T10:10:44Z</time>
      </trkpt>
      <trkpt lat="44.47719" lon="6.54917">
        <ele>1668</ele>
        <time>2021-02-21T10:10:45Z</time>
      </trkpt>
      <trkpt lat="44.47719" lon="6.54917">
        <ele>1668</ele>
        <time>2021-02-21T10:10:46Z</time>
      </trkpt>
      <trkpt lat="44.47719" lon="6.54917">
        <ele>1668</ele>
        <time>2021-02-21T10:10:47Z</time>
      </trkpt>
      <trkpt lat="44.47719" lon="6.54917">
        <ele>1668</ele>
        <time>2021-02-21T10:10:48Z</time>
      </trkpt>
      <trkpt lat="44.47719" lon="6.54917">
        <ele>1668</ele>
        <time>2021-02-21T10:10:49Z</time>
      </trkpt>
      <trkpt lat="44.47719" lon="6.54917">
        <ele>1668</ele>
        <time>2021-02-21T10:10:50Z</time>
      </trkpt>
      <trkpt lat="44.47719" lon="6.54917">
        <ele>1668</ele>
        <time>2021-02-21T10:10:51Z</time>
      </trkpt>
      <trkpt lat="44.47719" lon="6.54917">
        <ele>1668</ele>
        <time>2021-02-21T10:10:52Z</time>
      </trkpt>
      <trkpt lat="44.47719" lon="6.54917">
        <ele>1668</ele>
        <time>2021-02-21T10:10:53Z</time>
      </trkpt>
      <trkpt lat="44.47719" lon="6.54917">
        <ele>1668</ele>
        <time>2021-02-21T10:10:54Z</time>
      </trkpt>
      <trkpt lat="44.47719" lon="6.54917">
        <ele>1668</ele>
        <time>2021-02-21T10:10:55Z</time>
      </trkpt>
      <trkpt lat="44.47719" lon="6.54917">
        <ele>1668</ele>
        <time>2021-02-21T10:10:56Z</time>
      </trkpt>
      <trkpt lat="44.47719" lon="6.54917">
        <ele>1668</ele>
        <time>2021-02-21T10:10:57Z</time>
      </trkpt>
      <trkpt lat="44.47719" lon="6.54917">
        <ele>1668</ele>
        <time>2021-02-21T10:10:58Z</time>
      </trkpt>
      <trkpt lat="44.47719" lon="6.54917">
        <ele>1668</ele>
        <time>2021-02-21T10:10:59Z</time>
      </trkpt>
      <trkpt lat="44.47719" lon="6.54917">
        <ele>1668</ele>
        <time>2021-02-21T10:11:00Z</time>
      </trkpt>
      <trkpt lat="44.47719" lon="6.54917">
        <ele>1668</ele>
        <time>2021-02-21T10:11:01Z</time>
      </trkpt>
      <trkpt lat="44.47719" lon="6.54917">
        <ele>1668</ele>
        <time>2021-02-21T10:11:02Z</time>
      </trkpt>
      <trkpt lat="44.47719" lon="6.54917">
        <ele>1668</ele>
        <time>2021-02-21T10:11:03Z</time>
      </trkpt>
      <trkpt lat="44.47719" lon="6.54917">
        <ele>1668</ele>
        <time>2021-02-21T10:11:04Z</time>
      </trkpt>
      <trkpt lat="44.47719" lon="6.54917">
        <ele>1668</ele>
        <time>2021-02-21T10:11:05Z</time>
      </trkpt>
      <trkpt lat="44.47719" lon="6.54917">
        <ele>1668</ele>
        <time>2021-02-21T10:11:06Z</time>
      </trkpt>
      <trkpt lat="44.47719" lon="6.54917">
        <ele>1668</ele>
        <time>2021-02-21T10:11:07Z</time>
      </trkpt>
      <trkpt lat="44.47719" lon="6.54917">
        <ele>1668</ele>
        <time>2021-02-21T10:11:08Z</time>
      </trkpt>
      <trkpt lat="44.47719" lon="6.54917">
        <ele>1668</ele>
        <time>2021-02-21T10:11:09Z</time>
      </trkpt>
      <trkpt lat="44.47719" lon="6.54917">
        <ele>1668</ele>
        <time>2021-02-21T10:11:10Z</time>
      </trkpt>
      <trkpt lat="44.47719" lon="6.54917">
        <ele>1668</ele>
        <time>2021-02-21T10:11:11Z</time>
      </trkpt>
      <trkpt lat="44.47719" lon="6.54917">
        <ele>1668</ele>
        <time>2021-02-21T10:11:12Z</time>
      </trkpt>
      <trkpt lat="44.47719" lon="6.54917">
        <ele>1668</ele>
        <time>2021-02-21T10:11:13Z</time>
      </trkpt>
      <trkpt lat="44.47719" lon="6.54917">
        <ele>1668</ele>
        <time>2021-02-21T10:11:14Z</time>
      </trkpt>
      <trkpt lat="44.47719" lon="6.54917">
        <ele>1668</ele>
        <time>2021-02-21T10:11:15Z</time>
      </trkpt>
      <trkpt lat="44.47719" lon="6.54917">
        <ele>1668</ele>
        <time>2021-02-21T10:11:16Z</time>
      </trkpt>
      <trkpt lat="44.47719" lon="6.54917">
        <ele>1668</ele>
        <time>2021-02-21T10:11:17Z</time>
      </trkpt>
      <trkpt lat="44.47719" lon="6.54917">
        <ele>1668</ele>
        <time>2021-02-21T10:11:18Z</time>
      </trkpt>
      <trkpt lat="44.47719" lon="6.54917">
        <ele>1668</ele>
        <time>2021-02-21T10:11:19Z</time>
      </trkpt>
      <trkpt lat="44.47719" lon="6.54917">
        <ele>1668</ele>
        <time>2021-02-21T10:11:20Z</time>
      </trkpt>
      <trkpt lat="44.47719" lon="6.54917">
        <ele>1668</ele>
        <time>2021-02-21T10:11:21Z</time>
      </trkpt>
      <trkpt lat="44.47719" lon="6.54917">
        <ele>1668</ele>
        <time>2021-02-21T10:11:22Z</time>
      </trkpt>
      <trkpt lat="44.47719" lon="6.54917">
        <ele>1668</ele>
        <time>2021-02-21T10:11:23Z</time>
      </trkpt>
      <trkpt lat="44.47719" lon="6.54917">
        <ele>1668</ele>
        <time>2021-02-21T10:11:24Z</time>
      </trkpt>
      <trkpt lat="44.47719" lon="6.54917">
        <ele>1668</ele>
        <time>2021-02-21T10:11:25Z</time>
      </trkpt>
      <trkpt lat="44.47719" lon="6.54917">
        <ele>1668</ele>
        <time>2021-02-21T10:11:26Z</time>
      </trkpt>
      <trkpt lat="44.47719" lon="6.54917">
        <ele>1668</ele>
        <time>2021-02-21T10:11:27Z</time>
      </trkpt>
      <trkpt lat="44.47719" lon="6.54917">
        <ele>1668</ele>
        <time>2021-02-21T10:11:28Z</time>
      </trkpt>
      <trkpt lat="44.47719" lon="6.54917">
        <ele>1668</ele>
        <time>2021-02-21T10:11:29Z</time>
      </trkpt>
      <trkpt lat="44.47719" lon="6.54917">
        <ele>1668</ele>
        <time>2021-02-21T10:11:30Z</time>
      </trkpt>
      <trkpt lat="44.47719" lon="6.54917">
        <ele>1668</ele>
        <time>2021-02-21T10:11:31Z</time>
      </trkpt>
      <trkpt lat="44.47719" lon="6.54917">
        <ele>1668</ele>
        <time>2021-02-21T10:11:32Z</time>
      </trkpt>
      <trkpt lat="44.47719" lon="6.54917">
        <ele>1668</ele>
        <time>2021-02-21T10:11:33Z</time>
      </trkpt>
      <trkpt lat="44.47719" lon="6.54917">
        <ele>1668</ele>
        <time>2021-02-21T10:11:34Z</time>
      </trkpt>
      <trkpt lat="44.47719" lon="6.54917">
        <ele>1668</ele>
        <time>2021-02-21T10:11:35Z</time>
      </trkpt>
      <trkpt lat="44.47719" lon="6.54917">
        <ele>1668</ele>
        <time>2021-02-21T10:11:36Z</time>
      </trkpt>
      <trkpt lat="44.47719" lon="6.54917">
        <ele>1668</ele>
        <time>2021-02-21T10:11:37Z</time>
      </trkpt>
      <trkpt lat="44.47719" lon="6.54917">
        <ele>1668</ele>
        <time>2021-02-21T10:11:38Z</time>
      </trkpt>
      <trkpt lat="44.47719" lon="6.54917">
        <ele>1668</ele>
        <time>2021-02-21T10:11:39Z</time>
      </trkpt>
      <trkpt lat="44.47719" lon="6.54917">
        <ele>1668</ele>
        <time>2021-02-21T10:11:40Z</time>
      </trkpt>
      <trkpt lat="44.47719" lon="6.54917">
        <ele>1668</ele>
        <time>2021-02-21T10:11:41Z</time>
      </trkpt>
      <trkpt lat="44.47719" lon="6.54917">
        <ele>1668</ele>
        <time>2021-02-21T10:11:42Z</time>
      </trkpt>
      <trkpt lat="44.47719" lon="6.54917">
        <ele>1668</ele>
        <time>2021-02-21T10:11:43Z</time>
      </trkpt>
      <trkpt lat="44.47719" lon="6.54917">
        <ele>1668</ele>
        <time>2021-02-21T10:11:44Z</time>
      </trkpt>
      <trkpt lat="44.47719" lon="6.54917">
        <ele>1668</ele>
        <time>2021-02-21T10:11:45Z</time>
      </trkpt>
      <trkpt lat="44.47719" lon="6.54917">
        <ele>1668</ele>
        <time>2021-02-21T10:11:46Z</time>
      </trkpt>
      <trkpt lat="44.47719" lon="6.54917">
        <ele>1668</ele>
        <time>2021-02-21T10:11:47Z</time>
      </trkpt>
      <trkpt lat="44.47719" lon="6.54917">
        <ele>1668</ele>
        <time>2021-02-21T10:11:48Z</time>
      </trkpt>
      <trkpt lat="44.47719" lon="6.54917">
        <ele>1668</ele>
        <time>2021-02-21T10:11:49Z</time>
      </trkpt>
      <trkpt lat="44.47719" lon="6.54917">
        <ele>1668</ele>
        <time>2021-02-21T10:11:50Z</time>
      </trkpt>
      <trkpt lat="44.47719" lon="6.54917">
        <ele>1668</ele>
        <time>2021-02-21T10:11:51Z</time>
      </trkpt>
      <trkpt lat="44.47719" lon="6.54917">
        <ele>1668</ele>
        <time>2021-02-21T10:11:52Z</time>
      </trkpt>
      <trkpt lat="44.47719" lon="6.54917">
        <ele>1668</ele>
        <time>2021-02-21T10:11:53Z</time>
      </trkpt>
      <trkpt lat="44.47719" lon="6.54917">
        <ele>1668</ele>
        <time>2021-02-21T10:11:54Z</time>
      </trkpt>
      <trkpt lat="44.47719" lon="6.54917">
        <ele>1668</ele>
        <time>2021-02-21T10:11:55Z</time>
      </trkpt>
      <trkpt lat="44.47719" lon="6.54917">
        <ele>1668</ele>
        <time>2021-02-21T10:11:56Z</time>
      </trkpt>
      <trkpt lat="44.47719" lon="6.54917">
        <ele>1668</ele>
        <time>2021-02-21T10:11:57Z</time>
      </trkpt>
      <trkpt lat="44.47719" lon="6.54917">
        <ele>1668</ele>
        <time>2021-02-21T10:11:58Z</time>
      </trkpt>
      <trkpt lat="44.47719" lon="6.54917">
        <ele>1668</ele>
        <time>2021-02-21T10:11:59Z</time>
      </trkpt>
      <trkpt lat="44.47719" lon="6.54917">
        <ele>1668</ele>
        <time>2021-02-21T10:12:00Z</time>
      </trkpt>
      <trkpt lat="44.47719" lon="6.54917">
        <ele>1668</ele>
        <time>2021-02-21T10:12:01Z</time>
      </trkpt>
      <trkpt lat="44.47719" lon="6.54917">
        <ele>1668</ele>
        <time>2021-02-21T10:12:02Z</time>
      </trkpt>
      <trkpt lat="44.47719" lon="6.54917">
        <ele>1668</ele>
        <time>2021-02-21T10:12:03Z</time>
      </trkpt>
      <trkpt lat="44.47719" lon="6.54917">
        <ele>1668</ele>
        <time>2021-02-21T10:12:04Z</time>
      </trkpt>
      <trkpt lat="44.47719" lon="6.54917">
        <ele>1668</ele>
        <time>2021-02-21T10:12:05Z</time>
      </trkpt>
      <trkpt lat="44.47719" lon="6.54917">
        <ele>1668</ele>
        <time>2021-02-21T10:12:06Z</time>
      </trkpt>
      <trkpt lat="44.47719" lon="6.54917">
        <ele>1668</ele>
        <time>2021-02-21T10:12:07Z</time>
      </trkpt>
      <trkpt lat="44.47719" lon="6.54917">
        <ele>1668</ele>
        <time>2021-02-21T10:12:08Z</time>
      </trkpt>
      <trkpt lat="44.47719" lon="6.54917">
        <ele>1668</ele>
        <time>2021-02-21T10:12:09Z</time>
      </trkpt>
      <trkpt lat="44.47719" lon="6.54917">
        <ele>1668</ele>
        <time>2021-02-21T10:12:10Z</time>
      </trkpt>
      <trkpt lat="44.47719" lon="6.54917">
        <ele>1668</ele>
        <time>2021-02-21T10:12:11Z</time>
      </trkpt>
      <trkpt lat="44.47719" lon="6.54917">
        <ele>1668</ele>
        <time>2021-02-21T10:12:12Z</time>
      </trkpt>
      <trkpt lat="44.47719" lon="6.54917">
        <ele>1668</ele>
        <time>2021-02-21T10:12:13Z</time>
      </trkpt>
      <trkpt lat="44.47719" lon="6.54917">
        <ele>1668</ele>
        <time>2021-02-21T10:12:14Z</time>
      </trkpt>
      <trkpt lat="44.47719" lon="6.54917">
        <ele>1668</ele>
        <time>2021-02-21T10:12:15Z</time>
      </trkpt>
      <trkpt lat="44.47719" lon="6.54917">
        <ele>1668</ele>
        <time>2021-02-21T10:12:16Z</time>
      </trkpt>
      <trkpt lat="44.47719" lon="6.54917">
        <ele>1668</ele>
        <time>2021-02-21T10:12:17Z</time>
      </trkpt>
      <trkpt lat="44.47719" lon="6.54917">
        <ele>1668</ele>
        <time>2021-02-21T10:12:18Z</time>
      </trkpt>
      <trkpt lat="44.47719" lon="6.54917">
        <ele>1668</ele>
        <time>2021-02-21T10:12:19Z</time>
      </trkpt>
      <trkpt lat="44.47719" lon="6.54917">
        <ele>1668</ele>
        <time>2021-02-21T10:12:20Z</time>
      </trkpt>
      <trkpt lat="44.47719" lon="6.54917">
        <ele>1668</ele>
        <time>2021-02-21T10:12:21Z</time>
      </trkpt>
      <trkpt lat="44.47719" lon="6.54917">
        <ele>1668</ele>
        <time>2021-02-21T10:12:22Z</time>
      </trkpt>
      <trkpt lat="44.47719" lon="6.54917">
        <ele>1668</ele>
        <time>2021-02-21T10:12:23Z</time>
      </trkpt>
      <trkpt lat="44.47719" lon="6.54917">
        <ele>1668</ele>
        <time>2021-02-21T10:12:24Z</time>
      </trkpt>
      <trkpt lat="44.47719" lon="6.54917">
        <ele>1668</ele>
        <time>2021-02-21T10:12:25Z</time>
      </trkpt>
      <trkpt lat="44.47719" lon="6.54917">
        <ele>1668</ele>
        <time>2021-02-21T10:12:26Z</time>
      </trkpt>
      <trkpt lat="44.47719" lon="6.54917">
        <ele>1668</ele>
        <time>2021-02-21T10:12:27Z</time>
      </trkpt>
      <trkpt lat="44.47719" lon="6.54917">
        <ele>1668</ele>
        <time>2021-02-21T10:12:28Z</time>
      </trkpt>
      <trkpt lat="44.47719" lon="6.54917">
        <ele>1668</ele>
        <time>2021-02-21T10:12:29Z</time>
      </trkpt>
      <trkpt lat="44.47719" lon="6.54917">
        <ele>1668</ele>
        <time>2021-02-21T10:12:30Z</time>
      </trkpt>
      <trkpt lat="44.47719" lon="6.54917">
        <ele>1668</ele>
        <time>2021-02-21T10:12:31Z</time>
      </trkpt>
      <trkpt lat="44.47719" lon="6.54917">
        <ele>1668</ele>
        <time>2021-02-21T10:12:32Z</time>
      </trkpt>
      <trkpt lat="44.47719" lon="6.54917">
        <ele>1668</ele>
        <time>2021-02-21T10:12:33Z</time>
      </trkpt>
      <trkpt lat="44.47719" lon="6.54917">
        <ele>1668</ele>
        <time>2021-02-21T10:12:34Z</time>
      </trkpt>
      <trkpt lat="44.47719" lon="6.54917">
        <ele>1668</ele>
        <time>2021-02-21T10:12:35Z</time>
      </trkpt>
      <trkpt lat="44.47719" lon="6.54917">
        <ele>1668</ele>
        <time>2021-02-21T10:12:36Z</time>
      </trkpt>
      <trkpt lat="44.47719" lon="6.54917">
        <ele>1668</ele>
        <time>2021-02-21T10:12:37Z</time>
      </trkpt>
      <trkpt lat="44.47719" lon="6.54917">
        <ele>1668</ele>
        <time>2021-02-21T10:12:38Z</time>
      </trkpt>
      <trkpt lat="44.47719" lon="6.54917">
        <ele>1668</ele>
        <time>2021-02-21T10:12:39Z</time>
      </trkpt>
      <trkpt lat="44.47719" lon="6.54917">
        <ele>1668</ele>
        <time>2021-02-21T10:12:40Z</time>
      </trkpt>
      <trkpt lat="44.47719" lon="6.54917">
        <ele>1668</ele>
        <time>2021-02-21T10:12:41Z</time>
      </trkpt>
      <trkpt lat="44.47719" lon="6.54917">
        <ele>1668</ele>
        <time>2021-02-21T10:12:42Z</time>
      </trkpt>
      <trkpt lat="44.47719" lon="6.54917">
        <ele>1668</ele>
        <time>2021-02-21T10:12:43Z</time>
      </trkpt>
      <trkpt lat="44.47719" lon="6.54917">
        <ele>1668</ele>
        <time>2021-02-21T10:12:44Z</time>
      </trkpt>
      <trkpt lat="44.47719" lon="6.54917">
        <ele>1668</ele>
        <time>2021-02-21T10:12:45Z</time>
      </trkpt>
      <trkpt lat="44.47719" lon="6.54917">
        <ele>1668</ele>
        <time>2021-02-21T10:12:46Z</time>
      </trkpt>
      <trkpt lat="44.47719" lon="6.54917">
        <ele>1668</ele>
        <time>2021-02-21T10:12:47Z</time>
      </trkpt>
      <trkpt lat="44.47719" lon="6.54917">
        <ele>1668</ele>
        <time>2021-02-21T10:12:48Z</time>
      </trkpt>
      <trkpt lat="44.47719" lon="6.54917">
        <ele>1668</ele>
        <time>2021-02-21T10:12:49Z</time>
      </trkpt>
      <trkpt lat="44.47719" lon="6.54917">
        <ele>1668</ele>
        <time>2021-02-21T10:12:50Z</time>
      </trkpt>
      <trkpt lat="44.47719" lon="6.54917">
        <ele>1668</ele>
        <time>2021-02-21T10:12:51Z</time>
      </trkpt>
      <trkpt lat="44.47719" lon="6.54917">
        <ele>1668</ele>
        <time>2021-02-21T10:12:52Z</time>
      </trkpt>
      <trkpt lat="44.47719" lon="6.54917">
        <ele>1668</ele>
        <time>2021-02-21T10:12:53Z</time>
      </trkpt>
      <trkpt lat="44.47719" lon="6.54917">
        <ele>1668</ele>
        <time>2021-02-21T10:12:54Z</time>
      </trkpt>
      <trkpt lat="44.47719" lon="6.54917">
        <ele>1668</ele>
        <time>2021-02-21T10:12:55Z</time>
      </trkpt>
      <trkpt lat="44.47719" lon="6.54917">
        <ele>1668</ele>
        <time>2021-02-21T10:12:56Z</time>
      </trkpt>
      <trkpt lat="44.47719" lon="6.54917">
        <ele>1668</ele>
        <time>2021-02-21T10:12:57Z</time>
      </trkpt>
      <trkpt lat="44.47719" lon="6.54917">
        <ele>1668</ele>
        <time>2021-02-21T10:12:58Z</time>
      </trkpt>
      <trkpt lat="44.47719" lon="6.54917">
        <ele>1668</ele>
        <time>2021-02-21T10:12:59Z</time>
      </trkpt>
      <trkpt lat="44.47719" lon="6.54917">
        <ele>1668</ele>
        <time>2021-02-21T10:13:00Z</time>
      </trkpt>
      <trkpt lat="44.47719" lon="6.54917">
        <ele>1668</ele>
        <time>2021-02-21T10:13:01Z</time>
      </trkpt>
      <trkpt lat="44.47719" lon="6.54917">
        <ele>1668</ele>
        <time>2021-02-21T10:13:02Z</time>
      </trkpt>
      <trkpt lat="44.47719" lon="6.54917">
        <ele>1668</ele>
        <time>2021-02-21T10:13:03Z</time>
      </trkpt>
      <trkpt lat="44.47719" lon="6.54917">
        <ele>1668</ele>
        <time>2021-02-21T10:13:04Z</time>
      </trkpt>
      <trkpt lat="44.47719" lon="6.54917">
        <ele>1668</ele>
        <time>2021-02-21T10:13:05Z</time>
      </trkpt>
      <trkpt lat="44.47719" lon="6.54917">
        <ele>1668</ele>
        <time>2021-02-21T10:13:06Z</time>
      </trkpt>
      <trkpt lat="44.47719" lon="6.54917">
        <ele>1668</ele>
        <time>2021-02-21T10:13:07Z</time>
      </trkpt>
      <trkpt lat="44.47719" lon="6.54917">
        <ele>1668</ele>
        <time>2021-02-21T10:13:08Z</time>
      </trkpt>
      <trkpt lat="44.47719" lon="6.54917">
        <ele>1668</ele>
        <time>2021-02-21T10:13:09Z</time>
      </trkpt>
      <trkpt lat="44.47719" lon="6.54917">
        <ele>1668</ele>
        <time>2021-02-21T10:13:10Z</time>
      </trkpt>
      <trkpt lat="44.47719" lon="6.54917">
        <ele>1668</ele>
        <time>2021-02-21T10:13:11Z</time>
      </trkpt>
      <trkpt lat="44.47719" lon="6.54917">
        <ele>1668</ele>
        <time>2021-02-21T10:13:12Z</time>
      </trkpt>
      <trkpt lat="44.47719" lon="6.54917">
        <ele>1668</ele>
        <time>2021-02-21T10:13:13Z</time>
      </trkpt>
      <trkpt lat="44.47719" lon="6.54917">
        <ele>1668</ele>
        <time>2021-02-21T10:13:14Z</time>
      </trkpt>
      <trkpt lat="44.47719" lon="6.54917">
        <ele>1668</ele>
        <time>2021-02-21T10:13:15Z</time>
      </trkpt>
      <trkpt lat="44.47719" lon="6.54917">
        <ele>1668</ele>
        <time>2021-02-21T10:13:16Z</time>
      </trkpt>
      <trkpt lat="44.47719" lon="6.54917">
        <ele>1668</ele>
        <time>2021-02-21T10:13:17Z</time>
      </trkpt>
      <trkpt lat="44.47719" lon="6.54917">
        <ele>1668</ele>
        <time>2021-02-21T10:13:18Z</time>
      </trkpt>
      <trkpt lat="44.47719" lon="6.54917">
        <ele>1668</ele>
        <time>2021-02-21T10:13:19Z</time>
      </trkpt>
      <trkpt lat="44.47719" lon="6.54917">
        <ele>1668</ele>
        <time>2021-02-21T10:13:20Z</time>
      </trkpt>
      <trkpt lat="44.47719" lon="6.54917">
        <ele>1668</ele>
        <time>2021-02-21T10:13:21Z</time>
      </trkpt>
      <trkpt lat="44.47719" lon="6.54917">
        <ele>1668</ele>
        <time>2021-02-21T10:13:22Z</time>
      </trkpt>
      <trkpt lat="44.47719" lon="6.54917">
        <ele>1668</ele>
        <time>2021-02-21T10:13:23Z</time>
      </trkpt>
      <trkpt lat="44.47724" lon="6.54921">
        <ele>1669</ele>
        <time>2021-02-21T10:13:24Z</time>
      </trkpt>
      <trkpt lat="44.47726" lon="6.5492">
        <ele>1670</ele>
        <time>2021-02-21T10:13:25Z</time>
      </trkpt>
      <trkpt lat="44.47727" lon="6.5492">
        <ele>1670</ele>
        <time>2021-02-21T10:13:26Z</time>
      </trkpt>
      <trkpt lat="44.47729" lon="6.54919">
        <ele>1670</ele>
        <time>2021-02-21T10:13:27Z</time>
      </trkpt>
      <trkpt lat="44.47731" lon="6.5492">
        <ele>1670</ele>
        <time>2021-02-21T10:13:28Z</time>
      </trkpt>
      <trkpt lat="44.47734" lon="6.5492">
        <ele>1670</ele>
        <time>2021-02-21T10:13:29Z</time>
      </trkpt>
      <trkpt lat="44.47736" lon="6.54921">
        <ele>1670</ele>
        <time>2021-02-21T10:13:30Z</time>
      </trkpt>
      <trkpt lat="44.4774" lon="6.54922">
        <ele>1670</ele>
        <time>2021-02-21T10:13:31Z</time>
      </trkpt>
      <trkpt lat="44.47745" lon="6.54923">
        <ele>1670</ele>
        <time>2021-02-21T10:13:32Z</time>
      </trkpt>
      <trkpt lat="44.47749" lon="6.54924">
        <ele>1671</ele>
        <time>2021-02-21T10:13:33Z</time>
      </trkpt>
      <trkpt lat="44.47753" lon="6.54925">
        <ele>1671</ele>
        <time>2021-02-21T10:13:34Z</time>
      </trkpt>
      <trkpt lat="44.47757" lon="6.54925">
        <ele>1671</ele>
        <time>2021-02-21T10:13:35Z</time>
      </trkpt>
      <trkpt lat="44.4776" lon="6.54925">
        <ele>1671</ele>
        <time>2021-02-21T10:13:36Z</time>
      </trkpt>
      <trkpt lat="44.47762" lon="6.54923">
        <ele>1671</ele>
        <time>2021-02-21T10:13:37Z</time>
      </trkpt>
      <trkpt lat="44.47763" lon="6.54922">
        <ele>1670</ele>
        <time>2021-02-21T10:13:38Z</time>
      </trkpt>
      <trkpt lat="44.47764" lon="6.54922">
        <ele>1670</ele>
        <time>2021-02-21T10:13:39Z</time>
      </trkpt>
      <trkpt lat="44.47764" lon="6.54922">
        <ele>1670</ele>
        <time>2021-02-21T10:13:40Z</time>
      </trkpt>
      <trkpt lat="44.47764" lon="6.54923">
        <ele>1670</ele>
        <time>2021-02-21T10:13:41Z</time>
      </trkpt>
      <trkpt lat="44.47764" lon="6.54923">
        <ele>1670</ele>
        <time>2021-02-21T10:13:42Z</time>
      </trkpt>
      <trkpt lat="44.47764" lon="6.54923">
        <ele>1670</ele>
        <time>2021-02-21T10:13:43Z</time>
      </trkpt>
      <trkpt lat="44.47764" lon="6.54923">
        <ele>1670</ele>
        <time>2021-02-21T10:13:44Z</time>
      </trkpt>
      <trkpt lat="44.47764" lon="6.54923">
        <ele>1670</ele>
        <time>2021-02-21T10:13:45Z</time>
      </trkpt>
      <trkpt lat="44.47764" lon="6.54923">
        <ele>1670</ele>
        <time>2021-02-21T10:13:46Z</time>
      </trkpt>
      <trkpt lat="44.47764" lon="6.54923">
        <ele>1670</ele>
        <time>2021-02-21T10:13:47Z</time>
      </trkpt>
      <trkpt lat="44.47764" lon="6.54923">
        <ele>1670</ele>
        <time>2021-02-21T10:13:48Z</time>
      </trkpt>
      <trkpt lat="44.47764" lon="6.54923">
        <ele>1670</ele>
        <time>2021-02-21T10:13:49Z</time>
      </trkpt>
      <trkpt lat="44.47764" lon="6.54923">
        <ele>1670</ele>
        <time>2021-02-21T10:13:50Z</time>
      </trkpt>
      <trkpt lat="44.47764" lon="6.54923">
        <ele>1670</ele>
        <time>2021-02-21T10:13:51Z</time>
      </trkpt>
      <trkpt lat="44.47764" lon="6.54923">
        <ele>1670</ele>
        <time>2021-02-21T10:13:52Z</time>
      </trkpt>
      <trkpt lat="44.47764" lon="6.54923">
        <ele>1670</ele>
        <time>2021-02-21T10:13:53Z</time>
      </trkpt>
      <trkpt lat="44.47764" lon="6.54923">
        <ele>1670</ele>
        <time>2021-02-21T10:13:54Z</time>
      </trkpt>
      <trkpt lat="44.47764" lon="6.54923">
        <ele>1670</ele>
        <time>2021-02-21T10:13:55Z</time>
      </trkpt>
      <trkpt lat="44.47764" lon="6.54923">
        <ele>1670</ele>
        <time>2021-02-21T10:13:56Z</time>
      </trkpt>
      <trkpt lat="44.47764" lon="6.54923">
        <ele>1670</ele>
        <time>2021-02-21T10:13:57Z</time>
      </trkpt>
      <trkpt lat="44.47764" lon="6.54923">
        <ele>1670</ele>
        <time>2021-02-21T10:13:58Z</time>
      </trkpt>
      <trkpt lat="44.47764" lon="6.54923">
        <ele>1670</ele>
        <time>2021-02-21T10:13:59Z</time>
      </trkpt>
      <trkpt lat="44.47764" lon="6.54923">
        <ele>1670</ele>
        <time>2021-02-21T10:14:00Z</time>
      </trkpt>
      <trkpt lat="44.47764" lon="6.54923">
        <ele>1670</ele>
        <time>2021-02-21T10:14:01Z</time>
      </trkpt>
      <trkpt lat="44.47764" lon="6.54923">
        <ele>1670</ele>
        <time>2021-02-21T10:14:02Z</time>
      </trkpt>
      <trkpt lat="44.47764" lon="6.54923">
        <ele>1669</ele>
        <time>2021-02-21T10:14:03Z</time>
      </trkpt>
      <trkpt lat="44.47764" lon="6.54923">
        <ele>1669</ele>
        <time>2021-02-21T10:14:04Z</time>
      </trkpt>
      <trkpt lat="44.47764" lon="6.54923">
        <ele>1669</ele>
        <time>2021-02-21T10:14:05Z</time>
      </trkpt>
      <trkpt lat="44.47764" lon="6.54923">
        <ele>1669</ele>
        <time>2021-02-21T10:14:06Z</time>
      </trkpt>
      <trkpt lat="44.47764" lon="6.54923">
        <ele>1669</ele>
        <time>2021-02-21T10:14:07Z</time>
      </trkpt>
      <trkpt lat="44.47764" lon="6.54923">
        <ele>1669</ele>
        <time>2021-02-21T10:14:08Z</time>
      </trkpt>
      <trkpt lat="44.47764" lon="6.54923">
        <ele>1669</ele>
        <time>2021-02-21T10:14:09Z</time>
      </trkpt>
      <trkpt lat="44.47764" lon="6.54923">
        <ele>1669</ele>
        <time>2021-02-21T10:14:10Z</time>
      </trkpt>
      <trkpt lat="44.47764" lon="6.54923">
        <ele>1669</ele>
        <time>2021-02-21T10:14:11Z</time>
      </trkpt>
      <trkpt lat="44.47764" lon="6.54923">
        <ele>1669</ele>
        <time>2021-02-21T10:14:12Z</time>
      </trkpt>
      <trkpt lat="44.47764" lon="6.54923">
        <ele>1669</ele>
        <time>2021-02-21T10:14:13Z</time>
      </trkpt>
      <trkpt lat="44.47764" lon="6.54923">
        <ele>1669</ele>
        <time>2021-02-21T10:14:14Z</time>
      </trkpt>
      <trkpt lat="44.47764" lon="6.54923">
        <ele>1669</ele>
        <time>2021-02-21T10:14:15Z</time>
      </trkpt>
      <trkpt lat="44.47764" lon="6.54923">
        <ele>1669</ele>
        <time>2021-02-21T10:14:16Z</time>
      </trkpt>
      <trkpt lat="44.47764" lon="6.54923">
        <ele>1669</ele>
        <time>2021-02-21T10:14:17Z</time>
      </trkpt>
      <trkpt lat="44.47764" lon="6.54923">
        <ele>1669</ele>
        <time>2021-02-21T10:14:18Z</time>
      </trkpt>
      <trkpt lat="44.47764" lon="6.54923">
        <ele>1669</ele>
        <time>2021-02-21T10:14:19Z</time>
      </trkpt>
      <trkpt lat="44.47764" lon="6.54923">
        <ele>1669</ele>
        <time>2021-02-21T10:14:20Z</time>
      </trkpt>
      <trkpt lat="44.47764" lon="6.54923">
        <ele>1669</ele>
        <time>2021-02-21T10:14:21Z</time>
      </trkpt>
      <trkpt lat="44.47764" lon="6.54923">
        <ele>1669</ele>
        <time>2021-02-21T10:14:22Z</time>
      </trkpt>
      <trkpt lat="44.47764" lon="6.54923">
        <ele>1669</ele>
        <time>2021-02-21T10:14:23Z</time>
      </trkpt>
      <trkpt lat="44.47764" lon="6.54923">
        <ele>1669</ele>
        <time>2021-02-21T10:14:24Z</time>
      </trkpt>
      <trkpt lat="44.47764" lon="6.54923">
        <ele>1669</ele>
        <time>2021-02-21T10:14:25Z</time>
      </trkpt>
      <trkpt lat="44.47764" lon="6.54923">
        <ele>1669</ele>
        <time>2021-02-21T10:14:26Z</time>
      </trkpt>
      <trkpt lat="44.47764" lon="6.54923">
        <ele>1669</ele>
        <time>2021-02-21T10:14:27Z</time>
      </trkpt>
      <trkpt lat="44.47764" lon="6.54923">
        <ele>1669</ele>
        <time>2021-02-21T10:14:28Z</time>
      </trkpt>
      <trkpt lat="44.47764" lon="6.54923">
        <ele>1669</ele>
        <time>2021-02-21T10:14:29Z</time>
      </trkpt>
      <trkpt lat="44.47764" lon="6.54923">
        <ele>1669</ele>
        <time>2021-02-21T10:14:30Z</time>
      </trkpt>
      <trkpt lat="44.47764" lon="6.54923">
        <ele>1669</ele>
        <time>2021-02-21T10:14:31Z</time>
      </trkpt>
      <trkpt lat="44.47764" lon="6.54923">
        <ele>1669</ele>
        <time>2021-02-21T10:14:32Z</time>
      </trkpt>
      <trkpt lat="44.47764" lon="6.54923">
        <ele>1669</ele>
        <time>2021-02-21T10:14:33Z</time>
      </trkpt>
      <trkpt lat="44.47764" lon="6.54923">
        <ele>1669</ele>
        <time>2021-02-21T10:14:34Z</time>
      </trkpt>
      <trkpt lat="44.47764" lon="6.54923">
        <ele>1669</ele>
        <time>2021-02-21T10:14:35Z</time>
      </trkpt>
      <trkpt lat="44.47764" lon="6.54923">
        <ele>1669</ele>
        <time>2021-02-21T10:14:36Z</time>
      </trkpt>
      <trkpt lat="44.47764" lon="6.54923">
        <ele>1669</ele>
        <time>2021-02-21T10:14:37Z</time>
      </trkpt>
      <trkpt lat="44.47764" lon="6.54923">
        <ele>1669</ele>
        <time>2021-02-21T10:14:38Z</time>
      </trkpt>
      <trkpt lat="44.47764" lon="6.54923">
        <ele>1669</ele>
        <time>2021-02-21T10:14:39Z</time>
      </trkpt>
      <trkpt lat="44.47764" lon="6.54923">
        <ele>1669</ele>
        <time>2021-02-21T10:14:40Z</time>
      </trkpt>
      <trkpt lat="44.47764" lon="6.54923">
        <ele>1669</ele>
        <time>2021-02-21T10:14:41Z</time>
      </trkpt>
      <trkpt lat="44.47764" lon="6.54923">
        <ele>1669</ele>
        <time>2021-02-21T10:14:42Z</time>
      </trkpt>
      <trkpt lat="44.47764" lon="6.54923">
        <ele>1669</ele>
        <time>2021-02-21T10:14:43Z</time>
      </trkpt>
      <trkpt lat="44.47764" lon="6.54923">
        <ele>1669</ele>
        <time>2021-02-21T10:14:44Z</time>
      </trkpt>
      <trkpt lat="44.47764" lon="6.54923">
        <ele>1669</ele>
        <time>2021-02-21T10:14:45Z</time>
      </trkpt>
      <trkpt lat="44.47764" lon="6.54923">
        <ele>1669</ele>
        <time>2021-02-21T10:14:46Z</time>
      </trkpt>
      <trkpt lat="44.47764" lon="6.54923">
        <ele>1669</ele>
        <time>2021-02-21T10:14:47Z</time>
      </trkpt>
      <trkpt lat="44.47764" lon="6.54923">
        <ele>1669</ele>
        <time>2021-02-21T10:14:48Z</time>
      </trkpt>
      <trkpt lat="44.47764" lon="6.54923">
        <ele>1669</ele>
        <time>2021-02-21T10:14:49Z</time>
      </trkpt>
      <trkpt lat="44.47764" lon="6.54923">
        <ele>1669</ele>
        <time>2021-02-21T10:14:50Z</time>
      </trkpt>
      <trkpt lat="44.47764" lon="6.54923">
        <ele>1669</ele>
        <time>2021-02-21T10:14:51Z</time>
      </trkpt>
      <trkpt lat="44.47764" lon="6.54923">
        <ele>1669</ele>
        <time>2021-02-21T10:14:52Z</time>
      </trkpt>
      <trkpt lat="44.47764" lon="6.54923">
        <ele>1669</ele>
        <time>2021-02-21T10:14:53Z</time>
      </trkpt>
      <trkpt lat="44.47764" lon="6.54923">
        <ele>1669</ele>
        <time>2021-02-21T10:14:54Z</time>
      </trkpt>
      <trkpt lat="44.47764" lon="6.54923">
        <ele>1669</ele>
        <time>2021-02-21T10:14:55Z</time>
      </trkpt>
      <trkpt lat="44.47764" lon="6.54923">
        <ele>1669</ele>
        <time>2021-02-21T10:14:56Z</time>
      </trkpt>
      <trkpt lat="44.47764" lon="6.54923">
        <ele>1669</ele>
        <time>2021-02-21T10:14:57Z</time>
      </trkpt>
      <trkpt lat="44.47764" lon="6.54923">
        <ele>1669</ele>
        <time>2021-02-21T10:14:58Z</time>
      </trkpt>
      <trkpt lat="44.47764" lon="6.54923">
        <ele>1669</ele>
        <time>2021-02-21T10:14:59Z</time>
      </trkpt>
      <trkpt lat="44.47764" lon="6.54923">
        <ele>1669</ele>
        <time>2021-02-21T10:15:00Z</time>
      </trkpt>
      <trkpt lat="44.47764" lon="6.54923">
        <ele>1669</ele>
        <time>2021-02-21T10:15:01Z</time>
      </trkpt>
      <trkpt lat="44.47764" lon="6.54923">
        <ele>1669</ele>
        <time>2021-02-21T10:15:02Z</time>
      </trkpt>
      <trkpt lat="44.47764" lon="6.54923">
        <ele>1669</ele>
        <time>2021-02-21T10:15:03Z</time>
      </trkpt>
      <trkpt lat="44.47764" lon="6.54923">
        <ele>1669</ele>
        <time>2021-02-21T10:15:04Z</time>
      </trkpt>
      <trkpt lat="44.47764" lon="6.54923">
        <ele>1669</ele>
        <time>2021-02-21T10:15:05Z</time>
      </trkpt>
      <trkpt lat="44.47764" lon="6.54923">
        <ele>1669</ele>
        <time>2021-02-21T10:15:06Z</time>
      </trkpt>
      <trkpt lat="44.47764" lon="6.54923">
        <ele>1669</ele>
        <time>2021-02-21T10:15:07Z</time>
      </trkpt>
      <trkpt lat="44.47764" lon="6.54923">
        <ele>1669</ele>
        <time>2021-02-21T10:15:08Z</time>
      </trkpt>
      <trkpt lat="44.47764" lon="6.54923">
        <ele>1669</ele>
        <time>2021-02-21T10:15:09Z</time>
      </trkpt>
      <trkpt lat="44.47764" lon="6.54923">
        <ele>1669</ele>
        <time>2021-02-21T10:15:10Z</time>
      </trkpt>
      <trkpt lat="44.47764" lon="6.54923">
        <ele>1669</ele>
        <time>2021-02-21T10:15:11Z</time>
      </trkpt>
      <trkpt lat="44.47764" lon="6.54923">
        <ele>1669</ele>
        <time>2021-02-21T10:15:12Z</time>
      </trkpt>
      <trkpt lat="44.47764" lon="6.54923">
        <ele>1669</ele>
        <time>2021-02-21T10:15:13Z</time>
      </trkpt>
      <trkpt lat="44.47764" lon="6.54923">
        <ele>1669</ele>
        <time>2021-02-21T10:15:14Z</time>
      </trkpt>
      <trkpt lat="44.47764" lon="6.54923">
        <ele>1669</ele>
        <time>2021-02-21T10:15:15Z</time>
      </trkpt>
      <trkpt lat="44.47764" lon="6.54923">
        <ele>1669</ele>
        <time>2021-02-21T10:15:16Z</time>
      </trkpt>
      <trkpt lat="44.47764" lon="6.54923">
        <ele>1669</ele>
        <time>2021-02-21T10:15:17Z</time>
      </trkpt>
      <trkpt lat="44.47764" lon="6.54923">
        <ele>1669</ele>
        <time>2021-02-21T10:15:18Z</time>
      </trkpt>
      <trkpt lat="44.47764" lon="6.54923">
        <ele>1669</ele>
        <time>2021-02-21T10:15:19Z</time>
      </trkpt>
      <trkpt lat="44.47764" lon="6.54923">
        <ele>1669</ele>
        <time>2021-02-21T10:15:20Z</time>
      </trkpt>
      <trkpt lat="44.47764" lon="6.54923">
        <ele>1669</ele>
        <time>2021-02-21T10:15:21Z</time>
      </trkpt>
      <trkpt lat="44.47764" lon="6.54923">
        <ele>1669</ele>
        <time>2021-02-21T10:15:22Z</time>
      </trkpt>
      <trkpt lat="44.47764" lon="6.54923">
        <ele>1669</ele>
        <time>2021-02-21T10:15:23Z</time>
      </trkpt>
      <trkpt lat="44.47764" lon="6.54923">
        <ele>1669</ele>
        <time>2021-02-21T10:15:24Z</time>
      </trkpt>
      <trkpt lat="44.47764" lon="6.54923">
        <ele>1669</ele>
        <time>2021-02-21T10:15:25Z</time>
      </trkpt>
      <trkpt lat="44.47764" lon="6.54923">
        <ele>1669</ele>
        <time>2021-02-21T10:15:26Z</time>
      </trkpt>
      <trkpt lat="44.47764" lon="6.54923">
        <ele>1669</ele>
        <time>2021-02-21T10:15:27Z</time>
      </trkpt>
      <trkpt lat="44.47764" lon="6.54923">
        <ele>1669</ele>
        <time>2021-02-21T10:15:28Z</time>
      </trkpt>
      <trkpt lat="44.47764" lon="6.54923">
        <ele>1669</ele>
        <time>2021-02-21T10:15:29Z</time>
      </trkpt>
      <trkpt lat="44.47764" lon="6.54923">
        <ele>1669</ele>
        <time>2021-02-21T10:15:30Z</time>
      </trkpt>
      <trkpt lat="44.47764" lon="6.54923">
        <ele>1669</ele>
        <time>2021-02-21T10:15:31Z</time>
      </trkpt>
      <trkpt lat="44.47764" lon="6.54923">
        <ele>1669</ele>
        <time>2021-02-21T10:15:32Z</time>
      </trkpt>
      <trkpt lat="44.47764" lon="6.54923">
        <ele>1669</ele>
        <time>2021-02-21T10:15:33Z</time>
      </trkpt>
      <trkpt lat="44.47764" lon="6.54923">
        <ele>1669</ele>
        <time>2021-02-21T10:15:34Z</time>
      </trkpt>
      <trkpt lat="44.47764" lon="6.54923">
        <ele>1669</ele>
        <time>2021-02-21T10:15:35Z</time>
      </trkpt>
      <trkpt lat="44.47764" lon="6.54923">
        <ele>1669</ele>
        <time>2021-02-21T10:15:36Z</time>
      </trkpt>
      <trkpt lat="44.47764" lon="6.54923">
        <ele>1669</ele>
        <time>2021-02-21T10:15:37Z</time>
      </trkpt>
      <trkpt lat="44.47764" lon="6.54923">
        <ele>1669</ele>
        <time>2021-02-21T10:15:38Z</time>
      </trkpt>
      <trkpt lat="44.47764" lon="6.54923">
        <ele>1669</ele>
        <time>2021-02-21T10:15:39Z</time>
      </trkpt>
      <trkpt lat="44.47764" lon="6.54923">
        <ele>1669</ele>
        <time>2021-02-21T10:15:40Z</time>
      </trkpt>
      <trkpt lat="44.47764" lon="6.54923">
        <ele>1669</ele>
        <time>2021-02-21T10:15:41Z</time>
      </trkpt>
      <trkpt lat="44.47764" lon="6.54923">
        <ele>1669</ele>
        <time>2021-02-21T10:15:42Z</time>
      </trkpt>
      <trkpt lat="44.47764" lon="6.54923">
        <ele>1669</ele>
        <time>2021-02-21T10:15:43Z</time>
      </trkpt>
      <trkpt lat="44.47764" lon="6.54923">
        <ele>1669</ele>
        <time>2021-02-21T10:15:44Z</time>
      </trkpt>
      <trkpt lat="44.47764" lon="6.54923">
        <ele>1669</ele>
        <time>2021-02-21T10:15:45Z</time>
      </trkpt>
      <trkpt lat="44.47764" lon="6.54923">
        <ele>1669</ele>
        <time>2021-02-21T10:15:46Z</time>
      </trkpt>
      <trkpt lat="44.47764" lon="6.54923">
        <ele>1669</ele>
        <time>2021-02-21T10:15:47Z</time>
      </trkpt>
      <trkpt lat="44.47764" lon="6.54923">
        <ele>1669</ele>
        <time>2021-02-21T10:15:48Z</time>
      </trkpt>
      <trkpt lat="44.47764" lon="6.54923">
        <ele>1669</ele>
        <time>2021-02-21T10:15:49Z</time>
      </trkpt>
      <trkpt lat="44.47764" lon="6.54923">
        <ele>1669</ele>
        <time>2021-02-21T10:15:50Z</time>
      </trkpt>
      <trkpt lat="44.47764" lon="6.54923">
        <ele>1669</ele>
        <time>2021-02-21T10:15:51Z</time>
      </trkpt>
      <trkpt lat="44.47764" lon="6.54923">
        <ele>1669</ele>
        <time>2021-02-21T10:15:52Z</time>
      </trkpt>
      <trkpt lat="44.47764" lon="6.54923">
        <ele>1669</ele>
        <time>2021-02-21T10:15:53Z</time>
      </trkpt>
      <trkpt lat="44.47764" lon="6.54923">
        <ele>1669</ele>
        <time>2021-02-21T10:15:54Z</time>
      </trkpt>
      <trkpt lat="44.47764" lon="6.54923">
        <ele>1669</ele>
        <time>2021-02-21T10:15:55Z</time>
      </trkpt>
      <trkpt lat="44.47764" lon="6.54923">
        <ele>1669</ele>
        <time>2021-02-21T10:15:56Z</time>
      </trkpt>
      <trkpt lat="44.47764" lon="6.54923">
        <ele>1669</ele>
        <time>2021-02-21T10:15:57Z</time>
      </trkpt>
      <trkpt lat="44.47764" lon="6.54923">
        <ele>1669</ele>
        <time>2021-02-21T10:15:58Z</time>
      </trkpt>
      <trkpt lat="44.47764" lon="6.54923">
        <ele>1669</ele>
        <time>2021-02-21T10:15:59Z</time>
      </trkpt>
      <trkpt lat="44.47764" lon="6.54923">
        <ele>1669</ele>
        <time>2021-02-21T10:16:00Z</time>
      </trkpt>
      <trkpt lat="44.47764" lon="6.54923">
        <ele>1669</ele>
        <time>2021-02-21T10:16:01Z</time>
      </trkpt>
      <trkpt lat="44.47764" lon="6.54923">
        <ele>1669</ele>
        <time>2021-02-21T10:16:02Z</time>
      </trkpt>
      <trkpt lat="44.47764" lon="6.54923">
        <ele>1669</ele>
        <time>2021-02-21T10:16:03Z</time>
      </trkpt>
      <trkpt lat="44.47764" lon="6.54923">
        <ele>1669</ele>
        <time>2021-02-21T10:16:04Z</time>
      </trkpt>
      <trkpt lat="44.47764" lon="6.54923">
        <ele>1669</ele>
        <time>2021-02-21T10:16:05Z</time>
      </trkpt>
      <trkpt lat="44.47764" lon="6.54923">
        <ele>1669</ele>
        <time>2021-02-21T10:16:06Z</time>
      </trkpt>
      <trkpt lat="44.47764" lon="6.54923">
        <ele>1669</ele>
        <time>2021-02-21T10:16:07Z</time>
      </trkpt>
      <trkpt lat="44.47764" lon="6.54923">
        <ele>1669</ele>
        <time>2021-02-21T10:16:08Z</time>
      </trkpt>
      <trkpt lat="44.47764" lon="6.54923">
        <ele>1669</ele>
        <time>2021-02-21T10:16:09Z</time>
      </trkpt>
      <trkpt lat="44.47764" lon="6.54923">
        <ele>1669</ele>
        <time>2021-02-21T10:16:10Z</time>
      </trkpt>
      <trkpt lat="44.47764" lon="6.54923">
        <ele>1669</ele>
        <time>2021-02-21T10:16:11Z</time>
      </trkpt>
      <trkpt lat="44.47764" lon="6.54923">
        <ele>1669</ele>
        <time>2021-02-21T10:16:12Z</time>
      </trkpt>
      <trkpt lat="44.47764" lon="6.54923">
        <ele>1669</ele>
        <time>2021-02-21T10:16:13Z</time>
      </trkpt>
      <trkpt lat="44.47764" lon="6.54923">
        <ele>1669</ele>
        <time>2021-02-21T10:16:14Z</time>
      </trkpt>
      <trkpt lat="44.47764" lon="6.54923">
        <ele>1669</ele>
        <time>2021-02-21T10:16:15Z</time>
      </trkpt>
      <trkpt lat="44.47764" lon="6.54923">
        <ele>1669</ele>
        <time>2021-02-21T10:16:16Z</time>
      </trkpt>
      <trkpt lat="44.47764" lon="6.54923">
        <ele>1669</ele>
        <time>2021-02-21T10:16:17Z</time>
      </trkpt>
      <trkpt lat="44.47764" lon="6.54923">
        <ele>1669</ele>
        <time>2021-02-21T10:16:18Z</time>
      </trkpt>
      <trkpt lat="44.47764" lon="6.54923">
        <ele>1669</ele>
        <time>2021-02-21T10:16:19Z</time>
      </trkpt>
      <trkpt lat="44.47764" lon="6.54923">
        <ele>1669</ele>
        <time>2021-02-21T10:16:20Z</time>
      </trkpt>
      <trkpt lat="44.47764" lon="6.54923">
        <ele>1669</ele>
        <time>2021-02-21T10:16:21Z</time>
      </trkpt>
      <trkpt lat="44.47764" lon="6.54923">
        <ele>1669</ele>
        <time>2021-02-21T10:16:22Z</time>
      </trkpt>
      <trkpt lat="44.47764" lon="6.54923">
        <ele>1669</ele>
        <time>2021-02-21T10:16:23Z</time>
      </trkpt>
      <trkpt lat="44.47764" lon="6.54923">
        <ele>1669</ele>
        <time>2021-02-21T10:16:24Z</time>
      </trkpt>
      <trkpt lat="44.47764" lon="6.54923">
        <ele>1669</ele>
        <time>2021-02-21T10:16:25Z</time>
      </trkpt>
      <trkpt lat="44.47764" lon="6.54923">
        <ele>1669</ele>
        <time>2021-02-21T10:16:26Z</time>
      </trkpt>
      <trkpt lat="44.47764" lon="6.54923">
        <ele>1669</ele>
        <time>2021-02-21T10:16:27Z</time>
      </trkpt>
      <trkpt lat="44.47764" lon="6.54923">
        <ele>1669</ele>
        <time>2021-02-21T10:16:28Z</time>
      </trkpt>
      <trkpt lat="44.47764" lon="6.54923">
        <ele>1669</ele>
        <time>2021-02-21T10:16:29Z</time>
      </trkpt>
      <trkpt lat="44.47764" lon="6.54923">
        <ele>1669</ele>
        <time>2021-02-21T10:16:30Z</time>
      </trkpt>
      <trkpt lat="44.47764" lon="6.54923">
        <ele>1669</ele>
        <time>2021-02-21T10:16:31Z</time>
      </trkpt>
      <trkpt lat="44.47764" lon="6.54923">
        <ele>1669</ele>
        <time>2021-02-21T10:16:32Z</time>
      </trkpt>
      <trkpt lat="44.47764" lon="6.54923">
        <ele>1669</ele>
        <time>2021-02-21T10:16:33Z</time>
      </trkpt>
      <trkpt lat="44.47764" lon="6.54923">
        <ele>1669</ele>
        <time>2021-02-21T10:16:34Z</time>
      </trkpt>
      <trkpt lat="44.47764" lon="6.54923">
        <ele>1669</ele>
        <time>2021-02-21T10:16:35Z</time>
      </trkpt>
      <trkpt lat="44.47764" lon="6.54923">
        <ele>1669</ele>
        <time>2021-02-21T10:16:36Z</time>
      </trkpt>
      <trkpt lat="44.47764" lon="6.54923">
        <ele>1669</ele>
        <time>2021-02-21T10:16:37Z</time>
      </trkpt>
      <trkpt lat="44.47764" lon="6.54923">
        <ele>1669</ele>
        <time>2021-02-21T10:16:38Z</time>
      </trkpt>
      <trkpt lat="44.47764" lon="6.54923">
        <ele>1669</ele>
        <time>2021-02-21T10:16:39Z</time>
      </trkpt>
      <trkpt lat="44.47764" lon="6.54923">
        <ele>1669</ele>
        <time>2021-02-21T10:16:40Z</time>
      </trkpt>
      <trkpt lat="44.47764" lon="6.54923">
        <ele>1669</ele>
        <time>2021-02-21T10:16:41Z</time>
      </trkpt>
      <trkpt lat="44.47764" lon="6.54923">
        <ele>1669</ele>
        <time>2021-02-21T10:16:42Z</time>
      </trkpt>
      <trkpt lat="44.47764" lon="6.54923">
        <ele>1669</ele>
        <time>2021-02-21T10:16:43Z</time>
      </trkpt>
      <trkpt lat="44.47764" lon="6.54923">
        <ele>1669</ele>
        <time>2021-02-21T10:16:44Z</time>
      </trkpt>
      <trkpt lat="44.47764" lon="6.54923">
        <ele>1669</ele>
        <time>2021-02-21T10:16:45Z</time>
      </trkpt>
      <trkpt lat="44.47764" lon="6.54923">
        <ele>1669</ele>
        <time>2021-02-21T10:16:46Z</time>
      </trkpt>
      <trkpt lat="44.47764" lon="6.54923">
        <ele>1669</ele>
        <time>2021-02-21T10:16:47Z</time>
      </trkpt>
      <trkpt lat="44.47764" lon="6.54923">
        <ele>1669</ele>
        <time>2021-02-21T10:16:48Z</time>
      </trkpt>
      <trkpt lat="44.47764" lon="6.54923">
        <ele>1669</ele>
        <time>2021-02-21T10:16:49Z</time>
      </trkpt>
      <trkpt lat="44.47764" lon="6.54923">
        <ele>1669</ele>
        <time>2021-02-21T10:16:50Z</time>
      </trkpt>
      <trkpt lat="44.47764" lon="6.54923">
        <ele>1669</ele>
        <time>2021-02-21T10:16:51Z</time>
      </trkpt>
      <trkpt lat="44.47764" lon="6.54923">
        <ele>1669</ele>
        <time>2021-02-21T10:16:52Z</time>
      </trkpt>
      <trkpt lat="44.47764" lon="6.54923">
        <ele>1669</ele>
        <time>2021-02-21T10:16:53Z</time>
      </trkpt>
      <trkpt lat="44.47764" lon="6.54923">
        <ele>1669</ele>
        <time>2021-02-21T10:16:54Z</time>
      </trkpt>
      <trkpt lat="44.47764" lon="6.54923">
        <ele>1669</ele>
        <time>2021-02-21T10:16:55Z</time>
      </trkpt>
      <trkpt lat="44.47764" lon="6.54923">
        <ele>1669</ele>
        <time>2021-02-21T10:16:56Z</time>
      </trkpt>
      <trkpt lat="44.47764" lon="6.54923">
        <ele>1669</ele>
        <time>2021-02-21T10:16:57Z</time>
      </trkpt>
      <trkpt lat="44.47764" lon="6.54923">
        <ele>1669</ele>
        <time>2021-02-21T10:16:58Z</time>
      </trkpt>
      <trkpt lat="44.47764" lon="6.54923">
        <ele>1669</ele>
        <time>2021-02-21T10:16:59Z</time>
      </trkpt>
      <trkpt lat="44.47764" lon="6.54923">
        <ele>1669</ele>
        <time>2021-02-21T10:17:00Z</time>
      </trkpt>
      <trkpt lat="44.47764" lon="6.54923">
        <ele>1669</ele>
        <time>2021-02-21T10:17:01Z</time>
      </trkpt>
      <trkpt lat="44.47764" lon="6.54923">
        <ele>1669</ele>
        <time>2021-02-21T10:17:02Z</time>
      </trkpt>
      <trkpt lat="44.47764" lon="6.54923">
        <ele>1669</ele>
        <time>2021-02-21T10:17:03Z</time>
      </trkpt>
      <trkpt lat="44.47764" lon="6.54923">
        <ele>1669</ele>
        <time>2021-02-21T10:17:04Z</time>
      </trkpt>
      <trkpt lat="44.47764" lon="6.54923">
        <ele>1669</ele>
        <time>2021-02-21T10:17:05Z</time>
      </trkpt>
      <trkpt lat="44.47764" lon="6.54923">
        <ele>1669</ele>
        <time>2021-02-21T10:17:06Z</time>
      </trkpt>
      <trkpt lat="44.47764" lon="6.54923">
        <ele>1669</ele>
        <time>2021-02-21T10:17:07Z</time>
      </trkpt>
      <trkpt lat="44.47764" lon="6.54923">
        <ele>1669</ele>
        <time>2021-02-21T10:17:08Z</time>
      </trkpt>
      <trkpt lat="44.47764" lon="6.54923">
        <ele>1669</ele>
        <time>2021-02-21T10:17:09Z</time>
      </trkpt>
      <trkpt lat="44.47764" lon="6.54923">
        <ele>1669</ele>
        <time>2021-02-21T10:17:10Z</time>
      </trkpt>
      <trkpt lat="44.47764" lon="6.54923">
        <ele>1669</ele>
        <time>2021-02-21T10:17:11Z</time>
      </trkpt>
      <trkpt lat="44.47764" lon="6.54923">
        <ele>1669</ele>
        <time>2021-02-21T10:17:12Z</time>
      </trkpt>
      <trkpt lat="44.47764" lon="6.54923">
        <ele>1669</ele>
        <time>2021-02-21T10:17:13Z</time>
      </trkpt>
      <trkpt lat="44.47764" lon="6.54923">
        <ele>1669</ele>
        <time>2021-02-21T10:17:14Z</time>
      </trkpt>
      <trkpt lat="44.47764" lon="6.54923">
        <ele>1669</ele>
        <time>2021-02-21T10:17:15Z</time>
      </trkpt>
      <trkpt lat="44.47764" lon="6.54923">
        <ele>1669</ele>
        <time>2021-02-21T10:17:16Z</time>
      </trkpt>
      <trkpt lat="44.47764" lon="6.54923">
        <ele>1669</ele>
        <time>2021-02-21T10:17:17Z</time>
      </trkpt>
      <trkpt lat="44.47764" lon="6.54923">
        <ele>1669</ele>
        <time>2021-02-21T10:17:18Z</time>
      </trkpt>
      <trkpt lat="44.47764" lon="6.54923">
        <ele>1669</ele>
        <time>2021-02-21T10:17:19Z</time>
      </trkpt>
      <trkpt lat="44.47764" lon="6.54923">
        <ele>1669</ele>
        <time>2021-02-21T10:17:20Z</time>
      </trkpt>
      <trkpt lat="44.47764" lon="6.54923">
        <ele>1669</ele>
        <time>2021-02-21T10:17:21Z</time>
      </trkpt>
      <trkpt lat="44.47764" lon="6.54923">
        <ele>1669</ele>
        <time>2021-02-21T10:17:22Z</time>
      </trkpt>
      <trkpt lat="44.47764" lon="6.54923">
        <ele>1669</ele>
        <time>2021-02-21T10:17:23Z</time>
      </trkpt>
      <trkpt lat="44.47764" lon="6.54923">
        <ele>1669</ele>
        <time>2021-02-21T10:17:24Z</time>
      </trkpt>
      <trkpt lat="44.47764" lon="6.54923">
        <ele>1669</ele>
        <time>2021-02-21T10:17:25Z</time>
      </trkpt>
      <trkpt lat="44.47764" lon="6.54923">
        <ele>1669</ele>
        <time>2021-02-21T10:17:26Z</time>
      </trkpt>
      <trkpt lat="44.47764" lon="6.54923">
        <ele>1669</ele>
        <time>2021-02-21T10:17:27Z</time>
      </trkpt>
      <trkpt lat="44.47764" lon="6.54923">
        <ele>1669</ele>
        <time>2021-02-21T10:17:28Z</time>
      </trkpt>
      <trkpt lat="44.47764" lon="6.54923">
        <ele>1669</ele>
        <time>2021-02-21T10:17:29Z</time>
      </trkpt>
      <trkpt lat="44.47764" lon="6.54923">
        <ele>1669</ele>
        <time>2021-02-21T10:17:30Z</time>
      </trkpt>
      <trkpt lat="44.47764" lon="6.54923">
        <ele>1669</ele>
        <time>2021-02-21T10:17:31Z</time>
      </trkpt>
      <trkpt lat="44.47764" lon="6.54923">
        <ele>1669</ele>
        <time>2021-02-21T10:17:32Z</time>
      </trkpt>
      <trkpt lat="44.47764" lon="6.54923">
        <ele>1669</ele>
        <time>2021-02-21T10:17:33Z</time>
      </trkpt>
      <trkpt lat="44.47764" lon="6.54923">
        <ele>1669</ele>
        <time>2021-02-21T10:17:34Z</time>
      </trkpt>
      <trkpt lat="44.47764" lon="6.54923">
        <ele>1669</ele>
        <time>2021-02-21T10:17:35Z</time>
      </trkpt>
      <trkpt lat="44.47764" lon="6.54923">
        <ele>1669</ele>
        <time>2021-02-21T10:17:36Z</time>
      </trkpt>
      <trkpt lat="44.47764" lon="6.54923">
        <ele>1669</ele>
        <time>2021-02-21T10:17:37Z</time>
      </trkpt>
      <trkpt lat="44.47764" lon="6.54923">
        <ele>1669</ele>
        <time>2021-02-21T10:17:38Z</time>
      </trkpt>
      <trkpt lat="44.47764" lon="6.54923">
        <ele>1669</ele>
        <time>2021-02-21T10:17:39Z</time>
      </trkpt>
      <trkpt lat="44.47764" lon="6.54923">
        <ele>1669</ele>
        <time>2021-02-21T10:17:40Z</time>
      </trkpt>
      <trkpt lat="44.47764" lon="6.54923">
        <ele>1669</ele>
        <time>2021-02-21T10:17:41Z</time>
      </trkpt>
      <trkpt lat="44.47764" lon="6.54923">
        <ele>1669</ele>
        <time>2021-02-21T10:17:42Z</time>
      </trkpt>
      <trkpt lat="44.47764" lon="6.54923">
        <ele>1669</ele>
        <time>2021-02-21T10:17:43Z</time>
      </trkpt>
      <trkpt lat="44.47764" lon="6.54923">
        <ele>1669</ele>
        <time>2021-02-21T10:17:44Z</time>
      </trkpt>
      <trkpt lat="44.47764" lon="6.54923">
        <ele>1669</ele>
        <time>2021-02-21T10:17:45Z</time>
      </trkpt>
      <trkpt lat="44.47764" lon="6.54923">
        <ele>1669</ele>
        <time>2021-02-21T10:17:46Z</time>
      </trkpt>
      <trkpt lat="44.47764" lon="6.54923">
        <ele>1669</ele>
        <time>2021-02-21T10:17:47Z</time>
      </trkpt>
      <trkpt lat="44.47764" lon="6.54923">
        <ele>1669</ele>
        <time>2021-02-21T10:17:48Z</time>
      </trkpt>
      <trkpt lat="44.47764" lon="6.54923">
        <ele>1669</ele>
        <time>2021-02-21T10:17:49Z</time>
      </trkpt>
      <trkpt lat="44.47764" lon="6.54923">
        <ele>1669</ele>
        <time>2021-02-21T10:17:50Z</time>
      </trkpt>
      <trkpt lat="44.47764" lon="6.54923">
        <ele>1669</ele>
        <time>2021-02-21T10:17:51Z</time>
      </trkpt>
      <trkpt lat="44.47764" lon="6.54923">
        <ele>1669</ele>
        <time>2021-02-21T10:17:52Z</time>
      </trkpt>
      <trkpt lat="44.47764" lon="6.54923">
        <ele>1669</ele>
        <time>2021-02-21T10:17:53Z</time>
      </trkpt>
      <trkpt lat="44.47764" lon="6.54923">
        <ele>1669</ele>
        <time>2021-02-21T10:17:54Z</time>
      </trkpt>
      <trkpt lat="44.47764" lon="6.54923">
        <ele>1669</ele>
        <time>2021-02-21T10:17:55Z</time>
      </trkpt>
      <trkpt lat="44.47764" lon="6.54923">
        <ele>1669</ele>
        <time>2021-02-21T10:17:56Z</time>
      </trkpt>
      <trkpt lat="44.47764" lon="6.54923">
        <ele>1669</ele>
        <time>2021-02-21T10:17:57Z</time>
      </trkpt>
      <trkpt lat="44.47764" lon="6.54923">
        <ele>1669</ele>
        <time>2021-02-21T10:17:58Z</time>
      </trkpt>
      <trkpt lat="44.47764" lon="6.54923">
        <ele>1669</ele>
        <time>2021-02-21T10:17:59Z</time>
      </trkpt>
      <trkpt lat="44.47764" lon="6.54923">
        <ele>1669</ele>
        <time>2021-02-21T10:18:00Z</time>
      </trkpt>
      <trkpt lat="44.47764" lon="6.54923">
        <ele>1669</ele>
        <time>2021-02-21T10:18:01Z</time>
      </trkpt>
      <trkpt lat="44.47764" lon="6.54923">
        <ele>1669</ele>
        <time>2021-02-21T10:18:02Z</time>
      </trkpt>
      <trkpt lat="44.47764" lon="6.54923">
        <ele>1669</ele>
        <time>2021-02-21T10:18:03Z</time>
      </trkpt>
      <trkpt lat="44.47755" lon="6.54921">
        <ele>1667</ele>
        <time>2021-02-21T10:18:04Z</time>
      </trkpt>
      <trkpt lat="44.47755" lon="6.5492">
        <ele>1666</ele>
        <time>2021-02-21T10:18:05Z</time>
      </trkpt>
      <trkpt lat="44.47755" lon="6.5492">
        <ele>1666</ele>
        <time>2021-02-21T10:18:06Z</time>
      </trkpt>
      <trkpt lat="44.47755" lon="6.54919">
        <ele>1666</ele>
        <time>2021-02-21T10:18:07Z</time>
      </trkpt>
      <trkpt lat="44.47755" lon="6.54919">
        <ele>1666</ele>
        <time>2021-02-21T10:18:08Z</time>
      </trkpt>
      <trkpt lat="44.47755" lon="6.54919">
        <ele>1666</ele>
        <time>2021-02-21T10:18:09Z</time>
      </trkpt>
    </trkseg>
  </trk>
</gpx>